<?xml version='1.0' encoding='UTF-8'?><gpx version="1.1" creator="JPX - https://github.com/jenetics/jpx" xmlns="http://www.topografix.com/GPX/1/1"><trk><trkseg><trkpt lat="43.08220652236613" lon="12.149940409117598"><ele>265.0</ele><time>2026-04-12T06:44:23.009Z</time></trkpt><trkpt lat="43.08214344689542" lon="12.150021844474896"><ele>265.0</ele><time>2026-04-12T06:44:24.985Z</time></trkpt><trkpt lat="43.08206814836994" lon="12.150081942988605"><ele>265.0</ele><time>2026-04-12T06:44:26.986Z</time></trkpt><trkpt lat="43.08199416164553" lon="12.15004565309088"><ele>265.0</ele><time>2026-04-12T06:44:29.989Z</time></trkpt><trkpt lat="43.08195938794475" lon="12.149945988917342"><ele>265.0</ele><time>2026-04-12T06:44:32.991Z</time></trkpt><trkpt lat="43.08194686950192" lon="12.149822027430927"><ele>265.0</ele><time>2026-04-12T06:44:33.992Z</time></trkpt><trkpt lat="43.081953925649415" lon="12.14972882973281"><ele>265.0</ele><time>2026-04-12T06:44:34.992Z</time></trkpt><trkpt lat="43.08194585063703" lon="12.149641283790096"><ele>265.0</ele><time>2026-04-12T06:44:35.993Z</time></trkpt><trkpt lat="43.081945411771" lon="12.149533839865953"><ele>265.0</ele><time>2026-04-12T06:44:36.993Z</time></trkpt><trkpt lat="43.081960252678634" lon="12.149421444297664"><ele>265.0</ele><time>2026-04-12T06:44:37.994Z</time></trkpt><trkpt lat="43.081964008972186" lon="12.149311505817236"><ele>265.0</ele><time>2026-04-12T06:44:38.994Z</time></trkpt><trkpt lat="43.0819601313234" lon="12.149209885005808"><ele>265.0</ele><time>2026-04-12T06:44:39.995Z</time></trkpt><trkpt lat="43.081972826669144" lon="12.14910566892489"><ele>265.0</ele><time>2026-04-12T06:44:40.995Z</time></trkpt><trkpt lat="43.08197616048707" lon="12.148940019015122"><ele>265.0</ele><time>2026-04-12T06:44:42.996Z</time></trkpt><trkpt lat="43.081908947505" lon="12.148849862298615"><ele>265.0</ele><time>2026-04-12T06:44:44.996Z</time></trkpt><trkpt lat="43.08184489516262" lon="12.148864124802264"><ele>265.0</ele><time>2026-04-12T06:44:45.997Z</time></trkpt><trkpt lat="43.08177245884764" lon="12.14889503563461"><ele>265.0</ele><time>2026-04-12T06:44:46.997Z</time></trkpt><trkpt lat="43.08165010104114" lon="12.148965932674578"><ele>265.16666666666663</ele><time>2026-04-12T06:44:48.997Z</time></trkpt><trkpt lat="43.081578426304375" lon="12.148988648617749"><ele>265.3333333333333</ele><time>2026-04-12T06:44:49.997Z</time></trkpt><trkpt lat="43.08149358004266" lon="12.149043046084275"><ele>265.5</ele><time>2026-04-12T06:44:50.998Z</time></trkpt><trkpt lat="43.08140439279147" lon="12.149071655900315"><ele>265.6666666666667</ele><time>2026-04-12T06:44:51.998Z</time></trkpt><trkpt lat="43.08131447481896" lon="12.149097743369984"><ele>265.83333333333337</ele><time>2026-04-12T06:44:52.998Z</time></trkpt><trkpt lat="43.08121716868545" lon="12.149082852473702"><ele>266.0</ele><time>2026-04-12T06:44:53.998Z</time></trkpt><trkpt lat="43.08113461860705" lon="12.149016014609469"><ele>266.2</ele><time>2026-04-12T06:44:54.998Z</time></trkpt><trkpt lat="43.08105294009197" lon="12.14897339042916"><ele>266.40000000000003</ele><time>2026-04-12T06:44:55.998Z</time></trkpt><trkpt lat="43.0809652897466" lon="12.14891842454579"><ele>266.6</ele><time>2026-04-12T06:44:56.999Z</time></trkpt><trkpt lat="43.0808702222757" lon="12.14884361968696"><ele>266.8</ele><time>2026-04-12T06:44:57.999Z</time></trkpt><trkpt lat="43.08080156017199" lon="12.148798110950047"><ele>267.0</ele><time>2026-04-12T06:44:58.999Z</time></trkpt><trkpt lat="43.08072517584982" lon="12.148733241866527"><ele>267.6666666666667</ele><time>2026-04-12T06:44:59.999Z</time></trkpt><trkpt lat="43.080653586799755" lon="12.148672175871981"><ele>268.3333333333333</ele><time>2026-04-12T06:45:00.999Z</time></trkpt><trkpt lat="43.08058511925576" lon="12.148628458962852"><ele>269.0</ele><time>2026-04-12T06:45:01.999Z</time></trkpt><trkpt lat="43.08051341608442" lon="12.148626272232454"><ele>269.66666666666663</ele><time>2026-04-12T06:45:02.999Z</time></trkpt><trkpt lat="43.08044258964539" lon="12.148645884644699"><ele>270.3333333333333</ele><time>2026-04-12T06:45:03.999Z</time></trkpt><trkpt lat="43.08036610959357" lon="12.148636905338929"><ele>271.0</ele><time>2026-04-12T06:45:04.999Z</time></trkpt><trkpt lat="43.08029902138017" lon="12.14860743898702"><ele>271.0</ele><time>2026-04-12T06:45:06.999Z</time></trkpt><trkpt lat="43.0802866869761" lon="12.14849359258887"><ele>271.0</ele><time>2026-04-12T06:45:09Z</time></trkpt><trkpt lat="43.08020967773151" lon="12.148405304158615"><ele>271.0</ele><time>2026-04-12T06:45:11Z</time></trkpt><trkpt lat="43.080123519795606" lon="12.148424482728194"><ele>271.0</ele><time>2026-04-12T06:45:12Z</time></trkpt><trkpt lat="43.08000204716669" lon="12.148424482727584"><ele>271.0</ele><time>2026-04-12T06:45:14Z</time></trkpt><trkpt lat="43.07993497407898" lon="12.148407418425354"><ele>271.3333333333333</ele><time>2026-04-12T06:45:16Z</time></trkpt><trkpt lat="43.0798729759092" lon="12.148241189277067"><ele>271.66666666666663</ele><time>2026-04-12T06:45:18Z</time></trkpt><trkpt lat="43.079854532791245" lon="12.148156868783259"><ele>272.0</ele><time>2026-04-12T06:45:19Z</time></trkpt><trkpt lat="43.07984190311001" lon="12.14805171070619"><ele>272.3333333333333</ele><time>2026-04-12T06:45:20Z</time></trkpt><trkpt lat="43.079837093898156" lon="12.147949970770002"><ele>272.6666666666667</ele><time>2026-04-12T06:45:21Z</time></trkpt><trkpt lat="43.07982838596319" lon="12.147844575186845"><ele>273.0</ele><time>2026-04-12T06:45:22Z</time></trkpt><trkpt lat="43.07982535749675" lon="12.14773806962153"><ele>272.3333333333333</ele><time>2026-04-12T06:45:23Z</time></trkpt><trkpt lat="43.079817765408706" lon="12.147637318146643"><ele>271.6666666666667</ele><time>2026-04-12T06:45:24Z</time></trkpt><trkpt lat="43.07981213043163" lon="12.147529462931146"><ele>271.0</ele><time>2026-04-12T06:45:25Z</time></trkpt><trkpt lat="43.07980698348526" lon="12.14742155503115"><ele>270.33333333333337</ele><time>2026-04-12T06:45:26Z</time></trkpt><trkpt lat="43.07980175347169" lon="12.147315128104594"><ele>269.6666666666667</ele><time>2026-04-12T06:45:27Z</time></trkpt><trkpt lat="43.07979259464991" lon="12.147219717349552"><ele>269.0</ele><time>2026-04-12T06:45:28Z</time></trkpt><trkpt lat="43.07979192889497" lon="12.147122165950464"><ele>269.0</ele><time>2026-04-12T06:45:29Z</time></trkpt><trkpt lat="43.07979152477869" lon="12.14702418347771"><ele>269.0</ele><time>2026-04-12T06:45:30Z</time></trkpt><trkpt lat="43.07979864733403" lon="12.146935897079178"><ele>269.0</ele><time>2026-04-12T06:45:31Z</time></trkpt><trkpt lat="43.07981431449838" lon="12.146806306835462"><ele>269.0</ele><time>2026-04-12T06:45:33Z</time></trkpt><trkpt lat="43.07983536835663" lon="12.146715588794551"><ele>269.0</ele><time>2026-04-12T06:45:36Z</time></trkpt><trkpt lat="43.07967539118148" lon="12.146719210835641"><ele>269.0</ele><time>2026-04-12T06:45:38Z</time></trkpt><trkpt lat="43.07960545482738" lon="12.14671980216102"><ele>269.0</ele><time>2026-04-12T06:45:39Z</time></trkpt><trkpt lat="43.07953424625232" lon="12.146713875206292"><ele>269.0</ele><time>2026-04-12T06:45:40Z</time></trkpt><trkpt lat="43.07946370007552" lon="12.146704096379171"><ele>269.0</ele><time>2026-04-12T06:45:41Z</time></trkpt><trkpt lat="43.0793919068324" lon="12.1466972177293"><ele>269.0</ele><time>2026-04-12T06:45:42Z</time></trkpt><trkpt lat="43.079313977249726" lon="12.146680629968152"><ele>269.0</ele><time>2026-04-12T06:45:43Z</time></trkpt><trkpt lat="43.07922968329967" lon="12.14668021542575"><ele>269.0</ele><time>2026-04-12T06:45:44Z</time></trkpt><trkpt lat="43.07914205944673" lon="12.146670621254946"><ele>269.8</ele><time>2026-04-12T06:45:45Z</time></trkpt><trkpt lat="43.079064359930385" lon="12.146654285431078"><ele>270.59999999999997</ele><time>2026-04-12T06:45:46Z</time></trkpt><trkpt lat="43.078971136692346" lon="12.146646848513065"><ele>271.4</ele><time>2026-04-12T06:45:47Z</time></trkpt><trkpt lat="43.078879585425184" lon="12.146644508482558"><ele>272.2</ele><time>2026-04-12T06:45:48Z</time></trkpt><trkpt lat="43.07878954227739" lon="12.146627105104914"><ele>273.0</ele><time>2026-04-12T06:45:49Z</time></trkpt><trkpt lat="43.07869917723217" lon="12.146579345646929"><ele>273.5</ele><time>2026-04-12T06:45:50Z</time></trkpt><trkpt lat="43.07860069893084" lon="12.146517427004234"><ele>274.0</ele><time>2026-04-12T06:45:51Z</time></trkpt><trkpt lat="43.078486845979526" lon="12.14645918570256"><ele>274.5</ele><time>2026-04-12T06:45:52Z</time></trkpt><trkpt lat="43.07837668494254" lon="12.146407785789652"><ele>275.0</ele><time>2026-04-12T06:45:53Z</time></trkpt><trkpt lat="43.07827544497946" lon="12.146354872117954"><ele>274.8</ele><time>2026-04-12T06:45:54Z</time></trkpt><trkpt lat="43.07818399932616" lon="12.146307602132586"><ele>274.6</ele><time>2026-04-12T06:45:55Z</time></trkpt><trkpt lat="43.07808551091717" lon="12.146285082162956"><ele>274.4</ele><time>2026-04-12T06:45:56Z</time></trkpt><trkpt lat="43.07798671125525" lon="12.146266335196074"><ele>274.2</ele><time>2026-04-12T06:45:57Z</time></trkpt><trkpt lat="43.07789333006432" lon="12.14622471541421"><ele>274.0</ele><time>2026-04-12T06:45:58Z</time></trkpt><trkpt lat="43.07781764680948" lon="12.146179096212833"><ele>274.0</ele><time>2026-04-12T06:45:59Z</time></trkpt><trkpt lat="43.07774432489191" lon="12.146136244158717"><ele>274.0</ele><time>2026-04-12T06:46:00Z</time></trkpt><trkpt lat="43.07767055445902" lon="12.146065998457521"><ele>274.0</ele><time>2026-04-12T06:46:01Z</time></trkpt><trkpt lat="43.07758495459521" lon="12.145976492800418"><ele>274.0</ele><time>2026-04-12T06:46:02Z</time></trkpt><trkpt lat="43.077501831378825" lon="12.145887078125075"><ele>274.0</ele><time>2026-04-12T06:46:03Z</time></trkpt><trkpt lat="43.077432196097405" lon="12.145804598506519"><ele>275.4</ele><time>2026-04-12T06:46:04Z</time></trkpt><trkpt lat="43.07735734224147" lon="12.145718446296012"><ele>276.79999999999995</ele><time>2026-04-12T06:46:05Z</time></trkpt><trkpt lat="43.07728814671473" lon="12.145638572519802"><ele>278.20000000000005</ele><time>2026-04-12T06:46:06Z</time></trkpt><trkpt lat="43.07721864745804" lon="12.145573972902909"><ele>279.6</ele><time>2026-04-12T06:46:07Z</time></trkpt><trkpt lat="43.077137318636204" lon="12.145533644357275"><ele>281.0</ele><time>2026-04-12T06:46:08Z</time></trkpt><trkpt lat="43.07704871894638" lon="12.14549561518902"><ele>281.1666666666667</ele><time>2026-04-12T06:46:09Z</time></trkpt><trkpt lat="43.07696411066148" lon="12.145465741397189"><ele>281.33333333333337</ele><time>2026-04-12T06:46:10Z</time></trkpt><trkpt lat="43.0769019120642" lon="12.145440385777238"><ele>281.5</ele><time>2026-04-12T06:46:11Z</time></trkpt><trkpt lat="43.0768176587397" lon="12.145306339056967"><ele>281.6666666666667</ele><time>2026-04-12T06:46:13Z</time></trkpt><trkpt lat="43.07679761289114" lon="12.145207348362261"><ele>281.8333333333333</ele><time>2026-04-12T06:46:14Z</time></trkpt><trkpt lat="43.0767886557634" lon="12.145111037381646"><ele>282.0</ele><time>2026-04-12T06:46:15Z</time></trkpt><trkpt lat="43.07675550781276" lon="12.145007820611458"><ele>282.0</ele><time>2026-04-12T06:46:16Z</time></trkpt><trkpt lat="43.07673603900054" lon="12.14489519712822"><ele>282.0</ele><time>2026-04-12T06:46:17Z</time></trkpt><trkpt lat="43.07672884109907" lon="12.144788709550092"><ele>282.0</ele><time>2026-04-12T06:46:18Z</time></trkpt><trkpt lat="43.07671875481697" lon="12.144702386372417"><ele>282.0</ele><time>2026-04-12T06:46:19Z</time></trkpt><trkpt lat="43.07668103406622" lon="12.144628533658082"><ele>282.0</ele><time>2026-04-12T06:46:20Z</time></trkpt><trkpt lat="43.07663359983206" lon="12.144546144960536"><ele>282.0</ele><time>2026-04-12T06:46:21Z</time></trkpt><trkpt lat="43.076581468079205" lon="12.144456403663275"><ele>283.4</ele><time>2026-04-12T06:46:22Z</time></trkpt><trkpt lat="43.07652641408077" lon="12.144368223568453"><ele>284.79999999999995</ele><time>2026-04-12T06:46:23Z</time></trkpt><trkpt lat="43.076467792445435" lon="12.144272812656215"><ele>286.2</ele><time>2026-04-12T06:46:24Z</time></trkpt><trkpt lat="43.07641142938684" lon="12.144166147828647"><ele>287.59999999999997</ele><time>2026-04-12T06:46:25Z</time></trkpt><trkpt lat="43.0763550181019" lon="12.144059784430643"><ele>289.0</ele><time>2026-04-12T06:46:26Z</time></trkpt><trkpt lat="43.07628821313639" lon="12.14393525082836"><ele>289.8</ele><time>2026-04-12T06:46:27Z</time></trkpt><trkpt lat="43.07622204162899" lon="12.14381188975134"><ele>290.59999999999997</ele><time>2026-04-12T06:46:28Z</time></trkpt><trkpt lat="43.076173239978466" lon="12.143717615862256"><ele>291.4</ele><time>2026-04-12T06:46:29Z</time></trkpt><trkpt lat="43.076126200648716" lon="12.143639838917379"><ele>292.2</ele><time>2026-04-12T06:46:30Z</time></trkpt><trkpt lat="43.07600446562974" lon="12.143606168009795"><ele>293.0</ele><time>2026-04-12T06:46:32.001Z</time></trkpt><trkpt lat="43.0759235227578" lon="12.143650864636355"><ele>293.0</ele><time>2026-04-12T06:46:33.001Z</time></trkpt><trkpt lat="43.07584573935594" lon="12.143677253616456"><ele>293.0</ele><time>2026-04-12T06:46:34.001Z</time></trkpt><trkpt lat="43.0757798359512" lon="12.143679368436223"><ele>293.0</ele><time>2026-04-12T06:46:35.001Z</time></trkpt><trkpt lat="43.0756935403546" lon="12.143566362356085"><ele>293.0</ele><time>2026-04-12T06:46:37.001Z</time></trkpt><trkpt lat="43.075653380755305" lon="12.143467821802098"><ele>293.0</ele><time>2026-04-12T06:46:38.001Z</time></trkpt><trkpt lat="43.07560430804768" lon="12.143372675987232"><ele>293.0</ele><time>2026-04-12T06:46:39.001Z</time></trkpt><trkpt lat="43.075544908103794" lon="12.143292406179443"><ele>296.33333333333337</ele><time>2026-04-12T06:46:40.001Z</time></trkpt><trkpt lat="43.075471967736775" lon="12.14321027388285"><ele>299.6666666666667</ele><time>2026-04-12T06:46:41.001Z</time></trkpt><trkpt lat="43.0753944015225" lon="12.143143999502962"><ele>303.0</ele><time>2026-04-12T06:46:42Z</time></trkpt><trkpt lat="43.075326905255686" lon="12.143072719712722"><ele>306.3333333333333</ele><time>2026-04-12T06:46:43Z</time></trkpt><trkpt lat="43.0752767730943" lon="12.143009777857605"><ele>309.66666666666663</ele><time>2026-04-12T06:46:44Z</time></trkpt><trkpt lat="43.075178978128754" lon="12.142949732614209"><ele>313.0</ele><time>2026-04-12T06:46:46Z</time></trkpt><trkpt lat="43.075092770009405" lon="12.142856001947194"><ele>313.0</ele><time>2026-04-12T06:46:48Z</time></trkpt><trkpt lat="43.07505070828672" lon="12.142746953242705"><ele>313.0</ele><time>2026-04-12T06:46:50Z</time></trkpt><trkpt lat="43.07509810306013" lon="12.142651093764625"><ele>313.0</ele><time>2026-04-12T06:46:52Z</time></trkpt><trkpt lat="43.07518872422999" lon="12.14257240079075"><ele>313.0</ele><time>2026-04-12T06:46:54Z</time></trkpt><trkpt lat="43.07526982401583" lon="12.142470445698304"><ele>313.0</ele><time>2026-04-12T06:46:56Z</time></trkpt><trkpt lat="43.07533711007326" lon="12.142368059081818"><ele>316.0</ele><time>2026-04-12T06:46:58Z</time></trkpt><trkpt lat="43.075388134106646" lon="12.142317369308852"><ele>319.0</ele><time>2026-04-12T06:46:59Z</time></trkpt><trkpt lat="43.075458171938664" lon="12.142204636104841"><ele>322.0</ele><time>2026-04-12T06:47:01Z</time></trkpt><trkpt lat="43.07554049861346" lon="12.14209947638318"><ele>325.0</ele><time>2026-04-12T06:47:03Z</time></trkpt><trkpt lat="43.07560351551857" lon="12.142043996351495"><ele>328.0</ele><time>2026-04-12T06:47:05Z</time></trkpt><trkpt lat="43.07565450382055" lon="12.141938694215131"><ele>328.0</ele><time>2026-04-12T06:47:07Z</time></trkpt><trkpt lat="43.0756959279368" lon="12.141871926816979"><ele>328.0</ele><time>2026-04-12T06:47:08Z</time></trkpt><trkpt lat="43.07575858565386" lon="12.141783129470113"><ele>328.0</ele><time>2026-04-12T06:47:10Z</time></trkpt><trkpt lat="43.07581328005122" lon="12.141698019849402"><ele>328.0</ele><time>2026-04-12T06:47:14Z</time></trkpt><trkpt lat="43.07589363071797" lon="12.141610533431741"><ele>328.0</ele><time>2026-04-12T06:47:17Z</time></trkpt><trkpt lat="43.07597117305646" lon="12.141581141434056"><ele>328.0</ele><time>2026-04-12T06:47:19Z</time></trkpt><trkpt lat="43.07603244676685" lon="12.141530494079765"><ele>328.59999999999997</ele><time>2026-04-12T06:47:20Z</time></trkpt><trkpt lat="43.07610062390349" lon="12.141415773695593"><ele>329.2</ele><time>2026-04-12T06:47:22Z</time></trkpt><trkpt lat="43.076114229626384" lon="12.141314249961225"><ele>329.8</ele><time>2026-04-12T06:47:24Z</time></trkpt><trkpt lat="43.076165358669506" lon="12.141208818010629"><ele>330.4</ele><time>2026-04-12T06:47:26Z</time></trkpt><trkpt lat="43.076291624181685" lon="12.141164908752033"><ele>331.0</ele><time>2026-04-12T06:47:28Z</time></trkpt><trkpt lat="43.07635197669552" lon="12.141103673774115"><ele>331.0</ele><time>2026-04-12T06:47:29Z</time></trkpt><trkpt lat="43.07644953083008" lon="12.140999962530715"><ele>331.0</ele><time>2026-04-12T06:47:31Z</time></trkpt><trkpt lat="43.07651634659542" lon="12.14095929538851"><ele>331.0</ele><time>2026-04-12T06:47:32Z</time></trkpt><trkpt lat="43.07657534712768" lon="12.140907201574878"><ele>331.0</ele><time>2026-04-12T06:47:33Z</time></trkpt><trkpt lat="43.07663200805658" lon="12.140839493371557"><ele>331.0</ele><time>2026-04-12T06:47:34Z</time></trkpt><trkpt lat="43.0766957766593" lon="12.140784274691226"><ele>331.0</ele><time>2026-04-12T06:47:35Z</time></trkpt><trkpt lat="43.07675152916531" lon="12.140720705247269"><ele>331.66666666666663</ele><time>2026-04-12T06:47:36Z</time></trkpt><trkpt lat="43.076855088083484" lon="12.140614210675944"><ele>332.3333333333333</ele><time>2026-04-12T06:47:38Z</time></trkpt><trkpt lat="43.076910524119434" lon="12.140565329708503"><ele>333.0</ele><time>2026-04-12T06:47:39Z</time></trkpt><trkpt lat="43.07697137427232" lon="12.14050841181648"><ele>333.6666666666667</ele><time>2026-04-12T06:47:40Z</time></trkpt><trkpt lat="43.07702666403614" lon="12.140451614186023"><ele>334.33333333333337</ele><time>2026-04-12T06:47:41Z</time></trkpt><trkpt lat="43.077101125818224" lon="12.14039590226343"><ele>335.0</ele><time>2026-04-12T06:47:42Z</time></trkpt><trkpt lat="43.07718963590587" lon="12.140340790378445"><ele>335.0</ele><time>2026-04-12T06:47:43Z</time></trkpt><trkpt lat="43.0772760228552" lon="12.140274691194163"><ele>335.0</ele><time>2026-04-12T06:47:44Z</time></trkpt><trkpt lat="43.07735240265318" lon="12.140213188003967"><ele>335.0</ele><time>2026-04-12T06:47:45Z</time></trkpt><trkpt lat="43.07741921843652" lon="12.140140335774351"><ele>335.0</ele><time>2026-04-12T06:47:46Z</time></trkpt><trkpt lat="43.07746860833628" lon="12.14005864524578"><ele>335.0</ele><time>2026-04-12T06:47:47Z</time></trkpt><trkpt lat="43.07750698019978" lon="12.139971891381627"><ele>335.0</ele><time>2026-04-12T06:47:48Z</time></trkpt><trkpt lat="43.07754196253052" lon="12.13987718573634"><ele>333.33333333333337</ele><time>2026-04-12T06:47:49Z</time></trkpt><trkpt lat="43.077581797875524" lon="12.139769623948546"><ele>331.6666666666667</ele><time>2026-04-12T06:47:50Z</time></trkpt><trkpt lat="43.07760851215533" lon="12.139652969311664"><ele>330.0</ele><time>2026-04-12T06:47:51Z</time></trkpt><trkpt lat="43.077610937244245" lon="12.139532486118602"><ele>328.3333333333333</ele><time>2026-04-12T06:47:52Z</time></trkpt><trkpt lat="43.077608573884405" lon="12.139421785479158"><ele>326.66666666666663</ele><time>2026-04-12T06:47:53Z</time></trkpt><trkpt lat="43.077606583022366" lon="12.139311505949944"><ele>325.0</ele><time>2026-04-12T06:47:54Z</time></trkpt><trkpt lat="43.07760915111104" lon="12.13920020528647"><ele>325.0</ele><time>2026-04-12T06:47:55Z</time></trkpt><trkpt lat="43.07761391026398" lon="12.1390955981663"><ele>325.0</ele><time>2026-04-12T06:47:56Z</time></trkpt><trkpt lat="43.07761613509206" lon="12.138992051902253"><ele>325.0</ele><time>2026-04-12T06:47:57Z</time></trkpt><trkpt lat="43.07762941849647" lon="12.138898189577198"><ele>325.0</ele><time>2026-04-12T06:47:58Z</time></trkpt><trkpt lat="43.07765825320618" lon="12.1388174785517"><ele>325.0</ele><time>2026-04-12T06:47:59Z</time></trkpt><trkpt lat="43.07771407636332" lon="12.13875462443278"><ele>325.0</ele><time>2026-04-12T06:48:00Z</time></trkpt><trkpt lat="43.0777845684092" lon="12.138725762428553"><ele>325.0</ele><time>2026-04-12T06:48:01Z</time></trkpt><trkpt lat="43.07786385157292" lon="12.138698200549216"><ele>325.8333333333333</ele><time>2026-04-12T06:48:02Z</time></trkpt><trkpt lat="43.077901233728895" lon="12.138536096953333"><ele>326.66666666666663</ele><time>2026-04-12T06:48:03Z</time></trkpt><trkpt lat="43.07797066674117" lon="12.138505996255141"><ele>327.5</ele><time>2026-04-12T06:48:04Z</time></trkpt><trkpt lat="43.07803566390319" lon="12.138491230466704"><ele>328.3333333333333</ele><time>2026-04-12T06:48:05Z</time></trkpt><trkpt lat="43.07809951661246" lon="12.138497413701947"><ele>329.1666666666667</ele><time>2026-04-12T06:48:06Z</time></trkpt><trkpt lat="43.07816105454497" lon="12.138531860077924"><ele>330.0</ele><time>2026-04-12T06:48:08Z</time></trkpt><trkpt lat="43.078097505876066" lon="12.138483524087427"><ele>330.0</ele><time>2026-04-12T06:48:13Z</time></trkpt><trkpt lat="43.07801335139232" lon="12.138489284334451"><ele>330.0</ele><time>2026-04-12T06:48:15Z</time></trkpt><trkpt lat="43.07789821077307" lon="12.138532060297141"><ele>330.0</ele><time>2026-04-12T06:48:17Z</time></trkpt><trkpt lat="43.077830353756696" lon="12.138566764978476"><ele>330.0</ele><time>2026-04-12T06:48:18Z</time></trkpt><trkpt lat="43.07775495718728" lon="12.138610757772527"><ele>330.0</ele><time>2026-04-12T06:48:19Z</time></trkpt><trkpt lat="43.077686222771284" lon="12.138654384412488"><ele>330.0</ele><time>2026-04-12T06:48:20Z</time></trkpt><trkpt lat="43.077594646452376" lon="12.138664615708553"><ele>330.0</ele><time>2026-04-12T06:48:22Z</time></trkpt><trkpt lat="43.077600044408356" lon="12.138537796427476"><ele>330.0</ele><time>2026-04-12T06:48:24Z</time></trkpt><trkpt lat="43.07765444493981" lon="12.138489269269769"><ele>330.0</ele><time>2026-04-12T06:48:25Z</time></trkpt><trkpt lat="43.07771837204623" lon="12.138444314417482"><ele>330.0</ele><time>2026-04-12T06:48:26Z</time></trkpt><trkpt lat="43.077771396627256" lon="12.138364074514424"><ele>330.0</ele><time>2026-04-12T06:48:28Z</time></trkpt><trkpt lat="43.077713466686916" lon="12.138300713807874"><ele>330.0</ele><time>2026-04-12T06:48:29Z</time></trkpt><trkpt lat="43.077599826584134" lon="12.138369331605176"><ele>330.0</ele><time>2026-04-12T06:48:31Z</time></trkpt><trkpt lat="43.07753569752172" lon="12.138370546976223"><ele>330.0</ele><time>2026-04-12T06:48:32Z</time></trkpt><trkpt lat="43.07741777880154" lon="12.138417503643915"><ele>330.0</ele><time>2026-04-12T06:48:34Z</time></trkpt><trkpt lat="43.077328281070926" lon="12.138437017738347"><ele>330.0</ele><time>2026-04-12T06:48:36Z</time></trkpt><trkpt lat="43.077303061714765" lon="12.13830483661885"><ele>330.0</ele><time>2026-04-12T06:48:38Z</time></trkpt><trkpt lat="43.07723970012874" lon="12.13815246871568"><ele>331.3333333333333</ele><time>2026-04-12T06:48:40Z</time></trkpt><trkpt lat="43.077198280881866" lon="12.13808133904528"><ele>332.6666666666667</ele><time>2026-04-12T06:48:41Z</time></trkpt><trkpt lat="43.07714416171856" lon="12.138020831046376"><ele>334.0</ele><time>2026-04-12T06:48:42Z</time></trkpt><trkpt lat="43.077076942746885" lon="12.13799445887036"><ele>335.33333333333337</ele><time>2026-04-12T06:48:43Z</time></trkpt><trkpt lat="43.077010981660344" lon="12.137934520037884"><ele>336.6666666666667</ele><time>2026-04-12T06:48:45Z</time></trkpt><trkpt lat="43.07693383664138" lon="12.137852670742454"><ele>338.0</ele><time>2026-04-12T06:48:48Z</time></trkpt><trkpt lat="43.07686143145759" lon="12.137923923749433"><ele>338.0</ele><time>2026-04-12T06:48:49Z</time></trkpt><trkpt lat="43.076834704785455" lon="12.138014207983423"><ele>338.0</ele><time>2026-04-12T06:48:50Z</time></trkpt><trkpt lat="43.07682482280839" lon="12.138114295318505"><ele>338.0</ele><time>2026-04-12T06:48:51Z</time></trkpt><trkpt lat="43.07687602644422" lon="12.13821234738212"><ele>338.0</ele><time>2026-04-12T06:48:52Z</time></trkpt><trkpt lat="43.07688254291462" lon="12.138317059618632"><ele>338.0</ele><time>2026-04-12T06:48:53Z</time></trkpt><trkpt lat="43.07688567865291" lon="12.138426366072501"><ele>338.0</ele><time>2026-04-12T06:48:54Z</time></trkpt><trkpt lat="43.0768836272256" lon="12.13854718056137"><ele>340.6666666666667</ele><time>2026-04-12T06:48:55Z</time></trkpt><trkpt lat="43.07686976283271" lon="12.138657906781408"><ele>343.33333333333337</ele><time>2026-04-12T06:48:56Z</time></trkpt><trkpt lat="43.076852138703174" lon="12.13876813565971"><ele>346.0</ele><time>2026-04-12T06:48:57Z</time></trkpt><trkpt lat="43.07681897244232" lon="12.138867516336866"><ele>348.6666666666667</ele><time>2026-04-12T06:48:58Z</time></trkpt><trkpt lat="43.076738385903155" lon="12.13889417430551"><ele>351.3333333333333</ele><time>2026-04-12T06:48:59Z</time></trkpt><trkpt lat="43.07666149339998" lon="12.138970081093152"><ele>354.0</ele><time>2026-04-12T06:49:00Z</time></trkpt><trkpt lat="43.07657737422069" lon="12.139063109921363"><ele>356.75</ele><time>2026-04-12T06:49:01Z</time></trkpt><trkpt lat="43.0764754540143" lon="12.13910707762066"><ele>359.5</ele><time>2026-04-12T06:49:02Z</time></trkpt><trkpt lat="43.07636079220645" lon="12.139207744440133"><ele>362.25</ele><time>2026-04-12T06:49:03Z</time></trkpt><trkpt lat="43.076259172254495" lon="12.139281916746517"><ele>365.0</ele><time>2026-04-12T06:49:04Z</time></trkpt><trkpt lat="43.07616566444646" lon="12.139308897007432"><ele>365.0</ele><time>2026-04-12T06:49:05Z</time></trkpt><trkpt lat="43.0760778587747" lon="12.139326417391759"><ele>365.0</ele><time>2026-04-12T06:49:06Z</time></trkpt><trkpt lat="43.075991684757426" lon="12.139315371283432"><ele>365.0</ele><time>2026-04-12T06:49:07Z</time></trkpt><trkpt lat="43.07589749560936" lon="12.139298771143356"><ele>365.0</ele><time>2026-04-12T06:49:08Z</time></trkpt><trkpt lat="43.075795896469046" lon="12.139268371605137"><ele>365.0</ele><time>2026-04-12T06:49:09Z</time></trkpt><trkpt lat="43.07570529672038" lon="12.139242009510392"><ele>364.6</ele><time>2026-04-12T06:49:10Z</time></trkpt><trkpt lat="43.075616784455455" lon="12.139216254815723"><ele>364.2</ele><time>2026-04-12T06:49:11Z</time></trkpt><trkpt lat="43.07552118134506" lon="12.139273785626775"><ele>363.79999999999995</ele><time>2026-04-12T06:49:12Z</time></trkpt><trkpt lat="43.07543231982105" lon="12.13930543551821"><ele>363.4</ele><time>2026-04-12T06:49:13Z</time></trkpt><trkpt lat="43.075335697364096" lon="12.139368072363451"><ele>363.0</ele><time>2026-04-12T06:49:14Z</time></trkpt><trkpt lat="43.075245683788886" lon="12.139441450976646"><ele>363.0</ele><time>2026-04-12T06:49:15Z</time></trkpt><trkpt lat="43.075159482163805" lon="12.139507144190414"><ele>363.0</ele><time>2026-04-12T06:49:16Z</time></trkpt><trkpt lat="43.075077294805396" lon="12.139574392064494"><ele>363.0</ele><time>2026-04-12T06:49:17Z</time></trkpt><trkpt lat="43.07499065440219" lon="12.13963521953976"><ele>363.0</ele><time>2026-04-12T06:49:18Z</time></trkpt><trkpt lat="43.074899860971996" lon="12.139690036970187"><ele>363.0</ele><time>2026-04-12T06:49:19Z</time></trkpt><trkpt lat="43.07481132433688" lon="12.139739755095919"><ele>363.3333333333333</ele><time>2026-04-12T06:49:20Z</time></trkpt><trkpt lat="43.07471938968671" lon="12.13979435890493"><ele>363.6666666666667</ele><time>2026-04-12T06:49:21Z</time></trkpt><trkpt lat="43.07464485918103" lon="12.139841543586709"><ele>364.0</ele><time>2026-04-12T06:49:22Z</time></trkpt><trkpt lat="43.074579879848514" lon="12.13987509086747"><ele>364.33333333333337</ele><time>2026-04-12T06:49:23Z</time></trkpt><trkpt lat="43.074472846371854" lon="12.139894725098339"><ele>364.6666666666667</ele><time>2026-04-12T06:49:25Z</time></trkpt><trkpt lat="43.07440775570845" lon="12.139864614226255"><ele>365.0</ele><time>2026-04-12T06:49:26Z</time></trkpt><trkpt lat="43.07432962519873" lon="12.139853720665956"><ele>365.0</ele><time>2026-04-12T06:49:27Z</time></trkpt><trkpt lat="43.07424976539231" lon="12.13987341586054"><ele>365.0</ele><time>2026-04-12T06:49:28Z</time></trkpt><trkpt lat="43.07416900715552" lon="12.139902932487448"><ele>365.0</ele><time>2026-04-12T06:49:29Z</time></trkpt><trkpt lat="43.074076991016184" lon="12.139944382519737"><ele>365.0</ele><time>2026-04-12T06:49:30Z</time></trkpt><trkpt lat="43.07396860085462" lon="12.139973333566642"><ele>365.0</ele><time>2026-04-12T06:49:31Z</time></trkpt><trkpt lat="43.07386665541029" lon="12.139995509454963"><ele>365.2</ele><time>2026-04-12T06:49:32Z</time></trkpt><trkpt lat="43.07378344057057" lon="12.140016656801672"><ele>365.4</ele><time>2026-04-12T06:49:33Z</time></trkpt><trkpt lat="43.07371927688125" lon="12.140015598175676"><ele>365.6</ele><time>2026-04-12T06:49:34Z</time></trkpt><trkpt lat="43.07359922389878" lon="12.139932565073604"><ele>365.8</ele><time>2026-04-12T06:49:36Z</time></trkpt><trkpt lat="43.07351582763475" lon="12.139875846077288"><ele>366.0</ele><time>2026-04-12T06:49:37Z</time></trkpt><trkpt lat="43.073424413958" lon="12.1397941732505"><ele>366.0</ele><time>2026-04-12T06:49:38Z</time></trkpt><trkpt lat="43.073340374689835" lon="12.139723055661042"><ele>366.0</ele><time>2026-04-12T06:49:39Z</time></trkpt><trkpt lat="43.07326181633501" lon="12.139679298971446"><ele>366.0</ele><time>2026-04-12T06:49:40Z</time></trkpt><trkpt lat="43.07317795793405" lon="12.13966790541672"><ele>366.0</ele><time>2026-04-12T06:49:41Z</time></trkpt><trkpt lat="43.07308748496286" lon="12.139664351564312"><ele>366.0</ele><time>2026-04-12T06:49:42Z</time></trkpt><trkpt lat="43.073005527346794" lon="12.139653951600957"><ele>366.0</ele><time>2026-04-12T06:49:43Z</time></trkpt><trkpt lat="43.07292929931619" lon="12.139652725708192"><ele>366.0</ele><time>2026-04-12T06:49:44Z</time></trkpt><trkpt lat="43.07285995257243" lon="12.139697225220756"><ele>366.0</ele><time>2026-04-12T06:49:45Z</time></trkpt><trkpt lat="43.0727836015085" lon="12.139757716985361"><ele>366.0</ele><time>2026-04-12T06:49:46Z</time></trkpt><trkpt lat="43.07269629569611" lon="12.139802038904607"><ele>366.0</ele><time>2026-04-12T06:49:47Z</time></trkpt><trkpt lat="43.07260356838077" lon="12.139818067672383"><ele>366.0</ele><time>2026-04-12T06:49:48Z</time></trkpt><trkpt lat="43.07250823643627" lon="12.13981446070007"><ele>366.0</ele><time>2026-04-12T06:49:49Z</time></trkpt><trkpt lat="43.0724078099546" lon="12.139817292511538"><ele>366.0</ele><time>2026-04-12T06:49:50Z</time></trkpt><trkpt lat="43.07232632556762" lon="12.139832038853882"><ele>366.0</ele><time>2026-04-12T06:49:51Z</time></trkpt><trkpt lat="43.07223254953093" lon="12.139801487755664"><ele>366.0</ele><time>2026-04-12T06:49:52Z</time></trkpt><trkpt lat="43.072143766811834" lon="12.139735592849268"><ele>366.0</ele><time>2026-04-12T06:49:53Z</time></trkpt><trkpt lat="43.07205224178842" lon="12.139669020806403"><ele>366.0</ele><time>2026-04-12T06:49:54Z</time></trkpt><trkpt lat="43.0719767153042" lon="12.139624889985726"><ele>366.0</ele><time>2026-04-12T06:49:55Z</time></trkpt><trkpt lat="43.07189583426912" lon="12.139598145289268"><ele>366.0</ele><time>2026-04-12T06:49:56Z</time></trkpt><trkpt lat="43.07181647875123" lon="12.139586519547864"><ele>366.0</ele><time>2026-04-12T06:49:57Z</time></trkpt><trkpt lat="43.07174364990246" lon="12.139587511086104"><ele>366.0</ele><time>2026-04-12T06:49:58Z</time></trkpt><trkpt lat="43.071667996617926" lon="12.139600322609422"><ele>366.0</ele><time>2026-04-12T06:49:59Z</time></trkpt><trkpt lat="43.07159448693265" lon="12.139635574249944"><ele>366.0</ele><time>2026-04-12T06:50:00Z</time></trkpt><trkpt lat="43.07153036956946" lon="12.139643125919823"><ele>370.8333333333333</ele><time>2026-04-12T06:50:01Z</time></trkpt><trkpt lat="43.07146588042421" lon="12.139607368254495"><ele>375.66666666666663</ele><time>2026-04-12T06:50:02Z</time></trkpt><trkpt lat="43.07141865649023" lon="12.139535685648784"><ele>380.5</ele><time>2026-04-12T06:50:03Z</time></trkpt><trkpt lat="43.07139080206287" lon="12.139451565509"><ele>385.3333333333333</ele><time>2026-04-12T06:50:04Z</time></trkpt><trkpt lat="43.07136556551666" lon="12.13935650803471"><ele>390.16666666666663</ele><time>2026-04-12T06:50:05Z</time></trkpt><trkpt lat="43.071341416656374" lon="12.139235366377699"><ele>395.0</ele><time>2026-04-12T06:50:06Z</time></trkpt><trkpt lat="43.07132622204922" lon="12.139091521913524"><ele>391.4</ele><time>2026-04-12T06:50:07Z</time></trkpt><trkpt lat="43.07132820072503" lon="12.138950191678049"><ele>387.8</ele><time>2026-04-12T06:50:08Z</time></trkpt><trkpt lat="43.07132940442717" lon="12.138821735313941"><ele>384.20000000000005</ele><time>2026-04-12T06:50:09Z</time></trkpt><trkpt lat="43.071319146189204" lon="12.138672747787592"><ele>380.6</ele><time>2026-04-12T06:50:10Z</time></trkpt><trkpt lat="43.07128357742759" lon="12.138522818802441"><ele>377.0</ele><time>2026-04-12T06:50:11Z</time></trkpt><trkpt lat="43.07124811062829" lon="12.13839391406062"><ele>377.0</ele><time>2026-04-12T06:50:12Z</time></trkpt><trkpt lat="43.07121693187111" lon="12.13828995116555"><ele>377.0</ele><time>2026-04-12T06:50:13Z</time></trkpt><trkpt lat="43.0711529882462" lon="12.138146937052102"><ele>377.0</ele><time>2026-04-12T06:50:15Z</time></trkpt><trkpt lat="43.07108935246663" lon="12.138116368348571"><ele>377.0</ele><time>2026-04-12T06:50:16Z</time></trkpt><trkpt lat="43.071018935464785" lon="12.138123259469188"><ele>377.0</ele><time>2026-04-12T06:50:17Z</time></trkpt><trkpt lat="43.070952141406536" lon="12.138158361876288"><ele>377.0</ele><time>2026-04-12T06:50:18Z</time></trkpt><trkpt lat="43.07088657140836" lon="12.138222214508632"><ele>377.0</ele><time>2026-04-12T06:50:19Z</time></trkpt><trkpt lat="43.07082167146953" lon="12.13829438374505"><ele>377.0</ele><time>2026-04-12T06:50:20Z</time></trkpt><trkpt lat="43.0707611677784" lon="12.138385778562101"><ele>377.0</ele><time>2026-04-12T06:50:21Z</time></trkpt><trkpt lat="43.07069557391422" lon="12.138485572320256"><ele>377.0</ele><time>2026-04-12T06:50:22Z</time></trkpt><trkpt lat="43.070632735435126" lon="12.138583805506324"><ele>377.0</ele><time>2026-04-12T06:50:23Z</time></trkpt><trkpt lat="43.07055164132581" lon="12.138666618208418"><ele>379.0</ele><time>2026-04-12T06:50:24Z</time></trkpt><trkpt lat="43.07046150012025" lon="12.138690693500674"><ele>381.0</ele><time>2026-04-12T06:50:25Z</time></trkpt><trkpt lat="43.07037245945341" lon="12.138683374434372"><ele>383.0</ele><time>2026-04-12T06:50:26Z</time></trkpt><trkpt lat="43.07027771910378" lon="12.13864877665487"><ele>385.0</ele><time>2026-04-12T06:50:27Z</time></trkpt><trkpt lat="43.07018509066794" lon="12.138589058510291"><ele>387.0</ele><time>2026-04-12T06:50:28Z</time></trkpt><trkpt lat="43.07010497777984" lon="12.138515075898706"><ele>387.0</ele><time>2026-04-12T06:50:29Z</time></trkpt><trkpt lat="43.07003775016053" lon="12.1384329812682"><ele>387.0</ele><time>2026-04-12T06:50:30Z</time></trkpt><trkpt lat="43.0699792845059" lon="12.13836196704064"><ele>387.0</ele><time>2026-04-12T06:50:31Z</time></trkpt><trkpt lat="43.069910630364916" lon="12.138296944942825"><ele>387.0</ele><time>2026-04-12T06:50:32Z</time></trkpt><trkpt lat="43.06983453837378" lon="12.13822639108558"><ele>387.0</ele><time>2026-04-12T06:50:33Z</time></trkpt><trkpt lat="43.06976107297336" lon="12.13814570606472"><ele>387.0</ele><time>2026-04-12T06:50:34Z</time></trkpt><trkpt lat="43.06967882099522" lon="12.138052941606421"><ele>387.40000000000003</ele><time>2026-04-12T06:50:35Z</time></trkpt><trkpt lat="43.069600634565404" lon="12.137957910353872"><ele>387.8</ele><time>2026-04-12T06:50:36Z</time></trkpt><trkpt lat="43.069525327171625" lon="12.13787906234829"><ele>388.2</ele><time>2026-04-12T06:50:37Z</time></trkpt><trkpt lat="43.06944523512054" lon="12.137798809067554"><ele>388.6</ele><time>2026-04-12T06:50:38Z</time></trkpt><trkpt lat="43.069377469992475" lon="12.13771389760554"><ele>389.0</ele><time>2026-04-12T06:50:39Z</time></trkpt><trkpt lat="43.069318058721294" lon="12.137632848166337"><ele>389.0</ele><time>2026-04-12T06:50:40Z</time></trkpt><trkpt lat="43.06924721588109" lon="12.137575189361185"><ele>389.0</ele><time>2026-04-12T06:50:41Z</time></trkpt><trkpt lat="43.06913963818458" lon="12.137549180187737"><ele>389.0</ele><time>2026-04-12T06:50:43Z</time></trkpt><trkpt lat="43.06903857259855" lon="12.13753431034894"><ele>389.0</ele><time>2026-04-12T06:50:45Z</time></trkpt><trkpt lat="43.06895149049406" lon="12.137461586339661"><ele>389.0</ele><time>2026-04-12T06:50:47Z</time></trkpt><trkpt lat="43.06887750433621" lon="12.137333724131137"><ele>387.49999999999994</ele><time>2026-04-12T06:50:49Z</time></trkpt><trkpt lat="43.068814988120664" lon="12.137254243395532"><ele>386.0</ele><time>2026-04-12T06:50:50Z</time></trkpt><trkpt lat="43.068739976031374" lon="12.137176755932021"><ele>384.5</ele><time>2026-04-12T06:50:51Z</time></trkpt><trkpt lat="43.06867094337479" lon="12.137110341675026"><ele>383.0</ele><time>2026-04-12T06:50:52Z</time></trkpt><trkpt lat="43.06859655894785" lon="12.137052161299353"><ele>381.5</ele><time>2026-04-12T06:50:53Z</time></trkpt><trkpt lat="43.068531451789674" lon="12.136994680217217"><ele>380.0</ele><time>2026-04-12T06:50:54Z</time></trkpt><trkpt lat="43.068480429868586" lon="12.136930776240177"><ele>380.0</ele><time>2026-04-12T06:50:55Z</time></trkpt><trkpt lat="43.06842479038811" lon="12.136881973083542"><ele>380.0</ele><time>2026-04-12T06:50:56Z</time></trkpt><trkpt lat="43.06836150762311" lon="12.136849104348096"><ele>380.0</ele><time>2026-04-12T06:50:57Z</time></trkpt><trkpt lat="43.06829680335058" lon="12.136817182892425"><ele>380.0</ele><time>2026-04-12T06:50:58Z</time></trkpt><trkpt lat="43.06823464388251" lon="12.136778138179976"><ele>380.0</ele><time>2026-04-12T06:50:59Z</time></trkpt><trkpt lat="43.06816733142231" lon="12.13673052022367"><ele>380.0</ele><time>2026-04-12T06:51:00Z</time></trkpt><trkpt lat="43.06812017637542" lon="12.136655067709508"><ele>380.0</ele><time>2026-04-12T06:51:01Z</time></trkpt><trkpt lat="43.06808072798257" lon="12.136571666089464"><ele>377.0</ele><time>2026-04-12T06:51:02Z</time></trkpt><trkpt lat="43.068028822758635" lon="12.136498972827926"><ele>374.0</ele><time>2026-04-12T06:51:03Z</time></trkpt><trkpt lat="43.067980082032456" lon="12.13643152012721"><ele>371.0</ele><time>2026-04-12T06:51:04Z</time></trkpt><trkpt lat="43.0679367089302" lon="12.136353107156115"><ele>368.0</ele><time>2026-04-12T06:51:05Z</time></trkpt><trkpt lat="43.06789413326756" lon="12.136264120979561"><ele>365.0</ele><time>2026-04-12T06:51:06Z</time></trkpt><trkpt lat="43.06785714369035" lon="12.136172704535642"><ele>362.0</ele><time>2026-04-12T06:51:07Z</time></trkpt><trkpt lat="43.06783033348109" lon="12.13607314826666"><ele>359.0</ele><time>2026-04-12T06:51:08Z</time></trkpt><trkpt lat="43.06781125800822" lon="12.13598022319832"><ele>359.0</ele><time>2026-04-12T06:51:09Z</time></trkpt><trkpt lat="43.06782200283506" lon="12.135894367694965"><ele>359.0</ele><time>2026-04-12T06:51:10Z</time></trkpt><trkpt lat="43.067852186334335" lon="12.135786972821183"><ele>359.0</ele><time>2026-04-12T06:51:11Z</time></trkpt><trkpt lat="43.06788297573439" lon="12.13566602495808"><ele>359.0</ele><time>2026-04-12T06:51:12Z</time></trkpt><trkpt lat="43.06791825624558" lon="12.135541055848561"><ele>359.0</ele><time>2026-04-12T06:51:13Z</time></trkpt><trkpt lat="43.06795866189678" lon="12.135423988135095"><ele>359.0</ele><time>2026-04-12T06:51:14Z</time></trkpt><trkpt lat="43.06798998168054" lon="12.135320599246082"><ele>358.1666666666667</ele><time>2026-04-12T06:51:15Z</time></trkpt><trkpt lat="43.06801744406837" lon="12.135218064187214"><ele>357.33333333333337</ele><time>2026-04-12T06:51:16Z</time></trkpt><trkpt lat="43.068038657725445" lon="12.135120543351947"><ele>356.5</ele><time>2026-04-12T06:51:17Z</time></trkpt><trkpt lat="43.06806751891059" lon="12.135029507218563"><ele>355.6666666666667</ele><time>2026-04-12T06:51:18Z</time></trkpt><trkpt lat="43.06809445852758" lon="12.134948393972545"><ele>354.8333333333333</ele><time>2026-04-12T06:51:19Z</time></trkpt><trkpt lat="43.068097115823065" lon="12.13479949419534"><ele>354.0</ele><time>2026-04-12T06:51:21Z</time></trkpt><trkpt lat="43.06805753387419" lon="12.134659590161943"><ele>351.79999999999995</ele><time>2026-04-12T06:51:23Z</time></trkpt><trkpt lat="43.06794318850195" lon="12.134662243050474"><ele>349.59999999999997</ele><time>2026-04-12T06:51:25Z</time></trkpt><trkpt lat="43.06784469833959" lon="12.134659720975922"><ele>347.4</ele><time>2026-04-12T06:51:26Z</time></trkpt><trkpt lat="43.06775206894183" lon="12.134640964348792"><ele>345.2</ele><time>2026-04-12T06:51:27Z</time></trkpt><trkpt lat="43.06767484223827" lon="12.134633760593989"><ele>343.0</ele><time>2026-04-12T06:51:28Z</time></trkpt><trkpt lat="43.06759960022882" lon="12.134641049042381"><ele>343.0</ele><time>2026-04-12T06:51:29Z</time></trkpt><trkpt lat="43.06753692725291" lon="12.134649710650367"><ele>343.0</ele><time>2026-04-12T06:51:30Z</time></trkpt><trkpt lat="43.06742376290751" lon="12.13462904007478"><ele>343.0</ele><time>2026-04-12T06:51:32Z</time></trkpt><trkpt lat="43.06735915960402" lon="12.134594230179124"><ele>343.0</ele><time>2026-04-12T06:51:33Z</time></trkpt><trkpt lat="43.06728617847483" lon="12.134574354228425"><ele>343.0</ele><time>2026-04-12T06:51:34Z</time></trkpt><trkpt lat="43.067209030156604" lon="12.13457612711989"><ele>343.0</ele><time>2026-04-12T06:51:35Z</time></trkpt><trkpt lat="43.06713713414461" lon="12.134585666374488"><ele>342.3333333333333</ele><time>2026-04-12T06:51:36Z</time></trkpt><trkpt lat="43.06703595761591" lon="12.134568368138694"><ele>341.66666666666663</ele><time>2026-04-12T06:51:38Z</time></trkpt><trkpt lat="43.06696456123111" lon="12.134483068587196"><ele>341.0</ele><time>2026-04-12T06:51:40Z</time></trkpt><trkpt lat="43.06694023698063" lon="12.134377262085044"><ele>340.3333333333333</ele><time>2026-04-12T06:51:42Z</time></trkpt><trkpt lat="43.06688209435909" lon="12.134326826745198"><ele>339.6666666666667</ele><time>2026-04-12T06:51:45Z</time></trkpt><trkpt lat="43.066827880669905" lon="12.134257050324383"><ele>339.0</ele><time>2026-04-12T06:51:48Z</time></trkpt><trkpt lat="43.066799904967446" lon="12.134106076257755"><ele>340.1666666666667</ele><time>2026-04-12T06:51:50Z</time></trkpt><trkpt lat="43.06680629836153" lon="12.134004578669153"><ele>341.3333333333333</ele><time>2026-04-12T06:51:51Z</time></trkpt><trkpt lat="43.066812251924475" lon="12.133902665064793"><ele>342.5</ele><time>2026-04-12T06:51:52Z</time></trkpt><trkpt lat="43.066816475556884" lon="12.133745007240073"><ele>343.66666666666663</ele><time>2026-04-12T06:51:54Z</time></trkpt><trkpt lat="43.066758242290376" lon="12.13366726267146"><ele>344.8333333333333</ele><time>2026-04-12T06:51:56Z</time></trkpt><trkpt lat="43.06667902978629" lon="12.133692365156246"><ele>346.0</ele><time>2026-04-12T06:51:58Z</time></trkpt><trkpt lat="43.06660626902007" lon="12.13368831131168"><ele>346.0</ele><time>2026-04-12T06:51:59Z</time></trkpt><trkpt lat="43.06649547129293" lon="12.133688312718663"><ele>346.0</ele><time>2026-04-12T06:52:00Z</time></trkpt><trkpt lat="43.066399744355564" lon="12.13366988998409"><ele>346.0</ele><time>2026-04-12T06:52:01Z</time></trkpt><trkpt lat="43.066309805540435" lon="12.133659960473075"><ele>346.0</ele><time>2026-04-12T06:52:02Z</time></trkpt><trkpt lat="43.06623198214521" lon="12.133652252647252"><ele>346.0</ele><time>2026-04-12T06:52:03Z</time></trkpt><trkpt lat="43.066150543341294" lon="12.133651521948806"><ele>346.0</ele><time>2026-04-12T06:52:04Z</time></trkpt><trkpt lat="43.06606697617623" lon="12.133656976971421"><ele>346.0</ele><time>2026-04-12T06:52:05Z</time></trkpt><trkpt lat="43.06594500267143" lon="12.133626007494016"><ele>346.0</ele><time>2026-04-12T06:52:07Z</time></trkpt><trkpt lat="43.06583014632114" lon="12.133520460584634"><ele>346.0</ele><time>2026-04-12T06:52:09Z</time></trkpt><trkpt lat="43.06575124405881" lon="12.13342829382781"><ele>344.4</ele><time>2026-04-12T06:52:10Z</time></trkpt><trkpt lat="43.0656522900166" lon="12.133373983218737"><ele>342.8</ele><time>2026-04-12T06:52:11Z</time></trkpt><trkpt lat="43.06556876975922" lon="12.133335572014582"><ele>341.2</ele><time>2026-04-12T06:52:12Z</time></trkpt><trkpt lat="43.06548076775097" lon="12.13330635255156"><ele>339.59999999999997</ele><time>2026-04-12T06:52:13Z</time></trkpt><trkpt lat="43.065398416369874" lon="12.133288087978631"><ele>338.0</ele><time>2026-04-12T06:52:14Z</time></trkpt><trkpt lat="43.06530888005211" lon="12.133275457686883"><ele>338.0</ele><time>2026-04-12T06:52:15Z</time></trkpt><trkpt lat="43.06521763936345" lon="12.133266698502721"><ele>338.0</ele><time>2026-04-12T06:52:16Z</time></trkpt><trkpt lat="43.065124714511" lon="12.133236358190207"><ele>338.0</ele><time>2026-04-12T06:52:17Z</time></trkpt><trkpt lat="43.06503325121878" lon="12.133208561536035"><ele>338.0</ele><time>2026-04-12T06:52:18Z</time></trkpt><trkpt lat="43.0649307311316" lon="12.13319201785785"><ele>338.0</ele><time>2026-04-12T06:52:19Z</time></trkpt><trkpt lat="43.06484316307171" lon="12.133173656696837"><ele>339.79999999999995</ele><time>2026-04-12T06:52:20Z</time></trkpt><trkpt lat="43.06475909360741" lon="12.133136934739186"><ele>341.6</ele><time>2026-04-12T06:52:21Z</time></trkpt><trkpt lat="43.06464584587253" lon="12.133105847485606"><ele>343.4</ele><time>2026-04-12T06:52:22Z</time></trkpt><trkpt lat="43.06454927318899" lon="12.133082368426269"><ele>345.20000000000005</ele><time>2026-04-12T06:52:23Z</time></trkpt><trkpt lat="43.06445483319447" lon="12.1330545799827"><ele>347.0</ele><time>2026-04-12T06:52:24Z</time></trkpt><trkpt lat="43.064363969579766" lon="12.133035749220955"><ele>347.0</ele><time>2026-04-12T06:52:25Z</time></trkpt><trkpt lat="43.064258649593874" lon="12.133003719855205"><ele>347.0</ele><time>2026-04-12T06:52:26Z</time></trkpt><trkpt lat="43.06416145955616" lon="12.132976340762445"><ele>347.0</ele><time>2026-04-12T06:52:27Z</time></trkpt><trkpt lat="43.06407870054101" lon="12.132934375363316"><ele>347.0</ele><time>2026-04-12T06:52:28Z</time></trkpt><trkpt lat="43.063997032882476" lon="12.132899211382234"><ele>347.0</ele><time>2026-04-12T06:52:29Z</time></trkpt><trkpt lat="43.063913733607954" lon="12.13285531709781"><ele>344.5</ele><time>2026-04-12T06:52:30Z</time></trkpt><trkpt lat="43.06383283872415" lon="12.132816113114345"><ele>342.0</ele><time>2026-04-12T06:52:31Z</time></trkpt><trkpt lat="43.06375144819702" lon="12.132796490337384"><ele>339.5</ele><time>2026-04-12T06:52:32Z</time></trkpt><trkpt lat="43.06366747532486" lon="12.13278610947213"><ele>337.0</ele><time>2026-04-12T06:52:33Z</time></trkpt><trkpt lat="43.063570980306096" lon="12.132780474387454"><ele>334.5</ele><time>2026-04-12T06:52:34Z</time></trkpt><trkpt lat="43.06347343390736" lon="12.132765322665298"><ele>332.0</ele><time>2026-04-12T06:52:35Z</time></trkpt><trkpt lat="43.06339395169297" lon="12.13275017399912"><ele>332.0</ele><time>2026-04-12T06:52:36Z</time></trkpt><trkpt lat="43.06330463300052" lon="12.132726066564258"><ele>332.0</ele><time>2026-04-12T06:52:37Z</time></trkpt><trkpt lat="43.063223359715046" lon="12.132685133168456"><ele>332.0</ele><time>2026-04-12T06:52:38Z</time></trkpt><trkpt lat="43.063136495157984" lon="12.132614987595282"><ele>332.0</ele><time>2026-04-12T06:52:39Z</time></trkpt><trkpt lat="43.06303692300123" lon="12.132539906420574"><ele>332.0</ele><time>2026-04-12T06:52:40Z</time></trkpt><trkpt lat="43.062932767668876" lon="12.13248084134099"><ele>331.8</ele><time>2026-04-12T06:52:41Z</time></trkpt><trkpt lat="43.06283257455419" lon="12.13243662532916"><ele>331.6</ele><time>2026-04-12T06:52:41.999Z</time></trkpt><trkpt lat="43.06274179900636" lon="12.132390766983082"><ele>331.40000000000003</ele><time>2026-04-12T06:52:42.999Z</time></trkpt><trkpt lat="43.06265551741825" lon="12.132332086344745"><ele>331.20000000000005</ele><time>2026-04-12T06:52:43.999Z</time></trkpt><trkpt lat="43.062571896873756" lon="12.13226141125533"><ele>331.0</ele><time>2026-04-12T06:52:44.999Z</time></trkpt><trkpt lat="43.062498357611375" lon="12.132192114682196"><ele>327.8</ele><time>2026-04-12T06:52:45.999Z</time></trkpt><trkpt lat="43.062421990191666" lon="12.132106557389127"><ele>324.6</ele><time>2026-04-12T06:52:46.999Z</time></trkpt><trkpt lat="43.06234742865015" lon="12.132011300167182"><ele>321.4</ele><time>2026-04-12T06:52:47.999Z</time></trkpt><trkpt lat="43.062303530678136" lon="12.131945975870305"><ele>318.2</ele><time>2026-04-12T06:52:49Z</time></trkpt><trkpt lat="43.062220051467236" lon="12.13184516867413"><ele>315.0</ele><time>2026-04-12T06:52:50Z</time></trkpt><trkpt lat="43.062166708718806" lon="12.131762455373368"><ele>315.0</ele><time>2026-04-12T06:52:51Z</time></trkpt><trkpt lat="43.06211142981914" lon="12.131678245823618"><ele>315.0</ele><time>2026-04-12T06:52:52Z</time></trkpt><trkpt lat="43.062055274005516" lon="12.131615449194953"><ele>315.0</ele><time>2026-04-12T06:52:53Z</time></trkpt><trkpt lat="43.06199059982327" lon="12.131574049681532"><ele>315.0</ele><time>2026-04-12T06:52:54Z</time></trkpt><trkpt lat="43.061915197220266" lon="12.131555081816359"><ele>315.0</ele><time>2026-04-12T06:52:55Z</time></trkpt><trkpt lat="43.06184344956737" lon="12.131541322604047"><ele>315.0</ele><time>2026-04-12T06:52:56Z</time></trkpt><trkpt lat="43.061781072707184" lon="12.131501680592422"><ele>315.0</ele><time>2026-04-12T06:52:57Z</time></trkpt><trkpt lat="43.06173069004244" lon="12.131437138638226"><ele>315.8333333333333</ele><time>2026-04-12T06:52:58Z</time></trkpt><trkpt lat="43.06161783508591" lon="12.131348888447427"><ele>316.6666666666667</ele><time>2026-04-12T06:53:00Z</time></trkpt><trkpt lat="43.06152689403982" lon="12.131333410483089"><ele>317.5</ele><time>2026-04-12T06:53:01Z</time></trkpt><trkpt lat="43.06144893374794" lon="12.131316483145474"><ele>318.33333333333337</ele><time>2026-04-12T06:53:02Z</time></trkpt><trkpt lat="43.06137429622704" lon="12.131296504044355"><ele>319.1666666666667</ele><time>2026-04-12T06:53:03Z</time></trkpt><trkpt lat="43.06130596981159" lon="12.131270665912076"><ele>320.0</ele><time>2026-04-12T06:53:04Z</time></trkpt><trkpt lat="43.06120764195244" lon="12.131243004064144"><ele>318.0</ele><time>2026-04-12T06:53:06Z</time></trkpt><trkpt lat="43.06114088130798" lon="12.131342720835585"><ele>316.0</ele><time>2026-04-12T06:53:08Z</time></trkpt><trkpt lat="43.06110372714905" lon="12.131420786848691"><ele>314.0</ele><time>2026-04-12T06:53:09Z</time></trkpt><trkpt lat="43.06108739703372" lon="12.131516398231806"><ele>312.0</ele><time>2026-04-12T06:53:10Z</time></trkpt><trkpt lat="43.06106871285811" lon="12.131617179495636"><ele>310.0</ele><time>2026-04-12T06:53:11Z</time></trkpt><trkpt lat="43.06104962036128" lon="12.131711826930294"><ele>308.0</ele><time>2026-04-12T06:53:12Z</time></trkpt><trkpt lat="43.06102069076014" lon="12.13179798170242"><ele>307.85714285714283</ele><time>2026-04-12T06:53:13Z</time></trkpt><trkpt lat="43.06098195452644" lon="12.131872022623673"><ele>307.7142857142857</ele><time>2026-04-12T06:53:14Z</time></trkpt><trkpt lat="43.06094309210935" lon="12.131946074679611"><ele>307.57142857142856</ele><time>2026-04-12T06:53:15Z</time></trkpt><trkpt lat="43.06090288737521" lon="12.132018416481039"><ele>307.42857142857144</ele><time>2026-04-12T06:53:16Z</time></trkpt><trkpt lat="43.06085933893514" lon="12.132092499625786"><ele>307.2857142857143</ele><time>2026-04-12T06:53:17Z</time></trkpt><trkpt lat="43.06081226731207" lon="12.132173284035924"><ele>307.1428571428571</ele><time>2026-04-12T06:53:18Z</time></trkpt><trkpt lat="43.06076780830531" lon="12.132249787546227"><ele>307.0</ele><time>2026-04-12T06:53:19Z</time></trkpt><trkpt lat="43.06069049637756" lon="12.132383717717307"><ele>305.66666666666663</ele><time>2026-04-12T06:53:21Z</time></trkpt><trkpt lat="43.06064932644341" lon="12.132456769835983"><ele>304.3333333333333</ele><time>2026-04-12T06:53:22Z</time></trkpt><trkpt lat="43.06060977390391" lon="12.132526470618965"><ele>303.0</ele><time>2026-04-12T06:53:23Z</time></trkpt><trkpt lat="43.06056973816214" lon="12.132593842618288"><ele>301.6666666666667</ele><time>2026-04-12T06:53:24Z</time></trkpt><trkpt lat="43.06050048785042" lon="12.132727972911427"><ele>300.33333333333337</ele><time>2026-04-12T06:53:26Z</time></trkpt><trkpt lat="43.06044837474142" lon="12.132794506777445"><ele>299.0</ele><time>2026-04-12T06:53:27Z</time></trkpt><trkpt lat="43.06039898431325" lon="12.132864754580904"><ele>299.0</ele><time>2026-04-12T06:53:28Z</time></trkpt><trkpt lat="43.06034218907609" lon="12.132917100457467"><ele>299.0</ele><time>2026-04-12T06:53:29Z</time></trkpt><trkpt lat="43.06029576411267" lon="12.13297612015436"><ele>299.0</ele><time>2026-04-12T06:53:30Z</time></trkpt><trkpt lat="43.060247759717214" lon="12.133032295835708"><ele>299.0</ele><time>2026-04-12T06:53:31Z</time></trkpt><trkpt lat="43.06020795579922" lon="12.13310009441855"><ele>299.0</ele><time>2026-04-12T06:53:32Z</time></trkpt><trkpt lat="43.06014285600284" lon="12.133133679522688"><ele>299.0</ele><time>2026-04-12T06:53:33Z</time></trkpt><trkpt lat="43.060029502368494" lon="12.133214449221464"><ele>299.6666666666667</ele><time>2026-04-12T06:53:35Z</time></trkpt><trkpt lat="43.05997021783173" lon="12.133257139511503"><ele>300.33333333333337</ele><time>2026-04-12T06:53:36Z</time></trkpt><trkpt lat="43.05991355575584" lon="12.133301408648054"><ele>301.0</ele><time>2026-04-12T06:53:37Z</time></trkpt><trkpt lat="43.05985750404847" lon="12.133344918922113"><ele>301.6666666666667</ele><time>2026-04-12T06:53:38Z</time></trkpt><trkpt lat="43.05976316576157" lon="12.13341862444488"><ele>302.3333333333333</ele><time>2026-04-12T06:53:40Z</time></trkpt><trkpt lat="43.05967395155425" lon="12.133497436321614"><ele>303.0</ele><time>2026-04-12T06:53:42Z</time></trkpt><trkpt lat="43.0595889074034" lon="12.133581517731493"><ele>303.0</ele><time>2026-04-12T06:53:44Z</time></trkpt><trkpt lat="43.059508586796085" lon="12.133675021601332"><ele>303.0</ele><time>2026-04-12T06:53:46Z</time></trkpt><trkpt lat="43.05941625968117" lon="12.133727112598917"><ele>303.0</ele><time>2026-04-12T06:53:48Z</time></trkpt><trkpt lat="43.059334388439964" lon="12.133805726411863"><ele>303.0</ele><time>2026-04-12T06:53:50Z</time></trkpt><trkpt lat="43.05927127636733" lon="12.133872374621907"><ele>303.0</ele><time>2026-04-12T06:53:52Z</time></trkpt><trkpt lat="43.05918260334141" lon="12.133838390349982"><ele>302.8333333333333</ele><time>2026-04-12T06:53:54Z</time></trkpt><trkpt lat="43.05909334608172" lon="12.133733440773996"><ele>302.6666666666667</ele><time>2026-04-12T06:53:56Z</time></trkpt><trkpt lat="43.0590217625533" lon="12.13367189351639"><ele>302.5</ele><time>2026-04-12T06:53:57Z</time></trkpt><trkpt lat="43.058941176886584" lon="12.133615409810863"><ele>302.33333333333337</ele><time>2026-04-12T06:53:58Z</time></trkpt><trkpt lat="43.05887601728239" lon="12.13354813213915"><ele>302.1666666666667</ele><time>2026-04-12T06:53:59Z</time></trkpt><trkpt lat="43.058812813912496" lon="12.133494306783543"><ele>302.0</ele><time>2026-04-12T06:54:00Z</time></trkpt><trkpt lat="43.058750973709806" lon="12.13344531479355"><ele>302.0</ele><time>2026-04-12T06:54:01Z</time></trkpt><trkpt lat="43.05868322015309" lon="12.133386599600447"><ele>302.0</ele><time>2026-04-12T06:54:02Z</time></trkpt><trkpt lat="43.058609262400225" lon="12.133332095464276"><ele>302.0</ele><time>2026-04-12T06:54:03Z</time></trkpt><trkpt lat="43.05853522817493" lon="12.133279066804242"><ele>302.0</ele><time>2026-04-12T06:54:04Z</time></trkpt><trkpt lat="43.05846658422591" lon="12.13322210447875"><ele>302.0</ele><time>2026-04-12T06:54:05Z</time></trkpt><trkpt lat="43.058393711534755" lon="12.133166250471175"><ele>302.0</ele><time>2026-04-12T06:54:06Z</time></trkpt><trkpt lat="43.058317905314425" lon="12.133115575033235"><ele>301.83333333333337</ele><time>2026-04-12T06:54:07Z</time></trkpt><trkpt lat="43.058244332239035" lon="12.133065573654829"><ele>301.6666666666667</ele><time>2026-04-12T06:54:08Z</time></trkpt><trkpt lat="43.05817456365311" lon="12.133015912496573"><ele>301.5</ele><time>2026-04-12T06:54:09Z</time></trkpt><trkpt lat="43.058100325073696" lon="12.13295991777206"><ele>301.3333333333333</ele><time>2026-04-12T06:54:10Z</time></trkpt><trkpt lat="43.05802412660741" lon="12.132901052611194"><ele>301.16666666666663</ele><time>2026-04-12T06:54:11Z</time></trkpt><trkpt lat="43.0579543330767" lon="12.132846795449478"><ele>301.0</ele><time>2026-04-12T06:54:12Z</time></trkpt><trkpt lat="43.057878782729865" lon="12.132791589374076"><ele>301.0</ele><time>2026-04-12T06:54:13Z</time></trkpt><trkpt lat="43.057805687836606" lon="12.132738128505931"><ele>301.0</ele><time>2026-04-12T06:54:14Z</time></trkpt><trkpt lat="43.05773794780046" lon="12.132686469829489"><ele>301.0</ele><time>2026-04-12T06:54:15Z</time></trkpt><trkpt lat="43.057668812748055" lon="12.132637970073848"><ele>301.0</ele><time>2026-04-12T06:54:16Z</time></trkpt><trkpt lat="43.05760962202327" lon="12.13257047513273"><ele>301.0</ele><time>2026-04-12T06:54:17Z</time></trkpt><trkpt lat="43.05754304648748" lon="12.132518232079399"><ele>301.0</ele><time>2026-04-12T06:54:18Z</time></trkpt><trkpt lat="43.05747442504685" lon="12.132463564862388"><ele>300.5</ele><time>2026-04-12T06:54:19Z</time></trkpt><trkpt lat="43.05740521390312" lon="12.13240842789031"><ele>300.0</ele><time>2026-04-12T06:54:20Z</time></trkpt><trkpt lat="43.05733433505427" lon="12.132351962321898"><ele>299.5</ele><time>2026-04-12T06:54:21Z</time></trkpt><trkpt lat="43.05725599316123" lon="12.132309456417168"><ele>299.0</ele><time>2026-04-12T06:54:22Z</time></trkpt><trkpt lat="43.05718233439365" lon="12.132244244022095"><ele>298.5</ele><time>2026-04-12T06:54:23Z</time></trkpt><trkpt lat="43.057091814161694" lon="12.132180273838847"><ele>298.0</ele><time>2026-04-12T06:54:24Z</time></trkpt><trkpt lat="43.056980377089914" lon="12.132101651509503"><ele>297.6</ele><time>2026-04-12T06:54:25Z</time></trkpt><trkpt lat="43.05686983983668" lon="12.132011215819944"><ele>297.20000000000005</ele><time>2026-04-12T06:54:26Z</time></trkpt><trkpt lat="43.056772189795275" lon="12.131933887330689"><ele>296.8</ele><time>2026-04-12T06:54:27Z</time></trkpt><trkpt lat="43.05668405629842" lon="12.131863702944484"><ele>296.40000000000003</ele><time>2026-04-12T06:54:28Z</time></trkpt><trkpt lat="43.05660645850446" lon="12.131807416999358"><ele>296.0</ele><time>2026-04-12T06:54:28.999Z</time></trkpt><trkpt lat="43.056536853176276" lon="12.131760986598433"><ele>295.6</ele><time>2026-04-12T06:54:29.999Z</time></trkpt><trkpt lat="43.056473540097905" lon="12.131715089455874"><ele>295.20000000000005</ele><time>2026-04-12T06:54:30.999Z</time></trkpt><trkpt lat="43.05638510092577" lon="12.13161978895796"><ele>294.79999999999995</ele><time>2026-04-12T06:54:32.999Z</time></trkpt><trkpt lat="43.056414691702656" lon="12.131464477736873"><ele>294.4</ele><time>2026-04-12T06:54:34.999Z</time></trkpt><trkpt lat="43.05641960477372" lon="12.131373369176"><ele>294.0</ele><time>2026-04-12T06:54:35.999Z</time></trkpt><trkpt lat="43.056393940721854" lon="12.131214476200935"><ele>293.57142857142856</ele><time>2026-04-12T06:54:37.999Z</time></trkpt><trkpt lat="43.05634377089462" lon="12.131151677155712"><ele>293.1428571428571</ele><time>2026-04-12T06:54:38.999Z</time></trkpt><trkpt lat="43.05626133904955" lon="12.131148280267766"><ele>292.7142857142857</ele><time>2026-04-12T06:54:39.999Z</time></trkpt><trkpt lat="43.05620804000416" lon="12.131090921369786"><ele>292.2857142857143</ele><time>2026-04-12T06:54:40.999Z</time></trkpt><trkpt lat="43.05614901322552" lon="12.131053933536098"><ele>291.85714285714283</ele><time>2026-04-12T06:54:41.999Z</time></trkpt><trkpt lat="43.0560791876457" lon="12.131027805371032"><ele>291.42857142857144</ele><time>2026-04-12T06:54:42.999Z</time></trkpt><trkpt lat="43.05601486618543" lon="12.130972732838698"><ele>291.0</ele><time>2026-04-12T06:54:43.999Z</time></trkpt><trkpt lat="43.055944551007066" lon="12.130923696862462"><ele>291.0</ele><time>2026-04-12T06:54:44.999Z</time></trkpt><trkpt lat="43.05586962816136" lon="12.130882429461552"><ele>291.0</ele><time>2026-04-12T06:54:45.999Z</time></trkpt><trkpt lat="43.055802697770176" lon="12.130842328776723"><ele>291.0</ele><time>2026-04-12T06:54:46.999Z</time></trkpt><trkpt lat="43.05574196277684" lon="12.1308044729067"><ele>291.0</ele><time>2026-04-12T06:54:47.999Z</time></trkpt><trkpt lat="43.055680490840174" lon="12.130770688498975"><ele>291.0</ele><time>2026-04-12T06:54:48.999Z</time></trkpt><trkpt lat="43.055613785841565" lon="12.130736885935018"><ele>291.0</ele><time>2026-04-12T06:54:49.999Z</time></trkpt><trkpt lat="43.055546105952054" lon="12.130700262312823"><ele>291.0</ele><time>2026-04-12T06:54:50.999Z</time></trkpt><trkpt lat="43.05547891075381" lon="12.130670206979303"><ele>290.8333333333333</ele><time>2026-04-12T06:54:51.999Z</time></trkpt><trkpt lat="43.05540578079606" lon="12.130650544448487"><ele>290.6666666666667</ele><time>2026-04-12T06:54:52.999Z</time></trkpt><trkpt lat="43.05532909794896" lon="12.130645902924746"><ele>290.5</ele><time>2026-04-12T06:54:53.999Z</time></trkpt><trkpt lat="43.05525829003605" lon="12.130665695876363"><ele>290.33333333333337</ele><time>2026-04-12T06:54:55Z</time></trkpt><trkpt lat="43.05519076031559" lon="12.130668698749208"><ele>290.1666666666667</ele><time>2026-04-12T06:54:56Z</time></trkpt><trkpt lat="43.0550840777234" lon="12.130634084202681"><ele>290.0</ele><time>2026-04-12T06:54:58Z</time></trkpt><trkpt lat="43.05497940509126" lon="12.130584022426595"><ele>289.6</ele><time>2026-04-12T06:55:00Z</time></trkpt><trkpt lat="43.054906011833516" lon="12.13053442501681"><ele>289.2</ele><time>2026-04-12T06:55:02Z</time></trkpt><trkpt lat="43.05485563964203" lon="12.130657229481441"><ele>288.8</ele><time>2026-04-12T06:55:03Z</time></trkpt><trkpt lat="43.054777475586754" lon="12.130786414286904"><ele>288.4</ele><time>2026-04-12T06:55:05Z</time></trkpt><trkpt lat="43.05471078042669" lon="12.130846261595408"><ele>288.0</ele><time>2026-04-12T06:55:06Z</time></trkpt><trkpt lat="43.054636514246866" lon="12.130909041158784"><ele>288.0</ele><time>2026-04-12T06:55:07Z</time></trkpt><trkpt lat="43.05454372268026" lon="12.13094720884672"><ele>288.0</ele><time>2026-04-12T06:55:08Z</time></trkpt><trkpt lat="43.054456567007946" lon="12.131000980944442"><ele>288.0</ele><time>2026-04-12T06:55:09Z</time></trkpt><trkpt lat="43.05437520764992" lon="12.131048969838012"><ele>288.0</ele><time>2026-04-12T06:55:10Z</time></trkpt><trkpt lat="43.054297133682056" lon="12.131091657981488"><ele>288.0</ele><time>2026-04-12T06:55:11Z</time></trkpt><trkpt lat="43.05422341516811" lon="12.131129522570332"><ele>288.0</ele><time>2026-04-12T06:55:12Z</time></trkpt><trkpt lat="43.05415643027714" lon="12.131163294786036"><ele>287.8333333333333</ele><time>2026-04-12T06:55:13Z</time></trkpt><trkpt lat="43.05409006276569" lon="12.131196755734797"><ele>287.6666666666667</ele><time>2026-04-12T06:55:14Z</time></trkpt><trkpt lat="43.05402077248223" lon="12.13122994920413"><ele>287.5</ele><time>2026-04-12T06:55:15Z</time></trkpt><trkpt lat="43.05394948678377" lon="12.13126391951935"><ele>287.33333333333337</ele><time>2026-04-12T06:55:16Z</time></trkpt><trkpt lat="43.05387363774845" lon="12.131300064437628"><ele>287.1666666666667</ele><time>2026-04-12T06:55:17Z</time></trkpt><trkpt lat="43.053798098325366" lon="12.131337162942867"><ele>287.0</ele><time>2026-04-12T06:55:18Z</time></trkpt><trkpt lat="43.05372416972348" lon="12.131376205654957"><ele>287.0</ele><time>2026-04-12T06:55:19Z</time></trkpt><trkpt lat="43.05365143060568" lon="12.131418459601207"><ele>287.0</ele><time>2026-04-12T06:55:20Z</time></trkpt><trkpt lat="43.053580767556056" lon="12.131465321885388"><ele>287.0</ele><time>2026-04-12T06:55:21Z</time></trkpt><trkpt lat="43.05351159905485" lon="12.131518236040694"><ele>287.0</ele><time>2026-04-12T06:55:22Z</time></trkpt><trkpt lat="43.05344117709308" lon="12.131577986855895"><ele>287.0</ele><time>2026-04-12T06:55:23Z</time></trkpt><trkpt lat="43.05337543201634" lon="12.131638656683988"><ele>287.0</ele><time>2026-04-12T06:55:24Z</time></trkpt><trkpt lat="43.053317424687144" lon="12.131708389787834"><ele>286.6</ele><time>2026-04-12T06:55:25Z</time></trkpt><trkpt lat="43.05325578862443" lon="12.131860779493993"><ele>286.2</ele><time>2026-04-12T06:55:27Z</time></trkpt><trkpt lat="43.05316120032112" lon="12.131974940777873"><ele>285.8</ele><time>2026-04-12T06:55:29Z</time></trkpt><trkpt lat="43.05308052793074" lon="12.132005368286345"><ele>285.4</ele><time>2026-04-12T06:55:30Z</time></trkpt><trkpt lat="43.05300292552237" lon="12.132069468697658"><ele>285.0</ele><time>2026-04-12T06:55:31Z</time></trkpt><trkpt lat="43.05292753926663" lon="12.132138476427746"><ele>285.0</ele><time>2026-04-12T06:55:32Z</time></trkpt><trkpt lat="43.0528507099057" lon="12.132205585653898"><ele>285.0</ele><time>2026-04-12T06:55:33Z</time></trkpt><trkpt lat="43.05277869796267" lon="12.132264129531501"><ele>285.0</ele><time>2026-04-12T06:55:34Z</time></trkpt><trkpt lat="43.05271226976695" lon="12.132315638888539"><ele>285.0</ele><time>2026-04-12T06:55:35Z</time></trkpt><trkpt lat="43.052638736098565" lon="12.132369704119506"><ele>285.0</ele><time>2026-04-12T06:55:36Z</time></trkpt><trkpt lat="43.05255823458535" lon="12.132421004848561"><ele>285.0</ele><time>2026-04-12T06:55:37Z</time></trkpt><trkpt lat="43.052474098531604" lon="12.132467007020356"><ele>285.8</ele><time>2026-04-12T06:55:38Z</time></trkpt><trkpt lat="43.05238823878054" lon="12.13250879953536"><ele>286.6</ele><time>2026-04-12T06:55:39Z</time></trkpt><trkpt lat="43.052301035741955" lon="12.132574243422532"><ele>287.4</ele><time>2026-04-12T06:55:40Z</time></trkpt><trkpt lat="43.05219450052585" lon="12.132603928576728"><ele>288.2</ele><time>2026-04-12T06:55:41Z</time></trkpt><trkpt lat="43.05210324985523" lon="12.132671882579631"><ele>289.0</ele><time>2026-04-12T06:55:42Z</time></trkpt><trkpt lat="43.05200273567738" lon="12.132712973407797"><ele>289.0</ele><time>2026-04-12T06:55:43Z</time></trkpt><trkpt lat="43.05190653740841" lon="12.132749843070046"><ele>289.0</ele><time>2026-04-12T06:55:44Z</time></trkpt><trkpt lat="43.05180755279616" lon="12.13279421749836"><ele>289.0</ele><time>2026-04-12T06:55:45Z</time></trkpt><trkpt lat="43.051708604562016" lon="12.132839123674083"><ele>289.0</ele><time>2026-04-12T06:55:46Z</time></trkpt><trkpt lat="43.05160863507663" lon="12.132875636639247"><ele>289.0</ele><time>2026-04-12T06:55:47Z</time></trkpt><trkpt lat="43.051515080357305" lon="12.132918287499926"><ele>289.0</ele><time>2026-04-12T06:55:48Z</time></trkpt><trkpt lat="43.05142157597001" lon="12.132957422914616"><ele>289.0</ele><time>2026-04-12T06:55:49Z</time></trkpt><trkpt lat="43.05132754975044" lon="12.132982125644387"><ele>289.0</ele><time>2026-04-12T06:55:50Z</time></trkpt><trkpt lat="43.051228740365744" lon="12.133003856077966"><ele>289.0</ele><time>2026-04-12T06:55:51Z</time></trkpt><trkpt lat="43.051128900342825" lon="12.133021749443492"><ele>289.0</ele><time>2026-04-12T06:55:52Z</time></trkpt><trkpt lat="43.051027229585486" lon="12.133034159021932"><ele>289.0</ele><time>2026-04-12T06:55:53Z</time></trkpt><trkpt lat="43.05092675608176" lon="12.13304574181533"><ele>289.0</ele><time>2026-04-12T06:55:54Z</time></trkpt><trkpt lat="43.05082987953502" lon="12.133058399924689"><ele>289.0</ele><time>2026-04-12T06:55:55Z</time></trkpt><trkpt lat="43.05073129320551" lon="12.133073241972498"><ele>289.0</ele><time>2026-04-12T06:55:56Z</time></trkpt><trkpt lat="43.050626241033825" lon="12.133083961939064"><ele>289.0</ele><time>2026-04-12T06:55:57Z</time></trkpt><trkpt lat="43.050528725887396" lon="12.13309131614279"><ele>289.2</ele><time>2026-04-12T06:55:58Z</time></trkpt><trkpt lat="43.05043381341999" lon="12.133073893856345"><ele>289.4</ele><time>2026-04-12T06:55:59Z</time></trkpt><trkpt lat="43.05035038773635" lon="12.133041758838234"><ele>289.6</ele><time>2026-04-12T06:56:00Z</time></trkpt><trkpt lat="43.05024549064792" lon="12.133106933796252"><ele>289.8</ele><time>2026-04-12T06:56:01Z</time></trkpt><trkpt lat="43.05015041744693" lon="12.133130678835885"><ele>290.0</ele><time>2026-04-12T06:56:02Z</time></trkpt><trkpt lat="43.05005729624026" lon="12.133156253999685"><ele>290.0</ele><time>2026-04-12T06:56:03Z</time></trkpt><trkpt lat="43.04995961584222" lon="12.1331826404498"><ele>290.0</ele><time>2026-04-12T06:56:04Z</time></trkpt><trkpt lat="43.049852721600026" lon="12.133210959159333"><ele>290.0</ele><time>2026-04-12T06:56:05Z</time></trkpt><trkpt lat="43.0497484576527" lon="12.13323858105544"><ele>290.0</ele><time>2026-04-12T06:56:06Z</time></trkpt><trkpt lat="43.04963776808984" lon="12.133267905235254"><ele>290.0</ele><time>2026-04-12T06:56:07Z</time></trkpt><trkpt lat="43.04952842106514" lon="12.133298891457091"><ele>291.4</ele><time>2026-04-12T06:56:08Z</time></trkpt><trkpt lat="43.049430349922304" lon="12.133349952217038"><ele>292.8</ele><time>2026-04-12T06:56:09Z</time></trkpt><trkpt lat="43.04933648530294" lon="12.133380088442681"><ele>294.2</ele><time>2026-04-12T06:56:10Z</time></trkpt><trkpt lat="43.04923317048564" lon="12.133411216161766"><ele>295.6</ele><time>2026-04-12T06:56:11Z</time></trkpt><trkpt lat="43.04912427548434" lon="12.133426795404713"><ele>297.0</ele><time>2026-04-12T06:56:12Z</time></trkpt><trkpt lat="43.04902409635816" lon="12.133439720516046"><ele>297.0</ele><time>2026-04-12T06:56:13Z</time></trkpt><trkpt lat="43.04893081023335" lon="12.13344576696424"><ele>297.0</ele><time>2026-04-12T06:56:14Z</time></trkpt><trkpt lat="43.048847157712785" lon="12.133445024351031"><ele>297.0</ele><time>2026-04-12T06:56:15Z</time></trkpt><trkpt lat="43.0487781161254" lon="12.133463460067844"><ele>297.0</ele><time>2026-04-12T06:56:16Z</time></trkpt><trkpt lat="43.048700680527794" lon="12.133537469564544"><ele>297.0</ele><time>2026-04-12T06:56:18Z</time></trkpt><trkpt lat="43.048687948200964" lon="12.133689985623457"><ele>297.0</ele><time>2026-04-12T06:56:20Z</time></trkpt><trkpt lat="43.04872818966844" lon="12.133781966276658"><ele>297.0</ele><time>2026-04-12T06:56:21Z</time></trkpt><trkpt lat="43.048779231123724" lon="12.133916270176515"><ele>297.0</ele><time>2026-04-12T06:56:23Z</time></trkpt><trkpt lat="43.04879235807215" lon="12.134052288239777"><ele>297.0</ele><time>2026-04-12T06:56:25Z</time></trkpt><trkpt lat="43.04875992320251" lon="12.134184083556201"><ele>297.0</ele><time>2026-04-12T06:56:27Z</time></trkpt><trkpt lat="43.048898711989736" lon="12.134279969259008"><ele>298.3333333333333</ele><time>2026-04-12T06:56:31Z</time></trkpt><trkpt lat="43.048964965862694" lon="12.13426540348164"><ele>299.6666666666667</ele><time>2026-04-12T06:56:32Z</time></trkpt><trkpt lat="43.049036055669085" lon="12.134261836790534"><ele>301.0</ele><time>2026-04-12T06:56:33Z</time></trkpt><trkpt lat="43.04911934285669" lon="12.134277433293828"><ele>302.33333333333337</ele><time>2026-04-12T06:56:34Z</time></trkpt><trkpt lat="43.049187974391145" lon="12.13432209111354"><ele>303.6666666666667</ele><time>2026-04-12T06:56:35Z</time></trkpt><trkpt lat="43.04925147606775" lon="12.134397684758943"><ele>305.0</ele><time>2026-04-12T06:56:36Z</time></trkpt><trkpt lat="43.04930236212923" lon="12.13450072102171"><ele>305.6666666666667</ele><time>2026-04-12T06:56:37Z</time></trkpt><trkpt lat="43.0493370092826" lon="12.13461757455524"><ele>306.33333333333337</ele><time>2026-04-12T06:56:38Z</time></trkpt><trkpt lat="43.0493713831914" lon="12.134724480167694"><ele>307.0</ele><time>2026-04-12T06:56:39Z</time></trkpt><trkpt lat="43.04939640903091" lon="12.134817020938502"><ele>307.6666666666667</ele><time>2026-04-12T06:56:40Z</time></trkpt><trkpt lat="43.0494203532042" lon="12.13493064468922"><ele>308.3333333333333</ele><time>2026-04-12T06:56:41Z</time></trkpt><trkpt lat="43.0494511821242" lon="12.13504031419584"><ele>309.0</ele><time>2026-04-12T06:56:42Z</time></trkpt><trkpt lat="43.04948303761587" lon="12.135133324610702"><ele>311.4</ele><time>2026-04-12T06:56:43Z</time></trkpt><trkpt lat="43.049545506426135" lon="12.135268168480465"><ele>313.79999999999995</ele><time>2026-04-12T06:56:45Z</time></trkpt><trkpt lat="43.049575458781995" lon="12.135378327760664"><ele>316.20000000000005</ele><time>2026-04-12T06:56:46Z</time></trkpt><trkpt lat="43.04961263079357" lon="12.1355139257598"><ele>318.6</ele><time>2026-04-12T06:56:47Z</time></trkpt><trkpt lat="43.0496344463503" lon="12.13565798383721"><ele>321.0</ele><time>2026-04-12T06:56:48Z</time></trkpt><trkpt lat="43.049641435569185" lon="12.135814166270873"><ele>323.3333333333333</ele><time>2026-04-12T06:56:49Z</time></trkpt><trkpt lat="43.049646340972494" lon="12.135948894138934"><ele>325.6666666666667</ele><time>2026-04-12T06:56:50Z</time></trkpt><trkpt lat="43.049661529731125" lon="12.13606973056583"><ele>328.0</ele><time>2026-04-12T06:56:51Z</time></trkpt><trkpt lat="43.04966843360684" lon="12.136187250582113"><ele>330.33333333333337</ele><time>2026-04-12T06:56:52Z</time></trkpt><trkpt lat="43.049649014768555" lon="12.136279820270643"><ele>332.6666666666667</ele><time>2026-04-12T06:56:53Z</time></trkpt><trkpt lat="43.04962055655604" lon="12.136390907460829"><ele>335.0</ele><time>2026-04-12T06:56:54Z</time></trkpt><trkpt lat="43.0495790864441" lon="12.136500090320828"><ele>336.83333333333337</ele><time>2026-04-12T06:56:54.999Z</time></trkpt><trkpt lat="43.049526581098384" lon="12.136572025965659"><ele>338.6666666666667</ele><time>2026-04-12T06:56:55.999Z</time></trkpt><trkpt lat="43.04945413766985" lon="12.136617088779065"><ele>340.5</ele><time>2026-04-12T06:56:56.999Z</time></trkpt><trkpt lat="43.049375169173736" lon="12.136642763159102"><ele>342.3333333333333</ele><time>2026-04-12T06:56:57.999Z</time></trkpt><trkpt lat="43.04928877383587" lon="12.136646877109746"><ele>344.16666666666663</ele><time>2026-04-12T06:56:58.999Z</time></trkpt><trkpt lat="43.04922448621994" lon="12.136685792950146"><ele>346.0</ele><time>2026-04-12T06:56:59.999Z</time></trkpt><trkpt lat="43.04918149480017" lon="12.136755861803975"><ele>346.0</ele><time>2026-04-12T06:57:01Z</time></trkpt><trkpt lat="43.04916316297523" lon="12.136870404378003"><ele>346.0</ele><time>2026-04-12T06:57:02Z</time></trkpt><trkpt lat="43.04915737978736" lon="12.136999631690433"><ele>346.0</ele><time>2026-04-12T06:57:03Z</time></trkpt><trkpt lat="43.04913910647271" lon="12.137144927491406"><ele>346.0</ele><time>2026-04-12T06:57:04Z</time></trkpt><trkpt lat="43.04909817769886" lon="12.137266621464928"><ele>346.0</ele><time>2026-04-12T06:57:05Z</time></trkpt><trkpt lat="43.049028249131084" lon="12.137387479022852"><ele>348.6</ele><time>2026-04-12T06:57:06Z</time></trkpt><trkpt lat="43.04896212411072" lon="12.137511497433506"><ele>351.20000000000005</ele><time>2026-04-12T06:57:07Z</time></trkpt><trkpt lat="43.04891054907576" lon="12.137636065376268"><ele>353.79999999999995</ele><time>2026-04-12T06:57:08Z</time></trkpt><trkpt lat="43.048862278539666" lon="12.137758647190607"><ele>356.4</ele><time>2026-04-12T06:57:09Z</time></trkpt><trkpt lat="43.048808404744" lon="12.137878618341588"><ele>359.0</ele><time>2026-04-12T06:57:10Z</time></trkpt><trkpt lat="43.048751283082" lon="12.13800282229602"><ele>359.0</ele><time>2026-04-12T06:57:11Z</time></trkpt><trkpt lat="43.04870542322248" lon="12.138130538244393"><ele>359.0</ele><time>2026-04-12T06:57:12Z</time></trkpt><trkpt lat="43.048637090652875" lon="12.138242316808514"><ele>359.0</ele><time>2026-04-12T06:57:13Z</time></trkpt><trkpt lat="43.048577988537446" lon="12.13833796440747"><ele>359.0</ele><time>2026-04-12T06:57:14Z</time></trkpt><trkpt lat="43.04854953579164" lon="12.13846456264995"><ele>359.0</ele><time>2026-04-12T06:57:15Z</time></trkpt><trkpt lat="43.048517649847206" lon="12.138603502670392"><ele>360.4</ele><time>2026-04-12T06:57:16Z</time></trkpt><trkpt lat="43.04847117324869" lon="12.138738644663936"><ele>361.79999999999995</ele><time>2026-04-12T06:57:17Z</time></trkpt><trkpt lat="43.04842405288568" lon="12.138868521732498"><ele>363.20000000000005</ele><time>2026-04-12T06:57:18Z</time></trkpt><trkpt lat="43.04836812392995" lon="12.138990333610005"><ele>364.6</ele><time>2026-04-12T06:57:19Z</time></trkpt><trkpt lat="43.04831630347967" lon="12.1390948599138"><ele>366.0</ele><time>2026-04-12T06:57:20Z</time></trkpt><trkpt lat="43.048258009683224" lon="12.139199773420756"><ele>366.8</ele><time>2026-04-12T06:57:21Z</time></trkpt><trkpt lat="43.04820332771378" lon="12.139284129472534"><ele>367.6</ele><time>2026-04-12T06:57:22Z</time></trkpt><trkpt lat="43.0481290419707" lon="12.139374346513401"><ele>368.4</ele><time>2026-04-12T06:57:23Z</time></trkpt><trkpt lat="43.048046765085616" lon="12.139453523042333"><ele>369.2</ele><time>2026-04-12T06:57:24Z</time></trkpt><trkpt lat="43.04795722804387" lon="12.139521691325465"><ele>370.0</ele><time>2026-04-12T06:57:25Z</time></trkpt><trkpt lat="43.04785164923062" lon="12.139592529522364"><ele>370.0</ele><time>2026-04-12T06:57:26Z</time></trkpt><trkpt lat="43.047759556483705" lon="12.139652625786786"><ele>370.0</ele><time>2026-04-12T06:57:27Z</time></trkpt><trkpt lat="43.04766980332393" lon="12.139728068234936"><ele>370.0</ele><time>2026-04-12T06:57:28Z</time></trkpt><trkpt lat="43.04757891487232" lon="12.139821424720324"><ele>370.0</ele><time>2026-04-12T06:57:29Z</time></trkpt><trkpt lat="43.04748057024143" lon="12.1399208459229"><ele>370.0</ele><time>2026-04-12T06:57:30Z</time></trkpt><trkpt lat="43.04738404216893" lon="12.140021849053216"><ele>370.2</ele><time>2026-04-12T06:57:31Z</time></trkpt><trkpt lat="43.04729709507977" lon="12.140116200335953"><ele>370.4</ele><time>2026-04-12T06:57:32Z</time></trkpt><trkpt lat="43.04721957256227" lon="12.140201835324543"><ele>370.6</ele><time>2026-04-12T06:57:33Z</time></trkpt><trkpt lat="43.04715338287157" lon="12.140281488691842"><ele>370.8</ele><time>2026-04-12T06:57:34Z</time></trkpt><trkpt lat="43.04708158340516" lon="12.140365180505398"><ele>371.0</ele><time>2026-04-12T06:57:35Z</time></trkpt><trkpt lat="43.04699877371517" lon="12.140459796284185"><ele>371.0</ele><time>2026-04-12T06:57:36Z</time></trkpt><trkpt lat="43.04690847917192" lon="12.140561413033668"><ele>371.0</ele><time>2026-04-12T06:57:37Z</time></trkpt><trkpt lat="43.046808758756555" lon="12.140665377439273"><ele>371.0</ele><time>2026-04-12T06:57:38Z</time></trkpt><trkpt lat="43.04671136850791" lon="12.140771841755193"><ele>371.0</ele><time>2026-04-12T06:57:39Z</time></trkpt><trkpt lat="43.04661178732108" lon="12.140883901341265"><ele>371.25</ele><time>2026-04-12T06:57:40Z</time></trkpt><trkpt lat="43.046514716759376" lon="12.140994862660245"><ele>371.5</ele><time>2026-04-12T06:57:41Z</time></trkpt><trkpt lat="43.046418130763904" lon="12.141100871917727"><ele>371.75</ele><time>2026-04-12T06:57:42Z</time></trkpt><trkpt lat="43.0463217069506" lon="12.141205351177504"><ele>372.0</ele><time>2026-04-12T06:57:43Z</time></trkpt><trkpt lat="43.04622669886129" lon="12.141305804944537"><ele>372.0</ele><time>2026-04-12T06:57:44Z</time></trkpt><trkpt lat="43.04613671016292" lon="12.141408166869622"><ele>372.0</ele><time>2026-04-12T06:57:45Z</time></trkpt><trkpt lat="43.046042159988865" lon="12.141495859302356"><ele>372.0</ele><time>2026-04-12T06:57:46Z</time></trkpt><trkpt lat="43.04595728441418" lon="12.141576598922677"><ele>372.0</ele><time>2026-04-12T06:57:47Z</time></trkpt><trkpt lat="43.0458731456822" lon="12.141662721125016"><ele>372.0</ele><time>2026-04-12T06:57:48Z</time></trkpt><trkpt lat="43.04579146698286" lon="12.141734701098411"><ele>373.6</ele><time>2026-04-12T06:57:49Z</time></trkpt><trkpt lat="43.04571425367261" lon="12.141765630169903"><ele>375.20000000000005</ele><time>2026-04-12T06:57:50Z</time></trkpt><trkpt lat="43.04562162188821" lon="12.141767637200127"><ele>376.8</ele><time>2026-04-12T06:57:51Z</time></trkpt><trkpt lat="43.04552986257554" lon="12.14181151505845"><ele>378.4</ele><time>2026-04-12T06:57:52Z</time></trkpt><trkpt lat="43.045440901487915" lon="12.14188146115661"><ele>380.0</ele><time>2026-04-12T06:57:53Z</time></trkpt><trkpt lat="43.045356066680036" lon="12.141973634902772"><ele>380.0</ele><time>2026-04-12T06:57:54Z</time></trkpt><trkpt lat="43.0452728000401" lon="12.14206328955173"><ele>380.0</ele><time>2026-04-12T06:57:55Z</time></trkpt><trkpt lat="43.04518783987761" lon="12.142145493887817"><ele>380.0</ele><time>2026-04-12T06:57:56Z</time></trkpt><trkpt lat="43.04509626330775" lon="12.142239075336477"><ele>380.0</ele><time>2026-04-12T06:57:57Z</time></trkpt><trkpt lat="43.04500718034529" lon="12.142337480702896"><ele>380.0</ele><time>2026-04-12T06:57:58Z</time></trkpt><trkpt lat="43.044923083026816" lon="12.142434323954372"><ele>385.0</ele><time>2026-04-12T06:57:59Z</time></trkpt><trkpt lat="43.04483818005896" lon="12.142540124945855"><ele>390.0</ele><time>2026-04-12T06:58:00Z</time></trkpt><trkpt lat="43.044758902841174" lon="12.142647235102793"><ele>395.0</ele><time>2026-04-12T06:58:01Z</time></trkpt><trkpt lat="43.04470000961138" lon="12.142749259120428"><ele>400.0</ele><time>2026-04-12T06:58:02Z</time></trkpt><trkpt lat="43.04466144760893" lon="12.142849010872327"><ele>405.0</ele><time>2026-04-12T06:58:03Z</time></trkpt><trkpt lat="43.04464979516695" lon="12.142967168428019"><ele>405.0</ele><time>2026-04-12T06:58:04Z</time></trkpt><trkpt lat="43.044635988425604" lon="12.14306654112419"><ele>405.0</ele><time>2026-04-12T06:58:05Z</time></trkpt><trkpt lat="43.044564064106986" lon="12.143148402220216"><ele>405.0</ele><time>2026-04-12T06:58:07Z</time></trkpt><trkpt lat="43.0444586287243" lon="12.14310613784607"><ele>405.0</ele><time>2026-04-12T06:58:09Z</time></trkpt><trkpt lat="43.04438984272642" lon="12.14309594192496"><ele>405.0</ele><time>2026-04-12T06:58:10Z</time></trkpt><trkpt lat="43.04431932777679" lon="12.14307822024726"><ele>405.0</ele><time>2026-04-12T06:58:11Z</time></trkpt><trkpt lat="43.044224571475404" lon="12.142964476933216"><ele>405.0</ele><time>2026-04-12T06:58:13Z</time></trkpt><trkpt lat="43.04416647576165" lon="12.142901621814447"><ele>405.0</ele><time>2026-04-12T06:58:14Z</time></trkpt><trkpt lat="43.044093190848265" lon="12.142865133830286"><ele>405.0</ele><time>2026-04-12T06:58:15Z</time></trkpt><trkpt lat="43.044006427983405" lon="12.14282719427305"><ele>405.0</ele><time>2026-04-12T06:58:16Z</time></trkpt><trkpt lat="43.04393276840366" lon="12.142791465397517"><ele>405.0</ele><time>2026-04-12T06:58:17Z</time></trkpt><trkpt lat="43.04386099003418" lon="12.142746558045149"><ele>405.0</ele><time>2026-04-12T06:58:18Z</time></trkpt><trkpt lat="43.04379605242318" lon="12.142731063358404"><ele>406.1666666666667</ele><time>2026-04-12T06:58:19Z</time></trkpt><trkpt lat="43.04368202617914" lon="12.142753978485082"><ele>407.33333333333337</ele><time>2026-04-12T06:58:21Z</time></trkpt><trkpt lat="43.04360338372069" lon="12.142786052645908"><ele>408.5</ele><time>2026-04-12T06:58:22Z</time></trkpt><trkpt lat="43.04353241261512" lon="12.142813595332248"><ele>409.6666666666667</ele><time>2026-04-12T06:58:23Z</time></trkpt><trkpt lat="43.043453801316126" lon="12.142851445015852"><ele>410.83333333333337</ele><time>2026-04-12T06:58:24Z</time></trkpt><trkpt lat="43.0433913210815" lon="12.142895109898475"><ele>412.0</ele><time>2026-04-12T06:58:25Z</time></trkpt><trkpt lat="43.04332916338875" lon="12.142970630988197"><ele>410.83333333333337</ele><time>2026-04-12T06:58:26Z</time></trkpt><trkpt lat="43.043275207481734" lon="12.143067911785774"><ele>409.6666666666667</ele><time>2026-04-12T06:58:27Z</time></trkpt><trkpt lat="43.043224625421374" lon="12.14316344414612"><ele>408.5</ele><time>2026-04-12T06:58:28Z</time></trkpt><trkpt lat="43.04315900430584" lon="12.14322954323159"><ele>407.33333333333337</ele><time>2026-04-12T06:58:29Z</time></trkpt><trkpt lat="43.0430907583262" lon="12.143238704821986"><ele>406.1666666666667</ele><time>2026-04-12T06:58:30Z</time></trkpt><trkpt lat="43.043014449011494" lon="12.143220422953666"><ele>405.0</ele><time>2026-04-12T06:58:31Z</time></trkpt><trkpt lat="43.0429519119089" lon="12.143236131633993"><ele>409.2</ele><time>2026-04-12T06:58:32Z</time></trkpt><trkpt lat="43.04285316884871" lon="12.143361204359163"><ele>413.4</ele><time>2026-04-12T06:58:34Z</time></trkpt><trkpt lat="43.042790095297015" lon="12.14339757656371"><ele>417.6</ele><time>2026-04-12T06:58:35Z</time></trkpt><trkpt lat="43.042718029017585" lon="12.143365070728048"><ele>421.8</ele><time>2026-04-12T06:58:36Z</time></trkpt><trkpt lat="43.04261222372637" lon="12.14331289079316"><ele>426.0</ele><time>2026-04-12T06:58:37Z</time></trkpt><trkpt lat="43.04250820583879" lon="12.14329184026556"><ele>424.4</ele><time>2026-04-12T06:58:38Z</time></trkpt><trkpt lat="43.04242268028113" lon="12.14329623081762"><ele>422.8</ele><time>2026-04-12T06:58:39Z</time></trkpt><trkpt lat="43.04233815362212" lon="12.143333999737496"><ele>421.2</ele><time>2026-04-12T06:58:40Z</time></trkpt><trkpt lat="43.042236316683585" lon="12.143388045308447"><ele>419.59999999999997</ele><time>2026-04-12T06:58:41Z</time></trkpt><trkpt lat="43.04213858268867" lon="12.143444360345931"><ele>418.0</ele><time>2026-04-12T06:58:42Z</time></trkpt><trkpt lat="43.0420553997009" lon="12.143476967963961"><ele>418.00000000000006</ele><time>2026-04-12T06:58:43Z</time></trkpt><trkpt lat="43.04198055378835" lon="12.14349454386214"><ele>418.0</ele><time>2026-04-12T06:58:44Z</time></trkpt><trkpt lat="43.041895732351406" lon="12.143527686257313"><ele>418.0</ele><time>2026-04-12T06:58:45Z</time></trkpt><trkpt lat="43.041822524070874" lon="12.143578239088916"><ele>418.0</ele><time>2026-04-12T06:58:46Z</time></trkpt><trkpt lat="43.041770585123395" lon="12.143670387493115"><ele>418.00000000000006</ele><time>2026-04-12T06:58:47Z</time></trkpt><trkpt lat="43.04172444473878" lon="12.14376402189472"><ele>418.0</ele><time>2026-04-12T06:58:48Z</time></trkpt><trkpt lat="43.04166285833183" lon="12.14385551519727"><ele>418.00000000000006</ele><time>2026-04-12T06:58:49Z</time></trkpt><trkpt lat="43.041618660970634" lon="12.143948715386871"><ele>418.0</ele><time>2026-04-12T06:58:50Z</time></trkpt><trkpt lat="43.04158361861251" lon="12.144034263370177"><ele>418.0</ele><time>2026-04-12T06:58:51Z</time></trkpt><trkpt lat="43.04155776498063" lon="12.144120142635918"><ele>418.0</ele><time>2026-04-12T06:58:52Z</time></trkpt><trkpt lat="43.04148601018356" lon="12.144217512018002"><ele>418.00000000000006</ele><time>2026-04-12T06:58:54Z</time></trkpt><trkpt lat="43.041412328279854" lon="12.144192695163307"><ele>418.0</ele><time>2026-04-12T06:58:55Z</time></trkpt><trkpt lat="43.041327071604066" lon="12.144171094769893"><ele>418.00000000000006</ele><time>2026-04-12T06:58:56Z</time></trkpt><trkpt lat="43.04124774876466" lon="12.14416625712716"><ele>418.0</ele><time>2026-04-12T06:58:56.999Z</time></trkpt><trkpt lat="43.04116936319384" lon="12.144168820615997"><ele>418.0</ele><time>2026-04-12T06:58:57.999Z</time></trkpt><trkpt lat="43.041075268523215" lon="12.144175036393706"><ele>418.0</ele><time>2026-04-12T06:58:58.999Z</time></trkpt><trkpt lat="43.0410034007722" lon="12.144156509624603"><ele>418.00000000000006</ele><time>2026-04-12T06:58:59.999Z</time></trkpt><trkpt lat="43.040953276774516" lon="12.14409224610063"><ele>418.0</ele><time>2026-04-12T06:59:00.999Z</time></trkpt><trkpt lat="43.04088401866889" lon="12.143997109702608"><ele>418.0</ele><time>2026-04-12T06:59:01.999Z</time></trkpt><trkpt lat="43.04082044884821" lon="12.143932370930628"><ele>418.0</ele><time>2026-04-12T06:59:02.999Z</time></trkpt><trkpt lat="43.04071727400514" lon="12.143910054168156"><ele>418.0</ele><time>2026-04-12T06:59:04.999Z</time></trkpt><trkpt lat="43.04064259286811" lon="12.144033876723901"><ele>418.0</ele><time>2026-04-12T06:59:07Z</time></trkpt><trkpt lat="43.040607821662626" lon="12.144142294930758"><ele>418.0</ele><time>2026-04-12T06:59:08Z</time></trkpt><trkpt lat="43.04056758051716" lon="12.144236206900748"><ele>417.6666666666667</ele><time>2026-04-12T06:59:09Z</time></trkpt><trkpt lat="43.040530764418136" lon="12.144313603842276"><ele>417.33333333333337</ele><time>2026-04-12T06:59:10Z</time></trkpt><trkpt lat="43.04049878305217" lon="12.144412525204322"><ele>417.0</ele><time>2026-04-12T06:59:11Z</time></trkpt><trkpt lat="43.04048688665541" lon="12.144510052857242"><ele>416.66666666666663</ele><time>2026-04-12T06:59:12Z</time></trkpt><trkpt lat="43.04049510194093" lon="12.144647520485169"><ele>416.3333333333333</ele><time>2026-04-12T06:59:14Z</time></trkpt><trkpt lat="43.040493061393796" lon="12.144815256006217"><ele>416.0</ele><time>2026-04-12T06:59:16Z</time></trkpt><trkpt lat="43.04041531717316" lon="12.144940706545142"><ele>418.1428571428571</ele><time>2026-04-12T06:59:18Z</time></trkpt><trkpt lat="43.040354271623265" lon="12.144980735188646"><ele>420.28571428571433</ele><time>2026-04-12T06:59:19Z</time></trkpt><trkpt lat="43.04028893547187" lon="12.144987637114399"><ele>422.42857142857144</ele><time>2026-04-12T06:59:20Z</time></trkpt><trkpt lat="43.040213013601345" lon="12.144949475006284"><ele>424.57142857142856</ele><time>2026-04-12T06:59:21Z</time></trkpt><trkpt lat="43.040141342148544" lon="12.144921366283494"><ele>426.71428571428567</ele><time>2026-04-12T06:59:22Z</time></trkpt><trkpt lat="43.04008039071777" lon="12.144947797554492"><ele>428.8571428571429</ele><time>2026-04-12T06:59:23Z</time></trkpt><trkpt lat="43.040002463578126" lon="12.144993090362275"><ele>431.0</ele><time>2026-04-12T06:59:24Z</time></trkpt><trkpt lat="43.03991918208932" lon="12.14501799981703"><ele>431.66666666666663</ele><time>2026-04-12T06:59:25Z</time></trkpt><trkpt lat="43.03985093274422" lon="12.145011712002779"><ele>432.3333333333333</ele><time>2026-04-12T06:59:26Z</time></trkpt><trkpt lat="43.03977488180033" lon="12.144962720130673"><ele>433.0</ele><time>2026-04-12T06:59:27Z</time></trkpt><trkpt lat="43.039702724989084" lon="12.14488806321732"><ele>433.66666666666663</ele><time>2026-04-12T06:59:28Z</time></trkpt><trkpt lat="43.03963365602901" lon="12.144827263585238"><ele>434.3333333333333</ele><time>2026-04-12T06:59:29Z</time></trkpt><trkpt lat="43.03955865902582" lon="12.14476484995086"><ele>435.0</ele><time>2026-04-12T06:59:30Z</time></trkpt><trkpt lat="43.039494920605094" lon="12.144705967474708"><ele>434.3333333333333</ele><time>2026-04-12T06:59:31Z</time></trkpt><trkpt lat="43.03943282787589" lon="12.144666576854018"><ele>433.66666666666663</ele><time>2026-04-12T06:59:32Z</time></trkpt><trkpt lat="43.03934604020352" lon="12.144637398476211"><ele>433.0</ele><time>2026-04-12T06:59:33Z</time></trkpt><trkpt lat="43.039250067838516" lon="12.14462239238876"><ele>432.3333333333333</ele><time>2026-04-12T06:59:34Z</time></trkpt><trkpt lat="43.03915288648449" lon="12.144615671034725"><ele>431.66666666666663</ele><time>2026-04-12T06:59:35Z</time></trkpt><trkpt lat="43.03906882140163" lon="12.144605056013358"><ele>431.0</ele><time>2026-04-12T06:59:36Z</time></trkpt><trkpt lat="43.0390043458164" lon="12.144619363760789"><ele>431.0</ele><time>2026-04-12T06:59:37Z</time></trkpt><trkpt lat="43.03891335410792" lon="12.144586715805863"><ele>431.0</ele><time>2026-04-12T06:59:39Z</time></trkpt><trkpt lat="43.03886999867466" lon="12.14450378667396"><ele>431.0</ele><time>2026-04-12T06:59:40Z</time></trkpt><trkpt lat="43.038833830090134" lon="12.144359467454626"><ele>431.0</ele><time>2026-04-12T06:59:41Z</time></trkpt><trkpt lat="43.038782215126204" lon="12.144231008453465"><ele>431.0</ele><time>2026-04-12T06:59:42Z</time></trkpt><trkpt lat="43.038729246863035" lon="12.144107982489146"><ele>427.3333333333333</ele><time>2026-04-12T06:59:43Z</time></trkpt><trkpt lat="43.038692282592855" lon="12.143997996619081"><ele>423.66666666666663</ele><time>2026-04-12T06:59:44Z</time></trkpt><trkpt lat="43.03865735196363" lon="12.143896234033834"><ele>420.0</ele><time>2026-04-12T06:59:45Z</time></trkpt><trkpt lat="43.03862754740117" lon="12.143802247218323"><ele>416.33333333333337</ele><time>2026-04-12T06:59:46Z</time></trkpt><trkpt lat="43.03857959542734" lon="12.143723040728618"><ele>412.6666666666667</ele><time>2026-04-12T06:59:47Z</time></trkpt><trkpt lat="43.03852947188592" lon="12.14364022982145"><ele>409.0</ele><time>2026-04-12T06:59:48Z</time></trkpt><trkpt lat="43.03847375752989" lon="12.143554334490045"><ele>409.00000000000006</ele><time>2026-04-12T06:59:49Z</time></trkpt><trkpt lat="43.03842110831026" lon="12.143476944112324"><ele>409.0</ele><time>2026-04-12T06:59:50Z</time></trkpt><trkpt lat="43.03836432933385" lon="12.143419425646123"><ele>409.0</ele><time>2026-04-12T06:59:51Z</time></trkpt><trkpt lat="43.038294320547536" lon="12.14339619014282"><ele>409.0</ele><time>2026-04-12T06:59:52Z</time></trkpt><trkpt lat="43.03821492578926" lon="12.143359568657782"><ele>409.00000000000006</ele><time>2026-04-12T06:59:53Z</time></trkpt><trkpt lat="43.038140570834166" lon="12.143313462531157"><ele>409.0</ele><time>2026-04-12T06:59:54Z</time></trkpt><trkpt lat="43.03807381563329" lon="12.143273475737285"><ele>408.00000000000006</ele><time>2026-04-12T06:59:55Z</time></trkpt><trkpt lat="43.03800642023554" lon="12.143201474535388"><ele>407.0</ele><time>2026-04-12T06:59:56Z</time></trkpt><trkpt lat="43.037960704907334" lon="12.143107821584756"><ele>406.0</ele><time>2026-04-12T06:59:57Z</time></trkpt><trkpt lat="43.037907679850896" lon="12.143015027970785"><ele>405.0</ele><time>2026-04-12T06:59:58Z</time></trkpt><trkpt lat="43.037842558134834" lon="12.142913373707808"><ele>404.00000000000006</ele><time>2026-04-12T06:59:59Z</time></trkpt><trkpt lat="43.037799325874595" lon="12.142808563794874"><ele>403.0</ele><time>2026-04-12T07:00:00Z</time></trkpt><trkpt lat="43.03776863479903" lon="12.142708517231503"><ele>403.00000000000006</ele><time>2026-04-12T07:00:01Z</time></trkpt><trkpt lat="43.03771663266662" lon="12.142619375735698"><ele>403.0</ele><time>2026-04-12T07:00:02Z</time></trkpt><trkpt lat="43.037669029050946" lon="12.142543075554968"><ele>403.0</ele><time>2026-04-12T07:00:03Z</time></trkpt><trkpt lat="43.03760711422258" lon="12.14248436478826"><ele>403.0</ele><time>2026-04-12T07:00:04Z</time></trkpt><trkpt lat="43.03754063329186" lon="12.142438635883916"><ele>403.00000000000006</ele><time>2026-04-12T07:00:05Z</time></trkpt><trkpt lat="43.03746876134008" lon="12.142396298110615"><ele>403.0</ele><time>2026-04-12T07:00:06Z</time></trkpt><trkpt lat="43.03738157621706" lon="12.142372625949813"><ele>402.33333333333337</ele><time>2026-04-12T07:00:07Z</time></trkpt><trkpt lat="43.03729049910659" lon="12.142348250583542"><ele>401.6666666666667</ele><time>2026-04-12T07:00:08Z</time></trkpt><trkpt lat="43.037208015571416" lon="12.142319795955437"><ele>401.0</ele><time>2026-04-12T07:00:09Z</time></trkpt><trkpt lat="43.037131823720635" lon="12.142309875400706"><ele>400.33333333333337</ele><time>2026-04-12T07:00:10Z</time></trkpt><trkpt lat="43.03704662563711" lon="12.142333787833428"><ele>399.6666666666667</ele><time>2026-04-12T07:00:11Z</time></trkpt><trkpt lat="43.036963948148525" lon="12.142328321409758"><ele>399.0</ele><time>2026-04-12T07:00:12Z</time></trkpt><trkpt lat="43.03687863437455" lon="12.142354633290486"><ele>399.5</ele><time>2026-04-12T07:00:13Z</time></trkpt><trkpt lat="43.03679046702321" lon="12.142391014420417"><ele>400.0</ele><time>2026-04-12T07:00:14Z</time></trkpt><trkpt lat="43.03670206755933" lon="12.14242191253397"><ele>400.5</ele><time>2026-04-12T07:00:15Z</time></trkpt><trkpt lat="43.036619061927595" lon="12.142470444578324"><ele>401.0</ele><time>2026-04-12T07:00:16Z</time></trkpt><trkpt lat="43.036551760987365" lon="12.142517402787766"><ele>401.5</ele><time>2026-04-12T07:00:17Z</time></trkpt><trkpt lat="43.03646445431561" lon="12.142585109367753"><ele>402.0</ele><time>2026-04-12T07:00:19Z</time></trkpt><trkpt lat="43.036396420386986" lon="12.14259219543714"><ele>403.5</ele><time>2026-04-12T07:00:21Z</time></trkpt><trkpt lat="43.036360250083916" lon="12.142471099768915"><ele>405.0</ele><time>2026-04-12T07:00:23Z</time></trkpt><trkpt lat="43.03629707309865" lon="12.14234034077207"><ele>406.5</ele><time>2026-04-12T07:00:25Z</time></trkpt><trkpt lat="43.03628867575113" lon="12.142254964554335"><ele>408.0</ele><time>2026-04-12T07:00:26Z</time></trkpt><trkpt lat="43.03631123318802" lon="12.142164999975224"><ele>409.5</ele><time>2026-04-12T07:00:27Z</time></trkpt><trkpt lat="43.03635082984711" lon="12.14207861516573"><ele>411.0</ele><time>2026-04-12T07:00:28Z</time></trkpt><trkpt lat="43.0363859093712" lon="12.141997508838609"><ele>414.8</ele><time>2026-04-12T07:00:29Z</time></trkpt><trkpt lat="43.036426909234294" lon="12.14189405060196"><ele>418.6</ele><time>2026-04-12T07:00:30Z</time></trkpt><trkpt lat="43.0364341583041" lon="12.141801021660639"><ele>422.4</ele><time>2026-04-12T07:00:31Z</time></trkpt><trkpt lat="43.03645559406411" lon="12.141695976434187"><ele>426.2</ele><time>2026-04-12T07:00:32Z</time></trkpt><trkpt lat="43.03651218373725" lon="12.141541241562685"><ele>430.0</ele><time>2026-04-12T07:00:34Z</time></trkpt><trkpt lat="43.0364802321346" lon="12.141400966083138"><ele>432.6</ele><time>2026-04-12T07:00:36Z</time></trkpt><trkpt lat="43.036434613224344" lon="12.141279183356305"><ele>435.2</ele><time>2026-04-12T07:00:38Z</time></trkpt><trkpt lat="43.036410030379805" lon="12.141151798243966"><ele>437.79999999999995</ele><time>2026-04-12T07:00:40Z</time></trkpt><trkpt lat="43.036347223560355" lon="12.141028310454471"><ele>440.4</ele><time>2026-04-12T07:00:42Z</time></trkpt><trkpt lat="43.03634237902331" lon="12.140927586260178"><ele>443.0</ele><time>2026-04-12T07:00:43Z</time></trkpt><trkpt lat="43.036326997984034" lon="12.14081593219953"><ele>442.3333333333333</ele><time>2026-04-12T07:00:44Z</time></trkpt><trkpt lat="43.036324714745774" lon="12.14071118181666"><ele>441.66666666666663</ele><time>2026-04-12T07:00:45Z</time></trkpt><trkpt lat="43.03629597075957" lon="12.140540838868018"><ele>441.0</ele><time>2026-04-12T07:00:47Z</time></trkpt><trkpt lat="43.036273235457244" lon="12.140441778118063"><ele>440.33333333333337</ele><time>2026-04-12T07:00:48Z</time></trkpt><trkpt lat="43.03622935493337" lon="12.140345253849109"><ele>439.6666666666667</ele><time>2026-04-12T07:00:49Z</time></trkpt><trkpt lat="43.03618411593407" lon="12.140249991773388"><ele>439.0</ele><time>2026-04-12T07:00:50Z</time></trkpt><trkpt lat="43.03614636556593" lon="12.140153290128751"><ele>439.00000000000006</ele><time>2026-04-12T07:00:51Z</time></trkpt><trkpt lat="43.03611904991843" lon="12.140075294731567"><ele>439.0</ele><time>2026-04-12T07:00:52Z</time></trkpt><trkpt lat="43.036036996811454" lon="12.139951186125078"><ele>439.0</ele><time>2026-04-12T07:00:54Z</time></trkpt><trkpt lat="43.036001221840955" lon="12.13986696237571"><ele>439.0</ele><time>2026-04-12T07:00:55Z</time></trkpt><trkpt lat="43.035955041077386" lon="12.139734389609076"><ele>439.00000000000006</ele><time>2026-04-12T07:00:57Z</time></trkpt><trkpt lat="43.03596222796025" lon="12.139640681620497"><ele>439.0</ele><time>2026-04-12T07:00:58Z</time></trkpt><trkpt lat="43.03595324075282" lon="12.139528926326948"><ele>439.1666666666667</ele><time>2026-04-12T07:00:59Z</time></trkpt><trkpt lat="43.0359547487026" lon="12.139396521434389"><ele>439.33333333333337</ele><time>2026-04-12T07:01:00Z</time></trkpt><trkpt lat="43.03595666679646" lon="12.139269270468178"><ele>439.5</ele><time>2026-04-12T07:01:01Z</time></trkpt><trkpt lat="43.03595778837644" lon="12.139158815319036"><ele>439.66666666666663</ele><time>2026-04-12T07:01:02Z</time></trkpt><trkpt lat="43.035952411117606" lon="12.139058779811544"><ele>439.8333333333333</ele><time>2026-04-12T07:01:03Z</time></trkpt><trkpt lat="43.03593328762665" lon="12.138954617974315"><ele>440.0</ele><time>2026-04-12T07:01:04Z</time></trkpt><trkpt lat="43.03591868727044" lon="12.138836763281208"><ele>440.0</ele><time>2026-04-12T07:01:05Z</time></trkpt><trkpt lat="43.03590448392264" lon="12.138735800717635"><ele>440.0</ele><time>2026-04-12T07:01:06Z</time></trkpt><trkpt lat="43.03585142007426" lon="12.138606077697444"><ele>440.0</ele><time>2026-04-12T07:01:08Z</time></trkpt><trkpt lat="43.03590153289498" lon="12.138500634543227"><ele>440.0</ele><time>2026-04-12T07:01:10Z</time></trkpt><trkpt lat="43.03604562382231" lon="12.138506903309706"><ele>440.0</ele><time>2026-04-12T07:01:12Z</time></trkpt><trkpt lat="43.03612620077167" lon="12.138494434204203"><ele>440.0</ele><time>2026-04-12T07:01:13Z</time></trkpt><trkpt lat="43.03621925851135" lon="12.138416479604347"><ele>440.0</ele><time>2026-04-12T07:01:15Z</time></trkpt><trkpt lat="43.03626948392423" lon="12.138266938025588"><ele>440.0</ele><time>2026-04-12T07:01:17Z</time></trkpt><trkpt lat="43.036268784170424" lon="12.13809714099497"><ele>440.0</ele><time>2026-04-12T07:01:19Z</time></trkpt><trkpt lat="43.03624539527676" lon="12.137994279191368"><ele>440.0</ele><time>2026-04-12T07:01:20Z</time></trkpt><trkpt lat="43.03621948007459" lon="12.137913086379815"><ele>443.0</ele><time>2026-04-12T07:01:21Z</time></trkpt><trkpt lat="43.036154037794425" lon="12.137778667426568"><ele>446.0</ele><time>2026-04-12T07:01:23Z</time></trkpt><trkpt lat="43.0361243770153" lon="12.137617835669959"><ele>449.0</ele><time>2026-04-12T07:01:25Z</time></trkpt><trkpt lat="43.03614770803483" lon="12.137524445177158"><ele>452.0</ele><time>2026-04-12T07:01:26Z</time></trkpt><trkpt lat="43.03616279127002" lon="12.137397130682952"><ele>455.0</ele><time>2026-04-12T07:01:27Z</time></trkpt><trkpt lat="43.03619667254435" lon="12.137289268604912"><ele>456.42857142857144</ele><time>2026-04-12T07:01:28Z</time></trkpt><trkpt lat="43.036218732003796" lon="12.137205833605622"><ele>457.8571428571429</ele><time>2026-04-12T07:01:29Z</time></trkpt><trkpt lat="43.0362648452829" lon="12.137134371480192"><ele>459.2857142857143</ele><time>2026-04-12T07:01:30Z</time></trkpt><trkpt lat="43.03631330278628" lon="12.137061126189884"><ele>460.7142857142857</ele><time>2026-04-12T07:01:31Z</time></trkpt><trkpt lat="43.036354931332845" lon="12.136980741433037"><ele>462.14285714285717</ele><time>2026-04-12T07:01:32Z</time></trkpt><trkpt lat="43.03636871646983" lon="12.13688719341953"><ele>463.57142857142856</ele><time>2026-04-12T07:01:33Z</time></trkpt><trkpt lat="43.0363733671534" lon="12.13679915384576"><ele>465.0</ele><time>2026-04-12T07:01:34Z</time></trkpt><trkpt lat="43.03635235965896" lon="12.136706998722572"><ele>465.0</ele><time>2026-04-12T07:01:35Z</time></trkpt><trkpt lat="43.03633168490422" lon="12.13659356658935"><ele>465.0</ele><time>2026-04-12T07:01:36Z</time></trkpt><trkpt lat="43.03631205460223" lon="12.136464124237293"><ele>465.0</ele><time>2026-04-12T07:01:37Z</time></trkpt><trkpt lat="43.036292626447455" lon="12.136320766917375"><ele>465.0</ele><time>2026-04-12T07:01:38Z</time></trkpt><trkpt lat="43.036272677849695" lon="12.136209161219776"><ele>465.0</ele><time>2026-04-12T07:01:39Z</time></trkpt><trkpt lat="43.03626930854648" lon="12.136118742482626"><ele>465.0</ele><time>2026-04-12T07:01:40Z</time></trkpt><trkpt lat="43.03627128031866" lon="12.136031082462964"><ele>464.4</ele><time>2026-04-12T07:01:41Z</time></trkpt><trkpt lat="43.03631635418307" lon="12.135846576980434"><ele>463.8</ele><time>2026-04-12T07:01:43Z</time></trkpt><trkpt lat="43.03634052631415" lon="12.135745165551153"><ele>463.20000000000005</ele><time>2026-04-12T07:01:44Z</time></trkpt><trkpt lat="43.0363439220652" lon="12.135602201374356"><ele>462.6</ele><time>2026-04-12T07:01:46Z</time></trkpt><trkpt lat="43.03626385508054" lon="12.13547835894419"><ele>462.0</ele><time>2026-04-12T07:01:48Z</time></trkpt><trkpt lat="43.036199877824096" lon="12.135397049339918"><ele>460.20000000000005</ele><time>2026-04-12T07:01:50Z</time></trkpt><trkpt lat="43.03611668066301" lon="12.135461197455374"><ele>458.40000000000003</ele><time>2026-04-12T07:01:55Z</time></trkpt><trkpt lat="43.036034153310375" lon="12.13541432731559"><ele>456.59999999999997</ele><time>2026-04-12T07:01:57Z</time></trkpt><trkpt lat="43.03597106354965" lon="12.135358367597046"><ele>454.79999999999995</ele><time>2026-04-12T07:01:59Z</time></trkpt><trkpt lat="43.035906828101716" lon="12.135371953515333"><ele>453.0</ele><time>2026-04-12T07:02:02Z</time></trkpt><trkpt lat="43.03577717137473" lon="12.13531782219933"><ele>453.0</ele><time>2026-04-12T07:02:04Z</time></trkpt><trkpt lat="43.035687897795455" lon="12.135262357450856"><ele>452.99999999999994</ele><time>2026-04-12T07:02:06Z</time></trkpt><trkpt lat="43.03559502276808" lon="12.135188514668242"><ele>452.99999999999994</ele><time>2026-04-12T07:02:07Z</time></trkpt><trkpt lat="43.0355222474174" lon="12.135126608384004"><ele>453.0</ele><time>2026-04-12T07:02:08Z</time></trkpt><trkpt lat="43.03545871553791" lon="12.13507950661798"><ele>453.0</ele><time>2026-04-12T07:02:09Z</time></trkpt><trkpt lat="43.03534845502613" lon="12.13496421809266"><ele>449.59999999999997</ele><time>2026-04-12T07:02:11Z</time></trkpt><trkpt lat="43.03527548002588" lon="12.134887547432685"><ele>446.19999999999993</ele><time>2026-04-12T07:02:12Z</time></trkpt><trkpt lat="43.03519151711633" lon="12.134799913151085"><ele>442.8</ele><time>2026-04-12T07:02:13Z</time></trkpt><trkpt lat="43.03511906408954" lon="12.134724960276044"><ele>439.4</ele><time>2026-04-12T07:02:14Z</time></trkpt><trkpt lat="43.03504349074963" lon="12.134655156780303"><ele>436.0</ele><time>2026-04-12T07:02:15Z</time></trkpt><trkpt lat="43.034973420220595" lon="12.134576084390998"><ele>437.0</ele><time>2026-04-12T07:02:16Z</time></trkpt><trkpt lat="43.03489520152014" lon="12.134485883046755"><ele>438.0</ele><time>2026-04-12T07:02:17Z</time></trkpt><trkpt lat="43.03482653348027" lon="12.13438122528604"><ele>439.0</ele><time>2026-04-12T07:02:18Z</time></trkpt><trkpt lat="43.03476355055297" lon="12.134259587557242"><ele>440.0</ele><time>2026-04-12T07:02:19Z</time></trkpt><trkpt lat="43.03470704291791" lon="12.134131102754921"><ele>441.0</ele><time>2026-04-12T07:02:20Z</time></trkpt><trkpt lat="43.034640962096475" lon="12.133991639826636"><ele>441.0</ele><time>2026-04-12T07:02:21Z</time></trkpt><trkpt lat="43.034567026948146" lon="12.13385334115754"><ele>441.0</ele><time>2026-04-12T07:02:22Z</time></trkpt><trkpt lat="43.03451481195121" lon="12.133712969320369"><ele>441.0</ele><time>2026-04-12T07:02:23Z</time></trkpt><trkpt lat="43.034464682817166" lon="12.133589998604391"><ele>441.0</ele><time>2026-04-12T07:02:24Z</time></trkpt><trkpt lat="43.03441071444179" lon="12.13347150848876"><ele>441.0</ele><time>2026-04-12T07:02:25Z</time></trkpt><trkpt lat="43.03435285650705" lon="12.13334394983564"><ele>440.0</ele><time>2026-04-12T07:02:26Z</time></trkpt><trkpt lat="43.034300449616865" lon="12.13320652750102"><ele>439.0</ele><time>2026-04-12T07:02:27Z</time></trkpt><trkpt lat="43.03425302351124" lon="12.133079242444568"><ele>438.0</ele><time>2026-04-12T07:02:28Z</time></trkpt><trkpt lat="43.034222267568246" lon="12.13293763557309"><ele>437.0</ele><time>2026-04-12T07:02:29Z</time></trkpt><trkpt lat="43.034199648001795" lon="12.132809911926175"><ele>436.0</ele><time>2026-04-12T07:02:30Z</time></trkpt><trkpt lat="43.03418750452727" lon="12.132665928112175"><ele>436.0</ele><time>2026-04-12T07:02:31Z</time></trkpt><trkpt lat="43.03416563172366" lon="12.132526629463397"><ele>436.0</ele><time>2026-04-12T07:02:32Z</time></trkpt><trkpt lat="43.03413279448607" lon="12.132400647701159"><ele>436.0</ele><time>2026-04-12T07:02:33Z</time></trkpt><trkpt lat="43.03408269709622" lon="12.132280763726378"><ele>436.0</ele><time>2026-04-12T07:02:34Z</time></trkpt><trkpt lat="43.034011257329595" lon="12.132148929332958"><ele>436.0</ele><time>2026-04-12T07:02:35Z</time></trkpt><trkpt lat="43.03393544731903" lon="12.132007948312827"><ele>435.75</ele><time>2026-04-12T07:02:36Z</time></trkpt><trkpt lat="43.033867401544185" lon="12.131860941364977"><ele>435.5</ele><time>2026-04-12T07:02:37Z</time></trkpt><trkpt lat="43.033672141361635" lon="12.131850708005464"><ele>435.25</ele><time>2026-04-12T07:02:38Z</time></trkpt><trkpt lat="43.03360787573442" lon="12.13174545771044"><ele>435.0</ele><time>2026-04-12T07:02:39Z</time></trkpt><trkpt lat="43.03354596398908" lon="12.131673697990466"><ele>435.0</ele><time>2026-04-12T07:02:40Z</time></trkpt><trkpt lat="43.03346310031712" lon="12.131583610292674"><ele>435.0</ele><time>2026-04-12T07:02:41Z</time></trkpt><trkpt lat="43.033382842475625" lon="12.131485588245669"><ele>435.0</ele><time>2026-04-12T07:02:42Z</time></trkpt><trkpt lat="43.03331564849569" lon="12.13140352246051"><ele>435.0</ele><time>2026-04-12T07:02:43Z</time></trkpt><trkpt lat="43.03322880164173" lon="12.1312977962481"><ele>435.0</ele><time>2026-04-12T07:02:44Z</time></trkpt><trkpt lat="43.03314528301638" lon="12.131205992268635"><ele>435.8333333333333</ele><time>2026-04-12T07:02:45Z</time></trkpt><trkpt lat="43.03307019794213" lon="12.13113909445104"><ele>436.66666666666663</ele><time>2026-04-12T07:02:46Z</time></trkpt><trkpt lat="43.032998174873775" lon="12.131088582744868"><ele>437.5</ele><time>2026-04-12T07:02:47Z</time></trkpt><trkpt lat="43.032928301605054" lon="12.131050733720581"><ele>438.3333333333333</ele><time>2026-04-12T07:02:48Z</time></trkpt><trkpt lat="43.032806753726334" lon="12.131005732557082"><ele>439.16666666666663</ele><time>2026-04-12T07:02:50Z</time></trkpt><trkpt lat="43.03274432106458" lon="12.130960613885211"><ele>440.0</ele><time>2026-04-12T07:02:51Z</time></trkpt><trkpt lat="43.03276661560704" lon="12.130092553795883"><ele>440.2</ele><time>2026-04-12T07:02:53Z</time></trkpt><trkpt lat="43.03268769133502" lon="12.129988693057717"><ele>440.4</ele><time>2026-04-12T07:02:54Z</time></trkpt><trkpt lat="43.032622722130405" lon="12.129894522712966"><ele>440.6</ele><time>2026-04-12T07:02:55Z</time></trkpt><trkpt lat="43.03255532793038" lon="12.129813272395317"><ele>440.8</ele><time>2026-04-12T07:02:56Z</time></trkpt><trkpt lat="43.03249038810827" lon="12.129735111843699"><ele>441.0</ele><time>2026-04-12T07:02:57Z</time></trkpt><trkpt lat="43.03244110023214" lon="12.129653018664493"><ele>441.0</ele><time>2026-04-12T07:02:58Z</time></trkpt><trkpt lat="43.03238027150163" lon="12.129545355658827"><ele>441.0</ele><time>2026-04-12T07:02:59Z</time></trkpt><trkpt lat="43.032335016698234" lon="12.129443568444884"><ele>441.0</ele><time>2026-04-12T07:03:00Z</time></trkpt><trkpt lat="43.03228872867046" lon="12.129346357232388"><ele>441.0</ele><time>2026-04-12T07:03:01Z</time></trkpt><trkpt lat="43.03226251773387" lon="12.12922816703927"><ele>441.0</ele><time>2026-04-12T07:03:02Z</time></trkpt><trkpt lat="43.03226718731561" lon="12.129121669876774"><ele>441.0</ele><time>2026-04-12T07:03:03Z</time></trkpt><trkpt lat="43.032294078534775" lon="12.128984240627391"><ele>441.0</ele><time>2026-04-12T07:03:04Z</time></trkpt><trkpt lat="43.032309951813694" lon="12.128852958159152"><ele>441.0</ele><time>2026-04-12T07:03:05Z</time></trkpt><trkpt lat="43.032322906524556" lon="12.128723988035294"><ele>441.0</ele><time>2026-04-12T07:03:06Z</time></trkpt><trkpt lat="43.03232695898908" lon="12.128584503138688"><ele>441.0</ele><time>2026-04-12T07:03:07Z</time></trkpt><trkpt lat="43.032330563305095" lon="12.128432184200854"><ele>441.0</ele><time>2026-04-12T07:03:08Z</time></trkpt><trkpt lat="43.03232471351068" lon="12.128279624159338"><ele>440.20000000000005</ele><time>2026-04-12T07:03:09Z</time></trkpt><trkpt lat="43.03231964884412" lon="12.128130069536308"><ele>439.40000000000003</ele><time>2026-04-12T07:03:10Z</time></trkpt><trkpt lat="43.03231987092137" lon="12.127985267216312"><ele>438.6</ele><time>2026-04-12T07:03:11Z</time></trkpt><trkpt lat="43.03232238161095" lon="12.127860971821756"><ele>437.8</ele><time>2026-04-12T07:03:12Z</time></trkpt><trkpt lat="43.032322264733956" lon="12.127740943977617"><ele>437.0</ele><time>2026-04-12T07:03:13Z</time></trkpt><trkpt lat="43.03232095999092" lon="12.127616993319455"><ele>436.99999999999994</ele><time>2026-04-12T07:03:14Z</time></trkpt><trkpt lat="43.03231987158155" lon="12.1275073130685"><ele>437.0</ele><time>2026-04-12T07:03:15Z</time></trkpt><trkpt lat="43.03235626894929" lon="12.12733219008881"><ele>437.0</ele><time>2026-04-12T07:03:17Z</time></trkpt><trkpt lat="43.03239395240815" lon="12.12726045867202"><ele>437.0</ele><time>2026-04-12T07:03:18Z</time></trkpt><trkpt lat="43.03244782833626" lon="12.127182431386283"><ele>436.99999999999994</ele><time>2026-04-12T07:03:19Z</time></trkpt><trkpt lat="43.032491593360696" lon="12.127088715423763"><ele>437.0</ele><time>2026-04-12T07:03:20Z</time></trkpt><trkpt lat="43.03252179770031" lon="12.12695876309509"><ele>435.40000000000003</ele><time>2026-04-12T07:03:21Z</time></trkpt><trkpt lat="43.03252882891396" lon="12.126812473915738"><ele>433.80000000000007</ele><time>2026-04-12T07:03:22Z</time></trkpt><trkpt lat="43.03253104949555" lon="12.12666859920053"><ele>432.2</ele><time>2026-04-12T07:03:23Z</time></trkpt><trkpt lat="43.0325400869384" lon="12.126534030614781"><ele>430.6</ele><time>2026-04-12T07:03:24Z</time></trkpt><trkpt lat="43.03255732250951" lon="12.126393008586543"><ele>429.0</ele><time>2026-04-12T07:03:25Z</time></trkpt><trkpt lat="43.03256928850865" lon="12.126249359175876"><ele>427.6666666666667</ele><time>2026-04-12T07:03:26Z</time></trkpt><trkpt lat="43.03257985350388" lon="12.126110853888278"><ele>426.33333333333337</ele><time>2026-04-12T07:03:27Z</time></trkpt><trkpt lat="43.032590209659716" lon="12.125979013549161"><ele>425.0</ele><time>2026-04-12T07:03:28Z</time></trkpt><trkpt lat="43.03260320160702" lon="12.125860321980358"><ele>423.6666666666667</ele><time>2026-04-12T07:03:29Z</time></trkpt><trkpt lat="43.03261041747301" lon="12.125761863804412"><ele>422.33333333333337</ele><time>2026-04-12T07:03:30Z</time></trkpt><trkpt lat="43.03261478562327" lon="12.12567204209986"><ele>421.0</ele><time>2026-04-12T07:03:31Z</time></trkpt><trkpt lat="43.0326041205082" lon="12.12552833566149"><ele>419.83333333333337</ele><time>2026-04-12T07:03:33Z</time></trkpt><trkpt lat="43.03259453181713" lon="12.12540594735156"><ele>418.6666666666667</ele><time>2026-04-12T07:03:35Z</time></trkpt><trkpt lat="43.03258611209048" lon="12.125308418439461"><ele>417.5</ele><time>2026-04-12T07:03:37Z</time></trkpt><trkpt lat="43.03258704632072" lon="12.125193056244077"><ele>416.33333333333337</ele><time>2026-04-12T07:03:40Z</time></trkpt><trkpt lat="43.03257660094904" lon="12.125097509474294"><ele>415.1666666666667</ele><time>2026-04-12T07:03:42Z</time></trkpt><trkpt lat="43.03255035378692" lon="12.124973362336924"><ele>414.0</ele><time>2026-04-12T07:03:44Z</time></trkpt><trkpt lat="43.032497998925095" lon="12.124873537837471"><ele>410.8333333333333</ele><time>2026-04-12T07:03:46Z</time></trkpt><trkpt lat="43.03243847457634" lon="12.124797340586532"><ele>407.66666666666663</ele><time>2026-04-12T07:03:48Z</time></trkpt><trkpt lat="43.032395038814755" lon="12.124717128887992"><ele>404.5</ele><time>2026-04-12T07:03:50Z</time></trkpt><trkpt lat="43.03235838380668" lon="12.124621440545774"><ele>401.3333333333333</ele><time>2026-04-12T07:03:52Z</time></trkpt><trkpt lat="43.03231574025449" lon="12.124518301479874"><ele>398.16666666666663</ele><time>2026-04-12T07:03:54Z</time></trkpt><trkpt lat="43.032286485466145" lon="12.124415961214629"><ele>395.0</ele><time>2026-04-12T07:03:56Z</time></trkpt><trkpt lat="43.03224073800437" lon="12.124318032105503"><ele>395.0</ele><time>2026-04-12T07:03:58Z</time></trkpt><trkpt lat="43.03216993609265" lon="12.124236255946343"><ele>395.0</ele><time>2026-04-12T07:04:00Z</time></trkpt><trkpt lat="43.032128125351726" lon="12.124127209951004"><ele>395.0</ele><time>2026-04-12T07:04:04Z</time></trkpt><trkpt lat="43.032065097129646" lon="12.12402021410149"><ele>395.0</ele><time>2026-04-12T07:04:06Z</time></trkpt><trkpt lat="43.03201103849585" lon="12.123926400648482"><ele>395.0</ele><time>2026-04-12T07:04:08Z</time></trkpt><trkpt lat="43.0319928760963" lon="12.123821064978"><ele>392.99999999999994</ele><time>2026-04-12T07:04:11Z</time></trkpt><trkpt lat="43.031974619375916" lon="12.123704374510819"><ele>391.0</ele><time>2026-04-12T07:04:14Z</time></trkpt><trkpt lat="43.03198077920516" lon="12.123615406393531"><ele>389.0</ele><time>2026-04-12T07:04:17Z</time></trkpt><trkpt lat="43.031982780781505" lon="12.12352569238934"><ele>387.0</ele><time>2026-04-12T07:04:19Z</time></trkpt><trkpt lat="43.032000837693275" lon="12.123383869053788"><ele>385.0</ele><time>2026-04-12T07:04:21Z</time></trkpt><trkpt lat="43.032002856594616" lon="12.12328887921229"><ele>383.0</ele><time>2026-04-12T07:04:24Z</time></trkpt><trkpt lat="43.03199908347392" lon="12.12314705233983"><ele>380.83333333333337</ele><time>2026-04-12T07:04:26Z</time></trkpt><trkpt lat="43.032013468059844" lon="12.123063002331229"><ele>378.6666666666667</ele><time>2026-04-12T07:04:28Z</time></trkpt><trkpt lat="43.03200113391733" lon="12.122971516710729"><ele>376.5</ele><time>2026-04-12T07:04:31Z</time></trkpt><trkpt lat="43.03201749160022" lon="12.122884032458996"><ele>374.3333333333333</ele><time>2026-04-12T07:04:33Z</time></trkpt><trkpt lat="43.0320056397282" lon="12.122781753325992"><ele>372.16666666666663</ele><time>2026-04-12T07:04:34Z</time></trkpt><trkpt lat="43.03197781109276" lon="12.122638308092341"><ele>370.0</ele><time>2026-04-12T07:04:36Z</time></trkpt><trkpt lat="43.031998091917906" lon="12.122505442962167"><ele>369.0</ele><time>2026-04-12T07:04:38Z</time></trkpt><trkpt lat="43.032000139327984" lon="12.122371914729026"><ele>368.0</ele><time>2026-04-12T07:04:40Z</time></trkpt><trkpt lat="43.03200393701914" lon="12.12220199725256"><ele>367.0</ele><time>2026-04-12T07:04:42Z</time></trkpt><trkpt lat="43.03200132811457" lon="12.1221086444382"><ele>366.0</ele><time>2026-04-12T07:04:43Z</time></trkpt><trkpt lat="43.03200050403183" lon="12.121940674465444"><ele>365.0</ele><time>2026-04-12T07:04:45Z</time></trkpt><trkpt lat="43.03204397960498" lon="12.121783781448128"><ele>365.0</ele><time>2026-04-12T07:04:47Z</time></trkpt><trkpt lat="43.03212498883916" lon="12.121646785077857"><ele>365.0</ele><time>2026-04-12T07:04:49Z</time></trkpt><trkpt lat="43.03216857438274" lon="12.12157933122154"><ele>365.0</ele><time>2026-04-12T07:04:50Z</time></trkpt><trkpt lat="43.03220453915891" lon="12.12150654133937"><ele>365.0</ele><time>2026-04-12T07:04:51Z</time></trkpt><trkpt lat="43.03222828999644" lon="12.121343268552549"><ele>365.0</ele><time>2026-04-12T07:04:53Z</time></trkpt><trkpt lat="43.03222741340636" lon="12.121246486827419"><ele>365.83333333333337</ele><time>2026-04-12T07:04:54Z</time></trkpt><trkpt lat="43.03222128821401" lon="12.121152404425075"><ele>366.6666666666667</ele><time>2026-04-12T07:04:55Z</time></trkpt><trkpt lat="43.03218287328803" lon="12.120973841361169"><ele>367.5</ele><time>2026-04-12T07:04:57Z</time></trkpt><trkpt lat="43.03214672867256" lon="12.120895333531756"><ele>368.3333333333333</ele><time>2026-04-12T07:04:58Z</time></trkpt><trkpt lat="43.0321216348465" lon="12.120792957684081"><ele>369.16666666666663</ele><time>2026-04-12T07:04:59Z</time></trkpt><trkpt lat="43.032081498700734" lon="12.120694907098358"><ele>370.0</ele><time>2026-04-12T07:05:00Z</time></trkpt><trkpt lat="43.032038988298005" lon="12.120591056426665"><ele>371.2</ele><time>2026-04-12T07:05:01Z</time></trkpt><trkpt lat="43.03199454579504" lon="12.120480129340374"><ele>372.4</ele><time>2026-04-12T07:05:02Z</time></trkpt><trkpt lat="43.03193690862015" lon="12.120361993851857"><ele>373.6</ele><time>2026-04-12T07:05:03Z</time></trkpt><trkpt lat="43.03189311287032" lon="12.120244032865523"><ele>374.8</ele><time>2026-04-12T07:05:04Z</time></trkpt><trkpt lat="43.03187298849709" lon="12.120133122734535"><ele>376.0</ele><time>2026-04-12T07:05:05Z</time></trkpt><trkpt lat="43.03183366846496" lon="12.120047009135016"><ele>376.0</ele><time>2026-04-12T07:05:06Z</time></trkpt><trkpt lat="43.031824757797175" lon="12.119952581038747"><ele>376.0</ele><time>2026-04-12T07:05:07Z</time></trkpt><trkpt lat="43.031826218159" lon="12.119855793069712"><ele>376.0</ele><time>2026-04-12T07:05:08Z</time></trkpt><trkpt lat="43.03184330340547" lon="12.11975051630802"><ele>376.0</ele><time>2026-04-12T07:05:09Z</time></trkpt><trkpt lat="43.031869467843286" lon="12.119652282777476"><ele>376.0</ele><time>2026-04-12T07:05:10Z</time></trkpt><trkpt lat="43.03190955792584" lon="12.119540452283637"><ele>376.0</ele><time>2026-04-12T07:05:11Z</time></trkpt><trkpt lat="43.0319473144445" lon="12.119438043612487"><ele>375.5</ele><time>2026-04-12T07:05:12Z</time></trkpt><trkpt lat="43.03197916135899" lon="12.1193379396787"><ele>375.0</ele><time>2026-04-12T07:05:13Z</time></trkpt><trkpt lat="43.0320217574117" lon="12.11924392963048"><ele>374.5</ele><time>2026-04-12T07:05:14Z</time></trkpt><trkpt lat="43.03204796785307" lon="12.119138702612023"><ele>374.0</ele><time>2026-04-12T07:05:15Z</time></trkpt><trkpt lat="43.0320636593194" lon="12.119031389349024"><ele>373.5</ele><time>2026-04-12T07:05:16Z</time></trkpt><trkpt lat="43.03206690230617" lon="12.11891148727873"><ele>373.0</ele><time>2026-04-12T07:05:17Z</time></trkpt><trkpt lat="43.032048750098376" lon="12.118804189576123"><ele>372.3333333333333</ele><time>2026-04-12T07:05:18Z</time></trkpt><trkpt lat="43.032037840938365" lon="12.118706156254724"><ele>371.66666666666663</ele><time>2026-04-12T07:05:19Z</time></trkpt><trkpt lat="43.032052690559055" lon="12.118614201744276"><ele>371.0</ele><time>2026-04-12T07:05:20Z</time></trkpt><trkpt lat="43.032098326531184" lon="12.1185278759166"><ele>370.3333333333333</ele><time>2026-04-12T07:05:21Z</time></trkpt><trkpt lat="43.032162645325585" lon="12.118465691103687"><ele>369.6666666666667</ele><time>2026-04-12T07:05:22Z</time></trkpt><trkpt lat="43.03224141742791" lon="12.11842479992568"><ele>369.0</ele><time>2026-04-12T07:05:23Z</time></trkpt><trkpt lat="43.03232581273734" lon="12.118403263374576"><ele>369.0</ele><time>2026-04-12T07:05:24Z</time></trkpt><trkpt lat="43.03241034954157" lon="12.118364416703457"><ele>369.0</ele><time>2026-04-12T07:05:25Z</time></trkpt><trkpt lat="43.03248070215781" lon="12.118317423332991"><ele>369.0</ele><time>2026-04-12T07:05:26Z</time></trkpt><trkpt lat="43.03254950721468" lon="12.118262764230618"><ele>369.0</ele><time>2026-04-12T07:05:27Z</time></trkpt><trkpt lat="43.032619599005955" lon="12.118207104451848"><ele>369.0</ele><time>2026-04-12T07:05:28Z</time></trkpt><trkpt lat="43.03269881356819" lon="12.11816122405408"><ele>369.0</ele><time>2026-04-12T07:05:29Z</time></trkpt><trkpt lat="43.03277314564812" lon="12.11810362759202"><ele>368.6666666666667</ele><time>2026-04-12T07:05:30Z</time></trkpt><trkpt lat="43.03284445280699" lon="12.118030851109012"><ele>368.3333333333333</ele><time>2026-04-12T07:05:31Z</time></trkpt><trkpt lat="43.03291239207544" lon="12.117954311315025"><ele>368.0</ele><time>2026-04-12T07:05:32Z</time></trkpt><trkpt lat="43.032976416282615" lon="12.117883816569588"><ele>367.66666666666663</ele><time>2026-04-12T07:05:33Z</time></trkpt><trkpt lat="43.03303872020152" lon="12.117829944673243"><ele>367.3333333333333</ele><time>2026-04-12T07:05:34Z</time></trkpt><trkpt lat="43.033107043795354" lon="12.117788126923038"><ele>367.0</ele><time>2026-04-12T07:05:35Z</time></trkpt><trkpt lat="43.03317771987105" lon="12.117759157278984"><ele>367.0</ele><time>2026-04-12T07:05:36Z</time></trkpt><trkpt lat="43.03325029694598" lon="12.117728115128237"><ele>367.0</ele><time>2026-04-12T07:05:37Z</time></trkpt><trkpt lat="43.03333262005915" lon="12.11770692250127"><ele>367.0</ele><time>2026-04-12T07:05:38Z</time></trkpt><trkpt lat="43.03340925218797" lon="12.117689762889965"><ele>367.0</ele><time>2026-04-12T07:05:39Z</time></trkpt><trkpt lat="43.03347830351883" lon="12.117644914267368"><ele>367.0</ele><time>2026-04-12T07:05:40Z</time></trkpt><trkpt lat="43.03351528681734" lon="12.117558811007916"><ele>367.0</ele><time>2026-04-12T07:05:41Z</time></trkpt><trkpt lat="43.033519311114425" lon="12.117467089751226"><ele>368.1428571428571</ele><time>2026-04-12T07:05:42Z</time></trkpt><trkpt lat="43.03349287125935" lon="12.11738350267078"><ele>369.28571428571433</ele><time>2026-04-12T07:05:43Z</time></trkpt><trkpt lat="43.03347927985582" lon="12.11728251562033"><ele>370.42857142857144</ele><time>2026-04-12T07:05:44Z</time></trkpt><trkpt lat="43.03345034287795" lon="12.11717581910651"><ele>371.57142857142856</ele><time>2026-04-12T07:05:45Z</time></trkpt><trkpt lat="43.03343417045131" lon="12.117067801728147"><ele>372.71428571428567</ele><time>2026-04-12T07:05:46Z</time></trkpt><trkpt lat="43.03344091715808" lon="12.116968834240618"><ele>373.8571428571429</ele><time>2026-04-12T07:05:47Z</time></trkpt><trkpt lat="43.03346754114906" lon="12.11688721288207"><ele>375.0</ele><time>2026-04-12T07:05:48Z</time></trkpt><trkpt lat="43.033534397576446" lon="12.11682888510722"><ele>375.0</ele><time>2026-04-12T07:05:49Z</time></trkpt><trkpt lat="43.03360544897543" lon="12.116761811674866"><ele>375.0</ele><time>2026-04-12T07:05:50Z</time></trkpt><trkpt lat="43.03367446828002" lon="12.116695279627297"><ele>375.0</ele><time>2026-04-12T07:05:51Z</time></trkpt><trkpt lat="43.03374163251189" lon="12.11662569929635"><ele>375.0</ele><time>2026-04-12T07:05:52Z</time></trkpt><trkpt lat="43.03378234590513" lon="12.116549606042026"><ele>375.0</ele><time>2026-04-12T07:05:53Z</time></trkpt><trkpt lat="43.03381851314692" lon="12.116465936537725"><ele>375.0</ele><time>2026-04-12T07:05:54Z</time></trkpt><trkpt lat="43.0337954248619" lon="12.116340694551305"><ele>376.6</ele><time>2026-04-12T07:05:55Z</time></trkpt><trkpt lat="43.03372523617067" lon="12.116237085534465"><ele>378.2</ele><time>2026-04-12T07:05:56Z</time></trkpt><trkpt lat="43.033696665207096" lon="12.116142970583462"><ele>379.79999999999995</ele><time>2026-04-12T07:05:57Z</time></trkpt><trkpt lat="43.033688079722054" lon="12.116053186476051"><ele>381.4</ele><time>2026-04-12T07:05:58Z</time></trkpt><trkpt lat="43.03369247361835" lon="12.115857231095708"><ele>383.0</ele><time>2026-04-12T07:06:00Z</time></trkpt><trkpt lat="43.03370493473257" lon="12.115747402095586"><ele>383.0</ele><time>2026-04-12T07:06:01Z</time></trkpt><trkpt lat="43.03371374742282" lon="12.115645608175315"><ele>383.0</ele><time>2026-04-12T07:06:02Z</time></trkpt><trkpt lat="43.03371773565774" lon="12.11546846772112"><ele>383.0</ele><time>2026-04-12T07:06:04Z</time></trkpt><trkpt lat="43.03368002766736" lon="12.11535649370722"><ele>383.0</ele><time>2026-04-12T07:06:05Z</time></trkpt><trkpt lat="43.03363271018412" lon="12.115254586836592"><ele>383.0</ele><time>2026-04-12T07:06:06Z</time></trkpt><trkpt lat="43.03358882194316" lon="12.115152376235306"><ele>383.0</ele><time>2026-04-12T07:06:07Z</time></trkpt><trkpt lat="43.033549659531595" lon="12.115055914939136"><ele>383.0</ele><time>2026-04-12T07:06:08Z</time></trkpt><trkpt lat="43.03351068870855" lon="12.114962806248666"><ele>383.0</ele><time>2026-04-12T07:06:09Z</time></trkpt><trkpt lat="43.03346819996121" lon="12.114870363884965"><ele>383.0</ele><time>2026-04-12T07:06:10Z</time></trkpt><trkpt lat="43.03342827317598" lon="12.114800512509992"><ele>383.0</ele><time>2026-04-12T07:06:11Z</time></trkpt><trkpt lat="43.03337621479158" lon="12.114716043309192"><ele>383.0</ele><time>2026-04-12T07:06:12Z</time></trkpt><trkpt lat="43.033320792488084" lon="12.114627204605313"><ele>380.2</ele><time>2026-04-12T07:06:13Z</time></trkpt><trkpt lat="43.033259419764235" lon="12.114528582939808"><ele>377.4</ele><time>2026-04-12T07:06:14Z</time></trkpt><trkpt lat="43.033199022720325" lon="12.114462861866222"><ele>374.59999999999997</ele><time>2026-04-12T07:06:15Z</time></trkpt><trkpt lat="43.03316297158976" lon="12.114377293092453"><ele>371.79999999999995</ele><time>2026-04-12T07:06:16Z</time></trkpt><trkpt lat="43.03309976937501" lon="12.114268337093609"><ele>369.0</ele><time>2026-04-12T07:06:17Z</time></trkpt><trkpt lat="43.033025946731044" lon="12.114140075566127"><ele>369.75</ele><time>2026-04-12T07:06:18Z</time></trkpt><trkpt lat="43.032970419978064" lon="12.11399736781665"><ele>370.5</ele><time>2026-04-12T07:06:19Z</time></trkpt><trkpt lat="43.03290571703015" lon="12.11384650332877"><ele>371.25</ele><time>2026-04-12T07:06:20Z</time></trkpt><trkpt lat="43.03285245622087" lon="12.113687135948178"><ele>372.0</ele><time>2026-04-12T07:06:21Z</time></trkpt><trkpt lat="43.032799999714975" lon="12.113548456713755"><ele>372.0</ele><time>2026-04-12T07:06:22Z</time></trkpt><trkpt lat="43.03275558538212" lon="12.113432602592338"><ele>372.0</ele><time>2026-04-12T07:06:23Z</time></trkpt><trkpt lat="43.03270272567985" lon="12.113306538112791"><ele>372.0</ele><time>2026-04-12T07:06:24Z</time></trkpt><trkpt lat="43.032657606864866" lon="12.11318378993522"><ele>372.0</ele><time>2026-04-12T07:06:25Z</time></trkpt><trkpt lat="43.03260362712493" lon="12.113064263377687"><ele>372.0</ele><time>2026-04-12T07:06:26Z</time></trkpt><trkpt lat="43.03254273818219" lon="12.112935379933315"><ele>371.40000000000003</ele><time>2026-04-12T07:06:27Z</time></trkpt><trkpt lat="43.0324986880643" lon="12.112789790406485"><ele>370.8</ele><time>2026-04-12T07:06:28Z</time></trkpt><trkpt lat="43.03246325903764" lon="12.112645690110895"><ele>370.2</ele><time>2026-04-12T07:06:29Z</time></trkpt><trkpt lat="43.03242180869789" lon="12.112507532771039"><ele>369.6</ele><time>2026-04-12T07:06:30Z</time></trkpt><trkpt lat="43.032378021902566" lon="12.112366210614518"><ele>369.0</ele><time>2026-04-12T07:06:31Z</time></trkpt><trkpt lat="43.03232518018869" lon="12.112231296842948"><ele>370.79999999999995</ele><time>2026-04-12T07:06:32Z</time></trkpt><trkpt lat="43.0322630951588" lon="12.112106065635974"><ele>372.59999999999997</ele><time>2026-04-12T07:06:33Z</time></trkpt><trkpt lat="43.03221357472899" lon="12.111964998952114"><ele>374.4</ele><time>2026-04-12T07:06:34Z</time></trkpt><trkpt lat="43.03215161755174" lon="12.111834133448651"><ele>376.2</ele><time>2026-04-12T07:06:35Z</time></trkpt><trkpt lat="43.03209587188557" lon="12.111705528774797"><ele>378.0</ele><time>2026-04-12T07:06:36Z</time></trkpt><trkpt lat="43.032035851504034" lon="12.11158268100118"><ele>379.59999999999997</ele><time>2026-04-12T07:06:37Z</time></trkpt><trkpt lat="43.03200830598648" lon="12.111437719859923"><ele>381.2</ele><time>2026-04-12T07:06:38Z</time></trkpt><trkpt lat="43.03197585098904" lon="12.111305734163087"><ele>382.8</ele><time>2026-04-12T07:06:39Z</time></trkpt><trkpt lat="43.03191784713455" lon="12.111188638619616"><ele>384.4</ele><time>2026-04-12T07:06:40Z</time></trkpt><trkpt lat="43.03185708446008" lon="12.11106918427383"><ele>386.0</ele><time>2026-04-12T07:06:41Z</time></trkpt><trkpt lat="43.0317926518807" lon="12.110970861888747"><ele>385.99999999999994</ele><time>2026-04-12T07:06:42Z</time></trkpt><trkpt lat="43.031729207929764" lon="12.110876994022245"><ele>386.0</ele><time>2026-04-12T07:06:43Z</time></trkpt><trkpt lat="43.03170496060015" lon="12.110766010678455"><ele>386.0</ele><time>2026-04-12T07:06:44Z</time></trkpt><trkpt lat="43.03169130036316" lon="12.11066100106218"><ele>386.0</ele><time>2026-04-12T07:06:45Z</time></trkpt><trkpt lat="43.031699413520954" lon="12.11057114810561"><ele>385.99999999999994</ele><time>2026-04-12T07:06:46Z</time></trkpt><trkpt lat="43.031722872847084" lon="12.110470521720075"><ele>386.0</ele><time>2026-04-12T07:06:47Z</time></trkpt><trkpt lat="43.03174879775699" lon="12.1103657108573"><ele>386.16666666666663</ele><time>2026-04-12T07:06:48Z</time></trkpt><trkpt lat="43.031758812897735" lon="12.110261375191763"><ele>386.3333333333333</ele><time>2026-04-12T07:06:49Z</time></trkpt><trkpt lat="43.031747363200026" lon="12.110153327862662"><ele>386.5</ele><time>2026-04-12T07:06:50Z</time></trkpt><trkpt lat="43.03172704637403" lon="12.110051145431301"><ele>386.66666666666663</ele><time>2026-04-12T07:06:51Z</time></trkpt><trkpt lat="43.03169138125363" lon="12.109949104287866"><ele>386.8333333333333</ele><time>2026-04-12T07:06:52Z</time></trkpt><trkpt lat="43.03164898947849" lon="12.109838529715757"><ele>387.0</ele><time>2026-04-12T07:06:53Z</time></trkpt><trkpt lat="43.03159959570923" lon="12.10973055238224"><ele>383.40000000000003</ele><time>2026-04-12T07:06:54Z</time></trkpt><trkpt lat="43.03154240602291" lon="12.109628899184457"><ele>379.8</ele><time>2026-04-12T07:06:55Z</time></trkpt><trkpt lat="43.031480940651605" lon="12.109537049072696"><ele>376.2</ele><time>2026-04-12T07:06:56Z</time></trkpt><trkpt lat="43.03141460650012" lon="12.109442261757934"><ele>372.6</ele><time>2026-04-12T07:06:57Z</time></trkpt><trkpt lat="43.031348659245396" lon="12.109348837265962"><ele>369.0</ele><time>2026-04-12T07:06:58Z</time></trkpt><trkpt lat="43.031284076071564" lon="12.10924691665567"><ele>369.0</ele><time>2026-04-12T07:06:59Z</time></trkpt><trkpt lat="43.031219887544864" lon="12.109152034138125"><ele>369.0</ele><time>2026-04-12T07:07:00Z</time></trkpt><trkpt lat="43.03114943622527" lon="12.109066064914753"><ele>369.0</ele><time>2026-04-12T07:07:01Z</time></trkpt><trkpt lat="43.03107234989729" lon="12.108989251513506"><ele>369.0</ele><time>2026-04-12T07:07:02Z</time></trkpt><trkpt lat="43.030993028411935" lon="12.108919797627426"><ele>369.0</ele><time>2026-04-12T07:07:03Z</time></trkpt><trkpt lat="43.03090679108594" lon="12.108867133120883"><ele>368.3333333333333</ele><time>2026-04-12T07:07:04Z</time></trkpt><trkpt lat="43.03082466193924" lon="12.1088117362107"><ele>367.6666666666667</ele><time>2026-04-12T07:07:05Z</time></trkpt><trkpt lat="43.03075095802056" lon="12.10873854184228"><ele>367.0</ele><time>2026-04-12T07:07:06Z</time></trkpt><trkpt lat="43.03069223024757" lon="12.10865312152212"><ele>366.33333333333337</ele><time>2026-04-12T07:07:07Z</time></trkpt><trkpt lat="43.03064066285032" lon="12.10857059359044"><ele>365.6666666666667</ele><time>2026-04-12T07:07:08Z</time></trkpt><trkpt lat="43.03059641848905" lon="12.108491867399161"><ele>365.0</ele><time>2026-04-12T07:07:09Z</time></trkpt><trkpt lat="43.03055094585791" lon="12.108412736537542"><ele>364.1666666666667</ele><time>2026-04-12T07:07:10Z</time></trkpt><trkpt lat="43.03050607189993" lon="12.10834287985928"><ele>363.33333333333337</ele><time>2026-04-12T07:07:11Z</time></trkpt><trkpt lat="43.030460003672346" lon="12.10827288280952"><ele>362.5</ele><time>2026-04-12T07:07:12Z</time></trkpt><trkpt lat="43.03041195000786" lon="12.108202689640443"><ele>361.6666666666667</ele><time>2026-04-12T07:07:13Z</time></trkpt><trkpt lat="43.03036187029438" lon="12.108128731613936"><ele>360.8333333333333</ele><time>2026-04-12T07:07:14Z</time></trkpt><trkpt lat="43.030309947094544" lon="12.108063939993349"><ele>360.0</ele><time>2026-04-12T07:07:15Z</time></trkpt><trkpt lat="43.03020451023425" lon="12.10796515084554"><ele>359.3333333333333</ele><time>2026-04-12T07:07:17Z</time></trkpt><trkpt lat="43.030143279641216" lon="12.107934680113386"><ele>358.6666666666667</ele><time>2026-04-12T07:07:18Z</time></trkpt><trkpt lat="43.03003682665366" lon="12.10789887918851"><ele>358.0</ele><time>2026-04-12T07:07:20Z</time></trkpt><trkpt lat="43.029973869997164" lon="12.107859387809718"><ele>357.33333333333337</ele><time>2026-04-12T07:07:22Z</time></trkpt><trkpt lat="43.029945467975196" lon="12.107766785694347"><ele>356.6666666666667</ele><time>2026-04-12T07:07:26Z</time></trkpt><trkpt lat="43.02988210610343" lon="12.107758697732452"><ele>356.0</ele><time>2026-04-12T07:07:29Z</time></trkpt><trkpt lat="43.02975642256487" lon="12.107731339683944"><ele>353.0</ele><time>2026-04-12T07:07:31Z</time></trkpt><trkpt lat="43.02986120150427" lon="12.10785105433376"><ele>353.0</ele><time>2026-04-12T07:07:38Z</time></trkpt><trkpt lat="43.02979980688856" lon="12.107892248671677"><ele>353.0</ele><time>2026-04-12T07:09:49Z</time></trkpt></trkseg><trkseg><trkpt lat="43.040971192727525" lon="12.09069147953034"><ele>281.0</ele><time>2026-04-12T07:37:39Z</time></trkpt><trkpt lat="43.040908374659864" lon="12.09071649915031"><ele>281.0</ele><time>2026-04-12T07:41:53Z</time></trkpt><trkpt lat="43.040845813311606" lon="12.09064614190898"><ele>281.0</ele><time>2026-04-12T07:42:02Z</time></trkpt><trkpt lat="43.0408170016004" lon="12.090541818178309"><ele>281.0</ele><time>2026-04-12T07:43:54Z</time></trkpt><trkpt lat="43.040757235989744" lon="12.090494631910696"><ele>281.0</ele><time>2026-04-12T07:43:56Z</time></trkpt><trkpt lat="43.04069551069074" lon="12.090528251920837"><ele>281.0</ele><time>2026-04-12T07:43:58Z</time></trkpt><trkpt lat="43.04060060171887" lon="12.090586024682052"><ele>280.8</ele><time>2026-04-12T07:44:00Z</time></trkpt><trkpt lat="43.04049411382021" lon="12.090639859790224"><ele>280.6</ele><time>2026-04-12T07:44:02Z</time></trkpt><trkpt lat="43.040426727220364" lon="12.090670563470436"><ele>280.4</ele><time>2026-04-12T07:44:03Z</time></trkpt><trkpt lat="43.0403069712888" lon="12.090731115218414"><ele>280.2</ele><time>2026-04-12T07:44:05Z</time></trkpt><trkpt lat="43.040241219632975" lon="12.090771492737614"><ele>280.0</ele><time>2026-04-12T07:44:06Z</time></trkpt><trkpt lat="43.040161026106354" lon="12.090813388095249"><ele>280.0</ele><time>2026-04-12T07:44:07Z</time></trkpt><trkpt lat="43.0400840947325" lon="12.090846675012397"><ele>280.0</ele><time>2026-04-12T07:44:08Z</time></trkpt><trkpt lat="43.0400070241148" lon="12.09088138778709"><ele>280.0</ele><time>2026-04-12T07:44:09Z</time></trkpt><trkpt lat="43.03993005743942" lon="12.090919289576107"><ele>280.0</ele><time>2026-04-12T07:44:10Z</time></trkpt><trkpt lat="43.03984750250004" lon="12.090955472558953"><ele>280.0</ele><time>2026-04-12T07:44:11Z</time></trkpt><trkpt lat="43.039768168565864" lon="12.090992185483351"><ele>280.0</ele><time>2026-04-12T07:44:12Z</time></trkpt><trkpt lat="43.0396872298172" lon="12.091031385698415"><ele>280.4</ele><time>2026-04-12T07:44:13Z</time></trkpt><trkpt lat="43.03960371360884" lon="12.091078836519733"><ele>280.8</ele><time>2026-04-12T07:44:14Z</time></trkpt><trkpt lat="43.039508134798055" lon="12.091125809256804"><ele>281.2</ele><time>2026-04-12T07:44:15Z</time></trkpt><trkpt lat="43.03940063295773" lon="12.091173595650186"><ele>281.6</ele><time>2026-04-12T07:44:16Z</time></trkpt><trkpt lat="43.03927798786568" lon="12.091211462975165"><ele>282.0</ele><time>2026-04-12T07:44:17Z</time></trkpt><trkpt lat="43.039162398806305" lon="12.091229913143753"><ele>282.0</ele><time>2026-04-12T07:44:18Z</time></trkpt><trkpt lat="43.03905233368621" lon="12.091229973664857"><ele>282.0</ele><time>2026-04-12T07:44:19Z</time></trkpt><trkpt lat="43.0389431563993" lon="12.091223779864004"><ele>282.0</ele><time>2026-04-12T07:44:20Z</time></trkpt><trkpt lat="43.03883588100299" lon="12.091222069468866"><ele>282.0</ele><time>2026-04-12T07:44:21Z</time></trkpt><trkpt lat="43.03872437254023" lon="12.091221263477578"><ele>282.0</ele><time>2026-04-12T07:44:22Z</time></trkpt><trkpt lat="43.038618631254764" lon="12.091214594383011"><ele>282.0</ele><time>2026-04-12T07:44:23Z</time></trkpt><trkpt lat="43.03851292805754" lon="12.091217053089636"><ele>282.0</ele><time>2026-04-12T07:44:24Z</time></trkpt><trkpt lat="43.038406347114545" lon="12.091214663432902"><ele>282.0</ele><time>2026-04-12T07:44:25Z</time></trkpt><trkpt lat="43.03830073543355" lon="12.091210375419841"><ele>282.0</ele><time>2026-04-12T07:44:26Z</time></trkpt><trkpt lat="43.03818303366328" lon="12.091209216829993"><ele>282.0</ele><time>2026-04-12T07:44:27Z</time></trkpt><trkpt lat="43.038059517909076" lon="12.09121143356837"><ele>282.0</ele><time>2026-04-12T07:44:28Z</time></trkpt><trkpt lat="43.03793694078735" lon="12.091209623506785"><ele>282.0</ele><time>2026-04-12T07:44:29Z</time></trkpt><trkpt lat="43.03781611310513" lon="12.09120620883965"><ele>282.0</ele><time>2026-04-12T07:44:30Z</time></trkpt><trkpt lat="43.037698308782375" lon="12.091201736774813"><ele>282.0</ele><time>2026-04-12T07:44:31Z</time></trkpt><trkpt lat="43.03758666991356" lon="12.091205662076954"><ele>282.0</ele><time>2026-04-12T07:44:32Z</time></trkpt><trkpt lat="43.037470209760585" lon="12.091215707008166"><ele>282.0</ele><time>2026-04-12T07:44:33Z</time></trkpt><trkpt lat="43.037351604484314" lon="12.091234544927222"><ele>282.0</ele><time>2026-04-12T07:44:34Z</time></trkpt><trkpt lat="43.03723386296512" lon="12.091269461629414"><ele>282.0</ele><time>2026-04-12T07:44:35Z</time></trkpt><trkpt lat="43.03711196789273" lon="12.091323213334743"><ele>282.5</ele><time>2026-04-12T07:44:36Z</time></trkpt><trkpt lat="43.036996442332324" lon="12.091400113511362"><ele>283.0</ele><time>2026-04-12T07:44:37Z</time></trkpt><trkpt lat="43.03688299418301" lon="12.091514372797832"><ele>283.5</ele><time>2026-04-12T07:44:38Z</time></trkpt><trkpt lat="43.03678188254591" lon="12.091667324315287"><ele>284.0</ele><time>2026-04-12T07:44:39Z</time></trkpt><trkpt lat="43.036702054017965" lon="12.091836975988189"><ele>284.0</ele><time>2026-04-12T07:44:40Z</time></trkpt><trkpt lat="43.036622869997075" lon="12.09200001817442"><ele>284.0</ele><time>2026-04-12T07:44:41Z</time></trkpt><trkpt lat="43.03656091723576" lon="12.092149730458544"><ele>284.0</ele><time>2026-04-12T07:44:42Z</time></trkpt><trkpt lat="43.03650418421915" lon="12.09228789039145"><ele>284.0</ele><time>2026-04-12T07:44:43Z</time></trkpt><trkpt lat="43.03645209368975" lon="12.092415806456282"><ele>285.0</ele><time>2026-04-12T07:44:44Z</time></trkpt><trkpt lat="43.03639710698037" lon="12.092547986644634"><ele>286.0</ele><time>2026-04-12T07:44:45Z</time></trkpt><trkpt lat="43.03633688841157" lon="12.092682160570787"><ele>287.0</ele><time>2026-04-12T07:44:46Z</time></trkpt><trkpt lat="43.03627083137901" lon="12.092827517586427"><ele>288.0</ele><time>2026-04-12T07:44:47Z</time></trkpt><trkpt lat="43.03621298863054" lon="12.092976692337329"><ele>288.0</ele><time>2026-04-12T07:44:48Z</time></trkpt><trkpt lat="43.03615428847933" lon="12.093128146887018"><ele>288.0</ele><time>2026-04-12T07:44:49Z</time></trkpt><trkpt lat="43.03609476302526" lon="12.093273883471417"><ele>288.0</ele><time>2026-04-12T07:44:50Z</time></trkpt><trkpt lat="43.03602157913213" lon="12.093422202626854"><ele>288.0</ele><time>2026-04-12T07:44:51Z</time></trkpt><trkpt lat="43.0359572155987" lon="12.09357563007735"><ele>289.0</ele><time>2026-04-12T07:44:52Z</time></trkpt><trkpt lat="43.0358989157551" lon="12.093719478524953"><ele>290.0</ele><time>2026-04-12T07:44:53Z</time></trkpt><trkpt lat="43.03583542699325" lon="12.093864172974035"><ele>291.0</ele><time>2026-04-12T07:44:54Z</time></trkpt><trkpt lat="43.035776358999016" lon="12.094008337149855"><ele>292.0</ele><time>2026-04-12T07:44:55Z</time></trkpt><trkpt lat="43.03572262087458" lon="12.094148348154498"><ele>292.5</ele><time>2026-04-12T07:44:56Z</time></trkpt><trkpt lat="43.03565440965225" lon="12.094287881198113"><ele>293.0</ele><time>2026-04-12T07:44:57Z</time></trkpt><trkpt lat="43.035602395144146" lon="12.09442332913424"><ele>293.5</ele><time>2026-04-12T07:44:58Z</time></trkpt><trkpt lat="43.035546861609085" lon="12.09456524899073"><ele>294.0</ele><time>2026-04-12T07:44:59Z</time></trkpt><trkpt lat="43.03550759817379" lon="12.094710992537438"><ele>294.0</ele><time>2026-04-12T07:45:00Z</time></trkpt><trkpt lat="43.03547221636577" lon="12.09485322731609"><ele>294.0</ele><time>2026-04-12T07:45:01Z</time></trkpt><trkpt lat="43.03543920037795" lon="12.095001312064108"><ele>294.0</ele><time>2026-04-12T07:45:02Z</time></trkpt><trkpt lat="43.03540619483052" lon="12.095148864725724"><ele>294.0</ele><time>2026-04-12T07:45:03Z</time></trkpt><trkpt lat="43.03537964841619" lon="12.095285217093663"><ele>294.0</ele><time>2026-04-12T07:45:04Z</time></trkpt><trkpt lat="43.03535912045933" lon="12.095408656832992"><ele>294.5</ele><time>2026-04-12T07:45:05Z</time></trkpt><trkpt lat="43.035341060930584" lon="12.095514449963463"><ele>295.0</ele><time>2026-04-12T07:45:06Z</time></trkpt><trkpt lat="43.035338942774445" lon="12.095628183480933"><ele>295.5</ele><time>2026-04-12T07:45:07Z</time></trkpt><trkpt lat="43.03531962849387" lon="12.095738147341585"><ele>296.0</ele><time>2026-04-12T07:45:08Z</time></trkpt><trkpt lat="43.03530381484946" lon="12.095832174197588"><ele>296.5</ele><time>2026-04-12T07:45:09Z</time></trkpt><trkpt lat="43.03528515319589" lon="12.095978029131558"><ele>297.0</ele><time>2026-04-12T07:45:11Z</time></trkpt><trkpt lat="43.0352564431123" lon="12.096073044348747"><ele>297.6</ele><time>2026-04-12T07:45:14Z</time></trkpt><trkpt lat="43.035221245486305" lon="12.095994739304915"><ele>298.2</ele><time>2026-04-12T07:45:28Z</time></trkpt><trkpt lat="43.03511103789124" lon="12.096049573688951"><ele>298.8</ele><time>2026-04-12T07:45:30Z</time></trkpt><trkpt lat="43.03512962448043" lon="12.095828977219554"><ele>299.4</ele><time>2026-04-12T07:45:31Z</time></trkpt><trkpt lat="43.03508771037438" lon="12.09576023886912"><ele>300.0</ele><time>2026-04-12T07:53:07Z</time></trkpt><trkpt lat="43.03511395117287" lon="12.09586486683615"><ele>300.0</ele><time>2026-04-12T07:53:13Z</time></trkpt><trkpt lat="43.03515053366962" lon="12.095970133745771"><ele>300.0</ele><time>2026-04-12T07:53:15Z</time></trkpt><trkpt lat="43.035176133067345" lon="12.096052779466847"><ele>300.0</ele><time>2026-04-12T07:53:17Z</time></trkpt><trkpt lat="43.03509466492964" lon="12.096139990454851"><ele>300.0</ele><time>2026-04-12T07:53:21Z</time></trkpt><trkpt lat="43.03498486689453" lon="12.09619224896493"><ele>300.0</ele><time>2026-04-12T07:53:23Z</time></trkpt><trkpt lat="43.0348652929049" lon="12.096255237011182"><ele>300.8333333333333</ele><time>2026-04-12T07:53:25Z</time></trkpt><trkpt lat="43.03480415952698" lon="12.096285718573615"><ele>301.6666666666667</ele><time>2026-04-12T07:53:26Z</time></trkpt><trkpt lat="43.0346805716511" lon="12.096304192801526"><ele>302.5</ele><time>2026-04-12T07:53:28Z</time></trkpt><trkpt lat="43.03462084545753" lon="12.096335048030301"><ele>303.33333333333337</ele><time>2026-04-12T07:53:29Z</time></trkpt><trkpt lat="43.03452412354227" lon="12.096383726579806"><ele>304.1666666666667</ele><time>2026-04-12T07:53:31Z</time></trkpt><trkpt lat="43.03444550120957" lon="12.096416000035383"><ele>305.0</ele><time>2026-04-12T07:53:34Z</time></trkpt><trkpt lat="43.03434757516714" lon="12.09644231943794"><ele>305.0</ele><time>2026-04-12T07:53:36Z</time></trkpt><trkpt lat="43.03422838343607" lon="12.096463247005557"><ele>305.0</ele><time>2026-04-12T07:53:38Z</time></trkpt><trkpt lat="43.03411532792324" lon="12.096467667163028"><ele>305.0</ele><time>2026-04-12T07:53:40Z</time></trkpt><trkpt lat="43.0340201027847" lon="12.096458647809694"><ele>305.0</ele><time>2026-04-12T07:53:42Z</time></trkpt><trkpt lat="43.03392083455882" lon="12.096442103105856"><ele>305.0</ele><time>2026-04-12T07:53:44Z</time></trkpt><trkpt lat="43.033814149855424" lon="12.096539941729064"><ele>307.0</ele><time>2026-04-12T07:53:46Z</time></trkpt><trkpt lat="43.033835173966445" lon="12.096651737390005"><ele>309.0</ele><time>2026-04-12T07:53:47Z</time></trkpt><trkpt lat="43.033830352397" lon="12.096796935798094"><ele>311.0</ele><time>2026-04-12T07:53:49Z</time></trkpt><trkpt lat="43.0337523849366" lon="12.096865333010145"><ele>313.0</ele><time>2026-04-12T07:53:51Z</time></trkpt><trkpt lat="43.03368530563833" lon="12.09687749625551"><ele>315.0</ele><time>2026-04-12T07:53:52Z</time></trkpt><trkpt lat="43.033569405806446" lon="12.096924117720087"><ele>315.0</ele><time>2026-04-12T07:53:54Z</time></trkpt><trkpt lat="43.03346326967864" lon="12.096967416565777"><ele>315.0</ele><time>2026-04-12T07:53:56Z</time></trkpt><trkpt lat="43.03338606540662" lon="12.096992614032507"><ele>315.0</ele><time>2026-04-12T07:53:58Z</time></trkpt><trkpt lat="43.03330523352788" lon="12.09700740379745"><ele>315.0</ele><time>2026-04-12T07:54:00Z</time></trkpt><trkpt lat="43.0333101526876" lon="12.097200624552576"><ele>315.0</ele><time>2026-04-12T07:54:01Z</time></trkpt><trkpt lat="43.033336855821666" lon="12.097355069714698"><ele>315.1666666666667</ele><time>2026-04-12T07:54:03Z</time></trkpt><trkpt lat="43.03335174792801" lon="12.097441202441292"><ele>315.3333333333333</ele><time>2026-04-12T07:54:04Z</time></trkpt><trkpt lat="43.033366426725046" lon="12.097526101429693"><ele>315.5</ele><time>2026-04-12T07:54:05Z</time></trkpt><trkpt lat="43.03338228718579" lon="12.097617834907497"><ele>315.66666666666663</ele><time>2026-04-12T07:54:06Z</time></trkpt><trkpt lat="43.033410916394054" lon="12.09778342005954"><ele>315.8333333333333</ele><time>2026-04-12T07:54:08Z</time></trkpt><trkpt lat="43.03343456660769" lon="12.097920207791265"><ele>316.0</ele><time>2026-04-12T07:54:10Z</time></trkpt><trkpt lat="43.033433018010626" lon="12.098011757640593"><ele>316.0</ele><time>2026-04-12T07:54:12Z</time></trkpt><trkpt lat="43.03332936130394" lon="12.09801520657518"><ele>316.0</ele><time>2026-04-12T07:54:14Z</time></trkpt><trkpt lat="43.03326789860825" lon="12.098045044664332"><ele>316.0</ele><time>2026-04-12T07:54:15Z</time></trkpt><trkpt lat="43.03318634788428" lon="12.098082110338442"><ele>316.0</ele><time>2026-04-12T07:54:16Z</time></trkpt><trkpt lat="43.033095780757584" lon="12.098122960313498"><ele>316.0</ele><time>2026-04-12T07:54:17Z</time></trkpt><trkpt lat="43.03299787560824" lon="12.098167386413529"><ele>319.0</ele><time>2026-04-12T07:54:18Z</time></trkpt><trkpt lat="43.03289560395621" lon="12.098212174114504"><ele>322.0</ele><time>2026-04-12T07:54:19Z</time></trkpt><trkpt lat="43.03278838284242" lon="12.09820453602668"><ele>325.0</ele><time>2026-04-12T07:54:20Z</time></trkpt><trkpt lat="43.032702777179566" lon="12.098204859938642"><ele>328.0</ele><time>2026-04-12T07:54:21Z</time></trkpt><trkpt lat="43.0326007155858" lon="12.098217764914367"><ele>331.0</ele><time>2026-04-12T07:54:22Z</time></trkpt><trkpt lat="43.032505157142026" lon="12.098211237848124"><ele>334.0</ele><time>2026-04-12T07:54:23Z</time></trkpt><trkpt lat="43.032412064335816" lon="12.098213140454165"><ele>337.0</ele><time>2026-04-12T07:54:24Z</time></trkpt><trkpt lat="43.03232418915056" lon="12.098221960399439"><ele>340.0</ele><time>2026-04-12T07:54:25Z</time></trkpt><trkpt lat="43.03223444172744" lon="12.098224412274815"><ele>343.0</ele><time>2026-04-12T07:54:26Z</time></trkpt><trkpt lat="43.03214171379632" lon="12.098237104108177"><ele>346.0</ele><time>2026-04-12T07:54:27Z</time></trkpt><trkpt lat="43.03206738291902" lon="12.098256525248864"><ele>349.0</ele><time>2026-04-12T07:54:28Z</time></trkpt><trkpt lat="43.03200436992988" lon="12.098256825884201"><ele>349.0</ele><time>2026-04-12T07:54:29Z</time></trkpt><trkpt lat="43.03195112467212" lon="12.098135793971021"><ele>349.0</ele><time>2026-04-12T07:54:31Z</time></trkpt><trkpt lat="43.03190292088507" lon="12.098065487785561"><ele>349.0</ele><time>2026-04-12T07:54:32Z</time></trkpt><trkpt lat="43.03185738901004" lon="12.097997857044659"><ele>349.0</ele><time>2026-04-12T07:54:33Z</time></trkpt><trkpt lat="43.03181805443196" lon="12.097919711770299"><ele>349.0</ele><time>2026-04-12T07:54:34Z</time></trkpt><trkpt lat="43.03177674689854" lon="12.097850106688407"><ele>349.0</ele><time>2026-04-12T07:54:35Z</time></trkpt><trkpt lat="43.031645873909625" lon="12.09783216054844"><ele>352.2</ele><time>2026-04-12T07:54:37Z</time></trkpt><trkpt lat="43.03156263554834" lon="12.097890419190573"><ele>355.4</ele><time>2026-04-12T07:54:38Z</time></trkpt><trkpt lat="43.03148048735502" lon="12.09792883996537"><ele>358.6</ele><time>2026-04-12T07:54:39Z</time></trkpt><trkpt lat="43.03139268074913" lon="12.097944288849774"><ele>361.8</ele><time>2026-04-12T07:54:40Z</time></trkpt><trkpt lat="43.03129707955855" lon="12.0979453451669"><ele>365.0</ele><time>2026-04-12T07:54:41Z</time></trkpt><trkpt lat="43.031192147837395" lon="12.098013355721498"><ele>365.0</ele><time>2026-04-12T07:54:42Z</time></trkpt><trkpt lat="43.03108434511797" lon="12.09800913407115"><ele>365.0</ele><time>2026-04-12T07:54:43Z</time></trkpt><trkpt lat="43.03097611177623" lon="12.098022169355275"><ele>365.0</ele><time>2026-04-12T07:54:44Z</time></trkpt><trkpt lat="43.03086883750332" lon="12.098014086827982"><ele>365.0</ele><time>2026-04-12T07:54:45Z</time></trkpt><trkpt lat="43.03074990327758" lon="12.097990965877516"><ele>365.0</ele><time>2026-04-12T07:54:46Z</time></trkpt><trkpt lat="43.03064381531547" lon="12.097954827446511"><ele>371.0</ele><time>2026-04-12T07:54:47Z</time></trkpt><trkpt lat="43.03053486082375" lon="12.097920542728556"><ele>377.0</ele><time>2026-04-12T07:54:48Z</time></trkpt><trkpt lat="43.03042755813577" lon="12.097880487826359"><ele>383.0</ele><time>2026-04-12T07:54:49Z</time></trkpt><trkpt lat="43.03031867297051" lon="12.09779925867383"><ele>389.0</ele><time>2026-04-12T07:54:50Z</time></trkpt><trkpt lat="43.030217044153545" lon="12.097718889138456"><ele>389.0</ele><time>2026-04-12T07:54:51Z</time></trkpt><trkpt lat="43.03011585944388" lon="12.097651156001259"><ele>389.0</ele><time>2026-04-12T07:54:52Z</time></trkpt><trkpt lat="43.03001073101798" lon="12.097587985300043"><ele>389.0</ele><time>2026-04-12T07:54:53Z</time></trkpt><trkpt lat="43.0299013963058" lon="12.097561110061674"><ele>389.0</ele><time>2026-04-12T07:54:54Z</time></trkpt><trkpt lat="43.02978602693022" lon="12.097547853392495"><ele>395.6</ele><time>2026-04-12T07:54:55Z</time></trkpt><trkpt lat="43.02968271436721" lon="12.097536370294485"><ele>402.2</ele><time>2026-04-12T07:54:56Z</time></trkpt><trkpt lat="43.0295720602875" lon="12.09751483927887"><ele>408.8</ele><time>2026-04-12T07:54:57Z</time></trkpt><trkpt lat="43.02947229952223" lon="12.097474445046126"><ele>415.40000000000003</ele><time>2026-04-12T07:54:58Z</time></trkpt><trkpt lat="43.02938295658357" lon="12.097426794607438"><ele>422.0</ele><time>2026-04-12T07:54:59Z</time></trkpt><trkpt lat="43.02929674093778" lon="12.097372076387153"><ele>422.3333333333333</ele><time>2026-04-12T07:55:00Z</time></trkpt><trkpt lat="43.02924166787277" lon="12.0973159324657"><ele>422.66666666666663</ele><time>2026-04-12T07:55:01Z</time></trkpt><trkpt lat="43.02921223014038" lon="12.097196424218561"><ele>423.0</ele><time>2026-04-12T07:55:03Z</time></trkpt><trkpt lat="43.029262711719305" lon="12.09706063497734"><ele>423.33333333333337</ele><time>2026-04-12T07:55:05Z</time></trkpt><trkpt lat="43.029298131239955" lon="12.096967263018787"><ele>423.6666666666667</ele><time>2026-04-12T07:55:06Z</time></trkpt><trkpt lat="43.02929968561296" lon="12.096859170342482"><ele>424.0</ele><time>2026-04-12T07:55:08Z</time></trkpt><trkpt lat="43.02922110213345" lon="12.096874312684125"><ele>424.00000000000006</ele><time>2026-04-12T07:55:12Z</time></trkpt><trkpt lat="43.029195332657174" lon="12.096953220827732"><ele>424.0</ele><time>2026-04-12T07:55:13Z</time></trkpt><trkpt lat="43.02908127750552" lon="12.097071084130548"><ele>424.0</ele><time>2026-04-12T07:55:15Z</time></trkpt><trkpt lat="43.029018571635724" lon="12.097105588065002"><ele>424.0</ele><time>2026-04-12T07:55:16Z</time></trkpt><trkpt lat="43.028930633633834" lon="12.097113773841787"><ele>424.00000000000006</ele><time>2026-04-12T07:55:18Z</time></trkpt><trkpt lat="43.02889047246527" lon="12.097193877478915"><ele>424.0</ele><time>2026-04-12T07:55:20Z</time></trkpt><trkpt lat="43.02883133145441" lon="12.097271215926677"><ele>426.6</ele><time>2026-04-12T07:55:22Z</time></trkpt><trkpt lat="43.0287607297478" lon="12.097341847899697"><ele>429.2</ele><time>2026-04-12T07:55:24Z</time></trkpt><trkpt lat="43.02866949956328" lon="12.097411103374492"><ele>431.80000000000007</ele><time>2026-04-12T07:55:26Z</time></trkpt><trkpt lat="43.02857734956845" lon="12.097377866568731"><ele>434.40000000000003</ele><time>2026-04-12T07:55:28Z</time></trkpt><trkpt lat="43.02848751870734" lon="12.09731681901496"><ele>437.0</ele><time>2026-04-12T07:55:30Z</time></trkpt><trkpt lat="43.02841653662653" lon="12.097276590265878"><ele>437.0</ele><time>2026-04-12T07:55:31Z</time></trkpt><trkpt lat="43.028379976195126" lon="12.097141583904877"><ele>437.00000000000006</ele><time>2026-04-12T07:55:33Z</time></trkpt><trkpt lat="43.02838359559123" lon="12.097038711205004"><ele>437.00000000000006</ele><time>2026-04-12T07:55:34Z</time></trkpt><trkpt lat="43.028347147578344" lon="12.096867762422887"><ele>437.0</ele><time>2026-04-12T07:55:36Z</time></trkpt><trkpt lat="43.02830422352883" lon="12.096785411277658"><ele>437.0</ele><time>2026-04-12T07:55:37Z</time></trkpt><trkpt lat="43.02836040064086" lon="12.096678439138218"><ele>436.99999999999994</ele><time>2026-04-12T07:55:39Z</time></trkpt><trkpt lat="43.02842348491583" lon="12.096655101565316"><ele>437.0</ele><time>2026-04-12T07:55:40Z</time></trkpt><trkpt lat="43.028507381792295" lon="12.096548929909655"><ele>437.0</ele><time>2026-04-12T07:55:42Z</time></trkpt><trkpt lat="43.028499064159426" lon="12.096393813538409"><ele>437.0</ele><time>2026-04-12T07:55:44Z</time></trkpt><trkpt lat="43.028443467788215" lon="12.096326783593423"><ele>436.99999999999994</ele><time>2026-04-12T07:55:45Z</time></trkpt><trkpt lat="43.02837526259331" lon="12.096277003938862"><ele>437.0</ele><time>2026-04-12T07:55:46Z</time></trkpt><trkpt lat="43.02830074515051" lon="12.09624164344081"><ele>441.8</ele><time>2026-04-12T07:55:47Z</time></trkpt><trkpt lat="43.028215440543846" lon="12.096177343618582"><ele>446.6</ele><time>2026-04-12T07:55:48Z</time></trkpt><trkpt lat="43.02814370366182" lon="12.09608411726967"><ele>451.40000000000003</ele><time>2026-04-12T07:55:49Z</time></trkpt><trkpt lat="43.02806130481422" lon="12.095997227764633"><ele>456.20000000000005</ele><time>2026-04-12T07:55:50Z</time></trkpt><trkpt lat="43.02795606919453" lon="12.095924996621415"><ele>461.0</ele><time>2026-04-12T07:55:51Z</time></trkpt><trkpt lat="43.02785907980422" lon="12.09581551602122"><ele>461.0</ele><time>2026-04-12T07:55:52Z</time></trkpt><trkpt lat="43.02772691725976" lon="12.095757704787326"><ele>461.0</ele><time>2026-04-12T07:55:53Z</time></trkpt><trkpt lat="43.02759909650084" lon="12.095713945428601"><ele>461.0</ele><time>2026-04-12T07:55:54Z</time></trkpt><trkpt lat="43.02746928748614" lon="12.095676157854493"><ele>461.0</ele><time>2026-04-12T07:55:55Z</time></trkpt><trkpt lat="43.027328183391425" lon="12.095665507548812"><ele>465.75</ele><time>2026-04-12T07:55:56Z</time></trkpt><trkpt lat="43.02720349191141" lon="12.095630825505006"><ele>470.5</ele><time>2026-04-12T07:55:57Z</time></trkpt><trkpt lat="43.02707498836585" lon="12.095590485979393"><ele>475.25</ele><time>2026-04-12T07:55:58Z</time></trkpt><trkpt lat="43.02697596687379" lon="12.095515749744536"><ele>480.0</ele><time>2026-04-12T07:55:59Z</time></trkpt><trkpt lat="43.02690583927333" lon="12.095393022277428"><ele>480.0</ele><time>2026-04-12T07:56:00Z</time></trkpt><trkpt lat="43.026842999080806" lon="12.095272298779706"><ele>480.0</ele><time>2026-04-12T07:56:01Z</time></trkpt><trkpt lat="43.0267826353747" lon="12.09513864686773"><ele>480.0</ele><time>2026-04-12T07:56:02Z</time></trkpt><trkpt lat="43.026720259805295" lon="12.094999604754271"><ele>480.0</ele><time>2026-04-12T07:56:03Z</time></trkpt><trkpt lat="43.02665019210259" lon="12.0948827260441"><ele>480.8</ele><time>2026-04-12T07:56:04Z</time></trkpt><trkpt lat="43.026603059384506" lon="12.094745792575065"><ele>481.6</ele><time>2026-04-12T07:56:05Z</time></trkpt><trkpt lat="43.026535114760065" lon="12.09463299366593"><ele>482.4</ele><time>2026-04-12T07:56:06Z</time></trkpt><trkpt lat="43.02646031436152" lon="12.094524880578918"><ele>483.2</ele><time>2026-04-12T07:56:07Z</time></trkpt><trkpt lat="43.02637893134123" lon="12.094418710821314"><ele>484.0</ele><time>2026-04-12T07:56:08Z</time></trkpt><trkpt lat="43.02628886330351" lon="12.094324498423884"><ele>484.0</ele><time>2026-04-12T07:56:09Z</time></trkpt><trkpt lat="43.02620823215643" lon="12.09424138886778"><ele>484.0</ele><time>2026-04-12T07:56:10Z</time></trkpt><trkpt lat="43.026134124023585" lon="12.094151118972896"><ele>484.0</ele><time>2026-04-12T07:56:11Z</time></trkpt><trkpt lat="43.026076785747726" lon="12.094044166352031"><ele>484.0</ele><time>2026-04-12T07:56:12Z</time></trkpt><trkpt lat="43.02602190389937" lon="12.093932591103492"><ele>484.0</ele><time>2026-04-12T07:56:13Z</time></trkpt><trkpt lat="43.02595648859209" lon="12.093808900187963"><ele>484.5</ele><time>2026-04-12T07:56:14Z</time></trkpt><trkpt lat="43.0258787521232" lon="12.093698279972537"><ele>485.0</ele><time>2026-04-12T07:56:15Z</time></trkpt><trkpt lat="43.0258104147633" lon="12.093575835840499"><ele>485.5</ele><time>2026-04-12T07:56:16Z</time></trkpt><trkpt lat="43.02572703505286" lon="12.093466445160317"><ele>486.0</ele><time>2026-04-12T07:56:17Z</time></trkpt><trkpt lat="43.02565349139104" lon="12.093337085813687"><ele>488.20000000000005</ele><time>2026-04-12T07:56:18Z</time></trkpt><trkpt lat="43.02557876259187" lon="12.093232207731283"><ele>490.40000000000003</ele><time>2026-04-12T07:56:19Z</time></trkpt><trkpt lat="43.02551342424905" lon="12.093136504167619"><ele>492.6</ele><time>2026-04-12T07:56:20Z</time></trkpt><trkpt lat="43.025452901288375" lon="12.093047853895808"><ele>494.8</ele><time>2026-04-12T07:56:21Z</time></trkpt><trkpt lat="43.02538256068183" lon="12.092971860940148"><ele>497.0</ele><time>2026-04-12T07:56:22Z</time></trkpt><trkpt lat="43.02532725057261" lon="12.092883996504543"><ele>496.99999999999994</ele><time>2026-04-12T07:56:23Z</time></trkpt><trkpt lat="43.02526466242261" lon="12.092802906505343"><ele>497.0</ele><time>2026-04-12T07:56:24Z</time></trkpt><trkpt lat="43.025214475297055" lon="12.092702859532617"><ele>497.0</ele><time>2026-04-12T07:56:25Z</time></trkpt><trkpt lat="43.025147318608774" lon="12.09261319942078"><ele>497.0</ele><time>2026-04-12T07:56:26Z</time></trkpt><trkpt lat="43.02508375177171" lon="12.092532175267968"><ele>496.99999999999994</ele><time>2026-04-12T07:56:27Z</time></trkpt><trkpt lat="43.02501811766962" lon="12.092477174547605"><ele>497.0</ele><time>2026-04-12T07:56:28Z</time></trkpt><trkpt lat="43.02496287713628" lon="12.09239591531158"><ele>497.7142857142857</ele><time>2026-04-12T07:56:29Z</time></trkpt><trkpt lat="43.02490456599074" lon="12.092323851570615"><ele>498.42857142857144</ele><time>2026-04-12T07:56:30Z</time></trkpt><trkpt lat="43.02484285607942" lon="12.092265629625"><ele>499.1428571428571</ele><time>2026-04-12T07:56:31Z</time></trkpt><trkpt lat="43.024781536866584" lon="12.092210769739825"><ele>499.85714285714283</ele><time>2026-04-12T07:56:32Z</time></trkpt><trkpt lat="43.02472500266784" lon="12.092161066505208"><ele>500.57142857142856</ele><time>2026-04-12T07:56:33Z</time></trkpt><trkpt lat="43.02467091559274" lon="12.09210353415694"><ele>501.2857142857142</ele><time>2026-04-12T07:56:34Z</time></trkpt><trkpt lat="43.024617578072075" lon="12.092053122730496"><ele>501.99999999999994</ele><time>2026-04-12T07:56:35Z</time></trkpt><trkpt lat="43.02455926962358" lon="12.091989736213273"><ele>502.00000000000006</ele><time>2026-04-12T07:56:36Z</time></trkpt><trkpt lat="43.02450020719139" lon="12.091926176435672"><ele>502.0</ele><time>2026-04-12T07:56:37Z</time></trkpt><trkpt lat="43.02443331240821" lon="12.09185013694167"><ele>502.0</ele><time>2026-04-12T07:56:38Z</time></trkpt><trkpt lat="43.02436939617663" lon="12.091779372749894"><ele>502.0</ele><time>2026-04-12T07:56:39Z</time></trkpt><trkpt lat="43.02430093288876" lon="12.0916990952817"><ele>502.00000000000006</ele><time>2026-04-12T07:56:40Z</time></trkpt><trkpt lat="43.024234451005775" lon="12.091602576380357"><ele>502.0</ele><time>2026-04-12T07:56:41Z</time></trkpt><trkpt lat="43.024164580981235" lon="12.091496855931842"><ele>503.0</ele><time>2026-04-12T07:56:42Z</time></trkpt><trkpt lat="43.024083014264505" lon="12.091401582461174"><ele>504.00000000000006</ele><time>2026-04-12T07:56:43Z</time></trkpt><trkpt lat="43.02399468800163" lon="12.091315982333619"><ele>505.00000000000006</ele><time>2026-04-12T07:56:44Z</time></trkpt><trkpt lat="43.0239076083147" lon="12.091220760460134"><ele>506.0</ele><time>2026-04-12T07:56:45Z</time></trkpt><trkpt lat="43.023823714520105" lon="12.091120674063058"><ele>507.0</ele><time>2026-04-12T07:56:46Z</time></trkpt><trkpt lat="43.023734234304236" lon="12.091048407403322"><ele>507.0</ele><time>2026-04-12T07:56:47Z</time></trkpt><trkpt lat="43.0236276978627" lon="12.090986099489104"><ele>507.0</ele><time>2026-04-12T07:56:48Z</time></trkpt><trkpt lat="43.023514506095374" lon="12.090941824135543"><ele>507.0</ele><time>2026-04-12T07:56:49Z</time></trkpt><trkpt lat="43.02340088882364" lon="12.090899827133105"><ele>507.0</ele><time>2026-04-12T07:56:50Z</time></trkpt><trkpt lat="43.02328021744634" lon="12.090848816799625"><ele>506.6</ele><time>2026-04-12T07:56:51Z</time></trkpt><trkpt lat="43.02317438400232" lon="12.09079891254427"><ele>506.20000000000005</ele><time>2026-04-12T07:56:52Z</time></trkpt><trkpt lat="43.02308533620699" lon="12.090712264376261"><ele>505.8</ele><time>2026-04-12T07:56:53Z</time></trkpt><trkpt lat="43.022987988928705" lon="12.090655327839865"><ele>505.4</ele><time>2026-04-12T07:56:54Z</time></trkpt><trkpt lat="43.02289531222982" lon="12.09059308610966"><ele>505.0</ele><time>2026-04-12T07:56:55Z</time></trkpt><trkpt lat="43.022817747060266" lon="12.090531698004312"><ele>508.5</ele><time>2026-04-12T07:56:56Z</time></trkpt><trkpt lat="43.02273890883032" lon="12.09045310149051"><ele>512.0</ele><time>2026-04-12T07:56:57Z</time></trkpt><trkpt lat="43.022646872040944" lon="12.090343878761274"><ele>515.5</ele><time>2026-04-12T07:56:58Z</time></trkpt><trkpt lat="43.022556673535725" lon="12.090234826493155"><ele>519.0</ele><time>2026-04-12T07:56:59Z</time></trkpt><trkpt lat="43.02246339705776" lon="12.090130395763003"><ele>521.0</ele><time>2026-04-12T07:57:00Z</time></trkpt><trkpt lat="43.022362533075665" lon="12.090028009394738"><ele>523.0</ele><time>2026-04-12T07:57:01Z</time></trkpt><trkpt lat="43.02224804520458" lon="12.089958849689507"><ele>525.0</ele><time>2026-04-12T07:57:02Z</time></trkpt><trkpt lat="43.02214070707394" lon="12.089873298601761"><ele>527.0</ele><time>2026-04-12T07:57:03Z</time></trkpt><trkpt lat="43.022035841324744" lon="12.08980347945501"><ele>530.25</ele><time>2026-04-12T07:57:04Z</time></trkpt><trkpt lat="43.02193901679494" lon="12.08971104933178"><ele>533.5</ele><time>2026-04-12T07:57:05Z</time></trkpt><trkpt lat="43.021823582850544" lon="12.089629935228679"><ele>536.75</ele><time>2026-04-12T07:57:06Z</time></trkpt><trkpt lat="43.02174603620167" lon="12.089494891089302"><ele>540.0</ele><time>2026-04-12T07:57:07Z</time></trkpt><trkpt lat="43.02167504023124" lon="12.089355120069234"><ele>540.5</ele><time>2026-04-12T07:57:08Z</time></trkpt><trkpt lat="43.02159055371814" lon="12.089212922057133"><ele>541.0</ele><time>2026-04-12T07:57:09Z</time></trkpt><trkpt lat="43.021492865838134" lon="12.089091248787613"><ele>541.5</ele><time>2026-04-12T07:57:10Z</time></trkpt><trkpt lat="43.02140669520944" lon="12.08896487040804"><ele>542.0</ele><time>2026-04-12T07:57:11Z</time></trkpt><trkpt lat="43.02130156733341" lon="12.088850355468127"><ele>547.0</ele><time>2026-04-12T07:57:12Z</time></trkpt><trkpt lat="43.02118716958542" lon="12.088748857767253"><ele>552.0</ele><time>2026-04-12T07:57:13Z</time></trkpt><trkpt lat="43.02107518040465" lon="12.088659729356285"><ele>557.0</ele><time>2026-04-12T07:57:14Z</time></trkpt><trkpt lat="43.020955173486755" lon="12.088597219909508"><ele>562.0</ele><time>2026-04-12T07:57:15Z</time></trkpt><trkpt lat="43.020855843626684" lon="12.08850586001339"><ele>563.25</ele><time>2026-04-12T07:57:16Z</time></trkpt><trkpt lat="43.02072589204241" lon="12.088487443143864"><ele>564.5</ele><time>2026-04-12T07:57:17Z</time></trkpt><trkpt lat="43.02060981988837" lon="12.088434146145374"><ele>565.75</ele><time>2026-04-12T07:57:18Z</time></trkpt><trkpt lat="43.02049536015808" lon="12.08838189198734"><ele>567.0</ele><time>2026-04-12T07:57:19Z</time></trkpt><trkpt lat="43.020369043570966" lon="12.08832107514605"><ele>565.75</ele><time>2026-04-12T07:57:20Z</time></trkpt><trkpt lat="43.020273046233434" lon="12.088224635524957"><ele>564.5</ele><time>2026-04-12T07:57:21Z</time></trkpt><trkpt lat="43.0201693694333" lon="12.088141667277755"><ele>563.25</ele><time>2026-04-12T07:57:22Z</time></trkpt><trkpt lat="43.02007529908859" lon="12.088046872971923"><ele>562.0</ele><time>2026-04-12T07:57:23Z</time></trkpt><trkpt lat="43.019968778668726" lon="12.088008480053675"><ele>562.0</ele><time>2026-04-12T07:57:24Z</time></trkpt><trkpt lat="43.019921803030606" lon="12.087895016110995"><ele>562.0</ele><time>2026-04-12T07:57:25Z</time></trkpt><trkpt lat="43.019878138440994" lon="12.087766853230349"><ele>562.0</ele><time>2026-04-12T07:57:26Z</time></trkpt><trkpt lat="43.01985040921257" lon="12.08762063626478"><ele>562.0</ele><time>2026-04-12T07:57:27Z</time></trkpt><trkpt lat="43.0198424350415" lon="12.087465942295331"><ele>562.0</ele><time>2026-04-12T07:57:28Z</time></trkpt><trkpt lat="43.01984129509203" lon="12.087307891100208"><ele>565.5</ele><time>2026-04-12T07:57:29Z</time></trkpt><trkpt lat="43.019828957112054" lon="12.087141527239554"><ele>569.0</ele><time>2026-04-12T07:57:30Z</time></trkpt><trkpt lat="43.019779104166" lon="12.086991644363092"><ele>572.5</ele><time>2026-04-12T07:57:31Z</time></trkpt><trkpt lat="43.01970187028249" lon="12.086845623151161"><ele>576.0</ele><time>2026-04-12T07:57:32Z</time></trkpt><trkpt lat="43.01961717787738" lon="12.086709347678495"><ele>577.25</ele><time>2026-04-12T07:57:33Z</time></trkpt><trkpt lat="43.01953010817169" lon="12.086579761265192"><ele>578.5</ele><time>2026-04-12T07:57:34Z</time></trkpt><trkpt lat="43.01944817055271" lon="12.08643708191607"><ele>579.75</ele><time>2026-04-12T07:57:35Z</time></trkpt><trkpt lat="43.019386787174376" lon="12.08630578023019"><ele>581.0</ele><time>2026-04-12T07:57:36Z</time></trkpt><trkpt lat="43.01935892922081" lon="12.086145544772299"><ele>581.0</ele><time>2026-04-12T07:57:37Z</time></trkpt><trkpt lat="43.019350542512" lon="12.085965152469731"><ele>581.0</ele><time>2026-04-12T07:57:38Z</time></trkpt><trkpt lat="43.01934692148761" lon="12.085801464534002"><ele>581.0</ele><time>2026-04-12T07:57:39Z</time></trkpt><trkpt lat="43.01934086470807" lon="12.085628963434758"><ele>581.0</ele><time>2026-04-12T07:57:40Z</time></trkpt><trkpt lat="43.019317370209976" lon="12.08544848168502"><ele>583.25</ele><time>2026-04-12T07:57:41Z</time></trkpt><trkpt lat="43.01929506278763" lon="12.085275976380721"><ele>585.5</ele><time>2026-04-12T07:57:42Z</time></trkpt><trkpt lat="43.01929080009182" lon="12.085103992833169"><ele>587.75</ele><time>2026-04-12T07:57:43Z</time></trkpt><trkpt lat="43.019286066675726" lon="12.084947094953607"><ele>590.0</ele><time>2026-04-12T07:57:44Z</time></trkpt><trkpt lat="43.01928948189414" lon="12.084793918993103"><ele>591.6</ele><time>2026-04-12T07:57:45Z</time></trkpt><trkpt lat="43.01929718913874" lon="12.084661535468047"><ele>593.2</ele><time>2026-04-12T07:57:46Z</time></trkpt><trkpt lat="43.019291181134236" lon="12.08456260737195"><ele>594.8</ele><time>2026-04-12T07:57:47Z</time></trkpt><trkpt lat="43.01920461910054" lon="12.08444852059367"><ele>596.4</ele><time>2026-04-12T07:57:49Z</time></trkpt><trkpt lat="43.0191266019206" lon="12.084407141693301"><ele>598.0</ele><time>2026-04-12T07:57:50Z</time></trkpt><trkpt lat="43.01905251094249" lon="12.084356219454992"><ele>599.6666666666667</ele><time>2026-04-12T07:57:51Z</time></trkpt><trkpt lat="43.0190021756915" lon="12.084274983790875"><ele>601.3333333333334</ele><time>2026-04-12T07:57:52Z</time></trkpt><trkpt lat="43.018963279521984" lon="12.084175571994386"><ele>603.0</ele><time>2026-04-12T07:57:53Z</time></trkpt><trkpt lat="43.018919143293026" lon="12.08409551234569"><ele>604.6666666666666</ele><time>2026-04-12T07:57:54Z</time></trkpt><trkpt lat="43.01884237626364" lon="12.084024876138452"><ele>606.3333333333333</ele><time>2026-04-12T07:57:56Z</time></trkpt><trkpt lat="43.018754603825364" lon="12.084012975154808"><ele>608.0</ele><time>2026-04-12T07:57:58Z</time></trkpt><trkpt lat="43.0186900970613" lon="12.083893181017194"><ele>610.5</ele><time>2026-04-12T07:58:00Z</time></trkpt><trkpt lat="43.01859506758768" lon="12.083840324569055"><ele>613.0</ele><time>2026-04-12T07:58:02Z</time></trkpt><trkpt lat="43.018531650776055" lon="12.083848771723925"><ele>615.5</ele><time>2026-04-12T07:58:03Z</time></trkpt><trkpt lat="43.018452110496035" lon="12.083791481891462"><ele>618.0</ele><time>2026-04-12T07:58:05Z</time></trkpt><trkpt lat="43.01837639165047" lon="12.083783117060172"><ele>620.5</ele><time>2026-04-12T07:58:07Z</time></trkpt><trkpt lat="43.018306287154566" lon="12.083794933563896"><ele>623.0</ele><time>2026-04-12T07:58:08Z</time></trkpt><trkpt lat="43.018220352574225" lon="12.083764772457064"><ele>624.1999999999999</ele><time>2026-04-12T07:58:10Z</time></trkpt><trkpt lat="43.01814170906243" lon="12.083730415007802"><ele>625.4</ele><time>2026-04-12T07:58:11Z</time></trkpt><trkpt lat="43.018073504379736" lon="12.083620863002063"><ele>626.5999999999999</ele><time>2026-04-12T07:58:13Z</time></trkpt><trkpt lat="43.01800478239741" lon="12.083503227873265"><ele>627.8</ele><time>2026-04-12T07:58:15Z</time></trkpt><trkpt lat="43.01795182545714" lon="12.083451936878522"><ele>629.0</ele><time>2026-04-12T07:58:16Z</time></trkpt><trkpt lat="43.017883140731165" lon="12.08331721486568"><ele>631.5</ele><time>2026-04-12T07:58:18Z</time></trkpt><trkpt lat="43.017863749459885" lon="12.083232512290332"><ele>634.0</ele><time>2026-04-12T07:58:19Z</time></trkpt><trkpt lat="43.017840412263645" lon="12.083135497907335"><ele>636.5</ele><time>2026-04-12T07:58:20Z</time></trkpt><trkpt lat="43.01782053051507" lon="12.083045740467378"><ele>639.0</ele><time>2026-04-12T07:58:21Z</time></trkpt><trkpt lat="43.01780505966187" lon="12.082957647534673"><ele>641.5</ele><time>2026-04-12T07:58:22Z</time></trkpt><trkpt lat="43.01778236818889" lon="12.082862522402548"><ele>644.0</ele><time>2026-04-12T07:58:23Z</time></trkpt><trkpt lat="43.01773152749838" lon="12.082727261186113"><ele>644.0</ele><time>2026-04-12T07:58:25Z</time></trkpt><trkpt lat="43.017720767456495" lon="12.082610394076688"><ele>644.0</ele><time>2026-04-12T07:58:27Z</time></trkpt><trkpt lat="43.017760545432076" lon="12.082532060698291"><ele>644.0</ele><time>2026-04-12T07:58:47Z</time></trkpt><trkpt lat="43.01781572207909" lon="12.082373473493847"><ele>644.0</ele><time>2026-04-12T07:58:49Z</time></trkpt><trkpt lat="43.01780536004974" lon="12.082219052116166"><ele>644.0</ele><time>2026-04-12T07:58:51Z</time></trkpt><trkpt lat="43.017764375297546" lon="12.082106723792982"><ele>642.8333333333333</ele><time>2026-04-12T07:58:52Z</time></trkpt><trkpt lat="43.01771984394252" lon="12.081996704849198"><ele>641.6666666666666</ele><time>2026-04-12T07:58:53Z</time></trkpt><trkpt lat="43.01768671371618" lon="12.081878100048746"><ele>640.5</ele><time>2026-04-12T07:58:54Z</time></trkpt><trkpt lat="43.01766268620193" lon="12.081757523060782"><ele>639.3333333333334</ele><time>2026-04-12T07:58:55Z</time></trkpt><trkpt lat="43.01764676118937" lon="12.08163212389386"><ele>638.1666666666667</ele><time>2026-04-12T07:58:56Z</time></trkpt><trkpt lat="43.01763365534807" lon="12.081534514599193"><ele>637.0</ele><time>2026-04-12T07:58:57Z</time></trkpt><trkpt lat="43.017617890824035" lon="12.081420742253897"><ele>634.8333333333334</ele><time>2026-04-12T07:58:58Z</time></trkpt><trkpt lat="43.0175933715889" lon="12.081324974600808"><ele>632.6666666666667</ele><time>2026-04-12T07:58:59Z</time></trkpt><trkpt lat="43.01754262768017" lon="12.081231212140358"><ele>630.5</ele><time>2026-04-12T07:59:00Z</time></trkpt><trkpt lat="43.017480987758" lon="12.081163610825717"><ele>628.3333333333334</ele><time>2026-04-12T07:59:01Z</time></trkpt><trkpt lat="43.017433779753524" lon="12.081065581355476"><ele>626.1666666666666</ele><time>2026-04-12T07:59:02Z</time></trkpt><trkpt lat="43.017407659736286" lon="12.080954644513962"><ele>624.0</ele><time>2026-04-12T07:59:03Z</time></trkpt><trkpt lat="43.01754486553124" lon="12.080680940582317"><ele>621.4</ele><time>2026-04-12T07:59:04Z</time></trkpt><trkpt lat="43.01750811364485" lon="12.080610489974754"><ele>618.8</ele><time>2026-04-12T07:59:05Z</time></trkpt><trkpt lat="43.017466853422725" lon="12.080529632509089"><ele>616.2</ele><time>2026-04-12T07:59:06Z</time></trkpt><trkpt lat="43.017405013222586" lon="12.080418261861377"><ele>613.6</ele><time>2026-04-12T07:59:07Z</time></trkpt><trkpt lat="43.01733994413921" lon="12.080334424071758"><ele>611.0</ele><time>2026-04-12T07:59:08Z</time></trkpt><trkpt lat="43.01722044174879" lon="12.080259895347979"><ele>611.0</ele><time>2026-04-12T07:59:09Z</time></trkpt><trkpt lat="43.01710055305906" lon="12.080201650023886"><ele>611.0</ele><time>2026-04-12T07:59:11Z</time></trkpt><trkpt lat="43.01698934804562" lon="12.080246311834804"><ele>611.0</ele><time>2026-04-12T07:59:12Z</time></trkpt><trkpt lat="43.01691899406891" lon="12.080142220520504"><ele>611.0</ele><time>2026-04-12T07:59:13Z</time></trkpt><trkpt lat="43.01685014009189" lon="12.080043113540416"><ele>611.0</ele><time>2026-04-12T07:59:14Z</time></trkpt><trkpt lat="43.016775035103294" lon="12.079952550147869"><ele>610.5</ele><time>2026-04-12T07:59:15Z</time></trkpt><trkpt lat="43.01670151743992" lon="12.079879559290044"><ele>610.0</ele><time>2026-04-12T07:59:16Z</time></trkpt><trkpt lat="43.01663596865809" lon="12.079814056040824"><ele>609.5</ele><time>2026-04-12T07:59:17Z</time></trkpt><trkpt lat="43.016568107274516" lon="12.079743822134091"><ele>609.0</ele><time>2026-04-12T07:59:18Z</time></trkpt><trkpt lat="43.01649620253946" lon="12.079670936770587"><ele>608.5</ele><time>2026-04-12T07:59:19Z</time></trkpt><trkpt lat="43.01643123148296" lon="12.079597977475172"><ele>608.0</ele><time>2026-04-12T07:59:20Z</time></trkpt><trkpt lat="43.01637006475096" lon="12.0795162379782"><ele>608.0</ele><time>2026-04-12T07:59:21Z</time></trkpt><trkpt lat="43.01630504340663" lon="12.079438679426756"><ele>608.0</ele><time>2026-04-12T07:59:22Z</time></trkpt><trkpt lat="43.01623457324312" lon="12.079372869627974"><ele>608.0</ele><time>2026-04-12T07:59:23Z</time></trkpt><trkpt lat="43.01615865861214" lon="12.079302575591536"><ele>608.0</ele><time>2026-04-12T07:59:24Z</time></trkpt><trkpt lat="43.01609357155906" lon="12.079226076389618"><ele>608.0</ele><time>2026-04-12T07:59:25Z</time></trkpt><trkpt lat="43.016036440110526" lon="12.079147140539956"><ele>608.0</ele><time>2026-04-12T07:59:26Z</time></trkpt><trkpt lat="43.01598049977799" lon="12.079058833063394"><ele>607.1999999999999</ele><time>2026-04-12T07:59:27Z</time></trkpt><trkpt lat="43.01592244085321" lon="12.078970304079196"><ele>606.4</ele><time>2026-04-12T07:59:28Z</time></trkpt><trkpt lat="43.01585765715049" lon="12.078879622825365"><ele>605.5999999999999</ele><time>2026-04-12T07:59:29Z</time></trkpt><trkpt lat="43.01578556107136" lon="12.078781051669706"><ele>604.8</ele><time>2026-04-12T07:59:30Z</time></trkpt><trkpt lat="43.01571502965594" lon="12.078678613232357"><ele>604.0</ele><time>2026-04-12T07:59:31Z</time></trkpt><trkpt lat="43.015641965409856" lon="12.078573543538232"><ele>604.0</ele><time>2026-04-12T07:59:32Z</time></trkpt><trkpt lat="43.01556161136035" lon="12.078474455486456"><ele>604.0</ele><time>2026-04-12T07:59:33Z</time></trkpt><trkpt lat="43.015481841594536" lon="12.078377511909899"><ele>604.0</ele><time>2026-04-12T07:59:34Z</time></trkpt><trkpt lat="43.01541210157092" lon="12.078281066413254"><ele>604.0</ele><time>2026-04-12T07:59:35Z</time></trkpt><trkpt lat="43.01536061793103" lon="12.078180421640617"><ele>604.0</ele><time>2026-04-12T07:59:36Z</time></trkpt><trkpt lat="43.01532656275659" lon="12.078081008580256"><ele>604.3333333333334</ele><time>2026-04-12T07:59:37Z</time></trkpt><trkpt lat="43.01526646814869" lon="12.077967702222738"><ele>604.6666666666667</ele><time>2026-04-12T07:59:39Z</time></trkpt><trkpt lat="43.0152069013719" lon="12.077935886556572"><ele>605.0</ele><time>2026-04-12T07:59:41Z</time></trkpt><trkpt lat="43.015120415914154" lon="12.077825277371284"><ele>605.3333333333334</ele><time>2026-04-12T07:59:43Z</time></trkpt><trkpt lat="43.01505920721136" lon="12.077761910234303"><ele>605.6666666666666</ele><time>2026-04-12T07:59:44Z</time></trkpt><trkpt lat="43.01499984656132" lon="12.077704884106398"><ele>606.0</ele><time>2026-04-12T07:59:45Z</time></trkpt><trkpt lat="43.01487216528345" lon="12.077636621198321"><ele>606.0</ele><time>2026-04-12T07:59:47Z</time></trkpt><trkpt lat="43.01479941972186" lon="12.077617051306728"><ele>606.0</ele><time>2026-04-12T07:59:48Z</time></trkpt><trkpt lat="43.01469673525585" lon="12.077505007687677"><ele>606.0</ele><time>2026-04-12T07:59:50Z</time></trkpt><trkpt lat="43.0146765752623" lon="12.077420472289583"><ele>606.0</ele><time>2026-04-12T07:59:51Z</time></trkpt><trkpt lat="43.0146656298587" lon="12.077311720807371"><ele>606.0</ele><time>2026-04-12T07:59:52Z</time></trkpt><trkpt lat="43.01466737728225" lon="12.07718424487639"><ele>606.0</ele><time>2026-04-12T07:59:53Z</time></trkpt><trkpt lat="43.01466278623185" lon="12.077044642610103"><ele>606.0</ele><time>2026-04-12T07:59:54Z</time></trkpt><trkpt lat="43.01463448632414" lon="12.076938769099604"><ele>606.0</ele><time>2026-04-12T07:59:55Z</time></trkpt><trkpt lat="43.014589528891285" lon="12.076859753700612"><ele>606.0</ele><time>2026-04-12T07:59:56Z</time></trkpt><trkpt lat="43.01452674542738" lon="12.076802489113527"><ele>606.0</ele><time>2026-04-12T07:59:57Z</time></trkpt><trkpt lat="43.014458395733534" lon="12.076765283688015"><ele>606.0</ele><time>2026-04-12T07:59:58Z</time></trkpt><trkpt lat="43.01439899830543" lon="12.076709804574275"><ele>606.0</ele><time>2026-04-12T07:59:59Z</time></trkpt><trkpt lat="43.01434786349319" lon="12.07664108013049"><ele>606.0</ele><time>2026-04-12T08:00:00Z</time></trkpt><trkpt lat="43.01430504830194" lon="12.076546771934726"><ele>606.0</ele><time>2026-04-12T08:00:01Z</time></trkpt><trkpt lat="43.01427125710003" lon="12.076461602628832"><ele>606.0</ele><time>2026-04-12T08:00:02Z</time></trkpt><trkpt lat="43.01424898497146" lon="12.076344029125622"><ele>606.0</ele><time>2026-04-12T08:00:03Z</time></trkpt><trkpt lat="43.01424436484044" lon="12.076234016980658"><ele>606.0</ele><time>2026-04-12T08:00:04Z</time></trkpt><trkpt lat="43.014275482849676" lon="12.076136339298708"><ele>606.0</ele><time>2026-04-12T08:00:05Z</time></trkpt><trkpt lat="43.014321415559145" lon="12.076036786427188"><ele>606.0</ele><time>2026-04-12T08:00:06Z</time></trkpt><trkpt lat="43.014384710225066" lon="12.075947960230428"><ele>606.0</ele><time>2026-04-12T08:00:07Z</time></trkpt><trkpt lat="43.01445405893335" lon="12.075870799530472"><ele>606.0</ele><time>2026-04-12T08:00:08Z</time></trkpt><trkpt lat="43.01451863568287" lon="12.07578572384445"><ele>606.0</ele><time>2026-04-12T08:00:09Z</time></trkpt><trkpt lat="43.01457322201349" lon="12.075706192041693"><ele>606.0</ele><time>2026-04-12T08:00:10Z</time></trkpt><trkpt lat="43.01460604307374" lon="12.075623020985619"><ele>606.0</ele><time>2026-04-12T08:00:11Z</time></trkpt><trkpt lat="43.01459698029046" lon="12.075522964307337"><ele>606.0</ele><time>2026-04-12T08:00:12Z</time></trkpt><trkpt lat="43.01457892248156" lon="12.075413557146438"><ele>603.6</ele><time>2026-04-12T08:00:13Z</time></trkpt><trkpt lat="43.01453273247564" lon="12.075291462127682"><ele>601.2</ele><time>2026-04-12T08:00:14Z</time></trkpt><trkpt lat="43.01446818220451" lon="12.075185086118209"><ele>598.8</ele><time>2026-04-12T08:00:15Z</time></trkpt><trkpt lat="43.01440274305435" lon="12.075060600626923"><ele>596.4</ele><time>2026-04-12T08:00:16Z</time></trkpt><trkpt lat="43.01432139792058" lon="12.074955580418278"><ele>594.0</ele><time>2026-04-12T08:00:17Z</time></trkpt><trkpt lat="43.01424388233958" lon="12.074839638033877"><ele>593.8</ele><time>2026-04-12T08:00:18Z</time></trkpt><trkpt lat="43.014186830796596" lon="12.074712894077548"><ele>593.5999999999999</ele><time>2026-04-12T08:00:19Z</time></trkpt><trkpt lat="43.01414200925003" lon="12.074580259102863"><ele>593.4</ele><time>2026-04-12T08:00:20Z</time></trkpt><trkpt lat="43.01411339762483" lon="12.074441845849575"><ele>593.1999999999999</ele><time>2026-04-12T08:00:21Z</time></trkpt><trkpt lat="43.01410127857999" lon="12.074296615565585"><ele>593.0</ele><time>2026-04-12T08:00:22Z</time></trkpt><trkpt lat="43.01408040301486" lon="12.074162524255302"><ele>592.75</ele><time>2026-04-12T08:00:23Z</time></trkpt><trkpt lat="43.014048660785996" lon="12.074021198465772"><ele>592.5</ele><time>2026-04-12T08:00:24Z</time></trkpt><trkpt lat="43.01399740292287" lon="12.073889820370914"><ele>592.25</ele><time>2026-04-12T08:00:25Z</time></trkpt><trkpt lat="43.013920702785754" lon="12.073756377870016"><ele>592.0</ele><time>2026-04-12T08:00:26Z</time></trkpt><trkpt lat="43.01383077197994" lon="12.073645283950192"><ele>592.0</ele><time>2026-04-12T08:00:27Z</time></trkpt><trkpt lat="43.01375011208601" lon="12.07353087704709"><ele>592.0</ele><time>2026-04-12T08:00:28Z</time></trkpt><trkpt lat="43.01367695392946" lon="12.073411697032686"><ele>592.0</ele><time>2026-04-12T08:00:29Z</time></trkpt><trkpt lat="43.01360847835188" lon="12.073280084332167"><ele>592.0</ele><time>2026-04-12T08:00:30Z</time></trkpt><trkpt lat="43.01354635667016" lon="12.073143737967765"><ele>593.5</ele><time>2026-04-12T08:00:31Z</time></trkpt><trkpt lat="43.01349337268344" lon="12.072995397743574"><ele>595.0</ele><time>2026-04-12T08:00:32Z</time></trkpt><trkpt lat="43.01344265292523" lon="12.072847762678316"><ele>596.5</ele><time>2026-04-12T08:00:33Z</time></trkpt><trkpt lat="43.013391641066406" lon="12.072708146991689"><ele>598.0</ele><time>2026-04-12T08:00:34Z</time></trkpt><trkpt lat="43.01334596630117" lon="12.072583373389154"><ele>597.8333333333334</ele><time>2026-04-12T08:00:35Z</time></trkpt><trkpt lat="43.01329880519463" lon="12.072474919026822"><ele>597.6666666666667</ele><time>2026-04-12T08:00:36Z</time></trkpt><trkpt lat="43.01325632366212" lon="12.072375216411652"><ele>597.5</ele><time>2026-04-12T08:00:37Z</time></trkpt><trkpt lat="43.01321313679658" lon="12.07227920605309"><ele>597.3333333333334</ele><time>2026-04-12T08:00:38Z</time></trkpt><trkpt lat="43.01317398268483" lon="12.072180619948803"><ele>597.1666666666666</ele><time>2026-04-12T08:00:39Z</time></trkpt><trkpt lat="43.0131360859888" lon="12.07207351615529"><ele>597.0</ele><time>2026-04-12T08:00:40Z</time></trkpt><trkpt lat="43.01308792864109" lon="12.071949971185383"><ele>596.6</ele><time>2026-04-12T08:00:41Z</time></trkpt><trkpt lat="43.013028265335066" lon="12.07183614967238"><ele>596.2</ele><time>2026-04-12T08:00:42Z</time></trkpt><trkpt lat="43.01296361631636" lon="12.071715598366378"><ele>595.8</ele><time>2026-04-12T08:00:43Z</time></trkpt><trkpt lat="43.012883521433054" lon="12.071626212049846"><ele>595.4</ele><time>2026-04-12T08:00:44Z</time></trkpt><trkpt lat="43.01279716700123" lon="12.071520884673204"><ele>595.0</ele><time>2026-04-12T08:00:45Z</time></trkpt><trkpt lat="43.01273525198278" lon="12.07137290786718"><ele>592.25</ele><time>2026-04-12T08:00:46Z</time></trkpt><trkpt lat="43.0126878767634" lon="12.071204440713135"><ele>589.5</ele><time>2026-04-12T08:00:47Z</time></trkpt><trkpt lat="43.012667087036235" lon="12.071042224869208"><ele>586.75</ele><time>2026-04-12T08:00:48Z</time></trkpt><trkpt lat="43.012640222189106" lon="12.070878302380821"><ele>584.0</ele><time>2026-04-12T08:00:49Z</time></trkpt><trkpt lat="43.01260924803177" lon="12.070709653680954"><ele>583.8</ele><time>2026-04-12T08:00:50Z</time></trkpt><trkpt lat="43.012564120827626" lon="12.070581427680867"><ele>583.5999999999999</ele><time>2026-04-12T08:00:51Z</time></trkpt><trkpt lat="43.01252046510861" lon="12.070459524424976"><ele>583.4</ele><time>2026-04-12T08:00:52Z</time></trkpt><trkpt lat="43.01248811090032" lon="12.070337226540785"><ele>583.1999999999999</ele><time>2026-04-12T08:00:53Z</time></trkpt><trkpt lat="43.01247345931994" lon="12.070202149384357"><ele>583.0</ele><time>2026-04-12T08:00:54Z</time></trkpt><trkpt lat="43.012457430491004" lon="12.070072381215132"><ele>581.6</ele><time>2026-04-12T08:00:55Z</time></trkpt><trkpt lat="43.01240858575147" lon="12.069951015477757"><ele>580.1999999999999</ele><time>2026-04-12T08:00:56Z</time></trkpt><trkpt lat="43.01233924538022" lon="12.06987263069029"><ele>578.8</ele><time>2026-04-12T08:00:57Z</time></trkpt><trkpt lat="43.01225057148489" lon="12.069801664187803"><ele>577.4</ele><time>2026-04-12T08:00:58Z</time></trkpt><trkpt lat="43.01217881879209" lon="12.06974482314213"><ele>576.0</ele><time>2026-04-12T08:00:59Z</time></trkpt><trkpt lat="43.01210943191497" lon="12.069653046593668"><ele>576.0</ele><time>2026-04-12T08:01:00Z</time></trkpt><trkpt lat="43.01204626771623" lon="12.069541519505119"><ele>576.0</ele><time>2026-04-12T08:01:01Z</time></trkpt><trkpt lat="43.011985971509084" lon="12.069416355250913"><ele>576.0</ele><time>2026-04-12T08:01:02Z</time></trkpt><trkpt lat="43.01190111902737" lon="12.069290481237267"><ele>576.0</ele><time>2026-04-12T08:01:03Z</time></trkpt><trkpt lat="43.011791733044646" lon="12.069168779118948"><ele>575.25</ele><time>2026-04-12T08:01:04Z</time></trkpt><trkpt lat="43.01168820356837" lon="12.069070688399384"><ele>574.5</ele><time>2026-04-12T08:01:05Z</time></trkpt><trkpt lat="43.01159364884207" lon="12.068979350422088"><ele>573.75</ele><time>2026-04-12T08:01:06Z</time></trkpt><trkpt lat="43.01150999118961" lon="12.068877443915927"><ele>573.0</ele><time>2026-04-12T08:01:07Z</time></trkpt><trkpt lat="43.011430340426706" lon="12.068775972563149"><ele>573.0</ele><time>2026-04-12T08:01:08Z</time></trkpt><trkpt lat="43.01136298043647" lon="12.068687647100315"><ele>573.0</ele><time>2026-04-12T08:01:09Z</time></trkpt><trkpt lat="43.01130633867992" lon="12.068619584727722"><ele>573.0</ele><time>2026-04-12T08:01:10Z</time></trkpt><trkpt lat="43.0112117574625" lon="12.068537856873236"><ele>573.0</ele><time>2026-04-12T08:01:12Z</time></trkpt><trkpt lat="43.01114069415129" lon="12.068471683858004"><ele>573.0</ele><time>2026-04-12T08:01:14Z</time></trkpt><trkpt lat="43.01108635761919" lon="12.068418878407133"><ele>573.0</ele><time>2026-04-12T08:01:17Z</time></trkpt><trkpt lat="43.01092865245612" lon="12.068353320183169"><ele>569.0</ele><time>2026-04-12T08:03:06Z</time></trkpt><trkpt lat="43.010815609816056" lon="12.068256833641817"><ele>565.0</ele><time>2026-04-12T08:03:08Z</time></trkpt><trkpt lat="43.01074367756609" lon="12.068191074920533"><ele>561.0</ele><time>2026-04-12T08:03:09Z</time></trkpt><trkpt lat="43.010682254356915" lon="12.068122699881021"><ele>557.0</ele><time>2026-04-12T08:03:10Z</time></trkpt><trkpt lat="43.0107270860435" lon="12.067863650751633"><ele>557.0</ele><time>2026-04-12T08:03:11Z</time></trkpt><trkpt lat="43.01063961973994" lon="12.067784162160304"><ele>557.0</ele><time>2026-04-12T08:03:12Z</time></trkpt><trkpt lat="43.01057119119987" lon="12.067749516548302"><ele>557.0</ele><time>2026-04-12T08:03:13Z</time></trkpt><trkpt lat="43.0105033066792" lon="12.067693026459848"><ele>557.0</ele><time>2026-04-12T08:03:14Z</time></trkpt><trkpt lat="43.01042773532263" lon="12.067595462612866"><ele>557.0</ele><time>2026-04-12T08:03:16Z</time></trkpt><trkpt lat="43.01038193574435" lon="12.067528680090872"><ele>557.0</ele><time>2026-04-12T08:03:17Z</time></trkpt><trkpt lat="43.010330454868374" lon="12.067453777370817"><ele>555.75</ele><time>2026-04-12T08:03:18Z</time></trkpt><trkpt lat="43.010280940487505" lon="12.067381490895869"><ele>554.5</ele><time>2026-04-12T08:03:19Z</time></trkpt><trkpt lat="43.010103557807476" lon="12.067145961894497"><ele>553.25</ele><time>2026-04-12T08:03:21Z</time></trkpt><trkpt lat="43.01000762459991" lon="12.067091326337115"><ele>552.0</ele><time>2026-04-12T08:03:22Z</time></trkpt><trkpt lat="43.00992412557451" lon="12.067038324037576"><ele>552.0</ele><time>2026-04-12T08:03:23Z</time></trkpt><trkpt lat="43.0098412821857" lon="12.066985738790917"><ele>552.0</ele><time>2026-04-12T08:03:24Z</time></trkpt><trkpt lat="43.009759170617485" lon="12.066930566794744"><ele>552.0</ele><time>2026-04-12T08:03:25Z</time></trkpt><trkpt lat="43.00968433721008" lon="12.066873366678202"><ele>552.0</ele><time>2026-04-12T08:03:26Z</time></trkpt><trkpt lat="43.00961668055553" lon="12.066818171892525"><ele>552.0</ele><time>2026-04-12T08:03:27Z</time></trkpt><trkpt lat="43.009559371453264" lon="12.066767314652502"><ele>552.0</ele><time>2026-04-12T08:03:28Z</time></trkpt><trkpt lat="43.00946233706781" lon="12.066663062910624"><ele>549.3333333333334</ele><time>2026-04-12T08:03:30Z</time></trkpt><trkpt lat="43.00942461918716" lon="12.066586474632325"><ele>546.6666666666667</ele><time>2026-04-12T08:03:32Z</time></trkpt><trkpt lat="43.00937121001041" lon="12.066507554843925"><ele>544.0</ele><time>2026-04-12T08:03:34Z</time></trkpt><trkpt lat="43.00888664901299" lon="12.066919252034836"><ele>547.8</ele><time>2026-04-12T08:03:37Z</time></trkpt><trkpt lat="43.00881440653155" lon="12.067018124101374"><ele>551.5999999999999</ele><time>2026-04-12T08:03:39Z</time></trkpt><trkpt lat="43.00873166115934" lon="12.067122058420555"><ele>555.4</ele><time>2026-04-12T08:03:41Z</time></trkpt><trkpt lat="43.008671157329736" lon="12.067155288622896"><ele>559.1999999999999</ele><time>2026-04-12T08:03:42Z</time></trkpt><trkpt lat="43.00858875534882" lon="12.06717650011006"><ele>563.0</ele><time>2026-04-12T08:03:43Z</time></trkpt><trkpt lat="43.00850009391296" lon="12.067213795513924"><ele>563.0</ele><time>2026-04-12T08:03:44Z</time></trkpt><trkpt lat="43.008419356010435" lon="12.067272595928152"><ele>563.0</ele><time>2026-04-12T08:03:45Z</time></trkpt><trkpt lat="43.00834520017108" lon="12.06729823319307"><ele>563.0</ele><time>2026-04-12T08:03:46Z</time></trkpt><trkpt lat="43.008269705649695" lon="12.06730389614456"><ele>563.0</ele><time>2026-04-12T08:03:47Z</time></trkpt><trkpt lat="43.00820364206638" lon="12.067346230784894"><ele>563.0</ele><time>2026-04-12T08:03:48Z</time></trkpt><trkpt lat="43.0081501316391" lon="12.067405067987933"><ele>563.0</ele><time>2026-04-12T08:03:49Z</time></trkpt><trkpt lat="43.008052166191284" lon="12.067473026709763"><ele>557.6</ele><time>2026-04-12T08:03:51Z</time></trkpt><trkpt lat="43.00799757818723" lon="12.067519927365169"><ele>552.1999999999999</ele><time>2026-04-12T08:03:52Z</time></trkpt><trkpt lat="43.007919260144135" lon="12.067612680068867"><ele>546.8</ele><time>2026-04-12T08:03:54Z</time></trkpt><trkpt lat="43.00796613853332" lon="12.067746606681258"><ele>541.4</ele><time>2026-04-12T08:03:57Z</time></trkpt><trkpt lat="43.00794015589131" lon="12.067841951541926"><ele>536.0</ele><time>2026-04-12T08:03:59Z</time></trkpt><trkpt lat="43.00783710216165" lon="12.067770476967208"><ele>536.0</ele><time>2026-04-12T08:04:01Z</time></trkpt><trkpt lat="43.00779874379131" lon="12.067695200498532"><ele>536.0</ele><time>2026-04-12T08:04:02Z</time></trkpt><trkpt lat="43.007763369913555" lon="12.067614242911954"><ele>536.0</ele><time>2026-04-12T08:04:03Z</time></trkpt><trkpt lat="43.00772036271522" lon="12.067544014814642"><ele>536.0</ele><time>2026-04-12T08:04:04Z</time></trkpt><trkpt lat="43.00765848828439" lon="12.067507652081169"><ele>536.0</ele><time>2026-04-12T08:04:05Z</time></trkpt><trkpt lat="43.00758384100126" lon="12.067465229157493"><ele>536.0</ele><time>2026-04-12T08:04:06Z</time></trkpt><trkpt lat="43.00751030521019" lon="12.067470773927777"><ele>536.0</ele><time>2026-04-12T08:04:07Z</time></trkpt><trkpt lat="43.007417657716665" lon="12.06752059435223"><ele>535.5714285714286</ele><time>2026-04-12T08:04:09Z</time></trkpt><trkpt lat="43.00735522266239" lon="12.067548870834022"><ele>535.1428571428571</ele><time>2026-04-12T08:04:10Z</time></trkpt><trkpt lat="43.00729740284188" lon="12.067502797170581"><ele>534.7142857142857</ele><time>2026-04-12T08:04:11Z</time></trkpt><trkpt lat="43.00722919519329" lon="12.067456617215926"><ele>534.2857142857142</ele><time>2026-04-12T08:04:12Z</time></trkpt><trkpt lat="43.00715717820043" lon="12.067447176813012"><ele>533.8571428571428</ele><time>2026-04-12T08:04:13Z</time></trkpt><trkpt lat="43.007102531288574" lon="12.067503096764634"><ele>533.4285714285714</ele><time>2026-04-12T08:04:14Z</time></trkpt><trkpt lat="43.00703646441554" lon="12.067592066297074"><ele>533.0</ele><time>2026-04-12T08:04:15Z</time></trkpt><trkpt lat="43.00696651821624" lon="12.06765242843625"><ele>533.0</ele><time>2026-04-12T08:04:16Z</time></trkpt><trkpt lat="43.00685637960495" lon="12.067723871610092"><ele>533.0</ele><time>2026-04-12T08:04:18Z</time></trkpt><trkpt lat="43.00679306499573" lon="12.067743005218018"><ele>533.0</ele><time>2026-04-12T08:04:19Z</time></trkpt><trkpt lat="43.006725598310545" lon="12.067701012841692"><ele>533.0</ele><time>2026-04-12T08:04:20Z</time></trkpt><trkpt lat="43.006663061559834" lon="12.067646651326397"><ele>533.0</ele><time>2026-04-12T08:04:21Z</time></trkpt><trkpt lat="43.00659751065056" lon="12.067595227441048"><ele>533.0</ele><time>2026-04-12T08:04:22Z</time></trkpt><trkpt lat="43.006535633482464" lon="12.067558946435318"><ele>534.8</ele><time>2026-04-12T08:04:23Z</time></trkpt><trkpt lat="43.006439079779256" lon="12.06758291179934"><ele>536.5999999999999</ele><time>2026-04-12T08:04:25Z</time></trkpt><trkpt lat="43.00637057067209" lon="12.067669179803179"><ele>538.4000000000001</ele><time>2026-04-12T08:04:26Z</time></trkpt><trkpt lat="43.006285927932794" lon="12.067722274052025"><ele>540.2</ele><time>2026-04-12T08:04:27Z</time></trkpt><trkpt lat="43.00622635822528" lon="12.067841976105735"><ele>542.0</ele><time>2026-04-12T08:04:29Z</time></trkpt><trkpt lat="43.00624629631572" lon="12.067935126172326"><ele>542.0</ele><time>2026-04-12T08:04:30Z</time></trkpt><trkpt lat="43.00625704761681" lon="12.0680214829823"><ele>542.0</ele><time>2026-04-12T08:04:31Z</time></trkpt><trkpt lat="43.006215113993186" lon="12.068146778720225"><ele>542.0</ele><time>2026-04-12T08:04:32Z</time></trkpt><trkpt lat="43.00617826862665" lon="12.068253090111472"><ele>542.0</ele><time>2026-04-12T08:04:33Z</time></trkpt><trkpt lat="43.006143413833136" lon="12.068359091809846"><ele>542.0</ele><time>2026-04-12T08:04:34Z</time></trkpt><trkpt lat="43.00609877286804" lon="12.068433267128292"><ele>542.0</ele><time>2026-04-12T08:04:35Z</time></trkpt><trkpt lat="43.006039089370255" lon="12.068475708568387"><ele>543.1666666666666</ele><time>2026-04-12T08:04:36Z</time></trkpt><trkpt lat="43.00595991914553" lon="12.068486594223046"><ele>544.3333333333333</ele><time>2026-04-12T08:04:37Z</time></trkpt><trkpt lat="43.0058894921363" lon="12.068428902285568"><ele>545.5</ele><time>2026-04-12T08:04:38Z</time></trkpt><trkpt lat="43.0058208531669" lon="12.068349788808927"><ele>546.6666666666666</ele><time>2026-04-12T08:04:39Z</time></trkpt><trkpt lat="43.00573309374593" lon="12.06827709026774"><ele>547.8333333333334</ele><time>2026-04-12T08:04:40Z</time></trkpt><trkpt lat="43.00564932175445" lon="12.068222870988889"><ele>549.0</ele><time>2026-04-12T08:04:41Z</time></trkpt><trkpt lat="43.00557779333001" lon="12.06815152907261"><ele>549.0</ele><time>2026-04-12T08:04:42Z</time></trkpt><trkpt lat="43.00550670612996" lon="12.068096855723702"><ele>549.0</ele><time>2026-04-12T08:04:43Z</time></trkpt><trkpt lat="43.005437938280764" lon="12.06803919293949"><ele>549.0</ele><time>2026-04-12T08:04:44Z</time></trkpt><trkpt lat="43.00535614060209" lon="12.067948189296489"><ele>549.0</ele><time>2026-04-12T08:04:45Z</time></trkpt><trkpt lat="43.00528737924611" lon="12.067849727638526"><ele>549.0</ele><time>2026-04-12T08:04:46Z</time></trkpt><trkpt lat="43.005227970425246" lon="12.067787102597677"><ele>549.0</ele><time>2026-04-12T08:04:47Z</time></trkpt><trkpt lat="43.00514536450949" lon="12.067771008068794"><ele>549.0</ele><time>2026-04-12T08:04:49Z</time></trkpt><trkpt lat="43.00512946632409" lon="12.067865371731179"><ele>549.0</ele><time>2026-04-12T08:04:51Z</time></trkpt><trkpt lat="43.00508461796671" lon="12.06799423524205"><ele>549.0</ele><time>2026-04-12T08:04:54Z</time></trkpt><trkpt lat="43.00507359757413" lon="12.068112907328125"><ele>549.0</ele><time>2026-04-12T08:04:56Z</time></trkpt><trkpt lat="43.00498335565565" lon="12.06826273557607"><ele>549.0</ele><time>2026-04-12T08:04:57Z</time></trkpt><trkpt lat="43.00495274232139" lon="12.06834434145135"><ele>546.8</ele><time>2026-04-12T08:04:58Z</time></trkpt><trkpt lat="43.004919444491385" lon="12.068423155945688"><ele>544.5999999999999</ele><time>2026-04-12T08:04:59Z</time></trkpt><trkpt lat="43.00490082687799" lon="12.068505748535934"><ele>542.4</ele><time>2026-04-12T08:05:00Z</time></trkpt><trkpt lat="43.00485209547545" lon="12.068652894885071"><ele>540.1999999999999</ele><time>2026-04-12T08:05:02Z</time></trkpt><trkpt lat="43.004772240345766" lon="12.068781577730196"><ele>538.0</ele><time>2026-04-12T08:05:03Z</time></trkpt><trkpt lat="43.00471690800621" lon="12.068894876215142"><ele>538.0</ele><time>2026-04-12T08:05:04Z</time></trkpt><trkpt lat="43.00466249918613" lon="12.069015670517839"><ele>538.0</ele><time>2026-04-12T08:05:05Z</time></trkpt><trkpt lat="43.004632967166756" lon="12.069145954839158"><ele>538.0</ele><time>2026-04-12T08:05:06Z</time></trkpt><trkpt lat="43.00460608768337" lon="12.069259135413114"><ele>538.0</ele><time>2026-04-12T08:05:07Z</time></trkpt><trkpt lat="43.00454873594848" lon="12.069337329983766"><ele>538.0</ele><time>2026-04-12T08:05:08Z</time></trkpt><trkpt lat="43.004473826381016" lon="12.069409147572761"><ele>534.6666666666667</ele><time>2026-04-12T08:05:09Z</time></trkpt><trkpt lat="43.004413679186854" lon="12.069456009589983"><ele>531.3333333333334</ele><time>2026-04-12T08:05:10Z</time></trkpt><trkpt lat="43.004349355119764" lon="12.069503521494466"><ele>528.0</ele><time>2026-04-12T08:05:11Z</time></trkpt><trkpt lat="43.00428992988831" lon="12.069534278064651"><ele>524.6666666666666</ele><time>2026-04-12T08:05:12Z</time></trkpt><trkpt lat="43.00420603141723" lon="12.069617329710399"><ele>521.3333333333333</ele><time>2026-04-12T08:05:14Z</time></trkpt><trkpt lat="43.00411814754824" lon="12.069569535700287"><ele>518.0</ele><time>2026-04-12T08:05:16Z</time></trkpt><trkpt lat="43.00406779920028" lon="12.069502497151353"><ele>519.8</ele><time>2026-04-12T08:05:17Z</time></trkpt><trkpt lat="43.004026943374356" lon="12.069434444438814"><ele>521.5999999999999</ele><time>2026-04-12T08:05:18Z</time></trkpt><trkpt lat="43.00395380310404" lon="12.069265679877267"><ele>523.4000000000001</ele><time>2026-04-12T08:05:20Z</time></trkpt><trkpt lat="43.00390974198326" lon="12.069187235438934"><ele>525.2</ele><time>2026-04-12T08:05:21Z</time></trkpt><trkpt lat="43.00383087221892" lon="12.069046960184503"><ele>527.0</ele><time>2026-04-12T08:05:23Z</time></trkpt><trkpt lat="43.00378437888267" lon="12.068977823943703"><ele>527.0</ele><time>2026-04-12T08:05:24Z</time></trkpt><trkpt lat="43.003665644050585" lon="12.069022080603208"><ele>527.0</ele><time>2026-04-12T08:05:26Z</time></trkpt><trkpt lat="43.0036065880689" lon="12.069083291052559"><ele>527.0</ele><time>2026-04-12T08:05:27Z</time></trkpt><trkpt lat="43.00354614886051" lon="12.069134584911327"><ele>527.0</ele><time>2026-04-12T08:05:28Z</time></trkpt><trkpt lat="43.003464821206954" lon="12.069192085654475"><ele>527.0</ele><time>2026-04-12T08:05:29Z</time></trkpt><trkpt lat="43.003411980919054" lon="12.069266414331862"><ele>527.0</ele><time>2026-04-12T08:05:30Z</time></trkpt><trkpt lat="43.003349858564405" lon="12.069315384463454"><ele>523.0</ele><time>2026-04-12T08:05:31Z</time></trkpt><trkpt lat="43.00322859520899" lon="12.069336184718459"><ele>519.0</ele><time>2026-04-12T08:05:33Z</time></trkpt><trkpt lat="43.00316340537966" lon="12.06931583379761"><ele>515.0</ele><time>2026-04-12T08:05:34Z</time></trkpt><trkpt lat="43.00305596407419" lon="12.069278500445332"><ele>511.0</ele><time>2026-04-12T08:05:36Z</time></trkpt><trkpt lat="43.00296748177377" lon="12.06922727992561"><ele>507.0</ele><time>2026-04-12T08:05:38Z</time></trkpt><trkpt lat="43.002906111257694" lon="12.069192198059357"><ele>509.3333333333333</ele><time>2026-04-12T08:05:39Z</time></trkpt><trkpt lat="43.00282516220579" lon="12.069095362550554"><ele>511.66666666666663</ele><time>2026-04-12T08:05:41Z</time></trkpt><trkpt lat="43.00278545691252" lon="12.069014608621636"><ele>514.0</ele><time>2026-04-12T08:05:42Z</time></trkpt><trkpt lat="43.00274765959278" lon="12.068874730563577"><ele>516.3333333333333</ele><time>2026-04-12T08:05:44Z</time></trkpt><trkpt lat="43.00267803205636" lon="12.0688028352567"><ele>518.6666666666666</ele><time>2026-04-12T08:05:46Z</time></trkpt><trkpt lat="43.002612539984426" lon="12.068837743911905"><ele>521.0</ele><time>2026-04-12T08:05:47Z</time></trkpt><trkpt lat="43.002515130530426" lon="12.068846363842857"><ele>523.8333333333333</ele><time>2026-04-12T08:05:49Z</time></trkpt><trkpt lat="43.00248939665036" lon="12.068962821833114"><ele>526.6666666666666</ele><time>2026-04-12T08:05:51Z</time></trkpt><trkpt lat="43.00246238252462" lon="12.069070347766496"><ele>529.5</ele><time>2026-04-12T08:05:52Z</time></trkpt><trkpt lat="43.00249317015408" lon="12.069167167998856"><ele>532.3333333333334</ele><time>2026-04-12T08:05:53Z</time></trkpt><trkpt lat="43.0024676982555" lon="12.069252376346176"><ele>535.1666666666667</ele><time>2026-04-12T08:05:54Z</time></trkpt><trkpt lat="43.00243018940874" lon="12.069334293761424"><ele>538.0</ele><time>2026-04-12T08:05:55Z</time></trkpt><trkpt lat="43.00236016316208" lon="12.069443395356508"><ele>538.0</ele><time>2026-04-12T08:05:57Z</time></trkpt><trkpt lat="43.002359111973824" lon="12.069537827850361"><ele>538.0</ele><time>2026-04-12T08:05:58Z</time></trkpt><trkpt lat="43.002355624773365" lon="12.069653094910628"><ele>538.0</ele><time>2026-04-12T08:05:59Z</time></trkpt><trkpt lat="43.00234651883484" lon="12.06977940320993"><ele>538.0</ele><time>2026-04-12T08:06:00Z</time></trkpt><trkpt lat="43.00233550955386" lon="12.069895847451727"><ele>538.0</ele><time>2026-04-12T08:06:01Z</time></trkpt><trkpt lat="43.002322541541616" lon="12.070036981984442"><ele>538.0</ele><time>2026-04-12T08:06:02Z</time></trkpt><trkpt lat="43.00234063791269" lon="12.07015676978866"><ele>535.8</ele><time>2026-04-12T08:06:03Z</time></trkpt><trkpt lat="43.00236169792715" lon="12.070270684365724"><ele>533.5999999999999</ele><time>2026-04-12T08:06:04Z</time></trkpt><trkpt lat="43.002363123066885" lon="12.070363808609912"><ele>531.4000000000001</ele><time>2026-04-12T08:06:05Z</time></trkpt><trkpt lat="43.00235342508322" lon="12.070482036149734"><ele>529.2</ele><time>2026-04-12T08:06:06Z</time></trkpt><trkpt lat="43.00234203722917" lon="12.070603495102686"><ele>527.0</ele><time>2026-04-12T08:06:07Z</time></trkpt><trkpt lat="43.00228312641512" lon="12.070783403619386"><ele>524.6666666666666</ele><time>2026-04-12T08:06:09Z</time></trkpt><trkpt lat="43.00223806027136" lon="12.070902393699265"><ele>522.3333333333333</ele><time>2026-04-12T08:06:10Z</time></trkpt><trkpt lat="43.002199646041454" lon="12.071000321342277"><ele>520.0</ele><time>2026-04-12T08:06:11Z</time></trkpt><trkpt lat="43.002176431652295" lon="12.071098100886836"><ele>517.6666666666666</ele><time>2026-04-12T08:06:12Z</time></trkpt><trkpt lat="43.00212019500985" lon="12.071229360198437"><ele>515.3333333333334</ele><time>2026-04-12T08:06:14Z</time></trkpt><trkpt lat="43.002068436708015" lon="12.07128566968354"><ele>513.0</ele><time>2026-04-12T08:06:15Z</time></trkpt><trkpt lat="43.00201405288511" lon="12.071332636759646"><ele>513.0</ele><time>2026-04-12T08:06:16Z</time></trkpt><trkpt lat="43.00193954596105" lon="12.071366320486803"><ele>513.0</ele><time>2026-04-12T08:06:17Z</time></trkpt><trkpt lat="43.001877899703736" lon="12.071403896826835"><ele>513.0</ele><time>2026-04-12T08:06:18Z</time></trkpt><trkpt lat="43.00175819820393" lon="12.07142728866596"><ele>513.0</ele><time>2026-04-12T08:06:20Z</time></trkpt><trkpt lat="43.0016934705011" lon="12.071410092449465"><ele>513.0</ele><time>2026-04-12T08:06:21Z</time></trkpt><trkpt lat="43.00162530420139" lon="12.071366646495418"><ele>513.0</ele><time>2026-04-12T08:06:22Z</time></trkpt><trkpt lat="43.001576625149205" lon="12.071309581886325"><ele>510.3333333333333</ele><time>2026-04-12T08:06:23Z</time></trkpt><trkpt lat="43.00151136919932" lon="12.071256530778806"><ele>507.66666666666663</ele><time>2026-04-12T08:06:24Z</time></trkpt><trkpt lat="43.00143128143967" lon="12.07124485694979"><ele>505.0</ele><time>2026-04-12T08:06:25Z</time></trkpt><trkpt lat="43.00135688392097" lon="12.071229676174806"><ele>502.3333333333333</ele><time>2026-04-12T08:06:26Z</time></trkpt><trkpt lat="43.001250000887204" lon="12.071155939242324"><ele>499.66666666666663</ele><time>2026-04-12T08:06:28Z</time></trkpt><trkpt lat="43.001192361596274" lon="12.07110611660012"><ele>497.0</ele><time>2026-04-12T08:06:29Z</time></trkpt><trkpt lat="43.00112463671882" lon="12.07104623307136"><ele>497.0</ele><time>2026-04-12T08:06:30Z</time></trkpt><trkpt lat="43.00105390005769" lon="12.070989752890336"><ele>497.00000000000006</ele><time>2026-04-12T08:06:31Z</time></trkpt><trkpt lat="43.00098416244629" lon="12.070955591666872"><ele>497.00000000000006</ele><time>2026-04-12T08:06:32Z</time></trkpt><trkpt lat="43.000901229861974" lon="12.070882064445104"><ele>497.0</ele><time>2026-04-12T08:06:34Z</time></trkpt><trkpt lat="43.00082645338091" lon="12.07078519488792"><ele>497.0</ele><time>2026-04-12T08:06:36Z</time></trkpt><trkpt lat="43.00075185955049" lon="12.07064684541184"><ele>498.0</ele><time>2026-04-12T08:06:38Z</time></trkpt><trkpt lat="43.00070376162978" lon="12.070496470404713"><ele>499.0</ele><time>2026-04-12T08:06:40Z</time></trkpt><trkpt lat="43.0006869498148" lon="12.07030497566412"><ele>500.0</ele><time>2026-04-12T08:06:42Z</time></trkpt><trkpt lat="43.00062047000132" lon="12.070187146064965"><ele>501.0</ele><time>2026-04-12T08:06:43Z</time></trkpt><trkpt lat="43.00054622463165" lon="12.07012041709145"><ele>501.0</ele><time>2026-04-12T08:06:44Z</time></trkpt><trkpt lat="43.000443042039166" lon="12.070047949301214"><ele>501.0</ele><time>2026-04-12T08:06:46Z</time></trkpt><trkpt lat="43.00038956297022" lon="12.069983199350288"><ele>501.0</ele><time>2026-04-12T08:06:47Z</time></trkpt><trkpt lat="43.00030866743355" lon="12.069858069218457"><ele>501.0</ele><time>2026-04-12T08:06:49Z</time></trkpt><trkpt lat="43.00026949452499" lon="12.069788014252246"><ele>501.0</ele><time>2026-04-12T08:06:50Z</time></trkpt><trkpt lat="43.00024226896262" lon="12.069708352565303"><ele>501.0</ele><time>2026-04-12T08:06:51Z</time></trkpt><trkpt lat="43.00022497937208" lon="12.069580469572585"><ele>504.6</ele><time>2026-04-12T08:06:53Z</time></trkpt><trkpt lat="43.00011672479657" lon="12.069595693296401"><ele>508.20000000000005</ele><time>2026-04-12T08:06:55Z</time></trkpt><trkpt lat="43.00004980429613" lon="12.069690787712942"><ele>511.79999999999995</ele><time>2026-04-12T08:06:57Z</time></trkpt><trkpt lat="42.99992729834412" lon="12.069688335696501"><ele>515.4</ele><time>2026-04-12T08:06:59Z</time></trkpt><trkpt lat="42.999858138548966" lon="12.069720854930194"><ele>519.0</ele><time>2026-04-12T08:07:01Z</time></trkpt><trkpt lat="42.99991166364295" lon="12.069887436917814"><ele>515.4</ele><time>2026-04-12T08:07:03Z</time></trkpt><trkpt lat="42.99992686803386" lon="12.06997869530338"><ele>511.79999999999995</ele><time>2026-04-12T08:07:04Z</time></trkpt><trkpt lat="42.99990077451858" lon="12.070060131235188"><ele>508.20000000000005</ele><time>2026-04-12T08:07:05Z</time></trkpt><trkpt lat="42.99985785512856" lon="12.070223039301096"><ele>504.6</ele><time>2026-04-12T08:07:07Z</time></trkpt><trkpt lat="42.99976614790657" lon="12.07035885473952"><ele>501.0</ele><time>2026-04-12T08:07:09Z</time></trkpt><trkpt lat="42.999721625038696" lon="12.070550774466376"><ele>501.0</ele><time>2026-04-12T08:07:11Z</time></trkpt><trkpt lat="42.99972067742829" lon="12.070677819213918"><ele>501.0</ele><time>2026-04-12T08:07:12Z</time></trkpt><trkpt lat="42.99969460734945" lon="12.070792132104083"><ele>501.0</ele><time>2026-04-12T08:07:13Z</time></trkpt><trkpt lat="42.999653292092155" lon="12.070925673013594"><ele>501.0</ele><time>2026-04-12T08:07:15Z</time></trkpt><trkpt lat="42.99953540223694" lon="12.071016680907139"><ele>501.0</ele><time>2026-04-12T08:07:17Z</time></trkpt><trkpt lat="42.999446991623024" lon="12.071068580788777"><ele>498.3333333333333</ele><time>2026-04-12T08:07:18Z</time></trkpt><trkpt lat="42.99936372275803" lon="12.071142496041782"><ele>495.66666666666663</ele><time>2026-04-12T08:07:19Z</time></trkpt><trkpt lat="42.99934733014451" lon="12.071238367709347"><ele>493.0</ele><time>2026-04-12T08:07:20Z</time></trkpt><trkpt lat="42.999347873543" lon="12.071355687021311"><ele>490.3333333333333</ele><time>2026-04-12T08:07:21Z</time></trkpt><trkpt lat="42.99934001119251" lon="12.07146064581661"><ele>487.66666666666663</ele><time>2026-04-12T08:07:22Z</time></trkpt><trkpt lat="42.9993625606879" lon="12.071565441150646"><ele>485.0</ele><time>2026-04-12T08:07:23Z</time></trkpt><trkpt lat="42.999338025861654" lon="12.071698770178912"><ele>481.6</ele><time>2026-04-12T08:07:24Z</time></trkpt><trkpt lat="42.999278122581956" lon="12.071847290828819"><ele>478.2</ele><time>2026-04-12T08:07:26Z</time></trkpt><trkpt lat="42.99922017184052" lon="12.07192224702232"><ele>474.79999999999995</ele><time>2026-04-12T08:07:27Z</time></trkpt><trkpt lat="42.99915873511431" lon="12.071968777770719"><ele>471.4</ele><time>2026-04-12T08:07:28Z</time></trkpt><trkpt lat="42.99907179645676" lon="12.072054420224035"><ele>468.0</ele><time>2026-04-12T08:07:29Z</time></trkpt><trkpt lat="42.99900955481995" lon="12.072162959675577"><ele>472.59999999999997</ele><time>2026-04-12T08:07:30Z</time></trkpt><trkpt lat="42.99895459879222" lon="12.072235256050654"><ele>477.19999999999993</ele><time>2026-04-12T08:07:31Z</time></trkpt><trkpt lat="42.99890821383587" lon="12.072382988588885"><ele>481.8</ele><time>2026-04-12T08:07:33Z</time></trkpt><trkpt lat="42.99882020654488" lon="12.072477155198397"><ele>486.4</ele><time>2026-04-12T08:07:35Z</time></trkpt><trkpt lat="42.99875964400897" lon="12.072516942641933"><ele>491.0</ele><time>2026-04-12T08:07:36Z</time></trkpt><trkpt lat="42.998668597128464" lon="12.072538271481145"><ele>490.99999999999994</ele><time>2026-04-12T08:07:37Z</time></trkpt><trkpt lat="42.998582181403584" lon="12.072555994642359"><ele>491.0</ele><time>2026-04-12T08:07:38Z</time></trkpt><trkpt lat="42.99851321033377" lon="12.072560618263976"><ele>491.0</ele><time>2026-04-12T08:07:39Z</time></trkpt><trkpt lat="42.9984433279935" lon="12.07257533915638"><ele>491.0</ele><time>2026-04-12T08:07:40Z</time></trkpt><trkpt lat="42.99837566473068" lon="12.072582828382613"><ele>490.99999999999994</ele><time>2026-04-12T08:07:41Z</time></trkpt><trkpt lat="42.9982528725614" lon="12.072537537157293"><ele>491.0</ele><time>2026-04-12T08:07:43Z</time></trkpt><trkpt lat="42.99818228557078" lon="12.072405757370666"><ele>494.20000000000005</ele><time>2026-04-12T08:07:45Z</time></trkpt><trkpt lat="42.99813776278666" lon="12.072327460590197"><ele>497.40000000000003</ele><time>2026-04-12T08:07:47Z</time></trkpt><trkpt lat="42.99818510818407" lon="12.072256908243794"><ele>500.6</ele><time>2026-04-12T08:07:51Z</time></trkpt><trkpt lat="42.998268420819834" lon="12.072275238402382"><ele>503.8</ele><time>2026-04-12T08:07:54Z</time></trkpt><trkpt lat="42.99835064598704" lon="12.072224687159613"><ele>507.0</ele><time>2026-04-12T08:08:13Z</time></trkpt><trkpt lat="42.99852411764254" lon="12.072033373374305"><ele>507.0</ele><time>2026-04-12T08:08:19Z</time></trkpt><trkpt lat="42.998587584190204" lon="12.071939188052047"><ele>507.00000000000006</ele><time>2026-04-12T08:08:21Z</time></trkpt><trkpt lat="42.998629524816124" lon="12.071812348773932"><ele>507.00000000000006</ele><time>2026-04-12T08:08:23Z</time></trkpt><trkpt lat="42.99861600112327" lon="12.07169099200652"><ele>507.0</ele><time>2026-04-12T08:08:27Z</time></trkpt><trkpt lat="42.99850231498453" lon="12.07169765172612"><ele>507.0</ele><time>2026-04-12T08:08:29Z</time></trkpt><trkpt lat="42.99845961487714" lon="12.071632335160638"><ele>510.0</ele><time>2026-04-12T08:08:30Z</time></trkpt><trkpt lat="42.99841735602392" lon="12.07153568264615"><ele>513.0</ele><time>2026-04-12T08:08:32Z</time></trkpt><trkpt lat="42.99838625506424" lon="12.071428187508918"><ele>516.0</ele><time>2026-04-12T08:08:35Z</time></trkpt><trkpt lat="42.99846821501704" lon="12.071332150476"><ele>519.0</ele><time>2026-04-12T08:08:37Z</time></trkpt><trkpt lat="42.99853595535931" lon="12.071212860444618"><ele>522.0</ele><time>2026-04-12T08:08:38Z</time></trkpt><trkpt lat="42.99856530068715" lon="12.071099455686788"><ele>522.0</ele><time>2026-04-12T08:08:40Z</time></trkpt><trkpt lat="42.998610970351145" lon="12.070989252494536"><ele>522.0</ele><time>2026-04-12T08:08:42Z</time></trkpt><trkpt lat="42.998544188635655" lon="12.07093977926382"><ele>522.0</ele><time>2026-04-12T08:08:44Z</time></trkpt><trkpt lat="42.998468794832725" lon="12.070874233523387"><ele>522.0</ele><time>2026-04-12T08:08:46Z</time></trkpt><trkpt lat="42.99848283606555" lon="12.070774118564554"><ele>522.0</ele><time>2026-04-12T08:08:49Z</time></trkpt><trkpt lat="42.99845600306457" lon="12.070682374551454"><ele>522.0</ele><time>2026-04-12T08:08:51Z</time></trkpt><trkpt lat="42.99848343063344" lon="12.070595639880832"><ele>525.0</ele><time>2026-04-12T08:08:53Z</time></trkpt><trkpt lat="42.99850747475919" lon="12.070441732557844"><ele>528.0</ele><time>2026-04-12T08:08:55Z</time></trkpt><trkpt lat="42.998499925220486" lon="12.070341191101418"><ele>531.0</ele><time>2026-04-12T08:08:57Z</time></trkpt><trkpt lat="42.99842274202175" lon="12.070334194158637"><ele>534.0</ele><time>2026-04-12T08:08:58Z</time></trkpt><trkpt lat="42.998367609338565" lon="12.07027475397568"><ele>537.0</ele><time>2026-04-12T08:09:01Z</time></trkpt><trkpt lat="42.99833557212162" lon="12.070180381849694"><ele>540.0</ele><time>2026-04-12T08:09:03Z</time></trkpt><trkpt lat="42.998296244681214" lon="12.070097320069587"><ele>541.3333333333334</ele><time>2026-04-12T08:09:04Z</time></trkpt><trkpt lat="42.99823806278185" lon="12.070024769358556"><ele>542.6666666666666</ele><time>2026-04-12T08:09:06Z</time></trkpt><trkpt lat="42.99822288624838" lon="12.06993820792683"><ele>544.0</ele><time>2026-04-12T08:09:09Z</time></trkpt><trkpt lat="42.99818976144295" lon="12.069830896991014"><ele>545.3333333333333</ele><time>2026-04-12T08:09:12Z</time></trkpt><trkpt lat="42.99821215508226" lon="12.069704909653815"><ele>546.6666666666666</ele><time>2026-04-12T08:09:14Z</time></trkpt><trkpt lat="42.99827440274686" lon="12.069680160495531"><ele>548.0</ele><time>2026-04-12T08:09:15Z</time></trkpt><trkpt lat="42.99837353920449" lon="12.06967807522286"><ele>548.0</ele><time>2026-04-12T08:09:17Z</time></trkpt><trkpt lat="42.99841862684935" lon="12.06955164131952"><ele>548.0</ele><time>2026-04-12T08:09:19Z</time></trkpt><trkpt lat="42.99841086118408" lon="12.069454614543035"><ele>548.0</ele><time>2026-04-12T08:09:26Z</time></trkpt><trkpt lat="42.9984240417327" lon="12.06934427432535"><ele>548.0</ele><time>2026-04-12T08:09:29Z</time></trkpt><trkpt lat="42.998446117355606" lon="12.0692391568648"><ele>548.0</ele><time>2026-04-12T08:09:32Z</time></trkpt><trkpt lat="42.99847209872261" lon="12.069127008065568"><ele>548.0</ele><time>2026-04-12T08:10:00Z</time></trkpt><trkpt lat="42.99850013529322" lon="12.068995165744747"><ele>549.6666666666666</ele><time>2026-04-12T08:10:02Z</time></trkpt><trkpt lat="42.99851917711342" lon="12.068882489175051"><ele>551.3333333333333</ele><time>2026-04-12T08:10:03Z</time></trkpt><trkpt lat="42.99854487555876" lon="12.06878568613148"><ele>553.0</ele><time>2026-04-12T08:10:04Z</time></trkpt><trkpt lat="42.99850587982529" lon="12.068688415345845"><ele>554.6666666666666</ele><time>2026-04-12T08:10:07Z</time></trkpt><trkpt lat="42.9984400537978" lon="12.068709704573061"><ele>556.3333333333334</ele><time>2026-04-12T08:10:10Z</time></trkpt><trkpt lat="42.99834370343658" lon="12.068817111611787"><ele>558.0</ele><time>2026-04-12T08:10:12Z</time></trkpt><trkpt lat="42.99825143066369" lon="12.068838324071034"><ele>558.8</ele><time>2026-04-12T08:10:14Z</time></trkpt><trkpt lat="42.99814424214601" lon="12.068863569567359"><ele>559.5999999999999</ele><time>2026-04-12T08:10:16Z</time></trkpt><trkpt lat="42.99801476703054" lon="12.068909782472304"><ele>560.4000000000001</ele><time>2026-04-12T08:10:18Z</time></trkpt><trkpt lat="42.99789036281276" lon="12.0689706739896"><ele>561.2</ele><time>2026-04-12T08:10:20Z</time></trkpt><trkpt lat="42.997828663858094" lon="12.068992938852498"><ele>562.0</ele><time>2026-04-12T08:10:21Z</time></trkpt><trkpt lat="42.99773720742281" lon="12.06899348828151"><ele>562.0</ele><time>2026-04-12T08:10:22Z</time></trkpt><trkpt lat="42.99766749983585" lon="12.068981368894663"><ele>562.0</ele><time>2026-04-12T08:10:23Z</time></trkpt><trkpt lat="42.997591134897526" lon="12.068962969521472"><ele>562.0</ele><time>2026-04-12T08:10:24Z</time></trkpt><trkpt lat="42.99751883384642" lon="12.068954072422223"><ele>562.0</ele><time>2026-04-12T08:10:25Z</time></trkpt><trkpt lat="42.997445730990314" lon="12.068966323991058"><ele>562.0</ele><time>2026-04-12T08:10:26Z</time></trkpt><trkpt lat="42.99737672996165" lon="12.069006006684075"><ele>562.0</ele><time>2026-04-12T08:10:27Z</time></trkpt><trkpt lat="42.99725664853087" lon="12.069037859616527"><ele>560.8571428571429</ele><time>2026-04-12T08:10:29Z</time></trkpt><trkpt lat="42.997189988283246" lon="12.06902196170932"><ele>559.7142857142858</ele><time>2026-04-12T08:10:30Z</time></trkpt><trkpt lat="42.997122594225324" lon="12.069062827120687"><ele>558.5714285714286</ele><time>2026-04-12T08:10:31Z</time></trkpt><trkpt lat="42.99705119833369" lon="12.069105413563193"><ele>557.4285714285714</ele><time>2026-04-12T08:10:32Z</time></trkpt><trkpt lat="42.99697946650966" lon="12.069143804358557"><ele>556.2857142857142</ele><time>2026-04-12T08:10:33Z</time></trkpt><trkpt lat="42.99691886651304" lon="12.069177638754558"><ele>555.1428571428571</ele><time>2026-04-12T08:10:34Z</time></trkpt><trkpt lat="42.99685317746178" lon="12.069188510810763"><ele>554.0</ele><time>2026-04-12T08:10:35Z</time></trkpt><trkpt lat="42.99678683134668" lon="12.069219601143526"><ele>554.0</ele><time>2026-04-12T08:10:36Z</time></trkpt><trkpt lat="42.99671397860092" lon="12.069327794848904"><ele>554.0</ele><time>2026-04-12T08:10:38Z</time></trkpt><trkpt lat="42.99665096760108" lon="12.069390810210098"><ele>554.0</ele><time>2026-04-12T08:10:39Z</time></trkpt><trkpt lat="42.99658786495518" lon="12.069460087940287"><ele>554.0</ele><time>2026-04-12T08:10:40Z</time></trkpt><trkpt lat="42.996538571445875" lon="12.069544843726362"><ele>554.0</ele><time>2026-04-12T08:10:41Z</time></trkpt><trkpt lat="42.996474979763455" lon="12.069625535559863"><ele>554.0</ele><time>2026-04-12T08:10:42Z</time></trkpt><trkpt lat="42.99640057259457" lon="12.06969098152032"><ele>553.0</ele><time>2026-04-12T08:10:43Z</time></trkpt><trkpt lat="42.99634030687759" lon="12.069773857490143"><ele>552.0</ele><time>2026-04-12T08:10:44Z</time></trkpt><trkpt lat="42.99629615620468" lon="12.069862381974914"><ele>551.0</ele><time>2026-04-12T08:10:45Z</time></trkpt><trkpt lat="42.99624510520441" lon="12.069959110764358"><ele>550.0</ele><time>2026-04-12T08:10:46Z</time></trkpt><trkpt lat="42.99618765638562" lon="12.070040052975267"><ele>549.0</ele><time>2026-04-12T08:10:47Z</time></trkpt><trkpt lat="42.996122963649505" lon="12.070083360963487"><ele>548.0</ele><time>2026-04-12T08:10:48Z</time></trkpt><trkpt lat="42.99606609608097" lon="12.070153028469152"><ele>548.0</ele><time>2026-04-12T08:10:49Z</time></trkpt><trkpt lat="42.996035089745455" lon="12.070229776931749"><ele>548.0</ele><time>2026-04-12T08:10:50Z</time></trkpt><trkpt lat="42.99599486312031" lon="12.070312752517115"><ele>548.0</ele><time>2026-04-12T08:10:51Z</time></trkpt><trkpt lat="42.995938542353265" lon="12.070424072272088"><ele>548.0</ele><time>2026-04-12T08:10:53Z</time></trkpt><trkpt lat="42.995915579874136" lon="12.0705888613862"><ele>548.0</ele><time>2026-04-12T08:10:55Z</time></trkpt><trkpt lat="42.995834119379396" lon="12.07066135752368"><ele>548.3333333333333</ele><time>2026-04-12T08:10:56Z</time></trkpt><trkpt lat="42.99574963649931" lon="12.070721109749798"><ele>548.6666666666666</ele><time>2026-04-12T08:10:57Z</time></trkpt><trkpt lat="42.995687074858736" lon="12.070793028242681"><ele>549.0</ele><time>2026-04-12T08:10:58Z</time></trkpt><trkpt lat="42.99562601590904" lon="12.070845943065269"><ele>549.3333333333334</ele><time>2026-04-12T08:10:59Z</time></trkpt><trkpt lat="42.99555456479757" lon="12.070881895216768"><ele>549.6666666666667</ele><time>2026-04-12T08:11:00Z</time></trkpt><trkpt lat="42.995487333050036" lon="12.070922008634081"><ele>550.0</ele><time>2026-04-12T08:11:01Z</time></trkpt><trkpt lat="42.995428717662065" lon="12.070970530850907"><ele>550.2</ele><time>2026-04-12T08:11:02Z</time></trkpt><trkpt lat="42.99536962026492" lon="12.071011311184268"><ele>550.4</ele><time>2026-04-12T08:11:03Z</time></trkpt><trkpt lat="42.9952875752094" lon="12.071116893055805"><ele>550.6</ele><time>2026-04-12T08:11:05Z</time></trkpt><trkpt lat="42.995237410034214" lon="12.071287356019168"><ele>550.8</ele><time>2026-04-12T08:11:07Z</time></trkpt><trkpt lat="42.99519524463012" lon="12.071372634298895"><ele>551.0</ele><time>2026-04-12T08:11:08Z</time></trkpt><trkpt lat="42.9951444868399" lon="12.071425539373122"><ele>551.0</ele><time>2026-04-12T08:11:09Z</time></trkpt><trkpt lat="42.995082356552686" lon="12.071463774653326"><ele>551.0</ele><time>2026-04-12T08:11:10Z</time></trkpt><trkpt lat="42.99500580910409" lon="12.071482793882858"><ele>551.0</ele><time>2026-04-12T08:11:11Z</time></trkpt><trkpt lat="42.99493050368072" lon="12.071492048139005"><ele>551.0</ele><time>2026-04-12T08:11:12Z</time></trkpt><trkpt lat="42.994855355815076" lon="12.071543226617925"><ele>551.0</ele><time>2026-04-12T08:11:14Z</time></trkpt><trkpt lat="42.99492422204765" lon="12.071660451154042"><ele>551.0</ele><time>2026-04-12T08:11:16Z</time></trkpt><trkpt lat="42.99495145528393" lon="12.071804835822281"><ele>550.75</ele><time>2026-04-12T08:11:18Z</time></trkpt><trkpt lat="42.994855018557914" lon="12.071912684269124"><ele>550.5</ele><time>2026-04-12T08:11:20Z</time></trkpt><trkpt lat="42.99476527949835" lon="12.072000385245609"><ele>550.25</ele><time>2026-04-12T08:11:22Z</time></trkpt><trkpt lat="42.994686846306195" lon="12.072114512964909"><ele>550.0</ele><time>2026-04-12T08:11:24Z</time></trkpt><trkpt lat="42.99457876913963" lon="12.072113575596513"><ele>550.0</ele><time>2026-04-12T08:11:26Z</time></trkpt><trkpt lat="42.99454050521532" lon="12.072193716209526"><ele>550.0</ele><time>2026-04-12T08:11:28Z</time></trkpt><trkpt lat="42.99460892841984" lon="12.072286069720743"><ele>550.0</ele><time>2026-04-12T08:11:30Z</time></trkpt><trkpt lat="42.99469996274873" lon="12.072388308059672"><ele>550.0</ele><time>2026-04-12T08:11:32Z</time></trkpt><trkpt lat="42.994777605438685" lon="12.072486496626185"><ele>550.0</ele><time>2026-04-12T08:11:34Z</time></trkpt><trkpt lat="42.99474285523688" lon="12.072590821082592"><ele>546.6</ele><time>2026-04-12T08:11:37Z</time></trkpt><trkpt lat="42.99467616336619" lon="12.072594488790488"><ele>543.2</ele><time>2026-04-12T08:11:38Z</time></trkpt><trkpt lat="42.99457412412493" lon="12.072601212779006"><ele>539.8</ele><time>2026-04-12T08:11:40Z</time></trkpt><trkpt lat="42.99449220046299" lon="12.072658399320803"><ele>536.4</ele><time>2026-04-12T08:11:42Z</time></trkpt><trkpt lat="42.994489221431024" lon="12.072820976514528"><ele>533.0</ele><time>2026-04-12T08:11:44Z</time></trkpt><trkpt lat="42.994505962168844" lon="12.072914508644944"><ele>533.0</ele><time>2026-04-12T08:11:45Z</time></trkpt><trkpt lat="42.994499470581275" lon="12.07300176938135"><ele>533.0</ele><time>2026-04-12T08:11:46Z</time></trkpt><trkpt lat="42.99447717423558" lon="12.073152472418352"><ele>533.0</ele><time>2026-04-12T08:11:48Z</time></trkpt><trkpt lat="42.9943979557886" lon="12.07323803000384"><ele>533.0</ele><time>2026-04-12T08:11:50Z</time></trkpt><trkpt lat="42.99433175643616" lon="12.073252338025263"><ele>533.0</ele><time>2026-04-12T08:11:51Z</time></trkpt><trkpt lat="42.9942658455573" lon="12.073250217886928"><ele>533.0</ele><time>2026-04-12T08:11:52Z</time></trkpt><trkpt lat="42.99415420370564" lon="12.073254018528802"><ele>530.4</ele><time>2026-04-12T08:11:54Z</time></trkpt><trkpt lat="42.99405329913736" lon="12.073293880259136"><ele>527.8</ele><time>2026-04-12T08:11:56Z</time></trkpt><trkpt lat="42.99396740053755" lon="12.073423015303733"><ele>525.2</ele><time>2026-04-12T08:11:58Z</time></trkpt><trkpt lat="42.993933793916504" lon="12.073501855752188"><ele>522.6</ele><time>2026-04-12T08:11:59Z</time></trkpt><trkpt lat="42.993913926669464" lon="12.073599909770543"><ele>520.0</ele><time>2026-04-12T08:12:00Z</time></trkpt><trkpt lat="42.99387935204432" lon="12.073764053357575"><ele>520.0</ele><time>2026-04-12T08:12:02Z</time></trkpt><trkpt lat="42.99387763944156" lon="12.073852402884066"><ele>520.0</ele><time>2026-04-12T08:12:03Z</time></trkpt><trkpt lat="42.99384215098544" lon="12.07399113967327"><ele>520.0</ele><time>2026-04-12T08:12:05Z</time></trkpt><trkpt lat="42.99375699419611" lon="12.0740490767738"><ele>520.0</ele><time>2026-04-12T08:12:07Z</time></trkpt><trkpt lat="42.993651248742076" lon="12.073956246804986"><ele>520.0</ele><time>2026-04-12T08:12:09Z</time></trkpt><trkpt lat="42.99356129694034" lon="12.073868752173329"><ele>520.0</ele><time>2026-04-12T08:12:11Z</time></trkpt><trkpt lat="42.99345781500857" lon="12.073768707177258"><ele>520.0</ele><time>2026-04-12T08:12:13Z</time></trkpt><trkpt lat="42.993400369223856" lon="12.073726003370327"><ele>520.0</ele><time>2026-04-12T08:12:14Z</time></trkpt><trkpt lat="42.99334165027883" lon="12.073679692187927"><ele>520.0</ele><time>2026-04-12T08:12:15Z</time></trkpt><trkpt lat="42.99324032115757" lon="12.073573250507177"><ele>520.0</ele><time>2026-04-12T08:12:17Z</time></trkpt><trkpt lat="42.993146924539694" lon="12.073486756798404"><ele>516.2</ele><time>2026-04-12T08:12:19Z</time></trkpt><trkpt lat="42.99308500703494" lon="12.073382923549875"><ele>512.4</ele><time>2026-04-12T08:12:21Z</time></trkpt><trkpt lat="42.99295047488853" lon="12.073427681973047"><ele>508.6</ele><time>2026-04-12T08:12:23Z</time></trkpt><trkpt lat="42.99285357423261" lon="12.073435500754876"><ele>504.8</ele><time>2026-04-12T08:12:25Z</time></trkpt><trkpt lat="42.99279302457769" lon="12.073409139757267"><ele>501.0</ele><time>2026-04-12T08:12:26Z</time></trkpt><trkpt lat="42.992730215391276" lon="12.073378198115645"><ele>501.0</ele><time>2026-04-12T08:12:27Z</time></trkpt><trkpt lat="42.99266951990969" lon="12.073352170552045"><ele>501.0</ele><time>2026-04-12T08:12:28Z</time></trkpt><trkpt lat="42.9925495966699" lon="12.073321325344464"><ele>501.0</ele><time>2026-04-12T08:12:30Z</time></trkpt><trkpt lat="42.9924442626285" lon="12.073379647142046"><ele>501.0</ele><time>2026-04-12T08:12:32Z</time></trkpt><trkpt lat="42.99235200622723" lon="12.073478442402445"><ele>501.0</ele><time>2026-04-12T08:12:34Z</time></trkpt><trkpt lat="42.99222999551971" lon="12.073397321063734"><ele>498.28571428571433</ele><time>2026-04-12T08:12:36Z</time></trkpt><trkpt lat="42.99216559093417" lon="12.073336140938656"><ele>495.57142857142856</ele><time>2026-04-12T08:12:37Z</time></trkpt><trkpt lat="42.99209116240942" lon="12.073291255811231"><ele>492.8571428571429</ele><time>2026-04-12T08:12:38Z</time></trkpt><trkpt lat="42.992019956814865" lon="12.07325880507343"><ele>490.14285714285717</ele><time>2026-04-12T08:12:39Z</time></trkpt><trkpt lat="42.99195109437862" lon="12.073259301913753"><ele>487.42857142857144</ele><time>2026-04-12T08:12:40Z</time></trkpt><trkpt lat="42.99188266669073" lon="12.073298825298373"><ele>484.7142857142857</ele><time>2026-04-12T08:12:41Z</time></trkpt><trkpt lat="42.99183674978878" lon="12.073373709751543"><ele>482.0</ele><time>2026-04-12T08:12:42Z</time></trkpt><trkpt lat="42.99179890769132" lon="12.073468174450797"><ele>481.99999999999994</ele><time>2026-04-12T08:12:43Z</time></trkpt><trkpt lat="42.99175785111365" lon="12.073555022675496"><ele>482.0</ele><time>2026-04-12T08:12:44Z</time></trkpt><trkpt lat="42.991729029089214" lon="12.073648501572036"><ele>482.0</ele><time>2026-04-12T08:12:45Z</time></trkpt><trkpt lat="42.991724360124785" lon="12.073736021646907"><ele>482.0</ele><time>2026-04-12T08:12:46Z</time></trkpt><trkpt lat="42.99168110349682" lon="12.073853281275111"><ele>481.99999999999994</ele><time>2026-04-12T08:12:48Z</time></trkpt><trkpt lat="42.99154772241471" lon="12.073801533316752"><ele>482.0</ele><time>2026-04-12T08:12:50Z</time></trkpt><trkpt lat="42.991462846158576" lon="12.07372854927982"><ele>478.99999999999994</ele><time>2026-04-12T08:12:51Z</time></trkpt><trkpt lat="42.9913668110355" lon="12.073667432510677"><ele>476.0</ele><time>2026-04-12T08:12:52Z</time></trkpt><trkpt lat="42.99128862204983" lon="12.073635467499164"><ele>473.0</ele><time>2026-04-12T08:12:53Z</time></trkpt><trkpt lat="42.99121181184897" lon="12.073622358047558"><ele>470.0</ele><time>2026-04-12T08:12:54Z</time></trkpt><trkpt lat="42.99114755289269" lon="12.073633525417701"><ele>466.99999999999994</ele><time>2026-04-12T08:12:55Z</time></trkpt><trkpt lat="42.991090145716626" lon="12.073680521100812"><ele>464.0</ele><time>2026-04-12T08:12:56Z</time></trkpt><trkpt lat="42.99101233099973" lon="12.073702384385095"><ele>463.99999999999994</ele><time>2026-04-12T08:12:58Z</time></trkpt><trkpt lat="42.990936071664606" lon="12.073653825214196"><ele>464.0</ele><time>2026-04-12T08:13:00Z</time></trkpt><trkpt lat="42.990872310058975" lon="12.073558863139619"><ele>464.0</ele><time>2026-04-12T08:13:02Z</time></trkpt><trkpt lat="42.99081003127357" lon="12.073501251154259"><ele>464.0</ele><time>2026-04-12T08:13:04Z</time></trkpt><trkpt lat="42.99070029088533" lon="12.073531784469912"><ele>463.99999999999994</ele><time>2026-04-12T08:13:06Z</time></trkpt><trkpt lat="42.990634409706765" lon="12.07355197501578"><ele>464.0</ele><time>2026-04-12T08:13:07Z</time></trkpt><trkpt lat="42.99050627728024" lon="12.07359987817643"><ele>461.16666666666663</ele><time>2026-04-12T08:13:09Z</time></trkpt><trkpt lat="42.99043004383112" lon="12.073616326135657"><ele>458.3333333333333</ele><time>2026-04-12T08:13:10Z</time></trkpt><trkpt lat="42.9903524769321" lon="12.07363837855627"><ele>455.5</ele><time>2026-04-12T08:13:11Z</time></trkpt><trkpt lat="42.990277726804536" lon="12.073672710742736"><ele>452.66666666666663</ele><time>2026-04-12T08:13:12Z</time></trkpt><trkpt lat="42.990209547149" lon="12.07370213760784"><ele>449.8333333333333</ele><time>2026-04-12T08:13:13Z</time></trkpt><trkpt lat="42.990129398807085" lon="12.073716258876484"><ele>447.0</ele><time>2026-04-12T08:13:14Z</time></trkpt><trkpt lat="42.99005885822562" lon="12.07373578740606"><ele>444.5</ele><time>2026-04-12T08:13:15Z</time></trkpt><trkpt lat="42.98999755294354" lon="12.073768885631834"><ele>442.0</ele><time>2026-04-12T08:13:16Z</time></trkpt><trkpt lat="42.9899882099792" lon="12.073892992611228"><ele>439.5</ele><time>2026-04-12T08:13:18Z</time></trkpt><trkpt lat="42.98995836583731" lon="12.07398158804179"><ele>437.0</ele><time>2026-04-12T08:13:20Z</time></trkpt><trkpt lat="42.98987054392806" lon="12.073975428847755"><ele>434.5</ele><time>2026-04-12T08:13:22Z</time></trkpt><trkpt lat="42.989768810736116" lon="12.074022823309805"><ele>432.0</ele><time>2026-04-12T08:13:24Z</time></trkpt><trkpt lat="42.98967707451336" lon="12.074060946021232"><ele>432.0</ele><time>2026-04-12T08:13:26Z</time></trkpt><trkpt lat="42.98961162243042" lon="12.07402784617264"><ele>432.0</ele><time>2026-04-12T08:13:28Z</time></trkpt><trkpt lat="42.98953975112644" lon="12.07400400289865"><ele>432.0</ele><time>2026-04-12T08:13:30Z</time></trkpt><trkpt lat="42.98947647688325" lon="12.074010394629115"><ele>432.0</ele><time>2026-04-12T08:13:34Z</time></trkpt><trkpt lat="42.98940064562798" lon="12.074009606965571"><ele>432.0</ele><time>2026-04-12T08:14:10Z</time></trkpt><trkpt lat="42.98934637797796" lon="12.074078618655914"><ele>432.0</ele><time>2026-04-12T08:14:12Z</time></trkpt><trkpt lat="42.989295019284725" lon="12.074161989779778"><ele>432.0</ele><time>2026-04-12T08:14:14Z</time></trkpt><trkpt lat="42.989237258206664" lon="12.074271326774706"><ele>430.3333333333333</ele><time>2026-04-12T08:14:16Z</time></trkpt><trkpt lat="42.989129811895324" lon="12.074328332214792"><ele>428.66666666666663</ele><time>2026-04-12T08:14:18Z</time></trkpt><trkpt lat="42.989024375420165" lon="12.074373311652352"><ele>427.0</ele><time>2026-04-12T08:14:20Z</time></trkpt><trkpt lat="42.988970985974234" lon="12.074430184418047"><ele>425.3333333333333</ele><time>2026-04-12T08:14:21Z</time></trkpt><trkpt lat="42.988916501335034" lon="12.074478847443562"><ele>423.66666666666663</ele><time>2026-04-12T08:14:22Z</time></trkpt><trkpt lat="42.98886196506857" lon="12.074532085094086"><ele>422.0</ele><time>2026-04-12T08:14:23Z</time></trkpt><trkpt lat="42.98881032374648" lon="12.0745869982092"><ele>422.0</ele><time>2026-04-12T08:14:24Z</time></trkpt><trkpt lat="42.98875545318138" lon="12.07464531971026"><ele>422.0</ele><time>2026-04-12T08:14:25Z</time></trkpt><trkpt lat="42.98870015211594" lon="12.07470725022024"><ele>422.0</ele><time>2026-04-12T08:14:26Z</time></trkpt><trkpt lat="42.988640164031224" lon="12.07476595416419"><ele>422.0</ele><time>2026-04-12T08:14:27Z</time></trkpt><trkpt lat="42.98858283931738" lon="12.07482569906649"><ele>422.0</ele><time>2026-04-12T08:14:28Z</time></trkpt><trkpt lat="42.9885314141402" lon="12.074897915789663"><ele>422.0</ele><time>2026-04-12T08:14:29Z</time></trkpt><trkpt lat="42.98848380571204" lon="12.074974542500073"><ele>422.0</ele><time>2026-04-12T08:14:30Z</time></trkpt><trkpt lat="42.98843071545982" lon="12.075048420308319"><ele>419.8</ele><time>2026-04-12T08:14:31Z</time></trkpt><trkpt lat="42.988350741263226" lon="12.075133726484236"><ele>417.6</ele><time>2026-04-12T08:14:32Z</time></trkpt><trkpt lat="42.9882646831546" lon="12.075216672638826"><ele>415.40000000000003</ele><time>2026-04-12T08:14:33Z</time></trkpt><trkpt lat="42.988173389819934" lon="12.075296235773639"><ele>413.20000000000005</ele><time>2026-04-12T08:14:34Z</time></trkpt><trkpt lat="42.98807449831344" lon="12.075360246437588"><ele>411.0</ele><time>2026-04-12T08:14:35Z</time></trkpt><trkpt lat="42.98797924941764" lon="12.07541126076292"><ele>410.8</ele><time>2026-04-12T08:14:36Z</time></trkpt><trkpt lat="42.98788320553531" lon="12.07546052567935"><ele>410.6</ele><time>2026-04-12T08:14:37Z</time></trkpt><trkpt lat="42.98778571712631" lon="12.075503145838015"><ele>410.4</ele><time>2026-04-12T08:14:38Z</time></trkpt><trkpt lat="42.987689317765025" lon="12.075544622670769"><ele>410.2</ele><time>2026-04-12T08:14:39Z</time></trkpt><trkpt lat="42.98759033098412" lon="12.075582054096076"><ele>410.0</ele><time>2026-04-12T08:14:40Z</time></trkpt><trkpt lat="42.98749831270853" lon="12.075609775957293"><ele>409.3333333333333</ele><time>2026-04-12T08:14:41Z</time></trkpt><trkpt lat="42.98741321332471" lon="12.075647815791227"><ele>408.66666666666663</ele><time>2026-04-12T08:14:42Z</time></trkpt><trkpt lat="42.98732417895374" lon="12.075688832109943"><ele>408.0</ele><time>2026-04-12T08:14:43Z</time></trkpt><trkpt lat="42.98724178683616" lon="12.075730623132879"><ele>407.33333333333337</ele><time>2026-04-12T08:14:44Z</time></trkpt><trkpt lat="42.9871662580221" lon="12.075778176270227"><ele>406.6666666666667</ele><time>2026-04-12T08:14:45Z</time></trkpt><trkpt lat="42.98709075072096" lon="12.07582961701845"><ele>406.0</ele><time>2026-04-12T08:14:46Z</time></trkpt><trkpt lat="42.98702324319459" lon="12.075875640369093"><ele>406.00000000000006</ele><time>2026-04-12T08:14:47Z</time></trkpt><trkpt lat="42.98694829415587" lon="12.07590086459126"><ele>406.0</ele><time>2026-04-12T08:14:48Z</time></trkpt><trkpt lat="42.986881783983094" lon="12.075890981610986"><ele>406.0</ele><time>2026-04-12T08:14:49Z</time></trkpt><trkpt lat="42.986825038300886" lon="12.075817185633516"><ele>406.0</ele><time>2026-04-12T08:14:50Z</time></trkpt><trkpt lat="42.986767662865944" lon="12.075748156828977"><ele>406.00000000000006</ele><time>2026-04-12T08:14:51Z</time></trkpt><trkpt lat="42.986704719902015" lon="12.07568749734655"><ele>406.0</ele><time>2026-04-12T08:14:52Z</time></trkpt><trkpt lat="42.986635847033966" lon="12.075634802518989"><ele>403.8</ele><time>2026-04-12T08:14:53Z</time></trkpt><trkpt lat="42.98656656791435" lon="12.075675186121934"><ele>401.6</ele><time>2026-04-12T08:14:54Z</time></trkpt><trkpt lat="42.986511086501814" lon="12.075759277869837"><ele>399.4</ele><time>2026-04-12T08:14:55Z</time></trkpt><trkpt lat="42.98647490002754" lon="12.075888961080432"><ele>397.2</ele><time>2026-04-12T08:14:56Z</time></trkpt><trkpt lat="42.98647955070104" lon="12.076036253529972"><ele>395.0</ele><time>2026-04-12T08:14:57Z</time></trkpt><trkpt lat="42.98651003628502" lon="12.076177169459784"><ele>394.8</ele><time>2026-04-12T08:14:58Z</time></trkpt><trkpt lat="42.98655983783688" lon="12.076303069487567"><ele>394.6</ele><time>2026-04-12T08:14:59Z</time></trkpt><trkpt lat="42.98662025683481" lon="12.076411738761582"><ele>394.4</ele><time>2026-04-12T08:15:00Z</time></trkpt><trkpt lat="42.98669985832786" lon="12.07650437505456"><ele>394.2</ele><time>2026-04-12T08:15:01Z</time></trkpt><trkpt lat="42.98677629866036" lon="12.07660262592847"><ele>394.0</ele><time>2026-04-12T08:15:02Z</time></trkpt><trkpt lat="42.986854366298004" lon="12.076699021078936"><ele>393.4</ele><time>2026-04-12T08:15:03Z</time></trkpt><trkpt lat="42.986929397675425" lon="12.07680518062321"><ele>392.79999999999995</ele><time>2026-04-12T08:15:04Z</time></trkpt><trkpt lat="42.987004926423836" lon="12.07691807762987"><ele>392.20000000000005</ele><time>2026-04-12T08:15:05Z</time></trkpt><trkpt lat="42.987074970333225" lon="12.07703102107703"><ele>391.6</ele><time>2026-04-12T08:15:06Z</time></trkpt><trkpt lat="42.98712156616229" lon="12.077146260176196"><ele>391.0</ele><time>2026-04-12T08:15:07Z</time></trkpt><trkpt lat="42.98718839637406" lon="12.077244202697846"><ele>391.00000000000006</ele><time>2026-04-12T08:15:08Z</time></trkpt><trkpt lat="42.98724705724677" lon="12.07732717004828"><ele>391.0</ele><time>2026-04-12T08:15:09Z</time></trkpt><trkpt lat="42.98729718541552" lon="12.077396631401097"><ele>391.0</ele><time>2026-04-12T08:15:10Z</time></trkpt><trkpt lat="42.98734103774824" lon="12.077503398108407"><ele>391.0</ele><time>2026-04-12T08:15:12Z</time></trkpt><trkpt lat="42.98729443734464" lon="12.077568196867944"><ele>391.00000000000006</ele><time>2026-04-12T08:15:13Z</time></trkpt><trkpt lat="42.98722184519727" lon="12.077599950611832"><ele>391.0</ele><time>2026-04-12T08:15:14Z</time></trkpt><trkpt lat="42.98714355436237" lon="12.077563322246498"><ele>389.00000000000006</ele><time>2026-04-12T08:15:15Z</time></trkpt><trkpt lat="42.98705682856767" lon="12.077582164895416"><ele>387.0</ele><time>2026-04-12T08:15:16Z</time></trkpt><trkpt lat="42.98696373431911" lon="12.077577287372195"><ele>385.0</ele><time>2026-04-12T08:15:17Z</time></trkpt><trkpt lat="42.986874748825606" lon="12.0775569955427"><ele>383.0</ele><time>2026-04-12T08:15:18Z</time></trkpt><trkpt lat="42.98678682911023" lon="12.077541749455099"><ele>381.0</ele><time>2026-04-12T08:15:19Z</time></trkpt><trkpt lat="42.986702927269334" lon="12.077516510335219"><ele>379.0</ele><time>2026-04-12T08:15:20Z</time></trkpt><trkpt lat="42.9866128515859" lon="12.077480940631936"><ele>379.79999999999995</ele><time>2026-04-12T08:15:21Z</time></trkpt><trkpt lat="42.986558344622715" lon="12.077370161407874"><ele>380.59999999999997</ele><time>2026-04-12T08:15:22Z</time></trkpt><trkpt lat="42.98649223395062" lon="12.077278334362273"><ele>381.4</ele><time>2026-04-12T08:15:23Z</time></trkpt><trkpt lat="42.98641518615759" lon="12.077190206940879"><ele>382.2</ele><time>2026-04-12T08:15:24Z</time></trkpt><trkpt lat="42.9863476491943" lon="12.077077037318663"><ele>383.0</ele><time>2026-04-12T08:15:25Z</time></trkpt><trkpt lat="42.986262034271384" lon="12.076977333870614"><ele>383.0</ele><time>2026-04-12T08:15:26Z</time></trkpt><trkpt lat="42.98617993488301" lon="12.0768950967375"><ele>383.0</ele><time>2026-04-12T08:15:27Z</time></trkpt><trkpt lat="42.986090973336864" lon="12.07684233543127"><ele>383.0</ele><time>2026-04-12T08:15:28Z</time></trkpt><trkpt lat="42.985998204725874" lon="12.076775867141619"><ele>383.0</ele><time>2026-04-12T08:15:29Z</time></trkpt><trkpt lat="42.98591066893617" lon="12.076711393738375"><ele>383.0</ele><time>2026-04-12T08:15:30Z</time></trkpt><trkpt lat="42.98583887116008" lon="12.076623183973103"><ele>381.79999999999995</ele><time>2026-04-12T08:15:31Z</time></trkpt><trkpt lat="42.98576161719315" lon="12.076540981328632"><ele>380.6</ele><time>2026-04-12T08:15:32Z</time></trkpt><trkpt lat="42.98568355235537" lon="12.076449272028933"><ele>379.4</ele><time>2026-04-12T08:15:33Z</time></trkpt><trkpt lat="42.985608154481234" lon="12.076361911462254"><ele>378.20000000000005</ele><time>2026-04-12T08:15:34Z</time></trkpt><trkpt lat="42.985534733180245" lon="12.076278779430787"><ele>377.0</ele><time>2026-04-12T08:15:35Z</time></trkpt><trkpt lat="42.98546470470516" lon="12.076201485028887"><ele>377.0</ele><time>2026-04-12T08:15:36Z</time></trkpt><trkpt lat="42.98539363778114" lon="12.076125497272633"><ele>377.0</ele><time>2026-04-12T08:15:37Z</time></trkpt><trkpt lat="42.985313571912755" lon="12.07605029148039"><ele>377.0</ele><time>2026-04-12T08:15:38Z</time></trkpt><trkpt lat="42.985227410704674" lon="12.075979101854488"><ele>377.0</ele><time>2026-04-12T08:15:39Z</time></trkpt><trkpt lat="42.98514058941819" lon="12.075912086968989"><ele>377.0</ele><time>2026-04-12T08:15:40Z</time></trkpt><trkpt lat="42.9850523553849" lon="12.07584495017309"><ele>373.8</ele><time>2026-04-12T08:15:41Z</time></trkpt><trkpt lat="42.984963290719264" lon="12.075779039013957"><ele>370.6</ele><time>2026-04-12T08:15:42Z</time></trkpt><trkpt lat="42.9848776049015" lon="12.07571562832801"><ele>367.40000000000003</ele><time>2026-04-12T08:15:43Z</time></trkpt><trkpt lat="42.98480240951535" lon="12.07565995698464"><ele>364.20000000000005</ele><time>2026-04-12T08:15:44Z</time></trkpt><trkpt lat="42.98471266894623" lon="12.075656076161701"><ele>361.0</ele><time>2026-04-12T08:15:45Z</time></trkpt><trkpt lat="42.98463054125188" lon="12.075681664698314"><ele>361.0</ele><time>2026-04-12T08:15:46Z</time></trkpt><trkpt lat="42.98456325049276" lon="12.075747727027716"><ele>361.0</ele><time>2026-04-12T08:15:47Z</time></trkpt><trkpt lat="42.984522115769174" lon="12.07587026165428"><ele>361.0</ele><time>2026-04-12T08:15:48Z</time></trkpt><trkpt lat="42.9845100172352" lon="12.076007425974586"><ele>361.0</ele><time>2026-04-12T08:15:49Z</time></trkpt><trkpt lat="42.98447897766153" lon="12.07613263342087"><ele>361.0</ele><time>2026-04-12T08:15:50Z</time></trkpt><trkpt lat="42.98445126370988" lon="12.076256700157312"><ele>361.0</ele><time>2026-04-12T08:15:51Z</time></trkpt><trkpt lat="42.98442288808229" lon="12.076380032800836"><ele>361.0</ele><time>2026-04-12T08:15:52Z</time></trkpt><trkpt lat="42.984402329220565" lon="12.07649967570133"><ele>361.0</ele><time>2026-04-12T08:15:53Z</time></trkpt><trkpt lat="42.98435254725083" lon="12.076595037954327"><ele>361.0</ele><time>2026-04-12T08:15:54Z</time></trkpt><trkpt lat="42.98429349343221" lon="12.076681623291423"><ele>361.0</ele><time>2026-04-12T08:15:55Z</time></trkpt><trkpt lat="42.98421953489978" lon="12.076759992023774"><ele>358.0</ele><time>2026-04-12T08:15:56Z</time></trkpt><trkpt lat="42.984129362563436" lon="12.076826967474194"><ele>355.0</ele><time>2026-04-12T08:15:57Z</time></trkpt><trkpt lat="42.984030723270784" lon="12.07691211109231"><ele>352.0</ele><time>2026-04-12T08:15:58Z</time></trkpt><trkpt lat="42.98393037321665" lon="12.077006166292321"><ele>349.0</ele><time>2026-04-12T08:15:59Z</time></trkpt><trkpt lat="42.983821399176584" lon="12.077101223708071"><ele>349.0</ele><time>2026-04-12T08:16:00Z</time></trkpt><trkpt lat="42.98372012434343" lon="12.077177174278608"><ele>349.0</ele><time>2026-04-12T08:16:01Z</time></trkpt><trkpt lat="42.98361711327916" lon="12.077225213144947"><ele>349.0</ele><time>2026-04-12T08:16:02Z</time></trkpt><trkpt lat="42.98351235818814" lon="12.0772602076396"><ele>349.0</ele><time>2026-04-12T08:16:03Z</time></trkpt><trkpt lat="42.983411371377784" lon="12.077294305184639"><ele>349.0</ele><time>2026-04-12T08:16:04Z</time></trkpt><trkpt lat="42.983309600519426" lon="12.077335808998729"><ele>347.6</ele><time>2026-04-12T08:16:05Z</time></trkpt><trkpt lat="42.98321482596268" lon="12.077404088629713"><ele>346.2</ele><time>2026-04-12T08:16:06Z</time></trkpt><trkpt lat="42.98314083453795" lon="12.077492944991839"><ele>344.8</ele><time>2026-04-12T08:16:07Z</time></trkpt><trkpt lat="42.983073075054826" lon="12.077607175092282"><ele>343.40000000000003</ele><time>2026-04-12T08:16:08Z</time></trkpt><trkpt lat="42.98299918125204" lon="12.077715337766035"><ele>342.0</ele><time>2026-04-12T08:16:09Z</time></trkpt><trkpt lat="42.982915938877056" lon="12.077817412525015"><ele>342.0</ele><time>2026-04-12T08:16:10Z</time></trkpt><trkpt lat="42.98283400858734" lon="12.077927953728953"><ele>342.0</ele><time>2026-04-12T08:16:11Z</time></trkpt><trkpt lat="42.9827539104362" lon="12.078046347767652"><ele>342.0</ele><time>2026-04-12T08:16:12Z</time></trkpt><trkpt lat="42.98266941349925" lon="12.078154512535615"><ele>342.0</ele><time>2026-04-12T08:16:13Z</time></trkpt><trkpt lat="42.98257706654935" lon="12.078256024488718"><ele>341.25</ele><time>2026-04-12T08:16:14Z</time></trkpt><trkpt lat="42.98249046358177" lon="12.078370813955706"><ele>340.5</ele><time>2026-04-12T08:16:15Z</time></trkpt><trkpt lat="42.98241548999134" lon="12.078500485763445"><ele>339.75</ele><time>2026-04-12T08:16:16Z</time></trkpt><trkpt lat="42.982359855095474" lon="12.078638182476439"><ele>339.0</ele><time>2026-04-12T08:16:17Z</time></trkpt><trkpt lat="42.98230407343055" lon="12.0787639978053"><ele>339.0</ele><time>2026-04-12T08:16:18Z</time></trkpt><trkpt lat="42.98225216535186" lon="12.07887644615655"><ele>339.0</ele><time>2026-04-12T08:16:19Z</time></trkpt><trkpt lat="42.982207406684594" lon="12.07898883980006"><ele>339.0</ele><time>2026-04-12T08:16:20Z</time></trkpt><trkpt lat="42.982161899709475" lon="12.079117986066018"><ele>339.0</ele><time>2026-04-12T08:16:21Z</time></trkpt><trkpt lat="42.98212951656706" lon="12.079253550718688"><ele>339.0</ele><time>2026-04-12T08:16:22Z</time></trkpt><trkpt lat="42.98210175718799" lon="12.079386111663958"><ele>339.0</ele><time>2026-04-12T08:16:23Z</time></trkpt><trkpt lat="42.98205429863672" lon="12.079468946557759"><ele>339.0</ele><time>2026-04-12T08:16:24Z</time></trkpt><trkpt lat="42.98201644534661" lon="12.079555250924175"><ele>339.0</ele><time>2026-04-12T08:16:25Z</time></trkpt><trkpt lat="42.98194084481981" lon="12.079580699018717"><ele>339.0</ele><time>2026-04-12T08:16:26Z</time></trkpt><trkpt lat="42.98185923461982" lon="12.079548208664665"><ele>339.0</ele><time>2026-04-12T08:16:27Z</time></trkpt><trkpt lat="42.98177572382622" lon="12.07948838492115"><ele>339.0</ele><time>2026-04-12T08:16:28Z</time></trkpt><trkpt lat="42.98168854351924" lon="12.079417265425155"><ele>340.6666666666667</ele><time>2026-04-12T08:16:29Z</time></trkpt><trkpt lat="42.98159906199059" lon="12.079355447159589"><ele>342.3333333333333</ele><time>2026-04-12T08:16:30Z</time></trkpt><trkpt lat="42.98152012744074" lon="12.079296246824542"><ele>344.0</ele><time>2026-04-12T08:16:31Z</time></trkpt><trkpt lat="42.981441838338945" lon="12.079249026923696"><ele>345.66666666666663</ele><time>2026-04-12T08:16:32Z</time></trkpt><trkpt lat="42.98137083859" lon="12.079249486122068"><ele>347.3333333333333</ele><time>2026-04-12T08:16:33Z</time></trkpt><trkpt lat="42.98130855715926" lon="12.079297909266035"><ele>349.0</ele><time>2026-04-12T08:16:34Z</time></trkpt><trkpt lat="42.98126929854181" lon="12.079386714842318"><ele>349.0</ele><time>2026-04-12T08:16:35Z</time></trkpt><trkpt lat="42.981259146812754" lon="12.079499867063928"><ele>349.0</ele><time>2026-04-12T08:16:36Z</time></trkpt><trkpt lat="42.98126495947021" lon="12.079616241123297"><ele>349.0</ele><time>2026-04-12T08:16:37Z</time></trkpt><trkpt lat="42.98123756117869" lon="12.079750664838523"><ele>349.0</ele><time>2026-04-12T08:16:38Z</time></trkpt><trkpt lat="42.98120861443841" lon="12.079903370549644"><ele>349.0</ele><time>2026-04-12T08:16:39Z</time></trkpt><trkpt lat="42.981170279633304" lon="12.080065342029911"><ele>351.79999999999995</ele><time>2026-04-12T08:16:40Z</time></trkpt><trkpt lat="42.9811314088508" lon="12.080210865638298"><ele>354.59999999999997</ele><time>2026-04-12T08:16:41Z</time></trkpt><trkpt lat="42.98108698512609" lon="12.080324055347315"><ele>357.4</ele><time>2026-04-12T08:16:42Z</time></trkpt><trkpt lat="42.98104820783215" lon="12.08043771473432"><ele>360.2</ele><time>2026-04-12T08:16:43Z</time></trkpt><trkpt lat="42.98102659157316" lon="12.080550598832827"><ele>363.0</ele><time>2026-04-12T08:16:44Z</time></trkpt><trkpt lat="42.98102152702105" lon="12.080667236602517"><ele>362.59999999999997</ele><time>2026-04-12T08:16:45Z</time></trkpt><trkpt lat="42.98101872270006" lon="12.080776999274576"><ele>362.2</ele><time>2026-04-12T08:16:46Z</time></trkpt><trkpt lat="42.98099898816313" lon="12.080893384883082"><ele>361.8</ele><time>2026-04-12T08:16:47Z</time></trkpt><trkpt lat="42.98094389557637" lon="12.081010638096997"><ele>361.4</ele><time>2026-04-12T08:16:48Z</time></trkpt><trkpt lat="42.98088880185445" lon="12.081136782481428"><ele>361.0</ele><time>2026-04-12T08:16:49Z</time></trkpt><trkpt lat="42.98082812468306" lon="12.081258443611897"><ele>361.0</ele><time>2026-04-12T08:16:50Z</time></trkpt><trkpt lat="42.98077762144329" lon="12.08139229114382"><ele>361.0</ele><time>2026-04-12T08:16:51Z</time></trkpt><trkpt lat="42.98071553483218" lon="12.08151862958864"><ele>361.0</ele><time>2026-04-12T08:16:52Z</time></trkpt><trkpt lat="42.980652384880294" lon="12.081649998792928"><ele>361.0</ele><time>2026-04-12T08:16:53Z</time></trkpt><trkpt lat="42.980589542234604" lon="12.081779946806039"><ele>358.8</ele><time>2026-04-12T08:16:54Z</time></trkpt><trkpt lat="42.9805292370357" lon="12.081910655373648"><ele>356.6</ele><time>2026-04-12T08:16:55Z</time></trkpt><trkpt lat="42.98047198789132" lon="12.08204391424626"><ele>354.4</ele><time>2026-04-12T08:16:56Z</time></trkpt><trkpt lat="42.98041020309542" lon="12.082172797382029"><ele>352.2</ele><time>2026-04-12T08:16:57Z</time></trkpt><trkpt lat="42.98035306239207" lon="12.08229950943733"><ele>350.0</ele><time>2026-04-12T08:16:58Z</time></trkpt><trkpt lat="42.98029968758714" lon="12.082425958122652"><ele>346.0</ele><time>2026-04-12T08:16:59Z</time></trkpt><trkpt lat="42.98024207613206" lon="12.082553999310383"><ele>342.0</ele><time>2026-04-12T08:17:00Z</time></trkpt><trkpt lat="42.98018700104048" lon="12.082688780845023"><ele>338.0</ele><time>2026-04-12T08:17:01Z</time></trkpt><trkpt lat="42.98014127773472" lon="12.082831843589984"><ele>334.0</ele><time>2026-04-12T08:17:02Z</time></trkpt><trkpt lat="42.98009297376439" lon="12.082979282930363"><ele>334.0</ele><time>2026-04-12T08:17:03Z</time></trkpt><trkpt lat="42.98004328559923" lon="12.083131433486738"><ele>334.0</ele><time>2026-04-12T08:17:04Z</time></trkpt><trkpt lat="42.97998787126799" lon="12.083287664525258"><ele>334.0</ele><time>2026-04-12T08:17:05Z</time></trkpt><trkpt lat="42.97993178863818" lon="12.083435680289682"><ele>334.0</ele><time>2026-04-12T08:17:06Z</time></trkpt><trkpt lat="42.979873506327856" lon="12.08358475985276"><ele>333.75</ele><time>2026-04-12T08:17:07Z</time></trkpt><trkpt lat="42.979812531551396" lon="12.083736260588932"><ele>333.5</ele><time>2026-04-12T08:17:08Z</time></trkpt><trkpt lat="42.97974539641954" lon="12.08388214832616"><ele>333.25</ele><time>2026-04-12T08:17:09Z</time></trkpt><trkpt lat="42.97966932939518" lon="12.084025564973352"><ele>333.0</ele><time>2026-04-12T08:17:10Z</time></trkpt><trkpt lat="42.97958328912648" lon="12.084150529771069"><ele>333.0</ele><time>2026-04-12T08:17:11Z</time></trkpt><trkpt lat="42.979483066617135" lon="12.08423551957111"><ele>333.0</ele><time>2026-04-12T08:17:12Z</time></trkpt><trkpt lat="42.979380336469546" lon="12.08428668547459"><ele>333.0</ele><time>2026-04-12T08:17:13Z</time></trkpt><trkpt lat="42.97927246576047" lon="12.084314744633124"><ele>333.0</ele><time>2026-04-12T08:17:14Z</time></trkpt><trkpt lat="42.97916694265373" lon="12.084342150745893"><ele>333.0</ele><time>2026-04-12T08:17:15Z</time></trkpt><trkpt lat="42.979066012785694" lon="12.084394625512223"><ele>333.5</ele><time>2026-04-12T08:17:16Z</time></trkpt><trkpt lat="42.97896807107205" lon="12.084472855901753"><ele>334.0</ele><time>2026-04-12T08:17:17Z</time></trkpt><trkpt lat="42.978874004906636" lon="12.084576710857869"><ele>334.5</ele><time>2026-04-12T08:17:18Z</time></trkpt><trkpt lat="42.978787806339206" lon="12.084696718770266"><ele>335.0</ele><time>2026-04-12T08:17:19Z</time></trkpt><trkpt lat="42.97870620391491" lon="12.084820650742563"><ele>334.6</ele><time>2026-04-12T08:17:20Z</time></trkpt><trkpt lat="42.97862298317476" lon="12.084936898743576"><ele>334.2</ele><time>2026-04-12T08:17:21Z</time></trkpt><trkpt lat="42.97855641796096" lon="12.085059974713218"><ele>333.79999999999995</ele><time>2026-04-12T08:17:22Z</time></trkpt><trkpt lat="42.97851297144657" lon="12.08519117765971"><ele>333.4</ele><time>2026-04-12T08:17:23Z</time></trkpt><trkpt lat="42.97846765176435" lon="12.085308469457633"><ele>333.0</ele><time>2026-04-12T08:17:24Z</time></trkpt><trkpt lat="42.97842951058452" lon="12.085419117593261"><ele>333.0</ele><time>2026-04-12T08:17:25Z</time></trkpt><trkpt lat="42.97838823905155" lon="12.085532715730762"><ele>333.0</ele><time>2026-04-12T08:17:26Z</time></trkpt><trkpt lat="42.97830993471038" lon="12.085621216487802"><ele>333.0</ele><time>2026-04-12T08:17:27Z</time></trkpt><trkpt lat="42.97822024529263" lon="12.085690297796262"><ele>333.0</ele><time>2026-04-12T08:17:28Z</time></trkpt><trkpt lat="42.978128296624725" lon="12.085760849271916"><ele>333.0</ele><time>2026-04-12T08:17:29Z</time></trkpt><trkpt lat="42.97802730521616" lon="12.085825274243685"><ele>333.59999999999997</ele><time>2026-04-12T08:17:30Z</time></trkpt><trkpt lat="42.97793379283911" lon="12.085882538125281"><ele>334.2</ele><time>2026-04-12T08:17:31Z</time></trkpt><trkpt lat="42.977840106764056" lon="12.085935075532943"><ele>334.8</ele><time>2026-04-12T08:17:32Z</time></trkpt><trkpt lat="42.97774802258545" lon="12.085982551505948"><ele>335.4</ele><time>2026-04-12T08:17:33Z</time></trkpt><trkpt lat="42.977657965247786" lon="12.086033292103044"><ele>336.0</ele><time>2026-04-12T08:17:34Z</time></trkpt><trkpt lat="42.977567831687956" lon="12.08607202310284"><ele>334.8</ele><time>2026-04-12T08:17:35Z</time></trkpt><trkpt lat="42.977476700131874" lon="12.086132804410642"><ele>333.6</ele><time>2026-04-12T08:17:36Z</time></trkpt><trkpt lat="42.97739714163636" lon="12.086223767259618"><ele>332.4</ele><time>2026-04-12T08:17:37Z</time></trkpt><trkpt lat="42.977310263511185" lon="12.086307273894082"><ele>331.2</ele><time>2026-04-12T08:17:38Z</time></trkpt><trkpt lat="42.97724953801217" lon="12.086441340167319"><ele>330.0</ele><time>2026-04-12T08:17:39Z</time></trkpt><trkpt lat="42.977200530391954" lon="12.086571484316433"><ele>328.2</ele><time>2026-04-12T08:17:40Z</time></trkpt><trkpt lat="42.977163124982205" lon="12.086692293347793"><ele>326.4</ele><time>2026-04-12T08:17:41Z</time></trkpt><trkpt lat="42.977135555117385" lon="12.086820028016456"><ele>324.6</ele><time>2026-04-12T08:17:42Z</time></trkpt><trkpt lat="42.97713426647503" lon="12.086955852876445"><ele>322.8</ele><time>2026-04-12T08:17:43Z</time></trkpt><trkpt lat="42.97716872370547" lon="12.087102498153232"><ele>321.0</ele><time>2026-04-12T08:17:44Z</time></trkpt><trkpt lat="42.97723981469676" lon="12.087233132094129"><ele>321.0</ele><time>2026-04-12T08:17:45Z</time></trkpt><trkpt lat="42.97729642024628" lon="12.087340964946486"><ele>321.0</ele><time>2026-04-12T08:17:46Z</time></trkpt><trkpt lat="42.97734321374751" lon="12.087441606422225"><ele>321.0</ele><time>2026-04-12T08:17:47Z</time></trkpt><trkpt lat="42.97737585879771" lon="12.087551083644838"><ele>321.0</ele><time>2026-04-12T08:17:48Z</time></trkpt><trkpt lat="42.97734299391329" lon="12.087672734770356"><ele>321.0</ele><time>2026-04-12T08:17:49Z</time></trkpt><trkpt lat="42.9772927060829" lon="12.087795941162394"><ele>319.6</ele><time>2026-04-12T08:17:50Z</time></trkpt><trkpt lat="42.97726529714372" lon="12.087920858547882"><ele>318.20000000000005</ele><time>2026-04-12T08:17:51Z</time></trkpt><trkpt lat="42.97724191474657" lon="12.088055776662435"><ele>316.79999999999995</ele><time>2026-04-12T08:17:52Z</time></trkpt><trkpt lat="42.97725920170177" lon="12.0882054839406"><ele>315.4</ele><time>2026-04-12T08:17:53Z</time></trkpt><trkpt lat="42.97728606672289" lon="12.088346454798302"><ele>314.0</ele><time>2026-04-12T08:17:54Z</time></trkpt><trkpt lat="42.97731619438311" lon="12.088475969053443"><ele>312.1666666666667</ele><time>2026-04-12T08:17:55Z</time></trkpt><trkpt lat="42.97735275865949" lon="12.088598632844814"><ele>310.33333333333337</ele><time>2026-04-12T08:17:56Z</time></trkpt><trkpt lat="42.977397909767475" lon="12.088717081198494"><ele>308.5</ele><time>2026-04-12T08:17:57Z</time></trkpt><trkpt lat="42.977437615458896" lon="12.088822121905366"><ele>306.6666666666667</ele><time>2026-04-12T08:17:58Z</time></trkpt><trkpt lat="42.97748576491423" lon="12.088913544469927"><ele>304.8333333333333</ele><time>2026-04-12T08:17:59Z</time></trkpt><trkpt lat="42.97749049612185" lon="12.089002912560302"><ele>303.0</ele><time>2026-04-12T08:18:00Z</time></trkpt><trkpt lat="42.97746890427774" lon="12.089085558680265"><ele>301.0</ele><time>2026-04-12T08:18:01Z</time></trkpt><trkpt lat="42.97741045691359" lon="12.089140489119815"><ele>299.0</ele><time>2026-04-12T08:18:02Z</time></trkpt><trkpt lat="42.97732873395839" lon="12.089156928601506"><ele>297.0</ele><time>2026-04-12T08:18:03Z</time></trkpt><trkpt lat="42.97724359015497" lon="12.089167401259532"><ele>295.0</ele><time>2026-04-12T08:18:04Z</time></trkpt><trkpt lat="42.97715730483225" lon="12.089182084290151"><ele>293.0</ele><time>2026-04-12T08:18:05Z</time></trkpt><trkpt lat="42.97706448839327" lon="12.08916477645586"><ele>291.0</ele><time>2026-04-12T08:18:06Z</time></trkpt><trkpt lat="42.976975077587696" lon="12.089119435216471"><ele>292.2</ele><time>2026-04-12T08:18:07Z</time></trkpt><trkpt lat="42.976885113901346" lon="12.089063421363376"><ele>293.40000000000003</ele><time>2026-04-12T08:18:08Z</time></trkpt><trkpt lat="42.97679128677754" lon="12.088997869683798"><ele>294.6</ele><time>2026-04-12T08:18:09Z</time></trkpt><trkpt lat="42.97670256085369" lon="12.0889309041931"><ele>295.8</ele><time>2026-04-12T08:18:10Z</time></trkpt><trkpt lat="42.97661690873556" lon="12.088861201480615"><ele>297.0</ele><time>2026-04-12T08:18:11Z</time></trkpt><trkpt lat="42.97653169780171" lon="12.088786436908807"><ele>297.0</ele><time>2026-04-12T08:18:12Z</time></trkpt><trkpt lat="42.97645025551561" lon="12.088699595595381"><ele>297.0</ele><time>2026-04-12T08:18:13Z</time></trkpt><trkpt lat="42.976373701186546" lon="12.088598604702485"><ele>297.0</ele><time>2026-04-12T08:18:14Z</time></trkpt><trkpt lat="42.97630531883909" lon="12.088486651556986"><ele>297.0</ele><time>2026-04-12T08:18:15Z</time></trkpt><trkpt lat="42.97624375805353" lon="12.08837144324426"><ele>297.0</ele><time>2026-04-12T08:18:16Z</time></trkpt><trkpt lat="42.97618212087092" lon="12.088257873870639"><ele>299.4</ele><time>2026-04-12T08:18:17Z</time></trkpt><trkpt lat="42.976123676701256" lon="12.088144970618691"><ele>301.79999999999995</ele><time>2026-04-12T08:18:18Z</time></trkpt><trkpt lat="42.97606613077039" lon="12.088032295848857"><ele>304.2</ele><time>2026-04-12T08:18:19Z</time></trkpt><trkpt lat="42.97600503379899" lon="12.087919344308446"><ele>306.59999999999997</ele><time>2026-04-12T08:18:20Z</time></trkpt><trkpt lat="42.97594010373979" lon="12.087808917061162"><ele>309.0</ele><time>2026-04-12T08:18:21Z</time></trkpt><trkpt lat="42.975874786135115" lon="12.087700684341822"><ele>307.4</ele><time>2026-04-12T08:18:22Z</time></trkpt><trkpt lat="42.97580390230579" lon="12.087602868077852"><ele>305.79999999999995</ele><time>2026-04-12T08:18:23Z</time></trkpt><trkpt lat="42.975725983580396" lon="12.087519619376813"><ele>304.20000000000005</ele><time>2026-04-12T08:18:24Z</time></trkpt><trkpt lat="42.97564643610545" lon="12.087454027452988"><ele>302.6</ele><time>2026-04-12T08:18:25Z</time></trkpt><trkpt lat="42.97557686597907" lon="12.087382260248228"><ele>301.0</ele><time>2026-04-12T08:18:26Z</time></trkpt><trkpt lat="42.9754980084947" lon="12.08733184857526"><ele>301.0</ele><time>2026-04-12T08:18:27Z</time></trkpt><trkpt lat="42.97541388448956" lon="12.087307252605576"><ele>301.0</ele><time>2026-04-12T08:18:28Z</time></trkpt><trkpt lat="42.975345203823224" lon="12.087262344933647"><ele>301.0</ele><time>2026-04-12T08:18:29Z</time></trkpt><trkpt lat="42.97527943076783" lon="12.087214738431054"><ele>301.0</ele><time>2026-04-12T08:18:30Z</time></trkpt><trkpt lat="42.97520827279644" lon="12.087179098934758"><ele>301.0</ele><time>2026-04-12T08:18:31Z</time></trkpt><trkpt lat="42.97513936461258" lon="12.087145384743117"><ele>301.0</ele><time>2026-04-12T08:18:32Z</time></trkpt><trkpt lat="42.97506448082049" lon="12.087098613261352"><ele>298.5</ele><time>2026-04-12T08:18:33Z</time></trkpt><trkpt lat="42.97499567272186" lon="12.087048633186168"><ele>296.0</ele><time>2026-04-12T08:18:34Z</time></trkpt><trkpt lat="42.97493053073877" lon="12.08699959236758"><ele>293.5</ele><time>2026-04-12T08:18:35Z</time></trkpt><trkpt lat="42.97487227850664" lon="12.08694916050374"><ele>291.0</ele><time>2026-04-12T08:18:36Z</time></trkpt><trkpt lat="42.97477580561677" lon="12.086871343845992"><ele>288.5</ele><time>2026-04-12T08:18:38Z</time></trkpt><trkpt lat="42.97472186843038" lon="12.086826539983461"><ele>286.0</ele><time>2026-04-12T08:18:40Z</time></trkpt><trkpt lat="42.974659695124615" lon="12.086847041357611"><ele>286.0</ele><time>2026-04-12T08:20:52Z</time></trkpt><trkpt lat="42.97464410503782" lon="12.086988569786753"><ele>286.0</ele><time>2026-04-12T08:20:54Z</time></trkpt><trkpt lat="42.97465920754546" lon="12.087166651142413"><ele>286.0</ele><time>2026-04-12T08:20:56Z</time></trkpt><trkpt lat="42.974661039320274" lon="12.087276993512859"><ele>286.0</ele><time>2026-04-12T08:20:57Z</time></trkpt><trkpt lat="42.97466437123531" lon="12.08738565213353"><ele>286.0</ele><time>2026-04-12T08:20:58Z</time></trkpt><trkpt lat="42.97467352198978" lon="12.087500681094857"><ele>285.8333333333333</ele><time>2026-04-12T08:20:59Z</time></trkpt><trkpt lat="42.97467643193005" lon="12.087614365074527"><ele>285.66666666666663</ele><time>2026-04-12T08:21:00Z</time></trkpt><trkpt lat="42.97467478667208" lon="12.087720255143054"><ele>285.5</ele><time>2026-04-12T08:21:01Z</time></trkpt><trkpt lat="42.97467347023465" lon="12.087838811625154"><ele>285.3333333333333</ele><time>2026-04-12T08:21:02Z</time></trkpt><trkpt lat="42.97467483719061" lon="12.087959629823429"><ele>285.1666666666667</ele><time>2026-04-12T08:21:03Z</time></trkpt><trkpt lat="42.974675709353534" lon="12.088081621169215"><ele>285.0</ele><time>2026-04-12T08:21:04Z</time></trkpt><trkpt lat="42.974675550730815" lon="12.088214303233716"><ele>284.4</ele><time>2026-04-12T08:21:05Z</time></trkpt><trkpt lat="42.97467944419964" lon="12.088350022771538"><ele>283.8</ele><time>2026-04-12T08:21:06Z</time></trkpt><trkpt lat="42.97469067045241" lon="12.088496231865847"><ele>283.2</ele><time>2026-04-12T08:21:07Z</time></trkpt><trkpt lat="42.97470986119682" lon="12.088646925991885"><ele>282.6</ele><time>2026-04-12T08:21:08Z</time></trkpt><trkpt lat="42.974739355079116" lon="12.088801122292757"><ele>282.0</ele><time>2026-04-12T08:21:09Z</time></trkpt><trkpt lat="42.97478278277298" lon="12.088950536795153"><ele>282.0</ele><time>2026-04-12T08:21:10Z</time></trkpt><trkpt lat="42.97483871120372" lon="12.089085073908015"><ele>282.0</ele><time>2026-04-12T08:21:11Z</time></trkpt><trkpt lat="42.97490253999521" lon="12.089209317906343"><ele>282.0</ele><time>2026-04-12T08:21:12Z</time></trkpt><trkpt lat="42.97497674932183" lon="12.089330860738087"><ele>282.0</ele><time>2026-04-12T08:21:13Z</time></trkpt><trkpt lat="42.97506653917468" lon="12.089451639181231"><ele>282.0</ele><time>2026-04-12T08:21:14Z</time></trkpt><trkpt lat="42.97516112048368" lon="12.089549669096726"><ele>282.0</ele><time>2026-04-12T08:21:15Z</time></trkpt><trkpt lat="42.975253086338626" lon="12.089630810608156"><ele>282.0</ele><time>2026-04-12T08:21:16Z</time></trkpt><trkpt lat="42.97534696662186" lon="12.089705710232098"><ele>282.0</ele><time>2026-04-12T08:21:17Z</time></trkpt><trkpt lat="42.9754454242112" lon="12.089782440464754"><ele>282.0</ele><time>2026-04-12T08:21:18Z</time></trkpt><trkpt lat="42.97554982392795" lon="12.08986288018253"><ele>282.0</ele><time>2026-04-12T08:21:19Z</time></trkpt><trkpt lat="42.97565629336349" lon="12.089946082913212"><ele>282.0</ele><time>2026-04-12T08:21:20Z</time></trkpt><trkpt lat="42.97576262940787" lon="12.090033295777879"><ele>282.0</ele><time>2026-04-12T08:21:21Z</time></trkpt><trkpt lat="42.97586739044334" lon="12.090118143580884"><ele>282.0</ele><time>2026-04-12T08:21:22Z</time></trkpt><trkpt lat="42.97597174617162" lon="12.09020005474735"><ele>282.0</ele><time>2026-04-12T08:21:23Z</time></trkpt><trkpt lat="42.976079095602294" lon="12.090284711841614"><ele>282.0</ele><time>2026-04-12T08:21:24Z</time></trkpt><trkpt lat="42.97619107485463" lon="12.090374279886314"><ele>282.0</ele><time>2026-04-12T08:21:25Z</time></trkpt><trkpt lat="42.976315067700845" lon="12.09046668176619"><ele>282.0</ele><time>2026-04-12T08:21:26Z</time></trkpt><trkpt lat="42.97644257316791" lon="12.090563663777676"><ele>282.0</ele><time>2026-04-12T08:21:27Z</time></trkpt><trkpt lat="42.976567097813465" lon="12.090660481455666"><ele>282.0</ele><time>2026-04-12T08:21:28Z</time></trkpt><trkpt lat="42.97669339959351" lon="12.090759194315428"><ele>282.0</ele><time>2026-04-12T08:21:29Z</time></trkpt><trkpt lat="42.97682429336131" lon="12.090867913941924"><ele>282.0</ele><time>2026-04-12T08:21:30Z</time></trkpt><trkpt lat="42.97695397511482" lon="12.09097945769755"><ele>282.0</ele><time>2026-04-12T08:21:31Z</time></trkpt><trkpt lat="42.9770741735191" lon="12.091092662058191"><ele>282.0</ele><time>2026-04-12T08:21:32Z</time></trkpt><trkpt lat="42.977182515355466" lon="12.091209925707096"><ele>282.0</ele><time>2026-04-12T08:21:33Z</time></trkpt><trkpt lat="42.977283367084965" lon="12.091320692903928"><ele>282.0</ele><time>2026-04-12T08:21:34Z</time></trkpt><trkpt lat="42.97737728445736" lon="12.091433364925555"><ele>282.0</ele><time>2026-04-12T08:21:35Z</time></trkpt><trkpt lat="42.97746773215162" lon="12.091552993169463"><ele>282.0</ele><time>2026-04-12T08:21:36Z</time></trkpt><trkpt lat="42.97755990364994" lon="12.091678069258547"><ele>282.0</ele><time>2026-04-12T08:21:37Z</time></trkpt><trkpt lat="42.977654436580366" lon="12.091802914011186"><ele>281.5</ele><time>2026-04-12T08:21:38Z</time></trkpt><trkpt lat="42.977744600068746" lon="12.091934023294096"><ele>281.0</ele><time>2026-04-12T08:21:39Z</time></trkpt><trkpt lat="42.97784207088086" lon="12.092053244394814"><ele>280.5</ele><time>2026-04-12T08:21:40Z</time></trkpt><trkpt lat="42.977940797299986" lon="12.092177291338166"><ele>280.0</ele><time>2026-04-12T08:21:41Z</time></trkpt><trkpt lat="42.97803896952673" lon="12.09230506004561"><ele>279.0</ele><time>2026-04-12T08:21:42Z</time></trkpt><trkpt lat="42.97813675985979" lon="12.092430044526473"><ele>278.0</ele><time>2026-04-12T08:21:43Z</time></trkpt><trkpt lat="42.97823649938474" lon="12.092546942813364"><ele>277.0</ele><time>2026-04-12T08:21:44Z</time></trkpt><trkpt lat="42.978339810501744" lon="12.092655943220482"><ele>276.0</ele><time>2026-04-12T08:21:45Z</time></trkpt><trkpt lat="42.97844948367998" lon="12.092761107389991"><ele>278.0</ele><time>2026-04-12T08:21:46Z</time></trkpt><trkpt lat="42.97856792013104" lon="12.092852279175524"><ele>280.0</ele><time>2026-04-12T08:21:47Z</time></trkpt><trkpt lat="42.978687697161526" lon="12.092936634336283"><ele>282.0</ele><time>2026-04-12T08:21:48Z</time></trkpt><trkpt lat="42.97880818316734" lon="12.093014287370698"><ele>284.0</ele><time>2026-04-12T08:21:49Z</time></trkpt><trkpt lat="42.97893587766494" lon="12.093082201162238"><ele>284.0</ele><time>2026-04-12T08:21:50Z</time></trkpt><trkpt lat="42.97906345386922" lon="12.093139610751091"><ele>284.0</ele><time>2026-04-12T08:21:51Z</time></trkpt><trkpt lat="42.979191523238434" lon="12.09319786140785"><ele>284.0</ele><time>2026-04-12T08:21:52Z</time></trkpt><trkpt lat="42.979325259642266" lon="12.093253513809069"><ele>284.0</ele><time>2026-04-12T08:21:53Z</time></trkpt><trkpt lat="42.97945529009944" lon="12.093306320869932"><ele>282.75</ele><time>2026-04-12T08:21:54Z</time></trkpt><trkpt lat="42.97957653660471" lon="12.093355415112981"><ele>281.5</ele><time>2026-04-12T08:21:55Z</time></trkpt><trkpt lat="42.97969686753479" lon="12.093400907174242"><ele>280.25</ele><time>2026-04-12T08:21:56Z</time></trkpt><trkpt lat="42.97981644920581" lon="12.093450286302494"><ele>279.0</ele><time>2026-04-12T08:21:57Z</time></trkpt><trkpt lat="42.97993962669738" lon="12.093504411307228"><ele>278.25</ele><time>2026-04-12T08:21:58Z</time></trkpt><trkpt lat="42.980067342348256" lon="12.093553181677867"><ele>277.5</ele><time>2026-04-12T08:21:59Z</time></trkpt><trkpt lat="42.980189630415325" lon="12.093603947079929"><ele>276.75</ele><time>2026-04-12T08:22:00Z</time></trkpt><trkpt lat="42.98031097257525" lon="12.093654779949887"><ele>276.0</ele><time>2026-04-12T08:22:01Z</time></trkpt><trkpt lat="42.98043646881469" lon="12.093708259907132"><ele>276.0</ele><time>2026-04-12T08:22:02Z</time></trkpt><trkpt lat="42.98056206919031" lon="12.093764672527257"><ele>276.0</ele><time>2026-04-12T08:22:03Z</time></trkpt><trkpt lat="42.98068724473519" lon="12.093828643874096"><ele>276.0</ele><time>2026-04-12T08:22:04Z</time></trkpt><trkpt lat="42.98080901322927" lon="12.093898278189496"><ele>276.0</ele><time>2026-04-12T08:22:05Z</time></trkpt><trkpt lat="42.98092644462856" lon="12.093976732039781"><ele>274.75</ele><time>2026-04-12T08:22:06Z</time></trkpt><trkpt lat="42.981042088294785" lon="12.094061929411405"><ele>273.5</ele><time>2026-04-12T08:22:07Z</time></trkpt><trkpt lat="42.98115930101129" lon="12.094149402964982"><ele>272.25</ele><time>2026-04-12T08:22:08Z</time></trkpt><trkpt lat="42.98127742282839" lon="12.094241151326505"><ele>271.0</ele><time>2026-04-12T08:22:09Z</time></trkpt><trkpt lat="42.981394913066225" lon="12.09433664637318"><ele>270.0</ele><time>2026-04-12T08:22:10Z</time></trkpt><trkpt lat="42.98151171273639" lon="12.094429864030536"><ele>269.0</ele><time>2026-04-12T08:22:11Z</time></trkpt><trkpt lat="42.9816280561128" lon="12.094523718482943"><ele>268.0</ele><time>2026-04-12T08:22:12Z</time></trkpt><trkpt lat="42.98174491159399" lon="12.094621485384474"><ele>267.0</ele><time>2026-04-12T08:22:13Z</time></trkpt><trkpt lat="42.981864097535194" lon="12.094715256270623"><ele>267.0</ele><time>2026-04-12T08:22:14Z</time></trkpt><trkpt lat="42.981987788276285" lon="12.094817729484111"><ele>267.0</ele><time>2026-04-12T08:22:15Z</time></trkpt><trkpt lat="42.982101085200405" lon="12.094908547006682"><ele>267.0</ele><time>2026-04-12T08:22:16Z</time></trkpt><trkpt lat="42.982215511991264" lon="12.095004893762122"><ele>267.0</ele><time>2026-04-12T08:22:17Z</time></trkpt><trkpt lat="42.982330037895814" lon="12.095097316046617"><ele>267.0</ele><time>2026-04-12T08:22:18Z</time></trkpt><trkpt lat="42.98243809289795" lon="12.095185709465335"><ele>267.0</ele><time>2026-04-12T08:22:19Z</time></trkpt><trkpt lat="42.98254523552202" lon="12.095276749321377"><ele>267.0</ele><time>2026-04-12T08:22:20Z</time></trkpt><trkpt lat="42.982649083933154" lon="12.095364376064277"><ele>267.0</ele><time>2026-04-12T08:22:21Z</time></trkpt><trkpt lat="42.98275260825895" lon="12.095448321022108"><ele>267.5</ele><time>2026-04-12T08:22:22Z</time></trkpt><trkpt lat="42.982856244364434" lon="12.095527855139984"><ele>268.0</ele><time>2026-04-12T08:22:23Z</time></trkpt><trkpt lat="42.98296095820689" lon="12.095612352893824"><ele>268.5</ele><time>2026-04-12T08:22:24Z</time></trkpt><trkpt lat="42.98307098839265" lon="12.095701807626321"><ele>269.0</ele><time>2026-04-12T08:22:25Z</time></trkpt><trkpt lat="42.983188897171594" lon="12.095796593885837"><ele>269.0</ele><time>2026-04-12T08:22:26Z</time></trkpt><trkpt lat="42.98330224161422" lon="12.095892253230764"><ele>269.0</ele><time>2026-04-12T08:22:27Z</time></trkpt><trkpt lat="42.983414256623725" lon="12.095993600863103"><ele>269.0</ele><time>2026-04-12T08:22:28Z</time></trkpt><trkpt lat="42.983521200267205" lon="12.09611020965377"><ele>269.0</ele><time>2026-04-12T08:22:29Z</time></trkpt><trkpt lat="42.98361890280514" lon="12.096240623506072"><ele>268.75</ele><time>2026-04-12T08:22:30Z</time></trkpt><trkpt lat="42.98371228483944" lon="12.096379507060279"><ele>268.5</ele><time>2026-04-12T08:22:31Z</time></trkpt><trkpt lat="42.983801209819106" lon="12.096521600982946"><ele>268.25</ele><time>2026-04-12T08:22:32Z</time></trkpt><trkpt lat="42.98388287890201" lon="12.096673259593887"><ele>268.0</ele><time>2026-04-12T08:22:33Z</time></trkpt><trkpt lat="42.983956889827795" lon="12.096827175317879"><ele>268.0</ele><time>2026-04-12T08:22:34Z</time></trkpt><trkpt lat="42.98402680121879" lon="12.096983467989736"><ele>268.0</ele><time>2026-04-12T08:22:35Z</time></trkpt><trkpt lat="42.98409505066515" lon="12.097137400370416"><ele>268.0</ele><time>2026-04-12T08:22:36Z</time></trkpt><trkpt lat="42.98416786221442" lon="12.097285938256029"><ele>268.0</ele><time>2026-04-12T08:22:37Z</time></trkpt><trkpt lat="42.984245708445435" lon="12.097428963672792"><ele>268.75</ele><time>2026-04-12T08:22:38Z</time></trkpt><trkpt lat="42.98433486289297" lon="12.09756151950014"><ele>269.5</ele><time>2026-04-12T08:22:39Z</time></trkpt><trkpt lat="42.98443238413406" lon="12.09768531487104"><ele>270.25</ele><time>2026-04-12T08:22:40Z</time></trkpt><trkpt lat="42.98453882843572" lon="12.097793645932368"><ele>271.0</ele><time>2026-04-12T08:22:41Z</time></trkpt><trkpt lat="42.98465057570272" lon="12.097896923796194"><ele>271.0</ele><time>2026-04-12T08:22:42Z</time></trkpt><trkpt lat="42.984763062103326" lon="12.09799290685296"><ele>271.0</ele><time>2026-04-12T08:22:43Z</time></trkpt><trkpt lat="42.98487691913573" lon="12.09808595676618"><ele>271.0</ele><time>2026-04-12T08:22:44Z</time></trkpt><trkpt lat="42.98498636388812" lon="12.098181636396935"><ele>271.0</ele><time>2026-04-12T08:22:45Z</time></trkpt><trkpt lat="42.98508996179547" lon="12.098280010638266"><ele>270.0</ele><time>2026-04-12T08:22:46Z</time></trkpt><trkpt lat="42.98518923030219" lon="12.09838564341052"><ele>269.0</ele><time>2026-04-12T08:22:47Z</time></trkpt><trkpt lat="42.985284964160996" lon="12.098505990235678"><ele>268.0</ele><time>2026-04-12T08:22:48Z</time></trkpt><trkpt lat="42.9853781936013" lon="12.098635973131557"><ele>267.0</ele><time>2026-04-12T08:22:49Z</time></trkpt><trkpt lat="42.985467159242596" lon="12.098768685101323"><ele>267.0</ele><time>2026-04-12T08:22:50Z</time></trkpt><trkpt lat="42.98554943042955" lon="12.098906468685037"><ele>267.0</ele><time>2026-04-12T08:22:51Z</time></trkpt><trkpt lat="42.98562621273673" lon="12.099048973881997"><ele>267.0</ele><time>2026-04-12T08:22:52Z</time></trkpt><trkpt lat="42.9856993620775" lon="12.099191860461486"><ele>267.0</ele><time>2026-04-12T08:22:53Z</time></trkpt><trkpt lat="42.98577074614239" lon="12.099336659113337"><ele>267.0</ele><time>2026-04-12T08:22:54Z</time></trkpt><trkpt lat="42.98584151520103" lon="12.099475744849792"><ele>267.0</ele><time>2026-04-12T08:22:55Z</time></trkpt><trkpt lat="42.9859082780331" lon="12.099596464821337"><ele>267.0</ele><time>2026-04-12T08:22:56Z</time></trkpt><trkpt lat="42.98596870707603" lon="12.099687005906965"><ele>267.0</ele><time>2026-04-12T08:22:57Z</time></trkpt><trkpt lat="42.98601878138166" lon="12.09976536515878"><ele>267.0</ele><time>2026-04-12T08:22:58Z</time></trkpt><trkpt lat="42.98603615623307" lon="12.099858898625316"><ele>266.0</ele><time>2026-04-12T08:22:59Z</time></trkpt><trkpt lat="42.985977829844785" lon="12.100056705177849"><ele>265.0</ele><time>2026-04-12T08:23:01Z</time></trkpt><trkpt lat="42.98592678973567" lon="12.10016857273454"><ele>264.0</ele><time>2026-04-12T08:23:02Z</time></trkpt><trkpt lat="42.985875050652325" lon="12.100280284361592"><ele>263.0</ele><time>2026-04-12T08:23:03Z</time></trkpt><trkpt lat="42.985824061047325" lon="12.1003924286258"><ele>262.0</ele><time>2026-04-12T08:23:04Z</time></trkpt><trkpt lat="42.98576888699184" lon="12.100510714320283"><ele>261.4</ele><time>2026-04-12T08:23:05Z</time></trkpt><trkpt lat="42.98571760696934" lon="12.100608925405849"><ele>260.79999999999995</ele><time>2026-04-12T08:23:06Z</time></trkpt><trkpt lat="42.98565956747919" lon="12.100692137648098"><ele>260.2</ele><time>2026-04-12T08:23:07Z</time></trkpt><trkpt lat="42.98558043388493" lon="12.100752086165759"><ele>259.59999999999997</ele><time>2026-04-12T08:23:08Z</time></trkpt><trkpt lat="42.98547975228741" lon="12.100796083120462"><ele>259.0</ele><time>2026-04-12T08:23:09Z</time></trkpt><trkpt lat="42.98537549937869" lon="12.100836487869515"><ele>258.4</ele><time>2026-04-12T08:23:10Z</time></trkpt><trkpt lat="42.98527948053798" lon="12.100871037243294"><ele>257.79999999999995</ele><time>2026-04-12T08:23:11Z</time></trkpt><trkpt lat="42.985188545809976" lon="12.100906831623897"><ele>257.20000000000005</ele><time>2026-04-12T08:23:12Z</time></trkpt><trkpt lat="42.98509661887601" lon="12.100942564865303"><ele>256.6</ele><time>2026-04-12T08:23:13Z</time></trkpt><trkpt lat="42.98500404306688" lon="12.100981246972282"><ele>256.0</ele><time>2026-04-12T08:23:14Z</time></trkpt><trkpt lat="42.98490898421206" lon="12.101021472826995"><ele>256.0</ele><time>2026-04-12T08:23:15Z</time></trkpt><trkpt lat="42.98481299645152" lon="12.101059753063415"><ele>256.0</ele><time>2026-04-12T08:23:16Z</time></trkpt><trkpt lat="42.98471770617412" lon="12.101095343587067"><ele>256.0</ele><time>2026-04-12T08:23:17Z</time></trkpt><trkpt lat="42.98462084896324" lon="12.101131583236327"><ele>256.0</ele><time>2026-04-12T08:23:18Z</time></trkpt><trkpt lat="42.98452523254067" lon="12.101177332785982"><ele>256.0</ele><time>2026-04-12T08:23:19Z</time></trkpt><trkpt lat="42.984439410595" lon="12.101242695863768"><ele>256.0</ele><time>2026-04-12T08:23:20Z</time></trkpt><trkpt lat="42.984380274047986" lon="12.101337750645364"><ele>256.0</ele><time>2026-04-12T08:23:21Z</time></trkpt><trkpt lat="42.98432013088904" lon="12.10143368541079"><ele>256.0</ele><time>2026-04-12T08:23:22Z</time></trkpt><trkpt lat="42.9843333079938" lon="12.101592022440766"><ele>256.0</ele><time>2026-04-12T08:23:23Z</time></trkpt><trkpt lat="42.984362346732574" lon="12.10173123398962"><ele>256.0</ele><time>2026-04-12T08:23:24Z</time></trkpt><trkpt lat="42.98440702000221" lon="12.101881834034431"><ele>255.75</ele><time>2026-04-12T08:23:25Z</time></trkpt><trkpt lat="42.98445657760675" lon="12.102026992695581"><ele>255.5</ele><time>2026-04-12T08:23:26Z</time></trkpt><trkpt lat="42.9844944990035" lon="12.102169816181455"><ele>255.25</ele><time>2026-04-12T08:23:27Z</time></trkpt><trkpt lat="42.984544830419075" lon="12.102307803178709"><ele>255.0</ele><time>2026-04-12T08:23:28Z</time></trkpt><trkpt lat="42.98461118572806" lon="12.102435658696649"><ele>255.8</ele><time>2026-04-12T08:23:29Z</time></trkpt><trkpt lat="42.98464376686554" lon="12.102573874927424"><ele>256.6</ele><time>2026-04-12T08:23:30Z</time></trkpt><trkpt lat="42.984675126465476" lon="12.102700537393346"><ele>257.4</ele><time>2026-04-12T08:23:31Z</time></trkpt><trkpt lat="42.98467988587391" lon="12.102833914712209"><ele>258.2</ele><time>2026-04-12T08:23:32Z</time></trkpt><trkpt lat="42.984654367405966" lon="12.102961368344245"><ele>259.0</ele><time>2026-04-12T08:23:33Z</time></trkpt><trkpt lat="42.98460422511974" lon="12.103083850974063"><ele>259.0</ele><time>2026-04-12T08:23:34Z</time></trkpt><trkpt lat="42.98454001659598" lon="12.103192540718943"><ele>259.0</ele><time>2026-04-12T08:23:35Z</time></trkpt><trkpt lat="42.98447033734143" lon="12.10329823737731"><ele>259.0</ele><time>2026-04-12T08:23:36Z</time></trkpt><trkpt lat="42.9844058930436" lon="12.103410174577059"><ele>259.0</ele><time>2026-04-12T08:23:37Z</time></trkpt><trkpt lat="42.98433999865888" lon="12.10352644471644"><ele>259.0</ele><time>2026-04-12T08:23:38Z</time></trkpt><trkpt lat="42.98429506405095" lon="12.103624269671496"><ele>258.8</ele><time>2026-04-12T08:23:39Z</time></trkpt><trkpt lat="42.98424049711455" lon="12.103735910693265"><ele>258.59999999999997</ele><time>2026-04-12T08:23:40Z</time></trkpt><trkpt lat="42.984176133351305" lon="12.103843491695377"><ele>258.4</ele><time>2026-04-12T08:23:41Z</time></trkpt><trkpt lat="42.984100179536846" lon="12.10393341213411"><ele>258.2</ele><time>2026-04-12T08:23:42Z</time></trkpt><trkpt lat="42.98400908538781" lon="12.103995337181368"><ele>258.0</ele><time>2026-04-12T08:23:43Z</time></trkpt><trkpt lat="42.98389589698158" lon="12.104033959839406"><ele>260.5</ele><time>2026-04-12T08:23:44Z</time></trkpt><trkpt lat="42.983781148664086" lon="12.104064322832533"><ele>263.0</ele><time>2026-04-12T08:23:45Z</time></trkpt><trkpt lat="42.983671267611385" lon="12.10411824683961"><ele>265.5</ele><time>2026-04-12T08:23:46Z</time></trkpt><trkpt lat="42.98356640608035" lon="12.104206001712127"><ele>268.0</ele><time>2026-04-12T08:23:47Z</time></trkpt><trkpt lat="42.983472761048475" lon="12.104320035458873"><ele>268.0</ele><time>2026-04-12T08:23:48Z</time></trkpt><trkpt lat="42.983369638059415" lon="12.104459766304682"><ele>268.0</ele><time>2026-04-12T08:23:49Z</time></trkpt><trkpt lat="42.98327954095145" lon="12.104593048264517"><ele>268.0</ele><time>2026-04-12T08:23:50Z</time></trkpt><trkpt lat="42.98319222378611" lon="12.104713634477253"><ele>268.0</ele><time>2026-04-12T08:23:51Z</time></trkpt><trkpt lat="42.983109828571656" lon="12.10483027703312"><ele>269.25</ele><time>2026-04-12T08:23:52Z</time></trkpt><trkpt lat="42.9830256899081" lon="12.10495201163412"><ele>270.5</ele><time>2026-04-12T08:23:53Z</time></trkpt><trkpt lat="42.98295841905042" lon="12.105094987120568"><ele>271.75</ele><time>2026-04-12T08:23:54Z</time></trkpt><trkpt lat="42.982903308829634" lon="12.105250291364088"><ele>273.0</ele><time>2026-04-12T08:23:55Z</time></trkpt><trkpt lat="42.98285892369318" lon="12.105389731567332"><ele>273.0</ele><time>2026-04-12T08:23:56Z</time></trkpt><trkpt lat="42.9828207385897" lon="12.105529466960242"><ele>273.0</ele><time>2026-04-12T08:23:57Z</time></trkpt><trkpt lat="42.9827926909242" lon="12.105682652416931"><ele>273.0</ele><time>2026-04-12T08:23:58Z</time></trkpt><trkpt lat="42.98276595696396" lon="12.105849194977305"><ele>273.0</ele><time>2026-04-12T08:23:59Z</time></trkpt><trkpt lat="42.982744036000106" lon="12.10602107721479"><ele>272.25</ele><time>2026-04-12T08:24:00Z</time></trkpt><trkpt lat="42.982708722144764" lon="12.106183273199361"><ele>271.5</ele><time>2026-04-12T08:24:01Z</time></trkpt><trkpt lat="42.982651128795275" lon="12.106330526463116"><ele>270.75</ele><time>2026-04-12T08:24:02Z</time></trkpt><trkpt lat="42.98257489662872" lon="12.1064684125517"><ele>270.0</ele><time>2026-04-12T08:24:03Z</time></trkpt><trkpt lat="42.982483326281994" lon="12.106588379826164"><ele>273.5</ele><time>2026-04-12T08:24:04Z</time></trkpt><trkpt lat="42.982390108524484" lon="12.106695796690195"><ele>277.0</ele><time>2026-04-12T08:24:05Z</time></trkpt><trkpt lat="42.98229484300831" lon="12.106799505772674"><ele>280.5</ele><time>2026-04-12T08:24:06Z</time></trkpt><trkpt lat="42.98219169147999" lon="12.106894030067977"><ele>284.0</ele><time>2026-04-12T08:24:07Z</time></trkpt><trkpt lat="42.982059784524765" lon="12.106977003946735"><ele>284.0</ele><time>2026-04-12T08:24:08Z</time></trkpt><trkpt lat="42.981933790086806" lon="12.107051242980186"><ele>284.0</ele><time>2026-04-12T08:24:09Z</time></trkpt><trkpt lat="42.98181893205063" lon="12.107104671929172"><ele>284.0</ele><time>2026-04-12T08:24:10Z</time></trkpt><trkpt lat="42.981694882151494" lon="12.107142151167764"><ele>284.0</ele><time>2026-04-12T08:24:11Z</time></trkpt><trkpt lat="42.98156906704131" lon="12.107106625756371"><ele>284.75</ele><time>2026-04-12T08:24:12Z</time></trkpt><trkpt lat="42.98144244615582" lon="12.107038934979304"><ele>285.5</ele><time>2026-04-12T08:24:13Z</time></trkpt><trkpt lat="42.981301515162855" lon="12.106961880613303"><ele>286.25</ele><time>2026-04-12T08:24:14Z</time></trkpt><trkpt lat="42.98117720198195" lon="12.10684872200963"><ele>287.0</ele><time>2026-04-12T08:24:15Z</time></trkpt><trkpt lat="42.98105103541759" lon="12.106747565451153"><ele>287.0</ele><time>2026-04-12T08:24:16Z</time></trkpt><trkpt lat="42.98092584492771" lon="12.106643650667424"><ele>287.0</ele><time>2026-04-12T08:24:17Z</time></trkpt><trkpt lat="42.98080979917766" lon="12.106543051118734"><ele>287.0</ele><time>2026-04-12T08:24:18Z</time></trkpt><trkpt lat="42.98069379421344" lon="12.106445969895434"><ele>287.0</ele><time>2026-04-12T08:24:19Z</time></trkpt><trkpt lat="42.98057213666411" lon="12.106360836043354"><ele>288.5</ele><time>2026-04-12T08:24:20Z</time></trkpt><trkpt lat="42.98044858636308" lon="12.106311879799197"><ele>290.0</ele><time>2026-04-12T08:24:21Z</time></trkpt><trkpt lat="42.980318906475546" lon="12.1062989383154"><ele>291.5</ele><time>2026-04-12T08:24:22Z</time></trkpt><trkpt lat="42.98019281704557" lon="12.106326254260141"><ele>293.0</ele><time>2026-04-12T08:24:23Z</time></trkpt><trkpt lat="42.98007042837014" lon="12.106394284901773"><ele>294.0</ele><time>2026-04-12T08:24:24Z</time></trkpt><trkpt lat="42.979947718025386" lon="12.106497471429153"><ele>295.0</ele><time>2026-04-12T08:24:25Z</time></trkpt><trkpt lat="42.9798497405674" lon="12.106615431327713"><ele>296.0</ele><time>2026-04-12T08:24:26Z</time></trkpt><trkpt lat="42.979728655577176" lon="12.106709345212876"><ele>297.0</ele><time>2026-04-12T08:24:27Z</time></trkpt><trkpt lat="42.97960809828925" lon="12.10679392514819"><ele>293.5</ele><time>2026-04-12T08:24:28Z</time></trkpt><trkpt lat="42.97948176059659" lon="12.106879194100818"><ele>290.0</ele><time>2026-04-12T08:24:29Z</time></trkpt><trkpt lat="42.97935654158972" lon="12.106956411101452"><ele>286.5</ele><time>2026-04-12T08:24:30Z</time></trkpt><trkpt lat="42.97922968691352" lon="12.107027122525054"><ele>283.0</ele><time>2026-04-12T08:24:31Z</time></trkpt><trkpt lat="42.97911401178191" lon="12.107103231615962"><ele>283.0</ele><time>2026-04-12T08:24:32Z</time></trkpt><trkpt lat="42.97901533958818" lon="12.107194129840709"><ele>283.0</ele><time>2026-04-12T08:24:33Z</time></trkpt><trkpt lat="42.978941803246855" lon="12.10731672314541"><ele>283.0</ele><time>2026-04-12T08:24:34Z</time></trkpt><trkpt lat="42.9789070705242" lon="12.10745140530463"><ele>283.0</ele><time>2026-04-12T08:24:35Z</time></trkpt><trkpt lat="42.97888537663907" lon="12.107587001113757"><ele>283.0</ele><time>2026-04-12T08:24:36Z</time></trkpt><trkpt lat="42.97886186756394" lon="12.107725987494707"><ele>281.0</ele><time>2026-04-12T08:24:37Z</time></trkpt><trkpt lat="42.97882796937128" lon="12.107870791012653"><ele>279.0</ele><time>2026-04-12T08:24:38Z</time></trkpt><trkpt lat="42.97876658257462" lon="12.108021150448115"><ele>277.0</ele><time>2026-04-12T08:24:39Z</time></trkpt><trkpt lat="42.978696185690175" lon="12.108163484123537"><ele>275.0</ele><time>2026-04-12T08:24:40Z</time></trkpt><trkpt lat="42.97862219452049" lon="12.108303743218306"><ele>275.0</ele><time>2026-04-12T08:24:41Z</time></trkpt><trkpt lat="42.97854392377194" lon="12.108450964828979"><ele>275.0</ele><time>2026-04-12T08:24:42Z</time></trkpt><trkpt lat="42.978466533779326" lon="12.108590414596586"><ele>275.0</ele><time>2026-04-12T08:24:43Z</time></trkpt><trkpt lat="42.97837762310201" lon="12.108717608188726"><ele>275.0</ele><time>2026-04-12T08:24:44Z</time></trkpt><trkpt lat="42.97827923097952" lon="12.10883498759389"><ele>275.25</ele><time>2026-04-12T08:24:45Z</time></trkpt><trkpt lat="42.97818102319668" lon="12.108943455576687"><ele>275.5</ele><time>2026-04-12T08:24:46Z</time></trkpt><trkpt lat="42.97808630636924" lon="12.109039795200385"><ele>275.75</ele><time>2026-04-12T08:24:47Z</time></trkpt><trkpt lat="42.977989324416214" lon="12.109138075622502"><ele>276.0</ele><time>2026-04-12T08:24:48Z</time></trkpt><trkpt lat="42.9778910535902" lon="12.109234907142568"><ele>276.0</ele><time>2026-04-12T08:24:49Z</time></trkpt><trkpt lat="42.977790823636695" lon="12.109305714159214"><ele>276.0</ele><time>2026-04-12T08:24:50Z</time></trkpt><trkpt lat="42.977668604415726" lon="12.109345421643926"><ele>276.0</ele><time>2026-04-12T08:24:51Z</time></trkpt><trkpt lat="42.97754135593243" lon="12.109368605906955"><ele>276.0</ele><time>2026-04-12T08:24:52Z</time></trkpt><trkpt lat="42.977408768653554" lon="12.109386287743881"><ele>277.25</ele><time>2026-04-12T08:24:53Z</time></trkpt><trkpt lat="42.97728829951347" lon="12.1093899922468"><ele>278.5</ele><time>2026-04-12T08:24:54Z</time></trkpt><trkpt lat="42.977169583097314" lon="12.109398329309908"><ele>279.75</ele><time>2026-04-12T08:24:55Z</time></trkpt><trkpt lat="42.977055314365536" lon="12.109401706567624"><ele>281.0</ele><time>2026-04-12T08:24:56Z</time></trkpt><trkpt lat="42.976941009707566" lon="12.10940707943834"><ele>281.0</ele><time>2026-04-12T08:24:57Z</time></trkpt><trkpt lat="42.97682457774926" lon="12.1094150267582"><ele>281.0</ele><time>2026-04-12T08:24:58Z</time></trkpt><trkpt lat="42.97670501637618" lon="12.109416547477197"><ele>281.0</ele><time>2026-04-12T08:24:59Z</time></trkpt><trkpt lat="42.97659093557736" lon="12.109406754518115"><ele>281.0</ele><time>2026-04-12T08:25:00Z</time></trkpt><trkpt lat="42.97648539126349" lon="12.109387043895715"><ele>282.0</ele><time>2026-04-12T08:25:01Z</time></trkpt><trkpt lat="42.97638541339639" lon="12.109374704874968"><ele>283.0</ele><time>2026-04-12T08:25:02Z</time></trkpt><trkpt lat="42.97629218181945" lon="12.109405407799214"><ele>284.0</ele><time>2026-04-12T08:25:03Z</time></trkpt><trkpt lat="42.976210280679176" lon="12.109495543470336"><ele>285.0</ele><time>2026-04-12T08:25:04Z</time></trkpt><trkpt lat="42.97613774555266" lon="12.109620707657347"><ele>286.0</ele><time>2026-04-12T08:25:05Z</time></trkpt><trkpt lat="42.97606498906643" lon="12.109747784278131"><ele>286.0</ele><time>2026-04-12T08:25:06Z</time></trkpt><trkpt lat="42.97598157160858" lon="12.109863242366435"><ele>286.0</ele><time>2026-04-12T08:25:07Z</time></trkpt><trkpt lat="42.97589027179619" lon="12.109957497073108"><ele>286.0</ele><time>2026-04-12T08:25:08Z</time></trkpt><trkpt lat="42.97579164431989" lon="12.110045048184988"><ele>286.0</ele><time>2026-04-12T08:25:09Z</time></trkpt><trkpt lat="42.97568275289792" lon="12.110124227328399"><ele>286.25</ele><time>2026-04-12T08:25:10Z</time></trkpt><trkpt lat="42.97558130409524" lon="12.110224798453642"><ele>286.5</ele><time>2026-04-12T08:25:11Z</time></trkpt><trkpt lat="42.975497026074265" lon="12.110351434502189"><ele>286.75</ele><time>2026-04-12T08:25:12Z</time></trkpt><trkpt lat="42.97545939624492" lon="12.110527005204412"><ele>287.0</ele><time>2026-04-12T08:25:13Z</time></trkpt><trkpt lat="42.9754231694185" lon="12.1106950448765"><ele>285.75</ele><time>2026-04-12T08:25:14Z</time></trkpt><trkpt lat="42.97536915649306" lon="12.110856210313685"><ele>284.5</ele><time>2026-04-12T08:25:15Z</time></trkpt><trkpt lat="42.9753163374359" lon="12.111024623760509"><ele>283.25</ele><time>2026-04-12T08:25:16Z</time></trkpt><trkpt lat="42.97526521523754" lon="12.111183609959156"><ele>282.0</ele><time>2026-04-12T08:25:17Z</time></trkpt><trkpt lat="42.975227148380206" lon="12.111345491570882"><ele>282.0</ele><time>2026-04-12T08:25:18Z</time></trkpt><trkpt lat="42.97517455358615" lon="12.111497356344458"><ele>282.0</ele><time>2026-04-12T08:25:19Z</time></trkpt><trkpt lat="42.97512402680931" lon="12.111649022740117"><ele>282.0</ele><time>2026-04-12T08:25:20Z</time></trkpt><trkpt lat="42.97507284332191" lon="12.111805595684864"><ele>282.0</ele><time>2026-04-12T08:25:21Z</time></trkpt><trkpt lat="42.9750198812575" lon="12.111968501399602"><ele>282.75</ele><time>2026-04-12T08:25:22Z</time></trkpt><trkpt lat="42.974959822942935" lon="12.112132120561224"><ele>283.5</ele><time>2026-04-12T08:25:23Z</time></trkpt><trkpt lat="42.97489114892871" lon="12.112281849588795"><ele>284.25</ele><time>2026-04-12T08:25:24Z</time></trkpt><trkpt lat="42.97481488411602" lon="12.112406241405212"><ele>285.0</ele><time>2026-04-12T08:25:25Z</time></trkpt><trkpt lat="42.97471718993276" lon="12.112507821423678"><ele>285.5</ele><time>2026-04-12T08:25:26Z</time></trkpt><trkpt lat="42.97460073336045" lon="12.112592631574808"><ele>286.0</ele><time>2026-04-12T08:25:27Z</time></trkpt><trkpt lat="42.97447305179959" lon="12.112660085765235"><ele>286.5</ele><time>2026-04-12T08:25:28Z</time></trkpt><trkpt lat="42.97435545759154" lon="12.112723135753114"><ele>287.0</ele><time>2026-04-12T08:25:29Z</time></trkpt><trkpt lat="42.97425257112763" lon="12.112798605967704"><ele>289.75</ele><time>2026-04-12T08:25:30Z</time></trkpt><trkpt lat="42.974160020705" lon="12.112881616326028"><ele>292.5</ele><time>2026-04-12T08:25:31Z</time></trkpt><trkpt lat="42.97407646610647" lon="12.11297267151733"><ele>295.25</ele><time>2026-04-12T08:25:32Z</time></trkpt><trkpt lat="42.97399801187848" lon="12.113085001464773"><ele>298.0</ele><time>2026-04-12T08:25:33Z</time></trkpt><trkpt lat="42.973928965434375" lon="12.113218605126983"><ele>296.75</ele><time>2026-04-12T08:25:34Z</time></trkpt><trkpt lat="42.973865885014966" lon="12.113370881053678"><ele>295.5</ele><time>2026-04-12T08:25:35Z</time></trkpt><trkpt lat="42.973802498208514" lon="12.113537254072885"><ele>294.25</ele><time>2026-04-12T08:25:36Z</time></trkpt><trkpt lat="42.973731580339226" lon="12.113716025366031"><ele>293.0</ele><time>2026-04-12T08:25:37Z</time></trkpt><trkpt lat="42.97366675389635" lon="12.113877324338336"><ele>293.0</ele><time>2026-04-12T08:25:38Z</time></trkpt><trkpt lat="42.9735956962669" lon="12.114039943194834"><ele>293.0</ele><time>2026-04-12T08:25:39Z</time></trkpt><trkpt lat="42.973522298693744" lon="12.114203864895448"><ele>293.0</ele><time>2026-04-12T08:25:40Z</time></trkpt><trkpt lat="42.97345292994256" lon="12.114368755029902"><ele>293.0</ele><time>2026-04-12T08:25:41Z</time></trkpt><trkpt lat="42.973387289086325" lon="12.114531370968074"><ele>293.25</ele><time>2026-04-12T08:25:42Z</time></trkpt><trkpt lat="42.97332713087638" lon="12.114696238898697"><ele>293.5</ele><time>2026-04-12T08:25:43Z</time></trkpt><trkpt lat="42.97327254276227" lon="12.114861210654107"><ele>293.75</ele><time>2026-04-12T08:25:44Z</time></trkpt><trkpt lat="42.97321986239643" lon="12.115030706612622"><ele>294.0</ele><time>2026-04-12T08:25:45Z</time></trkpt><trkpt lat="42.97316446347156" lon="12.115199281088419"><ele>294.0</ele><time>2026-04-12T08:25:46Z</time></trkpt><trkpt lat="42.97308641759286" lon="12.115353022305971"><ele>294.0</ele><time>2026-04-12T08:25:47Z</time></trkpt><trkpt lat="42.97301406343912" lon="12.115506529187483"><ele>294.0</ele><time>2026-04-12T08:25:48Z</time></trkpt><trkpt lat="42.97293846972152" lon="12.115643828877694"><ele>294.0</ele><time>2026-04-12T08:25:49Z</time></trkpt><trkpt lat="42.97286708548906" lon="12.115775595642297"><ele>294.5</ele><time>2026-04-12T08:25:50Z</time></trkpt><trkpt lat="42.97275507171006" lon="12.115855722399818"><ele>295.0</ele><time>2026-04-12T08:25:51Z</time></trkpt><trkpt lat="42.9726389895157" lon="12.115910881123805"><ele>295.5</ele><time>2026-04-12T08:25:52Z</time></trkpt><trkpt lat="42.972528833774504" lon="12.115965242301733"><ele>296.0</ele><time>2026-04-12T08:25:53Z</time></trkpt><trkpt lat="42.97244787770147" lon="12.116009265492712"><ele>296.40000000000003</ele><time>2026-04-12T08:25:54Z</time></trkpt><trkpt lat="42.972399780339025" lon="12.116104210364005"><ele>296.8</ele><time>2026-04-12T08:25:55Z</time></trkpt><trkpt lat="42.97236964108163" lon="12.116233947706219"><ele>297.20000000000005</ele><time>2026-04-12T08:25:56Z</time></trkpt><trkpt lat="42.97236345989021" lon="12.11636010952761"><ele>297.6</ele><time>2026-04-12T08:25:57Z</time></trkpt><trkpt lat="42.972340910531585" lon="12.116479727310473"><ele>298.0</ele><time>2026-04-12T08:25:58Z</time></trkpt><trkpt lat="42.97227837152915" lon="12.116582167907993"><ele>298.0</ele><time>2026-04-12T08:25:59Z</time></trkpt><trkpt lat="42.972169162529056" lon="12.116639139704382"><ele>298.0</ele><time>2026-04-12T08:26:00Z</time></trkpt><trkpt lat="42.97205285502429" lon="12.116680916235994"><ele>298.0</ele><time>2026-04-12T08:26:01Z</time></trkpt><trkpt lat="42.97193153674764" lon="12.116755186800043"><ele>298.0</ele><time>2026-04-12T08:26:02Z</time></trkpt><trkpt lat="42.97181631760819" lon="12.11681422745338"><ele>298.0</ele><time>2026-04-12T08:26:03Z</time></trkpt><trkpt lat="42.97171412830696" lon="12.116892737436437"><ele>298.0</ele><time>2026-04-12T08:26:04Z</time></trkpt><trkpt lat="42.971625876620905" lon="12.116993340872039"><ele>298.0</ele><time>2026-04-12T08:26:05Z</time></trkpt><trkpt lat="42.97155551245385" lon="12.117110390318711"><ele>298.0</ele><time>2026-04-12T08:26:06Z</time></trkpt><trkpt lat="42.9715001765909" lon="12.117243546430524"><ele>298.8</ele><time>2026-04-12T08:26:07Z</time></trkpt><trkpt lat="42.97146748616712" lon="12.117383347713742"><ele>299.6</ele><time>2026-04-12T08:26:08Z</time></trkpt><trkpt lat="42.971448887847416" lon="12.117523886419496"><ele>300.4</ele><time>2026-04-12T08:26:09Z</time></trkpt><trkpt lat="42.97145176714655" lon="12.117654135987335"><ele>301.2</ele><time>2026-04-12T08:26:10Z</time></trkpt><trkpt lat="42.971473564360856" lon="12.11776875357135"><ele>302.0</ele><time>2026-04-12T08:26:11Z</time></trkpt><trkpt lat="42.97139775051477" lon="12.117924937371548"><ele>302.0</ele><time>2026-04-12T08:26:13Z</time></trkpt><trkpt lat="42.97134014874566" lon="12.118023506858178"><ele>302.0</ele><time>2026-04-12T08:26:15Z</time></trkpt><trkpt lat="42.97128131414616" lon="12.118066487833444"><ele>302.0</ele><time>2026-04-12T08:26:18Z</time></trkpt><trkpt lat="42.971086546274805" lon="12.117890723425546"><ele>302.0</ele><time>2026-04-12T08:26:22Z</time></trkpt><trkpt lat="42.97102171241488" lon="12.117817717232324"><ele>302.0</ele><time>2026-04-12T08:26:24Z</time></trkpt><trkpt lat="42.97093822775208" lon="12.117715307391311"><ele>302.0</ele><time>2026-04-12T08:26:26Z</time></trkpt><trkpt lat="42.970896519824684" lon="12.117649179474101"><ele>302.0</ele><time>2026-04-12T08:26:27Z</time></trkpt><trkpt lat="42.970854485989044" lon="12.117537644673135"><ele>302.0</ele><time>2026-04-12T08:26:29Z</time></trkpt><trkpt lat="42.97077300385451" lon="12.117575428421054"><ele>302.0</ele><time>2026-04-12T08:26:32Z</time></trkpt><trkpt lat="42.97070889709529" lon="12.117681400430163"><ele>303.4</ele><time>2026-04-12T08:26:34Z</time></trkpt><trkpt lat="42.970666999495116" lon="12.11779572107951"><ele>304.79999999999995</ele><time>2026-04-12T08:26:36Z</time></trkpt><trkpt lat="42.97069976014501" lon="12.11788602561712"><ele>306.2</ele><time>2026-04-12T08:26:38Z</time></trkpt><trkpt lat="42.97064129039813" lon="12.117984480534535"><ele>307.59999999999997</ele><time>2026-04-12T08:26:40Z</time></trkpt><trkpt lat="42.97054638490498" lon="12.118094502580814"><ele>309.0</ele><time>2026-04-12T08:26:42Z</time></trkpt><trkpt lat="42.97045014149653" lon="12.11814020868699"><ele>309.0</ele><time>2026-04-12T08:26:44Z</time></trkpt><trkpt lat="42.970358146167364" lon="12.118168189647907"><ele>309.0</ele><time>2026-04-12T08:26:46Z</time></trkpt><trkpt lat="42.97030305019809" lon="12.118112354853826"><ele>309.0</ele><time>2026-04-12T08:26:54Z</time></trkpt><trkpt lat="42.97020739492835" lon="12.118091559976357"><ele>309.0</ele><time>2026-04-12T08:27:00Z</time></trkpt><trkpt lat="42.97008742549989" lon="12.118079513108446"><ele>309.0</ele><time>2026-04-12T08:27:02Z</time></trkpt><trkpt lat="42.96997619624832" lon="12.118016572828603"><ele>313.79999999999995</ele><time>2026-04-12T08:27:04Z</time></trkpt><trkpt lat="42.969903190481375" lon="12.117912307176834"><ele>318.59999999999997</ele><time>2026-04-12T08:27:06Z</time></trkpt><trkpt lat="42.969833738152154" lon="12.117811203087342"><ele>323.4</ele><time>2026-04-12T08:27:08Z</time></trkpt><trkpt lat="42.969767392535054" lon="12.117798261784277"><ele>328.2</ele><time>2026-04-12T08:27:10Z</time></trkpt><trkpt lat="42.96967759190166" lon="12.117816875310309"><ele>333.0</ele><time>2026-04-12T08:27:12Z</time></trkpt><trkpt lat="42.969588156669076" lon="12.117832705178213"><ele>333.0</ele><time>2026-04-12T08:27:14Z</time></trkpt><trkpt lat="42.96951100858737" lon="12.117856911641606"><ele>333.0</ele><time>2026-04-12T08:27:16Z</time></trkpt><trkpt lat="42.96943090488828" lon="12.117852715100689"><ele>333.0</ele><time>2026-04-12T08:27:19Z</time></trkpt><trkpt lat="42.96935459357713" lon="12.117857010335738"><ele>333.0</ele><time>2026-04-12T08:27:21Z</time></trkpt><trkpt lat="42.96928042064628" lon="12.117823609359808"><ele>333.0</ele><time>2026-04-12T08:27:23Z</time></trkpt><trkpt lat="42.96923550823258" lon="12.117739508266023"><ele>333.0</ele><time>2026-04-12T08:27:25Z</time></trkpt><trkpt lat="42.9692266467139" lon="12.117593602151317"><ele>333.0</ele><time>2026-04-12T08:27:27Z</time></trkpt><trkpt lat="42.96923501575873" lon="12.117448187765167"><ele>333.0</ele><time>2026-04-12T08:27:29Z</time></trkpt><trkpt lat="42.96926997571703" lon="12.11732078965481"><ele>333.0</ele><time>2026-04-12T08:27:32Z</time></trkpt><trkpt lat="42.96923159212622" lon="12.117141503281074"><ele>333.0</ele><time>2026-04-12T08:27:35Z</time></trkpt><trkpt lat="42.96917630082944" lon="12.117008074239829"><ele>341.0</ele><time>2026-04-12T08:27:40Z</time></trkpt><trkpt lat="42.969183292949786" lon="12.116821079115708"><ele>349.0</ele><time>2026-04-12T08:27:42Z</time></trkpt><trkpt lat="42.96916833498659" lon="12.116723460692704"><ele>357.0</ele><time>2026-04-12T08:27:43Z</time></trkpt><trkpt lat="42.96920405891717" lon="12.116543840813906"><ele>365.0</ele><time>2026-04-12T08:27:45Z</time></trkpt><trkpt lat="42.96912793577262" lon="12.11643270766412"><ele>365.83333333333337</ele><time>2026-04-12T08:27:47Z</time></trkpt><trkpt lat="42.96906617182949" lon="12.116362961446345"><ele>366.6666666666667</ele><time>2026-04-12T08:27:48Z</time></trkpt><trkpt lat="42.96900794855835" lon="12.116260033290525"><ele>367.5</ele><time>2026-04-12T08:27:49Z</time></trkpt><trkpt lat="42.96895402078603" lon="12.116215210259332"><ele>368.3333333333333</ele><time>2026-04-12T08:27:50Z</time></trkpt><trkpt lat="42.968879957880795" lon="12.116131989539195"><ele>369.16666666666663</ele><time>2026-04-12T08:27:51Z</time></trkpt><trkpt lat="42.9688136783239" lon="12.11605680137389"><ele>370.0</ele><time>2026-04-12T08:27:52Z</time></trkpt><trkpt lat="42.968748415600935" lon="12.116002531942838"><ele>370.0</ele><time>2026-04-12T08:27:53Z</time></trkpt><trkpt lat="42.96867803984986" lon="12.11596190518115"><ele>370.0</ele><time>2026-04-12T08:27:54Z</time></trkpt><trkpt lat="42.96860276096221" lon="12.115924453384086"><ele>370.0</ele><time>2026-04-12T08:27:55Z</time></trkpt><trkpt lat="42.96853639293028" lon="12.115877347980982"><ele>370.0</ele><time>2026-04-12T08:27:56Z</time></trkpt><trkpt lat="42.96844487562646" lon="12.115772435423283"><ele>370.0</ele><time>2026-04-12T08:27:58Z</time></trkpt><trkpt lat="42.96841702232529" lon="12.115688883173856"><ele>370.0</ele><time>2026-04-12T08:27:59Z</time></trkpt><trkpt lat="42.96838849609016" lon="12.115604096220123"><ele>369.6</ele><time>2026-04-12T08:28:00Z</time></trkpt><trkpt lat="42.96835586686972" lon="12.115504485466447"><ele>369.2</ele><time>2026-04-12T08:28:01Z</time></trkpt><trkpt lat="42.9683263461807" lon="12.115411147184462"><ele>368.79999999999995</ele><time>2026-04-12T08:28:02Z</time></trkpt><trkpt lat="42.96829868613811" lon="12.11532407518625"><ele>368.4</ele><time>2026-04-12T08:28:03Z</time></trkpt><trkpt lat="42.9682381062439" lon="12.115184715119467"><ele>368.0</ele><time>2026-04-12T08:28:05Z</time></trkpt><trkpt lat="42.968150226035355" lon="12.115073874055653"><ele>368.0</ele><time>2026-04-12T08:28:07Z</time></trkpt><trkpt lat="42.96809947212279" lon="12.11499866149725"><ele>368.0</ele><time>2026-04-12T08:28:08Z</time></trkpt><trkpt lat="42.96805119435125" lon="12.114906639421083"><ele>368.0</ele><time>2026-04-12T08:28:09Z</time></trkpt><trkpt lat="42.968003806935236" lon="12.114821259178035"><ele>368.0</ele><time>2026-04-12T08:28:10Z</time></trkpt><trkpt lat="42.96794752305995" lon="12.114744191142337"><ele>368.0</ele><time>2026-04-12T08:28:11Z</time></trkpt><trkpt lat="42.9678804954093" lon="12.114679732295292"><ele>368.0</ele><time>2026-04-12T08:28:12Z</time></trkpt><trkpt lat="42.967806821018016" lon="12.114657903303684"><ele>366.79999999999995</ele><time>2026-04-12T08:28:13Z</time></trkpt><trkpt lat="42.96772863562785" lon="12.11467942710356"><ele>365.6</ele><time>2026-04-12T08:28:14Z</time></trkpt><trkpt lat="42.96763664756656" lon="12.114723390380028"><ele>364.4</ele><time>2026-04-12T08:28:15Z</time></trkpt><trkpt lat="42.96754514801691" lon="12.114748730917803"><ele>363.20000000000005</ele><time>2026-04-12T08:28:16Z</time></trkpt><trkpt lat="42.967464973521594" lon="12.114722214649984"><ele>362.0</ele><time>2026-04-12T08:28:17Z</time></trkpt><trkpt lat="42.96737919900077" lon="12.11465896162621"><ele>362.0</ele><time>2026-04-12T08:28:18Z</time></trkpt><trkpt lat="42.967287054456506" lon="12.11456595494385"><ele>362.0</ele><time>2026-04-12T08:28:19Z</time></trkpt><trkpt lat="42.967192248421576" lon="12.114476090202798"><ele>362.0</ele><time>2026-04-12T08:28:20Z</time></trkpt><trkpt lat="42.96710104531315" lon="12.11439372938578"><ele>362.0</ele><time>2026-04-12T08:28:21Z</time></trkpt><trkpt lat="42.96702768389201" lon="12.114316374516852"><ele>362.0</ele><time>2026-04-12T08:28:22Z</time></trkpt><trkpt lat="42.96696147434785" lon="12.114253210394153"><ele>362.0</ele><time>2026-04-12T08:28:23Z</time></trkpt><trkpt lat="42.96689361822607" lon="12.114209344432222"><ele>362.0</ele><time>2026-04-12T08:28:24Z</time></trkpt><trkpt lat="42.96682004047725" lon="12.114195545111318"><ele>362.0</ele><time>2026-04-12T08:28:25Z</time></trkpt><trkpt lat="42.96674024160209" lon="12.114217605070914"><ele>362.0</ele><time>2026-04-12T08:28:26Z</time></trkpt><trkpt lat="42.96665970264572" lon="12.114249368329114"><ele>362.0</ele><time>2026-04-12T08:28:27Z</time></trkpt><trkpt lat="42.96657326394133" lon="12.114275118530186"><ele>362.0</ele><time>2026-04-12T08:28:28Z</time></trkpt><trkpt lat="42.966482042706545" lon="12.114296498880334"><ele>363.83333333333337</ele><time>2026-04-12T08:28:29Z</time></trkpt><trkpt lat="42.966396482995364" lon="12.114303820125855"><ele>365.6666666666667</ele><time>2026-04-12T08:28:30Z</time></trkpt><trkpt lat="42.96630931845996" lon="12.114281301031252"><ele>367.5</ele><time>2026-04-12T08:28:31Z</time></trkpt><trkpt lat="42.96623497667071" lon="12.114244916202228"><ele>369.3333333333333</ele><time>2026-04-12T08:28:32Z</time></trkpt><trkpt lat="42.966159889258556" lon="12.114197702686822"><ele>371.16666666666663</ele><time>2026-04-12T08:28:33Z</time></trkpt><trkpt lat="42.96608998715579" lon="12.114124378692747"><ele>373.0</ele><time>2026-04-12T08:28:34Z</time></trkpt><trkpt lat="42.966025026459526" lon="12.114035699622724"><ele>373.0</ele><time>2026-04-12T08:28:35Z</time></trkpt><trkpt lat="42.96594281873527" lon="12.113971506425196"><ele>373.0</ele><time>2026-04-12T08:28:36Z</time></trkpt><trkpt lat="42.965854028430606" lon="12.113928109112033"><ele>373.0</ele><time>2026-04-12T08:28:37Z</time></trkpt><trkpt lat="42.965759544974915" lon="12.113896461369771"><ele>373.0</ele><time>2026-04-12T08:28:38Z</time></trkpt><trkpt lat="42.965647058682265" lon="12.113872502893965"><ele>373.0</ele><time>2026-04-12T08:28:39Z</time></trkpt><trkpt lat="42.96553331635262" lon="12.113857114956854"><ele>376.0</ele><time>2026-04-12T08:28:40Z</time></trkpt><trkpt lat="42.96542284608665" lon="12.113849042776737"><ele>379.0</ele><time>2026-04-12T08:28:41Z</time></trkpt><trkpt lat="42.96531853894383" lon="12.113844253351255"><ele>382.0</ele><time>2026-04-12T08:28:42Z</time></trkpt><trkpt lat="42.96524688516594" lon="12.11385957325683"><ele>385.0</ele><time>2026-04-12T08:28:43Z</time></trkpt><trkpt lat="42.96519129303078" lon="12.113953499806524"><ele>388.0</ele><time>2026-04-12T08:28:45Z</time></trkpt><trkpt lat="42.96519360541978" lon="12.11407431982052"><ele>389.1666666666667</ele><time>2026-04-12T08:28:47Z</time></trkpt><trkpt lat="42.96510697890132" lon="12.114187946284893"><ele>390.33333333333337</ele><time>2026-04-12T08:28:49Z</time></trkpt><trkpt lat="42.96503721212301" lon="12.114146580391296"><ele>391.5</ele><time>2026-04-12T08:28:50Z</time></trkpt><trkpt lat="42.964959529680975" lon="12.114115956827442"><ele>392.66666666666663</ele><time>2026-04-12T08:28:51Z</time></trkpt><trkpt lat="42.9648760958009" lon="12.114144964262824"><ele>393.8333333333333</ele><time>2026-04-12T08:28:52Z</time></trkpt><trkpt lat="42.96481208965312" lon="12.114139160295563"><ele>395.0</ele><time>2026-04-12T08:28:53Z</time></trkpt><trkpt lat="42.96474491956116" lon="12.11414261141822"><ele>396.4285714285714</ele><time>2026-04-12T08:28:54Z</time></trkpt><trkpt lat="42.96468038457037" lon="12.114149042600639"><ele>397.8571428571429</ele><time>2026-04-12T08:28:55Z</time></trkpt><trkpt lat="42.96462081444573" lon="12.114186052860774"><ele>399.2857142857143</ele><time>2026-04-12T08:28:56Z</time></trkpt><trkpt lat="42.96457177120325" lon="12.114241890917064"><ele>400.71428571428567</ele><time>2026-04-12T08:28:57Z</time></trkpt><trkpt lat="42.964531938035705" lon="12.114314220239375"><ele>402.1428571428571</ele><time>2026-04-12T08:28:58Z</time></trkpt><trkpt lat="42.96455327378626" lon="12.114477202299849"><ele>403.57142857142856</ele><time>2026-04-12T08:29:00Z</time></trkpt><trkpt lat="42.964602370951766" lon="12.114537612430938"><ele>405.0</ele><time>2026-04-12T08:29:01Z</time></trkpt><trkpt lat="42.96466396369506" lon="12.114593849758071"><ele>404.99999999999994</ele><time>2026-04-12T08:29:02Z</time></trkpt><trkpt lat="42.96472611845643" lon="12.114654982324799"><ele>405.0</ele><time>2026-04-12T08:29:03Z</time></trkpt><trkpt lat="42.96475775632909" lon="12.114742276514258"><ele>405.0</ele><time>2026-04-12T08:29:04Z</time></trkpt><trkpt lat="42.964770075497285" lon="12.114843033251073"><ele>405.0</ele><time>2026-04-12T08:29:05Z</time></trkpt><trkpt lat="42.96475112807639" lon="12.11492970990432"><ele>405.0</ele><time>2026-04-12T08:29:06Z</time></trkpt><trkpt lat="42.96470556583032" lon="12.114999038436956"><ele>404.99999999999994</ele><time>2026-04-12T08:29:07Z</time></trkpt><trkpt lat="42.9646503592659" lon="12.115075582118982"><ele>405.0</ele><time>2026-04-12T08:29:08Z</time></trkpt><trkpt lat="42.96460201387068" lon="12.115163508943342"><ele>404.0</ele><time>2026-04-12T08:29:09Z</time></trkpt><trkpt lat="42.964567078637955" lon="12.11529887582995"><ele>403.0</ele><time>2026-04-12T08:29:11Z</time></trkpt><trkpt lat="42.96455359046111" lon="12.115447149120495"><ele>402.0</ele><time>2026-04-12T08:29:13Z</time></trkpt><trkpt lat="42.96448462112503" lon="12.11559004104835"><ele>401.0</ele><time>2026-04-12T08:29:15Z</time></trkpt><trkpt lat="42.964423518290886" lon="12.115645048027107"><ele>400.0</ele><time>2026-04-12T08:29:16Z</time></trkpt><trkpt lat="42.96434566062766" lon="12.115685438474491"><ele>399.2</ele><time>2026-04-12T08:29:17Z</time></trkpt><trkpt lat="42.96427211499275" lon="12.115742814135134"><ele>398.4</ele><time>2026-04-12T08:29:18Z</time></trkpt><trkpt lat="42.964208956554636" lon="12.115820629400282"><ele>397.6</ele><time>2026-04-12T08:29:19Z</time></trkpt><trkpt lat="42.964233822958846" lon="12.116014973531238"><ele>396.8</ele><time>2026-04-12T08:29:21Z</time></trkpt><trkpt lat="42.9642601531152" lon="12.116164540694266"><ele>396.0</ele><time>2026-04-12T08:29:22Z</time></trkpt><trkpt lat="42.96428610001501" lon="12.116308282585015"><ele>396.0</ele><time>2026-04-12T08:29:23Z</time></trkpt><trkpt lat="42.96430391336547" lon="12.1164475694343"><ele>396.0</ele><time>2026-04-12T08:29:24Z</time></trkpt><trkpt lat="42.964322628845714" lon="12.116574440215981"><ele>396.0</ele><time>2026-04-12T08:29:25Z</time></trkpt><trkpt lat="42.96435318762438" lon="12.116683667797739"><ele>396.0</ele><time>2026-04-12T08:29:26Z</time></trkpt><trkpt lat="42.964405590698654" lon="12.116782805101284"><ele>396.0</ele><time>2026-04-12T08:29:27Z</time></trkpt><trkpt lat="42.964479967166035" lon="12.116863583721951"><ele>395.8333333333333</ele><time>2026-04-12T08:29:28Z</time></trkpt><trkpt lat="42.964557849053946" lon="12.116935971298293"><ele>395.66666666666663</ele><time>2026-04-12T08:29:29Z</time></trkpt><trkpt lat="42.96463584909415" lon="12.117025363009605"><ele>395.5</ele><time>2026-04-12T08:29:30Z</time></trkpt><trkpt lat="42.96470361528855" lon="12.11709219400432"><ele>395.3333333333333</ele><time>2026-04-12T08:29:31Z</time></trkpt><trkpt lat="42.96477337493923" lon="12.117148971196665"><ele>395.16666666666663</ele><time>2026-04-12T08:29:32Z</time></trkpt><trkpt lat="42.964840307634496" lon="12.117196841720615"><ele>395.0</ele><time>2026-04-12T08:29:33Z</time></trkpt><trkpt lat="42.96490363072024" lon="12.117243539133447"><ele>395.0</ele><time>2026-04-12T08:29:34Z</time></trkpt><trkpt lat="42.96496081002167" lon="12.117290125629582"><ele>395.0</ele><time>2026-04-12T08:29:35Z</time></trkpt><trkpt lat="42.96505361740038" lon="12.117356176105059"><ele>395.0</ele><time>2026-04-12T08:29:37Z</time></trkpt><trkpt lat="42.96508452877005" lon="12.11744604541618"><ele>395.0</ele><time>2026-04-12T08:29:41Z</time></trkpt><trkpt lat="42.96498460143111" lon="12.11744259008412"><ele>395.0</ele><time>2026-04-12T08:29:44Z</time></trkpt><trkpt lat="42.96485507812001" lon="12.117458410085439"><ele>395.99999999999994</ele><time>2026-04-12T08:29:46Z</time></trkpt><trkpt lat="42.96478959716364" lon="12.11749572055858"><ele>397.0</ele><time>2026-04-12T08:29:47Z</time></trkpt><trkpt lat="42.964711540395825" lon="12.117493532504607"><ele>398.0</ele><time>2026-04-12T08:29:48Z</time></trkpt><trkpt lat="42.96462982105048" lon="12.117489488801482"><ele>399.0</ele><time>2026-04-12T08:29:49Z</time></trkpt><trkpt lat="42.96453976329334" lon="12.117485488644546"><ele>399.99999999999994</ele><time>2026-04-12T08:29:50Z</time></trkpt><trkpt lat="42.964456464966915" lon="12.117462343045709"><ele>401.0</ele><time>2026-04-12T08:29:51Z</time></trkpt><trkpt lat="42.96438660947983" lon="12.11743415278278"><ele>401.0</ele><time>2026-04-12T08:29:52Z</time></trkpt><trkpt lat="42.96428802079734" lon="12.117438077600896"><ele>401.0</ele><time>2026-04-12T08:29:53Z</time></trkpt><trkpt lat="42.96419222468246" lon="12.117393684362854"><ele>401.0</ele><time>2026-04-12T08:29:54Z</time></trkpt><trkpt lat="42.96411213224579" lon="12.117352014318497"><ele>401.0</ele><time>2026-04-12T08:29:55Z</time></trkpt><trkpt lat="42.96403188620008" lon="12.117285608723016"><ele>401.0</ele><time>2026-04-12T08:29:56Z</time></trkpt><trkpt lat="42.96394936903651" lon="12.117201719081065"><ele>404.0</ele><time>2026-04-12T08:29:57Z</time></trkpt><trkpt lat="42.96388640213858" lon="12.117117837655824"><ele>407.0</ele><time>2026-04-12T08:29:58Z</time></trkpt><trkpt lat="42.96381747066999" lon="12.117026481180233"><ele>410.0</ele><time>2026-04-12T08:29:59Z</time></trkpt><trkpt lat="42.96375941840132" lon="12.116849028793505"><ele>413.0</ele><time>2026-04-12T08:30:00Z</time></trkpt><trkpt lat="42.96368415906557" lon="12.116764944686212"><ele>416.0</ele><time>2026-04-12T08:30:01Z</time></trkpt><trkpt lat="42.963622032655934" lon="12.116731731979131"><ele>415.99999999999994</ele><time>2026-04-12T08:30:02Z</time></trkpt><trkpt lat="42.9635588275647" lon="12.116858451779638"><ele>416.0</ele><time>2026-04-12T08:30:04Z</time></trkpt><trkpt lat="42.963521622724855" lon="12.116940990582663"><ele>416.0</ele><time>2026-04-12T08:30:05Z</time></trkpt><trkpt lat="42.96348281921747" lon="12.117040335472783"><ele>416.0</ele><time>2026-04-12T08:30:06Z</time></trkpt><trkpt lat="42.963471846496724" lon="12.117145261976786"><ele>415.99999999999994</ele><time>2026-04-12T08:30:07Z</time></trkpt><trkpt lat="42.96345506696032" lon="12.117258554814493"><ele>416.0</ele><time>2026-04-12T08:30:08Z</time></trkpt><trkpt lat="42.9633876736177" lon="12.11741929008952"><ele>416.8</ele><time>2026-04-12T08:30:10Z</time></trkpt><trkpt lat="42.96338711015186" lon="12.117513268814506"><ele>417.6</ele><time>2026-04-12T08:30:11Z</time></trkpt><trkpt lat="42.9633229559022" lon="12.117612857126028"><ele>418.4</ele><time>2026-04-12T08:30:13Z</time></trkpt><trkpt lat="42.963197568370234" lon="12.117565844157232"><ele>419.2</ele><time>2026-04-12T08:30:15Z</time></trkpt><trkpt lat="42.96308913343314" lon="12.117521988485759"><ele>420.0</ele><time>2026-04-12T08:30:16Z</time></trkpt><trkpt lat="42.963007794540786" lon="12.11746779250447"><ele>423.8</ele><time>2026-04-12T08:30:17Z</time></trkpt><trkpt lat="42.96296422060786" lon="12.117391476565356"><ele>427.6</ele><time>2026-04-12T08:30:18Z</time></trkpt><trkpt lat="42.9628708173669" lon="12.1174413457875"><ele>431.4</ele><time>2026-04-12T08:30:21Z</time></trkpt><trkpt lat="42.96272047837336" lon="12.117466423567013"><ele>435.2</ele><time>2026-04-12T08:30:23Z</time></trkpt><trkpt lat="42.96263584467668" lon="12.11745489937524"><ele>439.0</ele><time>2026-04-12T08:30:24Z</time></trkpt><trkpt lat="42.96254733946183" lon="12.117420229282336"><ele>442.00000000000006</ele><time>2026-04-12T08:30:25Z</time></trkpt><trkpt lat="42.96248552595982" lon="12.117352052567375"><ele>445.0</ele><time>2026-04-12T08:30:26Z</time></trkpt><trkpt lat="42.96243188629509" lon="12.117259741712033"><ele>448.0</ele><time>2026-04-12T08:30:27Z</time></trkpt><trkpt lat="42.96237524443072" lon="12.117188472249726"><ele>451.0</ele><time>2026-04-12T08:30:28Z</time></trkpt><trkpt lat="42.962313021529525" lon="12.117125672364395"><ele>454.00000000000006</ele><time>2026-04-12T08:30:29Z</time></trkpt><trkpt lat="42.962249392513705" lon="12.117045617331748"><ele>457.0</ele><time>2026-04-12T08:30:30Z</time></trkpt><trkpt lat="42.96218512225836" lon="12.116967761711015"><ele>457.00000000000006</ele><time>2026-04-12T08:30:31Z</time></trkpt><trkpt lat="42.96213236796755" lon="12.11689451245195"><ele>457.0</ele><time>2026-04-12T08:30:32Z</time></trkpt><trkpt lat="42.962088318547465" lon="12.116823633601994"><ele>457.0</ele><time>2026-04-12T08:30:33Z</time></trkpt><trkpt lat="42.96197394446002" lon="12.116757091955835"><ele>457.0</ele><time>2026-04-12T08:30:35Z</time></trkpt><trkpt lat="42.961903137939494" lon="12.11676149495449"><ele>457.00000000000006</ele><time>2026-04-12T08:30:36Z</time></trkpt><trkpt lat="42.961806656024685" lon="12.116769136184628"><ele>457.0</ele><time>2026-04-12T08:30:37Z</time></trkpt><trkpt lat="42.961729415778485" lon="12.116772931597216"><ele>460.8</ele><time>2026-04-12T08:30:38Z</time></trkpt><trkpt lat="42.96158772333953" lon="12.116773850333667"><ele>464.6</ele><time>2026-04-12T08:30:40Z</time></trkpt><trkpt lat="42.961512502800005" lon="12.116749060357526"><ele>468.40000000000003</ele><time>2026-04-12T08:30:41Z</time></trkpt><trkpt lat="42.96144524123219" lon="12.116726063331027"><ele>472.20000000000005</ele><time>2026-04-12T08:30:42Z</time></trkpt><trkpt lat="42.961364067212855" lon="12.116712071670488"><ele>476.0</ele><time>2026-04-12T08:30:43Z</time></trkpt><trkpt lat="42.96126709000201" lon="12.116710986019836"><ele>476.0</ele><time>2026-04-12T08:30:44Z</time></trkpt><trkpt lat="42.96116635359381" lon="12.116706577891664"><ele>476.0</ele><time>2026-04-12T08:30:45Z</time></trkpt><trkpt lat="42.96107895878848" lon="12.116707674270817"><ele>476.0</ele><time>2026-04-12T08:30:46Z</time></trkpt><trkpt lat="42.96100114800824" lon="12.116615539291072"><ele>476.0</ele><time>2026-04-12T08:30:48Z</time></trkpt><trkpt lat="42.960998512727066" lon="12.116485034759004"><ele>476.0</ele><time>2026-04-12T08:30:50Z</time></trkpt><trkpt lat="42.960966030353646" lon="12.11640501614409"><ele>475.99999999999994</ele><time>2026-04-12T08:31:02Z</time></trkpt><trkpt lat="42.96099756237339" lon="12.11648363800792"><ele>476.0</ele><time>2026-04-12T08:31:05Z</time></trkpt><trkpt lat="42.96102284596736" lon="12.116571762761655"><ele>476.0</ele><time>2026-04-12T08:31:06Z</time></trkpt><trkpt lat="42.96105420682592" lon="12.11670809514903"><ele>476.0</ele><time>2026-04-12T08:31:08Z</time></trkpt><trkpt lat="42.9611799499391" lon="12.11671498584732"><ele>475.99999999999994</ele><time>2026-04-12T08:31:10Z</time></trkpt><trkpt lat="42.96125127487293" lon="12.116709296343085"><ele>476.0</ele><time>2026-04-12T08:31:11Z</time></trkpt><trkpt lat="42.96132106806969" lon="12.116724061260486"><ele>476.0</ele><time>2026-04-12T08:31:12Z</time></trkpt><trkpt lat="42.96139088617568" lon="12.116776582040826"><ele>476.0</ele><time>2026-04-12T08:31:13Z</time></trkpt><trkpt lat="42.96147305737552" lon="12.116856787525426"><ele>476.0</ele><time>2026-04-12T08:31:14Z</time></trkpt><trkpt lat="42.96157563416242" lon="12.116917069019559"><ele>476.0</ele><time>2026-04-12T08:31:15Z</time></trkpt><trkpt lat="42.96168757990527" lon="12.117006071891"><ele>476.0</ele><time>2026-04-12T08:31:16Z</time></trkpt><trkpt lat="42.96178437973071" lon="12.117080165508442"><ele>474.6</ele><time>2026-04-12T08:31:17Z</time></trkpt><trkpt lat="42.96185855491272" lon="12.117148002544555"><ele>473.20000000000005</ele><time>2026-04-12T08:31:18Z</time></trkpt><trkpt lat="42.96190584934133" lon="12.117252388125172"><ele>471.79999999999995</ele><time>2026-04-12T08:31:19Z</time></trkpt><trkpt lat="42.96192588877412" lon="12.117392095212507"><ele>470.4</ele><time>2026-04-12T08:31:20Z</time></trkpt><trkpt lat="42.96193227251044" lon="12.117540479764468"><ele>469.0</ele><time>2026-04-12T08:31:21Z</time></trkpt><trkpt lat="42.96190444548314" lon="12.117683754388652"><ele>469.00000000000006</ele><time>2026-04-12T08:31:22Z</time></trkpt><trkpt lat="42.961859394880385" lon="12.117802611110271"><ele>469.0</ele><time>2026-04-12T08:31:23Z</time></trkpt><trkpt lat="42.96181099930649" lon="12.117905953779562"><ele>469.0</ele><time>2026-04-12T08:31:24Z</time></trkpt><trkpt lat="42.96176205818591" lon="12.11796452555517"><ele>469.0</ele><time>2026-04-12T08:31:25Z</time></trkpt><trkpt lat="42.96169751510669" lon="12.117977208803993"><ele>469.00000000000006</ele><time>2026-04-12T08:31:26Z</time></trkpt><trkpt lat="42.96162223971135" lon="12.117971579463788"><ele>469.0</ele><time>2026-04-12T08:31:27Z</time></trkpt><trkpt lat="42.961525167921366" lon="12.117923786730275"><ele>474.25</ele><time>2026-04-12T08:31:28Z</time></trkpt><trkpt lat="42.96141612764286" lon="12.117892544593394"><ele>479.5</ele><time>2026-04-12T08:31:29Z</time></trkpt><trkpt lat="42.9613013840691" lon="12.117853178348998"><ele>484.75</ele><time>2026-04-12T08:31:30Z</time></trkpt><trkpt lat="42.96118037485389" lon="12.117821407540402"><ele>490.0</ele><time>2026-04-12T08:31:31Z</time></trkpt><trkpt lat="42.96106311225774" lon="12.117808050497288"><ele>490.0</ele><time>2026-04-12T08:31:32Z</time></trkpt><trkpt lat="42.9609562905866" lon="12.117777624412179"><ele>490.0</ele><time>2026-04-12T08:31:33Z</time></trkpt><trkpt lat="42.96085912957931" lon="12.11773151224613"><ele>490.0</ele><time>2026-04-12T08:31:34Z</time></trkpt><trkpt lat="42.960777074040834" lon="12.117642381053015"><ele>490.0</ele><time>2026-04-12T08:31:35Z</time></trkpt><trkpt lat="42.96070221280454" lon="12.11754466623964"><ele>490.0</ele><time>2026-04-12T08:31:36Z</time></trkpt><trkpt lat="42.96065000599589" lon="12.11741986988662"><ele>491.0</ele><time>2026-04-12T08:31:37Z</time></trkpt><trkpt lat="42.960614064506686" lon="12.117279753222762"><ele>492.0</ele><time>2026-04-12T08:31:38Z</time></trkpt><trkpt lat="42.96055783012429" lon="12.117176605501955"><ele>493.0</ele><time>2026-04-12T08:31:39Z</time></trkpt><trkpt lat="42.96048696247968" lon="12.117083314751369"><ele>494.0</ele><time>2026-04-12T08:31:40Z</time></trkpt><trkpt lat="42.96039257329386" lon="12.116987010228783"><ele>495.0</ele><time>2026-04-12T08:31:41Z</time></trkpt><trkpt lat="42.96030558417615" lon="12.116917574498922"><ele>495.0</ele><time>2026-04-12T08:31:42Z</time></trkpt><trkpt lat="42.960231492783805" lon="12.116831019147387"><ele>495.0</ele><time>2026-04-12T08:31:43Z</time></trkpt><trkpt lat="42.960163488078614" lon="12.116810890641437"><ele>495.0</ele><time>2026-04-12T08:31:44Z</time></trkpt><trkpt lat="42.960104109356095" lon="12.116846540244307"><ele>495.0</ele><time>2026-04-12T08:31:45Z</time></trkpt><trkpt lat="42.96004281545829" lon="12.11692116116802"><ele>495.0</ele><time>2026-04-12T08:31:46Z</time></trkpt><trkpt lat="42.9599737750505" lon="12.116979210535122"><ele>495.0</ele><time>2026-04-12T08:31:47Z</time></trkpt><trkpt lat="42.959881589575595" lon="12.117029554477636"><ele>499.2</ele><time>2026-04-12T08:31:48Z</time></trkpt><trkpt lat="42.959775444807896" lon="12.117083557609941"><ele>503.4</ele><time>2026-04-12T08:31:49Z</time></trkpt><trkpt lat="42.95967175228241" lon="12.117140740832042"><ele>507.6</ele><time>2026-04-12T08:31:50Z</time></trkpt><trkpt lat="42.95961418456546" lon="12.117227039427647"><ele>511.8</ele><time>2026-04-12T08:31:51Z</time></trkpt><trkpt lat="42.95954160530888" lon="12.117340199041678"><ele>516.0</ele><time>2026-04-12T08:31:52Z</time></trkpt><trkpt lat="42.959496630748575" lon="12.117469692002201"><ele>516.6</ele><time>2026-04-12T08:31:53Z</time></trkpt><trkpt lat="42.95944921230277" lon="12.117589671131432"><ele>517.2</ele><time>2026-04-12T08:31:54Z</time></trkpt><trkpt lat="42.959441631186095" lon="12.117703694347064"><ele>517.8</ele><time>2026-04-12T08:31:55Z</time></trkpt><trkpt lat="42.95943188397376" lon="12.117847205616034"><ele>518.4</ele><time>2026-04-12T08:31:56Z</time></trkpt><trkpt lat="42.95944197652052" lon="12.11797978841777"><ele>519.0</ele><time>2026-04-12T08:31:57Z</time></trkpt><trkpt lat="42.95945510378344" lon="12.118103487838964"><ele>519.0</ele><time>2026-04-12T08:31:58Z</time></trkpt><trkpt lat="42.95948425565278" lon="12.118226452841286"><ele>519.0</ele><time>2026-04-12T08:31:59Z</time></trkpt><trkpt lat="42.95953676702317" lon="12.11832837131233"><ele>519.0</ele><time>2026-04-12T08:32:00Z</time></trkpt><trkpt lat="42.9595827244388" lon="12.118411338107357"><ele>519.0</ele><time>2026-04-12T08:32:01Z</time></trkpt><trkpt lat="42.95957241455536" lon="12.118540609707836"><ele>519.0</ele><time>2026-04-12T08:32:03Z</time></trkpt><trkpt lat="42.95946595819504" lon="12.118557246662956"><ele>520.5</ele><time>2026-04-12T08:32:05Z</time></trkpt><trkpt lat="42.95936860466021" lon="12.11851696026089"><ele>522.0</ele><time>2026-04-12T08:32:06Z</time></trkpt><trkpt lat="42.95925116379734" lon="12.118476313180345"><ele>523.5</ele><time>2026-04-12T08:32:07Z</time></trkpt><trkpt lat="42.95912276735259" lon="12.118452412227438"><ele>525.0</ele><time>2026-04-12T08:32:08Z</time></trkpt><trkpt lat="42.9590087796184" lon="12.118454857475088"><ele>527.6</ele><time>2026-04-12T08:32:09Z</time></trkpt><trkpt lat="42.95892063416038" lon="12.11845587374017"><ele>530.2</ele><time>2026-04-12T08:32:10Z</time></trkpt><trkpt lat="42.95883580099562" lon="12.118455785104436"><ele>532.8</ele><time>2026-04-12T08:32:11Z</time></trkpt><trkpt lat="42.958745527911205" lon="12.11841715852142"><ele>535.4</ele><time>2026-04-12T08:32:12Z</time></trkpt><trkpt lat="42.95866693909298" lon="12.118354341796895"><ele>538.0</ele><time>2026-04-12T08:32:13Z</time></trkpt><trkpt lat="42.958587897870515" lon="12.118276548666259"><ele>537.5</ele><time>2026-04-12T08:32:14Z</time></trkpt><trkpt lat="42.9585046178265" lon="12.118204806656317"><ele>537.0</ele><time>2026-04-12T08:32:15Z</time></trkpt><trkpt lat="42.95842984826501" lon="12.118136187195642"><ele>536.5</ele><time>2026-04-12T08:32:16Z</time></trkpt><trkpt lat="42.95835443241003" lon="12.118067580067422"><ele>536.0</ele><time>2026-04-12T08:32:17Z</time></trkpt><trkpt lat="42.95830987777266" lon="12.117992745065482"><ele>535.5</ele><time>2026-04-12T08:32:18Z</time></trkpt><trkpt lat="42.95826438415473" lon="12.117894084601549"><ele>535.0</ele><time>2026-04-12T08:32:20Z</time></trkpt><trkpt lat="42.95815479566393" lon="12.117883748707367"><ele>538.6</ele><time>2026-04-12T08:32:22Z</time></trkpt><trkpt lat="42.958071707649204" lon="12.117899799090646"><ele>542.2</ele><time>2026-04-12T08:32:23Z</time></trkpt><trkpt lat="42.957988404862434" lon="12.11790038985462"><ele>545.8</ele><time>2026-04-12T08:32:24Z</time></trkpt><trkpt lat="42.957921618249884" lon="12.117921592712293"><ele>549.4</ele><time>2026-04-12T08:32:25Z</time></trkpt><trkpt lat="42.95780563539026" lon="12.118015203825356"><ele>553.0</ele><time>2026-04-12T08:32:27Z</time></trkpt><trkpt lat="42.957726542778545" lon="12.118066300078139"><ele>553.0</ele><time>2026-04-12T08:32:28Z</time></trkpt><trkpt lat="42.95765700647244" lon="12.118106627082598"><ele>553.0</ele><time>2026-04-12T08:32:29Z</time></trkpt><trkpt lat="42.957589027199084" lon="12.118162590674446"><ele>553.0</ele><time>2026-04-12T08:32:30Z</time></trkpt><trkpt lat="42.95752363916365" lon="12.118327327084499"><ele>553.0</ele><time>2026-04-12T08:32:32Z</time></trkpt><trkpt lat="42.95754148225565" lon="12.118419010864791"><ele>553.0</ele><time>2026-04-12T08:32:33Z</time></trkpt><trkpt lat="42.957592545384706" lon="12.118490925901714"><ele>553.0</ele><time>2026-04-12T08:32:34Z</time></trkpt><trkpt lat="42.95764967253406" lon="12.118560880156284"><ele>551.0</ele><time>2026-04-12T08:32:35Z</time></trkpt><trkpt lat="42.957704610415504" lon="12.118645550883304"><ele>549.0</ele><time>2026-04-12T08:32:36Z</time></trkpt><trkpt lat="42.95775630255589" lon="12.118728375446164"><ele>547.0</ele><time>2026-04-12T08:32:37Z</time></trkpt><trkpt lat="42.957775386362314" lon="12.118819559228948"><ele>545.0</ele><time>2026-04-12T08:32:38Z</time></trkpt><trkpt lat="42.95772309945295" lon="12.118979924204647"><ele>543.0</ele><time>2026-04-12T08:32:40Z</time></trkpt><trkpt lat="42.957628225780475" lon="12.11898176100484"><ele>543.0</ele><time>2026-04-12T08:32:42Z</time></trkpt><trkpt lat="42.957567884977514" lon="12.118936135333827"><ele>543.0</ele><time>2026-04-12T08:32:43Z</time></trkpt><trkpt lat="42.95746352606489" lon="12.118869417274222"><ele>543.0</ele><time>2026-04-12T08:32:45Z</time></trkpt><trkpt lat="42.95738138879472" lon="12.118869182689549"><ele>543.0</ele><time>2026-04-12T08:32:46Z</time></trkpt><trkpt lat="42.957316947352886" lon="12.118875873396664"><ele>543.0</ele><time>2026-04-12T08:32:47Z</time></trkpt><trkpt lat="42.95724292924284" lon="12.118882265888272"><ele>543.0</ele><time>2026-04-12T08:32:48Z</time></trkpt><trkpt lat="42.95715304648191" lon="12.118899728345328"><ele>544.3333333333334</ele><time>2026-04-12T08:32:49Z</time></trkpt><trkpt lat="42.95705093146652" lon="12.118911061834353"><ele>545.6666666666666</ele><time>2026-04-12T08:32:50Z</time></trkpt><trkpt lat="42.95696046051056" lon="12.118923544603895"><ele>547.0</ele><time>2026-04-12T08:32:51Z</time></trkpt><trkpt lat="42.956875736407724" lon="12.118923904875995"><ele>548.3333333333333</ele><time>2026-04-12T08:32:52Z</time></trkpt><trkpt lat="42.956796665308076" lon="12.118902695245026"><ele>549.6666666666666</ele><time>2026-04-12T08:32:53Z</time></trkpt><trkpt lat="42.956712144810176" lon="12.118904768458524"><ele>551.0</ele><time>2026-04-12T08:32:54Z</time></trkpt><trkpt lat="42.956649402743835" lon="12.118886618784682"><ele>551.8</ele><time>2026-04-12T08:32:55Z</time></trkpt><trkpt lat="42.956585432819324" lon="12.118894907188977"><ele>552.6</ele><time>2026-04-12T08:32:56Z</time></trkpt><trkpt lat="42.956500131529225" lon="12.118899530961256"><ele>553.4</ele><time>2026-04-12T08:32:57Z</time></trkpt><trkpt lat="42.956415143342035" lon="12.118935806669095"><ele>554.2</ele><time>2026-04-12T08:32:58Z</time></trkpt><trkpt lat="42.956319440879334" lon="12.118960837496951"><ele>555.0</ele><time>2026-04-12T08:32:59Z</time></trkpt><trkpt lat="42.95620884282818" lon="12.119011857768609"><ele>555.0</ele><time>2026-04-12T08:33:00Z</time></trkpt><trkpt lat="42.9561129951074" lon="12.11905763986679"><ele>555.0</ele><time>2026-04-12T08:33:01Z</time></trkpt><trkpt lat="42.95603250783775" lon="12.11910193558137"><ele>555.0</ele><time>2026-04-12T08:33:02Z</time></trkpt><trkpt lat="42.955984100796904" lon="12.119196388388852"><ele>555.0</ele><time>2026-04-12T08:33:03Z</time></trkpt><trkpt lat="42.95592493415741" lon="12.11928206572442"><ele>555.0</ele><time>2026-04-12T08:33:04Z</time></trkpt><trkpt lat="42.955782393530285" lon="12.11929121606403"><ele>558.0</ele><time>2026-04-12T08:33:06Z</time></trkpt><trkpt lat="42.95571263614405" lon="12.119441691878947"><ele>561.0</ele><time>2026-04-12T08:33:08Z</time></trkpt><trkpt lat="42.95563234742045" lon="12.119519343354476"><ele>564.0</ele><time>2026-04-12T08:33:10Z</time></trkpt><trkpt lat="42.95557021632777" lon="12.119550895903512"><ele>567.0</ele><time>2026-04-12T08:33:11Z</time></trkpt><trkpt lat="42.95548302011242" lon="12.11958890385713"><ele>570.0</ele><time>2026-04-12T08:33:12Z</time></trkpt><trkpt lat="42.95542296175554" lon="12.119629059545593"><ele>570.0</ele><time>2026-04-12T08:33:13Z</time></trkpt><trkpt lat="42.95532498052546" lon="12.119665349235383"><ele>570.0</ele><time>2026-04-12T08:33:15Z</time></trkpt><trkpt lat="42.95525743808014" lon="12.119639653247766"><ele>570.0</ele><time>2026-04-12T08:33:16Z</time></trkpt><trkpt lat="42.95519360722415" lon="12.119607947486065"><ele>570.0</ele><time>2026-04-12T08:33:17Z</time></trkpt><trkpt lat="42.95511925058704" lon="12.119576192265773"><ele>570.0</ele><time>2026-04-12T08:33:18Z</time></trkpt><trkpt lat="42.95504754230842" lon="12.119555330794016"><ele>570.0</ele><time>2026-04-12T08:33:19Z</time></trkpt><trkpt lat="42.95498093896139" lon="12.119537790212341"><ele>572.4</ele><time>2026-04-12T08:33:20Z</time></trkpt><trkpt lat="42.95491806626467" lon="12.119447810558203"><ele>574.8</ele><time>2026-04-12T08:33:22Z</time></trkpt><trkpt lat="42.95489780830025" lon="12.119277988394234"><ele>577.2</ele><time>2026-04-12T08:33:24Z</time></trkpt><trkpt lat="42.9548966865426" lon="12.119141318501416"><ele>579.6</ele><time>2026-04-12T08:33:25Z</time></trkpt><trkpt lat="42.95488196844527" lon="12.119007282226978"><ele>582.0</ele><time>2026-04-12T08:33:26Z</time></trkpt><trkpt lat="42.95480298961377" lon="12.118882398780467"><ele>582.0</ele><time>2026-04-12T08:33:28Z</time></trkpt><trkpt lat="42.95464965578709" lon="12.118826666574783"><ele>582.0</ele><time>2026-04-12T08:33:30Z</time></trkpt><trkpt lat="42.95455142285801" lon="12.118786791907148"><ele>582.0</ele><time>2026-04-12T08:33:31Z</time></trkpt><trkpt lat="42.954453320012476" lon="12.118742184878098"><ele>582.0</ele><time>2026-04-12T08:33:32Z</time></trkpt><trkpt lat="42.954352621780934" lon="12.118692571973758"><ele>582.0</ele><time>2026-04-12T08:33:33Z</time></trkpt><trkpt lat="42.95426651822372" lon="12.118644194575975"><ele>582.0</ele><time>2026-04-12T08:33:34Z</time></trkpt><trkpt lat="42.95419752462501" lon="12.118598563374675"><ele>582.0</ele><time>2026-04-12T08:33:35Z</time></trkpt><trkpt lat="42.954158594038944" lon="12.118499459540498"><ele>582.0</ele><time>2026-04-12T08:33:36Z</time></trkpt><trkpt lat="42.9541290351326" lon="12.11842337389625"><ele>582.0</ele><time>2026-04-12T08:33:37Z</time></trkpt><trkpt lat="42.954051675528866" lon="12.11837218801554"><ele>582.0</ele><time>2026-04-12T08:33:39Z</time></trkpt><trkpt lat="42.95397980709906" lon="12.118323197999217"><ele>585.4</ele><time>2026-04-12T08:33:40Z</time></trkpt><trkpt lat="42.95392698183665" lon="12.11826655164929"><ele>588.8000000000001</ele><time>2026-04-12T08:33:41Z</time></trkpt><trkpt lat="42.95389394755486" lon="12.11807867343609"><ele>592.2</ele><time>2026-04-12T08:33:43Z</time></trkpt><trkpt lat="42.95388043792132" lon="12.117955162895063"><ele>595.6</ele><time>2026-04-12T08:33:44Z</time></trkpt><trkpt lat="42.95386645263726" lon="12.117825689122492"><ele>599.0</ele><time>2026-04-12T08:33:45Z</time></trkpt><trkpt lat="42.95384101658457" lon="12.117745719878066"><ele>599.3333333333333</ele><time>2026-04-12T08:33:46Z</time></trkpt><trkpt lat="42.95376566454867" lon="12.117652297356301"><ele>599.6666666666666</ele><time>2026-04-12T08:33:48Z</time></trkpt><trkpt lat="42.95369611314198" lon="12.117675456339263"><ele>600.0</ele><time>2026-04-12T08:33:49Z</time></trkpt><trkpt lat="42.95362375388772" lon="12.11769696442661"><ele>600.3333333333334</ele><time>2026-04-12T08:33:50Z</time></trkpt><trkpt lat="42.95354058795901" lon="12.117759390277502"><ele>600.6666666666667</ele><time>2026-04-12T08:33:51Z</time></trkpt><trkpt lat="42.95352056448589" lon="12.117871946412285"><ele>601.0</ele><time>2026-04-12T08:33:53Z</time></trkpt><trkpt lat="42.953589098337574" lon="12.117903573599532"><ele>601.0</ele><time>2026-04-12T08:33:54Z</time></trkpt><trkpt lat="42.95364459912119" lon="12.117952068344508"><ele>601.0</ele><time>2026-04-12T08:33:55Z</time></trkpt><trkpt lat="42.95367583525926" lon="12.118075556268527"><ele>601.0</ele><time>2026-04-12T08:33:57Z</time></trkpt><trkpt lat="42.95361629869814" lon="12.118231841674438"><ele>601.0</ele><time>2026-04-12T08:33:59Z</time></trkpt><trkpt lat="42.95352623870289" lon="12.118323764218804"><ele>601.0</ele><time>2026-04-12T08:34:00Z</time></trkpt><trkpt lat="42.95343304300547" lon="12.118334150959793"><ele>600.6666666666667</ele><time>2026-04-12T08:34:02Z</time></trkpt><trkpt lat="42.95338121390786" lon="12.118274389047189"><ele>600.3333333333334</ele><time>2026-04-12T08:34:03Z</time></trkpt><trkpt lat="42.95334007090845" lon="12.118196605060888"><ele>600.0</ele><time>2026-04-12T08:34:04Z</time></trkpt><trkpt lat="42.95326953297172" lon="12.118124193840913"><ele>599.6666666666666</ele><time>2026-04-12T08:34:05Z</time></trkpt><trkpt lat="42.95321549413841" lon="12.118061900629655"><ele>599.3333333333333</ele><time>2026-04-12T08:34:06Z</time></trkpt><trkpt lat="42.953107501100945" lon="12.118065666719513"><ele>599.0</ele><time>2026-04-12T08:34:08Z</time></trkpt><trkpt lat="42.95300072477372" lon="12.118086099614588"><ele>602.0</ele><time>2026-04-12T08:34:10Z</time></trkpt><trkpt lat="42.95295865792608" lon="12.118221300184345"><ele>605.0</ele><time>2026-04-12T08:34:12Z</time></trkpt><trkpt lat="42.95289832699929" lon="12.11830720561645"><ele>608.0</ele><time>2026-04-12T08:34:14Z</time></trkpt><trkpt lat="42.95280174986905" lon="12.118327311927116"><ele>611.0</ele><time>2026-04-12T08:34:17Z</time></trkpt><trkpt lat="42.95272354417065" lon="12.118372287517449"><ele>614.0</ele><time>2026-04-12T08:34:18Z</time></trkpt><trkpt lat="42.95265029249834" lon="12.118415111551032"><ele>615.1666666666666</ele><time>2026-04-12T08:34:19Z</time></trkpt><trkpt lat="42.95257638088716" lon="12.118462647937307"><ele>616.3333333333333</ele><time>2026-04-12T08:34:20Z</time></trkpt><trkpt lat="42.95251381254468" lon="12.118489302357968"><ele>617.5</ele><time>2026-04-12T08:34:21Z</time></trkpt><trkpt lat="42.952425689878616" lon="12.118557699481292"><ele>618.6666666666666</ele><time>2026-04-12T08:34:23Z</time></trkpt><trkpt lat="42.952370015585394" lon="12.118641104443329"><ele>619.8333333333334</ele><time>2026-04-12T08:34:24Z</time></trkpt><trkpt lat="42.95230508245287" lon="12.118733740622732"><ele>621.0</ele><time>2026-04-12T08:34:26Z</time></trkpt><trkpt lat="42.95228737173433" lon="12.118872062082461"><ele>624.0</ele><time>2026-04-12T08:34:28Z</time></trkpt><trkpt lat="42.95233001980821" lon="12.118936157598514"><ele>627.0</ele><time>2026-04-12T08:34:29Z</time></trkpt><trkpt lat="42.95237506725458" lon="12.119004973564893"><ele>630.0</ele><time>2026-04-12T08:34:30Z</time></trkpt><trkpt lat="42.95241515599826" lon="12.119086059220988"><ele>633.0</ele><time>2026-04-12T08:34:31Z</time></trkpt><trkpt lat="42.952436411396114" lon="12.119221805990497"><ele>636.0</ele><time>2026-04-12T08:34:33Z</time></trkpt><trkpt lat="42.95241393542585" lon="12.119313870171245"><ele>639.0</ele><time>2026-04-12T08:34:34Z</time></trkpt><trkpt lat="42.95237285360676" lon="12.119422467691273"><ele>639.0</ele><time>2026-04-12T08:34:35Z</time></trkpt><trkpt lat="42.95232641498919" lon="12.119561650219014"><ele>639.0</ele><time>2026-04-12T08:34:36Z</time></trkpt><trkpt lat="42.952303972608725" lon="12.11965656079297"><ele>639.0</ele><time>2026-04-12T08:34:40Z</time></trkpt><trkpt lat="42.95231205036906" lon="12.119745329727321"><ele>639.0</ele><time>2026-04-12T08:34:49Z</time></trkpt><trkpt lat="42.952322824297376" lon="12.119869619260996"><ele>639.0</ele><time>2026-04-12T08:34:52Z</time></trkpt><trkpt lat="42.952336682007804" lon="12.120034325823065"><ele>639.0</ele><time>2026-04-12T08:34:54Z</time></trkpt><trkpt lat="42.952324766474455" lon="12.12011960515264"><ele>639.0</ele><time>2026-04-12T08:34:55Z</time></trkpt><trkpt lat="42.9522679526489" lon="12.120244228291153"><ele>639.0</ele><time>2026-04-12T08:34:57Z</time></trkpt><trkpt lat="42.952178783459" lon="12.120279440025866"><ele>639.0</ele><time>2026-04-12T08:35:00Z</time></trkpt><trkpt lat="42.95210431079413" lon="12.120346750831061"><ele>639.0</ele><time>2026-04-12T08:35:17Z</time></trkpt><trkpt lat="42.952063546686915" lon="12.120426541624617"><ele>639.0</ele><time>2026-04-12T08:35:20Z</time></trkpt><trkpt lat="42.952024340380305" lon="12.120530526136427"><ele>639.0</ele><time>2026-04-12T08:35:22Z</time></trkpt><trkpt lat="42.952024637130606" lon="12.120692715826017"><ele>639.0</ele><time>2026-04-12T08:35:24Z</time></trkpt><trkpt lat="42.95206428214686" lon="12.12086734214996"><ele>639.0</ele><time>2026-04-12T08:35:26Z</time></trkpt><trkpt lat="42.952050470011315" lon="12.121031972238978"><ele>639.0</ele><time>2026-04-12T08:35:28Z</time></trkpt><trkpt lat="42.952010413680206" lon="12.121121703209408"><ele>638.8</ele><time>2026-04-12T08:35:29Z</time></trkpt><trkpt lat="42.95193560342131" lon="12.121269753206468"><ele>638.5999999999999</ele><time>2026-04-12T08:35:31Z</time></trkpt><trkpt lat="42.95192004634516" lon="12.121359205958464"><ele>638.4</ele><time>2026-04-12T08:35:32Z</time></trkpt><trkpt lat="42.95186676169125" lon="12.121462375979483"><ele>638.1999999999999</ele><time>2026-04-12T08:35:33Z</time></trkpt><trkpt lat="42.9518028335539" lon="12.121552437701295"><ele>638.0</ele><time>2026-04-12T08:35:34Z</time></trkpt><trkpt lat="42.9516994710475" lon="12.121657092665687"><ele>642.5999999999999</ele><time>2026-04-12T08:35:35Z</time></trkpt><trkpt lat="42.951628449058575" lon="12.121685010913595"><ele>647.1999999999999</ele><time>2026-04-12T08:35:37Z</time></trkpt><trkpt lat="42.95159428102969" lon="12.121812447747791"><ele>651.8</ele><time>2026-04-12T08:36:56Z</time></trkpt><trkpt lat="42.951555741044274" lon="12.12190998015892"><ele>656.4</ele><time>2026-04-12T08:36:57Z</time></trkpt><trkpt lat="42.9515345306611" lon="12.122051726857805"><ele>661.0</ele><time>2026-04-12T08:36:59Z</time></trkpt><trkpt lat="42.951482589970965" lon="12.122180574855884"><ele>661.0</ele><time>2026-04-12T08:37:01Z</time></trkpt><trkpt lat="42.95137713388654" lon="12.122252458912516"><ele>661.0</ele><time>2026-04-12T08:37:03Z</time></trkpt><trkpt lat="42.95129358015407" lon="12.122227680427068"><ele>661.0</ele><time>2026-04-12T08:37:05Z</time></trkpt><trkpt lat="42.95129338887236" lon="12.12234918774651"><ele>661.0</ele><time>2026-04-12T08:37:08Z</time></trkpt><trkpt lat="42.951234957425626" lon="12.122422976401458"><ele>661.0</ele><time>2026-04-12T08:37:19Z</time></trkpt><trkpt lat="42.951209508170315" lon="12.122507646510584"><ele>661.0</ele><time>2026-04-12T08:37:21Z</time></trkpt><trkpt lat="42.95117056086526" lon="12.12262926536157"><ele>660.0</ele><time>2026-04-12T08:37:24Z</time></trkpt><trkpt lat="42.951159830291765" lon="12.122733854503078"><ele>659.0</ele><time>2026-04-12T08:37:26Z</time></trkpt><trkpt lat="42.951132211618166" lon="12.12284173435603"><ele>658.0</ele><time>2026-04-12T08:37:28Z</time></trkpt><trkpt lat="42.951086668466985" lon="12.122991261117667"><ele>657.0</ele><time>2026-04-12T08:37:30Z</time></trkpt><trkpt lat="42.951149645638566" lon="12.123135403449513"><ele>656.0</ele><time>2026-04-12T08:37:34Z</time></trkpt><trkpt lat="42.95119472303215" lon="12.123226378780926"><ele>658.0</ele><time>2026-04-12T08:37:36Z</time></trkpt><trkpt lat="42.95117815271286" lon="12.123337800623666"><ele>660.0</ele><time>2026-04-12T08:38:57Z</time></trkpt><trkpt lat="42.95127680886755" lon="12.123462305327404"><ele>662.0</ele><time>2026-04-12T08:38:59Z</time></trkpt><trkpt lat="42.95134570453154" lon="12.123536513631581"><ele>664.0</ele><time>2026-04-12T08:39:00Z</time></trkpt><trkpt lat="42.95139504841846" lon="12.123605372545015"><ele>666.0</ele><time>2026-04-12T08:39:01Z</time></trkpt><trkpt lat="42.951427153913706" lon="12.123704605395968"><ele>666.0</ele><time>2026-04-12T08:39:03Z</time></trkpt><trkpt lat="42.951450651321046" lon="12.123820866311087"><ele>666.0</ele><time>2026-04-12T08:39:04Z</time></trkpt><trkpt lat="42.95147592047009" lon="12.123965874947984"><ele>666.0</ele><time>2026-04-12T08:39:05Z</time></trkpt><trkpt lat="42.951493301247346" lon="12.12409133891735"><ele>666.0</ele><time>2026-04-12T08:39:06Z</time></trkpt><trkpt lat="42.951503232075616" lon="12.124185630701831"><ele>666.0</ele><time>2026-04-12T08:39:07Z</time></trkpt><trkpt lat="42.9516008458532" lon="12.12423620237155"><ele>664.8</ele><time>2026-04-12T08:39:09Z</time></trkpt><trkpt lat="42.95164480404732" lon="12.1243417859693"><ele>663.5999999999999</ele><time>2026-04-12T08:39:11Z</time></trkpt><trkpt lat="42.95167512435313" lon="12.124465910635337"><ele>662.4</ele><time>2026-04-12T08:39:12Z</time></trkpt><trkpt lat="42.951705983542546" lon="12.124569079313115"><ele>661.2</ele><time>2026-04-12T08:39:13Z</time></trkpt><trkpt lat="42.95173940387873" lon="12.124714397083682"><ele>660.0</ele><time>2026-04-12T08:39:15Z</time></trkpt><trkpt lat="42.95166843453266" lon="12.124850975870066"><ele>664.6666666666666</ele><time>2026-04-12T08:39:17Z</time></trkpt><trkpt lat="42.95160906007442" lon="12.12497093127808"><ele>669.3333333333334</ele><time>2026-04-12T08:39:19Z</time></trkpt><trkpt lat="42.951550652597035" lon="12.125017627462789"><ele>674.0</ele><time>2026-04-12T08:39:20Z</time></trkpt><trkpt lat="42.951466559022734" lon="12.125046613721508"><ele>678.6666666666667</ele><time>2026-04-12T08:39:21Z</time></trkpt><trkpt lat="42.95138046669678" lon="12.12507554215458"><ele>683.3333333333334</ele><time>2026-04-12T08:39:22Z</time></trkpt><trkpt lat="42.951301264481124" lon="12.125104413292775"><ele>688.0</ele><time>2026-04-12T08:39:23Z</time></trkpt><trkpt lat="42.951229994880556" lon="12.125133310994004"><ele>688.0000000000001</ele><time>2026-04-12T08:39:24Z</time></trkpt><trkpt lat="42.95115000664845" lon="12.125158237275796"><ele>688.0</ele><time>2026-04-12T08:39:25Z</time></trkpt><trkpt lat="42.951074766212656" lon="12.125166078582252"><ele>688.0</ele><time>2026-04-12T08:39:26Z</time></trkpt><trkpt lat="42.95100840622526" lon="12.125166835842226"><ele>688.0</ele><time>2026-04-12T08:39:27Z</time></trkpt><trkpt lat="42.95094346206405" lon="12.125140363913323"><ele>688.0</ele><time>2026-04-12T08:39:28Z</time></trkpt><trkpt lat="42.95087400611739" lon="12.125095394857645"><ele>688.0000000000001</ele><time>2026-04-12T08:39:29Z</time></trkpt><trkpt lat="42.95080202234984" lon="12.125051008458561"><ele>688.0</ele><time>2026-04-12T08:39:30Z</time></trkpt><trkpt lat="42.95070486432684" lon="12.125059569990933"><ele>688.8571428571429</ele><time>2026-04-12T08:39:32Z</time></trkpt><trkpt lat="42.95067154062518" lon="12.125154669586086"><ele>689.7142857142858</ele><time>2026-04-12T08:39:33Z</time></trkpt><trkpt lat="42.950657811639445" lon="12.125249338980407"><ele>690.5714285714287</ele><time>2026-04-12T08:39:34Z</time></trkpt><trkpt lat="42.95064255239208" lon="12.125333949434333"><ele>691.4285714285714</ele><time>2026-04-12T08:39:35Z</time></trkpt><trkpt lat="42.95062735716983" lon="12.125417960660714"><ele>692.2857142857142</ele><time>2026-04-12T08:39:36Z</time></trkpt><trkpt lat="42.95062634333881" lon="12.125507747256913"><ele>693.1428571428572</ele><time>2026-04-12T08:39:37Z</time></trkpt><trkpt lat="42.950627158869615" lon="12.125609078367917"><ele>694.0</ele><time>2026-04-12T08:39:39Z</time></trkpt><trkpt lat="42.95054985743564" lon="12.125720779362005"><ele>688.0</ele><time>2026-04-12T08:39:40Z</time></trkpt><trkpt lat="42.95047299305433" lon="12.125874728075487"><ele>682.0</ele><time>2026-04-12T08:39:42Z</time></trkpt><trkpt lat="42.95035487316474" lon="12.125900073395185"><ele>676.0</ele><time>2026-04-12T08:39:44Z</time></trkpt><trkpt lat="42.95028351139323" lon="12.125915473643397"><ele>670.0</ele><time>2026-04-12T08:39:45Z</time></trkpt><trkpt lat="42.9501501539538" lon="12.125977299049515"><ele>669.9999999999999</ele><time>2026-04-12T08:39:47Z</time></trkpt><trkpt lat="42.95008161379717" lon="12.126026652656323"><ele>670.0</ele><time>2026-04-12T08:39:48Z</time></trkpt><trkpt lat="42.95002732938909" lon="12.126110380741586"><ele>670.0</ele><time>2026-04-12T08:39:50Z</time></trkpt><trkpt lat="42.950010254954584" lon="12.126215126219174"><ele>670.0</ele><time>2026-04-12T08:39:52Z</time></trkpt><trkpt lat="42.95002832943152" lon="12.126306612613377"><ele>670.0</ele><time>2026-04-12T08:39:53Z</time></trkpt><trkpt lat="42.95002372239353" lon="12.12640174276605"><ele>669.9999999999999</ele><time>2026-04-12T08:39:54Z</time></trkpt><trkpt lat="42.950000813379695" lon="12.12648953426739"><ele>670.0</ele><time>2026-04-12T08:39:55Z</time></trkpt><trkpt lat="42.94995914148937" lon="12.126564946518611"><ele>669.1666666666667</ele><time>2026-04-12T08:39:56Z</time></trkpt><trkpt lat="42.949876691727304" lon="12.126672567472342"><ele>668.3333333333334</ele><time>2026-04-12T08:39:58Z</time></trkpt><trkpt lat="42.94981297512735" lon="12.126716897175426"><ele>667.5</ele><time>2026-04-12T08:39:59Z</time></trkpt><trkpt lat="42.94975882021233" lon="12.12677322278543"><ele>666.6666666666666</ele><time>2026-04-12T08:40:00Z</time></trkpt><trkpt lat="42.949702205687586" lon="12.126815961633252"><ele>665.8333333333333</ele><time>2026-04-12T08:40:01Z</time></trkpt><trkpt lat="42.94963878453346" lon="12.12684212651723"><ele>665.0</ele><time>2026-04-12T08:40:02Z</time></trkpt><trkpt lat="42.949565281736334" lon="12.126891771171085"><ele>665.0</ele><time>2026-04-12T08:40:03Z</time></trkpt><trkpt lat="42.94949260658627" lon="12.126911638317303"><ele>665.0</ele><time>2026-04-12T08:40:04Z</time></trkpt><trkpt lat="42.94938978408998" lon="12.126989242009348"><ele>665.0</ele><time>2026-04-12T08:40:06Z</time></trkpt><trkpt lat="42.94936084788697" lon="12.127073788474291"><ele>665.0</ele><time>2026-04-12T08:40:07Z</time></trkpt><trkpt lat="42.94931139058063" lon="12.127127539978337"><ele>665.0</ele><time>2026-04-12T08:40:08Z</time></trkpt><trkpt lat="42.949217956640744" lon="12.127199638299507"><ele>665.0</ele><time>2026-04-12T08:40:10Z</time></trkpt><trkpt lat="42.94914072756768" lon="12.127208456651655"><ele>668.5</ele><time>2026-04-12T08:40:11Z</time></trkpt><trkpt lat="42.949063626468664" lon="12.127209898068731"><ele>672.0</ele><time>2026-04-12T08:40:12Z</time></trkpt><trkpt lat="42.948986012768955" lon="12.127219948452856"><ele>675.5</ele><time>2026-04-12T08:40:13Z</time></trkpt><trkpt lat="42.94891492906769" lon="12.127233197050256"><ele>679.0</ele><time>2026-04-12T08:40:14Z</time></trkpt><trkpt lat="42.948801529092094" lon="12.127190789161652"><ele>682.5</ele><time>2026-04-12T08:40:16Z</time></trkpt><trkpt lat="42.948733104200876" lon="12.127265607644839"><ele>686.0</ele><time>2026-04-12T08:40:17Z</time></trkpt><trkpt lat="42.948671404325275" lon="12.127319983601758"><ele>686.0</ele><time>2026-04-12T08:40:19Z</time></trkpt><trkpt lat="42.94860879175083" lon="12.127329835147616"><ele>686.0</ele><time>2026-04-12T08:40:21Z</time></trkpt><trkpt lat="42.94851000724787" lon="12.127356278884035"><ele>686.0</ele><time>2026-04-12T08:40:23Z</time></trkpt><trkpt lat="42.948409806008975" lon="12.127362656805092"><ele>686.0</ele><time>2026-04-12T08:40:25Z</time></trkpt><trkpt lat="42.94831956765746" lon="12.127386542651022"><ele>686.0</ele><time>2026-04-12T08:40:27Z</time></trkpt><trkpt lat="42.9482519171394" lon="12.127491060473874"><ele>683.1999999999999</ele><time>2026-04-12T08:40:29Z</time></trkpt><trkpt lat="42.94830231007521" lon="12.12761721621637"><ele>680.4</ele><time>2026-04-12T08:40:31Z</time></trkpt><trkpt lat="42.94838408887627" lon="12.127718447017237"><ele>677.6</ele><time>2026-04-12T08:40:33Z</time></trkpt><trkpt lat="42.948443340527874" lon="12.127880402513547"><ele>674.8</ele><time>2026-04-12T08:40:35Z</time></trkpt><trkpt lat="42.948447019500605" lon="12.127973032263698"><ele>672.0</ele><time>2026-04-12T08:40:36Z</time></trkpt><trkpt lat="42.94841064692174" lon="12.128123643388282"><ele>670.0</ele><time>2026-04-12T08:40:38Z</time></trkpt><trkpt lat="42.9483507027544" lon="12.128239337438593"><ele>668.0</ele><time>2026-04-12T08:40:39Z</time></trkpt><trkpt lat="42.948294575996826" lon="12.12833191994961"><ele>666.0</ele><time>2026-04-12T08:40:40Z</time></trkpt><trkpt lat="42.94825937940224" lon="12.128415276846715"><ele>664.0</ele><time>2026-04-12T08:40:41Z</time></trkpt><trkpt lat="42.94823771433311" lon="12.128517789373202"><ele>662.0</ele><time>2026-04-12T08:40:42Z</time></trkpt><trkpt lat="42.9482196995867" lon="12.128638623299276"><ele>660.0</ele><time>2026-04-12T08:40:43Z</time></trkpt><trkpt lat="42.948210190704664" lon="12.128743206716493"><ele>660.0</ele><time>2026-04-12T08:40:44Z</time></trkpt><trkpt lat="42.948165444100674" lon="12.12892737515189"><ele>660.0</ele><time>2026-04-12T08:40:46Z</time></trkpt><trkpt lat="42.94814272989116" lon="12.129039805381103"><ele>660.0</ele><time>2026-04-12T08:40:47Z</time></trkpt><trkpt lat="42.94813857226887" lon="12.129169646714395"><ele>660.0</ele><time>2026-04-12T08:40:48Z</time></trkpt><trkpt lat="42.94811165456906" lon="12.129251307400457"><ele>660.0</ele><time>2026-04-12T08:40:49Z</time></trkpt><trkpt lat="42.94805559200589" lon="12.12932264854563"><ele>659.0</ele><time>2026-04-12T08:40:50Z</time></trkpt><trkpt lat="42.948009995717705" lon="12.129398773725566"><ele>658.0</ele><time>2026-04-12T08:40:51Z</time></trkpt><trkpt lat="42.94797693620014" lon="12.12948045860459"><ele>657.0</ele><time>2026-04-12T08:40:52Z</time></trkpt><trkpt lat="42.947953003075824" lon="12.129572810343396"><ele>656.0</ele><time>2026-04-12T08:40:53Z</time></trkpt><trkpt lat="42.94788003759421" lon="12.129689895497792"><ele>655.0</ele><time>2026-04-12T08:40:55Z</time></trkpt><trkpt lat="42.94783445113728" lon="12.129804184155295"><ele>654.0</ele><time>2026-04-12T08:40:57Z</time></trkpt><trkpt lat="42.947832492541885" lon="12.129917247121154"><ele>653.8000000000001</ele><time>2026-04-12T08:40:58Z</time></trkpt><trkpt lat="42.94783277860317" lon="12.130013214781723"><ele>653.6</ele><time>2026-04-12T08:40:59Z</time></trkpt><trkpt lat="42.94782678562669" lon="12.130136221412348"><ele>653.4</ele><time>2026-04-12T08:41:00Z</time></trkpt><trkpt lat="42.94780336706621" lon="12.130243901945338"><ele>653.2</ele><time>2026-04-12T08:41:01Z</time></trkpt><trkpt lat="42.947768351263" lon="12.130350324102029"><ele>653.0</ele><time>2026-04-12T08:41:02Z</time></trkpt><trkpt lat="42.94770028973559" lon="12.130515116115744"><ele>653.0</ele><time>2026-04-12T08:41:04Z</time></trkpt><trkpt lat="42.94762108652991" lon="12.130629313416394"><ele>653.0</ele><time>2026-04-12T08:41:05Z</time></trkpt><trkpt lat="42.9475560294661" lon="12.130770961623263"><ele>653.0</ele><time>2026-04-12T08:41:06Z</time></trkpt><trkpt lat="42.94750663796681" lon="12.130885749857876"><ele>653.0</ele><time>2026-04-12T08:41:07Z</time></trkpt><trkpt lat="42.947464258220364" lon="12.130977461021184"><ele>653.0</ele><time>2026-04-12T08:41:08Z</time></trkpt><trkpt lat="42.94740763986997" lon="12.131123038908882"><ele>654.4285714285714</ele><time>2026-04-12T08:41:10Z</time></trkpt><trkpt lat="42.94733913499154" lon="12.131193234682147"><ele>655.8571428571429</ele><time>2026-04-12T08:41:11Z</time></trkpt><trkpt lat="42.94729298034986" lon="12.131264230160228"><ele>657.2857142857142</ele><time>2026-04-12T08:41:12Z</time></trkpt><trkpt lat="42.94722218492349" lon="12.131250046403034"><ele>658.7142857142858</ele><time>2026-04-12T08:41:13Z</time></trkpt><trkpt lat="42.9472970742616" lon="12.131292521630911"><ele>660.1428571428571</ele><time>2026-04-12T08:41:46Z</time></trkpt><trkpt lat="42.94724305492873" lon="12.131350407912588"><ele>661.5714285714286</ele><time>2026-04-12T08:43:56Z</time></trkpt><trkpt lat="42.94717011245461" lon="12.131349301697236"><ele>663.0</ele><time>2026-04-12T08:44:29Z</time></trkpt><trkpt lat="42.947093377299844" lon="12.131243490392691"><ele>663.0</ele><time>2026-04-12T08:44:31Z</time></trkpt><trkpt lat="42.947031153415075" lon="12.131122128731224"><ele>663.0</ele><time>2026-04-12T08:44:33Z</time></trkpt><trkpt lat="42.947076501750395" lon="12.130960217932573"><ele>663.0</ele><time>2026-04-12T08:44:35Z</time></trkpt><trkpt lat="42.947163242984644" lon="12.130793159265409"><ele>663.0</ele><time>2026-04-12T08:44:37Z</time></trkpt><trkpt lat="42.94718518074956" lon="12.13070312712394"><ele>664.5</ele><time>2026-04-12T08:44:38Z</time></trkpt><trkpt lat="42.94719540099743" lon="12.130615807861536"><ele>666.0</ele><time>2026-04-12T08:44:39Z</time></trkpt><trkpt lat="42.947192927464414" lon="12.130459631767419"><ele>667.5</ele><time>2026-04-12T08:44:41Z</time></trkpt><trkpt lat="42.947159694309924" lon="12.130365471209617"><ele>669.0</ele><time>2026-04-12T08:44:42Z</time></trkpt><trkpt lat="42.947112416851645" lon="12.130267553610441"><ele>670.5</ele><time>2026-04-12T08:44:43Z</time></trkpt><trkpt lat="42.94710302680927" lon="12.130161231386317"><ele>672.0</ele><time>2026-04-12T08:44:44Z</time></trkpt><trkpt lat="42.94709416932889" lon="12.13002903558005"><ele>672.0</ele><time>2026-04-12T08:44:45Z</time></trkpt><trkpt lat="42.94707173152677" lon="12.129911034957821"><ele>672.0</ele><time>2026-04-12T08:44:46Z</time></trkpt><trkpt lat="42.9470497043172" lon="12.129793263708061"><ele>672.0</ele><time>2026-04-12T08:44:47Z</time></trkpt><trkpt lat="42.947014951400575" lon="12.129718690566165"><ele>672.0</ele><time>2026-04-12T08:44:48Z</time></trkpt><trkpt lat="42.946932128594376" lon="12.129616227361907"><ele>672.0</ele><time>2026-04-12T08:44:50Z</time></trkpt><trkpt lat="42.94686909362482" lon="12.129580444849191"><ele>672.0</ele><time>2026-04-12T08:45:18Z</time></trkpt><trkpt lat="42.9468597986868" lon="12.129441460418642"><ele>672.8</ele><time>2026-04-12T08:45:20Z</time></trkpt><trkpt lat="42.946861613450395" lon="12.129349787711625"><ele>673.6</ele><time>2026-04-12T08:45:22Z</time></trkpt><trkpt lat="42.94683186561118" lon="12.129223656758683"><ele>674.4</ele><time>2026-04-12T08:45:24Z</time></trkpt><trkpt lat="42.946863492423226" lon="12.129130004444239"><ele>675.1999999999999</ele><time>2026-04-12T08:45:25Z</time></trkpt><trkpt lat="42.9468977333342" lon="12.128986897892938"><ele>676.0</ele><time>2026-04-12T08:45:26Z</time></trkpt><trkpt lat="42.94693053953751" lon="12.128839307216243"><ele>676.5</ele><time>2026-04-12T08:45:27Z</time></trkpt><trkpt lat="42.94696498376142" lon="12.128732259767848"><ele>677.0</ele><time>2026-04-12T08:45:28Z</time></trkpt><trkpt lat="42.94701919678738" lon="12.128615430317417"><ele>677.5</ele><time>2026-04-12T08:45:29Z</time></trkpt><trkpt lat="42.947061206938756" lon="12.12852511969646"><ele>678.0</ele><time>2026-04-12T08:45:30Z</time></trkpt><trkpt lat="42.9470418664427" lon="12.128407761206315"><ele>678.5</ele><time>2026-04-12T08:45:32Z</time></trkpt><trkpt lat="42.946974734777264" lon="12.128362607220383"><ele>679.0</ele><time>2026-04-12T08:45:35Z</time></trkpt><trkpt lat="42.94686342025886" lon="12.128333218874474"><ele>679.0</ele><time>2026-04-12T08:45:37Z</time></trkpt><trkpt lat="42.94678137039827" lon="12.128302247770396"><ele>679.0</ele><time>2026-04-12T08:45:38Z</time></trkpt><trkpt lat="42.946690799760155" lon="12.128286048999803"><ele>679.0</ele><time>2026-04-12T08:45:40Z</time></trkpt><trkpt lat="42.94659424220614" lon="12.128280212352129"><ele>679.0</ele><time>2026-04-12T08:45:42Z</time></trkpt><trkpt lat="42.946470510099886" lon="12.128189903358749"><ele>679.0</ele><time>2026-04-12T08:45:44Z</time></trkpt><trkpt lat="42.94641558035527" lon="12.12812354759217"><ele>684.2</ele><time>2026-04-12T08:45:45Z</time></trkpt><trkpt lat="42.94632830919767" lon="12.128024101807409"><ele>689.4000000000001</ele><time>2026-04-12T08:45:47Z</time></trkpt><trkpt lat="42.946241386061594" lon="12.127922407325684"><ele>694.6</ele><time>2026-04-12T08:45:49Z</time></trkpt><trkpt lat="42.94614063404004" lon="12.127868215489457"><ele>699.8</ele><time>2026-04-12T08:45:51Z</time></trkpt><trkpt lat="42.946072387400235" lon="12.127832047247228"><ele>705.0</ele><time>2026-04-12T08:45:53Z</time></trkpt><trkpt lat="42.946004426522755" lon="12.12778549891898"><ele>705.0</ele><time>2026-04-12T08:45:55Z</time></trkpt><trkpt lat="42.945979643232874" lon="12.12786873508851"><ele>705.0</ele><time>2026-04-12T08:45:57Z</time></trkpt><trkpt lat="42.9459468895348" lon="12.127987506521528"><ele>705.0</ele><time>2026-04-12T08:45:58Z</time></trkpt><trkpt lat="42.94592818386741" lon="12.128073865290824"><ele>705.0</ele><time>2026-04-12T08:45:59Z</time></trkpt><trkpt lat="42.94588969862077" lon="12.128147284984454"><ele>705.0</ele><time>2026-04-12T08:46:02Z</time></trkpt><trkpt lat="42.94584357127152" lon="12.128083870269046"><ele>705.0</ele><time>2026-04-12T08:49:58Z</time></trkpt><trkpt lat="42.94579223356568" lon="12.128191537994962"><ele>706.2</ele><time>2026-04-12T08:53:28Z</time></trkpt><trkpt lat="42.945734481094334" lon="12.128298123417373"><ele>707.4</ele><time>2026-04-12T08:53:29Z</time></trkpt><trkpt lat="42.945662729435256" lon="12.128406741955974"><ele>708.5999999999999</ele><time>2026-04-12T08:53:30Z</time></trkpt><trkpt lat="42.94562012655818" lon="12.128520547307884"><ele>709.8</ele><time>2026-04-12T08:53:31Z</time></trkpt><trkpt lat="42.94559215616429" lon="12.128633576873673"><ele>711.0</ele><time>2026-04-12T08:53:32Z</time></trkpt><trkpt lat="42.94556990217619" lon="12.128752362009745"><ele>711.0</ele><time>2026-04-12T08:53:33Z</time></trkpt><trkpt lat="42.945556933653805" lon="12.128869115444234"><ele>711.0</ele><time>2026-04-12T08:53:34Z</time></trkpt><trkpt lat="42.9455612068365" lon="12.129052244004987"><ele>711.0</ele><time>2026-04-12T08:53:36Z</time></trkpt><trkpt lat="42.94558860532444" lon="12.12914274553049"><ele>711.0</ele><time>2026-04-12T08:53:37Z</time></trkpt><trkpt lat="42.94564286682101" lon="12.129264240876791"><ele>711.0</ele><time>2026-04-12T08:53:39Z</time></trkpt><trkpt lat="42.94569436405554" lon="12.129392292465337"><ele>709.75</ele><time>2026-04-12T08:53:41Z</time></trkpt><trkpt lat="42.9457498034293" lon="12.129532021482595"><ele>708.5</ele><time>2026-04-12T08:53:43Z</time></trkpt><trkpt lat="42.94572621923134" lon="12.129697311242024"><ele>707.25</ele><time>2026-04-12T08:53:45Z</time></trkpt><trkpt lat="42.945675231999196" lon="12.129818827942087"><ele>706.0</ele><time>2026-04-12T08:53:47Z</time></trkpt><trkpt lat="42.94556277211452" lon="12.1298720896235"><ele>703.4</ele><time>2026-04-12T08:53:49Z</time></trkpt><trkpt lat="42.9454711148115" lon="12.129930176960082"><ele>700.8</ele><time>2026-04-12T08:53:51Z</time></trkpt><trkpt lat="42.945437761089956" lon="12.130056845633588"><ele>698.1999999999999</ele><time>2026-04-12T08:53:53Z</time></trkpt><trkpt lat="42.94539567991903" lon="12.130190425864422"><ele>695.5999999999999</ele><time>2026-04-12T08:53:55Z</time></trkpt><trkpt lat="42.94535653888195" lon="12.130272949423217"><ele>693.0</ele><time>2026-04-12T08:53:56Z</time></trkpt><trkpt lat="42.94529392776284" lon="12.130397177579956"><ele>693.0</ele><time>2026-04-12T08:53:58Z</time></trkpt><trkpt lat="42.94522823588268" lon="12.130441984169671"><ele>693.0</ele><time>2026-04-12T08:53:59Z</time></trkpt><trkpt lat="42.945139591947054" lon="12.130507987932258"><ele>693.0</ele><time>2026-04-12T08:54:00Z</time></trkpt><trkpt lat="42.94506783413651" lon="12.130607857921664"><ele>693.0</ele><time>2026-04-12T08:54:01Z</time></trkpt><trkpt lat="42.94499446606388" lon="12.130719576280145"><ele>693.0</ele><time>2026-04-12T08:54:02Z</time></trkpt><trkpt lat="42.94490212105946" lon="12.13083367024352"><ele>691.0</ele><time>2026-04-12T08:54:03Z</time></trkpt><trkpt lat="42.94481559025263" lon="12.130915203829122"><ele>689.0</ele><time>2026-04-12T08:54:04Z</time></trkpt><trkpt lat="42.94473103305802" lon="12.130987431996399"><ele>687.0</ele><time>2026-04-12T08:54:05Z</time></trkpt><trkpt lat="42.94464992131747" lon="12.131062675619626"><ele>685.0</ele><time>2026-04-12T08:54:06Z</time></trkpt><trkpt lat="42.94458230771613" lon="12.131144495828343"><ele>683.0</ele><time>2026-04-12T08:54:07Z</time></trkpt><trkpt lat="42.94453173572171" lon="12.131222839227089"><ele>683.0</ele><time>2026-04-12T08:54:08Z</time></trkpt><trkpt lat="42.94447792301914" lon="12.131272343775251"><ele>683.0</ele><time>2026-04-12T08:54:09Z</time></trkpt><trkpt lat="42.944422926329366" lon="12.131337144772179"><ele>683.0</ele><time>2026-04-12T08:54:10Z</time></trkpt><trkpt lat="42.94434760205688" lon="12.131405686188309"><ele>683.0</ele><time>2026-04-12T08:54:11Z</time></trkpt><trkpt lat="42.94426750328477" lon="12.13149044177616"><ele>683.0</ele><time>2026-04-12T08:54:12Z</time></trkpt><trkpt lat="42.94419633625145" lon="12.131582063354202"><ele>683.0</ele><time>2026-04-12T08:54:13Z</time></trkpt><trkpt lat="42.944140987835304" lon="12.131644754400826"><ele>683.5</ele><time>2026-04-12T08:54:14Z</time></trkpt><trkpt lat="42.9440847917939" lon="12.131707985468429"><ele>684.0</ele><time>2026-04-12T08:54:15Z</time></trkpt><trkpt lat="42.94402572128105" lon="12.131773408485149"><ele>684.5</ele><time>2026-04-12T08:54:16Z</time></trkpt><trkpt lat="42.94393978338541" lon="12.131811557656139"><ele>685.0</ele><time>2026-04-12T08:54:17Z</time></trkpt><trkpt lat="42.94386149071834" lon="12.131867772710619"><ele>685.5</ele><time>2026-04-12T08:54:18Z</time></trkpt><trkpt lat="42.943787755743664" lon="12.131939570435534"><ele>686.0</ele><time>2026-04-12T08:54:19Z</time></trkpt><trkpt lat="42.94372413630367" lon="12.132021836149399"><ele>686.0</ele><time>2026-04-12T08:54:20Z</time></trkpt><trkpt lat="42.94366202637696" lon="12.132077890538248"><ele>686.0</ele><time>2026-04-12T08:54:21Z</time></trkpt><trkpt lat="42.94359311845993" lon="12.132135042857602"><ele>686.0</ele><time>2026-04-12T08:54:22Z</time></trkpt><trkpt lat="42.94347798489473" lon="12.132186331556051"><ele>686.0</ele><time>2026-04-12T08:54:24Z</time></trkpt><trkpt lat="42.94341035158087" lon="12.132214966473011"><ele>686.0</ele><time>2026-04-12T08:54:25Z</time></trkpt><trkpt lat="42.94333546566203" lon="12.132286978261893"><ele>686.0</ele><time>2026-04-12T08:54:26Z</time></trkpt><trkpt lat="42.943284104213454" lon="12.132358841556755"><ele>685.0</ele><time>2026-04-12T08:54:27Z</time></trkpt><trkpt lat="42.94320345349714" lon="12.13243561105827"><ele>684.0</ele><time>2026-04-12T08:54:29Z</time></trkpt><trkpt lat="42.943135796377895" lon="12.132466117259845"><ele>683.0</ele><time>2026-04-12T08:54:30Z</time></trkpt><trkpt lat="42.94305991806128" lon="12.132456340353118"><ele>682.0</ele><time>2026-04-12T08:54:31Z</time></trkpt><trkpt lat="42.94297682093257" lon="12.132447031356115"><ele>681.0</ele><time>2026-04-12T08:54:32Z</time></trkpt><trkpt lat="42.94288472260478" lon="12.132464993554299"><ele>680.0</ele><time>2026-04-12T08:54:33Z</time></trkpt><trkpt lat="42.942801567649454" lon="12.132505260975297"><ele>680.0</ele><time>2026-04-12T08:54:34Z</time></trkpt><trkpt lat="42.94272871369158" lon="12.132555364941354"><ele>680.0</ele><time>2026-04-12T08:54:35Z</time></trkpt><trkpt lat="42.942677191551695" lon="12.132605134236115"><ele>680.0</ele><time>2026-04-12T08:54:36Z</time></trkpt><trkpt lat="42.94264305194417" lon="12.13269449813437"><ele>680.0</ele><time>2026-04-12T08:54:37Z</time></trkpt><trkpt lat="42.94262437977031" lon="12.132782324867504"><ele>680.0</ele><time>2026-04-12T08:54:38Z</time></trkpt><trkpt lat="42.942620512200506" lon="12.13289657368147"><ele>680.0</ele><time>2026-04-12T08:54:39Z</time></trkpt><trkpt lat="42.94260568148313" lon="12.133014750690993"><ele>680.0</ele><time>2026-04-12T08:54:40Z</time></trkpt><trkpt lat="42.94259021664798" lon="12.133123044025302"><ele>680.0</ele><time>2026-04-12T08:54:41Z</time></trkpt><trkpt lat="42.94258115022653" lon="12.1332183044237"><ele>680.0</ele><time>2026-04-12T08:54:42Z</time></trkpt><trkpt lat="42.942554327751914" lon="12.133302730052273"><ele>680.0</ele><time>2026-04-12T08:54:43Z</time></trkpt><trkpt lat="42.942536122813124" lon="12.133470470169282"><ele>680.0</ele><time>2026-04-12T08:54:45Z</time></trkpt><trkpt lat="42.94255766660816" lon="12.133576484924903"><ele>680.0</ele><time>2026-04-12T08:54:46Z</time></trkpt><trkpt lat="42.94257971487968" lon="12.133679777028911"><ele>677.2857142857143</ele><time>2026-04-12T08:54:47Z</time></trkpt><trkpt lat="42.94260199940039" lon="12.13377208826722"><ele>674.5714285714286</ele><time>2026-04-12T08:54:48Z</time></trkpt><trkpt lat="42.942617140757505" lon="12.133858833695253"><ele>671.8571428571429</ele><time>2026-04-12T08:54:49Z</time></trkpt><trkpt lat="42.94263438032571" lon="12.1339469789751"><ele>669.1428571428571</ele><time>2026-04-12T08:54:50Z</time></trkpt><trkpt lat="42.94265438863702" lon="12.134038670100896"><ele>666.4285714285714</ele><time>2026-04-12T08:54:51Z</time></trkpt><trkpt lat="42.942667454492764" lon="12.134129988422258"><ele>663.7142857142857</ele><time>2026-04-12T08:54:52Z</time></trkpt><trkpt lat="42.942670841284894" lon="12.134223827232297"><ele>661.0</ele><time>2026-04-12T08:54:53Z</time></trkpt><trkpt lat="42.94269746259212" lon="12.134389761236973"><ele>658.0</ele><time>2026-04-12T08:54:55Z</time></trkpt><trkpt lat="42.94273613701493" lon="12.134478461508753"><ele>655.0</ele><time>2026-04-12T08:54:56Z</time></trkpt><trkpt lat="42.94277481918646" lon="12.134579882780777"><ele>652.0</ele><time>2026-04-12T08:54:57Z</time></trkpt><trkpt lat="42.94276990798835" lon="12.134674757768254"><ele>649.0</ele><time>2026-04-12T08:54:58Z</time></trkpt><trkpt lat="42.94274554963438" lon="12.134777558096644"><ele>646.0</ele><time>2026-04-12T08:54:59Z</time></trkpt><trkpt lat="42.94269204094245" lon="12.134875330788"><ele>643.0</ele><time>2026-04-12T08:55:00Z</time></trkpt><trkpt lat="42.942679957036454" lon="12.13501773141753"><ele>643.0</ele><time>2026-04-12T08:55:02Z</time></trkpt><trkpt lat="42.942645480069686" lon="12.135172399963945"><ele>643.0</ele><time>2026-04-12T08:55:03Z</time></trkpt><trkpt lat="42.94262110556591" lon="12.135271562115964"><ele>643.0</ele><time>2026-04-12T08:55:04Z</time></trkpt><trkpt lat="42.942589455366104" lon="12.13536056365914"><ele>643.0</ele><time>2026-04-12T08:55:05Z</time></trkpt><trkpt lat="42.942560644608896" lon="12.13545156751393"><ele>643.0</ele><time>2026-04-12T08:55:06Z</time></trkpt><trkpt lat="42.94253564919837" lon="12.135546786121566"><ele>643.0</ele><time>2026-04-12T08:55:07Z</time></trkpt><trkpt lat="42.94250867498831" lon="12.135631143228096"><ele>643.0</ele><time>2026-04-12T08:55:08Z</time></trkpt><trkpt lat="42.94245571809834" lon="12.135694860929217"><ele>643.0</ele><time>2026-04-12T08:55:09Z</time></trkpt><trkpt lat="42.94239023376598" lon="12.135748442928358"><ele>643.0</ele><time>2026-04-12T08:55:10Z</time></trkpt><trkpt lat="42.94228832492841" lon="12.135821848114823"><ele>643.0</ele><time>2026-04-12T08:55:12Z</time></trkpt><trkpt lat="42.94219692297994" lon="12.135921340454205"><ele>643.0</ele><time>2026-04-12T08:55:14Z</time></trkpt><trkpt lat="42.94209841639862" lon="12.136030325839943"><ele>643.2857142857142</ele><time>2026-04-12T08:55:16Z</time></trkpt><trkpt lat="42.94204452887933" lon="12.136075244651481"><ele>643.5714285714287</ele><time>2026-04-12T08:55:17Z</time></trkpt><trkpt lat="42.94199047554238" lon="12.136131556715164"><ele>643.8571428571429</ele><time>2026-04-12T08:55:18Z</time></trkpt><trkpt lat="42.9419424436278" lon="12.136187758708143"><ele>644.1428571428571</ele><time>2026-04-12T08:55:19Z</time></trkpt><trkpt lat="42.941887901177346" lon="12.136248925965187"><ele>644.4285714285713</ele><time>2026-04-12T08:55:20Z</time></trkpt><trkpt lat="42.941836808977655" lon="12.136300592063135"><ele>644.7142857142858</ele><time>2026-04-12T08:55:21Z</time></trkpt><trkpt lat="42.94177527026713" lon="12.136338437797358"><ele>645.0</ele><time>2026-04-12T08:55:22Z</time></trkpt><trkpt lat="42.941720056259136" lon="12.136395362127582"><ele>642.8571428571429</ele><time>2026-04-12T08:55:23Z</time></trkpt><trkpt lat="42.94167053813491" lon="12.136454497255214"><ele>640.7142857142857</ele><time>2026-04-12T08:55:24Z</time></trkpt><trkpt lat="42.941621138022" lon="12.136515309392617"><ele>638.5714285714286</ele><time>2026-04-12T08:55:25Z</time></trkpt><trkpt lat="42.94156995963744" lon="12.13656697501046"><ele>636.4285714285714</ele><time>2026-04-12T08:55:26Z</time></trkpt><trkpt lat="42.941459962393864" lon="12.136619696217155"><ele>634.2857142857142</ele><time>2026-04-12T08:55:28Z</time></trkpt><trkpt lat="42.94139552929696" lon="12.136639715218188"><ele>632.1428571428571</ele><time>2026-04-12T08:55:29Z</time></trkpt><trkpt lat="42.94133784788765" lon="12.136676552348861"><ele>630.0</ele><time>2026-04-12T08:55:30Z</time></trkpt><trkpt lat="42.9412391840683" lon="12.13680149678698"><ele>630.0</ele><time>2026-04-12T08:55:32Z</time></trkpt><trkpt lat="42.941187482004224" lon="12.136871967767814"><ele>630.0</ele><time>2026-04-12T08:55:33Z</time></trkpt><trkpt lat="42.941136859519894" lon="12.136937659075546"><ele>630.0</ele><time>2026-04-12T08:55:34Z</time></trkpt><trkpt lat="42.94108163926018" lon="12.137005160109744"><ele>630.0</ele><time>2026-04-12T08:55:35Z</time></trkpt><trkpt lat="42.941035908200824" lon="12.137102382331664"><ele>630.0</ele><time>2026-04-12T08:55:36Z</time></trkpt><trkpt lat="42.941010039754964" lon="12.137198949455016"><ele>630.0</ele><time>2026-04-12T08:55:37Z</time></trkpt><trkpt lat="42.940981665560855" lon="12.13733239736349"><ele>629.8333333333334</ele><time>2026-04-12T08:55:39Z</time></trkpt><trkpt lat="42.94096615981069" lon="12.137442240696014"><ele>629.6666666666666</ele><time>2026-04-12T08:55:41Z</time></trkpt><trkpt lat="42.94097431908779" lon="12.137551317119032"><ele>629.5</ele><time>2026-04-12T08:55:43Z</time></trkpt><trkpt lat="42.94101999200764" lon="12.137677241756293"><ele>629.3333333333333</ele><time>2026-04-12T08:55:54Z</time></trkpt><trkpt lat="42.94106205156533" lon="12.13774123221363"><ele>629.1666666666666</ele><time>2026-04-12T08:55:55Z</time></trkpt><trkpt lat="42.94110979067276" lon="12.13782597886509"><ele>629.0</ele><time>2026-04-12T08:55:56Z</time></trkpt><trkpt lat="42.941150250654594" lon="12.13792487174484"><ele>629.0</ele><time>2026-04-12T08:55:57Z</time></trkpt><trkpt lat="42.941131157810034" lon="12.138039808179764"><ele>629.0</ele><time>2026-04-12T08:55:58Z</time></trkpt><trkpt lat="42.94113303600054" lon="12.138185930904314"><ele>629.0</ele><time>2026-04-12T08:55:59Z</time></trkpt><trkpt lat="42.94113099268004" lon="12.138333618478697"><ele>629.0</ele><time>2026-04-12T08:56:00Z</time></trkpt><trkpt lat="42.94116520517378" lon="12.138470148882966"><ele>629.0</ele><time>2026-04-12T08:56:01Z</time></trkpt><trkpt lat="42.94119569152794" lon="12.138586383218192"><ele>628.6</ele><time>2026-04-12T08:56:02Z</time></trkpt><trkpt lat="42.9412387112646" lon="12.13870500919432"><ele>628.2</ele><time>2026-04-12T08:56:03Z</time></trkpt><trkpt lat="42.94126925984179" lon="12.13881956853711"><ele>627.8000000000001</ele><time>2026-04-12T08:56:04Z</time></trkpt><trkpt lat="42.94131654890302" lon="12.138920691882122"><ele>627.4</ele><time>2026-04-12T08:56:05Z</time></trkpt><trkpt lat="42.94139608672153" lon="12.139017278753808"><ele>627.0</ele><time>2026-04-12T08:56:06Z</time></trkpt><trkpt lat="42.941502683334576" lon="12.139089068554494"><ele>626.0</ele><time>2026-04-12T08:56:07Z</time></trkpt><trkpt lat="42.941591785056396" lon="12.13917700849965"><ele>625.0</ele><time>2026-04-12T08:56:08Z</time></trkpt><trkpt lat="42.94168364095914" lon="12.139276265682787"><ele>624.0</ele><time>2026-04-12T08:56:09Z</time></trkpt><trkpt lat="42.94176399820453" lon="12.139371263427597"><ele>623.0</ele><time>2026-04-12T08:56:10Z</time></trkpt><trkpt lat="42.94183969819988" lon="12.139453002198769"><ele>622.0</ele><time>2026-04-12T08:56:11Z</time></trkpt><trkpt lat="42.94190081091524" lon="12.139562046273273"><ele>623.2</ele><time>2026-04-12T08:56:12Z</time></trkpt><trkpt lat="42.94196957458163" lon="12.139663377194873"><ele>624.4000000000001</ele><time>2026-04-12T08:56:13Z</time></trkpt><trkpt lat="42.94204085645861" lon="12.139760878706557"><ele>625.5999999999999</ele><time>2026-04-12T08:56:14Z</time></trkpt><trkpt lat="42.942113731230585" lon="12.139863757241665"><ele>626.8</ele><time>2026-04-12T08:56:15Z</time></trkpt><trkpt lat="42.94221405794043" lon="12.13996418021339"><ele>628.0</ele><time>2026-04-12T08:56:16Z</time></trkpt><trkpt lat="42.94230047554381" lon="12.140056253162413"><ele>628.0</ele><time>2026-04-12T08:56:17Z</time></trkpt><trkpt lat="42.94238654051841" lon="12.14014992232458"><ele>628.0</ele><time>2026-04-12T08:56:18Z</time></trkpt><trkpt lat="42.94246542427666" lon="12.140236150414086"><ele>628.0</ele><time>2026-04-12T08:56:19Z</time></trkpt><trkpt lat="42.94252917041599" lon="12.140319550109252"><ele>628.0</ele><time>2026-04-12T08:56:20Z</time></trkpt><trkpt lat="42.942619745921" lon="12.140418141649286"><ele>628.0</ele><time>2026-04-12T08:56:21Z</time></trkpt><trkpt lat="42.94270187019627" lon="12.140519455797019"><ele>630.0</ele><time>2026-04-12T08:56:22Z</time></trkpt><trkpt lat="42.94278091791427" lon="12.14062664904762"><ele>632.0</ele><time>2026-04-12T08:56:23Z</time></trkpt><trkpt lat="42.94286085353096" lon="12.140727734589671"><ele>634.0</ele><time>2026-04-12T08:56:24Z</time></trkpt><trkpt lat="42.94292127505209" lon="12.140858910584559"><ele>636.0</ele><time>2026-04-12T08:56:25Z</time></trkpt><trkpt lat="42.9430093122458" lon="12.140961084974773"><ele>638.0</ele><time>2026-04-12T08:56:26Z</time></trkpt><trkpt lat="42.9430859599878" lon="12.141066602595533"><ele>638.0</ele><time>2026-04-12T08:56:27Z</time></trkpt><trkpt lat="42.943155972232596" lon="12.141169014485634"><ele>638.0</ele><time>2026-04-12T08:56:28Z</time></trkpt><trkpt lat="42.94320883307842" lon="12.141268131493499"><ele>638.0</ele><time>2026-04-12T08:56:29Z</time></trkpt><trkpt lat="42.94324484773667" lon="12.141379879690986"><ele>638.0</ele><time>2026-04-12T08:56:30Z</time></trkpt><trkpt lat="42.943259284749914" lon="12.141497097433344"><ele>638.0</ele><time>2026-04-12T08:56:31Z</time></trkpt><trkpt lat="42.94325279192869" lon="12.141614322721653"><ele>636.8333333333333</ele><time>2026-04-12T08:56:32Z</time></trkpt><trkpt lat="42.94322798240676" lon="12.141722843459329"><ele>635.6666666666666</ele><time>2026-04-12T08:56:33Z</time></trkpt><trkpt lat="42.943176718731735" lon="12.141813909407132"><ele>634.5</ele><time>2026-04-12T08:56:34Z</time></trkpt><trkpt lat="42.94311301019264" lon="12.141880579775151"><ele>633.3333333333334</ele><time>2026-04-12T08:56:35Z</time></trkpt><trkpt lat="42.943042353884145" lon="12.141917924711302"><ele>632.1666666666667</ele><time>2026-04-12T08:56:36Z</time></trkpt><trkpt lat="42.942970209782345" lon="12.141957757838458"><ele>631.0</ele><time>2026-04-12T08:56:37Z</time></trkpt><trkpt lat="42.942914080148476" lon="12.142027591616133"><ele>631.0</ele><time>2026-04-12T08:56:38Z</time></trkpt><trkpt lat="42.94290078078283" lon="12.14211219688129"><ele>631.0</ele><time>2026-04-12T08:56:39Z</time></trkpt><trkpt lat="42.9429199610277" lon="12.142205347565586"><ele>631.0</ele><time>2026-04-12T08:56:40Z</time></trkpt><trkpt lat="42.94296842462508" lon="12.142295338023875"><ele>631.0</ele><time>2026-04-12T08:56:41Z</time></trkpt><trkpt lat="42.94303393001697" lon="12.142382409207674"><ele>631.0</ele><time>2026-04-12T08:56:42Z</time></trkpt><trkpt lat="42.943084894010646" lon="12.142499354028539"><ele>631.0</ele><time>2026-04-12T08:56:43Z</time></trkpt><trkpt lat="42.94310449788204" lon="12.142649177696978"><ele>630.8</ele><time>2026-04-12T08:56:44Z</time></trkpt><trkpt lat="42.9431113201566" lon="12.142813437491863"><ele>630.6</ele><time>2026-04-12T08:56:45Z</time></trkpt><trkpt lat="42.94311309079993" lon="12.142966747979935"><ele>630.4</ele><time>2026-04-12T08:56:46Z</time></trkpt><trkpt lat="42.94312286469421" lon="12.143105555238293"><ele>630.2</ele><time>2026-04-12T08:56:47Z</time></trkpt><trkpt lat="42.94314972007692" lon="12.143246525392271"><ele>630.0</ele><time>2026-04-12T08:56:48Z</time></trkpt><trkpt lat="42.94319820234263" lon="12.143393470827544"><ele>630.0</ele><time>2026-04-12T08:56:49Z</time></trkpt><trkpt lat="42.94326739603101" lon="12.143533579378191"><ele>630.0</ele><time>2026-04-12T08:56:50Z</time></trkpt><trkpt lat="42.94333210049386" lon="12.143661138404886"><ele>630.0</ele><time>2026-04-12T08:56:51Z</time></trkpt><trkpt lat="42.94338353829008" lon="12.143793810295413"><ele>630.0</ele><time>2026-04-12T08:56:52Z</time></trkpt><trkpt lat="42.9434322729207" lon="12.143945947553414"><ele>628.75</ele><time>2026-04-12T08:56:53Z</time></trkpt><trkpt lat="42.943473763573216" lon="12.144093398650856"><ele>627.5</ele><time>2026-04-12T08:56:54Z</time></trkpt><trkpt lat="42.943471474956525" lon="12.144250988981264"><ele>626.25</ele><time>2026-04-12T08:56:55Z</time></trkpt><trkpt lat="42.94348786328066" lon="12.144422239318091"><ele>625.0</ele><time>2026-04-12T08:56:56Z</time></trkpt><trkpt lat="42.94351874049319" lon="12.144584594093189"><ele>625.0</ele><time>2026-04-12T08:56:57Z</time></trkpt><trkpt lat="42.943566505566615" lon="12.144708180259142"><ele>625.0</ele><time>2026-04-12T08:56:58Z</time></trkpt><trkpt lat="42.94361871722765" lon="12.144840253735953"><ele>625.0</ele><time>2026-04-12T08:56:59Z</time></trkpt><trkpt lat="42.943657484787174" lon="12.144989821619728"><ele>625.0</ele><time>2026-04-12T08:57:00Z</time></trkpt><trkpt lat="42.943727151030814" lon="12.145124839002648"><ele>625.0</ele><time>2026-04-12T08:57:01Z</time></trkpt><trkpt lat="42.94378772624292" lon="12.145266564321252"><ele>626.8</ele><time>2026-04-12T08:57:02Z</time></trkpt><trkpt lat="42.94385683987916" lon="12.1454006502178"><ele>628.6</ele><time>2026-04-12T08:57:03Z</time></trkpt><trkpt lat="42.94389569863064" lon="12.145544666575592"><ele>630.4</ele><time>2026-04-12T08:57:04Z</time></trkpt><trkpt lat="42.94396179567782" lon="12.145659446856843"><ele>632.2</ele><time>2026-04-12T08:57:05Z</time></trkpt><trkpt lat="42.94400979445267" lon="12.145791788100611"><ele>634.0</ele><time>2026-04-12T08:57:06Z</time></trkpt><trkpt lat="42.94407914227606" lon="12.14593085763739"><ele>635.4</ele><time>2026-04-12T08:57:07Z</time></trkpt><trkpt lat="42.944139483466984" lon="12.14606057499227"><ele>636.8</ele><time>2026-04-12T08:57:08Z</time></trkpt><trkpt lat="42.94419292009374" lon="12.14617844034148"><ele>638.1999999999999</ele><time>2026-04-12T08:57:09Z</time></trkpt><trkpt lat="42.94423745245599" lon="12.146297686930733"><ele>639.5999999999999</ele><time>2026-04-12T08:57:10Z</time></trkpt><trkpt lat="42.94426568083693" lon="12.146426833301915"><ele>641.0</ele><time>2026-04-12T08:57:11Z</time></trkpt><trkpt lat="42.94428038279835" lon="12.146561670589687"><ele>638.6666666666666</ele><time>2026-04-12T08:57:12Z</time></trkpt><trkpt lat="42.9442854186479" lon="12.146684745590271"><ele>636.3333333333333</ele><time>2026-04-12T08:57:13Z</time></trkpt><trkpt lat="42.94428768786517" lon="12.14680309844605"><ele>634.0</ele><time>2026-04-12T08:57:14Z</time></trkpt><trkpt lat="42.94428801967331" lon="12.146911006869704"><ele>631.6666666666666</ele><time>2026-04-12T08:57:15Z</time></trkpt><trkpt lat="42.944294091284206" lon="12.147024853049645"><ele>629.3333333333334</ele><time>2026-04-12T08:57:16Z</time></trkpt><trkpt lat="42.944303411626" lon="12.147134933478808"><ele>627.0</ele><time>2026-04-12T08:57:17Z</time></trkpt><trkpt lat="42.94431296996181" lon="12.147233562814087"><ele>627.0</ele><time>2026-04-12T08:57:18Z</time></trkpt><trkpt lat="42.9443343755468" lon="12.1473274762419"><ele>627.0</ele><time>2026-04-12T08:57:19Z</time></trkpt><trkpt lat="42.94439269422063" lon="12.147403487825489"><ele>627.0</ele><time>2026-04-12T08:57:20Z</time></trkpt><trkpt lat="42.944478547528" lon="12.14745607399069"><ele>627.0</ele><time>2026-04-12T08:57:21Z</time></trkpt><trkpt lat="42.944565289202515" lon="12.147496200539312"><ele>627.0</ele><time>2026-04-12T08:57:22Z</time></trkpt><trkpt lat="42.94464886642063" lon="12.147527541766712"><ele>627.0</ele><time>2026-04-12T08:57:23Z</time></trkpt><trkpt lat="42.944734248873026" lon="12.147570640498525"><ele>627.8000000000001</ele><time>2026-04-12T08:57:24Z</time></trkpt><trkpt lat="42.944814421614495" lon="12.147640666902594"><ele>628.6</ele><time>2026-04-12T08:57:25Z</time></trkpt><trkpt lat="42.944887919677434" lon="12.147751011934899"><ele>629.4000000000001</ele><time>2026-04-12T08:57:26Z</time></trkpt><trkpt lat="42.944943895407114" lon="12.147879990732358"><ele>630.2</ele><time>2026-04-12T08:57:27Z</time></trkpt><trkpt lat="42.94499508585125" lon="12.1480061396684"><ele>631.0</ele><time>2026-04-12T08:57:28Z</time></trkpt><trkpt lat="42.945042465645464" lon="12.148119814106614"><ele>629.0</ele><time>2026-04-12T08:57:29Z</time></trkpt><trkpt lat="42.945085149030355" lon="12.14822228754312"><ele>627.0</ele><time>2026-04-12T08:57:30Z</time></trkpt><trkpt lat="42.94512497270636" lon="12.148329369616786"><ele>625.0</ele><time>2026-04-12T08:57:31Z</time></trkpt><trkpt lat="42.94516498255264" lon="12.14843688823668"><ele>623.0</ele><time>2026-04-12T08:57:32Z</time></trkpt><trkpt lat="42.9452034629899" lon="12.14854920883454"><ele>621.0</ele><time>2026-04-12T08:57:33Z</time></trkpt><trkpt lat="42.94523867280411" lon="12.148689589203697"><ele>621.0</ele><time>2026-04-12T08:57:34Z</time></trkpt><trkpt lat="42.94526384105551" lon="12.148832262742632"><ele>621.0</ele><time>2026-04-12T08:57:35Z</time></trkpt><trkpt lat="42.94528123767281" lon="12.148972406205583"><ele>621.0</ele><time>2026-04-12T08:57:36Z</time></trkpt><trkpt lat="42.94528893285663" lon="12.149105597577469"><ele>621.0</ele><time>2026-04-12T08:57:37Z</time></trkpt><trkpt lat="42.94530610569411" lon="12.149243461783144"><ele>621.0</ele><time>2026-04-12T08:57:38Z</time></trkpt><trkpt lat="42.94532174319632" lon="12.14936916395922"><ele>623.0</ele><time>2026-04-12T08:57:39Z</time></trkpt><trkpt lat="42.94534002285829" lon="12.149494803022218"><ele>625.0</ele><time>2026-04-12T08:57:40Z</time></trkpt><trkpt lat="42.94536584411255" lon="12.149630759251137"><ele>627.0</ele><time>2026-04-12T08:57:41Z</time></trkpt><trkpt lat="42.945399651155064" lon="12.149775626770579"><ele>629.0</ele><time>2026-04-12T08:57:42Z</time></trkpt><trkpt lat="42.94542622913768" lon="12.14990093913997"><ele>631.0</ele><time>2026-04-12T08:57:43Z</time></trkpt><trkpt lat="42.94545205750153" lon="12.150048124110842"><ele>631.0</ele><time>2026-04-12T08:57:44Z</time></trkpt><trkpt lat="42.94549845493197" lon="12.150202478166998"><ele>631.0</ele><time>2026-04-12T08:57:45Z</time></trkpt><trkpt lat="42.945497698024" lon="12.150344992445728"><ele>631.0</ele><time>2026-04-12T08:57:46Z</time></trkpt><trkpt lat="42.945486756706416" lon="12.150456262247173"><ele>631.0</ele><time>2026-04-12T08:57:47Z</time></trkpt><trkpt lat="42.94547540650287" lon="12.150597350561368"><ele>631.0</ele><time>2026-04-12T08:57:48Z</time></trkpt><trkpt lat="42.945461465816635" lon="12.150717409337274"><ele>631.0</ele><time>2026-04-12T08:57:49Z</time></trkpt><trkpt lat="42.945441008798596" lon="12.15085010213831"><ele>631.0</ele><time>2026-04-12T08:57:50Z</time></trkpt><trkpt lat="42.945415097380796" lon="12.150988560114412"><ele>631.0</ele><time>2026-04-12T08:57:51Z</time></trkpt><trkpt lat="42.945395718667825" lon="12.15111805891448"><ele>631.0</ele><time>2026-04-12T08:57:52Z</time></trkpt><trkpt lat="42.94537554323066" lon="12.15120346783779"><ele>631.0</ele><time>2026-04-12T08:57:53Z</time></trkpt><trkpt lat="42.94539161714474" lon="12.15133777223844"><ele>631.0</ele><time>2026-04-12T08:57:54Z</time></trkpt><trkpt lat="42.94544752314489" lon="12.151439118814778"><ele>631.0</ele><time>2026-04-12T08:57:55Z</time></trkpt><trkpt lat="42.94552031092137" lon="12.151530935584487"><ele>631.0</ele><time>2026-04-12T08:57:56Z</time></trkpt><trkpt lat="42.94557462648796" lon="12.151624264070746"><ele>631.0</ele><time>2026-04-12T08:57:57Z</time></trkpt><trkpt lat="42.94563318482256" lon="12.151728992722989"><ele>631.0</ele><time>2026-04-12T08:57:58Z</time></trkpt><trkpt lat="42.94568820256075" lon="12.15179672524571"><ele>632.1666666666667</ele><time>2026-04-12T08:57:59Z</time></trkpt><trkpt lat="42.94573809014701" lon="12.151890965028956"><ele>633.3333333333334</ele><time>2026-04-12T08:58:00Z</time></trkpt><trkpt lat="42.945801742179015" lon="12.1519618325543"><ele>634.5</ele><time>2026-04-12T08:58:01Z</time></trkpt><trkpt lat="42.945874909229154" lon="12.152023437955979"><ele>635.6666666666666</ele><time>2026-04-12T08:58:02Z</time></trkpt><trkpt lat="42.94592967516635" lon="12.152113043087517"><ele>636.8333333333333</ele><time>2026-04-12T08:58:03Z</time></trkpt><trkpt lat="42.945985754471025" lon="12.152205481360925"><ele>638.0</ele><time>2026-04-12T08:58:04Z</time></trkpt><trkpt lat="42.946027938220276" lon="12.152300535141983"><ele>635.6666666666666</ele><time>2026-04-12T08:58:05Z</time></trkpt><trkpt lat="42.94604166560381" lon="12.152414027453089"><ele>633.3333333333333</ele><time>2026-04-12T08:58:06Z</time></trkpt><trkpt lat="42.946035812014316" lon="12.152518009892587"><ele>631.0</ele><time>2026-04-12T08:58:07Z</time></trkpt><trkpt lat="42.94605369056669" lon="12.152642835901908"><ele>628.6666666666666</ele><time>2026-04-12T08:58:09Z</time></trkpt><trkpt lat="42.94608970410499" lon="12.152718920089061"><ele>626.3333333333334</ele><time>2026-04-12T08:58:13Z</time></trkpt><trkpt lat="42.94618586096071" lon="12.152815939466047"><ele>624.0</ele><time>2026-04-12T08:59:24Z</time></trkpt><trkpt lat="42.946254357843635" lon="12.15284502974995"><ele>624.0</ele><time>2026-04-12T08:59:25Z</time></trkpt><trkpt lat="42.94633491680751" lon="12.152870269737328"><ele>624.0</ele><time>2026-04-12T08:59:26Z</time></trkpt><trkpt lat="42.94641129584803" lon="12.152916399649326"><ele>624.0</ele><time>2026-04-12T08:59:27Z</time></trkpt><trkpt lat="42.946488701396426" lon="12.152933050485126"><ele>624.0</ele><time>2026-04-12T08:59:28Z</time></trkpt><trkpt lat="42.94657130088664" lon="12.152947627982865"><ele>624.0</ele><time>2026-04-12T08:59:29Z</time></trkpt><trkpt lat="42.94666265868778" lon="12.152973650104773"><ele>624.0</ele><time>2026-04-12T08:59:30Z</time></trkpt><trkpt lat="42.946755807561075" lon="12.15300434116793"><ele>619.8</ele><time>2026-04-12T08:59:31Z</time></trkpt><trkpt lat="42.94685831309438" lon="12.153011000216749"><ele>615.5999999999999</ele><time>2026-04-12T08:59:32Z</time></trkpt><trkpt lat="42.94694749303219" lon="12.153014932744913"><ele>611.4</ele><time>2026-04-12T08:59:33Z</time></trkpt><trkpt lat="42.94703541616021" lon="12.153068988622369"><ele>607.1999999999999</ele><time>2026-04-12T08:59:34Z</time></trkpt><trkpt lat="42.947112342464514" lon="12.15311486648104"><ele>603.0</ele><time>2026-04-12T08:59:35Z</time></trkpt><trkpt lat="42.94719848575422" lon="12.153140872115108"><ele>603.0</ele><time>2026-04-12T08:59:36Z</time></trkpt><trkpt lat="42.947292715038515" lon="12.153146809538562"><ele>603.0</ele><time>2026-04-12T08:59:37Z</time></trkpt><trkpt lat="42.94738323751172" lon="12.1531619193856"><ele>603.0</ele><time>2026-04-12T08:59:38Z</time></trkpt><trkpt lat="42.947481799998634" lon="12.153191864225391"><ele>603.0</ele><time>2026-04-12T08:59:39Z</time></trkpt><trkpt lat="42.94758089292436" lon="12.153213202520691"><ele>603.0</ele><time>2026-04-12T08:59:40Z</time></trkpt><trkpt lat="42.947682859243116" lon="12.153239892446956"><ele>604.1999999999999</ele><time>2026-04-12T08:59:41Z</time></trkpt><trkpt lat="42.947781895071785" lon="12.153275601340855"><ele>605.4</ele><time>2026-04-12T08:59:42Z</time></trkpt><trkpt lat="42.94787338182728" lon="12.153307206578313"><ele>606.5999999999999</ele><time>2026-04-12T08:59:43Z</time></trkpt><trkpt lat="42.94797398685872" lon="12.153362038909842"><ele>607.8</ele><time>2026-04-12T08:59:44Z</time></trkpt><trkpt lat="42.948062203586616" lon="12.153409275282412"><ele>609.0</ele><time>2026-04-12T08:59:45Z</time></trkpt><trkpt lat="42.94814769084676" lon="12.153449376644579"><ele>609.0</ele><time>2026-04-12T08:59:46Z</time></trkpt><trkpt lat="42.94824212169649" lon="12.153498717164485"><ele>609.0</ele><time>2026-04-12T08:59:47Z</time></trkpt><trkpt lat="42.94834068487242" lon="12.153550867461133"><ele>609.0</ele><time>2026-04-12T08:59:48Z</time></trkpt><trkpt lat="42.94845005896451" lon="12.153609078023624"><ele>609.0</ele><time>2026-04-12T08:59:49Z</time></trkpt><trkpt lat="42.94857567173507" lon="12.153659054901787"><ele>607.5</ele><time>2026-04-12T08:59:50Z</time></trkpt><trkpt lat="42.94870304874572" lon="12.153709537799307"><ele>606.0</ele><time>2026-04-12T08:59:51Z</time></trkpt><trkpt lat="42.948832777790834" lon="12.153759672792875"><ele>604.5</ele><time>2026-04-12T08:59:52Z</time></trkpt><trkpt lat="42.94895483857211" lon="12.153810731383686"><ele>603.0</ele><time>2026-04-12T08:59:53Z</time></trkpt><trkpt lat="42.94906991236304" lon="12.153859430179876"><ele>603.0</ele><time>2026-04-12T08:59:54Z</time></trkpt><trkpt lat="42.94918988984614" lon="12.153913097089148"><ele>603.0</ele><time>2026-04-12T08:59:55Z</time></trkpt><trkpt lat="42.949299991896744" lon="12.153956508158299"><ele>603.0</ele><time>2026-04-12T08:59:56Z</time></trkpt><trkpt lat="42.94940795476318" lon="12.153987316562278"><ele>603.0</ele><time>2026-04-12T08:59:57Z</time></trkpt><trkpt lat="42.94952001988647" lon="12.154017310754496"><ele>604.0</ele><time>2026-04-12T08:59:58Z</time></trkpt><trkpt lat="42.94963974172142" lon="12.15404166950043"><ele>605.0</ele><time>2026-04-12T08:59:59Z</time></trkpt><trkpt lat="42.94976515159237" lon="12.154086294564127"><ele>606.0</ele><time>2026-04-12T09:00:00Z</time></trkpt><trkpt lat="42.949894069544754" lon="12.15406734247985"><ele>607.0</ele><time>2026-04-12T09:00:01Z</time></trkpt><trkpt lat="42.950033209011615" lon="12.154062320682431"><ele>605.25</ele><time>2026-04-12T09:00:02Z</time></trkpt><trkpt lat="42.95016850525409" lon="12.154055234258209"><ele>603.5</ele><time>2026-04-12T09:00:03Z</time></trkpt><trkpt lat="42.950292888711424" lon="12.154066274188626"><ele>601.75</ele><time>2026-04-12T09:00:04Z</time></trkpt><trkpt lat="42.9504133826628" lon="12.154095279797751"><ele>600.0</ele><time>2026-04-12T09:00:05Z</time></trkpt><trkpt lat="42.95052244859058" lon="12.154156520406259"><ele>600.0</ele><time>2026-04-12T09:00:06Z</time></trkpt><trkpt lat="42.95061984542742" lon="12.154212697623427"><ele>600.0</ele><time>2026-04-12T09:00:07Z</time></trkpt><trkpt lat="42.95072038287855" lon="12.154301536553236"><ele>600.0</ele><time>2026-04-12T09:00:08Z</time></trkpt><trkpt lat="42.95082160657078" lon="12.154388580195082"><ele>600.0</ele><time>2026-04-12T09:00:09Z</time></trkpt><trkpt lat="42.95091478997688" lon="12.15446777299729"><ele>598.25</ele><time>2026-04-12T09:00:10Z</time></trkpt><trkpt lat="42.951018832460136" lon="12.154512193570458"><ele>596.5</ele><time>2026-04-12T09:00:11Z</time></trkpt><trkpt lat="42.95112537479179" lon="12.154511678465992"><ele>594.75</ele><time>2026-04-12T09:00:12Z</time></trkpt><trkpt lat="42.95123870830341" lon="12.15449549617848"><ele>593.0</ele><time>2026-04-12T09:00:13Z</time></trkpt><trkpt lat="42.95134091386721" lon="12.154406497750644"><ele>593.0</ele><time>2026-04-12T09:00:14Z</time></trkpt><trkpt lat="42.95145134823683" lon="12.154348505439705"><ele>593.0</ele><time>2026-04-12T09:00:15Z</time></trkpt><trkpt lat="42.95156188118777" lon="12.154270019358034"><ele>593.0</ele><time>2026-04-12T09:00:16Z</time></trkpt><trkpt lat="42.95167552923561" lon="12.154189321369108"><ele>593.0</ele><time>2026-04-12T09:00:17Z</time></trkpt><trkpt lat="42.951781093687366" lon="12.15411418432346"><ele>592.1999999999999</ele><time>2026-04-12T09:00:18Z</time></trkpt><trkpt lat="42.95187682492678" lon="12.154044625498127"><ele>591.4</ele><time>2026-04-12T09:00:19Z</time></trkpt><trkpt lat="42.95197372624746" lon="12.153969720045403"><ele>590.5999999999999</ele><time>2026-04-12T09:00:20Z</time></trkpt><trkpt lat="42.9520751112084" lon="12.153888006797587"><ele>589.8</ele><time>2026-04-12T09:00:21Z</time></trkpt><trkpt lat="42.952161449708946" lon="12.153796754937416"><ele>589.0</ele><time>2026-04-12T09:00:22Z</time></trkpt><trkpt lat="42.952245528848536" lon="12.153732999413892"><ele>589.0</ele><time>2026-04-12T09:00:23Z</time></trkpt><trkpt lat="42.952332183744296" lon="12.153703009086966"><ele>589.0</ele><time>2026-04-12T09:00:24Z</time></trkpt><trkpt lat="42.95241665920889" lon="12.153736674641982"><ele>589.0</ele><time>2026-04-12T09:00:25Z</time></trkpt><trkpt lat="42.95249403999341" lon="12.153829105532893"><ele>589.0</ele><time>2026-04-12T09:00:26Z</time></trkpt><trkpt lat="42.95256427887353" lon="12.15392459568126"><ele>589.0</ele><time>2026-04-12T09:00:27Z</time></trkpt><trkpt lat="42.952645085987534" lon="12.153991225890278"><ele>586.2</ele><time>2026-04-12T09:00:28Z</time></trkpt><trkpt lat="42.95273015096556" lon="12.154002607291957"><ele>583.4</ele><time>2026-04-12T09:00:29Z</time></trkpt><trkpt lat="42.95281799828598" lon="12.153971669352705"><ele>580.6</ele><time>2026-04-12T09:00:30Z</time></trkpt><trkpt lat="42.95287722622957" lon="12.15383274618387"><ele>577.8</ele><time>2026-04-12T09:00:31Z</time></trkpt><trkpt lat="42.95292708765306" lon="12.153686783163431"><ele>575.0</ele><time>2026-04-12T09:00:32Z</time></trkpt><trkpt lat="42.952972298697034" lon="12.15356177491961"><ele>575.0</ele><time>2026-04-12T09:00:33Z</time></trkpt><trkpt lat="42.953021440075894" lon="12.153454314467892"><ele>575.0</ele><time>2026-04-12T09:00:34Z</time></trkpt><trkpt lat="42.95310450467981" lon="12.153382382535337"><ele>575.0</ele><time>2026-04-12T09:00:35Z</time></trkpt><trkpt lat="42.95320382403096" lon="12.153362212372507"><ele>575.0</ele><time>2026-04-12T09:00:36Z</time></trkpt><trkpt lat="42.9533154091761" lon="12.153409446745986"><ele>575.0</ele><time>2026-04-12T09:00:37Z</time></trkpt><trkpt lat="42.95341643250238" lon="12.15348406531912"><ele>574.0</ele><time>2026-04-12T09:00:38Z</time></trkpt><trkpt lat="42.953507378216024" lon="12.153550929812031"><ele>573.0</ele><time>2026-04-12T09:00:39Z</time></trkpt><trkpt lat="42.95359964227733" lon="12.153609236238626"><ele>572.0</ele><time>2026-04-12T09:00:40Z</time></trkpt><trkpt lat="42.95370427803633" lon="12.153669329527881"><ele>571.0</ele><time>2026-04-12T09:00:41Z</time></trkpt><trkpt lat="42.95380317495746" lon="12.153740288974143"><ele>570.0</ele><time>2026-04-12T09:00:42Z</time></trkpt><trkpt lat="42.953903324443026" lon="12.153807694153905"><ele>570.0</ele><time>2026-04-12T09:00:43Z</time></trkpt><trkpt lat="42.95400240796842" lon="12.153876873435733"><ele>570.0</ele><time>2026-04-12T09:00:44Z</time></trkpt><trkpt lat="42.95410841495431" lon="12.153951276020612"><ele>570.0</ele><time>2026-04-12T09:00:45Z</time></trkpt><trkpt lat="42.95421484126178" lon="12.154020218175331"><ele>570.0</ele><time>2026-04-12T09:00:46Z</time></trkpt><trkpt lat="42.954323645874794" lon="12.154075348466215"><ele>567.5</ele><time>2026-04-12T09:00:47Z</time></trkpt><trkpt lat="42.95443418271891" lon="12.154123372883683"><ele>565.0</ele><time>2026-04-12T09:00:48Z</time></trkpt><trkpt lat="42.95454881336232" lon="12.154168672792611"><ele>562.5</ele><time>2026-04-12T09:00:49Z</time></trkpt><trkpt lat="42.95466056154089" lon="12.154205132045954"><ele>560.0</ele><time>2026-04-12T09:00:50Z</time></trkpt><trkpt lat="42.95476788940331" lon="12.15424782310376"><ele>560.0</ele><time>2026-04-12T09:00:51Z</time></trkpt><trkpt lat="42.95487500016011" lon="12.154312741823398"><ele>560.0</ele><time>2026-04-12T09:00:52Z</time></trkpt><trkpt lat="42.95498670364897" lon="12.154399221362757"><ele>560.0</ele><time>2026-04-12T09:00:53Z</time></trkpt><trkpt lat="42.95509706284281" lon="12.154505412341448"><ele>560.0</ele><time>2026-04-12T09:00:54Z</time></trkpt><trkpt lat="42.95521125727244" lon="12.154607595074326"><ele>558.75</ele><time>2026-04-12T09:00:55Z</time></trkpt><trkpt lat="42.955320076176214" lon="12.154709893745965"><ele>557.5</ele><time>2026-04-12T09:00:56Z</time></trkpt><trkpt lat="42.955421296473055" lon="12.154816551257946"><ele>556.25</ele><time>2026-04-12T09:00:57Z</time></trkpt><trkpt lat="42.9555199631933" lon="12.154930265320944"><ele>555.0</ele><time>2026-04-12T09:00:58Z</time></trkpt><trkpt lat="42.95561005685744" lon="12.155044559577325"><ele>555.0</ele><time>2026-04-12T09:00:59Z</time></trkpt><trkpt lat="42.95569953458146" lon="12.155159428820381"><ele>555.0</ele><time>2026-04-12T09:01:00Z</time></trkpt><trkpt lat="42.955783472271115" lon="12.155287017200237"><ele>555.0</ele><time>2026-04-12T09:01:01Z</time></trkpt><trkpt lat="42.95586861896985" lon="12.155422434489095"><ele>555.0</ele><time>2026-04-12T09:01:02Z</time></trkpt><trkpt lat="42.955954672957404" lon="12.155554554775142"><ele>556.0</ele><time>2026-04-12T09:01:03Z</time></trkpt><trkpt lat="42.95604306110193" lon="12.155673502164795"><ele>557.0</ele><time>2026-04-12T09:01:04Z</time></trkpt><trkpt lat="42.95613203294998" lon="12.155790922327899"><ele>558.0</ele><time>2026-04-12T09:01:05Z</time></trkpt><trkpt lat="42.956215187654415" lon="12.15591037505881"><ele>559.0</ele><time>2026-04-12T09:01:06Z</time></trkpt><trkpt lat="42.956298314538195" lon="12.15602760619198"><ele>559.0</ele><time>2026-04-12T09:01:07Z</time></trkpt><trkpt lat="42.956394396661075" lon="12.156135273141043"><ele>559.0</ele><time>2026-04-12T09:01:08Z</time></trkpt><trkpt lat="42.95650154700296" lon="12.156235965020212"><ele>559.0</ele><time>2026-04-12T09:01:09Z</time></trkpt><trkpt lat="42.956626199352854" lon="12.15633944131757"><ele>559.0</ele><time>2026-04-12T09:01:10Z</time></trkpt><trkpt lat="42.95673838145221" lon="12.156435346049053"><ele>561.25</ele><time>2026-04-12T09:01:11Z</time></trkpt><trkpt lat="42.95688141978477" lon="12.15644053102319"><ele>563.5</ele><time>2026-04-12T09:01:12Z</time></trkpt><trkpt lat="42.957020315728" lon="12.156431391017062"><ele>565.75</ele><time>2026-04-12T09:01:13Z</time></trkpt><trkpt lat="42.95715547597343" lon="12.156433608557405"><ele>568.0</ele><time>2026-04-12T09:01:14Z</time></trkpt><trkpt lat="42.95728225652193" lon="12.156419825330346"><ele>568.0</ele><time>2026-04-12T09:01:15Z</time></trkpt><trkpt lat="42.95740972599798" lon="12.15647360607781"><ele>568.0</ele><time>2026-04-12T09:01:16Z</time></trkpt><trkpt lat="42.957525339235985" lon="12.156538221938112"><ele>568.0</ele><time>2026-04-12T09:01:17Z</time></trkpt><trkpt lat="42.95762414624328" lon="12.15657861919555"><ele>568.0</ele><time>2026-04-12T09:01:18Z</time></trkpt><trkpt lat="42.957721014528296" lon="12.156610672304037"><ele>573.25</ele><time>2026-04-12T09:01:19Z</time></trkpt><trkpt lat="42.957829400941186" lon="12.156552678090266"><ele>578.5</ele><time>2026-04-12T09:01:20Z</time></trkpt><trkpt lat="42.957916021144165" lon="12.156453308853918"><ele>583.75</ele><time>2026-04-12T09:01:21Z</time></trkpt><trkpt lat="42.95799411275093" lon="12.156332153423632"><ele>589.0</ele><time>2026-04-12T09:01:22Z</time></trkpt><trkpt lat="42.95806469586838" lon="12.15620388726166"><ele>589.0</ele><time>2026-04-12T09:01:23Z</time></trkpt><trkpt lat="42.95812913886778" lon="12.156078181356579"><ele>589.0</ele><time>2026-04-12T09:01:24Z</time></trkpt><trkpt lat="42.95818546883205" lon="12.155935269868861"><ele>589.0</ele><time>2026-04-12T09:01:25Z</time></trkpt><trkpt lat="42.95821955126935" lon="12.155776231255809"><ele>589.0</ele><time>2026-04-12T09:01:26Z</time></trkpt><trkpt lat="42.95822925096253" lon="12.155606274082738"><ele>589.4</ele><time>2026-04-12T09:01:27Z</time></trkpt><trkpt lat="42.95821370658912" lon="12.155428197902284"><ele>589.8</ele><time>2026-04-12T09:01:28Z</time></trkpt><trkpt lat="42.95819274805771" lon="12.155287589647099"><ele>590.2</ele><time>2026-04-12T09:01:29Z</time></trkpt><trkpt lat="42.958180387969904" lon="12.155141665228014"><ele>590.6</ele><time>2026-04-12T09:01:30Z</time></trkpt><trkpt lat="42.95820107994293" lon="12.155018816403967"><ele>591.0</ele><time>2026-04-12T09:01:31Z</time></trkpt><trkpt lat="42.95825939049889" lon="12.154910352250656"><ele>590.6</ele><time>2026-04-12T09:01:32Z</time></trkpt><trkpt lat="42.95833761812744" lon="12.15482362154212"><ele>590.2</ele><time>2026-04-12T09:01:33Z</time></trkpt><trkpt lat="42.95842585986226" lon="12.154733452275321"><ele>589.8</ele><time>2026-04-12T09:01:34Z</time></trkpt><trkpt lat="42.95851252755972" lon="12.154642341426221"><ele>589.4</ele><time>2026-04-12T09:01:35Z</time></trkpt><trkpt lat="42.958571717464245" lon="12.15449474197408"><ele>589.0</ele><time>2026-04-12T09:01:36Z</time></trkpt><trkpt lat="42.95863116385118" lon="12.154342764872526"><ele>592.25</ele><time>2026-04-12T09:01:37Z</time></trkpt><trkpt lat="42.95867182630305" lon="12.154168900085702"><ele>595.5</ele><time>2026-04-12T09:01:38Z</time></trkpt><trkpt lat="42.958704246300556" lon="12.153999744062546"><ele>598.75</ele><time>2026-04-12T09:01:39Z</time></trkpt><trkpt lat="42.95873256818565" lon="12.153838686121132"><ele>602.0</ele><time>2026-04-12T09:01:40Z</time></trkpt><trkpt lat="42.95875647422068" lon="12.153695995681057"><ele>602.0</ele><time>2026-04-12T09:01:41Z</time></trkpt><trkpt lat="42.95877299689531" lon="12.15354425585725"><ele>602.0</ele><time>2026-04-12T09:01:42Z</time></trkpt><trkpt lat="42.95880789264439" lon="12.15338430694177"><ele>602.0</ele><time>2026-04-12T09:01:43Z</time></trkpt><trkpt lat="42.95885271287239" lon="12.153227612015161"><ele>602.0</ele><time>2026-04-12T09:01:44Z</time></trkpt><trkpt lat="42.95890135743977" lon="12.153065809650984"><ele>602.25</ele><time>2026-04-12T09:01:45Z</time></trkpt><trkpt lat="42.958951566659465" lon="12.152923056630094"><ele>602.5</ele><time>2026-04-12T09:01:46Z</time></trkpt><trkpt lat="42.95900869677163" lon="12.152757496742346"><ele>602.75</ele><time>2026-04-12T09:01:47Z</time></trkpt><trkpt lat="42.95907153519052" lon="12.152589286524243"><ele>603.0</ele><time>2026-04-12T09:01:48Z</time></trkpt><trkpt lat="42.95912685822607" lon="12.152424781564143"><ele>602.1999999999999</ele><time>2026-04-12T09:01:49Z</time></trkpt><trkpt lat="42.959172630335516" lon="12.152288260738638"><ele>601.4</ele><time>2026-04-12T09:01:50Z</time></trkpt><trkpt lat="42.9592258485359" lon="12.152172940934499"><ele>600.5999999999999</ele><time>2026-04-12T09:01:51Z</time></trkpt><trkpt lat="42.95929982874144" lon="12.152092393881768"><ele>599.8</ele><time>2026-04-12T09:01:52Z</time></trkpt><trkpt lat="42.95938805760628" lon="12.152036906156143"><ele>599.0</ele><time>2026-04-12T09:01:53Z</time></trkpt><trkpt lat="42.95948704694086" lon="12.151979036550422"><ele>600.6666666666666</ele><time>2026-04-12T09:01:54Z</time></trkpt><trkpt lat="42.95958449990681" lon="12.151919290297643"><ele>602.3333333333333</ele><time>2026-04-12T09:01:55Z</time></trkpt><trkpt lat="42.95966547836091" lon="12.15186278536119"><ele>604.0</ele><time>2026-04-12T09:01:56Z</time></trkpt><trkpt lat="42.95974310444009" lon="12.151810666148837"><ele>605.6666666666666</ele><time>2026-04-12T09:01:57Z</time></trkpt><trkpt lat="42.95980320610424" lon="12.1517724150955"><ele>607.3333333333334</ele><time>2026-04-12T09:01:58Z</time></trkpt><trkpt lat="42.959876331057515" lon="12.151731961453871"><ele>609.0</ele><time>2026-04-12T09:02:00Z</time></trkpt><trkpt lat="42.95996894691132" lon="12.151667560658339"><ele>609.0</ele><time>2026-04-12T09:02:17Z</time></trkpt><trkpt lat="42.9600255331588" lon="12.151627164431762"><ele>609.0</ele><time>2026-04-12T09:02:18Z</time></trkpt><trkpt lat="42.96014057177832" lon="12.151525528679947"><ele>609.0</ele><time>2026-04-12T09:02:20Z</time></trkpt><trkpt lat="42.960211256316015" lon="12.151473058357187"><ele>609.0</ele><time>2026-04-12T09:02:21Z</time></trkpt><trkpt lat="42.96027732739476" lon="12.151416760106132"><ele>609.0</ele><time>2026-04-12T09:02:22Z</time></trkpt><trkpt lat="42.96035038173497" lon="12.151372112529774"><ele>609.0</ele><time>2026-04-12T09:02:23Z</time></trkpt><trkpt lat="42.960429288255256" lon="12.151314394092585"><ele>607.4</ele><time>2026-04-12T09:02:24Z</time></trkpt><trkpt lat="42.96052637875506" lon="12.151268802523782"><ele>605.8</ele><time>2026-04-12T09:02:25Z</time></trkpt><trkpt lat="42.96062217474952" lon="12.151229926247748"><ele>604.2</ele><time>2026-04-12T09:02:26Z</time></trkpt><trkpt lat="42.96071430080414" lon="12.151206331193153"><ele>602.6</ele><time>2026-04-12T09:02:27Z</time></trkpt><trkpt lat="42.96081588996039" lon="12.151223760789346"><ele>601.0</ele><time>2026-04-12T09:02:28Z</time></trkpt><trkpt lat="42.960904138516085" lon="12.151259843402318"><ele>599.5</ele><time>2026-04-12T09:02:29Z</time></trkpt><trkpt lat="42.96097485548527" lon="12.151323649651937"><ele>598.0</ele><time>2026-04-12T09:02:30Z</time></trkpt><trkpt lat="42.96103071637726" lon="12.151421940549104"><ele>596.5</ele><time>2026-04-12T09:02:31Z</time></trkpt><trkpt lat="42.961068480768766" lon="12.151535286751622"><ele>595.0</ele><time>2026-04-12T09:02:32Z</time></trkpt><trkpt lat="42.96108916058139" lon="12.15165676043897"><ele>593.5</ele><time>2026-04-12T09:02:33Z</time></trkpt><trkpt lat="42.96109813555644" lon="12.151776313176414"><ele>592.0</ele><time>2026-04-12T09:02:34Z</time></trkpt><trkpt lat="42.9611059273916" lon="12.151911190566747"><ele>592.0</ele><time>2026-04-12T09:02:35Z</time></trkpt><trkpt lat="42.96111154118359" lon="12.152066810920198"><ele>592.0</ele><time>2026-04-12T09:02:36Z</time></trkpt><trkpt lat="42.961120453413" lon="12.152225483077446"><ele>592.0</ele><time>2026-04-12T09:02:37Z</time></trkpt><trkpt lat="42.96113730016019" lon="12.152382700610158"><ele>592.0</ele><time>2026-04-12T09:02:38Z</time></trkpt><trkpt lat="42.961162225687985" lon="12.152511673233041"><ele>592.0</ele><time>2026-04-12T09:02:39Z</time></trkpt><trkpt lat="42.96121071055058" lon="12.152637787450944"><ele>593.75</ele><time>2026-04-12T09:02:40Z</time></trkpt><trkpt lat="42.96126808828351" lon="12.15275791892467"><ele>595.5</ele><time>2026-04-12T09:02:41Z</time></trkpt><trkpt lat="42.9613456766243" lon="12.152879374894443"><ele>597.25</ele><time>2026-04-12T09:02:42Z</time></trkpt><trkpt lat="42.96143402411941" lon="12.152973919265268"><ele>599.0</ele><time>2026-04-12T09:02:43Z</time></trkpt><trkpt lat="42.9615406852111" lon="12.153053990679515"><ele>599.0</ele><time>2026-04-12T09:02:44Z</time></trkpt><trkpt lat="42.96163872317847" lon="12.153125843807988"><ele>599.0</ele><time>2026-04-12T09:02:45Z</time></trkpt><trkpt lat="42.96172795775658" lon="12.15320744886732"><ele>599.0</ele><time>2026-04-12T09:02:46Z</time></trkpt><trkpt lat="42.96181469985253" lon="12.153285293142579"><ele>599.0</ele><time>2026-04-12T09:02:47Z</time></trkpt><trkpt lat="42.96190619437125" lon="12.153362731567707"><ele>599.0</ele><time>2026-04-12T09:02:48Z</time></trkpt><trkpt lat="42.96198989250286" lon="12.1534413314563"><ele>598.6</ele><time>2026-04-12T09:02:49Z</time></trkpt><trkpt lat="42.96205514634255" lon="12.1535415185712"><ele>598.2</ele><time>2026-04-12T09:02:50Z</time></trkpt><trkpt lat="42.96208843881432" lon="12.153654005693912"><ele>597.8000000000001</ele><time>2026-04-12T09:02:51Z</time></trkpt><trkpt lat="42.96208870003325" lon="12.153799564874857"><ele>597.4</ele><time>2026-04-12T09:02:52Z</time></trkpt><trkpt lat="42.96206116586414" lon="12.153943875388114"><ele>597.0</ele><time>2026-04-12T09:02:53Z</time></trkpt><trkpt lat="42.962052339185355" lon="12.154069150296406"><ele>598.2</ele><time>2026-04-12T09:02:54Z</time></trkpt><trkpt lat="42.96205878003752" lon="12.15421349485561"><ele>599.4000000000001</ele><time>2026-04-12T09:02:55Z</time></trkpt><trkpt lat="42.962082173356116" lon="12.154353912478998"><ele>600.5999999999999</ele><time>2026-04-12T09:02:56Z</time></trkpt><trkpt lat="42.96212265548498" lon="12.15447487599021"><ele>601.8</ele><time>2026-04-12T09:02:57Z</time></trkpt><trkpt lat="42.9621823168854" lon="12.154579925606456"><ele>603.0</ele><time>2026-04-12T09:02:58Z</time></trkpt><trkpt lat="42.96226654588694" lon="12.154663909843421"><ele>603.0</ele><time>2026-04-12T09:02:59Z</time></trkpt><trkpt lat="42.962361297457115" lon="12.154727071638455"><ele>603.0</ele><time>2026-04-12T09:03:00Z</time></trkpt><trkpt lat="42.96247364198459" lon="12.15475055147723"><ele>603.0</ele><time>2026-04-12T09:03:01Z</time></trkpt><trkpt lat="42.962563244255946" lon="12.154770686697624"><ele>603.0</ele><time>2026-04-12T09:03:02Z</time></trkpt><trkpt lat="42.962641206516615" lon="12.154853278252265"><ele>603.0</ele><time>2026-04-12T09:03:03Z</time></trkpt><trkpt lat="42.962700585542876" lon="12.154952643319671"><ele>598.1999999999999</ele><time>2026-04-12T09:03:04Z</time></trkpt><trkpt lat="42.96271362332472" lon="12.155080012179921"><ele>593.4</ele><time>2026-04-12T09:03:05Z</time></trkpt><trkpt lat="42.962697657045965" lon="12.155193956667446"><ele>588.5999999999999</ele><time>2026-04-12T09:03:06Z</time></trkpt><trkpt lat="42.9626601577558" lon="12.155305947691776"><ele>583.8</ele><time>2026-04-12T09:03:07Z</time></trkpt><trkpt lat="42.96260205681161" lon="12.15543133112801"><ele>579.0</ele><time>2026-04-12T09:03:08Z</time></trkpt><trkpt lat="42.96255852934624" lon="12.155550875025261"><ele>579.2</ele><time>2026-04-12T09:03:09Z</time></trkpt><trkpt lat="42.96251933434563" lon="12.155667696037245"><ele>579.4</ele><time>2026-04-12T09:03:10Z</time></trkpt><trkpt lat="42.96249332110448" lon="12.155797721678603"><ele>579.6</ele><time>2026-04-12T09:03:11Z</time></trkpt><trkpt lat="42.96248815019946" lon="12.155932366993735"><ele>579.8</ele><time>2026-04-12T09:03:12Z</time></trkpt><trkpt lat="42.96250715192191" lon="12.156065327048886"><ele>580.0</ele><time>2026-04-12T09:03:13Z</time></trkpt><trkpt lat="42.962562097320316" lon="12.156194697516558"><ele>580.0</ele><time>2026-04-12T09:03:14Z</time></trkpt><trkpt lat="42.96263185539559" lon="12.15631944891633"><ele>580.0</ele><time>2026-04-12T09:03:15Z</time></trkpt><trkpt lat="42.9627102884185" lon="12.1564681136321"><ele>580.0</ele><time>2026-04-12T09:03:16Z</time></trkpt><trkpt lat="42.96277947274818" lon="12.156577144391472"><ele>580.0</ele><time>2026-04-12T09:03:17Z</time></trkpt><trkpt lat="42.962853444430195" lon="12.15665323835065"><ele>580.0</ele><time>2026-04-12T09:03:18Z</time></trkpt><trkpt lat="42.962956282820016" lon="12.156740988509895"><ele>581.25</ele><time>2026-04-12T09:03:19Z</time></trkpt><trkpt lat="42.96309699086096" lon="12.156745471251012"><ele>582.5</ele><time>2026-04-12T09:03:20Z</time></trkpt><trkpt lat="42.96322958330227" lon="12.156711036687947"><ele>583.75</ele><time>2026-04-12T09:03:21Z</time></trkpt><trkpt lat="42.96333879588734" lon="12.156695232037636"><ele>585.0</ele><time>2026-04-12T09:03:22Z</time></trkpt><trkpt lat="42.96343978273333" lon="12.1567006956927"><ele>585.0</ele><time>2026-04-12T09:03:23Z</time></trkpt><trkpt lat="42.963533708449646" lon="12.15672471261602"><ele>585.0</ele><time>2026-04-12T09:03:24Z</time></trkpt><trkpt lat="42.96360497770561" lon="12.156826957409068"><ele>585.0</ele><time>2026-04-12T09:03:25Z</time></trkpt><trkpt lat="42.96365873925403" lon="12.156954586658589"><ele>585.0</ele><time>2026-04-12T09:03:26Z</time></trkpt><trkpt lat="42.96370414378958" lon="12.157079666172336"><ele>585.0</ele><time>2026-04-12T09:03:27Z</time></trkpt><trkpt lat="42.96375574691866" lon="12.157178460255507"><ele>585.0</ele><time>2026-04-12T09:03:28Z</time></trkpt><trkpt lat="42.96381614080055" lon="12.157240797749864"><ele>585.0</ele><time>2026-04-12T09:03:29Z</time></trkpt><trkpt lat="42.96388640842912" lon="12.157314746467025"><ele>585.0</ele><time>2026-04-12T09:03:30Z</time></trkpt><trkpt lat="42.96399522332112" lon="12.157304650439299"><ele>585.0</ele><time>2026-04-12T09:03:31Z</time></trkpt><trkpt lat="42.9640809647263" lon="12.157204198043422"><ele>585.0</ele><time>2026-04-12T09:03:32Z</time></trkpt><trkpt lat="42.96414034117034" lon="12.157071910738606"><ele>586.6</ele><time>2026-04-12T09:03:33Z</time></trkpt><trkpt lat="42.96421246802004" lon="12.156955868430678"><ele>588.2</ele><time>2026-04-12T09:03:34Z</time></trkpt><trkpt lat="42.964288867231446" lon="12.156854193311075"><ele>589.8</ele><time>2026-04-12T09:03:35Z</time></trkpt><trkpt lat="42.96437742205005" lon="12.156788486557767"><ele>591.4</ele><time>2026-04-12T09:03:36Z</time></trkpt><trkpt lat="42.96449518858144" lon="12.156728216330768"><ele>593.0</ele><time>2026-04-12T09:03:37Z</time></trkpt><trkpt lat="42.96462375719375" lon="12.156682564443594"><ele>593.0</ele><time>2026-04-12T09:03:38Z</time></trkpt><trkpt lat="42.96477079622428" lon="12.156616081830503"><ele>593.0</ele><time>2026-04-12T09:03:39Z</time></trkpt><trkpt lat="42.96490634721576" lon="12.15657100639859"><ele>593.0</ele><time>2026-04-12T09:03:40Z</time></trkpt><trkpt lat="42.965036947204446" lon="12.156535293075661"><ele>593.0</ele><time>2026-04-12T09:03:41Z</time></trkpt><trkpt lat="42.965166933144886" lon="12.156508773093048"><ele>592.25</ele><time>2026-04-12T09:03:42Z</time></trkpt><trkpt lat="42.96529149684521" lon="12.156499064526942"><ele>591.5</ele><time>2026-04-12T09:03:43Z</time></trkpt><trkpt lat="42.96542124334161" lon="12.156483509614327"><ele>590.75</ele><time>2026-04-12T09:03:44Z</time></trkpt><trkpt lat="42.965540642556824" lon="12.156478508419292"><ele>590.0</ele><time>2026-04-12T09:03:45Z</time></trkpt><trkpt lat="42.9656465673593" lon="12.156467424617112"><ele>590.0</ele><time>2026-04-12T09:03:46Z</time></trkpt><trkpt lat="42.965752230910105" lon="12.156444382484061"><ele>590.0</ele><time>2026-04-12T09:03:47Z</time></trkpt><trkpt lat="42.965848868043665" lon="12.156389167558318"><ele>590.0</ele><time>2026-04-12T09:03:48Z</time></trkpt><trkpt lat="42.965944740154086" lon="12.156271384107745"><ele>590.0</ele><time>2026-04-12T09:03:49Z</time></trkpt><trkpt lat="42.966013978486444" lon="12.156130178511914"><ele>590.0</ele><time>2026-04-12T09:03:50Z</time></trkpt><trkpt lat="42.96606503629274" lon="12.15599074515614"><ele>590.0</ele><time>2026-04-12T09:03:51Z</time></trkpt><trkpt lat="42.966123563948116" lon="12.155889994042107"><ele>590.0</ele><time>2026-04-12T09:03:52Z</time></trkpt><trkpt lat="42.96619361417566" lon="12.155803974630981"><ele>590.0</ele><time>2026-04-12T09:03:53Z</time></trkpt><trkpt lat="42.966280819906416" lon="12.155775392308994"><ele>590.0</ele><time>2026-04-12T09:03:54Z</time></trkpt><trkpt lat="42.96637533436865" lon="12.155751646701368"><ele>590.0</ele><time>2026-04-12T09:03:55Z</time></trkpt><trkpt lat="42.966486813247236" lon="12.155761001166978"><ele>590.0</ele><time>2026-04-12T09:03:56Z</time></trkpt><trkpt lat="42.966592153121184" lon="12.155804492139392"><ele>590.0</ele><time>2026-04-12T09:03:57Z</time></trkpt><trkpt lat="42.966707870782884" lon="12.155859631915703"><ele>590.0</ele><time>2026-04-12T09:03:58Z</time></trkpt><trkpt lat="42.96682918268479" lon="12.155911280345713"><ele>588.75</ele><time>2026-04-12T09:03:59Z</time></trkpt><trkpt lat="42.966953455564195" lon="12.155965269501083"><ele>587.5</ele><time>2026-04-12T09:04:00Z</time></trkpt><trkpt lat="42.96708213292002" lon="12.155999535668332"><ele>586.25</ele><time>2026-04-12T09:04:01Z</time></trkpt><trkpt lat="42.96720602863315" lon="12.15601218187832"><ele>585.0</ele><time>2026-04-12T09:04:02Z</time></trkpt><trkpt lat="42.96732133895972" lon="12.156021550448465"><ele>585.0</ele><time>2026-04-12T09:04:03Z</time></trkpt><trkpt lat="42.96743918800553" lon="12.15603046904162"><ele>585.0</ele><time>2026-04-12T09:04:04Z</time></trkpt><trkpt lat="42.96756514461157" lon="12.156048082033243"><ele>585.0</ele><time>2026-04-12T09:04:05Z</time></trkpt><trkpt lat="42.9676885600818" lon="12.156066993882757"><ele>585.0</ele><time>2026-04-12T09:04:06Z</time></trkpt><trkpt lat="42.967809510372305" lon="12.15608664532827"><ele>586.0</ele><time>2026-04-12T09:04:07Z</time></trkpt><trkpt lat="42.96793196487847" lon="12.15610506296362"><ele>587.0</ele><time>2026-04-12T09:04:08Z</time></trkpt><trkpt lat="42.968056987260795" lon="12.156121073967832"><ele>588.0</ele><time>2026-04-12T09:04:09Z</time></trkpt><trkpt lat="42.96818286935006" lon="12.15614064567463"><ele>589.0</ele><time>2026-04-12T09:04:10Z</time></trkpt><trkpt lat="42.9683044103725" lon="12.156163026726851"><ele>589.75</ele><time>2026-04-12T09:04:11Z</time></trkpt><trkpt lat="42.968425132979675" lon="12.156186368975778"><ele>590.5</ele><time>2026-04-12T09:04:12Z</time></trkpt><trkpt lat="42.96854669224575" lon="12.156205713966395"><ele>591.25</ele><time>2026-04-12T09:04:13Z</time></trkpt><trkpt lat="42.96866509323666" lon="12.15622814178413"><ele>592.0</ele><time>2026-04-12T09:04:14Z</time></trkpt><trkpt lat="42.96878117753855" lon="12.15625040416415"><ele>592.0</ele><time>2026-04-12T09:04:15Z</time></trkpt><trkpt lat="42.96888787954367" lon="12.156268611511166"><ele>592.0</ele><time>2026-04-12T09:04:16Z</time></trkpt><trkpt lat="42.96898550680899" lon="12.156291353142745"><ele>592.0</ele><time>2026-04-12T09:04:17Z</time></trkpt><trkpt lat="42.96907136155763" lon="12.156303707313391"><ele>592.0</ele><time>2026-04-12T09:04:18Z</time></trkpt><trkpt lat="42.96914789450346" lon="12.156328099338184"><ele>592.0</ele><time>2026-04-12T09:04:19Z</time></trkpt><trkpt lat="42.9692510439662" lon="12.156301164513428"><ele>593.0</ele><time>2026-04-12T09:04:20Z</time></trkpt><trkpt lat="42.96933586940174" lon="12.156235726485159"><ele>594.0</ele><time>2026-04-12T09:04:21Z</time></trkpt><trkpt lat="42.96942698251744" lon="12.156165438396187"><ele>595.0</ele><time>2026-04-12T09:04:22Z</time></trkpt><trkpt lat="42.969517665889335" lon="12.156075049702405"><ele>596.0</ele><time>2026-04-12T09:04:23Z</time></trkpt><trkpt lat="42.96960341421573" lon="12.15597801704441"><ele>597.0</ele><time>2026-04-12T09:04:24Z</time></trkpt><trkpt lat="42.96968498663076" lon="12.155881334615328"><ele>597.0</ele><time>2026-04-12T09:04:25Z</time></trkpt><trkpt lat="42.969764010450845" lon="12.155783594180956"><ele>597.0</ele><time>2026-04-12T09:04:26Z</time></trkpt><trkpt lat="42.9698449676052" lon="12.155681794396127"><ele>597.0</ele><time>2026-04-12T09:04:27Z</time></trkpt><trkpt lat="42.96992358243208" lon="12.155575289470631"><ele>597.0</ele><time>2026-04-12T09:04:28Z</time></trkpt><trkpt lat="42.970000323919635" lon="12.155473701658021"><ele>597.0</ele><time>2026-04-12T09:04:29Z</time></trkpt><trkpt lat="42.97007786431489" lon="12.155374971200583"><ele>599.4</ele><time>2026-04-12T09:04:30Z</time></trkpt><trkpt lat="42.970156673372905" lon="12.155276849895166"><ele>601.8000000000001</ele><time>2026-04-12T09:04:31Z</time></trkpt><trkpt lat="42.97023433119862" lon="12.155180162026138"><ele>604.2</ele><time>2026-04-12T09:04:32Z</time></trkpt><trkpt lat="42.97031190684755" lon="12.15508357643518"><ele>606.6</ele><time>2026-04-12T09:04:33Z</time></trkpt><trkpt lat="42.97038109997947" lon="12.154995329664162"><ele>609.0</ele><time>2026-04-12T09:04:34Z</time></trkpt><trkpt lat="42.9704400442309" lon="12.154893844415048"><ele>607.4</ele><time>2026-04-12T09:04:35Z</time></trkpt><trkpt lat="42.97051017973114" lon="12.154801273073243"><ele>605.8</ele><time>2026-04-12T09:04:36Z</time></trkpt><trkpt lat="42.97056132446468" lon="12.154704660369706"><ele>604.2</ele><time>2026-04-12T09:04:37Z</time></trkpt><trkpt lat="42.970626579719514" lon="12.154615521037357"><ele>602.6</ele><time>2026-04-12T09:04:38Z</time></trkpt><trkpt lat="42.97067859225825" lon="12.154519400129754"><ele>601.0</ele><time>2026-04-12T09:04:39Z</time></trkpt><trkpt lat="42.97074733284942" lon="12.15442776708129"><ele>601.0</ele><time>2026-04-12T09:04:40Z</time></trkpt><trkpt lat="42.970826568880696" lon="12.154316110400558"><ele>601.0</ele><time>2026-04-12T09:04:41Z</time></trkpt><trkpt lat="42.97092106983108" lon="12.15421838210482"><ele>601.0</ele><time>2026-04-12T09:04:42Z</time></trkpt><trkpt lat="42.971007154976256" lon="12.154115347451945"><ele>601.0</ele><time>2026-04-12T09:04:43Z</time></trkpt><trkpt lat="42.971094471328705" lon="12.153990960214916"><ele>599.75</ele><time>2026-04-12T09:04:44Z</time></trkpt><trkpt lat="42.971174710351704" lon="12.153845002535043"><ele>598.5</ele><time>2026-04-12T09:04:45Z</time></trkpt><trkpt lat="42.97125820280021" lon="12.15373297446398"><ele>597.25</ele><time>2026-04-12T09:04:46Z</time></trkpt><trkpt lat="42.97132618219814" lon="12.15361605270665"><ele>596.0</ele><time>2026-04-12T09:04:47Z</time></trkpt><trkpt lat="42.97137866725593" lon="12.153490166779946"><ele>596.0</ele><time>2026-04-12T09:04:48Z</time></trkpt><trkpt lat="42.97144872154208" lon="12.153370063652456"><ele>596.0</ele><time>2026-04-12T09:04:49Z</time></trkpt><trkpt lat="42.971521940139425" lon="12.153243724926028"><ele>596.0</ele><time>2026-04-12T09:04:50Z</time></trkpt><trkpt lat="42.97158203511604" lon="12.153112333159045"><ele>596.0</ele><time>2026-04-12T09:04:51Z</time></trkpt><trkpt lat="42.97163702976357" lon="12.152979262762361"><ele>593.25</ele><time>2026-04-12T09:04:52Z</time></trkpt><trkpt lat="42.971701892418395" lon="12.152849764432752"><ele>590.5</ele><time>2026-04-12T09:04:53Z</time></trkpt><trkpt lat="42.97174122208475" lon="12.152697881971312"><ele>587.75</ele><time>2026-04-12T09:04:54Z</time></trkpt><trkpt lat="42.97176798643711" lon="12.152534127327964"><ele>585.0</ele><time>2026-04-12T09:04:55Z</time></trkpt><trkpt lat="42.971774041409674" lon="12.152374777776307"><ele>587.0</ele><time>2026-04-12T09:04:56Z</time></trkpt><trkpt lat="42.97180101830873" lon="12.152204557498205"><ele>589.0</ele><time>2026-04-12T09:04:57Z</time></trkpt><trkpt lat="42.97183422637384" lon="12.152041789030044"><ele>591.0</ele><time>2026-04-12T09:04:58Z</time></trkpt><trkpt lat="42.971860590649264" lon="12.151894835596318"><ele>593.0</ele><time>2026-04-12T09:04:59Z</time></trkpt><trkpt lat="42.97190010351639" lon="12.15177458380286"><ele>593.0</ele><time>2026-04-12T09:05:00Z</time></trkpt><trkpt lat="42.97192475914245" lon="12.151636716149326"><ele>593.0</ele><time>2026-04-12T09:05:01Z</time></trkpt><trkpt lat="42.971936235171384" lon="12.151501812323872"><ele>593.0</ele><time>2026-04-12T09:05:02Z</time></trkpt><trkpt lat="42.97192859817044" lon="12.15135505440586"><ele>593.0</ele><time>2026-04-12T09:05:03Z</time></trkpt><trkpt lat="42.971937891960664" lon="12.151202681161443"><ele>593.0</ele><time>2026-04-12T09:05:04Z</time></trkpt><trkpt lat="42.97194334387411" lon="12.15105989849403"><ele>594.8</ele><time>2026-04-12T09:05:05Z</time></trkpt><trkpt lat="42.97194985933655" lon="12.150927983609117"><ele>596.5999999999999</ele><time>2026-04-12T09:05:06Z</time></trkpt><trkpt lat="42.971960638410835" lon="12.150799304432368"><ele>598.4000000000001</ele><time>2026-04-12T09:05:07Z</time></trkpt><trkpt lat="42.97197918527946" lon="12.150665263609739"><ele>600.2</ele><time>2026-04-12T09:05:08Z</time></trkpt><trkpt lat="42.97199153737389" lon="12.150522674722938"><ele>602.0</ele><time>2026-04-12T09:05:09Z</time></trkpt><trkpt lat="42.97197654299919" lon="12.150384961686495"><ele>602.2</ele><time>2026-04-12T09:05:10Z</time></trkpt><trkpt lat="42.97192719694931" lon="12.150261340563805"><ele>602.4000000000001</ele><time>2026-04-12T09:05:11Z</time></trkpt><trkpt lat="42.971849539215604" lon="12.150158941531032"><ele>602.5999999999999</ele><time>2026-04-12T09:05:12Z</time></trkpt><trkpt lat="42.97177347930182" lon="12.150050028014883"><ele>602.8</ele><time>2026-04-12T09:05:13Z</time></trkpt><trkpt lat="42.97169082090309" lon="12.149956023760515"><ele>603.0</ele><time>2026-04-12T09:05:14Z</time></trkpt><trkpt lat="42.97159691602441" lon="12.149876720850322"><ele>601.1999999999999</ele><time>2026-04-12T09:05:15Z</time></trkpt><trkpt lat="42.971515096602275" lon="12.149776445210195"><ele>599.4</ele><time>2026-04-12T09:05:16Z</time></trkpt><trkpt lat="42.97143792926746" lon="12.149676671581657"><ele>597.5999999999999</ele><time>2026-04-12T09:05:17Z</time></trkpt><trkpt lat="42.97136039420461" lon="12.149575865649373"><ele>595.8</ele><time>2026-04-12T09:05:18Z</time></trkpt><trkpt lat="42.97128034238232" lon="12.149468708281326"><ele>594.0</ele><time>2026-04-12T09:05:19Z</time></trkpt><trkpt lat="42.971201335762856" lon="12.14935941539318"><ele>594.0</ele><time>2026-04-12T09:05:20Z</time></trkpt><trkpt lat="42.97112458450798" lon="12.14925087682331"><ele>594.0</ele><time>2026-04-12T09:05:21Z</time></trkpt><trkpt lat="42.97105508314726" lon="12.14914608721899"><ele>594.0</ele><time>2026-04-12T09:05:22Z</time></trkpt><trkpt lat="42.970990015184675" lon="12.149037404109608"><ele>594.0</ele><time>2026-04-12T09:05:23Z</time></trkpt><trkpt lat="42.97092782661697" lon="12.148923347829589"><ele>594.0</ele><time>2026-04-12T09:05:24Z</time></trkpt><trkpt lat="42.97086858227338" lon="12.148817221559746"><ele>590.2</ele><time>2026-04-12T09:05:25Z</time></trkpt><trkpt lat="42.970806440648026" lon="12.14871485502806"><ele>586.4</ele><time>2026-04-12T09:05:26Z</time></trkpt><trkpt lat="42.97073526851169" lon="12.14860863201999"><ele>582.6</ele><time>2026-04-12T09:05:27Z</time></trkpt><trkpt lat="42.97066120941239" lon="12.148493167751628"><ele>578.8</ele><time>2026-04-12T09:05:28Z</time></trkpt><trkpt lat="42.970588096871644" lon="12.148362583808304"><ele>575.0</ele><time>2026-04-12T09:05:29Z</time></trkpt><trkpt lat="42.970520592781604" lon="12.148225503285719"><ele>571.0</ele><time>2026-04-12T09:05:30Z</time></trkpt><trkpt lat="42.97046439899202" lon="12.148076988237262"><ele>567.0</ele><time>2026-04-12T09:05:31Z</time></trkpt><trkpt lat="42.97041900008108" lon="12.147934418539421"><ele>563.0</ele><time>2026-04-12T09:05:32Z</time></trkpt><trkpt lat="42.97036409479278" lon="12.147807594709864"><ele>559.0</ele><time>2026-04-12T09:05:33Z</time></trkpt><trkpt lat="42.97029662646312" lon="12.147682974751413"><ele>559.0</ele><time>2026-04-12T09:05:34Z</time></trkpt><trkpt lat="42.97022816911896" lon="12.147573825276949"><ele>559.0</ele><time>2026-04-12T09:05:35Z</time></trkpt><trkpt lat="42.97015159278478" lon="12.147473716901361"><ele>559.0</ele><time>2026-04-12T09:05:36Z</time></trkpt><trkpt lat="42.97007795908407" lon="12.147388137081853"><ele>559.0</ele><time>2026-04-12T09:05:37Z</time></trkpt><trkpt lat="42.96999733987389" lon="12.147299634060813"><ele>559.0</ele><time>2026-04-12T09:05:38Z</time></trkpt><trkpt lat="42.96991925231386" lon="12.147223776562331"><ele>557.2</ele><time>2026-04-12T09:05:39Z</time></trkpt><trkpt lat="42.96984142823275" lon="12.14714124591653"><ele>555.4</ele><time>2026-04-12T09:05:40Z</time></trkpt><trkpt lat="42.969765393030876" lon="12.147045010911631"><ele>553.6</ele><time>2026-04-12T09:05:41Z</time></trkpt><trkpt lat="42.96968898972317" lon="12.146955374091911"><ele>551.8</ele><time>2026-04-12T09:05:42Z</time></trkpt><trkpt lat="42.9696248320984" lon="12.146869326233002"><ele>550.0</ele><time>2026-04-12T09:05:43Z</time></trkpt><trkpt lat="42.969569387657586" lon="12.14676482067424"><ele>550.0</ele><time>2026-04-12T09:05:44Z</time></trkpt><trkpt lat="42.96953893776872" lon="12.146638526900986"><ele>550.0</ele><time>2026-04-12T09:05:45Z</time></trkpt><trkpt lat="42.96951361820305" lon="12.146505115843773"><ele>550.0</ele><time>2026-04-12T09:05:46Z</time></trkpt><trkpt lat="42.96949859920859" lon="12.146356698401979"><ele>550.0</ele><time>2026-04-12T09:05:47Z</time></trkpt><trkpt lat="42.96948519091106" lon="12.146206137063217"><ele>550.0</ele><time>2026-04-12T09:05:48Z</time></trkpt><trkpt lat="42.96945986258511" lon="12.146057674660513"><ele>546.4</ele><time>2026-04-12T09:05:49Z</time></trkpt><trkpt lat="42.969419824553604" lon="12.145916418798775"><ele>542.8</ele><time>2026-04-12T09:05:50Z</time></trkpt><trkpt lat="42.9693748502404" lon="12.14577628106444"><ele>539.2</ele><time>2026-04-12T09:05:51Z</time></trkpt><trkpt lat="42.969318689192875" lon="12.145641605500092"><ele>535.6</ele><time>2026-04-12T09:05:52Z</time></trkpt><trkpt lat="42.96925657330812" lon="12.145521376042753"><ele>532.0</ele><time>2026-04-12T09:05:53Z</time></trkpt><trkpt lat="42.969201509749006" lon="12.14539907423382"><ele>532.0</ele><time>2026-04-12T09:05:54Z</time></trkpt><trkpt lat="42.969142604825024" lon="12.145278421818869"><ele>532.0</ele><time>2026-04-12T09:05:55Z</time></trkpt><trkpt lat="42.96908416459259" lon="12.145158355799259"><ele>532.0</ele><time>2026-04-12T09:05:56Z</time></trkpt><trkpt lat="42.96902560570989" lon="12.145040938655457"><ele>532.0</ele><time>2026-04-12T09:05:57Z</time></trkpt><trkpt lat="42.96896775870577" lon="12.144930792473637"><ele>532.0</ele><time>2026-04-12T09:05:58Z</time></trkpt><trkpt lat="42.96893093313307" lon="12.14482135240632"><ele>530.4</ele><time>2026-04-12T09:05:59Z</time></trkpt><trkpt lat="42.968941214614254" lon="12.144696140758953"><ele>528.8000000000001</ele><time>2026-04-12T09:06:00Z</time></trkpt><trkpt lat="42.9689782781558" lon="12.144565724782563"><ele>527.2</ele><time>2026-04-12T09:06:01Z</time></trkpt><trkpt lat="42.96904299192114" lon="12.144442982296546"><ele>525.6</ele><time>2026-04-12T09:06:02Z</time></trkpt><trkpt lat="42.96910093415948" lon="12.144299214292904"><ele>524.0</ele><time>2026-04-12T09:06:03Z</time></trkpt><trkpt lat="42.96916515844102" lon="12.144147784811056"><ele>518.25</ele><time>2026-04-12T09:06:04Z</time></trkpt><trkpt lat="42.96921758359068" lon="12.143977632966156"><ele>512.5</ele><time>2026-04-12T09:06:05Z</time></trkpt><trkpt lat="42.969280408164714" lon="12.143826084880105"><ele>506.75</ele><time>2026-04-12T09:06:06Z</time></trkpt><trkpt lat="42.969338097591915" lon="12.143689005183678"><ele>501.0</ele><time>2026-04-12T09:06:07Z</time></trkpt><trkpt lat="42.96939399651558" lon="12.143555665141609"><ele>501.0</ele><time>2026-04-12T09:06:08Z</time></trkpt><trkpt lat="42.96944158569099" lon="12.143435745474907"><ele>501.0</ele><time>2026-04-12T09:06:09Z</time></trkpt><trkpt lat="42.96948364159247" lon="12.143327989959605"><ele>501.0</ele><time>2026-04-12T09:06:10Z</time></trkpt><trkpt lat="42.96953680439339" lon="12.143228866252842"><ele>501.0</ele><time>2026-04-12T09:06:11Z</time></trkpt><trkpt lat="42.96955706319706" lon="12.14309507046758"><ele>501.0</ele><time>2026-04-12T09:06:12Z</time></trkpt><trkpt lat="42.96953906312986" lon="12.14295590927688"><ele>500.1666666666667</ele><time>2026-04-12T09:06:13Z</time></trkpt><trkpt lat="42.96951865693456" lon="12.142833218695246"><ele>499.33333333333337</ele><time>2026-04-12T09:06:14Z</time></trkpt><trkpt lat="42.96950902469623" lon="12.142718120616609"><ele>498.5</ele><time>2026-04-12T09:06:15Z</time></trkpt><trkpt lat="42.96948565040902" lon="12.142612232735123"><ele>497.6666666666667</ele><time>2026-04-12T09:06:16Z</time></trkpt><trkpt lat="42.96945875829701" lon="12.142494362884294"><ele>496.83333333333337</ele><time>2026-04-12T09:06:17Z</time></trkpt><trkpt lat="42.96940913488812" lon="12.14238938797171"><ele>496.0</ele><time>2026-04-12T09:06:18Z</time></trkpt><trkpt lat="42.96938511464616" lon="12.142261840822433"><ele>494.8</ele><time>2026-04-12T09:06:19Z</time></trkpt><trkpt lat="42.96936081294342" lon="12.142133231196317"><ele>493.6</ele><time>2026-04-12T09:06:20Z</time></trkpt><trkpt lat="42.96935919249316" lon="12.141993952998169"><ele>492.4</ele><time>2026-04-12T09:06:21Z</time></trkpt><trkpt lat="42.96932705954045" lon="12.141870101994112"><ele>491.2</ele><time>2026-04-12T09:06:22Z</time></trkpt><trkpt lat="42.96931227789306" lon="12.141740773361885"><ele>490.0</ele><time>2026-04-12T09:06:23Z</time></trkpt><trkpt lat="42.96929503052413" lon="12.141610993195016"><ele>488.4</ele><time>2026-04-12T09:06:24Z</time></trkpt><trkpt lat="42.96926292834677" lon="12.141484125686697"><ele>486.8</ele><time>2026-04-12T09:06:25Z</time></trkpt><trkpt lat="42.96922949689055" lon="12.141361976648161"><ele>485.20000000000005</ele><time>2026-04-12T09:06:26Z</time></trkpt><trkpt lat="42.96918516375773" lon="12.141233933753163"><ele>483.6</ele><time>2026-04-12T09:06:27Z</time></trkpt><trkpt lat="42.96914144194291" lon="12.141112237779588"><ele>482.0</ele><time>2026-04-12T09:06:28Z</time></trkpt><trkpt lat="42.96910094082425" lon="12.14098478482952"><ele>484.6</ele><time>2026-04-12T09:06:29Z</time></trkpt><trkpt lat="42.96906570579279" lon="12.140848234867843"><ele>487.20000000000005</ele><time>2026-04-12T09:06:30Z</time></trkpt><trkpt lat="42.969035334471336" lon="12.140705614553712"><ele>489.8</ele><time>2026-04-12T09:06:31Z</time></trkpt><trkpt lat="42.96901577597768" lon="12.14055644875264"><ele>492.4</ele><time>2026-04-12T09:06:32Z</time></trkpt><trkpt lat="42.969005238708135" lon="12.14040436307415"><ele>495.0</ele><time>2026-04-12T09:06:33Z</time></trkpt><trkpt lat="42.969002164595615" lon="12.140255318780012"><ele>495.0</ele><time>2026-04-12T09:06:34Z</time></trkpt><trkpt lat="42.9689985843666" lon="12.140107793212618"><ele>495.0</ele><time>2026-04-12T09:06:35Z</time></trkpt><trkpt lat="42.968974272440036" lon="12.139945443472325"><ele>495.0</ele><time>2026-04-12T09:06:36Z</time></trkpt><trkpt lat="42.96892217975082" lon="12.13979510426573"><ele>495.0</ele><time>2026-04-12T09:06:37Z</time></trkpt><trkpt lat="42.9688515529656" lon="12.139655294598361"><ele>493.25</ele><time>2026-04-12T09:06:38Z</time></trkpt><trkpt lat="42.96878574261153" lon="12.139515884885563"><ele>491.5</ele><time>2026-04-12T09:06:39Z</time></trkpt><trkpt lat="42.968747910614915" lon="12.139357240523474"><ele>489.75</ele><time>2026-04-12T09:06:40Z</time></trkpt><trkpt lat="42.96871828480489" lon="12.139193525984114"><ele>488.0</ele><time>2026-04-12T09:06:41Z</time></trkpt><trkpt lat="42.96869124215273" lon="12.139018696165412"><ele>484.5</ele><time>2026-04-12T09:06:42Z</time></trkpt><trkpt lat="42.96864873341774" lon="12.138845592301438"><ele>481.0</ele><time>2026-04-12T09:06:43Z</time></trkpt><trkpt lat="42.96861832904529" lon="12.138669817461722"><ele>477.5</ele><time>2026-04-12T09:06:44Z</time></trkpt><trkpt lat="42.96858535113101" lon="12.138490578335945"><ele>474.0</ele><time>2026-04-12T09:06:45Z</time></trkpt><trkpt lat="42.968549075296664" lon="12.138305264221552"><ele>470.75</ele><time>2026-04-12T09:06:46Z</time></trkpt><trkpt lat="42.96850905695606" lon="12.138130566736079"><ele>467.5</ele><time>2026-04-12T09:06:47Z</time></trkpt><trkpt lat="42.96846656719969" lon="12.137963665848961"><ele>464.25</ele><time>2026-04-12T09:06:48Z</time></trkpt><trkpt lat="42.968428575506415" lon="12.137804211118041"><ele>461.0</ele><time>2026-04-12T09:06:49Z</time></trkpt><trkpt lat="42.96839246826007" lon="12.13765042676716"><ele>463.5</ele><time>2026-04-12T09:06:50Z</time></trkpt><trkpt lat="42.96835403905678" lon="12.13749644210475"><ele>466.0</ele><time>2026-04-12T09:06:51Z</time></trkpt><trkpt lat="42.96831342514194" lon="12.1373429459164"><ele>468.5</ele><time>2026-04-12T09:06:52Z</time></trkpt><trkpt lat="42.96827642463246" lon="12.137197377304927"><ele>471.0</ele><time>2026-04-12T09:06:53Z</time></trkpt><trkpt lat="42.96823190786742" lon="12.137049552003997"><ele>471.0</ele><time>2026-04-12T09:06:54Z</time></trkpt><trkpt lat="42.96819979934565" lon="12.136917355187483"><ele>471.0</ele><time>2026-04-12T09:06:55Z</time></trkpt><trkpt lat="42.96816340810851" lon="12.136805224400966"><ele>471.0</ele><time>2026-04-12T09:06:56Z</time></trkpt><trkpt lat="42.96813905439358" lon="12.136680227801069"><ele>471.0</ele><time>2026-04-12T09:06:57Z</time></trkpt><trkpt lat="42.96811593086049" lon="12.13657480107008"><ele>471.0</ele><time>2026-04-12T09:06:58Z</time></trkpt><trkpt lat="42.96809076394814" lon="12.136480413234214"><ele>471.0</ele><time>2026-04-12T09:06:59Z</time></trkpt><trkpt lat="42.96807562868449" lon="12.136383017310656"><ele>470.1428571428572</ele><time>2026-04-12T09:07:00Z</time></trkpt><trkpt lat="42.968072270864994" lon="12.136289034494812"><ele>469.28571428571433</ele><time>2026-04-12T09:07:01Z</time></trkpt><trkpt lat="42.968101180913706" lon="12.136195281242307"><ele>468.42857142857144</ele><time>2026-04-12T09:07:02Z</time></trkpt><trkpt lat="42.96814093613775" lon="12.136118831557019"><ele>467.5714285714286</ele><time>2026-04-12T09:07:03Z</time></trkpt><trkpt lat="42.968179106972656" lon="12.13604443708135"><ele>466.7142857142858</ele><time>2026-04-12T09:07:04Z</time></trkpt><trkpt lat="42.96821813821429" lon="12.135968172478796"><ele>465.85714285714283</ele><time>2026-04-12T09:07:05Z</time></trkpt><trkpt lat="42.968258973853914" lon="12.13589516371787"><ele>465.0</ele><time>2026-04-12T09:07:06Z</time></trkpt><trkpt lat="42.96829761760125" lon="12.135824740891758"><ele>463.6</ele><time>2026-04-12T09:07:07Z</time></trkpt><trkpt lat="42.96836537004895" lon="12.13569061711628"><ele>462.2</ele><time>2026-04-12T09:07:09Z</time></trkpt><trkpt lat="42.968427727294014" lon="12.135555166081724"><ele>460.79999999999995</ele><time>2026-04-12T09:07:11Z</time></trkpt><trkpt lat="42.968497658093774" lon="12.135408860381535"><ele>459.4</ele><time>2026-04-12T09:07:13Z</time></trkpt><trkpt lat="42.968533983618165" lon="12.13532839307288"><ele>458.0</ele><time>2026-04-12T09:07:14Z</time></trkpt><trkpt lat="42.9685723105791" lon="12.135240010176188"><ele>457.99999999999994</ele><time>2026-04-12T09:07:15Z</time></trkpt><trkpt lat="42.96861458974611" lon="12.13514591173967"><ele>458.0</ele><time>2026-04-12T09:07:16Z</time></trkpt><trkpt lat="42.96865808669071" lon="12.13506680653104"><ele>458.0</ele><time>2026-04-12T09:07:17Z</time></trkpt><trkpt lat="42.96871154489812" lon="12.134986682534565"><ele>458.0</ele><time>2026-04-12T09:07:18Z</time></trkpt><trkpt lat="42.968779528946264" lon="12.134899362023043"><ele>457.99999999999994</ele><time>2026-04-12T09:07:19Z</time></trkpt><trkpt lat="42.96884471373078" lon="12.134821217771853"><ele>458.0</ele><time>2026-04-12T09:07:20Z</time></trkpt><trkpt lat="42.9689142772774" lon="12.134746937429535"><ele>458.4</ele><time>2026-04-12T09:07:21Z</time></trkpt><trkpt lat="42.968994295783446" lon="12.134674651959909"><ele>458.79999999999995</ele><time>2026-04-12T09:07:22Z</time></trkpt><trkpt lat="42.96908801086057" lon="12.134593864621108"><ele>459.2</ele><time>2026-04-12T09:07:23Z</time></trkpt><trkpt lat="42.96918602358006" lon="12.134515620701793"><ele>459.6</ele><time>2026-04-12T09:07:24Z</time></trkpt><trkpt lat="42.96928735885555" lon="12.134444814580364"><ele>460.0</ele><time>2026-04-12T09:07:25Z</time></trkpt><trkpt lat="42.969390082554824" lon="12.13439250346749"><ele>456.4</ele><time>2026-04-12T09:07:26Z</time></trkpt><trkpt lat="42.96948868814569" lon="12.134351078125382"><ele>452.8</ele><time>2026-04-12T09:07:27Z</time></trkpt><trkpt lat="42.96958008813144" lon="12.134319630879991"><ele>449.20000000000005</ele><time>2026-04-12T09:07:28Z</time></trkpt><trkpt lat="42.969674886813785" lon="12.134276810570253"><ele>445.6</ele><time>2026-04-12T09:07:29Z</time></trkpt><trkpt lat="42.969765387860114" lon="12.134221896687208"><ele>442.0</ele><time>2026-04-12T09:07:30Z</time></trkpt><trkpt lat="42.969848967719074" lon="12.134153296791"><ele>442.0</ele><time>2026-04-12T09:07:31Z</time></trkpt><trkpt lat="42.96992024971876" lon="12.134072147610233"><ele>442.00000000000006</ele><time>2026-04-12T09:07:32Z</time></trkpt><trkpt lat="42.96997077859875" lon="12.133961956662581"><ele>442.00000000000006</ele><time>2026-04-12T09:07:33Z</time></trkpt><trkpt lat="42.96997961578523" lon="12.133813558979902"><ele>442.0</ele><time>2026-04-12T09:07:34Z</time></trkpt><trkpt lat="42.969975617410775" lon="12.133667774607735"><ele>442.0</ele><time>2026-04-12T09:07:35Z</time></trkpt><trkpt lat="42.969959752023335" lon="12.1335072613933"><ele>441.25</ele><time>2026-04-12T09:07:36Z</time></trkpt><trkpt lat="42.969943450635945" lon="12.133351710176237"><ele>440.5</ele><time>2026-04-12T09:07:37Z</time></trkpt><trkpt lat="42.96992479946796" lon="12.133195959674861"><ele>439.75</ele><time>2026-04-12T09:07:38Z</time></trkpt><trkpt lat="42.969891215855924" lon="12.133037625674568"><ele>439.0</ele><time>2026-04-12T09:07:39Z</time></trkpt><trkpt lat="42.969852384734985" lon="12.132889520026318"><ele>436.5</ele><time>2026-04-12T09:07:40Z</time></trkpt><trkpt lat="42.96981827909935" lon="12.132734294026712"><ele>434.0</ele><time>2026-04-12T09:07:41Z</time></trkpt><trkpt lat="42.969781624454974" lon="12.132578777830652"><ele>431.5</ele><time>2026-04-12T09:07:42Z</time></trkpt><trkpt lat="42.96976580897023" lon="12.132405372436144"><ele>429.0</ele><time>2026-04-12T09:07:43Z</time></trkpt><trkpt lat="42.9697650819987" lon="12.132233085538171"><ele>427.0</ele><time>2026-04-12T09:07:44Z</time></trkpt><trkpt lat="42.96975624831597" lon="12.132059938545838"><ele>425.0</ele><time>2026-04-12T09:07:45Z</time></trkpt><trkpt lat="42.969744471377474" lon="12.131897390115203"><ele>423.0</ele><time>2026-04-12T09:07:46Z</time></trkpt><trkpt lat="42.969718537786235" lon="12.13172554885368"><ele>421.0</ele><time>2026-04-12T09:07:47Z</time></trkpt><trkpt lat="42.96970958960512" lon="12.13154938614401"><ele>419.25</ele><time>2026-04-12T09:07:48Z</time></trkpt><trkpt lat="42.969708502763936" lon="12.1313579130586"><ele>417.5</ele><time>2026-04-12T09:07:49Z</time></trkpt><trkpt lat="42.96971006083442" lon="12.131171076898214"><ele>415.75</ele><time>2026-04-12T09:07:50Z</time></trkpt><trkpt lat="42.96971251218615" lon="12.130988087829115"><ele>414.0</ele><time>2026-04-12T09:07:51Z</time></trkpt><trkpt lat="42.969713942032556" lon="12.130811047262203"><ele>414.25</ele><time>2026-04-12T09:07:52Z</time></trkpt><trkpt lat="42.96972527484024" lon="12.130636148011792"><ele>414.5</ele><time>2026-04-12T09:07:53Z</time></trkpt><trkpt lat="42.96974284746774" lon="12.130471911353283"><ele>414.75</ele><time>2026-04-12T09:07:54Z</time></trkpt><trkpt lat="42.969778090816206" lon="12.130302235860215"><ele>415.0</ele><time>2026-04-12T09:07:55Z</time></trkpt><trkpt lat="42.969818585032705" lon="12.130136083961615"><ele>415.0</ele><time>2026-04-12T09:07:56Z</time></trkpt><trkpt lat="42.96984968427492" lon="12.129976935118767"><ele>415.0</ele><time>2026-04-12T09:07:57Z</time></trkpt><trkpt lat="42.96986926276098" lon="12.129823168361396"><ele>415.0</ele><time>2026-04-12T09:07:58Z</time></trkpt><trkpt lat="42.96989395087545" lon="12.129663473495556"><ele>415.0</ele><time>2026-04-12T09:07:59Z</time></trkpt><trkpt lat="42.969917623857825" lon="12.129499215436885"><ele>414.75</ele><time>2026-04-12T09:08:00Z</time></trkpt><trkpt lat="42.9699372625769" lon="12.129340019704514"><ele>414.5</ele><time>2026-04-12T09:08:01Z</time></trkpt><trkpt lat="42.9699460700241" lon="12.129179307630045"><ele>414.25</ele><time>2026-04-12T09:08:02Z</time></trkpt><trkpt lat="42.96994108658997" lon="12.129011083318456"><ele>414.0</ele><time>2026-04-12T09:08:03Z</time></trkpt><trkpt lat="42.96992854382773" lon="12.12881807566891"><ele>413.25</ele><time>2026-04-12T09:08:04Z</time></trkpt><trkpt lat="42.96990079495625" lon="12.128618260962023"><ele>412.5</ele><time>2026-04-12T09:08:05Z</time></trkpt><trkpt lat="42.969883795933306" lon="12.128428458912135"><ele>411.75</ele><time>2026-04-12T09:08:06Z</time></trkpt><trkpt lat="42.96989034796851" lon="12.12823786444592"><ele>411.0</ele><time>2026-04-12T09:08:07Z</time></trkpt><trkpt lat="42.96991090820379" lon="12.128060961868522"><ele>409.5</ele><time>2026-04-12T09:08:08Z</time></trkpt><trkpt lat="42.969941236567884" lon="12.127888213463676"><ele>408.0</ele><time>2026-04-12T09:08:09Z</time></trkpt><trkpt lat="42.96997002238276" lon="12.12772885817543"><ele>406.5</ele><time>2026-04-12T09:08:10Z</time></trkpt><trkpt lat="42.97001162805999" lon="12.12756506242382"><ele>405.0</ele><time>2026-04-12T09:08:11Z</time></trkpt><trkpt lat="42.97004256671691" lon="12.12741846427991"><ele>401.5</ele><time>2026-04-12T09:08:12Z</time></trkpt><trkpt lat="42.97005803319218" lon="12.127259213271913"><ele>398.0</ele><time>2026-04-12T09:08:13Z</time></trkpt><trkpt lat="42.97007135340483" lon="12.12711240709642"><ele>394.5</ele><time>2026-04-12T09:08:14Z</time></trkpt><trkpt lat="42.970061379791254" lon="12.126940742824182"><ele>391.0</ele><time>2026-04-12T09:08:15Z</time></trkpt><trkpt lat="42.970051820496934" lon="12.126781176030663"><ele>391.0</ele><time>2026-04-12T09:08:16Z</time></trkpt><trkpt lat="42.97003661075096" lon="12.126629595633473"><ele>391.0</ele><time>2026-04-12T09:08:17Z</time></trkpt><trkpt lat="42.970019212504404" lon="12.126473038748456"><ele>391.0</ele><time>2026-04-12T09:08:18Z</time></trkpt><trkpt lat="42.97000600738535" lon="12.126337694614715"><ele>391.0</ele><time>2026-04-12T09:08:19Z</time></trkpt><trkpt lat="42.96998353765468" lon="12.126190581282037"><ele>391.0</ele><time>2026-04-12T09:08:20Z</time></trkpt><trkpt lat="42.969980072003644" lon="12.126051565455345"><ele>391.6</ele><time>2026-04-12T09:08:21Z</time></trkpt><trkpt lat="42.969990872202665" lon="12.125920153027012"><ele>392.20000000000005</ele><time>2026-04-12T09:08:22Z</time></trkpt><trkpt lat="42.970023165076086" lon="12.125795597733743"><ele>392.79999999999995</ele><time>2026-04-12T09:08:23Z</time></trkpt><trkpt lat="42.9700722889807" lon="12.125675779543247"><ele>393.4</ele><time>2026-04-12T09:08:24Z</time></trkpt><trkpt lat="42.97012974608812" lon="12.12556897697932"><ele>394.0</ele><time>2026-04-12T09:08:25Z</time></trkpt><trkpt lat="42.970216935901554" lon="12.12548374135785"><ele>390.6</ele><time>2026-04-12T09:08:26Z</time></trkpt><trkpt lat="42.97030593300691" lon="12.125420314591155"><ele>387.2</ele><time>2026-04-12T09:08:27Z</time></trkpt><trkpt lat="42.970397000076936" lon="12.125351388368516"><ele>383.8</ele><time>2026-04-12T09:08:28Z</time></trkpt><trkpt lat="42.970484422123576" lon="12.125289819600628"><ele>380.40000000000003</ele><time>2026-04-12T09:08:29Z</time></trkpt><trkpt lat="42.970560354185196" lon="12.125233035070453"><ele>377.0</ele><time>2026-04-12T09:08:30Z</time></trkpt><trkpt lat="42.970633990419394" lon="12.12518168748906"><ele>377.0</ele><time>2026-04-12T09:08:31Z</time></trkpt><trkpt lat="42.97070341078815" lon="12.125150183280487"><ele>377.0</ele><time>2026-04-12T09:08:32Z</time></trkpt><trkpt lat="42.970768387825395" lon="12.125149578873094"><ele>377.0</ele><time>2026-04-12T09:08:33Z</time></trkpt><trkpt lat="42.970846224304765" lon="12.125180126414733"><ele>377.0</ele><time>2026-04-12T09:08:34Z</time></trkpt><trkpt lat="42.970930669684506" lon="12.125258476435548"><ele>377.0</ele><time>2026-04-12T09:08:35Z</time></trkpt><trkpt lat="42.971016599232684" lon="12.125381338412051"><ele>377.0</ele><time>2026-04-12T09:08:36Z</time></trkpt><trkpt lat="42.971083038490356" lon="12.125506493549706"><ele>375.33333333333337</ele><time>2026-04-12T09:08:37Z</time></trkpt><trkpt lat="42.97113950430185" lon="12.125631537054263"><ele>373.6666666666667</ele><time>2026-04-12T09:08:38Z</time></trkpt><trkpt lat="42.971194141933516" lon="12.125739659767184"><ele>372.0</ele><time>2026-04-12T09:08:39Z</time></trkpt><trkpt lat="42.97123215437976" lon="12.125826748861686"><ele>370.3333333333333</ele><time>2026-04-12T09:08:40Z</time></trkpt><trkpt lat="42.97127569208034" lon="12.125914766105153"><ele>368.66666666666663</ele><time>2026-04-12T09:08:41Z</time></trkpt><trkpt lat="42.971313478900726" lon="12.125991662704223"><ele>367.0</ele><time>2026-04-12T09:08:42Z</time></trkpt><trkpt lat="42.97138468307899" lon="12.126120037331678"><ele>367.0</ele><time>2026-04-12T09:08:44Z</time></trkpt><trkpt lat="42.97143892899247" lon="12.1261849684919"><ele>367.0</ele><time>2026-04-12T09:08:46Z</time></trkpt><trkpt lat="42.97149448121579" lon="12.12622829077194"><ele>367.0</ele><time>2026-04-12T09:08:50Z</time></trkpt><trkpt lat="42.971579334590395" lon="12.126234045678931"><ele>367.0</ele><time>2026-04-12T09:09:55Z</time></trkpt><trkpt lat="42.97161850719485" lon="12.126301976843214"><ele>367.0</ele><time>2026-04-12T09:11:47Z</time></trkpt><trkpt lat="42.97161458406884" lon="12.126215192866766"><ele>367.0</ele><time>2026-04-12T09:23:36Z</time></trkpt><trkpt lat="42.97165319115408" lon="12.126124947198152"><ele>367.0</ele><time>2026-04-12T09:23:39Z</time></trkpt><trkpt lat="42.971656940485325" lon="12.126015456847762"><ele>367.0</ele><time>2026-04-12T09:23:41Z</time></trkpt><trkpt lat="42.971654177518424" lon="12.125867000389377"><ele>367.0</ele><time>2026-04-12T09:23:43Z</time></trkpt><trkpt lat="42.971624320075165" lon="12.12568285824317"><ele>367.0</ele><time>2026-04-12T09:23:45Z</time></trkpt><trkpt lat="42.97160898948018" lon="12.125568797715323"><ele>367.0</ele><time>2026-04-12T09:23:46Z</time></trkpt><trkpt lat="42.971593676672015" lon="12.125470519383908"><ele>367.0</ele><time>2026-04-12T09:23:47Z</time></trkpt><trkpt lat="42.97157390726704" lon="12.125387651972275"><ele>366.0</ele><time>2026-04-12T09:23:48Z</time></trkpt><trkpt lat="42.97156788151034" lon="12.12528363468505"><ele>365.0</ele><time>2026-04-12T09:23:49Z</time></trkpt><trkpt lat="42.97155430978304" lon="12.125128185977488"><ele>364.0</ele><time>2026-04-12T09:23:51Z</time></trkpt><trkpt lat="42.971556640518976" lon="12.125035568036497"><ele>363.0</ele><time>2026-04-12T09:23:52Z</time></trkpt><trkpt lat="42.97156344289567" lon="12.124940248492491"><ele>362.0</ele><time>2026-04-12T09:23:53Z</time></trkpt><trkpt lat="42.97157074867709" lon="12.124843257621853"><ele>361.0</ele><time>2026-04-12T09:23:54Z</time></trkpt><trkpt lat="42.97158508494436" lon="12.124733369393354"><ele>360.5</ele><time>2026-04-12T09:23:55Z</time></trkpt><trkpt lat="42.971596791971145" lon="12.124622825987382"><ele>360.0</ele><time>2026-04-12T09:23:56Z</time></trkpt><trkpt lat="42.971604751767885" lon="12.124502517972905"><ele>359.5</ele><time>2026-04-12T09:23:57Z</time></trkpt><trkpt lat="42.97162131404229" lon="12.124384589223345"><ele>359.0</ele><time>2026-04-12T09:23:58Z</time></trkpt><trkpt lat="42.97163950505817" lon="12.124259397000529"><ele>358.5</ele><time>2026-04-12T09:23:59Z</time></trkpt><trkpt lat="42.97165532846861" lon="12.124135170293899"><ele>358.0</ele><time>2026-04-12T09:24:00Z</time></trkpt><trkpt lat="42.97167121812268" lon="12.124008003340528"><ele>355.4</ele><time>2026-04-12T09:24:01Z</time></trkpt><trkpt lat="42.97169584742278" lon="12.123887704704597"><ele>352.79999999999995</ele><time>2026-04-12T09:24:02Z</time></trkpt><trkpt lat="42.97173311934672" lon="12.12377997836036"><ele>350.2</ele><time>2026-04-12T09:24:03Z</time></trkpt><trkpt lat="42.97179450486268" lon="12.123684237580747"><ele>347.6</ele><time>2026-04-12T09:24:04Z</time></trkpt><trkpt lat="42.971881833751" lon="12.123618436119354"><ele>345.0</ele><time>2026-04-12T09:24:05Z</time></trkpt><trkpt lat="42.971975288535944" lon="12.123557622190285"><ele>345.0</ele><time>2026-04-12T09:24:06Z</time></trkpt><trkpt lat="42.97206179205076" lon="12.123489801959337"><ele>345.0</ele><time>2026-04-12T09:24:07Z</time></trkpt><trkpt lat="42.972146222393896" lon="12.12342438309171"><ele>345.0</ele><time>2026-04-12T09:24:08Z</time></trkpt><trkpt lat="42.97222933577652" lon="12.123366740682123"><ele>345.0</ele><time>2026-04-12T09:24:09Z</time></trkpt><trkpt lat="42.97230089682345" lon="12.123311220432404"><ele>345.0</ele><time>2026-04-12T09:24:10Z</time></trkpt><trkpt lat="42.97236564319717" lon="12.123256033164147"><ele>345.0</ele><time>2026-04-12T09:24:11Z</time></trkpt><trkpt lat="42.97241517583351" lon="12.123200406667793"><ele>343.4</ele><time>2026-04-12T09:24:12Z</time></trkpt><trkpt lat="42.972492159493335" lon="12.123075183273995"><ele>341.8</ele><time>2026-04-12T09:24:14Z</time></trkpt><trkpt lat="42.972527670333285" lon="12.122988715664594"><ele>340.20000000000005</ele><time>2026-04-12T09:24:16Z</time></trkpt><trkpt lat="42.97270355759495" lon="12.123016162910112"><ele>338.6</ele><time>2026-04-12T09:24:22Z</time></trkpt><trkpt lat="42.97275604617454" lon="12.123065476055254"><ele>337.0</ele><time>2026-04-12T09:24:25Z</time></trkpt><trkpt lat="42.972830025863594" lon="12.123141211866125"><ele>335.0</ele><time>2026-04-12T09:24:28Z</time></trkpt><trkpt lat="42.97288477072613" lon="12.123202459082938"><ele>333.0</ele><time>2026-04-12T09:24:31Z</time></trkpt><trkpt lat="42.972903437746744" lon="12.123319521725675"><ele>331.0</ele><time>2026-04-12T09:24:34Z</time></trkpt><trkpt lat="42.97297365083291" lon="12.123286857039073"><ele>329.0</ele><time>2026-04-12T09:24:37Z</time></trkpt><trkpt lat="42.97297453509584" lon="12.123121819247999"><ele>327.0</ele><time>2026-04-12T09:24:39Z</time></trkpt><trkpt lat="42.97295416848919" lon="12.122963299663995"><ele>325.8</ele><time>2026-04-12T09:24:41Z</time></trkpt><trkpt lat="42.972992266136714" lon="12.12283299060366"><ele>324.6</ele><time>2026-04-12T09:24:43Z</time></trkpt><trkpt lat="42.97305857073681" lon="12.122791744313899"><ele>323.40000000000003</ele><time>2026-04-12T09:24:45Z</time></trkpt><trkpt lat="42.97313370039746" lon="12.12282324932256"><ele>322.20000000000005</ele><time>2026-04-12T09:24:48Z</time></trkpt><trkpt lat="42.97321630083105" lon="12.122903243632"><ele>321.0</ele><time>2026-04-12T09:24:50Z</time></trkpt><trkpt lat="42.97327729648742" lon="12.123055784386178"><ele>321.0</ele><time>2026-04-12T09:24:52Z</time></trkpt><trkpt lat="42.97330295633801" lon="12.123136537835082"><ele>321.0</ele><time>2026-04-12T09:24:53Z</time></trkpt><trkpt lat="42.97340715843642" lon="12.123113112871987"><ele>321.0</ele><time>2026-04-12T09:24:56Z</time></trkpt><trkpt lat="42.97346411534395" lon="12.123009832421934"><ele>321.0</ele><time>2026-04-12T09:24:58Z</time></trkpt><trkpt lat="42.97342372060494" lon="12.12291640445024"><ele>321.0</ele><time>2026-04-12T09:25:00Z</time></trkpt><trkpt lat="42.973444721368715" lon="12.122814761333803"><ele>321.0</ele><time>2026-04-12T09:25:04Z</time></trkpt><trkpt lat="42.97343010812034" lon="12.122723789265722"><ele>323.0</ele><time>2026-04-12T09:25:07Z</time></trkpt><trkpt lat="42.973406533917014" lon="12.122643825967028"><ele>325.0</ele><time>2026-04-12T09:25:10Z</time></trkpt><trkpt lat="42.97344891063281" lon="12.122544803316748"><ele>327.0</ele><time>2026-04-12T09:25:12Z</time></trkpt><trkpt lat="42.97352976016322" lon="12.122502556442983"><ele>329.0</ele><time>2026-04-12T09:25:14Z</time></trkpt><trkpt lat="42.97360797081803" lon="12.122503117522623"><ele>331.0</ele><time>2026-04-12T09:25:15Z</time></trkpt><trkpt lat="42.97373129858936" lon="12.12254191230371"><ele>333.0</ele><time>2026-04-12T09:25:17Z</time></trkpt><trkpt lat="42.973812081028214" lon="12.12254608530823"><ele>333.0</ele><time>2026-04-12T09:25:18Z</time></trkpt><trkpt lat="42.973891349086045" lon="12.122560476292524"><ele>333.0</ele><time>2026-04-12T09:25:19Z</time></trkpt><trkpt lat="42.97396468575812" lon="12.122547008560113"><ele>333.0</ele><time>2026-04-12T09:25:20Z</time></trkpt><trkpt lat="42.974082344772526" lon="12.12260506411791"><ele>333.0</ele><time>2026-04-12T09:25:22Z</time></trkpt><trkpt lat="42.97413417716934" lon="12.122666115617893"><ele>333.0</ele><time>2026-04-12T09:25:23Z</time></trkpt><trkpt lat="42.97418905220089" lon="12.122723421712946"><ele>333.0</ele><time>2026-04-12T09:25:24Z</time></trkpt><trkpt lat="42.974234813928994" lon="12.122788630500807"><ele>335.6666666666667</ele><time>2026-04-12T09:25:26Z</time></trkpt><trkpt lat="42.97432099274983" lon="12.122924594536137"><ele>338.3333333333333</ele><time>2026-04-12T09:25:28Z</time></trkpt><trkpt lat="42.97439080344022" lon="12.12300771827712"><ele>341.0</ele><time>2026-04-12T09:25:29Z</time></trkpt><trkpt lat="42.974461667591" lon="12.123037612593428"><ele>343.66666666666663</ele><time>2026-04-12T09:25:30Z</time></trkpt><trkpt lat="42.97452721411415" lon="12.123013337549231"><ele>346.3333333333333</ele><time>2026-04-12T09:25:31Z</time></trkpt><trkpt lat="42.974605912890624" lon="12.122991752677569"><ele>349.0</ele><time>2026-04-12T09:25:32Z</time></trkpt><trkpt lat="42.97467586228679" lon="12.122970283051615"><ele>349.0</ele><time>2026-04-12T09:25:33Z</time></trkpt><trkpt lat="42.97479336428526" lon="12.123022789282981"><ele>349.0</ele><time>2026-04-12T09:25:35Z</time></trkpt><trkpt lat="42.97485996020008" lon="12.123065712711398"><ele>349.0</ele><time>2026-04-12T09:25:36Z</time></trkpt><trkpt lat="42.97498018286356" lon="12.123087659648611"><ele>349.0</ele><time>2026-04-12T09:25:38Z</time></trkpt><trkpt lat="42.97506454665844" lon="12.123172593532512"><ele>349.0</ele><time>2026-04-12T09:25:40Z</time></trkpt><trkpt lat="42.97517146495168" lon="12.12313296561007"><ele>352.4</ele><time>2026-04-12T09:25:42Z</time></trkpt><trkpt lat="42.97528050574202" lon="12.123120109788422"><ele>355.79999999999995</ele><time>2026-04-12T09:25:44Z</time></trkpt><trkpt lat="42.97537774545738" lon="12.1231746499201"><ele>359.20000000000005</ele><time>2026-04-12T09:25:46Z</time></trkpt><trkpt lat="42.9754776553811" lon="12.123215218780018"><ele>362.6</ele><time>2026-04-12T09:25:48Z</time></trkpt><trkpt lat="42.97547198413668" lon="12.123323482772314"><ele>366.0</ele><time>2026-04-12T09:25:51Z</time></trkpt><trkpt lat="42.97550431632554" lon="12.123443481412512"><ele>366.5</ele><time>2026-04-12T09:25:54Z</time></trkpt><trkpt lat="42.975443075154246" lon="12.123754888059775"><ele>367.0</ele><time>2026-04-12T09:25:55Z</time></trkpt><trkpt lat="42.97540504011786" lon="12.123859590656815"><ele>367.5</ele><time>2026-04-12T09:25:56Z</time></trkpt><trkpt lat="42.97538388718364" lon="12.123953033889235"><ele>368.0</ele><time>2026-04-12T09:25:57Z</time></trkpt><trkpt lat="42.97539157733058" lon="12.12405870353238"><ele>368.59999999999997</ele><time>2026-04-12T09:25:58Z</time></trkpt><trkpt lat="42.975478307201705" lon="12.12420102812719"><ele>369.2</ele><time>2026-04-12T09:25:59Z</time></trkpt><trkpt lat="42.97547423938189" lon="12.124311206864556"><ele>369.8</ele><time>2026-04-12T09:26:00Z</time></trkpt><trkpt lat="42.97547617260621" lon="12.124417020860047"><ele>370.4</ele><time>2026-04-12T09:26:01Z</time></trkpt><trkpt lat="42.975468373030516" lon="12.124547735222505"><ele>371.0</ele><time>2026-04-12T09:26:03Z</time></trkpt><trkpt lat="42.97551331146401" lon="12.124677595703426"><ele>371.0</ele><time>2026-04-12T09:26:05Z</time></trkpt><trkpt lat="42.975588588063054" lon="12.124800579086115"><ele>371.0</ele><time>2026-04-12T09:26:07Z</time></trkpt><trkpt lat="42.975634895476944" lon="12.124895674727581"><ele>371.0</ele><time>2026-04-12T09:26:08Z</time></trkpt><trkpt lat="42.975679991599854" lon="12.124982644738745"><ele>371.0</ele><time>2026-04-12T09:26:09Z</time></trkpt><trkpt lat="42.97572300820278" lon="12.125076697291773"><ele>371.0</ele><time>2026-04-12T09:26:10Z</time></trkpt><trkpt lat="42.97578959448101" lon="12.125194748549406"><ele>374.0</ele><time>2026-04-12T09:26:11Z</time></trkpt><trkpt lat="42.97586265505902" lon="12.125336387794556"><ele>377.0</ele><time>2026-04-12T09:26:13Z</time></trkpt><trkpt lat="42.97589391227115" lon="12.125428019505735"><ele>380.0</ele><time>2026-04-12T09:26:14Z</time></trkpt><trkpt lat="42.97591109962375" lon="12.12556049181135"><ele>383.0</ele><time>2026-04-12T09:26:15Z</time></trkpt><trkpt lat="42.9759257404863" lon="12.1256621948122"><ele>386.0</ele><time>2026-04-12T09:26:16Z</time></trkpt><trkpt lat="42.975936384121646" lon="12.12581316956347"><ele>385.99999999999994</ele><time>2026-04-12T09:26:17Z</time></trkpt><trkpt lat="42.975950948888084" lon="12.125898959397276"><ele>386.0</ele><time>2026-04-12T09:26:18Z</time></trkpt><trkpt lat="42.97594783558746" lon="12.126027106327857"><ele>386.0</ele><time>2026-04-12T09:26:19Z</time></trkpt><trkpt lat="42.97594986425064" lon="12.126159337356391"><ele>386.0</ele><time>2026-04-12T09:26:20Z</time></trkpt><trkpt lat="42.975957956410156" lon="12.12628006889721"><ele>385.99999999999994</ele><time>2026-04-12T09:26:21Z</time></trkpt><trkpt lat="42.97597264493597" lon="12.126393674037724"><ele>386.0</ele><time>2026-04-12T09:26:23Z</time></trkpt><trkpt lat="42.975919500893944" lon="12.126504078846848"><ele>385.6</ele><time>2026-04-12T09:26:24Z</time></trkpt><trkpt lat="42.97586053527432" lon="12.126631509953398"><ele>385.20000000000005</ele><time>2026-04-12T09:26:25Z</time></trkpt><trkpt lat="42.97582586828018" lon="12.126704345187521"><ele>384.79999999999995</ele><time>2026-04-12T09:26:26Z</time></trkpt><trkpt lat="42.97580595314831" lon="12.126857600168025"><ele>384.4</ele><time>2026-04-12T09:26:28Z</time></trkpt><trkpt lat="42.975851960465945" lon="12.126954016393839"><ele>384.0</ele><time>2026-04-12T09:26:29Z</time></trkpt><trkpt lat="42.975898278139375" lon="12.127086774157993"><ele>383.99999999999994</ele><time>2026-04-12T09:26:30Z</time></trkpt><trkpt lat="42.97595427432737" lon="12.127183874597641"><ele>384.0</ele><time>2026-04-12T09:26:31Z</time></trkpt><trkpt lat="42.97602714511958" lon="12.127229056863166"><ele>384.0</ele><time>2026-04-12T09:26:32Z</time></trkpt><trkpt lat="42.97607707541417" lon="12.127291949155765"><ele>384.0</ele><time>2026-04-12T09:26:33Z</time></trkpt><trkpt lat="42.97613665745258" lon="12.127352028550332"><ele>384.0</ele><time>2026-04-12T09:26:34Z</time></trkpt><trkpt lat="42.976195272020384" lon="12.127390426639291"><ele>383.99999999999994</ele><time>2026-04-12T09:26:35Z</time></trkpt><trkpt lat="42.97624477265872" lon="12.127450771633756"><ele>384.0</ele><time>2026-04-12T09:26:36Z</time></trkpt><trkpt lat="42.97630779692643" lon="12.127599110362898"><ele>384.1666666666667</ele><time>2026-04-12T09:26:38Z</time></trkpt><trkpt lat="42.97640287678949" lon="12.127578525165402"><ele>384.33333333333337</ele><time>2026-04-12T09:26:40Z</time></trkpt><trkpt lat="42.97647991307174" lon="12.127574882490293"><ele>384.5</ele><time>2026-04-12T09:26:41Z</time></trkpt><trkpt lat="42.97656031182615" lon="12.127598053486945"><ele>384.6666666666667</ele><time>2026-04-12T09:26:42Z</time></trkpt><trkpt lat="42.9766398944195" lon="12.127644712671907"><ele>384.83333333333337</ele><time>2026-04-12T09:26:43Z</time></trkpt><trkpt lat="42.976726640244514" lon="12.127687637321346"><ele>385.0</ele><time>2026-04-12T09:26:44Z</time></trkpt><trkpt lat="42.976812148867836" lon="12.127714733853711"><ele>385.0</ele><time>2026-04-12T09:26:45Z</time></trkpt><trkpt lat="42.97690917901062" lon="12.127729965194742"><ele>385.0</ele><time>2026-04-12T09:26:46Z</time></trkpt><trkpt lat="42.97700083087113" lon="12.127759173080266"><ele>385.0</ele><time>2026-04-12T09:26:47Z</time></trkpt><trkpt lat="42.97709109660348" lon="12.127802365014537"><ele>385.0</ele><time>2026-04-12T09:26:48Z</time></trkpt><trkpt lat="42.97719854931432" lon="12.127843631706806"><ele>385.0</ele><time>2026-04-12T09:26:49Z</time></trkpt><trkpt lat="42.97731434000464" lon="12.127872665783354"><ele>385.0</ele><time>2026-04-12T09:26:50Z</time></trkpt><trkpt lat="42.97740306564279" lon="12.127883024196747"><ele>385.0</ele><time>2026-04-12T09:26:51Z</time></trkpt><trkpt lat="42.97747015011069" lon="12.127881427345953"><ele>385.0</ele><time>2026-04-12T09:26:52Z</time></trkpt><trkpt lat="42.97754465152136" lon="12.127848408438176"><ele>385.0</ele><time>2026-04-12T09:26:53Z</time></trkpt><trkpt lat="42.97759922326858" lon="12.127802145547637"><ele>385.0</ele><time>2026-04-12T09:26:54Z</time></trkpt><trkpt lat="42.977663659022326" lon="12.1277652087169"><ele>385.0</ele><time>2026-04-12T09:26:55Z</time></trkpt><trkpt lat="42.977738600036524" lon="12.127740021575905"><ele>385.0</ele><time>2026-04-12T09:26:56Z</time></trkpt><trkpt lat="42.97782285614758" lon="12.127690511892604"><ele>385.00000000000006</ele><time>2026-04-12T09:26:58Z</time></trkpt><trkpt lat="42.97775252034288" lon="12.127734034960461"><ele>385.0</ele><time>2026-04-12T09:27:31Z</time></trkpt><trkpt lat="42.97768710082206" lon="12.127773022133109"><ele>385.0</ele><time>2026-04-12T09:27:32Z</time></trkpt><trkpt lat="42.97761928827814" lon="12.127812138269222"><ele>385.0</ele><time>2026-04-12T09:27:33Z</time></trkpt><trkpt lat="42.97755339187995" lon="12.127843117570112"><ele>385.00000000000006</ele><time>2026-04-12T09:27:34Z</time></trkpt><trkpt lat="42.977427576137835" lon="12.127909197914578"><ele>385.0</ele><time>2026-04-12T09:27:36Z</time></trkpt><trkpt lat="42.977301506213855" lon="12.127920423274443"><ele>385.00000000000006</ele><time>2026-04-12T09:27:38Z</time></trkpt><trkpt lat="42.97720588641486" lon="12.127897102954252"><ele>385.0</ele><time>2026-04-12T09:27:40Z</time></trkpt><trkpt lat="42.97709146876892" lon="12.127886502937926"><ele>385.0</ele><time>2026-04-12T09:27:42Z</time></trkpt><trkpt lat="42.97702374622797" lon="12.127870927091802"><ele>385.0</ele><time>2026-04-12T09:27:43Z</time></trkpt><trkpt lat="42.976953794802505" lon="12.127846603624262"><ele>385.00000000000006</ele><time>2026-04-12T09:27:44Z</time></trkpt><trkpt lat="42.976878453151436" lon="12.127806434162514"><ele>385.0</ele><time>2026-04-12T09:27:45Z</time></trkpt><trkpt lat="42.976798038058135" lon="12.127778855923683"><ele>385.00000000000006</ele><time>2026-04-12T09:27:46Z</time></trkpt><trkpt lat="42.97671657083068" lon="12.12775749017882"><ele>385.0</ele><time>2026-04-12T09:27:47Z</time></trkpt><trkpt lat="42.97662071956966" lon="12.127719995541172"><ele>385.0</ele><time>2026-04-12T09:27:48Z</time></trkpt><trkpt lat="42.976546967743474" lon="12.127683159787669"><ele>385.0</ele><time>2026-04-12T09:27:49Z</time></trkpt><trkpt lat="42.97646902031731" lon="12.127646491094255"><ele>385.00000000000006</ele><time>2026-04-12T09:27:50Z</time></trkpt><trkpt lat="42.976392766469836" lon="12.127634260198418"><ele>385.0</ele><time>2026-04-12T09:27:51Z</time></trkpt><trkpt lat="42.976323337887266" lon="12.127651777910907"><ele>384.0</ele><time>2026-04-12T09:27:52Z</time></trkpt><trkpt lat="42.97626477931493" lon="12.127689527705423"><ele>383.0</ele><time>2026-04-12T09:27:53Z</time></trkpt><trkpt lat="42.97619459440392" lon="12.127728669738278"><ele>382.0</ele><time>2026-04-12T09:27:54Z</time></trkpt><trkpt lat="42.97613012027328" lon="12.127741352155148"><ele>381.0</ele><time>2026-04-12T09:27:55Z</time></trkpt><trkpt lat="42.976056434718025" lon="12.127760863152648"><ele>380.0</ele><time>2026-04-12T09:27:56Z</time></trkpt><trkpt lat="42.97598954988331" lon="12.127784790140398"><ele>379.0</ele><time>2026-04-12T09:27:57Z</time></trkpt><trkpt lat="42.97589770500715" lon="12.127812428730381"><ele>378.0</ele><time>2026-04-12T09:27:58Z</time></trkpt><trkpt lat="42.975819599122524" lon="12.127843477611814"><ele>377.0</ele><time>2026-04-12T09:27:59Z</time></trkpt><trkpt lat="42.975748533270384" lon="12.127863201784558"><ele>376.0</ele><time>2026-04-12T09:28:00Z</time></trkpt><trkpt lat="42.97567902624108" lon="12.12788706301423"><ele>375.0</ele><time>2026-04-12T09:28:01Z</time></trkpt><trkpt lat="42.975620973825286" lon="12.127924460350314"><ele>374.0</ele><time>2026-04-12T09:28:02Z</time></trkpt><trkpt lat="42.97553768435011" lon="12.128013191204278"><ele>373.0</ele><time>2026-04-12T09:28:04Z</time></trkpt><trkpt lat="42.975496545040194" lon="12.128155586459442"><ele>372.0</ele><time>2026-04-12T09:28:06Z</time></trkpt><trkpt lat="42.975520950320835" lon="12.128253635439108"><ele>372.0</ele><time>2026-04-12T09:28:08Z</time></trkpt><trkpt lat="42.975553183217514" lon="12.128358766944803"><ele>372.0</ele><time>2026-04-12T09:28:10Z</time></trkpt><trkpt lat="42.97556187099319" lon="12.128507387851624"><ele>372.0</ele><time>2026-04-12T09:28:12Z</time></trkpt><trkpt lat="42.97556998416741" lon="12.128604813808717"><ele>372.0</ele><time>2026-04-12T09:28:13Z</time></trkpt><trkpt lat="42.97556705644381" lon="12.128710823492924"><ele>372.0</ele><time>2026-04-12T09:28:14Z</time></trkpt><trkpt lat="42.97556756559794" lon="12.128825583655177"><ele>372.0</ele><time>2026-04-12T09:28:15Z</time></trkpt><trkpt lat="42.97556932696226" lon="12.128939236651323"><ele>372.0</ele><time>2026-04-12T09:28:16Z</time></trkpt><trkpt lat="42.97558329285055" lon="12.129040297021744"><ele>372.0</ele><time>2026-04-12T09:28:17Z</time></trkpt><trkpt lat="42.97559099788338" lon="12.129147576215797"><ele>372.0</ele><time>2026-04-12T09:28:18Z</time></trkpt><trkpt lat="42.97560165180229" lon="12.12923730042004"><ele>372.0</ele><time>2026-04-12T09:28:19Z</time></trkpt><trkpt lat="42.97563399177914" lon="12.1293908217387"><ele>372.0</ele><time>2026-04-12T09:28:21Z</time></trkpt><trkpt lat="42.97564164519977" lon="12.129564215565816"><ele>371.20000000000005</ele><time>2026-04-12T09:28:23Z</time></trkpt><trkpt lat="42.975648113679576" lon="12.129728924154778"><ele>370.4</ele><time>2026-04-12T09:28:25Z</time></trkpt><trkpt lat="42.975653310852366" lon="12.129882046126296"><ele>369.6</ele><time>2026-04-12T09:28:27Z</time></trkpt><trkpt lat="42.97567918912265" lon="12.130006569080678"><ele>368.79999999999995</ele><time>2026-04-12T09:28:29Z</time></trkpt><trkpt lat="42.975672647567784" lon="12.130132506218729"><ele>368.0</ele><time>2026-04-12T09:28:31Z</time></trkpt><trkpt lat="42.97566391207012" lon="12.130237188446072"><ele>367.0</ele><time>2026-04-12T09:28:33Z</time></trkpt><trkpt lat="42.97569250969083" lon="12.13032091887868"><ele>366.0</ele><time>2026-04-12T09:28:35Z</time></trkpt><trkpt lat="42.975643810179264" lon="12.130377086141847"><ele>365.0</ele><time>2026-04-12T09:28:38Z</time></trkpt><trkpt lat="42.975571104954724" lon="12.130297745493092"><ele>364.0</ele><time>2026-04-12T09:28:40Z</time></trkpt><trkpt lat="42.97548584938572" lon="12.130220004331212"><ele>363.0</ele><time>2026-04-12T09:28:41Z</time></trkpt><trkpt lat="42.975404311468345" lon="12.130227002715447"><ele>362.0</ele><time>2026-04-12T09:28:43Z</time></trkpt><trkpt lat="42.97533195045381" lon="12.130138052849832"><ele>362.0</ele><time>2026-04-12T09:28:45Z</time></trkpt><trkpt lat="42.97527970776149" lon="12.130195977866686"><ele>362.0</ele><time>2026-04-12T09:28:47Z</time></trkpt><trkpt lat="42.97519014616571" lon="12.130268581893265"><ele>362.0</ele><time>2026-04-12T09:28:50Z</time></trkpt><trkpt lat="42.975103972051315" lon="12.13022663647065"><ele>362.0</ele><time>2026-04-12T09:28:54Z</time></trkpt><trkpt lat="42.97502404873701" lon="12.130179484331917"><ele>362.0</ele><time>2026-04-12T09:28:56Z</time></trkpt><trkpt lat="42.97492933983528" lon="12.130149263195909"><ele>362.0</ele><time>2026-04-12T09:28:57Z</time></trkpt><trkpt lat="42.97485129380293" lon="12.130096558595241"><ele>361.40000000000003</ele><time>2026-04-12T09:28:58Z</time></trkpt><trkpt lat="42.974783917344936" lon="12.130006068971426"><ele>360.8</ele><time>2026-04-12T09:28:59Z</time></trkpt><trkpt lat="42.97469896581392" lon="12.129949733710292"><ele>360.2</ele><time>2026-04-12T09:29:00Z</time></trkpt><trkpt lat="42.97462928016701" lon="12.129895827022267"><ele>359.6</ele><time>2026-04-12T09:29:01Z</time></trkpt><trkpt lat="42.97453341348076" lon="12.129839905048769"><ele>359.0</ele><time>2026-04-12T09:29:02Z</time></trkpt><trkpt lat="42.974453703554964" lon="12.12983415902409"><ele>360.79999999999995</ele><time>2026-04-12T09:29:03Z</time></trkpt><trkpt lat="42.97443900119288" lon="12.12992522478216"><ele>362.59999999999997</ele><time>2026-04-12T09:29:06Z</time></trkpt><trkpt lat="42.97450451243694" lon="12.13004571038197"><ele>364.4</ele><time>2026-04-12T09:29:08Z</time></trkpt><trkpt lat="42.974541000259805" lon="12.130177316534237"><ele>366.2</ele><time>2026-04-12T09:29:10Z</time></trkpt><trkpt lat="42.97453215165401" lon="12.130305132579599"><ele>368.0</ele><time>2026-04-12T09:29:12Z</time></trkpt><trkpt lat="42.974555559552144" lon="12.130506601622747"><ele>368.0</ele><time>2026-04-12T09:29:14Z</time></trkpt><trkpt lat="42.97458849886301" lon="12.130612382607476"><ele>368.0</ele><time>2026-04-12T09:29:15Z</time></trkpt><trkpt lat="42.97462896472922" lon="12.130754946213871"><ele>368.0</ele><time>2026-04-12T09:29:16Z</time></trkpt><trkpt lat="42.9746553644451" lon="12.1309019796331"><ele>368.0</ele><time>2026-04-12T09:29:17Z</time></trkpt><trkpt lat="42.97470518488713" lon="12.131021436623842"><ele>368.0</ele><time>2026-04-12T09:29:18Z</time></trkpt><trkpt lat="42.97475358155808" lon="12.131141527719258"><ele>370.0</ele><time>2026-04-12T09:29:19Z</time></trkpt><trkpt lat="42.97478883323815" lon="12.13129120970439"><ele>372.0</ele><time>2026-04-12T09:29:20Z</time></trkpt><trkpt lat="42.974823985740116" lon="12.13141901373706"><ele>374.0</ele><time>2026-04-12T09:29:21Z</time></trkpt><trkpt lat="42.97485237985255" lon="12.131546564817192"><ele>376.0</ele><time>2026-04-12T09:29:22Z</time></trkpt><trkpt lat="42.97488100103384" lon="12.131631219237242"><ele>378.0</ele><time>2026-04-12T09:29:23Z</time></trkpt><trkpt lat="42.97493196349024" lon="12.131738081444409"><ele>380.2</ele><time>2026-04-12T09:29:24Z</time></trkpt><trkpt lat="42.97496291129121" lon="12.131854149591371"><ele>382.4</ele><time>2026-04-12T09:29:25Z</time></trkpt><trkpt lat="42.97499126142751" lon="12.131989436882144"><ele>384.59999999999997</ele><time>2026-04-12T09:29:26Z</time></trkpt><trkpt lat="42.97498676165367" lon="12.13212368133528"><ele>386.79999999999995</ele><time>2026-04-12T09:29:27Z</time></trkpt><trkpt lat="42.97498763681096" lon="12.132251779014815"><ele>389.0</ele><time>2026-04-12T09:29:28Z</time></trkpt><trkpt lat="42.97498029612034" lon="12.132408022873298"><ele>390.0</ele><time>2026-04-12T09:29:29Z</time></trkpt><trkpt lat="42.97495054612214" lon="12.132548704074528"><ele>391.0</ele><time>2026-04-12T09:29:30Z</time></trkpt><trkpt lat="42.97492552735029" lon="12.132667615576814"><ele>392.0</ele><time>2026-04-12T09:29:31Z</time></trkpt><trkpt lat="42.974909576247775" lon="12.132794241672965"><ele>393.0</ele><time>2026-04-12T09:29:32Z</time></trkpt><trkpt lat="42.97492151490213" lon="12.132919280512658"><ele>394.0</ele><time>2026-04-12T09:29:33Z</time></trkpt><trkpt lat="42.974963872461394" lon="12.133023237493639"><ele>394.00000000000006</ele><time>2026-04-12T09:29:34Z</time></trkpt><trkpt lat="42.974987438967176" lon="12.13311795709713"><ele>394.0</ele><time>2026-04-12T09:29:35Z</time></trkpt><trkpt lat="42.974984829206186" lon="12.133223105626291"><ele>394.0</ele><time>2026-04-12T09:29:36Z</time></trkpt><trkpt lat="42.974978210179565" lon="12.133344651171358"><ele>394.0</ele><time>2026-04-12T09:29:37Z</time></trkpt><trkpt lat="42.97500008562841" lon="12.133462558266947"><ele>394.00000000000006</ele><time>2026-04-12T09:29:38Z</time></trkpt><trkpt lat="42.975033087295536" lon="12.13354335091997"><ele>394.0</ele><time>2026-04-12T09:29:39Z</time></trkpt><trkpt lat="42.9750893298471" lon="12.13363679396625"><ele>394.1666666666667</ele><time>2026-04-12T09:29:40Z</time></trkpt><trkpt lat="42.975141956528994" lon="12.133711596870741"><ele>394.33333333333337</ele><time>2026-04-12T09:29:41Z</time></trkpt><trkpt lat="42.97518698881631" lon="12.133814523176751"><ele>394.5</ele><time>2026-04-12T09:29:42Z</time></trkpt><trkpt lat="42.97522915793615" lon="12.133922176439178"><ele>394.66666666666663</ele><time>2026-04-12T09:29:43Z</time></trkpt><trkpt lat="42.97525426068705" lon="12.134018545183466"><ele>394.8333333333333</ele><time>2026-04-12T09:29:44Z</time></trkpt><trkpt lat="42.97525850019921" lon="12.134120576742268"><ele>395.0</ele><time>2026-04-12T09:29:45Z</time></trkpt><trkpt lat="42.975277015626986" lon="12.134227618090948"><ele>394.99999999999994</ele><time>2026-04-12T09:29:46Z</time></trkpt><trkpt lat="42.9753003875338" lon="12.134330767164503"><ele>395.0</ele><time>2026-04-12T09:29:47Z</time></trkpt><trkpt lat="42.97532071883757" lon="12.134445281042348"><ele>395.0</ele><time>2026-04-12T09:29:48Z</time></trkpt><trkpt lat="42.97534021188032" lon="12.134557630909233"><ele>395.0</ele><time>2026-04-12T09:29:49Z</time></trkpt><trkpt lat="42.97536536159309" lon="12.134697040297977"><ele>394.99999999999994</ele><time>2026-04-12T09:29:50Z</time></trkpt><trkpt lat="42.97538299887506" lon="12.134803768685561"><ele>395.0</ele><time>2026-04-12T09:29:51Z</time></trkpt><trkpt lat="42.97540009258617" lon="12.134887380570552"><ele>397.8</ele><time>2026-04-12T09:29:52Z</time></trkpt><trkpt lat="42.975489936780775" lon="12.135006150828733"><ele>400.6</ele><time>2026-04-12T09:29:54Z</time></trkpt><trkpt lat="42.9755366331496" lon="12.13511343481647"><ele>403.4</ele><time>2026-04-12T09:29:55Z</time></trkpt><trkpt lat="42.97557137106796" lon="12.13522262292551"><ele>406.2</ele><time>2026-04-12T09:29:56Z</time></trkpt><trkpt lat="42.975584321451954" lon="12.135331416839907"><ele>409.0</ele><time>2026-04-12T09:29:57Z</time></trkpt><trkpt lat="42.975600118722696" lon="12.135427756315165"><ele>409.00000000000006</ele><time>2026-04-12T09:29:58Z</time></trkpt><trkpt lat="42.97565260326047" lon="12.135521921306129"><ele>409.0</ele><time>2026-04-12T09:29:59Z</time></trkpt><trkpt lat="42.97568506430037" lon="12.135657146936119"><ele>409.0</ele><time>2026-04-12T09:30:00Z</time></trkpt><trkpt lat="42.97571104243156" lon="12.135779081404882"><ele>409.0</ele><time>2026-04-12T09:30:01Z</time></trkpt><trkpt lat="42.97573267301337" lon="12.135887977744972"><ele>409.00000000000006</ele><time>2026-04-12T09:30:02Z</time></trkpt><trkpt lat="42.97576976504436" lon="12.13598824056712"><ele>409.0</ele><time>2026-04-12T09:30:03Z</time></trkpt><trkpt lat="42.97583156928189" lon="12.136088975762368"><ele>408.0</ele><time>2026-04-12T09:30:04Z</time></trkpt><trkpt lat="42.97588114820852" lon="12.13616647616002"><ele>407.0</ele><time>2026-04-12T09:30:05Z</time></trkpt><trkpt lat="42.975922305758274" lon="12.13627317331416"><ele>406.0</ele><time>2026-04-12T09:30:06Z</time></trkpt><trkpt lat="42.975988541212786" lon="12.136385450588758"><ele>405.0</ele><time>2026-04-12T09:30:07Z</time></trkpt><trkpt lat="42.9760367449469" lon="12.136495316092693"><ele>404.0</ele><time>2026-04-12T09:30:08Z</time></trkpt><trkpt lat="42.976070065490575" lon="12.136604783429776"><ele>407.4</ele><time>2026-04-12T09:30:09Z</time></trkpt><trkpt lat="42.97610724302392" lon="12.136719881975475"><ele>410.79999999999995</ele><time>2026-04-12T09:30:10Z</time></trkpt><trkpt lat="42.976152784593054" lon="12.13682807144635"><ele>414.20000000000005</ele><time>2026-04-12T09:30:11Z</time></trkpt><trkpt lat="42.97620728054322" lon="12.136939881071159"><ele>417.6</ele><time>2026-04-12T09:30:12Z</time></trkpt><trkpt lat="42.97626457562253" lon="12.137060419062534"><ele>421.0</ele><time>2026-04-12T09:30:13Z</time></trkpt><trkpt lat="42.976324053625156" lon="12.137131923658712"><ele>421.00000000000006</ele><time>2026-04-12T09:30:14Z</time></trkpt><trkpt lat="42.976385280937144" lon="12.13719485232562"><ele>421.0</ele><time>2026-04-12T09:30:15Z</time></trkpt><trkpt lat="42.97644119595434" lon="12.137239395545297"><ele>421.0</ele><time>2026-04-12T09:30:16Z</time></trkpt><trkpt lat="42.97650557305994" lon="12.137368558293758"><ele>421.0</ele><time>2026-04-12T09:30:18Z</time></trkpt><trkpt lat="42.976505647811095" lon="12.137458633272804"><ele>421.00000000000006</ele><time>2026-04-12T09:30:19Z</time></trkpt><trkpt lat="42.976510410825085" lon="12.137547720976748"><ele>421.0</ele><time>2026-04-12T09:30:20Z</time></trkpt><trkpt lat="42.97653368563739" lon="12.137707143007528"><ele>420.42857142857144</ele><time>2026-04-12T09:30:22Z</time></trkpt><trkpt lat="42.97658219963173" lon="12.137769150375076"><ele>419.8571428571429</ele><time>2026-04-12T09:30:23Z</time></trkpt><trkpt lat="42.97663744940294" lon="12.137820838207745"><ele>419.28571428571433</ele><time>2026-04-12T09:30:24Z</time></trkpt><trkpt lat="42.97669111120505" lon="12.13787068209536"><ele>418.7142857142857</ele><time>2026-04-12T09:30:25Z</time></trkpt><trkpt lat="42.97674762037541" lon="12.137953224055504"><ele>418.1428571428571</ele><time>2026-04-12T09:30:26Z</time></trkpt><trkpt lat="42.97679248341662" lon="12.138063661054955"><ele>417.5714285714286</ele><time>2026-04-12T09:30:27Z</time></trkpt><trkpt lat="42.97683827613105" lon="12.138144714569052"><ele>417.0</ele><time>2026-04-12T09:30:28Z</time></trkpt><trkpt lat="42.97687008749301" lon="12.138243855825399"><ele>419.6666666666667</ele><time>2026-04-12T09:30:29Z</time></trkpt><trkpt lat="42.976901613525825" lon="12.138330314213794"><ele>422.33333333333337</ele><time>2026-04-12T09:30:30Z</time></trkpt><trkpt lat="42.97697403915861" lon="12.138456597924016"><ele>425.0</ele><time>2026-04-12T09:30:32Z</time></trkpt><trkpt lat="42.977029002536966" lon="12.13849862790156"><ele>427.6666666666667</ele><time>2026-04-12T09:30:33Z</time></trkpt><trkpt lat="42.97708091710258" lon="12.138578513055627"><ele>430.33333333333337</ele><time>2026-04-12T09:30:34Z</time></trkpt><trkpt lat="42.97712303828438" lon="12.138679287634494"><ele>433.0</ele><time>2026-04-12T09:30:35Z</time></trkpt><trkpt lat="42.977148069568486" lon="12.138764462260113"><ele>433.00000000000006</ele><time>2026-04-12T09:30:36Z</time></trkpt><trkpt lat="42.9772041573654" lon="12.138909921663915"><ele>433.0</ele><time>2026-04-12T09:30:38Z</time></trkpt><trkpt lat="42.977245651885305" lon="12.13902838744453"><ele>433.0</ele><time>2026-04-12T09:30:39Z</time></trkpt><trkpt lat="42.97728843554367" lon="12.139126955619073"><ele>433.0</ele><time>2026-04-12T09:30:40Z</time></trkpt><trkpt lat="42.97733044702336" lon="12.13921801407512"><ele>433.00000000000006</ele><time>2026-04-12T09:30:41Z</time></trkpt><trkpt lat="42.97737237709409" lon="12.139282701000473"><ele>433.0</ele><time>2026-04-12T09:30:42Z</time></trkpt><trkpt lat="42.97742264534696" lon="12.139383495872064"><ele>432.83333333333337</ele><time>2026-04-12T09:30:43Z</time></trkpt><trkpt lat="42.97746394457033" lon="12.139497476404475"><ele>432.6666666666667</ele><time>2026-04-12T09:30:44Z</time></trkpt><trkpt lat="42.97749981202268" lon="12.139593473899831"><ele>432.5</ele><time>2026-04-12T09:30:45Z</time></trkpt><trkpt lat="42.97755427675967" lon="12.13969955515075"><ele>432.33333333333337</ele><time>2026-04-12T09:30:47Z</time></trkpt><trkpt lat="42.97758996361235" lon="12.1397908611031"><ele>432.1666666666667</ele><time>2026-04-12T09:30:48Z</time></trkpt><trkpt lat="42.97762883061734" lon="12.139911534937552"><ele>432.0</ele><time>2026-04-12T09:30:49Z</time></trkpt><trkpt lat="42.977676430282074" lon="12.140017323927562"><ele>434.0</ele><time>2026-04-12T09:30:50Z</time></trkpt><trkpt lat="42.9777025202158" lon="12.14011718253202"><ele>436.0</ele><time>2026-04-12T09:30:51Z</time></trkpt><trkpt lat="42.97771284390718" lon="12.140212582287946"><ele>438.0</ele><time>2026-04-12T09:30:52Z</time></trkpt><trkpt lat="42.977717308166085" lon="12.140327856353998"><ele>440.0</ele><time>2026-04-12T09:30:53Z</time></trkpt><trkpt lat="42.97773497496501" lon="12.140455626409445"><ele>442.0</ele><time>2026-04-12T09:30:54Z</time></trkpt><trkpt lat="42.97776194956415" lon="12.14056403838994"><ele>444.0</ele><time>2026-04-12T09:30:55Z</time></trkpt><trkpt lat="42.97779196827262" lon="12.140686334693694"><ele>445.8333333333333</ele><time>2026-04-12T09:30:56Z</time></trkpt><trkpt lat="42.97779931431815" lon="12.140858889817247"><ele>447.66666666666663</ele><time>2026-04-12T09:30:58Z</time></trkpt><trkpt lat="42.977799491367556" lon="12.140971947124212"><ele>449.5</ele><time>2026-04-12T09:30:59Z</time></trkpt><trkpt lat="42.97781449047295" lon="12.141068452886099"><ele>451.3333333333333</ele><time>2026-04-12T09:31:00Z</time></trkpt><trkpt lat="42.97783838429667" lon="12.141173544981433"><ele>453.16666666666663</ele><time>2026-04-12T09:31:01Z</time></trkpt><trkpt lat="42.97783769118307" lon="12.141267443328113"><ele>455.0</ele><time>2026-04-12T09:31:02Z</time></trkpt><trkpt lat="42.9778276196956" lon="12.141369036216673"><ele>454.99999999999994</ele><time>2026-04-12T09:31:03Z</time></trkpt><trkpt lat="42.97781092294398" lon="12.141458273271155"><ele>455.0</ele><time>2026-04-12T09:31:04Z</time></trkpt><trkpt lat="42.9778008171379" lon="12.141608289133739"><ele>455.0</ele><time>2026-04-12T09:31:06Z</time></trkpt><trkpt lat="42.97775865639226" lon="12.141675949337882"><ele>455.0</ele><time>2026-04-12T09:31:07Z</time></trkpt><trkpt lat="42.977718915133394" lon="12.141750996929837"><ele>454.99999999999994</ele><time>2026-04-12T09:31:08Z</time></trkpt><trkpt lat="42.97767666862838" lon="12.141841377397824"><ele>455.0</ele><time>2026-04-12T09:31:09Z</time></trkpt><trkpt lat="42.97768383553277" lon="12.14201373971319"><ele>457.16666666666663</ele><time>2026-04-12T09:31:11Z</time></trkpt><trkpt lat="42.9776770311864" lon="12.142115711586728"><ele>459.3333333333333</ele><time>2026-04-12T09:31:12Z</time></trkpt><trkpt lat="42.97767775940193" lon="12.142232456055032"><ele>461.5</ele><time>2026-04-12T09:31:13Z</time></trkpt><trkpt lat="42.97765803324738" lon="12.142364735344614"><ele>463.66666666666663</ele><time>2026-04-12T09:31:14Z</time></trkpt><trkpt lat="42.97762502866197" lon="12.142488973444896"><ele>465.8333333333333</ele><time>2026-04-12T09:31:15Z</time></trkpt><trkpt lat="42.97760985079219" lon="12.142593081347703"><ele>468.0</ele><time>2026-04-12T09:31:16Z</time></trkpt><trkpt lat="42.97762199277114" lon="12.142716642022611"><ele>470.2</ele><time>2026-04-12T09:31:17Z</time></trkpt><trkpt lat="42.9776268682995" lon="12.142870695861443"><ele>472.4</ele><time>2026-04-12T09:31:18Z</time></trkpt><trkpt lat="42.977633553933714" lon="12.142981327678898"><ele>474.59999999999997</ele><time>2026-04-12T09:31:19Z</time></trkpt><trkpt lat="42.97764023646822" lon="12.143103116117675"><ele>476.79999999999995</ele><time>2026-04-12T09:31:20Z</time></trkpt><trkpt lat="42.977615416419845" lon="12.14318833749648"><ele>479.0</ele><time>2026-04-12T09:31:21Z</time></trkpt><trkpt lat="42.97751292392097" lon="12.143282032939267"><ele>479.0</ele><time>2026-04-12T09:31:23Z</time></trkpt><trkpt lat="42.977460949206254" lon="12.143447600257792"><ele>479.0</ele><time>2026-04-12T09:31:25Z</time></trkpt><trkpt lat="42.97750504046982" lon="12.143558646433844"><ele>479.0</ele><time>2026-04-12T09:31:27Z</time></trkpt><trkpt lat="42.97757861639757" lon="12.143548536516102"><ele>479.0</ele><time>2026-04-12T09:31:29Z</time></trkpt><trkpt lat="42.97764413247374" lon="12.143452317027037"><ele>479.0</ele><time>2026-04-12T09:31:31Z</time></trkpt><trkpt lat="42.9777340070069" lon="12.143342134663765"><ele>479.3333333333333</ele><time>2026-04-12T09:31:33Z</time></trkpt><trkpt lat="42.97779274245428" lon="12.143284347867496"><ele>479.66666666666663</ele><time>2026-04-12T09:31:34Z</time></trkpt><trkpt lat="42.97787385297407" lon="12.14322648304521"><ele>480.0</ele><time>2026-04-12T09:31:35Z</time></trkpt><trkpt lat="42.97795161001071" lon="12.143154691236859"><ele>480.33333333333337</ele><time>2026-04-12T09:31:36Z</time></trkpt><trkpt lat="42.97801961720909" lon="12.143089239874646"><ele>480.6666666666667</ele><time>2026-04-12T09:31:37Z</time></trkpt><trkpt lat="42.978079327761456" lon="12.143047529613536"><ele>481.0</ele><time>2026-04-12T09:31:38Z</time></trkpt><trkpt lat="42.978188388823156" lon="12.143102439800787"><ele>481.00000000000006</ele><time>2026-04-12T09:31:40Z</time></trkpt><trkpt lat="42.9782431668939" lon="12.143198514507874"><ele>481.0</ele><time>2026-04-12T09:31:41Z</time></trkpt><trkpt lat="42.978296164200366" lon="12.143298443515828"><ele>481.0</ele><time>2026-04-12T09:31:42Z</time></trkpt><trkpt lat="42.97836380650865" lon="12.143382326049846"><ele>481.0</ele><time>2026-04-12T09:31:43Z</time></trkpt><trkpt lat="42.9784412690568" lon="12.143438101135335"><ele>481.00000000000006</ele><time>2026-04-12T09:31:44Z</time></trkpt><trkpt lat="42.97851834387296" lon="12.143440658047888"><ele>481.0</ele><time>2026-04-12T09:31:45Z</time></trkpt><trkpt lat="42.978580114855596" lon="12.143392975155237"><ele>482.1666666666667</ele><time>2026-04-12T09:31:46Z</time></trkpt><trkpt lat="42.978632068131965" lon="12.143289874863939"><ele>483.33333333333337</ele><time>2026-04-12T09:31:47Z</time></trkpt><trkpt lat="42.978684225153245" lon="12.14318356389283"><ele>484.5</ele><time>2026-04-12T09:31:48Z</time></trkpt><trkpt lat="42.97873881083675" lon="12.143100101585384"><ele>485.66666666666663</ele><time>2026-04-12T09:31:49Z</time></trkpt><trkpt lat="42.978795169900856" lon="12.143033952619291"><ele>486.8333333333333</ele><time>2026-04-12T09:31:50Z</time></trkpt><trkpt lat="42.97885036907633" lon="12.142956336739516"><ele>488.0</ele><time>2026-04-12T09:31:51Z</time></trkpt><trkpt lat="42.978925457261056" lon="12.14290384270477"><ele>488.0</ele><time>2026-04-12T09:31:52Z</time></trkpt><trkpt lat="42.979019825466274" lon="12.1428846018022"><ele>487.99999999999994</ele><time>2026-04-12T09:31:53Z</time></trkpt><trkpt lat="42.9791158290412" lon="12.142900384734158"><ele>487.99999999999994</ele><time>2026-04-12T09:31:54Z</time></trkpt><trkpt lat="42.97920244490794" lon="12.14289254238096"><ele>488.0</ele><time>2026-04-12T09:31:55Z</time></trkpt><trkpt lat="42.97931742129025" lon="12.142898366098674"><ele>488.0</ele><time>2026-04-12T09:31:56Z</time></trkpt><trkpt lat="42.97942941365814" lon="12.142914503477911"><ele>488.79999999999995</ele><time>2026-04-12T09:31:57Z</time></trkpt><trkpt lat="42.979522843209885" lon="12.142919212041086"><ele>489.59999999999997</ele><time>2026-04-12T09:31:58Z</time></trkpt><trkpt lat="42.97961908798873" lon="12.142942696029836"><ele>490.40000000000003</ele><time>2026-04-12T09:31:59Z</time></trkpt><trkpt lat="42.9797118329846" lon="12.142926791362749"><ele>491.20000000000005</ele><time>2026-04-12T09:32:00Z</time></trkpt><trkpt lat="42.979814927560554" lon="12.142915260606282"><ele>492.0</ele><time>2026-04-12T09:32:01Z</time></trkpt><trkpt lat="42.979916640350666" lon="12.142894806544941"><ele>492.0</ele><time>2026-04-12T09:32:02Z</time></trkpt><trkpt lat="42.9800147250861" lon="12.142909290915894"><ele>492.00000000000006</ele><time>2026-04-12T09:32:03Z</time></trkpt><trkpt lat="42.98011017869751" lon="12.142930030067703"><ele>492.00000000000006</ele><time>2026-04-12T09:32:04Z</time></trkpt><trkpt lat="42.98019815467569" lon="12.142922284747543"><ele>492.0</ele><time>2026-04-12T09:32:05Z</time></trkpt><trkpt lat="42.980309373620784" lon="12.142883281285597"><ele>492.0</ele><time>2026-04-12T09:32:06Z</time></trkpt><trkpt lat="42.98041671095752" lon="12.142830018408864"><ele>493.0</ele><time>2026-04-12T09:32:07Z</time></trkpt><trkpt lat="42.98049141767276" lon="12.14280245406246"><ele>494.0</ele><time>2026-04-12T09:32:08Z</time></trkpt><trkpt lat="42.98056929212915" lon="12.142757340178004"><ele>495.0</ele><time>2026-04-12T09:32:09Z</time></trkpt><trkpt lat="42.98065011733324" lon="12.14275406984818"><ele>496.0</ele><time>2026-04-12T09:32:10Z</time></trkpt><trkpt lat="42.98072816772698" lon="12.142765406075059"><ele>497.0</ele><time>2026-04-12T09:32:11Z</time></trkpt><trkpt lat="42.98079189682187" lon="12.14278901733091"><ele>498.0</ele><time>2026-04-12T09:32:12Z</time></trkpt><trkpt lat="42.980853394586475" lon="12.142834158422268"><ele>499.2</ele><time>2026-04-12T09:32:13Z</time></trkpt><trkpt lat="42.98097349940224" lon="12.142944929856359"><ele>500.4</ele><time>2026-04-12T09:32:15Z</time></trkpt><trkpt lat="42.98106449661477" lon="12.143000670976974"><ele>501.59999999999997</ele><time>2026-04-12T09:32:16Z</time></trkpt><trkpt lat="42.98115726803423" lon="12.143059717183004"><ele>502.79999999999995</ele><time>2026-04-12T09:32:17Z</time></trkpt><trkpt lat="42.981242152494225" lon="12.143115986253648"><ele>504.0</ele><time>2026-04-12T09:32:18Z</time></trkpt><trkpt lat="42.98132238379114" lon="12.14316545247646"><ele>504.0</ele><time>2026-04-12T09:32:19Z</time></trkpt><trkpt lat="42.98140820797831" lon="12.143203863594138"><ele>504.0</ele><time>2026-04-12T09:32:20Z</time></trkpt><trkpt lat="42.981509854503216" lon="12.143256846411706"><ele>504.0</ele><time>2026-04-12T09:32:21Z</time></trkpt><trkpt lat="42.981619890123255" lon="12.143310755004087"><ele>504.0</ele><time>2026-04-12T09:32:22Z</time></trkpt><trkpt lat="42.98170665622544" lon="12.143358754690622"><ele>504.0</ele><time>2026-04-12T09:32:23Z</time></trkpt><trkpt lat="42.98179438102705" lon="12.143412944400438"><ele>506.2</ele><time>2026-04-12T09:32:24Z</time></trkpt><trkpt lat="42.98188447345624" lon="12.143466627943832"><ele>508.4</ele><time>2026-04-12T09:32:25Z</time></trkpt><trkpt lat="42.98197647737724" lon="12.14353013406814"><ele>510.6</ele><time>2026-04-12T09:32:26Z</time></trkpt><trkpt lat="42.98204186673073" lon="12.14355855851413"><ele>512.8</ele><time>2026-04-12T09:32:27Z</time></trkpt><trkpt lat="42.98211669281729" lon="12.143598196413672"><ele>515.0</ele><time>2026-04-12T09:32:28Z</time></trkpt><trkpt lat="42.98222992177733" lon="12.143628907040133"><ele>515.0</ele><time>2026-04-12T09:32:30Z</time></trkpt><trkpt lat="42.98230777277676" lon="12.143652583377605"><ele>515.0</ele><time>2026-04-12T09:32:31Z</time></trkpt><trkpt lat="42.982379650092255" lon="12.143677948836855"><ele>515.0</ele><time>2026-04-12T09:32:32Z</time></trkpt><trkpt lat="42.98249424358457" lon="12.143710963958787"><ele>515.0</ele><time>2026-04-12T09:32:34Z</time></trkpt><trkpt lat="42.982559482675896" lon="12.143741822257876"><ele>515.0</ele><time>2026-04-12T09:32:35Z</time></trkpt><trkpt lat="42.98261981737252" lon="12.14377148553888"><ele>515.0</ele><time>2026-04-12T09:32:36Z</time></trkpt><trkpt lat="42.9827397873389" lon="12.143814318424"><ele>513.4</ele><time>2026-04-12T09:32:38Z</time></trkpt><trkpt lat="42.98283293108587" lon="12.143931213191179"><ele>511.8</ele><time>2026-04-12T09:32:40Z</time></trkpt><trkpt lat="42.982884032758" lon="12.144018309018813"><ele>510.20000000000005</ele><time>2026-04-12T09:32:41Z</time></trkpt><trkpt lat="42.982932572146765" lon="12.144117468242102"><ele>508.6</ele><time>2026-04-12T09:32:42Z</time></trkpt><trkpt lat="42.982979345994586" lon="12.144212658735663"><ele>507.0</ele><time>2026-04-12T09:32:43Z</time></trkpt><trkpt lat="42.983036584440846" lon="12.144313970110998"><ele>507.0</ele><time>2026-04-12T09:32:44Z</time></trkpt><trkpt lat="42.9830971389842" lon="12.144402482983521"><ele>507.0</ele><time>2026-04-12T09:32:45Z</time></trkpt><trkpt lat="42.98314938677453" lon="12.144486158296624"><ele>507.0</ele><time>2026-04-12T09:32:46Z</time></trkpt><trkpt lat="42.98321574374462" lon="12.144566995314637"><ele>507.0</ele><time>2026-04-12T09:32:47Z</time></trkpt><trkpt lat="42.98326470213291" lon="12.144662920708894"><ele>507.0</ele><time>2026-04-12T09:32:48Z</time></trkpt><trkpt lat="42.98330850493559" lon="12.144747697896038"><ele>507.0</ele><time>2026-04-12T09:32:49Z</time></trkpt><trkpt lat="42.98334544937788" lon="12.144843128422542"><ele>503.20000000000005</ele><time>2026-04-12T09:32:50Z</time></trkpt><trkpt lat="42.983387258826596" lon="12.144954825999921"><ele>499.40000000000003</ele><time>2026-04-12T09:32:51Z</time></trkpt><trkpt lat="42.983422845216346" lon="12.145067088356797"><ele>495.59999999999997</ele><time>2026-04-12T09:32:52Z</time></trkpt><trkpt lat="42.98347057570542" lon="12.145185454316378"><ele>491.79999999999995</ele><time>2026-04-12T09:32:53Z</time></trkpt><trkpt lat="42.983511206719484" lon="12.14530871633276"><ele>488.0</ele><time>2026-04-12T09:32:54Z</time></trkpt><trkpt lat="42.983555502809665" lon="12.14540730713119"><ele>488.0</ele><time>2026-04-12T09:32:55Z</time></trkpt><trkpt lat="42.98359180264905" lon="12.145503682358965"><ele>487.99999999999994</ele><time>2026-04-12T09:32:56Z</time></trkpt><trkpt lat="42.983606217327456" lon="12.145602629977084"><ele>487.99999999999994</ele><time>2026-04-12T09:32:57Z</time></trkpt><trkpt lat="42.98364919137002" lon="12.145784672998357"><ele>488.0</ele><time>2026-04-12T09:32:59Z</time></trkpt><trkpt lat="42.98365607040143" lon="12.145938681621699"><ele>488.0</ele><time>2026-04-12T09:33:00Z</time></trkpt><trkpt lat="42.983646317069244" lon="12.14606509077119"><ele>488.2</ele><time>2026-04-12T09:33:01Z</time></trkpt><trkpt lat="42.98364287506616" lon="12.146179087398902"><ele>488.4</ele><time>2026-04-12T09:33:02Z</time></trkpt><trkpt lat="42.98363920415186" lon="12.146294612046974"><ele>488.59999999999997</ele><time>2026-04-12T09:33:03Z</time></trkpt><trkpt lat="42.983633331395666" lon="12.146424069913202"><ele>488.79999999999995</ele><time>2026-04-12T09:33:04Z</time></trkpt><trkpt lat="42.98365463033688" lon="12.146552464610165"><ele>489.0</ele><time>2026-04-12T09:33:05Z</time></trkpt><trkpt lat="42.98366076712624" lon="12.146682103838682"><ele>489.6666666666667</ele><time>2026-04-12T09:33:06Z</time></trkpt><trkpt lat="42.98370270545895" lon="12.146767577780315"><ele>490.33333333333337</ele><time>2026-04-12T09:33:07Z</time></trkpt><trkpt lat="42.9837334966414" lon="12.146855736921724"><ele>491.0</ele><time>2026-04-12T09:33:08Z</time></trkpt><trkpt lat="42.983795380166015" lon="12.146980585383373"><ele>491.6666666666667</ele><time>2026-04-12T09:33:10Z</time></trkpt><trkpt lat="42.9838382978387" lon="12.147056763598163"><ele>492.33333333333337</ele><time>2026-04-12T09:33:11Z</time></trkpt><trkpt lat="42.98389265451392" lon="12.147144222881474"><ele>493.0</ele><time>2026-04-12T09:33:12Z</time></trkpt><trkpt lat="42.98398565166849" lon="12.147193212483225"><ele>492.5</ele><time>2026-04-12T09:33:14Z</time></trkpt><trkpt lat="42.98402256517552" lon="12.147528294492322"><ele>492.0</ele><time>2026-04-12T09:33:16Z</time></trkpt><trkpt lat="42.9841116076943" lon="12.147512943764132"><ele>491.5</ele><time>2026-04-12T09:33:17Z</time></trkpt><trkpt lat="42.98419435013334" lon="12.147472511821446"><ele>491.0</ele><time>2026-04-12T09:33:18Z</time></trkpt><trkpt lat="42.98428283303453" lon="12.147452873623719"><ele>486.6</ele><time>2026-04-12T09:33:19Z</time></trkpt><trkpt lat="42.98437194618045" lon="12.147450014976156"><ele>482.20000000000005</ele><time>2026-04-12T09:33:20Z</time></trkpt><trkpt lat="42.9844594141664" lon="12.147475543926433"><ele>477.79999999999995</ele><time>2026-04-12T09:33:21Z</time></trkpt><trkpt lat="42.984539048497986" lon="12.147561579660913"><ele>473.4</ele><time>2026-04-12T09:33:22Z</time></trkpt><trkpt lat="42.984612765700085" lon="12.147677557965352"><ele>469.0</ele><time>2026-04-12T09:33:23Z</time></trkpt><trkpt lat="42.98468146000561" lon="12.147776175912014"><ele>469.0</ele><time>2026-04-12T09:33:24Z</time></trkpt><trkpt lat="42.984768381953536" lon="12.147877050743864"><ele>469.0</ele><time>2026-04-12T09:33:25Z</time></trkpt><trkpt lat="42.98486571976076" lon="12.147961026838383"><ele>469.0</ele><time>2026-04-12T09:33:26Z</time></trkpt><trkpt lat="42.98496834896351" lon="12.148047887043889"><ele>469.0</ele><time>2026-04-12T09:33:27Z</time></trkpt><trkpt lat="42.98506143754542" lon="12.148114327689656"><ele>467.2</ele><time>2026-04-12T09:33:28Z</time></trkpt><trkpt lat="42.98515198371226" lon="12.148199256944034"><ele>465.4</ele><time>2026-04-12T09:33:29Z</time></trkpt><trkpt lat="42.98523200065546" lon="12.148260944793611"><ele>463.6</ele><time>2026-04-12T09:33:30Z</time></trkpt><trkpt lat="42.98530058953001" lon="12.148302989482847"><ele>461.8</ele><time>2026-04-12T09:33:31Z</time></trkpt><trkpt lat="42.98536569026447" lon="12.148335011357014"><ele>460.0</ele><time>2026-04-12T09:33:32Z</time></trkpt><trkpt lat="42.9854766721273" lon="12.148317276536929"><ele>460.00000000000006</ele><time>2026-04-12T09:33:34Z</time></trkpt><trkpt lat="42.98557140338388" lon="12.148324536235103"><ele>460.0</ele><time>2026-04-12T09:33:37Z</time></trkpt><trkpt lat="42.98565681962198" lon="12.148358242303118"><ele>460.0</ele><time>2026-04-12T09:33:39Z</time></trkpt><trkpt lat="42.98576696477665" lon="12.148404759973456"><ele>460.0</ele><time>2026-04-12T09:33:41Z</time></trkpt><trkpt lat="42.98582085778156" lon="12.148450503277884"><ele>460.00000000000006</ele><time>2026-04-12T09:33:42Z</time></trkpt><trkpt lat="42.98587199942437" lon="12.148517840102992"><ele>460.0</ele><time>2026-04-12T09:33:43Z</time></trkpt><trkpt lat="42.985916583820035" lon="12.148622078106474"><ele>454.2</ele><time>2026-04-12T09:33:44Z</time></trkpt><trkpt lat="42.98595318222275" lon="12.14869213423527"><ele>448.4</ele><time>2026-04-12T09:33:45Z</time></trkpt><trkpt lat="42.986096725834834" lon="12.148713177420968"><ele>442.6</ele><time>2026-04-12T09:33:47Z</time></trkpt><trkpt lat="42.98618513014535" lon="12.148818903864413"><ele>436.8</ele><time>2026-04-12T09:33:49Z</time></trkpt><trkpt lat="42.98622689033262" lon="12.14890065655509"><ele>431.0</ele><time>2026-04-12T09:33:50Z</time></trkpt><trkpt lat="42.98629300500218" lon="12.148951172241675"><ele>431.0</ele><time>2026-04-12T09:33:51Z</time></trkpt><trkpt lat="42.98635458425284" lon="12.14900252118378"><ele>431.0</ele><time>2026-04-12T09:33:52Z</time></trkpt><trkpt lat="42.98641891376791" lon="12.149045219373521"><ele>431.0</ele><time>2026-04-12T09:33:53Z</time></trkpt><trkpt lat="42.986552308988976" lon="12.149063059010672"><ele>431.0</ele><time>2026-04-12T09:33:55Z</time></trkpt><trkpt lat="42.9866666680198" lon="12.149068747727219"><ele>431.0</ele><time>2026-04-12T09:33:57Z</time></trkpt><trkpt lat="42.986752027187364" lon="12.149152118255303"><ele>429.3333333333333</ele><time>2026-04-12T09:33:58Z</time></trkpt><trkpt lat="42.98681998142458" lon="12.149206391398884"><ele>427.66666666666663</ele><time>2026-04-12T09:33:59Z</time></trkpt><trkpt lat="42.986893800173874" lon="12.149231696410027"><ele>426.0</ele><time>2026-04-12T09:34:00Z</time></trkpt><trkpt lat="42.98695263154987" lon="12.149269702360662"><ele>424.33333333333337</ele><time>2026-04-12T09:34:01Z</time></trkpt><trkpt lat="42.98701330376507" lon="12.14929933434829"><ele>422.6666666666667</ele><time>2026-04-12T09:34:02Z</time></trkpt><trkpt lat="42.9870771811944" lon="12.149337305389476"><ele>421.0</ele><time>2026-04-12T09:34:03Z</time></trkpt><trkpt lat="42.98719839550696" lon="12.149399133478928"><ele>421.00000000000006</ele><time>2026-04-12T09:34:05Z</time></trkpt><trkpt lat="42.987266620843904" lon="12.149387188890394"><ele>421.0</ele><time>2026-04-12T09:34:06Z</time></trkpt><trkpt lat="42.98734381659551" lon="12.14937849554191"><ele>421.0</ele><time>2026-04-12T09:34:07Z</time></trkpt><trkpt lat="42.98742072084943" lon="12.149409746988761"><ele>421.0</ele><time>2026-04-12T09:34:08Z</time></trkpt><trkpt lat="42.98748555781422" lon="12.14943045283318"><ele>421.00000000000006</ele><time>2026-04-12T09:34:09Z</time></trkpt><trkpt lat="42.9875539937309" lon="12.14944728413599"><ele>421.0</ele><time>2026-04-12T09:34:10Z</time></trkpt><trkpt lat="42.987659516664294" lon="12.149494986472128"><ele>418.6666666666667</ele><time>2026-04-12T09:34:12Z</time></trkpt><trkpt lat="42.98772316108448" lon="12.149507419638217"><ele>416.33333333333337</ele><time>2026-04-12T09:34:13Z</time></trkpt><trkpt lat="42.987848597692434" lon="12.149520666049208"><ele>414.0</ele><time>2026-04-12T09:34:15Z</time></trkpt><trkpt lat="42.987922319748236" lon="12.149535319671436"><ele>411.66666666666663</ele><time>2026-04-12T09:34:16Z</time></trkpt><trkpt lat="42.987998176442" lon="12.149555008806024"><ele>409.3333333333333</ele><time>2026-04-12T09:34:17Z</time></trkpt><trkpt lat="42.98806232916898" lon="12.149530876518842"><ele>407.0</ele><time>2026-04-12T09:34:18Z</time></trkpt><trkpt lat="42.988117743232884" lon="12.149482313749575"><ele>406.99999999999994</ele><time>2026-04-12T09:34:19Z</time></trkpt><trkpt lat="42.98818871966202" lon="12.149440051957482"><ele>407.0</ele><time>2026-04-12T09:34:20Z</time></trkpt><trkpt lat="42.98826786055182" lon="12.149433553936055"><ele>407.0</ele><time>2026-04-12T09:34:21Z</time></trkpt><trkpt lat="42.98833870556945" lon="12.149410816434832"><ele>407.0</ele><time>2026-04-12T09:34:22Z</time></trkpt><trkpt lat="42.98839755064179" lon="12.149379433608454"><ele>406.99999999999994</ele><time>2026-04-12T09:34:23Z</time></trkpt><trkpt lat="42.98851350369529" lon="12.149405946312939"><ele>407.0</ele><time>2026-04-12T09:34:25Z</time></trkpt><trkpt lat="42.988580273283034" lon="12.14946061669245"><ele>404.8571428571429</ele><time>2026-04-12T09:34:26Z</time></trkpt><trkpt lat="42.98863907738468" lon="12.149506278989728"><ele>402.7142857142857</ele><time>2026-04-12T09:34:27Z</time></trkpt><trkpt lat="42.9887136778435" lon="12.149524682328448"><ele>400.57142857142856</ele><time>2026-04-12T09:34:28Z</time></trkpt><trkpt lat="42.98878305017875" lon="12.149538280013582"><ele>398.42857142857144</ele><time>2026-04-12T09:34:29Z</time></trkpt><trkpt lat="42.98884245605418" lon="12.149575696434667"><ele>396.2857142857143</ele><time>2026-04-12T09:34:30Z</time></trkpt><trkpt lat="42.98888703240666" lon="12.149637695729167"><ele>394.14285714285717</ele><time>2026-04-12T09:34:31Z</time></trkpt><trkpt lat="42.98893385522633" lon="12.149715528035681"><ele>392.0</ele><time>2026-04-12T09:34:32Z</time></trkpt><trkpt lat="42.98899265396995" lon="12.14979268388529"><ele>392.0</ele><time>2026-04-12T09:34:33Z</time></trkpt><trkpt lat="42.98904641262899" lon="12.149862287833129"><ele>392.0</ele><time>2026-04-12T09:34:34Z</time></trkpt><trkpt lat="42.989117258870614" lon="12.149983697909144"><ele>392.0</ele><time>2026-04-12T09:34:36Z</time></trkpt><trkpt lat="42.98917399551252" lon="12.150051549656911"><ele>392.0</ele><time>2026-04-12T09:34:38Z</time></trkpt><trkpt lat="42.98924050470584" lon="12.150156087371894"><ele>392.0</ele><time>2026-04-12T09:34:40Z</time></trkpt><trkpt lat="42.98929902203295" lon="12.150260369141945"><ele>387.6</ele><time>2026-04-12T09:34:42Z</time></trkpt><trkpt lat="42.98934710751599" lon="12.150366942331972"><ele>383.20000000000005</ele><time>2026-04-12T09:34:44Z</time></trkpt><trkpt lat="42.989423741341945" lon="12.150410615309884"><ele>378.8</ele><time>2026-04-12T09:34:46Z</time></trkpt><trkpt lat="42.98952646039533" lon="12.15043116807503"><ele>374.4</ele><time>2026-04-12T09:34:48Z</time></trkpt><trkpt lat="42.98961040335782" lon="12.150471580642584"><ele>370.0</ele><time>2026-04-12T09:34:50Z</time></trkpt><trkpt lat="42.98967301260082" lon="12.150397384770454"><ele>370.0</ele><time>2026-04-12T09:34:53Z</time></trkpt><trkpt lat="42.9897215296919" lon="12.150332635141453"><ele>370.0</ele><time>2026-04-12T09:34:55Z</time></trkpt><trkpt lat="42.98978765718911" lon="12.150253331877364"><ele>370.0</ele><time>2026-04-12T09:34:56Z</time></trkpt><trkpt lat="42.989836581765765" lon="12.150192829451345"><ele>370.0</ele><time>2026-04-12T09:34:57Z</time></trkpt><trkpt lat="42.989905525609245" lon="12.15010618138976"><ele>370.0</ele><time>2026-04-12T09:34:59Z</time></trkpt><trkpt lat="42.98998291611324" lon="12.150009426938324"><ele>370.0</ele><time>2026-04-12T09:35:01Z</time></trkpt><trkpt lat="42.99003963239956" lon="12.149888002982843"><ele>366.16666666666663</ele><time>2026-04-12T09:35:03Z</time></trkpt><trkpt lat="42.990109521621534" lon="12.1498302746074"><ele>362.3333333333333</ele><time>2026-04-12T09:35:05Z</time></trkpt><trkpt lat="42.99018397248329" lon="12.149837507583612"><ele>358.5</ele><time>2026-04-12T09:35:09Z</time></trkpt><trkpt lat="42.99024537296763" lon="12.149887612044319"><ele>354.6666666666667</ele><time>2026-04-12T09:35:16Z</time></trkpt><trkpt lat="42.99028789883325" lon="12.14998588960716"><ele>350.83333333333337</ele><time>2026-04-12T09:35:18Z</time></trkpt><trkpt lat="42.9903050568467" lon="12.150125431817484"><ele>347.0</ele><time>2026-04-12T09:35:20Z</time></trkpt><trkpt lat="42.990358946053526" lon="12.1501991323927"><ele>347.0</ele><time>2026-04-12T09:35:23Z</time></trkpt><trkpt lat="42.99039740347572" lon="12.150093782989869"><ele>347.0</ele><time>2026-04-12T09:35:25Z</time></trkpt><trkpt lat="42.99040980502275" lon="12.14993949260701"><ele>347.0</ele><time>2026-04-12T09:35:27Z</time></trkpt><trkpt lat="42.99045682850412" lon="12.149802080669359"><ele>347.0</ele><time>2026-04-12T09:35:29Z</time></trkpt><trkpt lat="42.990535544134694" lon="12.149666463028097"><ele>347.0</ele><time>2026-04-12T09:35:31Z</time></trkpt><trkpt lat="42.990550763038414" lon="12.1495801874016"><ele>347.0</ele><time>2026-04-12T09:35:32Z</time></trkpt><trkpt lat="42.990585827256254" lon="12.149474566103212"><ele>347.0</ele><time>2026-04-12T09:35:34Z</time></trkpt><trkpt lat="42.99065651187181" lon="12.149546452965302"><ele>347.0</ele><time>2026-04-12T09:35:36Z</time></trkpt><trkpt lat="42.990681097111384" lon="12.149638305450692"><ele>347.0</ele><time>2026-04-12T09:35:37Z</time></trkpt><trkpt lat="42.99069685602746" lon="12.149760988970494"><ele>347.0</ele><time>2026-04-12T09:35:38Z</time></trkpt><trkpt lat="42.990727276940056" lon="12.149868738298302"><ele>347.0</ele><time>2026-04-12T09:35:39Z</time></trkpt><trkpt lat="42.99076770540298" lon="12.149943009994187"><ele>343.0</ele><time>2026-04-12T09:35:40Z</time></trkpt><trkpt lat="42.99089324264837" lon="12.149927286279341"><ele>339.0</ele><time>2026-04-12T09:35:42Z</time></trkpt><trkpt lat="42.99094522743346" lon="12.149867744092944"><ele>335.0</ele><time>2026-04-12T09:35:43Z</time></trkpt><trkpt lat="42.990994091422685" lon="12.149788378621166"><ele>331.0</ele><time>2026-04-12T09:35:44Z</time></trkpt><trkpt lat="42.99110159336641" lon="12.149710143948685"><ele>327.0</ele><time>2026-04-12T09:35:46Z</time></trkpt><trkpt lat="42.99122075009423" lon="12.149694381901618"><ele>326.0</ele><time>2026-04-12T09:35:48Z</time></trkpt><trkpt lat="42.991349376251456" lon="12.149643719792435"><ele>325.0</ele><time>2026-04-12T09:35:50Z</time></trkpt><trkpt lat="42.99147591738043" lon="12.1495786960287"><ele>324.0</ele><time>2026-04-12T09:35:52Z</time></trkpt><trkpt lat="42.99154672982855" lon="12.149556762198745"><ele>323.0</ele><time>2026-04-12T09:35:53Z</time></trkpt><trkpt lat="42.99161571969623" lon="12.149563385375542"><ele>322.0</ele><time>2026-04-12T09:35:54Z</time></trkpt><trkpt lat="42.99172128042699" lon="12.149629121392401"><ele>318.16666666666663</ele><time>2026-04-12T09:35:56Z</time></trkpt><trkpt lat="42.991814119479926" lon="12.149718590102877"><ele>314.3333333333333</ele><time>2026-04-12T09:35:58Z</time></trkpt><trkpt lat="42.9918665501602" lon="12.149774367019596"><ele>310.5</ele><time>2026-04-12T09:35:59Z</time></trkpt><trkpt lat="42.99191584228658" lon="12.149847694872879"><ele>306.6666666666667</ele><time>2026-04-12T09:36:00Z</time></trkpt><trkpt lat="42.99194630813247" lon="12.149942241653905"><ele>302.83333333333337</ele><time>2026-04-12T09:36:01Z</time></trkpt><trkpt lat="42.99197029500347" lon="12.150047951558307"><ele>299.0</ele><time>2026-04-12T09:36:02Z</time></trkpt><trkpt lat="42.99198000673469" lon="12.150161890650251"><ele>299.0</ele><time>2026-04-12T09:36:03Z</time></trkpt><trkpt lat="42.9919909142227" lon="12.150271615513116"><ele>299.0</ele><time>2026-04-12T09:36:04Z</time></trkpt><trkpt lat="42.992010046521614" lon="12.150373838867084"><ele>299.0</ele><time>2026-04-12T09:36:05Z</time></trkpt><trkpt lat="42.992040836298465" lon="12.150461988342007"><ele>299.0</ele><time>2026-04-12T09:36:06Z</time></trkpt><trkpt lat="42.992084241061114" lon="12.150549741872068"><ele>299.0</ele><time>2026-04-12T09:36:07Z</time></trkpt><trkpt lat="42.99214331800861" lon="12.15060536334282"><ele>299.0</ele><time>2026-04-12T09:36:08Z</time></trkpt><trkpt lat="42.99222654059013" lon="12.150617442511486"><ele>299.0</ele><time>2026-04-12T09:36:09Z</time></trkpt><trkpt lat="42.99231029333661" lon="12.150601254495058"><ele>299.0</ele><time>2026-04-12T09:36:10Z</time></trkpt><trkpt lat="42.992385948911775" lon="12.150546144090795"><ele>299.0</ele><time>2026-04-12T09:36:11Z</time></trkpt><trkpt lat="42.99244380798486" lon="12.150494766092779"><ele>299.0</ele><time>2026-04-12T09:36:12Z</time></trkpt><trkpt lat="42.992511543152546" lon="12.150425763017749"><ele>299.0</ele><time>2026-04-12T09:36:13Z</time></trkpt><trkpt lat="42.992580663266544" lon="12.150359751834335"><ele>299.0</ele><time>2026-04-12T09:36:14Z</time></trkpt><trkpt lat="42.99264533413906" lon="12.150296699350315"><ele>295.1666666666667</ele><time>2026-04-12T09:36:15Z</time></trkpt><trkpt lat="42.99270699949773" lon="12.150235327346227"><ele>291.33333333333337</ele><time>2026-04-12T09:36:16Z</time></trkpt><trkpt lat="42.9927566940259" lon="12.150158307638364"><ele>287.5</ele><time>2026-04-12T09:36:17Z</time></trkpt><trkpt lat="42.99279424144088" lon="12.150041834063197"><ele>283.6666666666667</ele><time>2026-04-12T09:36:18Z</time></trkpt><trkpt lat="42.992819931047705" lon="12.149921150149856"><ele>279.8333333333333</ele><time>2026-04-12T09:36:19Z</time></trkpt><trkpt lat="42.992846743249075" lon="12.149810814496115"><ele>276.0</ele><time>2026-04-12T09:36:20Z</time></trkpt><trkpt lat="42.99286273417465" lon="12.149697881163185"><ele>275.0</ele><time>2026-04-12T09:36:21Z</time></trkpt><trkpt lat="42.992873598350215" lon="12.149604429912625"><ele>274.0</ele><time>2026-04-12T09:36:22Z</time></trkpt><trkpt lat="42.992924133898896" lon="12.149505125756779"><ele>273.0</ele><time>2026-04-12T09:36:24Z</time></trkpt><trkpt lat="42.9930076584648" lon="12.149584941842114"><ele>272.0</ele><time>2026-04-12T09:36:26Z</time></trkpt><trkpt lat="42.99306734366251" lon="12.149667880382516"><ele>271.0</ele><time>2026-04-12T09:36:27Z</time></trkpt><trkpt lat="42.993130423153424" lon="12.149803400154259"><ele>272.0</ele><time>2026-04-12T09:36:28Z</time></trkpt><trkpt lat="42.9931872548091" lon="12.149966527739645"><ele>273.0</ele><time>2026-04-12T09:36:29Z</time></trkpt><trkpt lat="42.99322321617906" lon="12.150103111774408"><ele>274.0</ele><time>2026-04-12T09:36:30Z</time></trkpt><trkpt lat="42.99323292286595" lon="12.150209384288765"><ele>275.0</ele><time>2026-04-12T09:36:31Z</time></trkpt><trkpt lat="42.99324257614327" lon="12.150355130383193"><ele>276.0</ele><time>2026-04-12T09:36:33Z</time></trkpt><trkpt lat="42.99332446808059" lon="12.150301212320542"><ele>273.1666666666667</ele><time>2026-04-12T09:36:36Z</time></trkpt><trkpt lat="42.99340078798831" lon="12.150251570512498"><ele>270.3333333333333</ele><time>2026-04-12T09:36:40Z</time></trkpt><trkpt lat="42.993453136305924" lon="12.150193436617759"><ele>267.5</ele><time>2026-04-12T09:36:41Z</time></trkpt><trkpt lat="42.993531300345865" lon="12.150157245437148"><ele>264.66666666666663</ele><time>2026-04-12T09:36:44Z</time></trkpt><trkpt lat="42.993628701506765" lon="12.150138568398114"><ele>261.8333333333333</ele><time>2026-04-12T09:36:46Z</time></trkpt><trkpt lat="42.99368858523044" lon="12.150167684760074"><ele>259.0</ele><time>2026-04-12T09:36:47Z</time></trkpt><trkpt lat="42.99398671883685" lon="12.150232064653704"><ele>259.0</ele><time>2026-04-12T09:36:50Z</time></trkpt><trkpt lat="42.99411385631708" lon="12.150242708685656"><ele>259.0</ele><time>2026-04-12T09:36:51Z</time></trkpt><trkpt lat="42.99422280671319" lon="12.150242485887263"><ele>259.0</ele><time>2026-04-12T09:36:52Z</time></trkpt><trkpt lat="42.994326196211674" lon="12.150232593493932"><ele>259.0</ele><time>2026-04-12T09:36:53Z</time></trkpt><trkpt lat="42.99442675013966" lon="12.15025870224999"><ele>259.0</ele><time>2026-04-12T09:36:54Z</time></trkpt><trkpt lat="42.994518464026335" lon="12.15029062805922"><ele>257.0</ele><time>2026-04-12T09:36:55Z</time></trkpt><trkpt lat="42.994602455477015" lon="12.150306326098319"><ele>255.0</ele><time>2026-04-12T09:36:56Z</time></trkpt><trkpt lat="42.99468522521611" lon="12.150326142369268"><ele>253.0</ele><time>2026-04-12T09:36:57Z</time></trkpt><trkpt lat="42.9947690069415" lon="12.150336242138076"><ele>251.0</ele><time>2026-04-12T09:36:58Z</time></trkpt><trkpt lat="42.99485755687868" lon="12.150352885909403"><ele>248.99999999999997</ele><time>2026-04-12T09:36:59Z</time></trkpt><trkpt lat="42.99495823513861" lon="12.150371248595704"><ele>247.0</ele><time>2026-04-12T09:37:00Z</time></trkpt><trkpt lat="42.99505025738241" lon="12.150381638388387"><ele>244.8</ele><time>2026-04-12T09:37:01Z</time></trkpt><trkpt lat="42.99514679111642" lon="12.150384898356064"><ele>242.6</ele><time>2026-04-12T09:37:02Z</time></trkpt><trkpt lat="42.99524256462616" lon="12.15038895486819"><ele>240.40000000000003</ele><time>2026-04-12T09:37:03Z</time></trkpt><trkpt lat="42.99533035891906" lon="12.150398616895625"><ele>238.20000000000002</ele><time>2026-04-12T09:37:04Z</time></trkpt><trkpt lat="42.99541747446939" lon="12.150393403082786"><ele>236.0</ele><time>2026-04-12T09:37:05Z</time></trkpt><trkpt lat="42.995509085990555" lon="12.15039488406603"><ele>236.0</ele><time>2026-04-12T09:37:06Z</time></trkpt><trkpt lat="42.995599946433174" lon="12.150396672923394"><ele>236.00000000000003</ele><time>2026-04-12T09:37:07Z</time></trkpt><trkpt lat="42.99569317918617" lon="12.150397899577044"><ele>236.00000000000003</ele><time>2026-04-12T09:37:08Z</time></trkpt><trkpt lat="42.99579168498532" lon="12.150389293785251"><ele>236.0</ele><time>2026-04-12T09:37:09Z</time></trkpt><trkpt lat="42.99589335785975" lon="12.150383180517336"><ele>236.0</ele><time>2026-04-12T09:37:10Z</time></trkpt><trkpt lat="42.99599172041559" lon="12.150370089063948"><ele>235.33333333333334</ele><time>2026-04-12T09:37:11Z</time></trkpt><trkpt lat="42.99608879425668" lon="12.15035034855304"><ele>234.66666666666669</ele><time>2026-04-12T09:37:12Z</time></trkpt><trkpt lat="42.99617839824634" lon="12.150349509563105"><ele>234.0</ele><time>2026-04-12T09:37:13Z</time></trkpt><trkpt lat="42.99625424706828" lon="12.150335350734768"><ele>233.33333333333331</ele><time>2026-04-12T09:37:14Z</time></trkpt><trkpt lat="42.99632020111007" lon="12.150331327257152"><ele>232.66666666666666</ele><time>2026-04-12T09:37:15Z</time></trkpt><trkpt lat="42.99638301840923" lon="12.150308686173512"><ele>232.0</ele><time>2026-04-12T09:37:17Z</time></trkpt><trkpt lat="42.99639980365542" lon="12.150198811272855"><ele>231.99999999999997</ele><time>2026-04-12T09:37:19Z</time></trkpt><trkpt lat="42.99637986160479" lon="12.150112289648234"><ele>232.0</ele><time>2026-04-12T09:37:20Z</time></trkpt><trkpt lat="42.996354051993244" lon="12.150021607030833"><ele>232.0</ele><time>2026-04-12T09:37:21Z</time></trkpt><trkpt lat="42.99633688123868" lon="12.149907045105538"><ele>232.0</ele><time>2026-04-12T09:37:22Z</time></trkpt><trkpt lat="42.99632921224798" lon="12.149778057163156"><ele>231.99999999999997</ele><time>2026-04-12T09:37:23Z</time></trkpt><trkpt lat="42.996325980672005" lon="12.149634556666696"><ele>232.0</ele><time>2026-04-12T09:37:24Z</time></trkpt><trkpt lat="42.99633211081123" lon="12.149484600378964"><ele>232.39999999999998</ele><time>2026-04-12T09:37:25Z</time></trkpt><trkpt lat="42.99634186212918" lon="12.149332053933037"><ele>232.79999999999998</ele><time>2026-04-12T09:37:26Z</time></trkpt><trkpt lat="42.996352297617904" lon="12.149173826091092"><ele>233.2</ele><time>2026-04-12T09:37:27Z</time></trkpt><trkpt lat="42.996372093571644" lon="12.149020985933097"><ele>233.6</ele><time>2026-04-12T09:37:28Z</time></trkpt><trkpt lat="42.996398755134685" lon="12.148884080259537"><ele>234.0</ele><time>2026-04-12T09:37:29Z</time></trkpt><trkpt lat="42.99643651208984" lon="12.148757437349275"><ele>234.2</ele><time>2026-04-12T09:37:30Z</time></trkpt><trkpt lat="42.99647861614347" lon="12.1486391461401"><ele>234.39999999999998</ele><time>2026-04-12T09:37:31Z</time></trkpt><trkpt lat="42.99655136429695" lon="12.148512748620966"><ele>234.6</ele><time>2026-04-12T09:37:32Z</time></trkpt><trkpt lat="42.99662149212636" lon="12.148396963209962"><ele>234.8</ele><time>2026-04-12T09:37:33Z</time></trkpt><trkpt lat="42.99668526555373" lon="12.148267717241806"><ele>235.0</ele><time>2026-04-12T09:37:34Z</time></trkpt><trkpt lat="42.99675341054738" lon="12.148133406697424"><ele>234.0</ele><time>2026-04-12T09:37:35Z</time></trkpt><trkpt lat="42.996811015769765" lon="12.147982308795974"><ele>233.0</ele><time>2026-04-12T09:37:36Z</time></trkpt><trkpt lat="42.99687057904441" lon="12.147812490768162"><ele>232.0</ele><time>2026-04-12T09:37:37Z</time></trkpt><trkpt lat="42.99691162667488" lon="12.147658956000223"><ele>231.0</ele><time>2026-04-12T09:37:38Z</time></trkpt><trkpt lat="42.99694094414039" lon="12.147522672679514"><ele>231.0</ele><time>2026-04-12T09:37:39Z</time></trkpt><trkpt lat="42.996965389772036" lon="12.147387157783168"><ele>231.00000000000003</ele><time>2026-04-12T09:37:40Z</time></trkpt><trkpt lat="42.99698530380708" lon="12.147250491005646"><ele>231.00000000000003</ele><time>2026-04-12T09:37:41Z</time></trkpt><trkpt lat="42.99700107013387" lon="12.14711978309662"><ele>231.0</ele><time>2026-04-12T09:37:42Z</time></trkpt><trkpt lat="42.99701867760113" lon="12.146975126690226"><ele>231.0</ele><time>2026-04-12T09:37:43Z</time></trkpt><trkpt lat="42.997035470798984" lon="12.146813041992504"><ele>231.0</ele><time>2026-04-12T09:37:44Z</time></trkpt><trkpt lat="42.99704443782573" lon="12.146649537750157"><ele>231.0</ele><time>2026-04-12T09:37:45Z</time></trkpt><trkpt lat="42.99704612732682" lon="12.146475215949883"><ele>231.0</ele><time>2026-04-12T09:37:46Z</time></trkpt><trkpt lat="42.997048253359104" lon="12.14627197784849"><ele>231.0</ele><time>2026-04-12T09:37:47Z</time></trkpt><trkpt lat="42.99705143031107" lon="12.146071116793824"><ele>231.0</ele><time>2026-04-12T09:37:48Z</time></trkpt><trkpt lat="42.99705405823671" lon="12.14590496755839"><ele>231.0</ele><time>2026-04-12T09:37:49Z</time></trkpt><trkpt lat="42.997056629693446" lon="12.14574238853408"><ele>231.0</ele><time>2026-04-12T09:37:50Z</time></trkpt><trkpt lat="42.997057652148314" lon="12.145591698237894"><ele>231.0</ele><time>2026-04-12T09:37:51Z</time></trkpt><trkpt lat="42.99705895478518" lon="12.145448307500443"><ele>231.20000000000002</ele><time>2026-04-12T09:37:52Z</time></trkpt><trkpt lat="42.99706633842775" lon="12.145315887234261"><ele>231.40000000000003</ele><time>2026-04-12T09:37:53Z</time></trkpt><trkpt lat="42.997086045463305" lon="12.145193227789925"><ele>231.6</ele><time>2026-04-12T09:37:54Z</time></trkpt><trkpt lat="42.997122735138454" lon="12.145074513963436"><ele>231.8</ele><time>2026-04-12T09:37:55Z</time></trkpt><trkpt lat="42.99717185273084" lon="12.144960021103637"><ele>232.0</ele><time>2026-04-12T09:37:56Z</time></trkpt><trkpt lat="42.9972003984833" lon="12.144833664277263"><ele>232.39999999999998</ele><time>2026-04-12T09:37:57Z</time></trkpt><trkpt lat="42.99723602509697" lon="12.144746889069832"><ele>232.79999999999998</ele><time>2026-04-12T09:37:58Z</time></trkpt><trkpt lat="42.99721164900315" lon="12.144628115149079"><ele>233.2</ele><time>2026-04-12T09:37:59Z</time></trkpt><trkpt lat="42.99721980228537" lon="12.144515372341447"><ele>233.6</ele><time>2026-04-12T09:38:00Z</time></trkpt><trkpt lat="42.99720967136552" lon="12.144382595764979"><ele>234.0</ele><time>2026-04-12T09:38:02Z</time></trkpt><trkpt lat="42.99731827998866" lon="12.14436104863187"><ele>234.0</ele><time>2026-04-12T09:38:05Z</time></trkpt><trkpt lat="42.997394622453506" lon="12.144380732853865"><ele>234.0</ele><time>2026-04-12T09:38:06Z</time></trkpt><trkpt lat="42.99746174820997" lon="12.144421430115846"><ele>234.0</ele><time>2026-04-12T09:38:07Z</time></trkpt><trkpt lat="42.997525648291884" lon="12.144461205817509"><ele>234.0</ele><time>2026-04-12T09:38:08Z</time></trkpt><trkpt lat="42.99760208701498" lon="12.144502715593333"><ele>234.0</ele><time>2026-04-12T09:38:09Z</time></trkpt><trkpt lat="42.997683520098875" lon="12.144550644365793"><ele>234.0</ele><time>2026-04-12T09:38:10Z</time></trkpt><trkpt lat="42.99776367698733" lon="12.144587517564055"><ele>233.79999999999998</ele><time>2026-04-12T09:38:11Z</time></trkpt><trkpt lat="42.99785080786023" lon="12.14462085966326"><ele>233.59999999999997</ele><time>2026-04-12T09:38:12Z</time></trkpt><trkpt lat="42.99794679073989" lon="12.144659857513192"><ele>233.4</ele><time>2026-04-12T09:38:13Z</time></trkpt><trkpt lat="42.99805243623552" lon="12.144695045450156"><ele>233.2</ele><time>2026-04-12T09:38:14Z</time></trkpt><trkpt lat="42.99816316901438" lon="12.144733078349924"><ele>233.0</ele><time>2026-04-12T09:38:15Z</time></trkpt><trkpt lat="42.998282680438074" lon="12.144775790913934"><ele>233.25</ele><time>2026-04-12T09:38:16Z</time></trkpt><trkpt lat="42.99840129958611" lon="12.144831400400331"><ele>233.5</ele><time>2026-04-12T09:38:17Z</time></trkpt><trkpt lat="42.99852609584212" lon="12.144851498871347"><ele>233.75</ele><time>2026-04-12T09:38:18Z</time></trkpt><trkpt lat="42.99864928946853" lon="12.144906389659045"><ele>234.0</ele><time>2026-04-12T09:38:19Z</time></trkpt><trkpt lat="42.9987801746621" lon="12.144935032030661"><ele>233.5</ele><time>2026-04-12T09:38:20Z</time></trkpt><trkpt lat="42.99890213050403" lon="12.144981275003794"><ele>233.0</ele><time>2026-04-12T09:38:21Z</time></trkpt><trkpt lat="42.99902295521944" lon="12.145020918775577"><ele>232.5</ele><time>2026-04-12T09:38:22Z</time></trkpt><trkpt lat="42.999141464048655" lon="12.145061399255686"><ele>232.0</ele><time>2026-04-12T09:38:23Z</time></trkpt><trkpt lat="42.999253133699945" lon="12.145113999690963"><ele>232.0</ele><time>2026-04-12T09:38:24Z</time></trkpt><trkpt lat="42.99935311949981" lon="12.14520314754348"><ele>232.0</ele><time>2026-04-12T09:38:25Z</time></trkpt><trkpt lat="42.99946495811338" lon="12.145267439162273"><ele>232.0</ele><time>2026-04-12T09:38:26Z</time></trkpt><trkpt lat="42.99956732733653" lon="12.145368860638488"><ele>232.0</ele><time>2026-04-12T09:38:27Z</time></trkpt><trkpt lat="42.99963778062675" lon="12.145466086140903"><ele>232.0</ele><time>2026-04-12T09:38:28Z</time></trkpt><trkpt lat="42.9997378695144" lon="12.14554243528054"><ele>232.0</ele><time>2026-04-12T09:38:29Z</time></trkpt><trkpt lat="42.99983720391208" lon="12.145637641042999"><ele>232.0</ele><time>2026-04-12T09:38:30Z</time></trkpt><trkpt lat="42.99993764121351" lon="12.145720307471434"><ele>232.0</ele><time>2026-04-12T09:38:31Z</time></trkpt><trkpt lat="43.000057218149834" lon="12.145734497024858"><ele>232.0</ele><time>2026-04-12T09:38:32Z</time></trkpt><trkpt lat="43.00017819560179" lon="12.145707446559223"><ele>232.0</ele><time>2026-04-12T09:38:33Z</time></trkpt><trkpt lat="43.00029864235849" lon="12.145677649865743"><ele>232.0</ele><time>2026-04-12T09:38:34Z</time></trkpt><trkpt lat="43.00041355417078" lon="12.14568962445659"><ele>232.0</ele><time>2026-04-12T09:38:35Z</time></trkpt><trkpt lat="43.00054181191599" lon="12.14567156533616"><ele>232.0</ele><time>2026-04-12T09:38:36Z</time></trkpt><trkpt lat="43.00065881145717" lon="12.145703764347752"><ele>232.0</ele><time>2026-04-12T09:38:37Z</time></trkpt><trkpt lat="43.00074922132987" lon="12.145763090308403"><ele>232.0</ele><time>2026-04-12T09:38:38Z</time></trkpt><trkpt lat="43.00084493923247" lon="12.145817355462288"><ele>232.0</ele><time>2026-04-12T09:38:39Z</time></trkpt><trkpt lat="43.00093141939498" lon="12.14586854119918"><ele>232.0</ele><time>2026-04-12T09:38:40Z</time></trkpt><trkpt lat="43.000987131161594" lon="12.145968563113641"><ele>232.6</ele><time>2026-04-12T09:38:41Z</time></trkpt><trkpt lat="43.001016731808356" lon="12.146063512397994"><ele>233.2</ele><time>2026-04-12T09:38:42Z</time></trkpt><trkpt lat="43.00106006998533" lon="12.146196664956006"><ele>233.8</ele><time>2026-04-12T09:38:44Z</time></trkpt><trkpt lat="43.00112651462148" lon="12.146273340254375"><ele>234.4</ele><time>2026-04-12T09:38:46Z</time></trkpt><trkpt lat="43.001247766351696" lon="12.146130845224025"><ele>235.0</ele><time>2026-04-12T09:38:49Z</time></trkpt><trkpt lat="43.00131134183175" lon="12.146004337192586"><ele>234.99999999999997</ele><time>2026-04-12T09:38:51Z</time></trkpt><trkpt lat="43.001418079201756" lon="12.145970561469193"><ele>235.0</ele><time>2026-04-12T09:38:53Z</time></trkpt><trkpt lat="43.001486985182986" lon="12.145978154383716"><ele>235.0</ele><time>2026-04-12T09:38:54Z</time></trkpt><trkpt lat="43.00156263676284" lon="12.145974077150829"><ele>235.0</ele><time>2026-04-12T09:38:55Z</time></trkpt><trkpt lat="43.00163517707254" lon="12.145962247625265"><ele>234.99999999999997</ele><time>2026-04-12T09:38:56Z</time></trkpt><trkpt lat="43.001719760963795" lon="12.14595143699511"><ele>235.0</ele><time>2026-04-12T09:38:57Z</time></trkpt><trkpt lat="43.00179265813418" lon="12.145912384069014"><ele>234.83333333333331</ele><time>2026-04-12T09:38:58Z</time></trkpt><trkpt lat="43.001869750669975" lon="12.145893285811034"><ele>234.66666666666666</ele><time>2026-04-12T09:38:59Z</time></trkpt><trkpt lat="43.001945172832855" lon="12.145875428163384"><ele>234.5</ele><time>2026-04-12T09:39:00Z</time></trkpt><trkpt lat="43.002016875420395" lon="12.145853821138811"><ele>234.33333333333331</ele><time>2026-04-12T09:39:01Z</time></trkpt><trkpt lat="43.00208889576005" lon="12.145831451936294"><ele>234.16666666666666</ele><time>2026-04-12T09:39:02Z</time></trkpt><trkpt lat="43.002170738192966" lon="12.145881157523396"><ele>234.0</ele><time>2026-04-12T09:39:03Z</time></trkpt><trkpt lat="43.002243663607324" lon="12.145868927258979"><ele>234.0</ele><time>2026-04-12T09:39:04Z</time></trkpt><trkpt lat="43.00235424597989" lon="12.145852624044402"><ele>233.99999999999997</ele><time>2026-04-12T09:39:06Z</time></trkpt><trkpt lat="43.002441152000785" lon="12.145841846821698"><ele>233.99999999999997</ele><time>2026-04-12T09:39:08Z</time></trkpt><trkpt lat="43.00251824277238" lon="12.14583367782436"><ele>234.0</ele><time>2026-04-12T09:39:10Z</time></trkpt><trkpt lat="43.00262950759121" lon="12.145786086154676"><ele>234.0</ele><time>2026-04-12T09:39:44Z</time></trkpt><trkpt lat="43.00270914797151" lon="12.145729393311083"><ele>234.16666666666666</ele><time>2026-04-12T09:39:46Z</time></trkpt><trkpt lat="43.00275244670906" lon="12.145651777191095"><ele>234.33333333333331</ele><time>2026-04-12T09:39:52Z</time></trkpt><trkpt lat="43.002736986469195" lon="12.14556680241293"><ele>234.5</ele><time>2026-04-12T09:39:56Z</time></trkpt><trkpt lat="43.00271674555304" lon="12.14547698080978"><ele>234.66666666666666</ele><time>2026-04-12T09:40:01Z</time></trkpt><trkpt lat="43.00283538828654" lon="12.145490946709083"><ele>234.83333333333331</ele><time>2026-04-12T09:41:19Z</time></trkpt><trkpt lat="43.00286123277746" lon="12.145595249123048"><ele>235.0</ele><time>2026-04-12T09:41:26Z</time></trkpt><trkpt lat="43.00290938648595" lon="12.145656270150743"><ele>235.0</ele><time>2026-04-12T09:41:34Z</time></trkpt><trkpt lat="43.00293823458524" lon="12.145787684925589"><ele>235.0</ele><time>2026-04-12T09:41:37Z</time></trkpt><trkpt lat="43.003050423050674" lon="12.145865569750635"><ele>235.0</ele><time>2026-04-12T09:41:43Z</time></trkpt><trkpt lat="43.002989041707316" lon="12.145886806143805"><ele>235.0</ele><time>2026-04-12T09:42:11Z</time></trkpt><trkpt lat="43.00291564510357" lon="12.145945017886504"><ele>235.0</ele><time>2026-04-12T09:42:17Z</time></trkpt><trkpt lat="43.00299354037036" lon="12.145871055067191"><ele>234.99999999999997</ele><time>2026-04-12T09:42:44Z</time></trkpt><trkpt lat="43.00304543600183" lon="12.145802995266909"><ele>235.0</ele><time>2026-04-12T09:42:50Z</time></trkpt><trkpt lat="43.00301513450249" lon="12.145727219027268"><ele>235.0</ele><time>2026-04-12T09:42:54Z</time></trkpt><trkpt lat="43.002912798222845" lon="12.145652627179471"><ele>235.0</ele><time>2026-04-12T09:43:36Z</time></trkpt><trkpt lat="43.00282927603317" lon="12.145678469241101"><ele>234.99999999999997</ele><time>2026-04-12T09:43:37Z</time></trkpt><trkpt lat="43.00277692166789" lon="12.14560185922633"><ele>235.0</ele><time>2026-04-12T09:43:43Z</time></trkpt><trkpt lat="43.002732712804196" lon="12.145536336070224"><ele>235.0</ele><time>2026-04-12T09:43:51Z</time></trkpt><trkpt lat="43.00280191849911" lon="12.145490024831995"><ele>235.0</ele><time>2026-04-12T09:44:06Z</time></trkpt><trkpt lat="43.0030059664915" lon="12.145454708383928"><ele>235.0</ele><time>2026-04-12T09:53:42Z</time></trkpt><trkpt lat="43.002941968499655" lon="12.145459978388255"><ele>235.0</ele><time>2026-04-12T09:54:02.999Z</time></trkpt><trkpt lat="43.002881441630095" lon="12.145490093327124"><ele>235.0</ele><time>2026-04-12T09:54:10Z</time></trkpt><trkpt lat="43.00281849615105" lon="12.14548088022332"><ele>235.0</ele><time>2026-04-12T09:56:26Z</time></trkpt><trkpt lat="43.00273994248922" lon="12.14546870912796"><ele>235.0</ele><time>2026-04-12T09:56:30Z</time></trkpt><trkpt lat="43.0029358402023" lon="12.145444178216994"><ele>235.0</ele><time>2026-04-12T09:58:44Z</time></trkpt><trkpt lat="43.003008513598125" lon="12.145424269366123"><ele>235.0</ele><time>2026-04-12T09:58:46Z</time></trkpt><trkpt lat="43.002938881212515" lon="12.14548272945973"><ele>235.0</ele><time>2026-04-12T09:59:02Z</time></trkpt><trkpt lat="43.00287585277909" lon="12.145486487603185"><ele>235.0</ele><time>2026-04-12T09:59:08Z</time></trkpt><trkpt lat="43.002803041567745" lon="12.145466499531546"><ele>235.0</ele><time>2026-04-12T09:59:18Z</time></trkpt></trkseg><trkseg><trkpt lat="43.00288571006484" lon="12.145601312632854"><ele>234.99999999999997</ele><time>2026-04-12T10:16:22Z</time></trkpt><trkpt lat="43.002898842054144" lon="12.14574059390109"><ele>235.0</ele><time>2026-04-12T10:16:24Z</time></trkpt><trkpt lat="43.00296493858718" lon="12.145851463356214"><ele>235.0</ele><time>2026-04-12T10:16:26Z</time></trkpt><trkpt lat="43.00303233379109" lon="12.145852817897573"><ele>235.0</ele><time>2026-04-12T10:16:27Z</time></trkpt><trkpt lat="43.00310062269025" lon="12.145857835016486"><ele>234.99999999999997</ele><time>2026-04-12T10:16:28Z</time></trkpt><trkpt lat="43.003171852625854" lon="12.145863952719756"><ele>235.0</ele><time>2026-04-12T10:16:29Z</time></trkpt><trkpt lat="43.00328656157883" lon="12.145876489516056"><ele>235.4</ele><time>2026-04-12T10:16:31Z</time></trkpt><trkpt lat="43.003373660551844" lon="12.145862421837931"><ele>235.8</ele><time>2026-04-12T10:16:33Z</time></trkpt><trkpt lat="43.00346324554439" lon="12.145882740007634"><ele>236.2</ele><time>2026-04-12T10:16:35Z</time></trkpt><trkpt lat="43.003541505487455" lon="12.145913036359882"><ele>236.6</ele><time>2026-04-12T10:16:38Z</time></trkpt><trkpt lat="43.00355866407654" lon="12.146079542291933"><ele>237.0</ele><time>2026-04-12T10:16:39Z</time></trkpt><trkpt lat="43.00357502562524" lon="12.146193832896873"><ele>237.0</ele><time>2026-04-12T10:16:41Z</time></trkpt><trkpt lat="43.00374589550094" lon="12.146224573469363"><ele>237.0</ele><time>2026-04-12T10:16:45Z</time></trkpt><trkpt lat="43.0039274346991" lon="12.146267348999796"><ele>237.0</ele><time>2026-04-12T10:16:47Z</time></trkpt><trkpt lat="43.00404665177509" lon="12.146346942369858"><ele>237.0</ele><time>2026-04-12T10:16:48Z</time></trkpt><trkpt lat="43.004140949854396" lon="12.146420682842368"><ele>237.0</ele><time>2026-04-12T10:16:49Z</time></trkpt><trkpt lat="43.00421517478501" lon="12.146462945192436"><ele>237.0</ele><time>2026-04-12T10:16:50Z</time></trkpt><trkpt lat="43.00429470966885" lon="12.146504410926477"><ele>237.0</ele><time>2026-04-12T10:16:51Z</time></trkpt><trkpt lat="43.00439313796508" lon="12.146543393604544"><ele>237.0</ele><time>2026-04-12T10:16:52Z</time></trkpt><trkpt lat="43.00448799447252" lon="12.146587187208201"><ele>238.39999999999998</ele><time>2026-04-12T10:16:53Z</time></trkpt><trkpt lat="43.00457482627471" lon="12.146629024274548"><ele>239.79999999999998</ele><time>2026-04-12T10:16:54Z</time></trkpt><trkpt lat="43.00467455253787" lon="12.146686064730433"><ele>241.2</ele><time>2026-04-12T10:16:55Z</time></trkpt><trkpt lat="43.00475224845411" lon="12.146719614611031"><ele>242.6</ele><time>2026-04-12T10:16:56Z</time></trkpt><trkpt lat="43.004835632762834" lon="12.146758059973717"><ele>244.0</ele><time>2026-04-12T10:16:57Z</time></trkpt><trkpt lat="43.00492259071427" lon="12.146793464528303"><ele>244.6</ele><time>2026-04-12T10:16:58Z</time></trkpt><trkpt lat="43.00500272272232" lon="12.146812410749394"><ele>245.2</ele><time>2026-04-12T10:16:59Z</time></trkpt><trkpt lat="43.00507284342398" lon="12.14685140171062"><ele>245.79999999999998</ele><time>2026-04-12T10:17:00Z</time></trkpt><trkpt lat="43.00517245332958" lon="12.146902112443291"><ele>246.39999999999998</ele><time>2026-04-12T10:17:01Z</time></trkpt><trkpt lat="43.00527821452488" lon="12.146947327582465"><ele>247.0</ele><time>2026-04-12T10:17:02Z</time></trkpt><trkpt lat="43.00537885060977" lon="12.1469933197337"><ele>247.0</ele><time>2026-04-12T10:17:03Z</time></trkpt><trkpt lat="43.00546538127768" lon="12.147025715378302"><ele>247.0</ele><time>2026-04-12T10:17:04Z</time></trkpt><trkpt lat="43.00556017775824" lon="12.147071428973641"><ele>247.0</ele><time>2026-04-12T10:17:05Z</time></trkpt><trkpt lat="43.00563996857344" lon="12.147101323288572"><ele>247.0</ele><time>2026-04-12T10:17:06Z</time></trkpt><trkpt lat="43.00575371395612" lon="12.14712724564662"><ele>247.0</ele><time>2026-04-12T10:17:07Z</time></trkpt><trkpt lat="43.005879054800445" lon="12.147173720866364"><ele>248.75</ele><time>2026-04-12T10:17:08Z</time></trkpt><trkpt lat="43.00602600553732" lon="12.147175007215582"><ele>250.5</ele><time>2026-04-12T10:17:09Z</time></trkpt><trkpt lat="43.00617378734441" lon="12.147133038515205"><ele>252.25</ele><time>2026-04-12T10:17:10Z</time></trkpt><trkpt lat="43.00630775207826" lon="12.147069537935526"><ele>254.0</ele><time>2026-04-12T10:17:11Z</time></trkpt><trkpt lat="43.006426952228075" lon="12.147002198797727"><ele>254.0</ele><time>2026-04-12T10:17:12Z</time></trkpt><trkpt lat="43.006529941922906" lon="12.146965708184212"><ele>253.99999999999997</ele><time>2026-04-12T10:17:13Z</time></trkpt><trkpt lat="43.00662264155815" lon="12.146924669371598"><ele>253.99999999999997</ele><time>2026-04-12T10:17:14Z</time></trkpt><trkpt lat="43.0067180858729" lon="12.146900168593616"><ele>254.0</ele><time>2026-04-12T10:17:15Z</time></trkpt><trkpt lat="43.006804712731046" lon="12.146857497351416"><ele>254.0</ele><time>2026-04-12T10:17:16Z</time></trkpt><trkpt lat="43.00688421028842" lon="12.146793745980553"><ele>256.6666666666667</ele><time>2026-04-12T10:17:17Z</time></trkpt><trkpt lat="43.006935839671804" lon="12.146718260119803"><ele>259.33333333333337</ele><time>2026-04-12T10:17:18Z</time></trkpt><trkpt lat="43.006992109765484" lon="12.146642928925038"><ele>262.0</ele><time>2026-04-12T10:17:20Z</time></trkpt><trkpt lat="43.00707540789215" lon="12.146747643898964"><ele>264.6666666666667</ele><time>2026-04-12T10:17:22Z</time></trkpt><trkpt lat="43.007071033427295" lon="12.146834722446645"><ele>267.3333333333333</ele><time>2026-04-12T10:17:23Z</time></trkpt><trkpt lat="43.00703999211554" lon="12.14693157244764"><ele>270.0</ele><time>2026-04-12T10:17:24Z</time></trkpt><trkpt lat="43.00698285185686" lon="12.14699189974044"><ele>270.0</ele><time>2026-04-12T10:17:26Z</time></trkpt><trkpt lat="43.00709329739236" lon="12.147088779226046"><ele>270.0</ele><time>2026-04-12T10:17:27Z</time></trkpt><trkpt lat="43.00718241819871" lon="12.147093232410517"><ele>270.0</ele><time>2026-04-12T10:17:28Z</time></trkpt><trkpt lat="43.00728175183375" lon="12.147084996576895"><ele>270.0</ele><time>2026-04-12T10:17:29Z</time></trkpt><trkpt lat="43.007380994391994" lon="12.147079863193808"><ele>270.0</ele><time>2026-04-12T10:17:30Z</time></trkpt><trkpt lat="43.00748755733488" lon="12.147072672747292"><ele>272.6</ele><time>2026-04-12T10:17:31Z</time></trkpt><trkpt lat="43.007598905024025" lon="12.147062640421343"><ele>275.2</ele><time>2026-04-12T10:17:32Z</time></trkpt><trkpt lat="43.00769927010368" lon="12.147054715759351"><ele>277.8</ele><time>2026-04-12T10:17:33Z</time></trkpt><trkpt lat="43.00779515366929" lon="12.14705031902717"><ele>280.4</ele><time>2026-04-12T10:17:34Z</time></trkpt><trkpt lat="43.007891560859576" lon="12.147047550967091"><ele>283.0</ele><time>2026-04-12T10:17:35Z</time></trkpt><trkpt lat="43.007988573922965" lon="12.147043210453731"><ele>283.0</ele><time>2026-04-12T10:17:36Z</time></trkpt><trkpt lat="43.00808881913106" lon="12.147041480468786"><ele>283.0</ele><time>2026-04-12T10:17:37Z</time></trkpt><trkpt lat="43.008195782053065" lon="12.147037724920471"><ele>283.0</ele><time>2026-04-12T10:17:38Z</time></trkpt><trkpt lat="43.00830365650697" lon="12.147033589902271"><ele>283.0</ele><time>2026-04-12T10:17:39Z</time></trkpt><trkpt lat="43.00841403621779" lon="12.14703187052521"><ele>283.0</ele><time>2026-04-12T10:17:40Z</time></trkpt><trkpt lat="43.00852360268649" lon="12.147031725521586"><ele>287.25</ele><time>2026-04-12T10:17:41Z</time></trkpt><trkpt lat="43.008639830128736" lon="12.147032506357444"><ele>291.5</ele><time>2026-04-12T10:17:42Z</time></trkpt><trkpt lat="43.008759502045194" lon="12.147021470812746"><ele>295.75</ele><time>2026-04-12T10:17:43Z</time></trkpt><trkpt lat="43.008878456964844" lon="12.147010472280622"><ele>300.0</ele><time>2026-04-12T10:17:44Z</time></trkpt><trkpt lat="43.008994805516565" lon="12.147003771007181"><ele>300.0</ele><time>2026-04-12T10:17:45Z</time></trkpt><trkpt lat="43.009102263467724" lon="12.146994678932023"><ele>300.0</ele><time>2026-04-12T10:17:46Z</time></trkpt><trkpt lat="43.009185146038625" lon="12.146996488799477"><ele>300.0</ele><time>2026-04-12T10:17:47Z</time></trkpt><trkpt lat="43.009249122145654" lon="12.147022119028636"><ele>300.0</ele><time>2026-04-12T10:17:48Z</time></trkpt><trkpt lat="43.00934762095619" lon="12.147042126148525"><ele>300.0</ele><time>2026-04-12T10:17:50Z</time></trkpt><trkpt lat="43.0094947744056" lon="12.146914563997255"><ele>304.0</ele><time>2026-04-12T10:17:52Z</time></trkpt><trkpt lat="43.0095651560518" lon="12.146807856969906"><ele>308.0</ele><time>2026-04-12T10:17:53Z</time></trkpt><trkpt lat="43.00964451957036" lon="12.146679036355199"><ele>312.0</ele><time>2026-04-12T10:17:54Z</time></trkpt><trkpt lat="43.009726098196616" lon="12.146553506533866"><ele>316.0</ele><time>2026-04-12T10:17:55Z</time></trkpt><trkpt lat="43.009812435976805" lon="12.146433255328803"><ele>316.0</ele><time>2026-04-12T10:17:56Z</time></trkpt><trkpt lat="43.00989121529141" lon="12.146325032881057"><ele>316.0</ele><time>2026-04-12T10:17:57Z</time></trkpt><trkpt lat="43.0099674615736" lon="12.146220290169953"><ele>316.0</ele><time>2026-04-12T10:17:58Z</time></trkpt><trkpt lat="43.01004046668705" lon="12.146120000370438"><ele>316.0</ele><time>2026-04-12T10:17:59Z</time></trkpt><trkpt lat="43.01011822021716" lon="12.146013944051482"><ele>316.0</ele><time>2026-04-12T10:18:00Z</time></trkpt><trkpt lat="43.01020561625027" lon="12.145894419966424"><ele>319.5</ele><time>2026-04-12T10:18:01Z</time></trkpt><trkpt lat="43.0102933748317" lon="12.145763855711541"><ele>323.0</ele><time>2026-04-12T10:18:02Z</time></trkpt><trkpt lat="43.01037903082865" lon="12.145648938646632"><ele>326.5</ele><time>2026-04-12T10:18:03Z</time></trkpt><trkpt lat="43.01045485475279" lon="12.145543774857947"><ele>330.0</ele><time>2026-04-12T10:18:04Z</time></trkpt><trkpt lat="43.01053531150375" lon="12.145423777271576"><ele>330.4</ele><time>2026-04-12T10:18:05Z</time></trkpt><trkpt lat="43.010616922105896" lon="12.145309905317403"><ele>330.8</ele><time>2026-04-12T10:18:06Z</time></trkpt><trkpt lat="43.01068967436759" lon="12.145219809181127"><ele>331.20000000000005</ele><time>2026-04-12T10:18:07Z</time></trkpt><trkpt lat="43.01077957722276" lon="12.145126255759628"><ele>331.6</ele><time>2026-04-12T10:18:08Z</time></trkpt><trkpt lat="43.01088619159992" lon="12.14508451440609"><ele>332.0</ele><time>2026-04-12T10:18:09Z</time></trkpt><trkpt lat="43.010999358795594" lon="12.14505812456114"><ele>334.5</ele><time>2026-04-12T10:18:10Z</time></trkpt><trkpt lat="43.0111136710031" lon="12.14503238568184"><ele>337.0</ele><time>2026-04-12T10:18:11Z</time></trkpt><trkpt lat="43.01123441520745" lon="12.145020202300914"><ele>339.5</ele><time>2026-04-12T10:18:12Z</time></trkpt><trkpt lat="43.0113670978313" lon="12.145020315058733"><ele>342.0</ele><time>2026-04-12T10:18:13Z</time></trkpt><trkpt lat="43.01150429253954" lon="12.145026689988217"><ele>342.0</ele><time>2026-04-12T10:18:14Z</time></trkpt><trkpt lat="43.01164616800982" lon="12.145050427631269"><ele>342.0</ele><time>2026-04-12T10:18:15Z</time></trkpt><trkpt lat="43.01179025418714" lon="12.14508561236803"><ele>342.0</ele><time>2026-04-12T10:18:16Z</time></trkpt><trkpt lat="43.01195160175912" lon="12.14507248372413"><ele>342.0</ele><time>2026-04-12T10:18:17Z</time></trkpt><trkpt lat="43.01210820621431" lon="12.14502340150087"><ele>342.0</ele><time>2026-04-12T10:18:18Z</time></trkpt><trkpt lat="43.01226942698938" lon="12.144943195372631"><ele>342.0</ele><time>2026-04-12T10:18:19Z</time></trkpt><trkpt lat="43.01242149972902" lon="12.144835455937182"><ele>345.0</ele><time>2026-04-12T10:18:20Z</time></trkpt><trkpt lat="43.0125634612378" lon="12.144723511089701"><ele>348.0</ele><time>2026-04-12T10:18:21Z</time></trkpt><trkpt lat="43.012694472501394" lon="12.144619500735077"><ele>351.0</ele><time>2026-04-12T10:18:22Z</time></trkpt><trkpt lat="43.01281255435539" lon="12.144515282312701"><ele>351.0</ele><time>2026-04-12T10:18:23Z</time></trkpt><trkpt lat="43.01292590480867" lon="12.14440163400818"><ele>351.0</ele><time>2026-04-12T10:18:24Z</time></trkpt><trkpt lat="43.013020550510284" lon="12.144275995966456"><ele>351.0</ele><time>2026-04-12T10:18:25Z</time></trkpt><trkpt lat="43.013103206555805" lon="12.144139218062756"><ele>351.0</ele><time>2026-04-12T10:18:26Z</time></trkpt><trkpt lat="43.01317910918061" lon="12.144035836315185"><ele>350.0</ele><time>2026-04-12T10:18:27Z</time></trkpt><trkpt lat="43.01324493663611" lon="12.143947474701685"><ele>349.0</ele><time>2026-04-12T10:18:28Z</time></trkpt><trkpt lat="43.0133053605244" lon="12.143867365390136"><ele>348.0</ele><time>2026-04-12T10:18:29Z</time></trkpt><trkpt lat="43.01337352957811" lon="12.143781665138832"><ele>347.0</ele><time>2026-04-12T10:18:30Z</time></trkpt><trkpt lat="43.013453279947534" lon="12.143682914455265"><ele>346.0</ele><time>2026-04-12T10:18:31Z</time></trkpt><trkpt lat="43.01353702862449" lon="12.143602658189247"><ele>349.75</ele><time>2026-04-12T10:18:32Z</time></trkpt><trkpt lat="43.013636975125316" lon="12.143520878465681"><ele>353.5</ele><time>2026-04-12T10:18:33Z</time></trkpt><trkpt lat="43.013743256381076" lon="12.143445172718453"><ele>357.25</ele><time>2026-04-12T10:18:34Z</time></trkpt><trkpt lat="43.01386041446442" lon="12.143376326211264"><ele>361.0</ele><time>2026-04-12T10:18:35Z</time></trkpt><trkpt lat="43.01396858200897" lon="12.143331111374708"><ele>361.0</ele><time>2026-04-12T10:18:36Z</time></trkpt><trkpt lat="43.01407340766986" lon="12.143312087309479"><ele>361.0</ele><time>2026-04-12T10:18:37Z</time></trkpt><trkpt lat="43.01417969679067" lon="12.143312369796678"><ele>361.0</ele><time>2026-04-12T10:18:38Z</time></trkpt><trkpt lat="43.01429219691798" lon="12.143313322522573"><ele>361.0</ele><time>2026-04-12T10:18:39Z</time></trkpt><trkpt lat="43.014410414418236" lon="12.143312882023055"><ele>361.0</ele><time>2026-04-12T10:18:40Z</time></trkpt><trkpt lat="43.01453061930132" lon="12.143309079372859"><ele>360.75</ele><time>2026-04-12T10:18:41Z</time></trkpt><trkpt lat="43.01464549312491" lon="12.14328632100815"><ele>360.5</ele><time>2026-04-12T10:18:42Z</time></trkpt><trkpt lat="43.01475833711571" lon="12.143231425728978"><ele>360.25</ele><time>2026-04-12T10:18:43Z</time></trkpt><trkpt lat="43.014861093158586" lon="12.143143222393816"><ele>360.0</ele><time>2026-04-12T10:18:44Z</time></trkpt><trkpt lat="43.014950118208965" lon="12.14303842914962"><ele>363.5</ele><time>2026-04-12T10:18:45Z</time></trkpt><trkpt lat="43.0150418707312" lon="12.142929303007088"><ele>367.0</ele><time>2026-04-12T10:18:46Z</time></trkpt><trkpt lat="43.01511408553685" lon="12.142794361363688"><ele>370.5</ele><time>2026-04-12T10:18:47Z</time></trkpt><trkpt lat="43.015177797580016" lon="12.14266447188951"><ele>374.0</ele><time>2026-04-12T10:18:48Z</time></trkpt><trkpt lat="43.01523540480943" lon="12.142517062801037"><ele>374.0</ele><time>2026-04-12T10:18:49Z</time></trkpt><trkpt lat="43.015306298587426" lon="12.142393635765826"><ele>374.0</ele><time>2026-04-12T10:18:50Z</time></trkpt><trkpt lat="43.015372124530344" lon="12.142276220857873"><ele>374.0</ele><time>2026-04-12T10:18:51Z</time></trkpt><trkpt lat="43.01545202606381" lon="12.142168051645768"><ele>374.0</ele><time>2026-04-12T10:18:52Z</time></trkpt><trkpt lat="43.015546453761786" lon="12.14208428318045"><ele>374.0</ele><time>2026-04-12T10:18:53Z</time></trkpt><trkpt lat="43.01564604631336" lon="12.142019496704581"><ele>374.4</ele><time>2026-04-12T10:18:54Z</time></trkpt><trkpt lat="43.015743949333" lon="12.141959108488443"><ele>374.79999999999995</ele><time>2026-04-12T10:18:55Z</time></trkpt><trkpt lat="43.015843398586796" lon="12.14189747204547"><ele>375.20000000000005</ele><time>2026-04-12T10:18:56Z</time></trkpt><trkpt lat="43.01593886182426" lon="12.141823101173468"><ele>375.6</ele><time>2026-04-12T10:18:57Z</time></trkpt><trkpt lat="43.01603928768452" lon="12.141736714601711"><ele>376.0</ele><time>2026-04-12T10:18:58Z</time></trkpt><trkpt lat="43.01613701335127" lon="12.141651420240569"><ele>379.0</ele><time>2026-04-12T10:18:59Z</time></trkpt><trkpt lat="43.01623336151885" lon="12.14155835227574"><ele>382.0</ele><time>2026-04-12T10:19:00Z</time></trkpt><trkpt lat="43.01632306134569" lon="12.141468533558822"><ele>385.0</ele><time>2026-04-12T10:19:01Z</time></trkpt><trkpt lat="43.01641245292537" lon="12.141364428913459"><ele>388.0</ele><time>2026-04-12T10:19:02Z</time></trkpt><trkpt lat="43.01649596925884" lon="12.141251615183942"><ele>388.5</ele><time>2026-04-12T10:19:03Z</time></trkpt><trkpt lat="43.01657805950584" lon="12.141144923191703"><ele>389.0</ele><time>2026-04-12T10:19:04Z</time></trkpt><trkpt lat="43.016670160620556" lon="12.141078758438601"><ele>389.5</ele><time>2026-04-12T10:19:05Z</time></trkpt><trkpt lat="43.01678131433638" lon="12.141054144092875"><ele>390.0</ele><time>2026-04-12T10:19:06Z</time></trkpt><trkpt lat="43.01690108631192" lon="12.141042974624531"><ele>393.0</ele><time>2026-04-12T10:19:07Z</time></trkpt><trkpt lat="43.01701851193022" lon="12.141016483561545"><ele>396.0</ele><time>2026-04-12T10:19:08Z</time></trkpt><trkpt lat="43.01713888725028" lon="12.140977496240497"><ele>399.0</ele><time>2026-04-12T10:19:09Z</time></trkpt><trkpt lat="43.017240474868586" lon="12.140926190648614"><ele>402.0</ele><time>2026-04-12T10:19:10Z</time></trkpt><trkpt lat="43.017345426596464" lon="12.140826174759702"><ele>402.75</ele><time>2026-04-12T10:19:11Z</time></trkpt><trkpt lat="43.01743678951482" lon="12.14069686794952"><ele>403.5</ele><time>2026-04-12T10:19:12Z</time></trkpt><trkpt lat="43.017536141523365" lon="12.140614549180803"><ele>404.25</ele><time>2026-04-12T10:19:13Z</time></trkpt><trkpt lat="43.01764747306711" lon="12.140574339135046"><ele>405.0</ele><time>2026-04-12T10:19:14Z</time></trkpt><trkpt lat="43.01775834893262" lon="12.140580633500983"><ele>406.0</ele><time>2026-04-12T10:19:15Z</time></trkpt><trkpt lat="43.017866027247614" lon="12.140635793995378"><ele>407.0</ele><time>2026-04-12T10:19:16Z</time></trkpt><trkpt lat="43.01798165830457" lon="12.140687940404375"><ele>408.0</ele><time>2026-04-12T10:19:17Z</time></trkpt><trkpt lat="43.018089485348966" lon="12.140732115723512"><ele>409.0</ele><time>2026-04-12T10:19:18Z</time></trkpt><trkpt lat="43.018194506949776" lon="12.140765581538632"><ele>409.0</ele><time>2026-04-12T10:19:19Z</time></trkpt><trkpt lat="43.01830966675002" lon="12.14077411196504"><ele>409.0</ele><time>2026-04-12T10:19:20Z</time></trkpt><trkpt lat="43.01843283722311" lon="12.14074755839158"><ele>409.0</ele><time>2026-04-12T10:19:21Z</time></trkpt><trkpt lat="43.0185395777615" lon="12.140679380351934"><ele>409.0</ele><time>2026-04-12T10:19:22Z</time></trkpt><trkpt lat="43.01862473410169" lon="12.140576172093214"><ele>414.2</ele><time>2026-04-12T10:19:23Z</time></trkpt><trkpt lat="43.01871621778564" lon="12.140517932917422"><ele>419.4</ele><time>2026-04-12T10:19:24Z</time></trkpt><trkpt lat="43.01881118326867" lon="12.140477293444915"><ele>424.6</ele><time>2026-04-12T10:19:25Z</time></trkpt><trkpt lat="43.0189291256185" lon="12.1404493490803"><ele>429.8</ele><time>2026-04-12T10:19:26Z</time></trkpt><trkpt lat="43.01904382711059" lon="12.140401119908269"><ele>435.0</ele><time>2026-04-12T10:19:27Z</time></trkpt><trkpt lat="43.01916034119788" lon="12.14038881807693"><ele>436.0</ele><time>2026-04-12T10:19:28Z</time></trkpt><trkpt lat="43.01926840677533" lon="12.140361890747426"><ele>437.0</ele><time>2026-04-12T10:19:29Z</time></trkpt><trkpt lat="43.01937859890518" lon="12.140331974114725"><ele>438.0</ele><time>2026-04-12T10:19:30Z</time></trkpt><trkpt lat="43.01949148563144" lon="12.140308406604273"><ele>439.0</ele><time>2026-04-12T10:19:31Z</time></trkpt><trkpt lat="43.01960556049821" lon="12.140338194410715"><ele>439.0</ele><time>2026-04-12T10:19:32Z</time></trkpt><trkpt lat="43.01971253211121" lon="12.140409160946778"><ele>439.0</ele><time>2026-04-12T10:19:33Z</time></trkpt><trkpt lat="43.01982576578462" lon="12.140480818780519"><ele>439.0</ele><time>2026-04-12T10:19:34Z</time></trkpt><trkpt lat="43.0199459201397" lon="12.140548039547273"><ele>439.0</ele><time>2026-04-12T10:19:35Z</time></trkpt><trkpt lat="43.02006228411192" lon="12.140616765345316"><ele>438.75</ele><time>2026-04-12T10:19:36Z</time></trkpt><trkpt lat="43.02016602027828" lon="12.140696520887532"><ele>438.5</ele><time>2026-04-12T10:19:37Z</time></trkpt><trkpt lat="43.02026762963201" lon="12.140784741953324"><ele>438.25</ele><time>2026-04-12T10:19:38Z</time></trkpt><trkpt lat="43.02036601827586" lon="12.140871917935854"><ele>438.0</ele><time>2026-04-12T10:19:39Z</time></trkpt><trkpt lat="43.02046287628384" lon="12.140948342084942"><ele>438.0</ele><time>2026-04-12T10:19:40Z</time></trkpt><trkpt lat="43.020555946636556" lon="12.141012961634496"><ele>437.99999999999994</ele><time>2026-04-12T10:19:41Z</time></trkpt><trkpt lat="43.020641982457576" lon="12.141077901830268"><ele>437.99999999999994</ele><time>2026-04-12T10:19:42Z</time></trkpt><trkpt lat="43.02072247414666" lon="12.141133330823463"><ele>438.0</ele><time>2026-04-12T10:19:43Z</time></trkpt><trkpt lat="43.020798655954614" lon="12.141202916702891"><ele>438.0</ele><time>2026-04-12T10:19:44Z</time></trkpt><trkpt lat="43.02086948177632" lon="12.14123192455568"><ele>441.0</ele><time>2026-04-12T10:19:45Z</time></trkpt><trkpt lat="43.020963537058044" lon="12.141240450023625"><ele>443.99999999999994</ele><time>2026-04-12T10:19:46Z</time></trkpt><trkpt lat="43.02104658424841" lon="12.141202288183203"><ele>446.99999999999994</ele><time>2026-04-12T10:19:47Z</time></trkpt><trkpt lat="43.02113759064222" lon="12.14120199640462"><ele>450.0</ele><time>2026-04-12T10:19:48Z</time></trkpt><trkpt lat="43.021233645294345" lon="12.141219729349242"><ele>453.0</ele><time>2026-04-12T10:19:49Z</time></trkpt><trkpt lat="43.0213460282718" lon="12.141201579500596"><ele>453.0</ele><time>2026-04-12T10:19:50Z</time></trkpt><trkpt lat="43.021462068650244" lon="12.141208496875088"><ele>453.0</ele><time>2026-04-12T10:19:51Z</time></trkpt><trkpt lat="43.02157533713321" lon="12.141218687544535"><ele>453.0</ele><time>2026-04-12T10:19:52Z</time></trkpt><trkpt lat="43.0217034275557" lon="12.141229967103655"><ele>453.0</ele><time>2026-04-12T10:19:53Z</time></trkpt><trkpt lat="43.021839293700396" lon="12.141234999142387"><ele>451.75</ele><time>2026-04-12T10:19:54Z</time></trkpt><trkpt lat="43.02196636446937" lon="12.141238458019894"><ele>450.5</ele><time>2026-04-12T10:19:55Z</time></trkpt><trkpt lat="43.02207967947324" lon="12.1412455436217"><ele>449.25</ele><time>2026-04-12T10:19:56Z</time></trkpt><trkpt lat="43.022192365153316" lon="12.1412472872556"><ele>448.0</ele><time>2026-04-12T10:19:57Z</time></trkpt><trkpt lat="43.02229636853829" lon="12.141247851644291"><ele>448.0</ele><time>2026-04-12T10:19:58Z</time></trkpt><trkpt lat="43.02238919453165" lon="12.141242870340202"><ele>447.99999999999994</ele><time>2026-04-12T10:19:59Z</time></trkpt><trkpt lat="43.02246989144865" lon="12.141224132159165"><ele>447.99999999999994</ele><time>2026-04-12T10:20:00Z</time></trkpt><trkpt lat="43.02254342966999" lon="12.14123243472551"><ele>448.0</ele><time>2026-04-12T10:20:01Z</time></trkpt><trkpt lat="43.02265188175925" lon="12.141218069652178"><ele>448.0</ele><time>2026-04-12T10:20:03Z</time></trkpt><trkpt lat="43.022768740839666" lon="12.141233369944521"><ele>446.79999999999995</ele><time>2026-04-12T10:20:05Z</time></trkpt><trkpt lat="43.022850299864835" lon="12.141254549322086"><ele>445.59999999999997</ele><time>2026-04-12T10:20:06Z</time></trkpt><trkpt lat="43.02293979752536" lon="12.141264998513403"><ele>444.40000000000003</ele><time>2026-04-12T10:20:07Z</time></trkpt><trkpt lat="43.02303426363499" lon="12.14128193520575"><ele>443.20000000000005</ele><time>2026-04-12T10:20:08Z</time></trkpt><trkpt lat="43.02313820502464" lon="12.141281509156418"><ele>442.0</ele><time>2026-04-12T10:20:09Z</time></trkpt><trkpt lat="43.023229071921364" lon="12.141263107421578"><ele>440.0</ele><time>2026-04-12T10:20:10Z</time></trkpt><trkpt lat="43.02333906910052" lon="12.14126714719117"><ele>438.0</ele><time>2026-04-12T10:20:11Z</time></trkpt><trkpt lat="43.02346905080642" lon="12.141293019885543"><ele>436.0</ele><time>2026-04-12T10:20:12Z</time></trkpt><trkpt lat="43.023593951213165" lon="12.141303316373717"><ele>434.0</ele><time>2026-04-12T10:20:13Z</time></trkpt><trkpt lat="43.0237141689097" lon="12.141290288696272"><ele>434.0</ele><time>2026-04-12T10:20:14Z</time></trkpt><trkpt lat="43.023837336065014" lon="12.141273811561788"><ele>434.0</ele><time>2026-04-12T10:20:15Z</time></trkpt><trkpt lat="43.023960279999116" lon="12.141268116129941"><ele>434.0</ele><time>2026-04-12T10:20:16Z</time></trkpt><trkpt lat="43.02407918038492" lon="12.141270367367586"><ele>434.0</ele><time>2026-04-12T10:20:17Z</time></trkpt><trkpt lat="43.024193944229474" lon="12.141244057087546"><ele>433.0</ele><time>2026-04-12T10:20:18Z</time></trkpt><trkpt lat="43.02431462102191" lon="12.141179845690216"><ele>432.0</ele><time>2026-04-12T10:20:19Z</time></trkpt><trkpt lat="43.02442379397601" lon="12.141084703422841"><ele>431.0</ele><time>2026-04-12T10:20:20Z</time></trkpt><trkpt lat="43.02450665709084" lon="12.140999400780625"><ele>430.0</ele><time>2026-04-12T10:20:21Z</time></trkpt><trkpt lat="43.02458028642381" lon="12.140932469902317"><ele>430.0</ele><time>2026-04-12T10:20:22Z</time></trkpt><trkpt lat="43.02465810678246" lon="12.14087942019129"><ele>430.0</ele><time>2026-04-12T10:20:23Z</time></trkpt><trkpt lat="43.02474797180397" lon="12.140861748710956"><ele>430.0</ele><time>2026-04-12T10:20:24Z</time></trkpt><trkpt lat="43.02485396203378" lon="12.14082252038643"><ele>430.0</ele><time>2026-04-12T10:20:25Z</time></trkpt><trkpt lat="43.024953246511565" lon="12.140759640940852"><ele>430.0</ele><time>2026-04-12T10:20:26Z</time></trkpt><trkpt lat="43.025059898265006" lon="12.140707064006605"><ele>429.0</ele><time>2026-04-12T10:20:27Z</time></trkpt><trkpt lat="43.025161606388615" lon="12.140634295399158"><ele>428.0</ele><time>2026-04-12T10:20:28Z</time></trkpt><trkpt lat="43.02525742525849" lon="12.14056514702391"><ele>427.0</ele><time>2026-04-12T10:20:29Z</time></trkpt><trkpt lat="43.02534424325511" lon="12.140494996528412"><ele>426.0</ele><time>2026-04-12T10:20:30Z</time></trkpt><trkpt lat="43.025426637788975" lon="12.140426721114649"><ele>425.0</ele><time>2026-04-12T10:20:31Z</time></trkpt><trkpt lat="43.0255054898061" lon="12.140380176477542"><ele>425.0</ele><time>2026-04-12T10:20:32Z</time></trkpt><trkpt lat="43.02559528831937" lon="12.140361207341167"><ele>425.0</ele><time>2026-04-12T10:20:33Z</time></trkpt><trkpt lat="43.02568548081931" lon="12.140347776921697"><ele>425.0</ele><time>2026-04-12T10:20:34Z</time></trkpt><trkpt lat="43.02579577904683" lon="12.140386324638222"><ele>425.0</ele><time>2026-04-12T10:20:35Z</time></trkpt><trkpt lat="43.025900769099316" lon="12.140404218023802"><ele>425.0</ele><time>2026-04-12T10:20:36Z</time></trkpt><trkpt lat="43.02600938822619" lon="12.140404653804195"><ele>426.0</ele><time>2026-04-12T10:20:37Z</time></trkpt><trkpt lat="43.026113999297245" lon="12.140427921854101"><ele>427.0</ele><time>2026-04-12T10:20:38Z</time></trkpt><trkpt lat="43.02621785926066" lon="12.140444033456214"><ele>428.0</ele><time>2026-04-12T10:20:39Z</time></trkpt><trkpt lat="43.02631474724823" lon="12.140459932385598"><ele>429.0</ele><time>2026-04-12T10:20:40Z</time></trkpt><trkpt lat="43.02640455376193" lon="12.140455500321208"><ele>430.0</ele><time>2026-04-12T10:20:41Z</time></trkpt><trkpt lat="43.026499455184506" lon="12.140436492452768"><ele>430.0</ele><time>2026-04-12T10:20:42Z</time></trkpt><trkpt lat="43.0265943640692" lon="12.14040887979985"><ele>430.0</ele><time>2026-04-12T10:20:43Z</time></trkpt><trkpt lat="43.026694994326284" lon="12.140374670494325"><ele>430.0</ele><time>2026-04-12T10:20:44Z</time></trkpt><trkpt lat="43.026789511776244" lon="12.140354984190662"><ele>430.0</ele><time>2026-04-12T10:20:45Z</time></trkpt><trkpt lat="43.02688020135576" lon="12.140332647326616"><ele>430.0</ele><time>2026-04-12T10:20:46Z</time></trkpt><trkpt lat="43.02696815717018" lon="12.14032007945779"><ele>430.4</ele><time>2026-04-12T10:20:47Z</time></trkpt><trkpt lat="43.02705212212489" lon="12.140322680750954"><ele>430.8</ele><time>2026-04-12T10:20:48Z</time></trkpt><trkpt lat="43.02714149829811" lon="12.140341630502698"><ele>431.20000000000005</ele><time>2026-04-12T10:20:49Z</time></trkpt><trkpt lat="43.02723746073489" lon="12.14037105363052"><ele>431.6</ele><time>2026-04-12T10:20:50Z</time></trkpt><trkpt lat="43.02733049464021" lon="12.140396355672427"><ele>432.0</ele><time>2026-04-12T10:20:51Z</time></trkpt><trkpt lat="43.02741977195651" lon="12.14041941132796"><ele>431.8</ele><time>2026-04-12T10:20:52Z</time></trkpt><trkpt lat="43.02751819209042" lon="12.140442219908078"><ele>431.6</ele><time>2026-04-12T10:20:53Z</time></trkpt><trkpt lat="43.027629929225206" lon="12.140463349515324"><ele>431.40000000000003</ele><time>2026-04-12T10:20:54Z</time></trkpt><trkpt lat="43.02774809180482" lon="12.14048164191786"><ele>431.20000000000005</ele><time>2026-04-12T10:20:55Z</time></trkpt><trkpt lat="43.0278581812196" lon="12.140512167600463"><ele>431.0</ele><time>2026-04-12T10:20:56Z</time></trkpt><trkpt lat="43.02796671011152" lon="12.140549418361077"><ele>431.0</ele><time>2026-04-12T10:20:57Z</time></trkpt><trkpt lat="43.0280772613846" lon="12.140580281245406"><ele>431.0</ele><time>2026-04-12T10:20:58Z</time></trkpt><trkpt lat="43.02818590099464" lon="12.140590343980875"><ele>431.0</ele><time>2026-04-12T10:20:59Z</time></trkpt><trkpt lat="43.02829026351551" lon="12.140565796584577"><ele>431.0</ele><time>2026-04-12T10:21:00Z</time></trkpt><trkpt lat="43.028390444416" lon="12.14050728040012"><ele>431.0</ele><time>2026-04-12T10:21:01Z</time></trkpt><trkpt lat="43.02849582559634" lon="12.140447168728551"><ele>431.20000000000005</ele><time>2026-04-12T10:21:02Z</time></trkpt><trkpt lat="43.02859708180334" lon="12.140397494064258"><ele>431.40000000000003</ele><time>2026-04-12T10:21:03Z</time></trkpt><trkpt lat="43.028693871899854" lon="12.140349404826216"><ele>431.6</ele><time>2026-04-12T10:21:04Z</time></trkpt><trkpt lat="43.02878997007691" lon="12.140319028525992"><ele>431.8</ele><time>2026-04-12T10:21:05Z</time></trkpt><trkpt lat="43.02888414171961" lon="12.140255109431674"><ele>432.0</ele><time>2026-04-12T10:21:06Z</time></trkpt><trkpt lat="43.028977438321" lon="12.140212650050968"><ele>432.0</ele><time>2026-04-12T10:21:07Z</time></trkpt><trkpt lat="43.02906880032454" lon="12.14015538195761"><ele>432.00000000000006</ele><time>2026-04-12T10:21:08Z</time></trkpt><trkpt lat="43.02917131682512" lon="12.140113873204383"><ele>432.00000000000006</ele><time>2026-04-12T10:21:09Z</time></trkpt><trkpt lat="43.029273513897444" lon="12.140063973813792"><ele>432.0</ele><time>2026-04-12T10:21:10Z</time></trkpt><trkpt lat="43.029373159294614" lon="12.140011831294695"><ele>432.0</ele><time>2026-04-12T10:21:11Z</time></trkpt><trkpt lat="43.02947423204869" lon="12.13998393076191"><ele>433.0</ele><time>2026-04-12T10:21:12Z</time></trkpt><trkpt lat="43.02957085007011" lon="12.13993365983181"><ele>434.00000000000006</ele><time>2026-04-12T10:21:13Z</time></trkpt><trkpt lat="43.02966599338389" lon="12.13985848219838"><ele>435.00000000000006</ele><time>2026-04-12T10:21:14Z</time></trkpt><trkpt lat="43.02976848579402" lon="12.139810446697686"><ele>436.0</ele><time>2026-04-12T10:21:15Z</time></trkpt><trkpt lat="43.02986925831457" lon="12.139755460464906"><ele>437.0</ele><time>2026-04-12T10:21:16Z</time></trkpt><trkpt lat="43.02996144904658" lon="12.139702638075029"><ele>437.0</ele><time>2026-04-12T10:21:17Z</time></trkpt><trkpt lat="43.030063792930505" lon="12.139648979199498"><ele>437.00000000000006</ele><time>2026-04-12T10:21:18Z</time></trkpt><trkpt lat="43.03016804832491" lon="12.139601225948331"><ele>437.00000000000006</ele><time>2026-04-12T10:21:19Z</time></trkpt><trkpt lat="43.03027633413499" lon="12.13956308996481"><ele>437.0</ele><time>2026-04-12T10:21:20Z</time></trkpt><trkpt lat="43.03037813624924" lon="12.139531371629053"><ele>437.0</ele><time>2026-04-12T10:21:21Z</time></trkpt><trkpt lat="43.03050771883618" lon="12.13951150798947"><ele>437.0</ele><time>2026-04-12T10:21:22Z</time></trkpt><trkpt lat="43.030618216638494" lon="12.139492983855998"><ele>437.0</ele><time>2026-04-12T10:21:23Z</time></trkpt><trkpt lat="43.03072987149221" lon="12.139492670361122"><ele>437.0</ele><time>2026-04-12T10:21:24Z</time></trkpt><trkpt lat="43.03086756268666" lon="12.139485798158786"><ele>437.0</ele><time>2026-04-12T10:21:25Z</time></trkpt><trkpt lat="43.030982865032264" lon="12.139467391612987"><ele>438.75</ele><time>2026-04-12T10:21:26Z</time></trkpt><trkpt lat="43.03110200562298" lon="12.139452429913407"><ele>440.5</ele><time>2026-04-12T10:21:27Z</time></trkpt><trkpt lat="43.03121425710708" lon="12.139434590949616"><ele>442.25</ele><time>2026-04-12T10:21:28Z</time></trkpt><trkpt lat="43.03132779032493" lon="12.139417123176074"><ele>444.0</ele><time>2026-04-12T10:21:29Z</time></trkpt><trkpt lat="43.03143787195856" lon="12.139388708403555"><ele>444.0</ele><time>2026-04-12T10:21:30Z</time></trkpt><trkpt lat="43.03154959961542" lon="12.139352397481435"><ele>444.0</ele><time>2026-04-12T10:21:31Z</time></trkpt><trkpt lat="43.031645590929436" lon="12.139327815693258"><ele>444.0</ele><time>2026-04-12T10:21:32Z</time></trkpt><trkpt lat="43.03174372648169" lon="12.139318919283447"><ele>444.0</ele><time>2026-04-12T10:21:33Z</time></trkpt><trkpt lat="43.03183249121655" lon="12.139279083458748"><ele>444.0</ele><time>2026-04-12T10:21:34Z</time></trkpt><trkpt lat="43.031913039332" lon="12.13919338110281"><ele>443.79999999999995</ele><time>2026-04-12T10:21:35Z</time></trkpt><trkpt lat="43.031999709452506" lon="12.139098180989318"><ele>443.59999999999997</ele><time>2026-04-12T10:21:36Z</time></trkpt><trkpt lat="43.03208791986817" lon="12.138987543237636"><ele>443.4</ele><time>2026-04-12T10:21:37Z</time></trkpt><trkpt lat="43.03216195019591" lon="12.138861238570353"><ele>443.2</ele><time>2026-04-12T10:21:38Z</time></trkpt><trkpt lat="43.032237229520334" lon="12.138774666966517"><ele>443.0</ele><time>2026-04-12T10:21:39Z</time></trkpt><trkpt lat="43.032288941395485" lon="12.13870618070983"><ele>442.99999999999994</ele><time>2026-04-12T10:21:40Z</time></trkpt><trkpt lat="43.0323124026788" lon="12.138617495161895"><ele>443.0</ele><time>2026-04-12T10:21:41Z</time></trkpt><trkpt lat="43.03238530837392" lon="12.138604082985227"><ele>443.0</ele><time>2026-04-12T10:21:42Z</time></trkpt><trkpt lat="43.03243256204872" lon="12.138517367452529"><ele>443.0</ele><time>2026-04-12T10:21:43Z</time></trkpt><trkpt lat="43.032494246117984" lon="12.1384558644189"><ele>442.99999999999994</ele><time>2026-04-12T10:21:44Z</time></trkpt><trkpt lat="43.03256398813124" lon="12.138386326557525"><ele>443.0</ele><time>2026-04-12T10:21:45Z</time></trkpt><trkpt lat="43.032616467441024" lon="12.138305939562148"><ele>445.59999999999997</ele><time>2026-04-12T10:21:46Z</time></trkpt><trkpt lat="43.03271371917662" lon="12.138182687777357"><ele>448.19999999999993</ele><time>2026-04-12T10:21:47Z</time></trkpt><trkpt lat="43.03279536650812" lon="12.138153671943666"><ele>450.8</ele><time>2026-04-12T10:21:48Z</time></trkpt><trkpt lat="43.03288769790777" lon="12.138063735576669"><ele>453.4</ele><time>2026-04-12T10:21:50Z</time></trkpt><trkpt lat="43.0329874243783" lon="12.137993240356336"><ele>456.0</ele><time>2026-04-12T10:21:51Z</time></trkpt><trkpt lat="43.03313713341879" lon="12.137980172526607"><ele>456.0</ele><time>2026-04-12T10:21:52Z</time></trkpt><trkpt lat="43.033256391684624" lon="12.1379780768603"><ele>456.0</ele><time>2026-04-12T10:21:53Z</time></trkpt><trkpt lat="43.033377774082695" lon="12.137947640789296"><ele>456.0</ele><time>2026-04-12T10:21:54Z</time></trkpt><trkpt lat="43.033479674774036" lon="12.137931482479019"><ele>456.0</ele><time>2026-04-12T10:21:55Z</time></trkpt><trkpt lat="43.033575873153175" lon="12.137901073806884"><ele>456.0</ele><time>2026-04-12T10:21:56Z</time></trkpt><trkpt lat="43.033684549028564" lon="12.137856929569221"><ele>458.20000000000005</ele><time>2026-04-12T10:21:57Z</time></trkpt><trkpt lat="43.033784606217424" lon="12.137815621730926"><ele>460.40000000000003</ele><time>2026-04-12T10:21:58Z</time></trkpt><trkpt lat="43.03388430613562" lon="12.137762001481725"><ele>462.6</ele><time>2026-04-12T10:21:59Z</time></trkpt><trkpt lat="43.03398548877058" lon="12.137702491310115"><ele>464.8</ele><time>2026-04-12T10:22:00Z</time></trkpt><trkpt lat="43.03407577785151" lon="12.137675087438334"><ele>467.0</ele><time>2026-04-12T10:22:01Z</time></trkpt><trkpt lat="43.03416884277426" lon="12.137623254756646"><ele>466.8</ele><time>2026-04-12T10:22:02Z</time></trkpt><trkpt lat="43.0342593312246" lon="12.137550219429812"><ele>466.6</ele><time>2026-04-12T10:22:03Z</time></trkpt><trkpt lat="43.03433182028897" lon="12.137494654052743"><ele>466.40000000000003</ele><time>2026-04-12T10:22:04Z</time></trkpt><trkpt lat="43.03437268416603" lon="12.137412153020316"><ele>466.20000000000005</ele><time>2026-04-12T10:22:05Z</time></trkpt><trkpt lat="43.034436226752824" lon="12.137326082794253"><ele>466.0</ele><time>2026-04-12T10:22:06Z</time></trkpt><trkpt lat="43.03450102829777" lon="12.137209973669119"><ele>466.0</ele><time>2026-04-12T10:22:07Z</time></trkpt><trkpt lat="43.03456005010154" lon="12.137100598285521"><ele>466.0</ele><time>2026-04-12T10:22:08Z</time></trkpt><trkpt lat="43.03461599252025" lon="12.136994271298489"><ele>466.0</ele><time>2026-04-12T10:22:09Z</time></trkpt><trkpt lat="43.03467641923042" lon="12.136857901175416"><ele>466.0</ele><time>2026-04-12T10:22:10Z</time></trkpt><trkpt lat="43.03477288869392" lon="12.13674772349445"><ele>466.0</ele><time>2026-04-12T10:22:11Z</time></trkpt><trkpt lat="43.03485536093171" lon="12.136637482698756"><ele>466.6</ele><time>2026-04-12T10:22:12Z</time></trkpt><trkpt lat="43.034920412323835" lon="12.136521977264525"><ele>467.20000000000005</ele><time>2026-04-12T10:22:13Z</time></trkpt><trkpt lat="43.03497656409594" lon="12.136402925351645"><ele>467.79999999999995</ele><time>2026-04-12T10:22:14Z</time></trkpt><trkpt lat="43.03501933866694" lon="12.136275330690367"><ele>468.4</ele><time>2026-04-12T10:22:15Z</time></trkpt><trkpt lat="43.03505793759829" lon="12.136151899935369"><ele>469.0</ele><time>2026-04-12T10:22:16Z</time></trkpt><trkpt lat="43.035079435529916" lon="12.136036432647561"><ele>469.00000000000006</ele><time>2026-04-12T10:22:17Z</time></trkpt><trkpt lat="43.03508317661156" lon="12.135930619954292"><ele>469.0</ele><time>2026-04-12T10:22:18Z</time></trkpt><trkpt lat="43.03507246372173" lon="12.13582863933163"><ele>469.0</ele><time>2026-04-12T10:22:19Z</time></trkpt><trkpt lat="43.03507271454337" lon="12.135733171281037"><ele>469.0</ele><time>2026-04-12T10:22:20Z</time></trkpt><trkpt lat="43.03516340230664" lon="12.135661394313736"><ele>469.00000000000006</ele><time>2026-04-12T10:22:22Z</time></trkpt><trkpt lat="43.035239602016645" lon="12.13570263883852"><ele>469.0</ele><time>2026-04-12T10:22:23Z</time></trkpt><trkpt lat="43.035323300617094" lon="12.135726112464042"><ele>466.33333333333337</ele><time>2026-04-12T10:22:24Z</time></trkpt><trkpt lat="43.035407482630674" lon="12.135714448628882"><ele>463.6666666666667</ele><time>2026-04-12T10:22:25Z</time></trkpt><trkpt lat="43.03548969936968" lon="12.135677857518283"><ele>461.0</ele><time>2026-04-12T10:22:26Z</time></trkpt><trkpt lat="43.03556317965333" lon="12.13565019250713"><ele>458.33333333333337</ele><time>2026-04-12T10:22:27Z</time></trkpt><trkpt lat="43.03564029865568" lon="12.135630078589429"><ele>455.6666666666667</ele><time>2026-04-12T10:22:28Z</time></trkpt><trkpt lat="43.03572266119647" lon="12.135607382321835"><ele>453.0</ele><time>2026-04-12T10:22:29Z</time></trkpt><trkpt lat="43.03579893770021" lon="12.13557102531367"><ele>451.5</ele><time>2026-04-12T10:22:30Z</time></trkpt><trkpt lat="43.03586262510045" lon="12.135528797999676"><ele>450.0</ele><time>2026-04-12T10:22:31Z</time></trkpt><trkpt lat="43.035922938884006" lon="12.135499274365836"><ele>448.5</ele><time>2026-04-12T10:22:32Z</time></trkpt><trkpt lat="43.03598367233393" lon="12.135476009869482"><ele>447.0</ele><time>2026-04-12T10:22:33Z</time></trkpt><trkpt lat="43.036054864329" lon="12.135456120006841"><ele>445.5</ele><time>2026-04-12T10:22:35Z</time></trkpt><trkpt lat="43.03616954741673" lon="12.135442196721096"><ele>444.0</ele><time>2026-04-12T10:22:58Z</time></trkpt><trkpt lat="43.036244659844115" lon="12.13541967678997"><ele>444.0</ele><time>2026-04-12T10:23:00Z</time></trkpt><trkpt lat="43.03632340746826" lon="12.135545843528911"><ele>444.0</ele><time>2026-04-12T10:23:02Z</time></trkpt><trkpt lat="43.036348000708294" lon="12.135629067017714"><ele>444.0</ele><time>2026-04-12T10:23:03Z</time></trkpt><trkpt lat="43.036340701214066" lon="12.135778209127622"><ele>444.0</ele><time>2026-04-12T10:23:05Z</time></trkpt><trkpt lat="43.03631536936744" lon="12.135864444625835"><ele>444.0</ele><time>2026-04-12T10:23:06Z</time></trkpt><trkpt lat="43.03628827706676" lon="12.135967910870999"><ele>444.0</ele><time>2026-04-12T10:23:07Z</time></trkpt><trkpt lat="43.03626623198531" lon="12.13607399804544"><ele>447.0</ele><time>2026-04-12T10:23:08Z</time></trkpt><trkpt lat="43.03626944353086" lon="12.13617238591031"><ele>450.0</ele><time>2026-04-12T10:23:09Z</time></trkpt><trkpt lat="43.03629138473895" lon="12.136293657197658"><ele>453.0</ele><time>2026-04-12T10:23:10Z</time></trkpt><trkpt lat="43.03631451767215" lon="12.136430718682028"><ele>456.0</ele><time>2026-04-12T10:23:11Z</time></trkpt><trkpt lat="43.036323525252506" lon="12.136556299960557"><ele>459.0</ele><time>2026-04-12T10:23:12Z</time></trkpt><trkpt lat="43.03632537291143" lon="12.136673486182401"><ele>462.0</ele><time>2026-04-12T10:23:13Z</time></trkpt><trkpt lat="43.03633826588649" lon="12.136780698968309"><ele>462.5</ele><time>2026-04-12T10:23:14Z</time></trkpt><trkpt lat="43.03633283725636" lon="12.136870699250801"><ele>463.0</ele><time>2026-04-12T10:23:15Z</time></trkpt><trkpt lat="43.036303619716" lon="12.136968437771621"><ele>463.5</ele><time>2026-04-12T10:23:16Z</time></trkpt><trkpt lat="43.03626077989129" lon="12.137045872436905"><ele>464.0</ele><time>2026-04-12T10:23:17Z</time></trkpt><trkpt lat="43.036187747473384" lon="12.137141523826765"><ele>464.5</ele><time>2026-04-12T10:23:18Z</time></trkpt><trkpt lat="43.03614039139887" lon="12.137238818635556"><ele>465.0</ele><time>2026-04-12T10:23:19Z</time></trkpt><trkpt lat="43.036126271167895" lon="12.137353442214962"><ele>463.3333333333333</ele><time>2026-04-12T10:23:20Z</time></trkpt><trkpt lat="43.036114782478386" lon="12.1374786365184"><ele>461.66666666666663</ele><time>2026-04-12T10:23:21Z</time></trkpt><trkpt lat="43.03611846085261" lon="12.137596578510767"><ele>460.0</ele><time>2026-04-12T10:23:22Z</time></trkpt><trkpt lat="43.03613530638486" lon="12.137706529522056"><ele>458.3333333333333</ele><time>2026-04-12T10:23:23Z</time></trkpt><trkpt lat="43.03617016944359" lon="12.137806287776185"><ele>456.66666666666663</ele><time>2026-04-12T10:23:24Z</time></trkpt><trkpt lat="43.036212396503814" lon="12.137918515369046"><ele>455.0</ele><time>2026-04-12T10:23:25Z</time></trkpt><trkpt lat="43.036250645059546" lon="12.137996828944392"><ele>455.0</ele><time>2026-04-12T10:23:26Z</time></trkpt><trkpt lat="43.036267192175586" lon="12.138093276977768"><ele>455.0</ele><time>2026-04-12T10:23:27Z</time></trkpt><trkpt lat="43.03626577800563" lon="12.138186626070196"><ele>455.0</ele><time>2026-04-12T10:23:28Z</time></trkpt><trkpt lat="43.036229563382484" lon="12.13826291411113"><ele>455.0</ele><time>2026-04-12T10:23:29Z</time></trkpt><trkpt lat="43.03616887774745" lon="12.13833240715182"><ele>455.0</ele><time>2026-04-12T10:23:30Z</time></trkpt><trkpt lat="43.036109223758345" lon="12.138387003103421"><ele>455.0</ele><time>2026-04-12T10:23:31Z</time></trkpt><trkpt lat="43.03604015144892" lon="12.1384206138635"><ele>455.0</ele><time>2026-04-12T10:23:32Z</time></trkpt><trkpt lat="43.035961918779456" lon="12.138435196844094"><ele>452.49999999999994</ele><time>2026-04-12T10:23:33Z</time></trkpt><trkpt lat="43.03587353062249" lon="12.138422449609594"><ele>450.0</ele><time>2026-04-12T10:23:34Z</time></trkpt><trkpt lat="43.035793065727205" lon="12.138531686967061"><ele>447.5</ele><time>2026-04-12T10:23:36Z</time></trkpt><trkpt lat="43.03578870746141" lon="12.13861773180835"><ele>445.0</ele><time>2026-04-12T10:23:37Z</time></trkpt><trkpt lat="43.03582194764538" lon="12.138700111246175"><ele>442.49999999999994</ele><time>2026-04-12T10:23:38Z</time></trkpt><trkpt lat="43.03586920308548" lon="12.13880267864007"><ele>440.0</ele><time>2026-04-12T10:23:39Z</time></trkpt><trkpt lat="43.03587495467501" lon="12.138897517962238"><ele>440.0</ele><time>2026-04-12T10:23:40Z</time></trkpt><trkpt lat="43.03584493191967" lon="12.138991638095685"><ele>440.0</ele><time>2026-04-12T10:23:42Z</time></trkpt><trkpt lat="43.03586531803224" lon="12.139188654987299"><ele>440.0</ele><time>2026-04-12T10:23:43Z</time></trkpt><trkpt lat="43.03587437284081" lon="12.139353178158071"><ele>440.0</ele><time>2026-04-12T10:23:44Z</time></trkpt><trkpt lat="43.035891924337676" lon="12.139483858761654"><ele>440.0</ele><time>2026-04-12T10:23:45Z</time></trkpt><trkpt lat="43.035904025618194" lon="12.139618905931208"><ele>439.8333333333333</ele><time>2026-04-12T10:23:46Z</time></trkpt><trkpt lat="43.035921648832996" lon="12.139739561672204"><ele>439.66666666666663</ele><time>2026-04-12T10:23:47Z</time></trkpt><trkpt lat="43.03595628110016" lon="12.139838438747542"><ele>439.5</ele><time>2026-04-12T10:23:48Z</time></trkpt><trkpt lat="43.03600545826041" lon="12.13990342128976"><ele>439.33333333333337</ele><time>2026-04-12T10:23:49Z</time></trkpt><trkpt lat="43.036049379289146" lon="12.139979056068942"><ele>439.1666666666667</ele><time>2026-04-12T10:23:50Z</time></trkpt><trkpt lat="43.0360859535258" lon="12.140070137328234"><ele>439.0</ele><time>2026-04-12T10:23:51Z</time></trkpt><trkpt lat="43.03613930835212" lon="12.14016392117892"><ele>439.00000000000006</ele><time>2026-04-12T10:23:52Z</time></trkpt><trkpt lat="43.036187879282934" lon="12.140268254088019"><ele>439.0</ele><time>2026-04-12T10:23:53Z</time></trkpt><trkpt lat="43.036228841674344" lon="12.140375608298664"><ele>439.0</ele><time>2026-04-12T10:23:54Z</time></trkpt><trkpt lat="43.036258908287486" lon="12.140489195589302"><ele>439.0</ele><time>2026-04-12T10:23:55Z</time></trkpt><trkpt lat="43.03628847289217" lon="12.14060812189298"><ele>439.00000000000006</ele><time>2026-04-12T10:23:56Z</time></trkpt><trkpt lat="43.03628014011002" lon="12.140719095896273"><ele>439.0</ele><time>2026-04-12T10:23:57Z</time></trkpt><trkpt lat="43.03627671269799" lon="12.140823419933385"><ele>439.6666666666667</ele><time>2026-04-12T10:23:58Z</time></trkpt><trkpt lat="43.036296404420774" lon="12.1409294912175"><ele>440.33333333333337</ele><time>2026-04-12T10:23:59Z</time></trkpt><trkpt lat="43.03630719842602" lon="12.141024893013379"><ele>441.0</ele><time>2026-04-12T10:24:00Z</time></trkpt><trkpt lat="43.03635431557348" lon="12.14116692195599"><ele>441.66666666666663</ele><time>2026-04-12T10:24:02Z</time></trkpt><trkpt lat="43.03638349648385" lon="12.141248965604074"><ele>442.3333333333333</ele><time>2026-04-12T10:24:03Z</time></trkpt><trkpt lat="43.036415900374614" lon="12.14140154250208"><ele>443.0</ele><time>2026-04-12T10:24:05Z</time></trkpt><trkpt lat="43.036424836731854" lon="12.141562156863602"><ele>440.8333333333333</ele><time>2026-04-12T10:24:07Z</time></trkpt><trkpt lat="43.03639591732328" lon="12.141652674486211"><ele>438.66666666666663</ele><time>2026-04-12T10:24:08Z</time></trkpt><trkpt lat="43.03634125676059" lon="12.141710942921762"><ele>436.5</ele><time>2026-04-12T10:24:09Z</time></trkpt><trkpt lat="43.0363165563652" lon="12.141820361698132"><ele>434.33333333333337</ele><time>2026-04-12T10:24:10Z</time></trkpt><trkpt lat="43.03628540327075" lon="12.141922540129693"><ele>432.1666666666667</ele><time>2026-04-12T10:24:11Z</time></trkpt><trkpt lat="43.036259608440055" lon="12.142011254066313"><ele>430.0</ele><time>2026-04-12T10:24:12Z</time></trkpt><trkpt lat="43.03623212625937" lon="12.14210776996571"><ele>430.0</ele><time>2026-04-12T10:24:13Z</time></trkpt><trkpt lat="43.036215022462905" lon="12.142193705532074"><ele>430.0</ele><time>2026-04-12T10:24:14Z</time></trkpt><trkpt lat="43.03623465061856" lon="12.142334438757004"><ele>430.0</ele><time>2026-04-12T10:24:16Z</time></trkpt><trkpt lat="43.03628567706475" lon="12.14239887307038"><ele>430.0</ele><time>2026-04-12T10:24:17Z</time></trkpt><trkpt lat="43.03633509154531" lon="12.142514179573553"><ele>430.0</ele><time>2026-04-12T10:24:19Z</time></trkpt><trkpt lat="43.03646394057226" lon="12.14247918354545"><ele>426.2</ele><time>2026-04-12T10:24:22Z</time></trkpt><trkpt lat="43.03653305025034" lon="12.14244236888511"><ele>422.4</ele><time>2026-04-12T10:24:23Z</time></trkpt><trkpt lat="43.0366085186913" lon="12.142397844843838"><ele>418.6</ele><time>2026-04-12T10:24:24Z</time></trkpt><trkpt lat="43.03671337683652" lon="12.142346033920282"><ele>414.8</ele><time>2026-04-12T10:24:25Z</time></trkpt><trkpt lat="43.03683831256253" lon="12.142305145204126"><ele>411.0</ele><time>2026-04-12T10:24:26Z</time></trkpt><trkpt lat="43.03694137279071" lon="12.142280227578786"><ele>408.6</ele><time>2026-04-12T10:24:27Z</time></trkpt><trkpt lat="43.03702409311905" lon="12.14226077883312"><ele>406.20000000000005</ele><time>2026-04-12T10:24:28Z</time></trkpt><trkpt lat="43.03716551846413" lon="12.142281524780833"><ele>403.79999999999995</ele><time>2026-04-12T10:24:30Z</time></trkpt><trkpt lat="43.03724198950622" lon="12.142297042981117"><ele>401.4</ele><time>2026-04-12T10:24:31Z</time></trkpt><trkpt lat="43.03732596766313" lon="12.142335401056421"><ele>399.0</ele><time>2026-04-12T10:24:32Z</time></trkpt><trkpt lat="43.03740228805544" lon="12.142363056940455"><ele>399.79999999999995</ele><time>2026-04-12T10:24:33Z</time></trkpt><trkpt lat="43.03749086228096" lon="12.14241026189913"><ele>400.59999999999997</ele><time>2026-04-12T10:24:34Z</time></trkpt><trkpt lat="43.03756608104507" lon="12.142458330101295"><ele>401.4</ele><time>2026-04-12T10:24:35Z</time></trkpt><trkpt lat="43.03762614286895" lon="12.142530855571398"><ele>402.2</ele><time>2026-04-12T10:24:36Z</time></trkpt><trkpt lat="43.03768722435122" lon="12.142629792666987"><ele>403.0</ele><time>2026-04-12T10:24:37Z</time></trkpt><trkpt lat="43.03774108385869" lon="12.14274226305916"><ele>403.0</ele><time>2026-04-12T10:24:38Z</time></trkpt><trkpt lat="43.03779199814983" lon="12.142862578343074"><ele>403.0</ele><time>2026-04-12T10:24:39Z</time></trkpt><trkpt lat="43.03785221722485" lon="12.142980502446193"><ele>403.0</ele><time>2026-04-12T10:24:40Z</time></trkpt><trkpt lat="43.03790794553374" lon="12.143075354247998"><ele>403.0</ele><time>2026-04-12T10:24:41Z</time></trkpt><trkpt lat="43.03796252326692" lon="12.143168004231848"><ele>403.0</ele><time>2026-04-12T10:24:42Z</time></trkpt><trkpt lat="43.038013310109925" lon="12.143251895424013"><ele>404.2</ele><time>2026-04-12T10:24:43Z</time></trkpt><trkpt lat="43.03808391499202" lon="12.143306544257815"><ele>405.4</ele><time>2026-04-12T10:24:44Z</time></trkpt><trkpt lat="43.0381828076131" lon="12.14336244360799"><ele>406.59999999999997</ele><time>2026-04-12T10:24:45Z</time></trkpt><trkpt lat="43.03828701997165" lon="12.143388692632248"><ele>407.79999999999995</ele><time>2026-04-12T10:24:46Z</time></trkpt><trkpt lat="43.03834713189244" lon="12.14341571176897"><ele>409.0</ele><time>2026-04-12T10:24:47Z</time></trkpt><trkpt lat="43.03845060318346" lon="12.143534518542088"><ele>409.0</ele><time>2026-04-12T10:24:49Z</time></trkpt><trkpt lat="43.03850736913628" lon="12.143642794678158"><ele>409.0</ele><time>2026-04-12T10:24:50Z</time></trkpt><trkpt lat="43.03856640770771" lon="12.143752529899265"><ele>409.0</ele><time>2026-04-12T10:24:51Z</time></trkpt><trkpt lat="43.03860176646749" lon="12.143840466121176"><ele>409.0</ele><time>2026-04-12T10:24:52Z</time></trkpt><trkpt lat="43.03863395667684" lon="12.14395584918103"><ele>409.0</ele><time>2026-04-12T10:24:53Z</time></trkpt><trkpt lat="43.0386794319092" lon="12.144088713328339"><ele>412.6666666666667</ele><time>2026-04-12T10:24:54Z</time></trkpt><trkpt lat="43.0387281048125" lon="12.144193620496269"><ele>416.33333333333337</ele><time>2026-04-12T10:24:55Z</time></trkpt><trkpt lat="43.03877172574572" lon="12.144308709212925"><ele>420.0</ele><time>2026-04-12T10:24:56Z</time></trkpt><trkpt lat="43.03881500949795" lon="12.144423904667395"><ele>423.66666666666663</ele><time>2026-04-12T10:24:57Z</time></trkpt><trkpt lat="43.03884003496407" lon="12.144513410138666"><ele>427.3333333333333</ele><time>2026-04-12T10:24:58Z</time></trkpt><trkpt lat="43.03889358779041" lon="12.14457335600472"><ele>431.0</ele><time>2026-04-12T10:24:59Z</time></trkpt><trkpt lat="43.03895561875168" lon="12.144595747658627"><ele>431.0</ele><time>2026-04-12T10:25:00Z</time></trkpt><trkpt lat="43.03911951140146" lon="12.144588938570177"><ele>431.0</ele><time>2026-04-12T10:25:02Z</time></trkpt><trkpt lat="43.03922557241149" lon="12.144609995831068"><ele>431.0</ele><time>2026-04-12T10:25:03Z</time></trkpt><trkpt lat="43.039319403643205" lon="12.144613923683067"><ele>431.0</ele><time>2026-04-12T10:25:04Z</time></trkpt><trkpt lat="43.0394047782752" lon="12.144646753472909"><ele>431.8</ele><time>2026-04-12T10:25:05Z</time></trkpt><trkpt lat="43.039473210723315" lon="12.144692677552685"><ele>432.6</ele><time>2026-04-12T10:25:06Z</time></trkpt><trkpt lat="43.039552817803845" lon="12.144788752215316"><ele>433.4</ele><time>2026-04-12T10:25:07Z</time></trkpt><trkpt lat="43.03964042272988" lon="12.144861171818215"><ele>434.2</ele><time>2026-04-12T10:25:08Z</time></trkpt><trkpt lat="43.03973180877971" lon="12.144926228632869"><ele>435.0</ele><time>2026-04-12T10:25:09Z</time></trkpt><trkpt lat="43.039818926622694" lon="12.144971446915163"><ele>435.0</ele><time>2026-04-12T10:25:10Z</time></trkpt><trkpt lat="43.03988379191328" lon="12.145013959945054"><ele>435.0</ele><time>2026-04-12T10:25:11Z</time></trkpt><trkpt lat="43.040024127762024" lon="12.144987529359833"><ele>435.0</ele><time>2026-04-12T10:25:13Z</time></trkpt><trkpt lat="43.040101719416725" lon="12.144966580622823"><ele>435.0</ele><time>2026-04-12T10:25:14Z</time></trkpt><trkpt lat="43.04016325082322" lon="12.1449322770564"><ele>435.0</ele><time>2026-04-12T10:25:15Z</time></trkpt><trkpt lat="43.040291640300055" lon="12.144964323481624"><ele>434.2</ele><time>2026-04-12T10:25:17Z</time></trkpt><trkpt lat="43.04036018643621" lon="12.144968698743074"><ele>433.4</ele><time>2026-04-12T10:25:18Z</time></trkpt><trkpt lat="43.04043221787774" lon="12.144875081458325"><ele>432.6</ele><time>2026-04-12T10:25:20Z</time></trkpt><trkpt lat="43.04044677126438" lon="12.144775836995896"><ele>431.8</ele><time>2026-04-12T10:25:21Z</time></trkpt><trkpt lat="43.040461316622576" lon="12.144672085754117"><ele>431.0</ele><time>2026-04-12T10:25:22Z</time></trkpt><trkpt lat="43.0404635475097" lon="12.14449344494468"><ele>428.49999999999994</ele><time>2026-04-12T10:25:24Z</time></trkpt><trkpt lat="43.04046821505183" lon="12.144384970538276"><ele>426.0</ele><time>2026-04-12T10:25:25Z</time></trkpt><trkpt lat="43.04049460089212" lon="12.144296899865974"><ele>423.5</ele><time>2026-04-12T10:25:26Z</time></trkpt><trkpt lat="43.04054372148327" lon="12.144190043651752"><ele>421.0</ele><time>2026-04-12T10:25:27Z</time></trkpt><trkpt lat="43.04059623528979" lon="12.144097063766477"><ele>418.49999999999994</ele><time>2026-04-12T10:25:28Z</time></trkpt><trkpt lat="43.04065805593969" lon="12.144009213250337"><ele>416.0</ele><time>2026-04-12T10:25:29Z</time></trkpt><trkpt lat="43.040703695411814" lon="12.143948376386405"><ele>415.0</ele><time>2026-04-12T10:25:30Z</time></trkpt><trkpt lat="43.04078430354118" lon="12.143951503360345"><ele>414.0</ele><time>2026-04-12T10:25:32Z</time></trkpt><trkpt lat="43.040891666932104" lon="12.144075438607434"><ele>413.0</ele><time>2026-04-12T10:25:34Z</time></trkpt><trkpt lat="43.04095726845338" lon="12.144156866173908"><ele>412.0</ele><time>2026-04-12T10:25:35Z</time></trkpt><trkpt lat="43.041026705833026" lon="12.144221666097186"><ele>411.0</ele><time>2026-04-12T10:25:36Z</time></trkpt><trkpt lat="43.04108679711028" lon="12.144248963244957"><ele>415.4</ele><time>2026-04-12T10:25:37Z</time></trkpt><trkpt lat="43.04118814524269" lon="12.144244967826024"><ele>419.8</ele><time>2026-04-12T10:25:38Z</time></trkpt><trkpt lat="43.04128465528828" lon="12.14424706807403"><ele>424.19999999999993</ele><time>2026-04-12T10:25:39Z</time></trkpt><trkpt lat="43.04138664270803" lon="12.144240291736415"><ele>428.59999999999997</ele><time>2026-04-12T10:25:40Z</time></trkpt><trkpt lat="43.041465064381015" lon="12.144236864827027"><ele>433.0</ele><time>2026-04-12T10:25:41Z</time></trkpt><trkpt lat="43.04155619319576" lon="12.14415421731877"><ele>433.0</ele><time>2026-04-12T10:25:43Z</time></trkpt><trkpt lat="43.041572878281556" lon="12.144047806436879"><ele>432.99999999999994</ele><time>2026-04-12T10:25:44Z</time></trkpt><trkpt lat="43.041605121909264" lon="12.143942551453893"><ele>432.99999999999994</ele><time>2026-04-12T10:25:45Z</time></trkpt><trkpt lat="43.04167754017722" lon="12.143827917625703"><ele>433.0</ele><time>2026-04-12T10:25:46Z</time></trkpt><trkpt lat="43.04174308752547" lon="12.143732405764121"><ele>433.0</ele><time>2026-04-12T10:25:47Z</time></trkpt><trkpt lat="43.04180953999043" lon="12.14363640987053"><ele>430.50000000000006</ele><time>2026-04-12T10:25:48Z</time></trkpt><trkpt lat="43.04185886637846" lon="12.143565799925064"><ele>428.0</ele><time>2026-04-12T10:25:49Z</time></trkpt><trkpt lat="43.04192698228441" lon="12.14352071627307"><ele>425.5</ele><time>2026-04-12T10:25:50Z</time></trkpt><trkpt lat="43.04201827642943" lon="12.143514219566788"><ele>423.0</ele><time>2026-04-12T10:25:51Z</time></trkpt><trkpt lat="43.04211515017846" lon="12.143494988320628"><ele>420.50000000000006</ele><time>2026-04-12T10:25:52Z</time></trkpt><trkpt lat="43.04219645773338" lon="12.143449488436593"><ele>418.0</ele><time>2026-04-12T10:25:53Z</time></trkpt><trkpt lat="43.042277751861285" lon="12.143414484946419"><ele>418.0</ele><time>2026-04-12T10:25:54Z</time></trkpt><trkpt lat="43.04236753246147" lon="12.143371678089961"><ele>418.0</ele><time>2026-04-12T10:25:55Z</time></trkpt><trkpt lat="43.042461790581484" lon="12.143333450271294"><ele>418.0</ele><time>2026-04-12T10:25:56Z</time></trkpt><trkpt lat="43.042566893510376" lon="12.143318319084372"><ele>418.0</ele><time>2026-04-12T10:25:57Z</time></trkpt><trkpt lat="43.042669648625804" lon="12.143336857548272"><ele>418.0</ele><time>2026-04-12T10:25:58Z</time></trkpt><trkpt lat="43.042773679989025" lon="12.143380527442655"><ele>419.1428571428571</ele><time>2026-04-12T10:25:59Z</time></trkpt><trkpt lat="43.04284881482987" lon="12.143401676288953"><ele>420.2857142857143</ele><time>2026-04-12T10:26:00Z</time></trkpt><trkpt lat="43.04291332317973" lon="12.14338043973615"><ele>421.42857142857144</ele><time>2026-04-12T10:26:01Z</time></trkpt><trkpt lat="43.042963665691026" lon="12.143314901589921"><ele>422.57142857142856</ele><time>2026-04-12T10:26:02Z</time></trkpt><trkpt lat="43.0430148757519" lon="12.143230410839566"><ele>423.7142857142857</ele><time>2026-04-12T10:26:03Z</time></trkpt><trkpt lat="43.04307330832973" lon="12.143187372860954"><ele>424.85714285714283</ele><time>2026-04-12T10:26:04Z</time></trkpt><trkpt lat="43.043149365534944" lon="12.143207974518237"><ele>426.0</ele><time>2026-04-12T10:26:05Z</time></trkpt><trkpt lat="43.04322482312798" lon="12.14320774123995"><ele>423.6666666666667</ele><time>2026-04-12T10:26:06Z</time></trkpt><trkpt lat="43.04327797836606" lon="12.143145505075292"><ele>421.33333333333337</ele><time>2026-04-12T10:26:07Z</time></trkpt><trkpt lat="43.043336801436055" lon="12.14302478182709"><ele>419.0</ele><time>2026-04-12T10:26:08Z</time></trkpt><trkpt lat="43.0433962228081" lon="12.142914046890894"><ele>416.6666666666667</ele><time>2026-04-12T10:26:09Z</time></trkpt><trkpt lat="43.04346020588513" lon="12.14284031647191"><ele>414.33333333333337</ele><time>2026-04-12T10:26:10Z</time></trkpt><trkpt lat="43.04354315144154" lon="12.142809643983703"><ele>412.0</ele><time>2026-04-12T10:26:11Z</time></trkpt><trkpt lat="43.043618849834694" lon="12.142791249900403"><ele>412.0</ele><time>2026-04-12T10:26:12Z</time></trkpt><trkpt lat="43.04370105405602" lon="12.142769887938657"><ele>412.0</ele><time>2026-04-12T10:26:13Z</time></trkpt><trkpt lat="43.04378019394186" lon="12.142750851530291"><ele>412.0</ele><time>2026-04-12T10:26:14Z</time></trkpt><trkpt lat="43.043917419213464" lon="12.142762552777128"><ele>412.0</ele><time>2026-04-12T10:26:16Z</time></trkpt><trkpt lat="43.04401693469621" lon="12.142840334237054"><ele>412.0</ele><time>2026-04-12T10:26:17Z</time></trkpt><trkpt lat="43.04410961456861" lon="12.142907147938246"><ele>410.6</ele><time>2026-04-12T10:26:18Z</time></trkpt><trkpt lat="43.04420214921762" lon="12.142953446767667"><ele>409.20000000000005</ele><time>2026-04-12T10:26:19Z</time></trkpt><trkpt lat="43.044291516725636" lon="12.143001490189096"><ele>407.8</ele><time>2026-04-12T10:26:20Z</time></trkpt><trkpt lat="43.04436606627279" lon="12.143069738485266"><ele>406.4</ele><time>2026-04-12T10:26:21Z</time></trkpt><trkpt lat="43.044422608214575" lon="12.143151360373405"><ele>405.0</ele><time>2026-04-12T10:26:22Z</time></trkpt><trkpt lat="43.044531633793646" lon="12.143131069350963"><ele>404.99999999999994</ele><time>2026-04-12T10:26:24Z</time></trkpt><trkpt lat="43.04459696080865" lon="12.143116610107354"><ele>405.0</ele><time>2026-04-12T10:26:25Z</time></trkpt><trkpt lat="43.044682855897406" lon="12.14306912444127"><ele>405.0</ele><time>2026-04-12T10:26:27Z</time></trkpt><trkpt lat="43.044705260169266" lon="12.14298774387676"><ele>405.0</ele><time>2026-04-12T10:26:28Z</time></trkpt><trkpt lat="43.044707299704925" lon="12.142895046461602"><ele>405.0</ele><time>2026-04-12T10:26:29Z</time></trkpt><trkpt lat="43.04471206327555" lon="12.142803006689151"><ele>404.99999999999994</ele><time>2026-04-12T10:26:30Z</time></trkpt><trkpt lat="43.04473611500352" lon="12.142719342645544"><ele>405.0</ele><time>2026-04-12T10:26:31Z</time></trkpt><trkpt lat="43.04478485597495" lon="12.142643818530127"><ele>405.0</ele><time>2026-04-12T10:26:32Z</time></trkpt><trkpt lat="43.04485450002641" lon="12.142558516378024"><ele>405.0</ele><time>2026-04-12T10:26:33Z</time></trkpt><trkpt lat="43.04493023430505" lon="12.142465298422469"><ele>405.0</ele><time>2026-04-12T10:26:34Z</time></trkpt><trkpt lat="43.04500621180106" lon="12.142375420083766"><ele>405.0</ele><time>2026-04-12T10:26:35Z</time></trkpt><trkpt lat="43.04508419587351" lon="12.142289461160646"><ele>405.0</ele><time>2026-04-12T10:26:36Z</time></trkpt><trkpt lat="43.04516341246234" lon="12.14220578525091"><ele>400.0</ele><time>2026-04-12T10:26:37Z</time></trkpt><trkpt lat="43.04524525202225" lon="12.142119820373852"><ele>395.0</ele><time>2026-04-12T10:26:38Z</time></trkpt><trkpt lat="43.045324542404245" lon="12.142033398667785"><ele>390.0</ele><time>2026-04-12T10:26:39Z</time></trkpt><trkpt lat="43.0454035919569" lon="12.141944740114903"><ele>385.0</ele><time>2026-04-12T10:26:40Z</time></trkpt><trkpt lat="43.04548110766841" lon="12.141861670429988"><ele>380.0</ele><time>2026-04-12T10:26:41Z</time></trkpt><trkpt lat="43.045564253253964" lon="12.141794771884285"><ele>380.0</ele><time>2026-04-12T10:26:42Z</time></trkpt><trkpt lat="43.045655243241" lon="12.14174720428691"><ele>380.0</ele><time>2026-04-12T10:26:43Z</time></trkpt><trkpt lat="43.0457457680996" lon="12.14173596684952"><ele>380.0</ele><time>2026-04-12T10:26:44Z</time></trkpt><trkpt lat="43.04582893071608" lon="12.141728312657953"><ele>380.0</ele><time>2026-04-12T10:26:45Z</time></trkpt><trkpt lat="43.04590441761696" lon="12.141669752957318"><ele>380.0</ele><time>2026-04-12T10:26:46Z</time></trkpt><trkpt lat="43.04598645333046" lon="12.141570295949105"><ele>377.33333333333337</ele><time>2026-04-12T10:26:47Z</time></trkpt><trkpt lat="43.0461003482525" lon="12.14144360557224"><ele>374.6666666666667</ele><time>2026-04-12T10:26:48Z</time></trkpt><trkpt lat="43.046252156382444" lon="12.14128653560772"><ele>372.0</ele><time>2026-04-12T10:26:49Z</time></trkpt><trkpt lat="43.04641290247489" lon="12.141110100503974"><ele>372.0</ele><time>2026-04-12T10:26:50Z</time></trkpt><trkpt lat="43.04656379928927" lon="12.140945137522827"><ele>372.0</ele><time>2026-04-12T10:26:51Z</time></trkpt><trkpt lat="43.046728625648186" lon="12.140764595624706"><ele>372.0</ele><time>2026-04-12T10:26:52Z</time></trkpt><trkpt lat="43.046901843794245" lon="12.140569815722145"><ele>371.6666666666667</ele><time>2026-04-12T10:26:53Z</time></trkpt><trkpt lat="43.04706647754087" lon="12.140387942468049"><ele>371.33333333333337</ele><time>2026-04-12T10:26:54Z</time></trkpt><trkpt lat="43.04719627209438" lon="12.140241318868817"><ele>371.0</ele><time>2026-04-12T10:26:55Z</time></trkpt><trkpt lat="43.04732029388164" lon="12.140100862818292"><ele>371.0</ele><time>2026-04-12T10:26:56Z</time></trkpt><trkpt lat="43.047440218521395" lon="12.1399700492356"><ele>371.0</ele><time>2026-04-12T10:26:57Z</time></trkpt><trkpt lat="43.04755284556245" lon="12.139857231026136"><ele>371.0</ele><time>2026-04-12T10:26:58Z</time></trkpt><trkpt lat="43.047660156503945" lon="12.139748481153886"><ele>371.0</ele><time>2026-04-12T10:26:59Z</time></trkpt><trkpt lat="43.04777218768842" lon="12.13965621089539"><ele>370.8</ele><time>2026-04-12T10:27:00Z</time></trkpt><trkpt lat="43.047881867544675" lon="12.139577784866178"><ele>370.6</ele><time>2026-04-12T10:27:01Z</time></trkpt><trkpt lat="43.04798465595816" lon="12.139514584456922"><ele>370.4</ele><time>2026-04-12T10:27:02Z</time></trkpt><trkpt lat="43.048071051753396" lon="12.139448885225208"><ele>370.2</ele><time>2026-04-12T10:27:03Z</time></trkpt><trkpt lat="43.048149680747514" lon="12.13938116611266"><ele>370.0</ele><time>2026-04-12T10:27:04Z</time></trkpt><trkpt lat="43.04820820228234" lon="12.139313733397897"><ele>370.0</ele><time>2026-04-12T10:27:05Z</time></trkpt><trkpt lat="43.048275416390155" lon="12.139201235267386"><ele>370.0</ele><time>2026-04-12T10:27:06Z</time></trkpt><trkpt lat="43.04834758513668" lon="12.139064269409314"><ele>370.0</ele><time>2026-04-12T10:27:07Z</time></trkpt><trkpt lat="43.048426840657044" lon="12.138889430306783"><ele>370.0</ele><time>2026-04-12T10:27:08Z</time></trkpt><trkpt lat="43.0485032480686" lon="12.1386956430034"><ele>369.2</ele><time>2026-04-12T10:27:09Z</time></trkpt><trkpt lat="43.0485585491386" lon="12.1385237076822"><ele>368.4</ele><time>2026-04-12T10:27:10Z</time></trkpt><trkpt lat="43.048597100631795" lon="12.138377978466135"><ele>367.6</ele><time>2026-04-12T10:27:11Z</time></trkpt><trkpt lat="43.048624962776955" lon="12.138267246896076"><ele>366.8</ele><time>2026-04-12T10:27:12Z</time></trkpt><trkpt lat="43.04867669086318" lon="12.138160018704943"><ele>366.0</ele><time>2026-04-12T10:27:13Z</time></trkpt><trkpt lat="43.048750379423645" lon="12.138044245747295"><ele>364.25</ele><time>2026-04-12T10:27:14Z</time></trkpt><trkpt lat="43.048820470344154" lon="12.137909709180196"><ele>362.5</ele><time>2026-04-12T10:27:15Z</time></trkpt><trkpt lat="43.04887988785033" lon="12.13776998316306"><ele>360.75</ele><time>2026-04-12T10:27:16Z</time></trkpt><trkpt lat="43.04894916599095" lon="12.137624830258478"><ele>359.0</ele><time>2026-04-12T10:27:17Z</time></trkpt><trkpt lat="43.04900234683175" lon="12.137473529807233"><ele>356.4</ele><time>2026-04-12T10:27:18Z</time></trkpt><trkpt lat="43.04906451268427" lon="12.137338911991938"><ele>353.79999999999995</ele><time>2026-04-12T10:27:19Z</time></trkpt><trkpt lat="43.049121978741425" lon="12.137224041659861"><ele>351.20000000000005</ele><time>2026-04-12T10:27:20Z</time></trkpt><trkpt lat="43.04917224587099" lon="12.137098682511626"><ele>348.6</ele><time>2026-04-12T10:27:21Z</time></trkpt><trkpt lat="43.04918973148353" lon="12.136961817993871"><ele>346.0</ele><time>2026-04-12T10:27:22Z</time></trkpt><trkpt lat="43.049191726555776" lon="12.136835158707816"><ele>346.0</ele><time>2026-04-12T10:27:23Z</time></trkpt><trkpt lat="43.04921005296582" lon="12.13673109082694"><ele>346.0</ele><time>2026-04-12T10:27:24Z</time></trkpt><trkpt lat="43.04926490110632" lon="12.136674440281174"><ele>346.0</ele><time>2026-04-12T10:27:25Z</time></trkpt><trkpt lat="43.0493364661901" lon="12.136648297018894"><ele>346.0</ele><time>2026-04-12T10:27:26Z</time></trkpt><trkpt lat="43.04942775217254" lon="12.13664456476892"><ele>346.0</ele><time>2026-04-12T10:27:27Z</time></trkpt><trkpt lat="43.04950648340962" lon="12.136630959864897"><ele>346.0</ele><time>2026-04-12T10:27:28Z</time></trkpt><trkpt lat="43.04957406869986" lon="12.13656585938897"><ele>343.8</ele><time>2026-04-12T10:27:29Z</time></trkpt><trkpt lat="43.049616373964916" lon="12.1364454105493"><ele>341.6</ele><time>2026-04-12T10:27:30Z</time></trkpt><trkpt lat="43.04964551924623" lon="12.136309351969965"><ele>339.4</ele><time>2026-04-12T10:27:31Z</time></trkpt><trkpt lat="43.049668069744165" lon="12.136159227352763"><ele>337.2</ele><time>2026-04-12T10:27:32Z</time></trkpt><trkpt lat="43.049661922574806" lon="12.136037295896068"><ele>335.0</ele><time>2026-04-12T10:27:33Z</time></trkpt><trkpt lat="43.04963088433389" lon="12.135913245447634"><ele>335.0</ele><time>2026-04-12T10:27:34Z</time></trkpt><trkpt lat="43.049608784472845" lon="12.13579582795674"><ele>335.0</ele><time>2026-04-12T10:27:35Z</time></trkpt><trkpt lat="43.04960610585778" lon="12.135671506968935"><ele>335.0</ele><time>2026-04-12T10:27:36Z</time></trkpt><trkpt lat="43.049602875364215" lon="12.135547815309804"><ele>335.0</ele><time>2026-04-12T10:27:37Z</time></trkpt><trkpt lat="43.04957907978886" lon="12.135416733628634"><ele>335.0</ele><time>2026-04-12T10:27:38Z</time></trkpt><trkpt lat="43.04953531764047" lon="12.135298947226309"><ele>332.2</ele><time>2026-04-12T10:27:39Z</time></trkpt><trkpt lat="43.04949063970266" lon="12.135188663755795"><ele>329.4</ele><time>2026-04-12T10:27:40Z</time></trkpt><trkpt lat="43.049444690720755" lon="12.135068428157807"><ele>326.6</ele><time>2026-04-12T10:27:41Z</time></trkpt><trkpt lat="43.04940633459765" lon="12.134950358575926"><ele>323.8</ele><time>2026-04-12T10:27:42Z</time></trkpt><trkpt lat="43.04937645307229" lon="12.134826172215714"><ele>321.0</ele><time>2026-04-12T10:27:43Z</time></trkpt><trkpt lat="43.04934695331214" lon="12.134704453368695"><ele>319.0</ele><time>2026-04-12T10:27:44Z</time></trkpt><trkpt lat="43.04930891619648" lon="12.134595835608044"><ele>317.0</ele><time>2026-04-12T10:27:45Z</time></trkpt><trkpt lat="43.04926639410778" lon="12.134484556501015"><ele>315.0</ele><time>2026-04-12T10:27:46Z</time></trkpt><trkpt lat="43.049226468886935" lon="12.134388273270472"><ele>313.0</ele><time>2026-04-12T10:27:47Z</time></trkpt><trkpt lat="43.0491680514562" lon="12.134309545264852"><ele>311.0</ele><time>2026-04-12T10:27:48Z</time></trkpt><trkpt lat="43.0490956604152" lon="12.13426541752979"><ele>309.0</ele><time>2026-04-12T10:27:49Z</time></trkpt><trkpt lat="43.0490214048097" lon="12.134259234161368"><ele>308.3333333333333</ele><time>2026-04-12T10:27:50Z</time></trkpt><trkpt lat="43.04894864106522" lon="12.134276260826168"><ele>307.6666666666667</ele><time>2026-04-12T10:27:51Z</time></trkpt><trkpt lat="43.04888463621437" lon="12.134282483356966"><ele>307.0</ele><time>2026-04-12T10:27:52Z</time></trkpt><trkpt lat="43.0488207934432" lon="12.134280913767162"><ele>306.33333333333337</ele><time>2026-04-12T10:27:53Z</time></trkpt><trkpt lat="43.04873681274372" lon="12.13423040883877"><ele>305.6666666666667</ele><time>2026-04-12T10:27:55Z</time></trkpt><trkpt lat="43.04877774861181" lon="12.134085302484229"><ele>305.0</ele><time>2026-04-12T10:27:57Z</time></trkpt><trkpt lat="43.04881508744049" lon="12.134004760837577"><ele>303.8571428571429</ele><time>2026-04-12T10:27:58Z</time></trkpt><trkpt lat="43.04882044477877" lon="12.133911833833682"><ele>302.71428571428567</ele><time>2026-04-12T10:27:59Z</time></trkpt><trkpt lat="43.04879451971382" lon="12.1338243866288"><ele>301.57142857142856</ele><time>2026-04-12T10:28:00Z</time></trkpt><trkpt lat="43.04875264400933" lon="12.133753571691559"><ele>300.42857142857144</ele><time>2026-04-12T10:28:01Z</time></trkpt><trkpt lat="43.04871373145913" lon="12.133682687362375"><ele>299.28571428571433</ele><time>2026-04-12T10:28:02Z</time></trkpt><trkpt lat="43.04871622608637" lon="12.133556054070151"><ele>298.14285714285717</ele><time>2026-04-12T10:28:04Z</time></trkpt><trkpt lat="43.048793248132945" lon="12.133497145757646"><ele>297.0</ele><time>2026-04-12T10:28:07Z</time></trkpt><trkpt lat="43.04893370706173" lon="12.133452649141375"><ele>297.0</ele><time>2026-04-12T10:28:09Z</time></trkpt><trkpt lat="43.04903876212999" lon="12.133454765018943"><ele>297.0</ele><time>2026-04-12T10:28:10Z</time></trkpt><trkpt lat="43.049152538596495" lon="12.133449073297186"><ele>297.0</ele><time>2026-04-12T10:28:11Z</time></trkpt><trkpt lat="43.04926627557983" lon="12.133423482303101"><ele>297.0</ele><time>2026-04-12T10:28:12Z</time></trkpt><trkpt lat="43.049374893713036" lon="12.133386141849778"><ele>297.0</ele><time>2026-04-12T10:28:13Z</time></trkpt><trkpt lat="43.04947101344498" lon="12.133349374356337"><ele>297.6</ele><time>2026-04-12T10:28:14Z</time></trkpt><trkpt lat="43.04957004832759" lon="12.133320223144908"><ele>298.2</ele><time>2026-04-12T10:28:15Z</time></trkpt><trkpt lat="43.04966842935891" lon="12.133292718755035"><ele>298.8</ele><time>2026-04-12T10:28:16Z</time></trkpt><trkpt lat="43.04975453731799" lon="12.1332832306401"><ele>299.4</ele><time>2026-04-12T10:28:17Z</time></trkpt><trkpt lat="43.04984513170059" lon="12.13323680738827"><ele>300.0</ele><time>2026-04-12T10:28:18Z</time></trkpt><trkpt lat="43.04993194997016" lon="12.133213387883671"><ele>298.3333333333333</ele><time>2026-04-12T10:28:19Z</time></trkpt><trkpt lat="43.050019493493444" lon="12.133190608451407"><ele>296.6666666666667</ele><time>2026-04-12T10:28:20Z</time></trkpt><trkpt lat="43.0501018317587" lon="12.133190345645005"><ele>295.0</ele><time>2026-04-12T10:28:21Z</time></trkpt><trkpt lat="43.05016702494261" lon="12.1331512201642"><ele>293.33333333333337</ele><time>2026-04-12T10:28:22Z</time></trkpt><trkpt lat="43.05025425216575" lon="12.133136852098444"><ele>291.6666666666667</ele><time>2026-04-12T10:28:24Z</time></trkpt><trkpt lat="43.050322924083765" lon="12.133128297210767"><ele>290.0</ele><time>2026-04-12T10:28:26Z</time></trkpt><trkpt lat="43.05039843815049" lon="12.133119761998332"><ele>290.0</ele><time>2026-04-12T10:28:27Z</time></trkpt><trkpt lat="43.05049118682577" lon="12.13311939013083"><ele>290.0</ele><time>2026-04-12T10:28:28Z</time></trkpt><trkpt lat="43.05061117779747" lon="12.1331251735553"><ele>290.0</ele><time>2026-04-12T10:28:29Z</time></trkpt><trkpt lat="43.050749592617436" lon="12.133118818963538"><ele>290.0</ele><time>2026-04-12T10:28:30Z</time></trkpt><trkpt lat="43.05090205488681" lon="12.13310150654965"><ele>289.6666666666667</ele><time>2026-04-12T10:28:31Z</time></trkpt><trkpt lat="43.05108339716704" lon="12.133072760954331"><ele>289.3333333333333</ele><time>2026-04-12T10:28:32Z</time></trkpt><trkpt lat="43.05128990848268" lon="12.133031564274209"><ele>289.0</ele><time>2026-04-12T10:28:33Z</time></trkpt><trkpt lat="43.05150825158822" lon="12.132972318280014"><ele>289.0</ele><time>2026-04-12T10:28:34Z</time></trkpt><trkpt lat="43.05174662046397" lon="12.132876888420522"><ele>289.0</ele><time>2026-04-12T10:28:35Z</time></trkpt><trkpt lat="43.051992328345" lon="12.132757252666966"><ele>289.0</ele><time>2026-04-12T10:28:36Z</time></trkpt><trkpt lat="43.05222036764585" lon="12.132654060537584"><ele>289.0</ele><time>2026-04-12T10:28:37Z</time></trkpt><trkpt lat="43.052425568589484" lon="12.132558806398563"><ele>289.0</ele><time>2026-04-12T10:28:38Z</time></trkpt><trkpt lat="43.05260782834566" lon="12.13245693275499"><ele>289.0</ele><time>2026-04-12T10:28:39Z</time></trkpt><trkpt lat="43.05276651544643" lon="12.13234516728077"><ele>289.0</ele><time>2026-04-12T10:28:40Z</time></trkpt><trkpt lat="43.052907041779804" lon="12.132224746317055"><ele>289.5</ele><time>2026-04-12T10:28:41Z</time></trkpt><trkpt lat="43.05303635462737" lon="12.132098589635746"><ele>290.0</ele><time>2026-04-12T10:28:42Z</time></trkpt><trkpt lat="43.05315086269111" lon="12.132011305756116"><ele>290.5</ele><time>2026-04-12T10:28:43Z</time></trkpt><trkpt lat="43.05325310871854" lon="12.131956223172962"><ele>291.0</ele><time>2026-04-12T10:28:44Z</time></trkpt><trkpt lat="43.05330758656039" lon="12.13177552368436"><ele>291.0</ele><time>2026-04-12T10:28:45Z</time></trkpt><trkpt lat="43.05338392908331" lon="12.131679322001157"><ele>291.0</ele><time>2026-04-12T10:28:46Z</time></trkpt><trkpt lat="43.053455986896566" lon="12.131609529610984"><ele>291.0</ele><time>2026-04-12T10:28:47Z</time></trkpt><trkpt lat="43.05353761610855" lon="12.131534687538425"><ele>291.0</ele><time>2026-04-12T10:28:48Z</time></trkpt><trkpt lat="43.053635269682" lon="12.131474524591814"><ele>291.0</ele><time>2026-04-12T10:28:49Z</time></trkpt><trkpt lat="43.05372820721207" lon="12.131424768734325"><ele>290.40000000000003</ele><time>2026-04-12T10:28:50Z</time></trkpt><trkpt lat="43.0538289234574" lon="12.131372822992505"><ele>289.8</ele><time>2026-04-12T10:28:51Z</time></trkpt><trkpt lat="43.05392136219977" lon="12.131315622096508"><ele>289.20000000000005</ele><time>2026-04-12T10:28:52Z</time></trkpt><trkpt lat="43.054009289635765" lon="12.131261534313342"><ele>288.6</ele><time>2026-04-12T10:28:53Z</time></trkpt><trkpt lat="43.054108610277126" lon="12.131215776260078"><ele>288.0</ele><time>2026-04-12T10:28:54Z</time></trkpt><trkpt lat="43.054224300823314" lon="12.131158292143287"><ele>288.0</ele><time>2026-04-12T10:28:55Z</time></trkpt><trkpt lat="43.05434679491323" lon="12.131091647438996"><ele>288.0</ele><time>2026-04-12T10:28:56Z</time></trkpt><trkpt lat="43.05445525887484" lon="12.13103003580336"><ele>288.0</ele><time>2026-04-12T10:28:57Z</time></trkpt><trkpt lat="43.05454965322491" lon="12.1309721922822"><ele>288.0</ele><time>2026-04-12T10:28:58Z</time></trkpt><trkpt lat="43.05464572417076" lon="12.13092223789849"><ele>288.0</ele><time>2026-04-12T10:28:59Z</time></trkpt><trkpt lat="43.05473600365303" lon="12.130839828853269"><ele>288.0</ele><time>2026-04-12T10:29:00Z</time></trkpt><trkpt lat="43.05481679998693" lon="12.130771639506131"><ele>288.0</ele><time>2026-04-12T10:29:01Z</time></trkpt><trkpt lat="43.05487633435955" lon="12.130710558644466"><ele>288.0</ele><time>2026-04-12T10:29:02Z</time></trkpt><trkpt lat="43.05492799573531" lon="12.130655250027392"><ele>288.0</ele><time>2026-04-12T10:29:03Z</time></trkpt><trkpt lat="43.055041156776944" lon="12.130624489891204"><ele>288.4</ele><time>2026-04-12T10:29:05Z</time></trkpt><trkpt lat="43.05510807620961" lon="12.130693597657904"><ele>288.8</ele><time>2026-04-12T10:29:06Z</time></trkpt><trkpt lat="43.05519859281849" lon="12.13071887956632"><ele>289.2</ele><time>2026-04-12T10:29:07Z</time></trkpt><trkpt lat="43.05528136596591" lon="12.130713912319298"><ele>289.6</ele><time>2026-04-12T10:29:08Z</time></trkpt><trkpt lat="43.055376920903804" lon="12.130683822461242"><ele>290.0</ele><time>2026-04-12T10:29:09Z</time></trkpt><trkpt lat="43.05547588617575" lon="12.130682638241959"><ele>289.6666666666667</ele><time>2026-04-12T10:29:10Z</time></trkpt><trkpt lat="43.055594240266615" lon="12.130734572187183"><ele>289.3333333333333</ele><time>2026-04-12T10:29:11Z</time></trkpt><trkpt lat="43.05572214470469" lon="12.130816517273301"><ele>289.0</ele><time>2026-04-12T10:29:12Z</time></trkpt><trkpt lat="43.05596349307561" lon="12.13096627778465"><ele>289.4</ele><time>2026-04-12T10:29:14Z</time></trkpt><trkpt lat="43.05606080722008" lon="12.131048314518054"><ele>289.79999999999995</ele><time>2026-04-12T10:29:15Z</time></trkpt><trkpt lat="43.05616484763731" lon="12.131089355407436"><ele>290.20000000000005</ele><time>2026-04-12T10:29:16Z</time></trkpt><trkpt lat="43.05624915925523" lon="12.131163353972182"><ele>290.6</ele><time>2026-04-12T10:29:17Z</time></trkpt><trkpt lat="43.0563203435067" lon="12.13122404476983"><ele>291.0</ele><time>2026-04-12T10:29:18Z</time></trkpt><trkpt lat="43.056390253795094" lon="12.131274387914074"><ele>291.0</ele><time>2026-04-12T10:29:19Z</time></trkpt><trkpt lat="43.05642738791214" lon="12.131346179817736"><ele>291.0</ele><time>2026-04-12T10:29:20Z</time></trkpt><trkpt lat="43.05640595142009" lon="12.131446347875302"><ele>291.0</ele><time>2026-04-12T10:29:21Z</time></trkpt><trkpt lat="43.056373948186504" lon="12.131550933244748"><ele>291.0</ele><time>2026-04-12T10:29:22Z</time></trkpt><trkpt lat="43.05637394818693" lon="12.131652577759006"><ele>291.0</ele><time>2026-04-12T10:29:23Z</time></trkpt><trkpt lat="43.056394550275144" lon="12.131738548474909"><ele>291.0</ele><time>2026-04-12T10:29:24Z</time></trkpt><trkpt lat="43.0564904107689" lon="12.131765206061255"><ele>291.6</ele><time>2026-04-12T10:29:25Z</time></trkpt><trkpt lat="43.05656681462302" lon="12.131800900733895"><ele>292.20000000000005</ele><time>2026-04-12T10:29:26Z</time></trkpt><trkpt lat="43.05664761804164" lon="12.131879403715981"><ele>292.79999999999995</ele><time>2026-04-12T10:29:27Z</time></trkpt><trkpt lat="43.05675023467704" lon="12.131959155611886"><ele>293.4</ele><time>2026-04-12T10:29:28Z</time></trkpt><trkpt lat="43.05686710623002" lon="12.132024342120882"><ele>294.0</ele><time>2026-04-12T10:29:29Z</time></trkpt><trkpt lat="43.05697404584981" lon="12.132110883473048"><ele>294.5</ele><time>2026-04-12T10:29:30Z</time></trkpt><trkpt lat="43.0570800518518" lon="12.13219552218726"><ele>295.0</ele><time>2026-04-12T10:29:31Z</time></trkpt><trkpt lat="43.05718578874285" lon="12.132270117668577"><ele>295.5</ele><time>2026-04-12T10:29:32Z</time></trkpt><trkpt lat="43.05729055613808" lon="12.13234739159418"><ele>296.0</ele><time>2026-04-12T10:29:33Z</time></trkpt><trkpt lat="43.05738906359075" lon="12.132432498572609"><ele>297.0</ele><time>2026-04-12T10:29:34Z</time></trkpt><trkpt lat="43.05748787544425" lon="12.132518893349996"><ele>298.0</ele><time>2026-04-12T10:29:35Z</time></trkpt><trkpt lat="43.05758671392327" lon="12.132589343357514"><ele>299.0</ele><time>2026-04-12T10:29:36Z</time></trkpt><trkpt lat="43.05767314667151" lon="12.132652364544665"><ele>300.0</ele><time>2026-04-12T10:29:37Z</time></trkpt><trkpt lat="43.05776367366715" lon="12.132721366548623"><ele>301.0</ele><time>2026-04-12T10:29:38Z</time></trkpt><trkpt lat="43.05785302844526" lon="12.132808363785648"><ele>301.0</ele><time>2026-04-12T10:29:39Z</time></trkpt><trkpt lat="43.05794910825139" lon="12.132881477013244"><ele>301.0</ele><time>2026-04-12T10:29:40Z</time></trkpt><trkpt lat="43.05803959250523" lon="12.132950021642678"><ele>301.0</ele><time>2026-04-12T10:29:41Z</time></trkpt><trkpt lat="43.05813973478382" lon="12.133025882432731"><ele>301.0</ele><time>2026-04-12T10:29:42Z</time></trkpt><trkpt lat="43.05824610212262" lon="12.133085217581458"><ele>301.0</ele><time>2026-04-12T10:29:43Z</time></trkpt><trkpt lat="43.05834064759802" lon="12.133176022757507"><ele>301.25</ele><time>2026-04-12T10:29:44Z</time></trkpt><trkpt lat="43.058446442362644" lon="12.133254858989037"><ele>301.5</ele><time>2026-04-12T10:29:45Z</time></trkpt><trkpt lat="43.05855440049708" lon="12.133335941938373"><ele>301.75</ele><time>2026-04-12T10:29:46Z</time></trkpt><trkpt lat="43.058650958090205" lon="12.133410110760556"><ele>302.0</ele><time>2026-04-12T10:29:47Z</time></trkpt><trkpt lat="43.058745327847426" lon="12.133489634305036"><ele>302.0</ele><time>2026-04-12T10:29:48Z</time></trkpt><trkpt lat="43.05883990911948" lon="12.133569734461094"><ele>302.0</ele><time>2026-04-12T10:29:49Z</time></trkpt><trkpt lat="43.058936455539246" lon="12.133593792326968"><ele>302.0</ele><time>2026-04-12T10:29:50Z</time></trkpt><trkpt lat="43.058993809076924" lon="12.1336620959275"><ele>302.0</ele><time>2026-04-12T10:29:51Z</time></trkpt><trkpt lat="43.05904279490318" lon="12.133728097144969"><ele>302.0</ele><time>2026-04-12T10:29:52Z</time></trkpt><trkpt lat="43.05909966520508" lon="12.133792337003"><ele>302.0</ele><time>2026-04-12T10:29:53Z</time></trkpt><trkpt lat="43.05916400857401" lon="12.13385573639288"><ele>302.2</ele><time>2026-04-12T10:29:54Z</time></trkpt><trkpt lat="43.059227247090334" lon="12.133895144584656"><ele>302.4</ele><time>2026-04-12T10:29:55Z</time></trkpt><trkpt lat="43.05932310881157" lon="12.133904609045477"><ele>302.6</ele><time>2026-04-12T10:29:57Z</time></trkpt><trkpt lat="43.05943320886029" lon="12.133812348662515"><ele>302.8</ele><time>2026-04-12T10:29:59Z</time></trkpt><trkpt lat="43.05949503330522" lon="12.133746560030907"><ele>303.0</ele><time>2026-04-12T10:30:00Z</time></trkpt><trkpt lat="43.05956112417961" lon="12.13367871490443"><ele>303.0</ele><time>2026-04-12T10:30:01Z</time></trkpt><trkpt lat="43.059637138594255" lon="12.133615483402421"><ele>303.0</ele><time>2026-04-12T10:30:02Z</time></trkpt><trkpt lat="43.05971842596882" lon="12.133555450841193"><ele>303.0</ele><time>2026-04-12T10:30:03Z</time></trkpt><trkpt lat="43.059795909557714" lon="12.133484963806369"><ele>303.0</ele><time>2026-04-12T10:30:04Z</time></trkpt><trkpt lat="43.05987613862494" lon="12.133408513517507"><ele>303.0</ele><time>2026-04-12T10:30:05Z</time></trkpt><trkpt lat="43.05995915821845" lon="12.133335001957999"><ele>303.0</ele><time>2026-04-12T10:30:06Z</time></trkpt><trkpt lat="43.06003872265315" lon="12.133278859280363"><ele>303.0</ele><time>2026-04-12T10:30:07Z</time></trkpt><trkpt lat="43.060112960506515" lon="12.133230208715785"><ele>303.0</ele><time>2026-04-12T10:30:08Z</time></trkpt><trkpt lat="43.06018545850856" lon="12.133181795666971"><ele>303.0</ele><time>2026-04-12T10:30:09Z</time></trkpt><trkpt lat="43.06025089241665" lon="12.133112151607802"><ele>303.0</ele><time>2026-04-12T10:30:10Z</time></trkpt><trkpt lat="43.06030477205666" lon="12.133035860375529"><ele>303.0</ele><time>2026-04-12T10:30:11Z</time></trkpt><trkpt lat="43.06035803273683" lon="12.132968704701542"><ele>302.3333333333333</ele><time>2026-04-12T10:30:12Z</time></trkpt><trkpt lat="43.06040590666721" lon="12.132891399292648"><ele>301.6666666666667</ele><time>2026-04-12T10:30:13Z</time></trkpt><trkpt lat="43.060463095793295" lon="12.132795190536394"><ele>301.0</ele><time>2026-04-12T10:30:14Z</time></trkpt><trkpt lat="43.06052125981936" lon="12.132716797190733"><ele>300.33333333333337</ele><time>2026-04-12T10:30:15Z</time></trkpt><trkpt lat="43.060578460139986" lon="12.132657018643254"><ele>299.6666666666667</ele><time>2026-04-12T10:30:16Z</time></trkpt><trkpt lat="43.06062709436517" lon="12.132598874096335"><ele>299.0</ele><time>2026-04-12T10:30:17Z</time></trkpt><trkpt lat="43.06066702821066" lon="12.13252208122798"><ele>299.0</ele><time>2026-04-12T10:30:18Z</time></trkpt><trkpt lat="43.060707638118714" lon="12.132409984718151"><ele>299.0</ele><time>2026-04-12T10:30:19Z</time></trkpt><trkpt lat="43.06076217719906" lon="12.132307020893032"><ele>299.0</ele><time>2026-04-12T10:30:20Z</time></trkpt><trkpt lat="43.060817254393264" lon="12.132199475576662"><ele>299.0</ele><time>2026-04-12T10:30:21Z</time></trkpt><trkpt lat="43.06087344337485" lon="12.13210657068561"><ele>299.0</ele><time>2026-04-12T10:30:22Z</time></trkpt><trkpt lat="43.06092918324377" lon="12.132015218845842"><ele>300.59999999999997</ele><time>2026-04-12T10:30:23Z</time></trkpt><trkpt lat="43.06098818175799" lon="12.131916894720442"><ele>302.2</ele><time>2026-04-12T10:30:24Z</time></trkpt><trkpt lat="43.06103923772025" lon="12.131814075845757"><ele>303.79999999999995</ele><time>2026-04-12T10:30:25Z</time></trkpt><trkpt lat="43.061079737038945" lon="12.131707033274038"><ele>305.4</ele><time>2026-04-12T10:30:26Z</time></trkpt><trkpt lat="43.0611040356921" lon="12.13158303381519"><ele>307.0</ele><time>2026-04-12T10:30:27Z</time></trkpt><trkpt lat="43.06111605333301" lon="12.131458024274952"><ele>307.25</ele><time>2026-04-12T10:30:28Z</time></trkpt><trkpt lat="43.061130158534425" lon="12.131356653082559"><ele>307.5</ele><time>2026-04-12T10:30:29Z</time></trkpt><trkpt lat="43.06117770830097" lon="12.131239741321247"><ele>307.75</ele><time>2026-04-12T10:30:31Z</time></trkpt><trkpt lat="43.06138512803435" lon="12.13131584365833"><ele>308.0</ele><time>2026-04-12T10:30:34Z</time></trkpt><trkpt lat="43.06148770621648" lon="12.131346917152959"><ele>308.0</ele><time>2026-04-12T10:30:35Z</time></trkpt><trkpt lat="43.06160754384868" lon="12.131381740588237"><ele>308.0</ele><time>2026-04-12T10:30:36Z</time></trkpt><trkpt lat="43.06171237759309" lon="12.131421202533822"><ele>308.0</ele><time>2026-04-12T10:30:37Z</time></trkpt><trkpt lat="43.06178362283183" lon="12.131489671130227"><ele>308.0</ele><time>2026-04-12T10:30:38Z</time></trkpt><trkpt lat="43.061847681875776" lon="12.131568237336175"><ele>308.0</ele><time>2026-04-12T10:30:39Z</time></trkpt><trkpt lat="43.061925340795575" lon="12.13161071166043"><ele>309.75</ele><time>2026-04-12T10:30:40Z</time></trkpt><trkpt lat="43.06202641123263" lon="12.13163184342254"><ele>311.5</ele><time>2026-04-12T10:30:41Z</time></trkpt><trkpt lat="43.06211268055014" lon="12.13170498232752"><ele>313.25</ele><time>2026-04-12T10:30:42Z</time></trkpt><trkpt lat="43.06217403318147" lon="12.13182341573225"><ele>315.0</ele><time>2026-04-12T10:30:43Z</time></trkpt><trkpt lat="43.06226588242207" lon="12.131971153440293"><ele>315.0</ele><time>2026-04-12T10:30:44Z</time></trkpt><trkpt lat="43.06237640913169" lon="12.132114749012942"><ele>315.0</ele><time>2026-04-12T10:30:45Z</time></trkpt><trkpt lat="43.06249582688481" lon="12.13223638610436"><ele>315.0</ele><time>2026-04-12T10:30:46Z</time></trkpt><trkpt lat="43.06260751427731" lon="12.132347467300077"><ele>315.0</ele><time>2026-04-12T10:30:47Z</time></trkpt><trkpt lat="43.06273244007816" lon="12.13242611848161"><ele>316.6666666666667</ele><time>2026-04-12T10:30:48Z</time></trkpt><trkpt lat="43.0628752114456" lon="12.132490968248067"><ele>318.33333333333337</ele><time>2026-04-12T10:30:49Z</time></trkpt><trkpt lat="43.06303043698137" lon="12.132568221003313"><ele>320.0</ele><time>2026-04-12T10:30:50Z</time></trkpt><trkpt lat="43.06315287923075" lon="12.132650157686486"><ele>320.0</ele><time>2026-04-12T10:30:51Z</time></trkpt><trkpt lat="43.06326762992433" lon="12.132728168088235"><ele>320.0</ele><time>2026-04-12T10:30:52Z</time></trkpt><trkpt lat="43.063386085621445" lon="12.132782133868915"><ele>320.0</ele><time>2026-04-12T10:30:53Z</time></trkpt><trkpt lat="43.06351462270516" lon="12.132797065189553"><ele>320.0</ele><time>2026-04-12T10:30:54Z</time></trkpt><trkpt lat="43.06365136060868" lon="12.132800125716953"><ele>323.0</ele><time>2026-04-12T10:30:55Z</time></trkpt><trkpt lat="43.06376718116237" lon="12.13281456865958"><ele>326.0</ele><time>2026-04-12T10:30:56Z</time></trkpt><trkpt lat="43.06387737004886" lon="12.132843894925854"><ele>329.0</ele><time>2026-04-12T10:30:57Z</time></trkpt><trkpt lat="43.06399261602293" lon="12.132899870082293"><ele>332.0</ele><time>2026-04-12T10:30:58Z</time></trkpt><trkpt lat="43.06411598070412" lon="12.132970863286337"><ele>335.75</ele><time>2026-04-12T10:30:59Z</time></trkpt><trkpt lat="43.06423993406634" lon="12.133020385092898"><ele>339.5</ele><time>2026-04-12T10:31:00Z</time></trkpt><trkpt lat="43.064384839169826" lon="12.133044019851178"><ele>343.25</ele><time>2026-04-12T10:31:01Z</time></trkpt><trkpt lat="43.06452124118402" lon="12.133088045906185"><ele>347.0</ele><time>2026-04-12T10:31:02Z</time></trkpt><trkpt lat="43.06465825381629" lon="12.133117716336077"><ele>347.0</ele><time>2026-04-12T10:31:03Z</time></trkpt><trkpt lat="43.06478389294763" lon="12.133142868045699"><ele>347.0</ele><time>2026-04-12T10:31:04Z</time></trkpt><trkpt lat="43.06491615234069" lon="12.133193256700459"><ele>347.0</ele><time>2026-04-12T10:31:05Z</time></trkpt><trkpt lat="43.06504017972516" lon="12.133220921132175"><ele>347.0</ele><time>2026-04-12T10:31:06Z</time></trkpt><trkpt lat="43.06515128251479" lon="12.133239418765399"><ele>345.20000000000005</ele><time>2026-04-12T10:31:07Z</time></trkpt><trkpt lat="43.06525683688204" lon="12.133267172930928"><ele>343.4</ele><time>2026-04-12T10:31:08Z</time></trkpt><trkpt lat="43.06536901079233" lon="12.133299157568963"><ele>341.6</ele><time>2026-04-12T10:31:09Z</time></trkpt><trkpt lat="43.065481199615895" lon="12.133319630800846"><ele>339.79999999999995</ele><time>2026-04-12T10:31:10Z</time></trkpt><trkpt lat="43.065568045786755" lon="12.133349235997573"><ele>338.0</ele><time>2026-04-12T10:31:11Z</time></trkpt><trkpt lat="43.06564767605493" lon="12.133399303147687"><ele>338.0</ele><time>2026-04-12T10:31:12Z</time></trkpt><trkpt lat="43.06572345400541" lon="12.133462808842147"><ele>338.0</ele><time>2026-04-12T10:31:13Z</time></trkpt><trkpt lat="43.06579457035585" lon="12.133522238017738"><ele>338.0</ele><time>2026-04-12T10:31:14Z</time></trkpt><trkpt lat="43.06585582852228" lon="12.133575314827675"><ele>338.0</ele><time>2026-04-12T10:31:15Z</time></trkpt><trkpt lat="43.065909373309346" lon="12.133631049953234"><ele>338.0</ele><time>2026-04-12T10:31:16Z</time></trkpt><trkpt lat="43.065971788030474" lon="12.133664721076652"><ele>338.0</ele><time>2026-04-12T10:31:17Z</time></trkpt><trkpt lat="43.066056380206746" lon="12.133671001660206"><ele>339.59999999999997</ele><time>2026-04-12T10:31:18Z</time></trkpt><trkpt lat="43.06617294057041" lon="12.133665279233748"><ele>341.2</ele><time>2026-04-12T10:31:19Z</time></trkpt><trkpt lat="43.06629548992806" lon="12.133666443237226"><ele>342.8</ele><time>2026-04-12T10:31:20Z</time></trkpt><trkpt lat="43.06640626015813" lon="12.133679821064096"><ele>344.4</ele><time>2026-04-12T10:31:21Z</time></trkpt><trkpt lat="43.06649896469315" lon="12.133691871390782"><ele>346.0</ele><time>2026-04-12T10:31:22Z</time></trkpt><trkpt lat="43.066568906817146" lon="12.133696470459919"><ele>346.5</ele><time>2026-04-12T10:31:23Z</time></trkpt><trkpt lat="43.06665484002793" lon="12.133696848118657"><ele>347.0</ele><time>2026-04-12T10:31:24Z</time></trkpt><trkpt lat="43.06673049889466" lon="12.133695866816163"><ele>347.5</ele><time>2026-04-12T10:31:25Z</time></trkpt><trkpt lat="43.06680341689234" lon="12.133705585911555"><ele>348.0</ele><time>2026-04-12T10:31:27Z</time></trkpt><trkpt lat="43.06676344468941" lon="12.133868035872815"><ele>348.5</ele><time>2026-04-12T10:31:29Z</time></trkpt><trkpt lat="43.06673818546476" lon="12.133983377227077"><ele>349.0</ele><time>2026-04-12T10:31:30Z</time></trkpt><trkpt lat="43.06672813038449" lon="12.134094378520503"><ele>347.3333333333333</ele><time>2026-04-12T10:31:31Z</time></trkpt><trkpt lat="43.066749093638606" lon="12.134235398942128"><ele>345.66666666666663</ele><time>2026-04-12T10:31:33Z</time></trkpt><trkpt lat="43.06684918921361" lon="12.134297483361088"><ele>344.0</ele><time>2026-04-12T10:31:36Z</time></trkpt><trkpt lat="43.06691026138333" lon="12.134364922635001"><ele>342.3333333333333</ele><time>2026-04-12T10:31:37Z</time></trkpt><trkpt lat="43.06696610019652" lon="12.134439895370583"><ele>340.6666666666667</ele><time>2026-04-12T10:31:38Z</time></trkpt><trkpt lat="43.06700013117773" lon="12.134512754899719"><ele>339.0</ele><time>2026-04-12T10:31:39Z</time></trkpt><trkpt lat="43.06711826638074" lon="12.134575419939893"><ele>339.0</ele><time>2026-04-12T10:31:41Z</time></trkpt><trkpt lat="43.06721377961345" lon="12.134576095303974"><ele>339.0</ele><time>2026-04-12T10:31:42Z</time></trkpt><trkpt lat="43.0673203085101" lon="12.134572807036776"><ele>339.0</ele><time>2026-04-12T10:31:43Z</time></trkpt><trkpt lat="43.06740498630084" lon="12.134594662900176"><ele>339.0</ele><time>2026-04-12T10:31:44Z</time></trkpt><trkpt lat="43.06746814015507" lon="12.13463401013344"><ele>339.0</ele><time>2026-04-12T10:31:45Z</time></trkpt><trkpt lat="43.06761666525683" lon="12.134634544022193"><ele>339.6666666666667</ele><time>2026-04-12T10:31:47Z</time></trkpt><trkpt lat="43.06771321402407" lon="12.134614577434906"><ele>340.3333333333333</ele><time>2026-04-12T10:31:48Z</time></trkpt><trkpt lat="43.067807223417155" lon="12.134630062806915"><ele>341.0</ele><time>2026-04-12T10:31:49Z</time></trkpt><trkpt lat="43.067882204598995" lon="12.134645956438483"><ele>341.66666666666663</ele><time>2026-04-12T10:31:50Z</time></trkpt><trkpt lat="43.06795413092297" lon="12.13467624093619"><ele>342.3333333333333</ele><time>2026-04-12T10:31:51Z</time></trkpt><trkpt lat="43.0680255919132" lon="12.13469413454713"><ele>343.0</ele><time>2026-04-12T10:31:52Z</time></trkpt><trkpt lat="43.0681160123808" lon="12.134731801674787"><ele>345.2</ele><time>2026-04-12T10:31:54Z</time></trkpt><trkpt lat="43.068094510421275" lon="12.134901217622659"><ele>347.4</ele><time>2026-04-12T10:31:56Z</time></trkpt><trkpt lat="43.06808260593278" lon="12.134993325865524"><ele>349.59999999999997</ele><time>2026-04-12T10:31:57Z</time></trkpt><trkpt lat="43.06806081696696" lon="12.135089495194448"><ele>351.79999999999995</ele><time>2026-04-12T10:31:58Z</time></trkpt><trkpt lat="43.06801270258936" lon="12.135236628618308"><ele>354.0</ele><time>2026-04-12T10:31:59Z</time></trkpt><trkpt lat="43.067966955881076" lon="12.135411159320899"><ele>354.0</ele><time>2026-04-12T10:32:00Z</time></trkpt><trkpt lat="43.06793082815248" lon="12.135555972225587"><ele>354.0</ele><time>2026-04-12T10:32:01Z</time></trkpt><trkpt lat="43.06790340959744" lon="12.135672029955218"><ele>354.0</ele><time>2026-04-12T10:32:02Z</time></trkpt><trkpt lat="43.067878857855526" lon="12.135779931710852"><ele>354.0</ele><time>2026-04-12T10:32:03Z</time></trkpt><trkpt lat="43.067855833918344" lon="12.135901130114215"><ele>354.0</ele><time>2026-04-12T10:32:04Z</time></trkpt><trkpt lat="43.06784017605388" lon="12.136011300704839"><ele>354.8333333333333</ele><time>2026-04-12T10:32:05Z</time></trkpt><trkpt lat="43.067839463439284" lon="12.13611039883002"><ele>355.6666666666667</ele><time>2026-04-12T10:32:06Z</time></trkpt><trkpt lat="43.06786923877808" lon="12.136201228596008"><ele>356.5</ele><time>2026-04-12T10:32:07Z</time></trkpt><trkpt lat="43.06792828640466" lon="12.136299379799084"><ele>357.33333333333337</ele><time>2026-04-12T10:32:08Z</time></trkpt><trkpt lat="43.06798457047225" lon="12.136404927017292"><ele>358.1666666666667</ele><time>2026-04-12T10:32:09Z</time></trkpt><trkpt lat="43.068043840921604" lon="12.136493763621996"><ele>359.0</ele><time>2026-04-12T10:32:10Z</time></trkpt><trkpt lat="43.06810640828788" lon="12.136581072917135"><ele>359.0</ele><time>2026-04-12T10:32:11Z</time></trkpt><trkpt lat="43.068153751981875" lon="12.136660283480243"><ele>359.0</ele><time>2026-04-12T10:32:12Z</time></trkpt><trkpt lat="43.068206190968624" lon="12.136742371035867"><ele>359.0</ele><time>2026-04-12T10:32:13Z</time></trkpt><trkpt lat="43.06826231419956" lon="12.136809169654686"><ele>359.0</ele><time>2026-04-12T10:32:14Z</time></trkpt><trkpt lat="43.068328097600244" lon="12.136840813778697"><ele>359.0</ele><time>2026-04-12T10:32:15Z</time></trkpt><trkpt lat="43.06840914329863" lon="12.136881712851224"><ele>359.0</ele><time>2026-04-12T10:32:16Z</time></trkpt><trkpt lat="43.06848257156448" lon="12.13693282980165"><ele>363.2</ele><time>2026-04-12T10:32:17Z</time></trkpt><trkpt lat="43.06855481821439" lon="12.136988402582476"><ele>367.4</ele><time>2026-04-12T10:32:18Z</time></trkpt><trkpt lat="43.06862118329385" lon="12.137056652674211"><ele>371.6</ele><time>2026-04-12T10:32:19Z</time></trkpt><trkpt lat="43.06869901784655" lon="12.137135130751197"><ele>375.8</ele><time>2026-04-12T10:32:20Z</time></trkpt><trkpt lat="43.068787761334" lon="12.137218985893153"><ele>380.0</ele><time>2026-04-12T10:32:21Z</time></trkpt><trkpt lat="43.06887108135056" lon="12.137305493608041"><ele>379.4</ele><time>2026-04-12T10:32:22Z</time></trkpt><trkpt lat="43.06894512955095" lon="12.13739103729949"><ele>378.8</ele><time>2026-04-12T10:32:23Z</time></trkpt><trkpt lat="43.06900510801879" lon="12.137465773798061"><ele>378.20000000000005</ele><time>2026-04-12T10:32:24Z</time></trkpt><trkpt lat="43.06907238505731" lon="12.1375745303117"><ele>377.6</ele><time>2026-04-12T10:32:26Z</time></trkpt><trkpt lat="43.069184857105945" lon="12.137589126558952"><ele>377.0</ele><time>2026-04-12T10:32:28Z</time></trkpt><trkpt lat="43.069307140191995" lon="12.137621366626655"><ele>379.40000000000003</ele><time>2026-04-12T10:32:30Z</time></trkpt><trkpt lat="43.06937060281181" lon="12.13767566623447"><ele>381.8</ele><time>2026-04-12T10:32:31Z</time></trkpt><trkpt lat="43.06942703501425" lon="12.137749036034934"><ele>384.2</ele><time>2026-04-12T10:32:32Z</time></trkpt><trkpt lat="43.06948781828588" lon="12.137854886915893"><ele>386.6</ele><time>2026-04-12T10:32:33Z</time></trkpt><trkpt lat="43.069575751949266" lon="12.13794202831424"><ele>389.0</ele><time>2026-04-12T10:32:34Z</time></trkpt><trkpt lat="43.0696723022012" lon="12.138016975463017"><ele>389.0</ele><time>2026-04-12T10:32:35Z</time></trkpt><trkpt lat="43.06974733139332" lon="12.138104273252434"><ele>389.0</ele><time>2026-04-12T10:32:36Z</time></trkpt><trkpt lat="43.06981185194288" lon="12.138194440605567"><ele>389.0</ele><time>2026-04-12T10:32:37Z</time></trkpt><trkpt lat="43.06989755826988" lon="12.138281726682246"><ele>389.0</ele><time>2026-04-12T10:32:38Z</time></trkpt><trkpt lat="43.06996022127178" lon="12.138349587166505"><ele>389.0</ele><time>2026-04-12T10:32:39Z</time></trkpt><trkpt lat="43.070018938078846" lon="12.138409595564191"><ele>388.6</ele><time>2026-04-12T10:32:41Z</time></trkpt><trkpt lat="43.070120706378624" lon="12.138490656659517"><ele>388.2</ele><time>2026-04-12T10:32:43Z</time></trkpt><trkpt lat="43.07019236594456" lon="12.13856933522016"><ele>387.8</ele><time>2026-04-12T10:32:44Z</time></trkpt><trkpt lat="43.07026792160129" lon="12.138624237304304"><ele>387.40000000000003</ele><time>2026-04-12T10:32:45Z</time></trkpt><trkpt lat="43.07035770856788" lon="12.138635624018079"><ele>387.0</ele><time>2026-04-12T10:32:46Z</time></trkpt><trkpt lat="43.07044199915883" lon="12.138642253803923"><ele>387.0</ele><time>2026-04-12T10:32:47Z</time></trkpt><trkpt lat="43.07051661610164" lon="12.138623492291174"><ele>387.0</ele><time>2026-04-12T10:32:48Z</time></trkpt><trkpt lat="43.0705870494724" lon="12.138582736313328"><ele>387.0</ele><time>2026-04-12T10:32:49Z</time></trkpt><trkpt lat="43.07065201035927" lon="12.138514878739079"><ele>387.0</ele><time>2026-04-12T10:32:50Z</time></trkpt><trkpt lat="43.07070699781199" lon="12.138437683699165"><ele>387.0</ele><time>2026-04-12T10:32:51Z</time></trkpt><trkpt lat="43.07075494105896" lon="12.138349166335592"><ele>387.0</ele><time>2026-04-12T10:32:52Z</time></trkpt><trkpt lat="43.07080665693974" lon="12.138267719194923"><ele>382.1666666666667</ele><time>2026-04-12T10:32:53Z</time></trkpt><trkpt lat="43.070871511829054" lon="12.138204531105737"><ele>377.3333333333333</ele><time>2026-04-12T10:32:54Z</time></trkpt><trkpt lat="43.07093610906248" lon="12.138157699523589"><ele>372.5</ele><time>2026-04-12T10:32:55Z</time></trkpt><trkpt lat="43.07101225139995" lon="12.138117203991436"><ele>367.66666666666663</ele><time>2026-04-12T10:32:56Z</time></trkpt><trkpt lat="43.07108712642536" lon="12.138106772170298"><ele>362.8333333333333</ele><time>2026-04-12T10:32:57Z</time></trkpt><trkpt lat="43.071149069636505" lon="12.138138702321065"><ele>358.0</ele><time>2026-04-12T10:32:58Z</time></trkpt><trkpt lat="43.071203771147346" lon="12.13821576646603"><ele>361.16666666666663</ele><time>2026-04-12T10:32:59Z</time></trkpt><trkpt lat="43.07122783694628" lon="12.138303787355433"><ele>364.3333333333333</ele><time>2026-04-12T10:33:00Z</time></trkpt><trkpt lat="43.071243536453515" lon="12.138417233999322"><ele>367.5</ele><time>2026-04-12T10:33:01Z</time></trkpt><trkpt lat="43.071265029569766" lon="12.138532824628966"><ele>370.6666666666667</ele><time>2026-04-12T10:33:02Z</time></trkpt><trkpt lat="43.07129802875657" lon="12.1386591137709"><ele>373.83333333333337</ele><time>2026-04-12T10:33:03Z</time></trkpt><trkpt lat="43.07132449132815" lon="12.138806162050884"><ele>377.0</ele><time>2026-04-12T10:33:04Z</time></trkpt><trkpt lat="43.071320714191984" lon="12.13895146868367"><ele>380.0</ele><time>2026-04-12T10:33:05Z</time></trkpt><trkpt lat="43.07130534842415" lon="12.139063860058098"><ele>383.0</ele><time>2026-04-12T10:33:06Z</time></trkpt><trkpt lat="43.071307190156055" lon="12.13918158971431"><ele>386.0</ele><time>2026-04-12T10:33:07Z</time></trkpt><trkpt lat="43.07133041435451" lon="12.139306629002546"><ele>389.0</ele><time>2026-04-12T10:33:08Z</time></trkpt><trkpt lat="43.07136053636875" lon="12.139392805316065"><ele>391.99999999999994</ele><time>2026-04-12T10:33:09Z</time></trkpt><trkpt lat="43.07140065883732" lon="12.139492933994642"><ele>395.0</ele><time>2026-04-12T10:33:11Z</time></trkpt><trkpt lat="43.071455201255475" lon="12.139543341620884"><ele>395.0</ele><time>2026-04-12T10:33:12Z</time></trkpt><trkpt lat="43.071533281005635" lon="12.139555523398828"><ele>395.0</ele><time>2026-04-12T10:33:13Z</time></trkpt><trkpt lat="43.07161866139225" lon="12.13956310261132"><ele>395.0</ele><time>2026-04-12T10:33:14Z</time></trkpt><trkpt lat="43.07170827547207" lon="12.13954309850931"><ele>395.0</ele><time>2026-04-12T10:33:15Z</time></trkpt><trkpt lat="43.07182221213803" lon="12.139518291768995"><ele>395.0</ele><time>2026-04-12T10:33:16Z</time></trkpt><trkpt lat="43.07192371388203" lon="12.139541963329409"><ele>387.75</ele><time>2026-04-12T10:33:17Z</time></trkpt><trkpt lat="43.07200446987882" lon="12.139578751740604"><ele>380.5</ele><time>2026-04-12T10:33:18Z</time></trkpt><trkpt lat="43.072117906488685" lon="12.139663438194013"><ele>373.25</ele><time>2026-04-12T10:33:19Z</time></trkpt><trkpt lat="43.07224734132713" lon="12.139751194132952"><ele>366.0</ele><time>2026-04-12T10:33:20Z</time></trkpt><trkpt lat="43.07236313889778" lon="12.139807288249644"><ele>364.6</ele><time>2026-04-12T10:33:21Z</time></trkpt><trkpt lat="43.07245237002098" lon="12.139798478457271"><ele>363.20000000000005</ele><time>2026-04-12T10:33:22Z</time></trkpt><trkpt lat="43.072541285305725" lon="12.139771758514573"><ele>361.79999999999995</ele><time>2026-04-12T10:33:23Z</time></trkpt><trkpt lat="43.07263611958361" lon="12.139761018872614"><ele>360.4</ele><time>2026-04-12T10:33:24Z</time></trkpt><trkpt lat="43.07272094253941" lon="12.139752000217106"><ele>359.0</ele><time>2026-04-12T10:33:25Z</time></trkpt><trkpt lat="43.0728253379319" lon="12.139723382683158"><ele>359.0</ele><time>2026-04-12T10:33:26Z</time></trkpt><trkpt lat="43.072917492904665" lon="12.139661641028072"><ele>359.0</ele><time>2026-04-12T10:33:27Z</time></trkpt><trkpt lat="43.073033980118254" lon="12.13962934981535"><ele>359.0</ele><time>2026-04-12T10:33:28Z</time></trkpt><trkpt lat="43.073107446103364" lon="12.13963734681876"><ele>359.0</ele><time>2026-04-12T10:33:29Z</time></trkpt><trkpt lat="43.073181679431805" lon="12.139667480400448"><ele>359.0</ele><time>2026-04-12T10:33:30Z</time></trkpt><trkpt lat="43.073276058608734" lon="12.139695382859635"><ele>360.4</ele><time>2026-04-12T10:33:31Z</time></trkpt><trkpt lat="43.0733562417492" lon="12.139721365435415"><ele>361.79999999999995</ele><time>2026-04-12T10:33:32Z</time></trkpt><trkpt lat="43.0734299258905" lon="12.139772540178846"><ele>363.20000000000005</ele><time>2026-04-12T10:33:33Z</time></trkpt><trkpt lat="43.07351736407389" lon="12.139859278166726"><ele>364.6</ele><time>2026-04-12T10:33:34Z</time></trkpt><trkpt lat="43.07362234030526" lon="12.139940244887775"><ele>366.0</ele><time>2026-04-12T10:33:35Z</time></trkpt><trkpt lat="43.07371452574202" lon="12.139990821749073"><ele>367.4</ele><time>2026-04-12T10:33:36Z</time></trkpt><trkpt lat="43.073776190829385" lon="12.140013849138917"><ele>368.8</ele><time>2026-04-12T10:33:37Z</time></trkpt><trkpt lat="43.07384478069151" lon="12.140014313531047"><ele>370.2</ele><time>2026-04-12T10:33:38Z</time></trkpt><trkpt lat="43.07394348077072" lon="12.139994697441793"><ele>371.59999999999997</ele><time>2026-04-12T10:33:39Z</time></trkpt><trkpt lat="43.07405936559628" lon="12.13995932276979"><ele>373.0</ele><time>2026-04-12T10:33:40Z</time></trkpt><trkpt lat="43.07418947516373" lon="12.139905393653152"><ele>373.0</ele><time>2026-04-12T10:33:41Z</time></trkpt><trkpt lat="43.07430878764109" lon="12.139863189851253"><ele>373.0</ele><time>2026-04-12T10:33:42Z</time></trkpt><trkpt lat="43.07441280133728" lon="12.139848802473573"><ele>373.0</ele><time>2026-04-12T10:33:43Z</time></trkpt><trkpt lat="43.07449219065471" lon="12.13987700846381"><ele>373.0</ele><time>2026-04-12T10:33:44Z</time></trkpt><trkpt lat="43.074554523134786" lon="12.139895792052469"><ele>373.0</ele><time>2026-04-12T10:33:45Z</time></trkpt><trkpt lat="43.074627568991026" lon="12.13985926830518"><ele>371.0</ele><time>2026-04-12T10:33:46Z</time></trkpt><trkpt lat="43.074729147626364" lon="12.139784869482066"><ele>369.0</ele><time>2026-04-12T10:33:47Z</time></trkpt><trkpt lat="43.07486839734092" lon="12.139707077058414"><ele>367.0</ele><time>2026-04-12T10:33:48Z</time></trkpt><trkpt lat="43.07500904803472" lon="12.139625108707085"><ele>365.0</ele><time>2026-04-12T10:33:49Z</time></trkpt><trkpt lat="43.07513616240546" lon="12.139540863381324"><ele>364.6</ele><time>2026-04-12T10:33:50Z</time></trkpt><trkpt lat="43.075246178529014" lon="12.139464064711055"><ele>364.2</ele><time>2026-04-12T10:33:51Z</time></trkpt><trkpt lat="43.075347505211845" lon="12.139393658313107"><ele>363.79999999999995</ele><time>2026-04-12T10:33:52Z</time></trkpt><trkpt lat="43.075442099252506" lon="12.139339376282328"><ele>363.4</ele><time>2026-04-12T10:33:53Z</time></trkpt><trkpt lat="43.075528141677125" lon="12.139308111024048"><ele>363.0</ele><time>2026-04-12T10:33:54Z</time></trkpt><trkpt lat="43.0756242241953" lon="12.139301075630735"><ele>363.0</ele><time>2026-04-12T10:33:55Z</time></trkpt><trkpt lat="43.07571622813263" lon="12.13931251354844"><ele>363.0</ele><time>2026-04-12T10:33:56Z</time></trkpt><trkpt lat="43.07581095594053" lon="12.139329739446822"><ele>363.0</ele><time>2026-04-12T10:33:57Z</time></trkpt><trkpt lat="43.075893346085024" lon="12.139342413899401"><ele>363.0</ele><time>2026-04-12T10:33:58Z</time></trkpt><trkpt lat="43.07597815144815" lon="12.139351980254851"><ele>363.0</ele><time>2026-04-12T10:33:59Z</time></trkpt><trkpt lat="43.076058653529415" lon="12.139365990789354"><ele>363.0</ele><time>2026-04-12T10:34:00Z</time></trkpt><trkpt lat="43.07614499850114" lon="12.139373766456949"><ele>363.3333333333333</ele><time>2026-04-12T10:34:01Z</time></trkpt><trkpt lat="43.076225422127045" lon="12.139347035794707"><ele>363.6666666666667</ele><time>2026-04-12T10:34:02Z</time></trkpt><trkpt lat="43.076299600923626" lon="12.139300771025795"><ele>364.0</ele><time>2026-04-12T10:34:03Z</time></trkpt><trkpt lat="43.07637182920537" lon="12.139241944837641"><ele>364.33333333333337</ele><time>2026-04-12T10:34:04Z</time></trkpt><trkpt lat="43.07644128371297" lon="12.13918630729088"><ele>364.6666666666667</ele><time>2026-04-12T10:34:05Z</time></trkpt><trkpt lat="43.07650530457223" lon="12.139136007749794"><ele>365.0</ele><time>2026-04-12T10:34:06Z</time></trkpt><trkpt lat="43.07656743853271" lon="12.139080148894013"><ele>363.1666666666667</ele><time>2026-04-12T10:34:07Z</time></trkpt><trkpt lat="43.07663569106378" lon="12.139033540355667"><ele>361.33333333333337</ele><time>2026-04-12T10:34:08Z</time></trkpt><trkpt lat="43.076703865166756" lon="12.138991043489407"><ele>359.5</ele><time>2026-04-12T10:34:09Z</time></trkpt><trkpt lat="43.07676926161256" lon="12.138936394926603"><ele>357.6666666666667</ele><time>2026-04-12T10:34:10Z</time></trkpt><trkpt lat="43.076823582804444" lon="12.138876398852716"><ele>355.8333333333333</ele><time>2026-04-12T10:34:11Z</time></trkpt><trkpt lat="43.076867391264095" lon="12.13878999752871"><ele>354.0</ele><time>2026-04-12T10:34:12Z</time></trkpt><trkpt lat="43.07690767851445" lon="12.138693560589257"><ele>354.0</ele><time>2026-04-12T10:34:13Z</time></trkpt><trkpt lat="43.076920254582376" lon="12.138586250873301"><ele>354.0</ele><time>2026-04-12T10:34:14Z</time></trkpt><trkpt lat="43.07692647623766" lon="12.138474882405259"><ele>354.0</ele><time>2026-04-12T10:34:15Z</time></trkpt><trkpt lat="43.0769248373365" lon="12.138362579244253"><ele>354.0</ele><time>2026-04-12T10:34:16Z</time></trkpt><trkpt lat="43.07691150584343" lon="12.138256544158043"><ele>354.0</ele><time>2026-04-12T10:34:17Z</time></trkpt><trkpt lat="43.07688059639457" lon="12.138094661608507"><ele>354.0</ele><time>2026-04-12T10:34:19Z</time></trkpt><trkpt lat="43.07688369794845" lon="12.137958067828711"><ele>354.0</ele><time>2026-04-12T10:34:21Z</time></trkpt><trkpt lat="43.07697541343352" lon="12.137932176095433"><ele>354.0</ele><time>2026-04-12T10:34:23Z</time></trkpt><trkpt lat="43.07703620291101" lon="12.137979882276179"><ele>354.0</ele><time>2026-04-12T10:34:24Z</time></trkpt><trkpt lat="43.07710174638902" lon="12.138035300207948"><ele>354.0</ele><time>2026-04-12T10:34:25Z</time></trkpt><trkpt lat="43.077157745521866" lon="12.138092620824468"><ele>354.0</ele><time>2026-04-12T10:34:26Z</time></trkpt><trkpt lat="43.077208401005926" lon="12.138154349459672"><ele>354.0</ele><time>2026-04-12T10:34:27Z</time></trkpt><trkpt lat="43.07724920506119" lon="12.138221046764912"><ele>354.0</ele><time>2026-04-12T10:34:28Z</time></trkpt><trkpt lat="43.07728115734716" lon="12.138305458034784"><ele>354.0</ele><time>2026-04-12T10:34:29Z</time></trkpt><trkpt lat="43.077306580874755" lon="12.13839124293121"><ele>354.0</ele><time>2026-04-12T10:34:30Z</time></trkpt><trkpt lat="43.077356769857424" lon="12.138480158112523"><ele>354.0</ele><time>2026-04-12T10:34:32Z</time></trkpt><trkpt lat="43.07750000531322" lon="12.138418215227393"><ele>354.0</ele><time>2026-04-12T10:34:34Z</time></trkpt><trkpt lat="43.0775763495971" lon="12.138402222595186"><ele>354.0</ele><time>2026-04-12T10:34:35Z</time></trkpt><trkpt lat="43.07764802170368" lon="12.138374905717626"><ele>350.0</ele><time>2026-04-12T10:34:36Z</time></trkpt><trkpt lat="43.07773643687128" lon="12.138340271016316"><ele>346.0</ele><time>2026-04-12T10:34:38Z</time></trkpt><trkpt lat="43.077734197685764" lon="12.138431194275409"><ele>342.0</ele><time>2026-04-12T10:34:40Z</time></trkpt><trkpt lat="43.07763270690829" lon="12.138505905125161"><ele>338.0</ele><time>2026-04-12T10:34:42Z</time></trkpt><trkpt lat="43.07758271103775" lon="12.138560894246142"><ele>334.0</ele><time>2026-04-12T10:34:43Z</time></trkpt><trkpt lat="43.07761737967119" lon="12.13865335546747"><ele>330.0</ele><time>2026-04-12T10:34:45Z</time></trkpt><trkpt lat="43.07768921581479" lon="12.13865382637489"><ele>330.0</ele><time>2026-04-12T10:34:46Z</time></trkpt><trkpt lat="43.07776712024196" lon="12.138593864344958"><ele>330.0</ele><time>2026-04-12T10:34:47Z</time></trkpt><trkpt lat="43.07786678063782" lon="12.138528934485837"><ele>330.0</ele><time>2026-04-12T10:34:48Z</time></trkpt><trkpt lat="43.077956169661334" lon="12.138511010061913"><ele>330.0</ele><time>2026-04-12T10:34:49Z</time></trkpt><trkpt lat="43.07802654145716" lon="12.1384863291041"><ele>330.0</ele><time>2026-04-12T10:34:50Z</time></trkpt><trkpt lat="43.07813865218803" lon="12.138513631369193"><ele>330.0</ele><time>2026-04-12T10:34:52Z</time></trkpt><trkpt lat="43.078257376106734" lon="12.138542241335163"><ele>330.0</ele><time>2026-04-12T10:34:54Z</time></trkpt><trkpt lat="43.07832603123121" lon="12.13860745211867"><ele>330.0</ele><time>2026-04-12T10:34:56Z</time></trkpt><trkpt lat="43.07822478190617" lon="12.138672288453856"><ele>330.0</ele><time>2026-04-12T10:34:59Z</time></trkpt><trkpt lat="43.07815556998939" lon="12.138679267922708"><ele>330.0</ele><time>2026-04-12T10:35:00Z</time></trkpt><trkpt lat="43.07806542999812" lon="12.138739733366787"><ele>330.0</ele><time>2026-04-12T10:35:02Z</time></trkpt><trkpt lat="43.078113692284106" lon="12.138881050929703"><ele>330.0</ele><time>2026-04-12T10:35:06Z</time></trkpt><trkpt lat="43.07818387880839" lon="12.138921563236448"><ele>330.0</ele><time>2026-04-12T10:35:07Z</time></trkpt><trkpt lat="43.07827227474106" lon="12.138937131186195"><ele>330.0</ele><time>2026-04-12T10:35:08Z</time></trkpt><trkpt lat="43.0783588423122" lon="12.138941220963723"><ele>330.0</ele><time>2026-04-12T10:35:09Z</time></trkpt><trkpt lat="43.078437843649276" lon="12.138965749949095"><ele>330.0</ele><time>2026-04-12T10:35:10Z</time></trkpt><trkpt lat="43.07851344974229" lon="12.138980486869437"><ele>328.1666666666667</ele><time>2026-04-12T10:35:11Z</time></trkpt><trkpt lat="43.07859089369877" lon="12.138989088925308"><ele>326.3333333333333</ele><time>2026-04-12T10:35:12Z</time></trkpt><trkpt lat="43.07866223689074" lon="12.138991404783617"><ele>324.5</ele><time>2026-04-12T10:35:13Z</time></trkpt><trkpt lat="43.07873031762639" lon="12.138981825015193"><ele>322.66666666666663</ele><time>2026-04-12T10:35:14Z</time></trkpt><trkpt lat="43.07886010354324" lon="12.138951529724414"><ele>320.8333333333333</ele><time>2026-04-12T10:35:16Z</time></trkpt><trkpt lat="43.078928722123074" lon="12.13893834400059"><ele>319.0</ele><time>2026-04-12T10:35:17Z</time></trkpt><trkpt lat="43.07903165422516" lon="12.138942252483302"><ele>319.0</ele><time>2026-04-12T10:35:19Z</time></trkpt><trkpt lat="43.07909165128679" lon="12.138990569549692"><ele>319.0</ele><time>2026-04-12T10:35:22Z</time></trkpt><trkpt lat="43.07899368510371" lon="12.13892941668768"><ele>319.0</ele><time>2026-04-12T10:35:28Z</time></trkpt><trkpt lat="43.07889504253022" lon="12.138933249014409"><ele>319.0</ele><time>2026-04-12T10:35:29Z</time></trkpt><trkpt lat="43.07878532168754" lon="12.138945154137794"><ele>319.0</ele><time>2026-04-12T10:35:30Z</time></trkpt><trkpt lat="43.07866731393414" lon="12.138949849962684"><ele>319.0</ele><time>2026-04-12T10:35:31Z</time></trkpt><trkpt lat="43.07854176277874" lon="12.138961521764783"><ele>319.0</ele><time>2026-04-12T10:35:32Z</time></trkpt><trkpt lat="43.078418117191454" lon="12.138933150574651"><ele>319.0</ele><time>2026-04-12T10:35:33Z</time></trkpt><trkpt lat="43.07829798280921" lon="12.138905948472123"><ele>319.0</ele><time>2026-04-12T10:35:34Z</time></trkpt><trkpt lat="43.07819872075599" lon="12.138911176926666"><ele>319.0</ele><time>2026-04-12T10:35:35Z</time></trkpt><trkpt lat="43.07812627348497" lon="12.138890880207915"><ele>319.0</ele><time>2026-04-12T10:35:36Z</time></trkpt><trkpt lat="43.078044129964766" lon="12.138813980331344"><ele>319.0</ele><time>2026-04-12T10:35:38Z</time></trkpt><trkpt lat="43.07810248649466" lon="12.138755082555393"><ele>319.0</ele><time>2026-04-12T10:35:53Z</time></trkpt><trkpt lat="43.078167495394666" lon="12.138717918729448"><ele>319.0</ele><time>2026-04-12T10:35:54Z</time></trkpt><trkpt lat="43.07825254303538" lon="12.13870072299068"><ele>319.0</ele><time>2026-04-12T10:35:55Z</time></trkpt><trkpt lat="43.078325354255725" lon="12.138632708117173"><ele>319.0</ele><time>2026-04-12T10:35:57Z</time></trkpt><trkpt lat="43.07828693789702" lon="12.13854390408127"><ele>319.0</ele><time>2026-04-12T10:35:59Z</time></trkpt><trkpt lat="43.078213546135125" lon="12.138546078105524"><ele>319.0</ele><time>2026-04-12T10:36:01Z</time></trkpt><trkpt lat="43.07815227008833" lon="12.138581707249317"><ele>319.0</ele><time>2026-04-12T10:36:02Z</time></trkpt><trkpt lat="43.07807054090877" lon="12.138619422285421"><ele>319.0</ele><time>2026-04-12T10:36:03Z</time></trkpt><trkpt lat="43.077972230850754" lon="12.138645584540619"><ele>319.0</ele><time>2026-04-12T10:36:04Z</time></trkpt><trkpt lat="43.077859578636485" lon="12.138689326149493"><ele>320.0</ele><time>2026-04-12T10:36:05Z</time></trkpt><trkpt lat="43.0777676717886" lon="12.138738969181302"><ele>321.0</ele><time>2026-04-12T10:36:06Z</time></trkpt><trkpt lat="43.07768710466258" lon="12.138794669362293"><ele>322.0</ele><time>2026-04-12T10:36:07Z</time></trkpt><trkpt lat="43.0776395307587" lon="12.138866106698284"><ele>323.0</ele><time>2026-04-12T10:36:08Z</time></trkpt><trkpt lat="43.0776272555928" lon="12.13896080168464"><ele>324.0</ele><time>2026-04-12T10:36:09Z</time></trkpt><trkpt lat="43.077627291345166" lon="12.139100269535858"><ele>325.0</ele><time>2026-04-12T10:36:10Z</time></trkpt><trkpt lat="43.07763069415705" lon="12.139277180853389"><ele>325.0</ele><time>2026-04-12T10:36:11Z</time></trkpt><trkpt lat="43.077634571413085" lon="12.139451011725932"><ele>325.0</ele><time>2026-04-12T10:36:12Z</time></trkpt><trkpt lat="43.07763423861962" lon="12.13958683084566"><ele>325.0</ele><time>2026-04-12T10:36:13Z</time></trkpt><trkpt lat="43.07762094328552" lon="12.139713848963023"><ele>325.0</ele><time>2026-04-12T10:36:14Z</time></trkpt><trkpt lat="43.07758644311313" lon="12.139840747152698"><ele>325.0</ele><time>2026-04-12T10:36:15Z</time></trkpt><trkpt lat="43.077531483777015" lon="12.139969817328513"><ele>323.4</ele><time>2026-04-12T10:36:16Z</time></trkpt><trkpt lat="43.077471892503205" lon="12.140076723082714"><ele>321.8</ele><time>2026-04-12T10:36:17Z</time></trkpt><trkpt lat="43.07740255480867" lon="12.140176770839837"><ele>320.2</ele><time>2026-04-12T10:36:18Z</time></trkpt><trkpt lat="43.07730932251443" lon="12.140267283936012"><ele>318.6</ele><time>2026-04-12T10:36:19Z</time></trkpt><trkpt lat="43.07719042164163" lon="12.140347595987105"><ele>317.0</ele><time>2026-04-12T10:36:20Z</time></trkpt><trkpt lat="43.07704715675719" lon="12.140436151460651"><ele>317.0</ele><time>2026-04-12T10:36:21Z</time></trkpt><trkpt lat="43.076921485601495" lon="12.140528787842673"><ele>317.0</ele><time>2026-04-12T10:36:22Z</time></trkpt><trkpt lat="43.07681420893675" lon="12.140641212236345"><ele>317.0</ele><time>2026-04-12T10:36:23Z</time></trkpt><trkpt lat="43.07671687728905" lon="12.140746776843116"><ele>317.0</ele><time>2026-04-12T10:36:24Z</time></trkpt><trkpt lat="43.07663318894148" lon="12.140834890319974"><ele>319.33333333333337</ele><time>2026-04-12T10:36:25Z</time></trkpt><trkpt lat="43.076559676225216" lon="12.140906056197306"><ele>321.6666666666667</ele><time>2026-04-12T10:36:26Z</time></trkpt><trkpt lat="43.07650569171808" lon="12.140968903127769"><ele>324.0</ele><time>2026-04-12T10:36:27Z</time></trkpt><trkpt lat="43.076446914830974" lon="12.141014035882657"><ele>326.3333333333333</ele><time>2026-04-12T10:36:28Z</time></trkpt><trkpt lat="43.07637172352183" lon="12.141087915644256"><ele>328.66666666666663</ele><time>2026-04-12T10:36:30Z</time></trkpt><trkpt lat="43.07627690150141" lon="12.141150135689333"><ele>331.0</ele><time>2026-04-12T10:36:32Z</time></trkpt><trkpt lat="43.076186992118885" lon="12.14119927694246"><ele>331.0</ele><time>2026-04-12T10:36:34Z</time></trkpt><trkpt lat="43.07618076471286" lon="12.141318954057192"><ele>331.0</ele><time>2026-04-12T10:36:36Z</time></trkpt><trkpt lat="43.076141333013155" lon="12.141389297879321"><ele>331.0</ele><time>2026-04-12T10:36:38Z</time></trkpt><trkpt lat="43.076044561069274" lon="12.14143185787154"><ele>331.0</ele><time>2026-04-12T10:36:40Z</time></trkpt><trkpt lat="43.07600893433904" lon="12.141503531698993"><ele>331.0</ele><time>2026-04-12T10:36:42Z</time></trkpt><trkpt lat="43.07595073722906" lon="12.141567034963703"><ele>331.0</ele><time>2026-04-12T10:36:44Z</time></trkpt><trkpt lat="43.075863423697506" lon="12.14161910423565"><ele>330.4</ele><time>2026-04-12T10:36:45Z</time></trkpt><trkpt lat="43.07579526906224" lon="12.141705922668528"><ele>329.8</ele><time>2026-04-12T10:36:46Z</time></trkpt><trkpt lat="43.07573388326474" lon="12.141840491594381"><ele>329.2</ele><time>2026-04-12T10:36:48Z</time></trkpt><trkpt lat="43.075643247235234" lon="12.141961082741869"><ele>328.59999999999997</ele><time>2026-04-12T10:36:50Z</time></trkpt><trkpt lat="43.07559953377893" lon="12.14204190071012"><ele>328.0</ele><time>2026-04-12T10:36:51Z</time></trkpt><trkpt lat="43.07549312402484" lon="12.142155859646437"><ele>328.0</ele><time>2026-04-12T10:36:53Z</time></trkpt><trkpt lat="43.075414900528386" lon="12.142262326630188"><ele>328.0</ele><time>2026-04-12T10:36:54Z</time></trkpt><trkpt lat="43.0753520173843" lon="12.142350866866373"><ele>328.0</ele><time>2026-04-12T10:36:55Z</time></trkpt><trkpt lat="43.07529877879315" lon="12.142420450800694"><ele>328.0</ele><time>2026-04-12T10:36:56Z</time></trkpt><trkpt lat="43.07522807413594" lon="12.142524102068387"><ele>328.0</ele><time>2026-04-12T10:36:58Z</time></trkpt><trkpt lat="43.07518979982739" lon="12.142594060378507"><ele>328.0</ele><time>2026-04-12T10:36:59Z</time></trkpt><trkpt lat="43.0751052780723" lon="12.142669327474367"><ele>325.0</ele><time>2026-04-12T10:37:01Z</time></trkpt><trkpt lat="43.07507899783398" lon="12.142763453556379"><ele>322.0</ele><time>2026-04-12T10:37:03Z</time></trkpt><trkpt lat="43.075126485130504" lon="12.142826679886383"><ele>319.0</ele><time>2026-04-12T10:37:05Z</time></trkpt><trkpt lat="43.07523498726354" lon="12.142977612489656"><ele>316.0</ele><time>2026-04-12T10:37:07Z</time></trkpt><trkpt lat="43.075304560178104" lon="12.143016566762833"><ele>313.0</ele><time>2026-04-12T10:37:08Z</time></trkpt><trkpt lat="43.075404229145825" lon="12.143111277118052"><ele>313.0</ele><time>2026-04-12T10:37:09Z</time></trkpt><trkpt lat="43.07548714428051" lon="12.143210832256866"><ele>313.0</ele><time>2026-04-12T10:37:10Z</time></trkpt><trkpt lat="43.075585744527366" lon="12.143306309057989"><ele>313.0</ele><time>2026-04-12T10:37:11Z</time></trkpt><trkpt lat="43.07566545323098" lon="12.1434026833618"><ele>313.0</ele><time>2026-04-12T10:37:12Z</time></trkpt><trkpt lat="43.07570597316232" lon="12.143541707573995"><ele>313.0</ele><time>2026-04-12T10:37:13Z</time></trkpt><trkpt lat="43.075747032777706" lon="12.143640660982149"><ele>309.66666666666663</ele><time>2026-04-12T10:37:14Z</time></trkpt><trkpt lat="43.07582499009769" lon="12.143709210885937"><ele>306.3333333333333</ele><time>2026-04-12T10:37:15Z</time></trkpt><trkpt lat="43.075903569989975" lon="12.143663846202587"><ele>303.0</ele><time>2026-04-12T10:37:16Z</time></trkpt><trkpt lat="43.07598921598226" lon="12.1436370812764"><ele>299.6666666666667</ele><time>2026-04-12T10:37:17Z</time></trkpt><trkpt lat="43.076086359961096" lon="12.143610088768481"><ele>296.33333333333337</ele><time>2026-04-12T10:37:18Z</time></trkpt><trkpt lat="43.07616041696708" lon="12.143615819849627"><ele>293.0</ele><time>2026-04-12T10:37:19Z</time></trkpt><trkpt lat="43.07619416281997" lon="12.143688941016455"><ele>293.0</ele><time>2026-04-12T10:37:20Z</time></trkpt><trkpt lat="43.076237231438476" lon="12.143774961840087"><ele>293.0</ele><time>2026-04-12T10:37:21Z</time></trkpt><trkpt lat="43.07631208657852" lon="12.14397017626899"><ele>293.0</ele><time>2026-04-12T10:37:22Z</time></trkpt><trkpt lat="43.076424335855286" lon="12.144163270466969"><ele>293.0</ele><time>2026-04-12T10:37:23Z</time></trkpt><trkpt lat="43.07653440354367" lon="12.144338835368057"><ele>291.4</ele><time>2026-04-12T10:37:24Z</time></trkpt><trkpt lat="43.07662152840144" lon="12.144491644384766"><ele>289.8</ele><time>2026-04-12T10:37:25Z</time></trkpt><trkpt lat="43.07669110784643" lon="12.144618184075767"><ele>288.2</ele><time>2026-04-12T10:37:26Z</time></trkpt><trkpt lat="43.07673944653494" lon="12.144716894442436"><ele>286.6</ele><time>2026-04-12T10:37:27Z</time></trkpt><trkpt lat="43.07678185222815" lon="12.144808806458027"><ele>285.0</ele><time>2026-04-12T10:37:28Z</time></trkpt><trkpt lat="43.07675573996296" lon="12.1449094350621"><ele>284.5</ele><time>2026-04-12T10:37:29Z</time></trkpt><trkpt lat="43.07675369125804" lon="12.145021456573525"><ele>284.0</ele><time>2026-04-12T10:37:30Z</time></trkpt><trkpt lat="43.07677824059518" lon="12.145115600175785"><ele>283.5</ele><time>2026-04-12T10:37:31Z</time></trkpt><trkpt lat="43.07681348598176" lon="12.145218725066872"><ele>283.0</ele><time>2026-04-12T10:37:32Z</time></trkpt><trkpt lat="43.076848501750945" lon="12.145329718609265"><ele>282.5</ele><time>2026-04-12T10:37:33Z</time></trkpt><trkpt lat="43.076880885407576" lon="12.145414852277966"><ele>282.0</ele><time>2026-04-12T10:37:34Z</time></trkpt><trkpt lat="43.07696185209192" lon="12.145472649481038"><ele>282.0</ele><time>2026-04-12T10:37:35Z</time></trkpt><trkpt lat="43.07708022789947" lon="12.145520574915682"><ele>282.0</ele><time>2026-04-12T10:37:36Z</time></trkpt><trkpt lat="43.07719180293104" lon="12.145576034406787"><ele>282.0</ele><time>2026-04-12T10:37:37Z</time></trkpt><trkpt lat="43.07728205112139" lon="12.145625448432419"><ele>282.0</ele><time>2026-04-12T10:37:38Z</time></trkpt><trkpt lat="43.07735786315514" lon="12.14568371066402"><ele>282.0</ele><time>2026-04-12T10:37:39Z</time></trkpt><trkpt lat="43.07742193675337" lon="12.145769794611763"><ele>280.0</ele><time>2026-04-12T10:37:40Z</time></trkpt><trkpt lat="43.07750398741444" lon="12.145877189109063"><ele>278.0</ele><time>2026-04-12T10:37:41Z</time></trkpt><trkpt lat="43.07760420792197" lon="12.145984068438059"><ele>276.0</ele><time>2026-04-12T10:37:42Z</time></trkpt><trkpt lat="43.077704337634124" lon="12.146093851928622"><ele>274.0</ele><time>2026-04-12T10:37:43Z</time></trkpt><trkpt lat="43.07780287234868" lon="12.146175260746002"><ele>274.0</ele><time>2026-04-12T10:37:44Z</time></trkpt><trkpt lat="43.077900390262556" lon="12.146237533202994"><ele>274.0</ele><time>2026-04-12T10:37:45Z</time></trkpt><trkpt lat="43.078010372948185" lon="12.146287366980173"><ele>274.0</ele><time>2026-04-12T10:37:46Z</time></trkpt><trkpt lat="43.07813568515325" lon="12.146312879006391"><ele>274.0</ele><time>2026-04-12T10:37:47Z</time></trkpt><trkpt lat="43.07825751940189" lon="12.146338599777932"><ele>274.25</ele><time>2026-04-12T10:37:48Z</time></trkpt><trkpt lat="43.07837490913075" lon="12.146381821635671"><ele>274.5</ele><time>2026-04-12T10:37:49Z</time></trkpt><trkpt lat="43.07850782582567" lon="12.146462292153773"><ele>274.75</ele><time>2026-04-12T10:37:50Z</time></trkpt><trkpt lat="43.07865621068303" lon="12.146539967973062"><ele>275.0</ele><time>2026-04-12T10:37:51Z</time></trkpt><trkpt lat="43.07877192562794" lon="12.14659831276394"><ele>274.6</ele><time>2026-04-12T10:37:52Z</time></trkpt><trkpt lat="43.07886301494111" lon="12.146641312678957"><ele>274.2</ele><time>2026-04-12T10:37:53Z</time></trkpt><trkpt lat="43.07894923322651" lon="12.146658266000124"><ele>273.8</ele><time>2026-04-12T10:37:54Z</time></trkpt><trkpt lat="43.07903879569924" lon="12.146655320097901"><ele>273.4</ele><time>2026-04-12T10:37:55Z</time></trkpt><trkpt lat="43.07913329883059" lon="12.146658700821972"><ele>273.0</ele><time>2026-04-12T10:37:56Z</time></trkpt><trkpt lat="43.07922603230609" lon="12.146668523765456"><ele>272.42857142857144</ele><time>2026-04-12T10:37:57Z</time></trkpt><trkpt lat="43.07929317736715" lon="12.146694221536084"><ele>271.8571428571429</ele><time>2026-04-12T10:37:58Z</time></trkpt><trkpt lat="43.07936229561637" lon="12.14670438190249"><ele>271.2857142857143</ele><time>2026-04-12T10:37:59Z</time></trkpt><trkpt lat="43.07944193401742" lon="12.146704933892437"><ele>270.7142857142857</ele><time>2026-04-12T10:38:00Z</time></trkpt><trkpt lat="43.07952059689899" lon="12.146701473985155"><ele>270.14285714285717</ele><time>2026-04-12T10:38:01Z</time></trkpt><trkpt lat="43.07959150127516" lon="12.14670586391891"><ele>269.57142857142856</ele><time>2026-04-12T10:38:02Z</time></trkpt><trkpt lat="43.07965936678363" lon="12.146710883860896"><ele>269.0</ele><time>2026-04-12T10:38:03Z</time></trkpt><trkpt lat="43.07976782829739" lon="12.146727669283237"><ele>269.0</ele><time>2026-04-12T10:38:05Z</time></trkpt><trkpt lat="43.079807970164275" lon="12.146831018266527"><ele>269.0</ele><time>2026-04-12T10:38:07Z</time></trkpt><trkpt lat="43.07979258103507" lon="12.14691923108177"><ele>269.0</ele><time>2026-04-12T10:38:08Z</time></trkpt><trkpt lat="43.07975960907089" lon="12.147035197740005"><ele>269.0</ele><time>2026-04-12T10:38:09Z</time></trkpt><trkpt lat="43.079741533043155" lon="12.14717905341569"><ele>269.0</ele><time>2026-04-12T10:38:10Z</time></trkpt><trkpt lat="43.079743377812136" lon="12.147336624194935"><ele>269.0</ele><time>2026-04-12T10:38:11Z</time></trkpt><trkpt lat="43.07976410987878" lon="12.147519394042764"><ele>269.0</ele><time>2026-04-12T10:38:12Z</time></trkpt><trkpt lat="43.07978596651644" lon="12.147712011422097"><ele>269.0</ele><time>2026-04-12T10:38:13Z</time></trkpt><trkpt lat="43.079790387906286" lon="12.14788039800626"><ele>269.0</ele><time>2026-04-12T10:38:14Z</time></trkpt><trkpt lat="43.07979372940465" lon="12.148030538440295"><ele>269.0</ele><time>2026-04-12T10:38:15Z</time></trkpt><trkpt lat="43.07981007048781" lon="12.148167132582032"><ele>269.0</ele><time>2026-04-12T10:38:16Z</time></trkpt><trkpt lat="43.07984002133993" lon="12.148287955513602"><ele>269.0</ele><time>2026-04-12T10:38:17Z</time></trkpt><trkpt lat="43.07988235498922" lon="12.148376438297568"><ele>269.0</ele><time>2026-04-12T10:38:18Z</time></trkpt><trkpt lat="43.07995268304694" lon="12.14843532497588"><ele>269.0</ele><time>2026-04-12T10:38:20Z</time></trkpt><trkpt lat="43.080055043175484" lon="12.148475846442652"><ele>268.83333333333337</ele><time>2026-04-12T10:38:22Z</time></trkpt><trkpt lat="43.08012786041073" lon="12.148486692120494"><ele>268.6666666666667</ele><time>2026-04-12T10:38:23Z</time></trkpt><trkpt lat="43.08019091041775" lon="12.148468913938906"><ele>268.5</ele><time>2026-04-12T10:38:24Z</time></trkpt><trkpt lat="43.08028601576415" lon="12.148385426082397"><ele>268.3333333333333</ele><time>2026-04-12T10:38:26Z</time></trkpt><trkpt lat="43.08031483817263" lon="12.148238233938994"><ele>268.16666666666663</ele><time>2026-04-12T10:38:28Z</time></trkpt><trkpt lat="43.080307993485235" lon="12.148151471348406"><ele>268.0</ele><time>2026-04-12T10:38:29Z</time></trkpt><trkpt lat="43.08034583170736" lon="12.148039954133692"><ele>268.0</ele><time>2026-04-12T10:38:31Z</time></trkpt><trkpt lat="43.08045580025589" lon="12.148050777648304"><ele>268.0</ele><time>2026-04-12T10:38:33Z</time></trkpt><trkpt lat="43.08053348602124" lon="12.148163817171342"><ele>268.0</ele><time>2026-04-12T10:38:35Z</time></trkpt><trkpt lat="43.080529081237465" lon="12.148270429532008"><ele>268.0</ele><time>2026-04-12T10:38:36Z</time></trkpt><trkpt lat="43.08049097457879" lon="12.148370445955717"><ele>268.0</ele><time>2026-04-12T10:38:37Z</time></trkpt><trkpt lat="43.08046854377647" lon="12.148462322426571"><ele>267.8333333333333</ele><time>2026-04-12T10:38:38Z</time></trkpt><trkpt lat="43.08046883846592" lon="12.148599773925245"><ele>267.66666666666663</ele><time>2026-04-12T10:38:40Z</time></trkpt><trkpt lat="43.08057824479417" lon="12.148652709042317"><ele>267.5</ele><time>2026-04-12T10:38:41Z</time></trkpt><trkpt lat="43.080643919660815" lon="12.148679114547939"><ele>267.3333333333333</ele><time>2026-04-12T10:38:42Z</time></trkpt><trkpt lat="43.08070669218831" lon="12.148723359243172"><ele>267.1666666666667</ele><time>2026-04-12T10:38:43Z</time></trkpt><trkpt lat="43.0807669714356" lon="12.148790276893926"><ele>267.0</ele><time>2026-04-12T10:38:44Z</time></trkpt><trkpt lat="43.080840463200744" lon="12.148867587779236"><ele>267.0</ele><time>2026-04-12T10:38:45Z</time></trkpt><trkpt lat="43.08092022191339" lon="12.148935154319544"><ele>267.0</ele><time>2026-04-12T10:38:46Z</time></trkpt><trkpt lat="43.08102490442585" lon="12.149002548754419"><ele>267.0</ele><time>2026-04-12T10:38:47Z</time></trkpt><trkpt lat="43.08114621202881" lon="12.14904832592512"><ele>267.0</ele><time>2026-04-12T10:38:48Z</time></trkpt><trkpt lat="43.08126235618334" lon="12.14908682757543"><ele>267.0</ele><time>2026-04-12T10:38:49Z</time></trkpt><trkpt lat="43.081368112642146" lon="12.149102365513656"><ele>267.0</ele><time>2026-04-12T10:38:50Z</time></trkpt><trkpt lat="43.08145851838612" lon="12.149076646762502"><ele>267.0</ele><time>2026-04-12T10:38:51Z</time></trkpt><trkpt lat="43.08154330973068" lon="12.149035292208891"><ele>267.0</ele><time>2026-04-12T10:38:52Z</time></trkpt><trkpt lat="43.08162313990358" lon="12.14900669969968"><ele>267.0</ele><time>2026-04-12T10:38:53Z</time></trkpt><trkpt lat="43.081687724810976" lon="12.148977655602634"><ele>267.0</ele><time>2026-04-12T10:38:54Z</time></trkpt><trkpt lat="43.08174795662531" lon="12.14895056911956"><ele>266.6666666666667</ele><time>2026-04-12T10:38:55Z</time></trkpt><trkpt lat="43.08185235729493" lon="12.148891771170373"><ele>266.3333333333333</ele><time>2026-04-12T10:38:57Z</time></trkpt><trkpt lat="43.08191840142027" lon="12.148894703841064"><ele>266.0</ele><time>2026-04-12T10:39:00Z</time></trkpt><trkpt lat="43.08194020305724" lon="12.148993048184344"><ele>265.66666666666663</ele><time>2026-04-12T10:39:02Z</time></trkpt><trkpt lat="43.081929807346704" lon="12.14910337757073"><ele>265.3333333333333</ele><time>2026-04-12T10:39:03Z</time></trkpt><trkpt lat="43.081913070564894" lon="12.149228369206817"><ele>265.0</ele><time>2026-04-12T10:39:04Z</time></trkpt><trkpt lat="43.08190341622964" lon="12.149369110584255"><ele>265.0</ele><time>2026-04-12T10:39:05Z</time></trkpt><trkpt lat="43.08189570882499" lon="12.149524583962348"><ele>265.0</ele><time>2026-04-12T10:39:06Z</time></trkpt><trkpt lat="43.08188979646751" lon="12.149679246191077"><ele>265.0</ele><time>2026-04-12T10:39:07Z</time></trkpt><trkpt lat="43.081888280063495" lon="12.149825866008923"><ele>265.0</ele><time>2026-04-12T10:39:08Z</time></trkpt><trkpt lat="43.081884344778665" lon="12.149938290469516"><ele>265.0</ele><time>2026-04-12T10:39:09Z</time></trkpt><trkpt lat="43.08187147941002" lon="12.15006450424075"><ele>265.0</ele><time>2026-04-12T10:39:11Z</time></trkpt><trkpt lat="43.08202446607464" lon="12.150126439555738"><ele>265.0</ele><time>2026-04-12T10:39:14Z</time></trkpt><trkpt lat="43.08210022442064" lon="12.150111163611124"><ele>265.0</ele><time>2026-04-12T10:39:16Z</time></trkpt><trkpt lat="43.08216950607853" lon="12.15008010678684"><ele>265.0</ele><time>2026-04-12T10:39:19Z</time></trkpt><trkpt lat="43.082236639893146" lon="12.150083656735827"><ele>265.0</ele><time>2026-04-12T10:39:22Z</time></trkpt><trkpt lat="43.08236203104697" lon="12.15005837292063"><ele>265.0</ele><time>2026-04-12T10:39:31Z</time></trkpt><trkpt lat="43.0823702654143" lon="12.149926077874932"><ele>265.0</ele><time>2026-04-12T10:39:34.014Z</time></trkpt><trkpt lat="43.08222669205263" lon="12.14978984331773"><ele>265.0</ele><time>2026-04-12T10:39:46.879Z</time></trkpt></trkseg></trk></gpx>